<?xml version="1.0" encoding="UTF-8" standalone="no" ?>
<gpx xmlns="http://www.topografix.com/GPX/1/1" xmlns:xsi="http://www.w3.org/2001/XMLSchema-instance" xsi:schemaLocation="http://www.topografix.com/GPX/1/1 http://www.topografix.com/GPX/1/1/gpx.xsd" version="1.1" creator="VisuGPX - https://www.visugpx.com">
  <metadata>
    <name>Tour de la Moselle J09</name>
  </metadata>
  <wpt lat="48.60238" lon="6.15359">
    <ele>221.5</ele>
    <name><![CDATA[Pause à 16/08 10:17]]></name>
  </wpt>
  <wpt lat="48.6018" lon="6.15633">
    <ele>227.7</ele>
    <name><![CDATA[Pause à 16/08 10:25]]></name>
  </wpt>
  <wpt lat="48.64579" lon="6.28487">
    <ele>210.9</ele>
    <name><![CDATA[Pause à 16/08 11:43]]></name>
  </wpt>
  <wpt lat="48.63188" lon="6.30343">
    <ele>213.9</ele>
    <name><![CDATA[Pause à 16/08 12:02]]></name>
  </wpt>
  <wpt lat="48.63145" lon="6.30403">
    <ele>215.2</ele>
    <name><![CDATA[Pause à 16/08 12:19]]></name>
  </wpt>
  <wpt lat="48.63173" lon="6.3033">
    <ele>215</ele>
    <name><![CDATA[Pause à 16/08 12:22]]></name>
  </wpt>
  <wpt lat="48.63162" lon="6.31232">
    <ele>200</ele>
    <name><![CDATA[Pause à 16/08 12:34]]></name>
  </wpt>
  <wpt lat="48.63223" lon="6.31473">
    <ele>204</ele>
    <name><![CDATA[Pause à 16/08 12:39]]></name>
  </wpt>
  <wpt lat="48.63225" lon="6.3149">
    <ele>204.2</ele>
    <name><![CDATA[Pause à 16/08 12:50]]></name>
  </wpt>
  <wpt lat="48.63282" lon="6.31483">
    <ele>204.6</ele>
    <name><![CDATA[Pause à 16/08 13:39]]></name>
  </wpt>
  <wpt lat="48.63305" lon="6.31488">
    <ele>204.4</ele>
    <name><![CDATA[Pause à 16/08 13:44]]></name>
  </wpt>
  <wpt lat="48.64079" lon="6.40317">
    <ele>217.2</ele>
    <name><![CDATA[Pause à 16/08 14:25]]></name>
  </wpt>
  <wpt lat="48.67869" lon="6.58947">
    <ele>225.9</ele>
    <name><![CDATA[Pause à 16/08 15:40]]></name>
  </wpt>
  <trk>
    <name><![CDATA[J9]]></name>
    <extensions>
      <line xmlns="http://www.topografix.com/GPX/gpx_style/0/2">
        <color>0000FF</color>
        <width>4</width>
      </line>
    </extensions>
    <trkseg>
      <trkpt lat="48.65258" lon="5.98985">
        <ele>216</ele>
        <time>2020-08-16T06:53:55Z</time>
      </trkpt>
      <trkpt lat="48.65258" lon="5.98978">
        <ele>216</ele>
        <time>2020-08-16T06:53:57Z</time>
      </trkpt>
      <trkpt lat="48.65257" lon="5.98969">
        <ele>215</ele>
        <time>2020-08-16T06:54:00Z</time>
      </trkpt>
      <trkpt lat="48.65258" lon="5.98961">
        <ele>215</ele>
        <time>2020-08-16T06:54:02Z</time>
      </trkpt>
      <trkpt lat="48.65257" lon="5.98951">
        <ele>215</ele>
        <time>2020-08-16T06:54:04Z</time>
      </trkpt>
      <trkpt lat="48.65257" lon="5.98941">
        <ele>215</ele>
        <time>2020-08-16T06:54:06Z</time>
      </trkpt>
      <trkpt lat="48.65257" lon="5.98932">
        <ele>215</ele>
        <time>2020-08-16T06:54:08Z</time>
      </trkpt>
      <trkpt lat="48.65257" lon="5.98921">
        <ele>215</ele>
        <time>2020-08-16T06:54:10Z</time>
      </trkpt>
      <trkpt lat="48.65257" lon="5.9891">
        <ele>215</ele>
        <time>2020-08-16T06:54:12Z</time>
      </trkpt>
      <trkpt lat="48.65257" lon="5.989">
        <ele>216</ele>
        <time>2020-08-16T06:54:14Z</time>
      </trkpt>
      <trkpt lat="48.65257" lon="5.98888">
        <ele>216</ele>
        <time>2020-08-16T06:54:16Z</time>
      </trkpt>
      <trkpt lat="48.65257" lon="5.98877">
        <ele>216</ele>
        <time>2020-08-16T06:54:18Z</time>
      </trkpt>
      <trkpt lat="48.65257" lon="5.98866">
        <ele>215</ele>
        <time>2020-08-16T06:54:20Z</time>
      </trkpt>
      <trkpt lat="48.65257" lon="5.98855">
        <ele>215</ele>
        <time>2020-08-16T06:54:22Z</time>
      </trkpt>
      <trkpt lat="48.65257" lon="5.98843">
        <ele>215</ele>
        <time>2020-08-16T06:54:24Z</time>
      </trkpt>
      <trkpt lat="48.65257" lon="5.98832">
        <ele>215</ele>
        <time>2020-08-16T06:54:26Z</time>
      </trkpt>
      <trkpt lat="48.65258" lon="5.98821">
        <ele>215</ele>
        <time>2020-08-16T06:54:28Z</time>
      </trkpt>
      <trkpt lat="48.65258" lon="5.98808">
        <ele>215</ele>
        <time>2020-08-16T06:54:30Z</time>
      </trkpt>
      <trkpt lat="48.65258" lon="5.98797">
        <ele>215</ele>
        <time>2020-08-16T06:54:32Z</time>
      </trkpt>
      <trkpt lat="48.6526" lon="5.98785">
        <ele>214</ele>
        <time>2020-08-16T06:54:34Z</time>
      </trkpt>
      <trkpt lat="48.6526" lon="5.98774">
        <ele>214</ele>
        <time>2020-08-16T06:54:36Z</time>
      </trkpt>
      <trkpt lat="48.6526" lon="5.98761">
        <ele>214</ele>
        <time>2020-08-16T06:54:38Z</time>
      </trkpt>
      <trkpt lat="48.65257" lon="5.9875">
        <ele>215</ele>
        <time>2020-08-16T06:54:40Z</time>
      </trkpt>
      <trkpt lat="48.65255" lon="5.98738">
        <ele>215</ele>
        <time>2020-08-16T06:54:42Z</time>
      </trkpt>
      <trkpt lat="48.65255" lon="5.98726">
        <ele>215</ele>
        <time>2020-08-16T06:54:44Z</time>
      </trkpt>
      <trkpt lat="48.65254" lon="5.98714">
        <ele>215</ele>
        <time>2020-08-16T06:54:46Z</time>
      </trkpt>
      <trkpt lat="48.65254" lon="5.98702">
        <ele>215</ele>
        <time>2020-08-16T06:54:48Z</time>
      </trkpt>
      <trkpt lat="48.65255" lon="5.9869">
        <ele>215</ele>
        <time>2020-08-16T06:54:50Z</time>
      </trkpt>
      <trkpt lat="48.65257" lon="5.98677">
        <ele>215</ele>
        <time>2020-08-16T06:54:52Z</time>
      </trkpt>
      <trkpt lat="48.65257" lon="5.98663">
        <ele>216</ele>
        <time>2020-08-16T06:54:54Z</time>
      </trkpt>
      <trkpt lat="48.65258" lon="5.9865">
        <ele>216</ele>
        <time>2020-08-16T06:54:56Z</time>
      </trkpt>
      <trkpt lat="48.6526" lon="5.98637">
        <ele>216</ele>
        <time>2020-08-16T06:54:58Z</time>
      </trkpt>
      <trkpt lat="48.6526" lon="5.98625">
        <ele>216</ele>
        <time>2020-08-16T06:55:00Z</time>
      </trkpt>
      <trkpt lat="48.65261" lon="5.98611">
        <ele>216</ele>
        <time>2020-08-16T06:55:02Z</time>
      </trkpt>
      <trkpt lat="48.65262" lon="5.98598">
        <ele>216</ele>
        <time>2020-08-16T06:55:04Z</time>
      </trkpt>
      <trkpt lat="48.65262" lon="5.98585">
        <ele>217</ele>
        <time>2020-08-16T06:55:06Z</time>
      </trkpt>
      <trkpt lat="48.65263" lon="5.98572">
        <ele>217</ele>
        <time>2020-08-16T06:55:08Z</time>
      </trkpt>
      <trkpt lat="48.65263" lon="5.98559">
        <ele>217</ele>
        <time>2020-08-16T06:55:10Z</time>
      </trkpt>
      <trkpt lat="48.65264" lon="5.98547">
        <ele>217</ele>
        <time>2020-08-16T06:55:12Z</time>
      </trkpt>
      <trkpt lat="48.65264" lon="5.98533">
        <ele>216</ele>
        <time>2020-08-16T06:55:14Z</time>
      </trkpt>
      <trkpt lat="48.65265" lon="5.9852">
        <ele>215</ele>
        <time>2020-08-16T06:55:16Z</time>
      </trkpt>
      <trkpt lat="48.65265" lon="5.98513">
        <ele>215</ele>
        <time>2020-08-16T06:55:17Z</time>
      </trkpt>
      <trkpt lat="48.65266" lon="5.98499">
        <ele>216</ele>
        <time>2020-08-16T06:55:19Z</time>
      </trkpt>
      <trkpt lat="48.65267" lon="5.98487">
        <ele>215</ele>
        <time>2020-08-16T06:55:21Z</time>
      </trkpt>
      <trkpt lat="48.65267" lon="5.98474">
        <ele>215</ele>
        <time>2020-08-16T06:55:23Z</time>
      </trkpt>
      <trkpt lat="48.65267" lon="5.9846">
        <ele>215</ele>
        <time>2020-08-16T06:55:25Z</time>
      </trkpt>
      <trkpt lat="48.65267" lon="5.98447">
        <ele>215</ele>
        <time>2020-08-16T06:55:27Z</time>
      </trkpt>
      <trkpt lat="48.65269" lon="5.98435">
        <ele>215</ele>
        <time>2020-08-16T06:55:29Z</time>
      </trkpt>
      <trkpt lat="48.65269" lon="5.98422">
        <ele>215</ele>
        <time>2020-08-16T06:55:31Z</time>
      </trkpt>
      <trkpt lat="48.6527" lon="5.98409">
        <ele>215</ele>
        <time>2020-08-16T06:55:33Z</time>
      </trkpt>
      <trkpt lat="48.6527" lon="5.98397">
        <ele>215</ele>
        <time>2020-08-16T06:55:35Z</time>
      </trkpt>
      <trkpt lat="48.6527" lon="5.98384">
        <ele>215</ele>
        <time>2020-08-16T06:55:37Z</time>
      </trkpt>
      <trkpt lat="48.6527" lon="5.98376">
        <ele>215</ele>
        <time>2020-08-16T06:55:38Z</time>
      </trkpt>
      <trkpt lat="48.6527" lon="5.98369">
        <ele>215</ele>
        <time>2020-08-16T06:55:39Z</time>
      </trkpt>
      <trkpt lat="48.6527" lon="5.98357">
        <ele>215</ele>
        <time>2020-08-16T06:55:41Z</time>
      </trkpt>
      <trkpt lat="48.6527" lon="5.98345">
        <ele>214</ele>
        <time>2020-08-16T06:55:43Z</time>
      </trkpt>
      <trkpt lat="48.6527" lon="5.98338">
        <ele>214</ele>
        <time>2020-08-16T06:55:44Z</time>
      </trkpt>
      <trkpt lat="48.6527" lon="5.98324">
        <ele>214</ele>
        <time>2020-08-16T06:55:46Z</time>
      </trkpt>
      <trkpt lat="48.65271" lon="5.98317">
        <ele>214</ele>
        <time>2020-08-16T06:55:47Z</time>
      </trkpt>
      <trkpt lat="48.65271" lon="5.98303">
        <ele>214</ele>
        <time>2020-08-16T06:55:49Z</time>
      </trkpt>
      <trkpt lat="48.65271" lon="5.98296">
        <ele>214</ele>
        <time>2020-08-16T06:55:50Z</time>
      </trkpt>
      <trkpt lat="48.65271" lon="5.98289">
        <ele>214</ele>
        <time>2020-08-16T06:55:51Z</time>
      </trkpt>
      <trkpt lat="48.65271" lon="5.98282">
        <ele>214</ele>
        <time>2020-08-16T06:55:52Z</time>
      </trkpt>
      <trkpt lat="48.6527" lon="5.98269">
        <ele>214</ele>
        <time>2020-08-16T06:55:54Z</time>
      </trkpt>
      <trkpt lat="48.6527" lon="5.98256">
        <ele>214</ele>
        <time>2020-08-16T06:55:56Z</time>
      </trkpt>
      <trkpt lat="48.6527" lon="5.98244">
        <ele>215</ele>
        <time>2020-08-16T06:55:58Z</time>
      </trkpt>
      <trkpt lat="48.65269" lon="5.98237">
        <ele>215</ele>
        <time>2020-08-16T06:55:59Z</time>
      </trkpt>
      <trkpt lat="48.65269" lon="5.98223">
        <ele>214</ele>
        <time>2020-08-16T06:56:01Z</time>
      </trkpt>
      <trkpt lat="48.65268" lon="5.9821">
        <ele>215</ele>
        <time>2020-08-16T06:56:03Z</time>
      </trkpt>
      <trkpt lat="48.65268" lon="5.98198">
        <ele>215</ele>
        <time>2020-08-16T06:56:05Z</time>
      </trkpt>
      <trkpt lat="48.65268" lon="5.98185">
        <ele>215</ele>
        <time>2020-08-16T06:56:07Z</time>
      </trkpt>
      <trkpt lat="48.65267" lon="5.98172">
        <ele>215</ele>
        <time>2020-08-16T06:56:09Z</time>
      </trkpt>
      <trkpt lat="48.65267" lon="5.9816">
        <ele>215</ele>
        <time>2020-08-16T06:56:11Z</time>
      </trkpt>
      <trkpt lat="48.65267" lon="5.98147">
        <ele>215</ele>
        <time>2020-08-16T06:56:13Z</time>
      </trkpt>
      <trkpt lat="48.65266" lon="5.9814">
        <ele>215</ele>
        <time>2020-08-16T06:56:14Z</time>
      </trkpt>
      <trkpt lat="48.65265" lon="5.98127">
        <ele>215</ele>
        <time>2020-08-16T06:56:16Z</time>
      </trkpt>
      <trkpt lat="48.65265" lon="5.98115">
        <ele>214</ele>
        <time>2020-08-16T06:56:18Z</time>
      </trkpt>
      <trkpt lat="48.65263" lon="5.98103">
        <ele>214</ele>
        <time>2020-08-16T06:56:20Z</time>
      </trkpt>
      <trkpt lat="48.65262" lon="5.98091">
        <ele>214</ele>
        <time>2020-08-16T06:56:22Z</time>
      </trkpt>
      <trkpt lat="48.65261" lon="5.98077">
        <ele>214</ele>
        <time>2020-08-16T06:56:24Z</time>
      </trkpt>
      <trkpt lat="48.6526" lon="5.9807">
        <ele>214</ele>
        <time>2020-08-16T06:56:25Z</time>
      </trkpt>
      <trkpt lat="48.65258" lon="5.98057">
        <ele>213</ele>
        <time>2020-08-16T06:56:27Z</time>
      </trkpt>
      <trkpt lat="48.65258" lon="5.9805">
        <ele>213</ele>
        <time>2020-08-16T06:56:28Z</time>
      </trkpt>
      <trkpt lat="48.65257" lon="5.98043">
        <ele>213</ele>
        <time>2020-08-16T06:56:29Z</time>
      </trkpt>
      <trkpt lat="48.65255" lon="5.98029">
        <ele>213</ele>
        <time>2020-08-16T06:56:31Z</time>
      </trkpt>
      <trkpt lat="48.65254" lon="5.98022">
        <ele>213</ele>
        <time>2020-08-16T06:56:32Z</time>
      </trkpt>
      <trkpt lat="48.65253" lon="5.98015">
        <ele>213</ele>
        <time>2020-08-16T06:56:33Z</time>
      </trkpt>
      <trkpt lat="48.65252" lon="5.98008">
        <ele>213</ele>
        <time>2020-08-16T06:56:34Z</time>
      </trkpt>
      <trkpt lat="48.65252" lon="5.98">
        <ele>213</ele>
        <time>2020-08-16T06:56:35Z</time>
      </trkpt>
      <trkpt lat="48.6525" lon="5.97993">
        <ele>213</ele>
        <time>2020-08-16T06:56:36Z</time>
      </trkpt>
      <trkpt lat="48.65249" lon="5.97987">
        <ele>213</ele>
        <time>2020-08-16T06:56:37Z</time>
      </trkpt>
      <trkpt lat="48.65249" lon="5.9798">
        <ele>213</ele>
        <time>2020-08-16T06:56:38Z</time>
      </trkpt>
      <trkpt lat="48.65246" lon="5.97966">
        <ele>213</ele>
        <time>2020-08-16T06:56:40Z</time>
      </trkpt>
      <trkpt lat="48.65245" lon="5.9796">
        <ele>213</ele>
        <time>2020-08-16T06:56:41Z</time>
      </trkpt>
      <trkpt lat="48.65244" lon="5.97946">
        <ele>213</ele>
        <time>2020-08-16T06:56:43Z</time>
      </trkpt>
      <trkpt lat="48.65242" lon="5.97933">
        <ele>213</ele>
        <time>2020-08-16T06:56:45Z</time>
      </trkpt>
      <trkpt lat="48.65241" lon="5.97927">
        <ele>213</ele>
        <time>2020-08-16T06:56:46Z</time>
      </trkpt>
      <trkpt lat="48.65238" lon="5.97914">
        <ele>214</ele>
        <time>2020-08-16T06:56:48Z</time>
      </trkpt>
      <trkpt lat="48.65237" lon="5.97907">
        <ele>214</ele>
        <time>2020-08-16T06:56:49Z</time>
      </trkpt>
      <trkpt lat="48.65234" lon="5.97895">
        <ele>214</ele>
        <time>2020-08-16T06:56:51Z</time>
      </trkpt>
      <trkpt lat="48.65231" lon="5.97882">
        <ele>214</ele>
        <time>2020-08-16T06:56:53Z</time>
      </trkpt>
      <trkpt lat="48.6523" lon="5.97869">
        <ele>214</ele>
        <time>2020-08-16T06:56:55Z</time>
      </trkpt>
      <trkpt lat="48.65228" lon="5.97857">
        <ele>214</ele>
        <time>2020-08-16T06:56:57Z</time>
      </trkpt>
      <trkpt lat="48.65227" lon="5.97845">
        <ele>214</ele>
        <time>2020-08-16T06:56:59Z</time>
      </trkpt>
      <trkpt lat="48.65225" lon="5.97834">
        <ele>214</ele>
        <time>2020-08-16T06:57:01Z</time>
      </trkpt>
      <trkpt lat="48.65223" lon="5.97825">
        <ele>214</ele>
        <time>2020-08-16T06:57:03Z</time>
      </trkpt>
      <trkpt lat="48.65221" lon="5.97816">
        <ele>215</ele>
        <time>2020-08-16T06:57:05Z</time>
      </trkpt>
      <trkpt lat="48.6522" lon="5.97807">
        <ele>215</ele>
        <time>2020-08-16T06:57:07Z</time>
      </trkpt>
      <trkpt lat="48.65216" lon="5.978">
        <ele>215</ele>
        <time>2020-08-16T06:57:09Z</time>
      </trkpt>
      <trkpt lat="48.65212" lon="5.97795">
        <ele>215</ele>
        <time>2020-08-16T06:57:11Z</time>
      </trkpt>
      <trkpt lat="48.65207" lon="5.97791">
        <ele>215</ele>
        <time>2020-08-16T06:57:13Z</time>
      </trkpt>
      <trkpt lat="48.65201" lon="5.97789">
        <ele>215</ele>
        <time>2020-08-16T06:57:15Z</time>
      </trkpt>
      <trkpt lat="48.65196" lon="5.97789">
        <ele>214</ele>
        <time>2020-08-16T06:57:17Z</time>
      </trkpt>
      <trkpt lat="48.65187" lon="5.97792">
        <ele>212</ele>
        <time>2020-08-16T06:57:21Z</time>
      </trkpt>
      <trkpt lat="48.65181" lon="5.97794">
        <ele>212</ele>
        <time>2020-08-16T06:57:23Z</time>
      </trkpt>
      <trkpt lat="48.65176" lon="5.97797">
        <ele>211</ele>
        <time>2020-08-16T06:57:25Z</time>
      </trkpt>
      <trkpt lat="48.65169" lon="5.97799">
        <ele>211</ele>
        <time>2020-08-16T06:57:27Z</time>
      </trkpt>
      <trkpt lat="48.65163" lon="5.97802">
        <ele>212</ele>
        <time>2020-08-16T06:57:29Z</time>
      </trkpt>
      <trkpt lat="48.65157" lon="5.97803">
        <ele>212</ele>
        <time>2020-08-16T06:57:31Z</time>
      </trkpt>
      <trkpt lat="48.65149" lon="5.97805">
        <ele>211</ele>
        <time>2020-08-16T06:57:33Z</time>
      </trkpt>
      <trkpt lat="48.65143" lon="5.97808">
        <ele>211</ele>
        <time>2020-08-16T06:57:35Z</time>
      </trkpt>
      <trkpt lat="48.65136" lon="5.97811">
        <ele>211</ele>
        <time>2020-08-16T06:57:37Z</time>
      </trkpt>
      <trkpt lat="48.65128" lon="5.97814">
        <ele>211</ele>
        <time>2020-08-16T06:57:39Z</time>
      </trkpt>
      <trkpt lat="48.65121" lon="5.97818">
        <ele>212</ele>
        <time>2020-08-16T06:57:41Z</time>
      </trkpt>
      <trkpt lat="48.65114" lon="5.97821">
        <ele>213</ele>
        <time>2020-08-16T06:57:43Z</time>
      </trkpt>
      <trkpt lat="48.65107" lon="5.97823">
        <ele>214</ele>
        <time>2020-08-16T06:57:45Z</time>
      </trkpt>
      <trkpt lat="48.651" lon="5.97826">
        <ele>214</ele>
        <time>2020-08-16T06:57:47Z</time>
      </trkpt>
      <trkpt lat="48.65091" lon="5.97829">
        <ele>214</ele>
        <time>2020-08-16T06:57:49Z</time>
      </trkpt>
      <trkpt lat="48.65087" lon="5.97829">
        <ele>214</ele>
        <time>2020-08-16T06:57:50Z</time>
      </trkpt>
      <trkpt lat="48.65082" lon="5.97829">
        <ele>214</ele>
        <time>2020-08-16T06:57:51Z</time>
      </trkpt>
      <trkpt lat="48.65077" lon="5.97825">
        <ele>215</ele>
        <time>2020-08-16T06:57:52Z</time>
      </trkpt>
      <trkpt lat="48.65072" lon="5.97821">
        <ele>215</ele>
        <time>2020-08-16T06:57:53Z</time>
      </trkpt>
      <trkpt lat="48.65068" lon="5.97813">
        <ele>215</ele>
        <time>2020-08-16T06:57:54Z</time>
      </trkpt>
      <trkpt lat="48.65065" lon="5.97804">
        <ele>215</ele>
        <time>2020-08-16T06:57:55Z</time>
      </trkpt>
      <trkpt lat="48.65064" lon="5.97795">
        <ele>215</ele>
        <time>2020-08-16T06:57:56Z</time>
      </trkpt>
      <trkpt lat="48.65064" lon="5.97786">
        <ele>215</ele>
        <time>2020-08-16T06:57:57Z</time>
      </trkpt>
      <trkpt lat="48.65062" lon="5.97776">
        <ele>215</ele>
        <time>2020-08-16T06:57:58Z</time>
      </trkpt>
      <trkpt lat="48.65062" lon="5.97766">
        <ele>215</ele>
        <time>2020-08-16T06:57:59Z</time>
      </trkpt>
      <trkpt lat="48.65061" lon="5.97755">
        <ele>215</ele>
        <time>2020-08-16T06:58:00Z</time>
      </trkpt>
      <trkpt lat="48.6506" lon="5.97746">
        <ele>215</ele>
        <time>2020-08-16T06:58:01Z</time>
      </trkpt>
      <trkpt lat="48.65059" lon="5.97737">
        <ele>215</ele>
        <time>2020-08-16T06:58:02Z</time>
      </trkpt>
      <trkpt lat="48.65058" lon="5.97729">
        <ele>215</ele>
        <time>2020-08-16T06:58:03Z</time>
      </trkpt>
      <trkpt lat="48.65057" lon="5.97719">
        <ele>215</ele>
        <time>2020-08-16T06:58:04Z</time>
      </trkpt>
      <trkpt lat="48.65056" lon="5.97711">
        <ele>215</ele>
        <time>2020-08-16T06:58:05Z</time>
      </trkpt>
      <trkpt lat="48.65054" lon="5.97702">
        <ele>215</ele>
        <time>2020-08-16T06:58:06Z</time>
      </trkpt>
      <trkpt lat="48.65053" lon="5.97694">
        <ele>215</ele>
        <time>2020-08-16T06:58:07Z</time>
      </trkpt>
      <trkpt lat="48.65051" lon="5.97687">
        <ele>215</ele>
        <time>2020-08-16T06:58:08Z</time>
      </trkpt>
      <trkpt lat="48.6505" lon="5.97679">
        <ele>215</ele>
        <time>2020-08-16T06:58:09Z</time>
      </trkpt>
      <trkpt lat="48.65049" lon="5.97672">
        <ele>215</ele>
        <time>2020-08-16T06:58:10Z</time>
      </trkpt>
      <trkpt lat="48.65047" lon="5.97659">
        <ele>215</ele>
        <time>2020-08-16T06:58:12Z</time>
      </trkpt>
      <trkpt lat="48.65044" lon="5.97647">
        <ele>215</ele>
        <time>2020-08-16T06:58:14Z</time>
      </trkpt>
      <trkpt lat="48.6504" lon="5.97642">
        <ele>215</ele>
        <time>2020-08-16T06:58:15Z</time>
      </trkpt>
      <trkpt lat="48.65037" lon="5.9763">
        <ele>215</ele>
        <time>2020-08-16T06:58:17Z</time>
      </trkpt>
      <trkpt lat="48.65036" lon="5.97622">
        <ele>215</ele>
        <time>2020-08-16T06:58:18Z</time>
      </trkpt>
      <trkpt lat="48.65035" lon="5.97615">
        <ele>215</ele>
        <time>2020-08-16T06:58:19Z</time>
      </trkpt>
      <trkpt lat="48.65033" lon="5.97608">
        <ele>215</ele>
        <time>2020-08-16T06:58:20Z</time>
      </trkpt>
      <trkpt lat="48.65031" lon="5.97595">
        <ele>215</ele>
        <time>2020-08-16T06:58:22Z</time>
      </trkpt>
      <trkpt lat="48.65029" lon="5.97588">
        <ele>215</ele>
        <time>2020-08-16T06:58:23Z</time>
      </trkpt>
      <trkpt lat="48.65028" lon="5.9758">
        <ele>215</ele>
        <time>2020-08-16T06:58:24Z</time>
      </trkpt>
      <trkpt lat="48.65026" lon="5.97574">
        <ele>215</ele>
        <time>2020-08-16T06:58:25Z</time>
      </trkpt>
      <trkpt lat="48.65025" lon="5.97562">
        <ele>215</ele>
        <time>2020-08-16T06:58:27Z</time>
      </trkpt>
      <trkpt lat="48.6502" lon="5.9755">
        <ele>215</ele>
        <time>2020-08-16T06:58:29Z</time>
      </trkpt>
      <trkpt lat="48.65016" lon="5.97539">
        <ele>215</ele>
        <time>2020-08-16T06:58:31Z</time>
      </trkpt>
      <trkpt lat="48.65015" lon="5.97531">
        <ele>215</ele>
        <time>2020-08-16T06:58:32Z</time>
      </trkpt>
      <trkpt lat="48.65011" lon="5.97518">
        <ele>215</ele>
        <time>2020-08-16T06:58:34Z</time>
      </trkpt>
      <trkpt lat="48.65007" lon="5.97506">
        <ele>215</ele>
        <time>2020-08-16T06:58:36Z</time>
      </trkpt>
      <trkpt lat="48.65004" lon="5.97494">
        <ele>215</ele>
        <time>2020-08-16T06:58:38Z</time>
      </trkpt>
      <trkpt lat="48.65001" lon="5.97483">
        <ele>215</ele>
        <time>2020-08-16T06:58:40Z</time>
      </trkpt>
      <trkpt lat="48.64997" lon="5.97471">
        <ele>215</ele>
        <time>2020-08-16T06:58:42Z</time>
      </trkpt>
      <trkpt lat="48.64996" lon="5.97464">
        <ele>215</ele>
        <time>2020-08-16T06:58:43Z</time>
      </trkpt>
      <trkpt lat="48.64993" lon="5.97452">
        <ele>215</ele>
        <time>2020-08-16T06:58:45Z</time>
      </trkpt>
      <trkpt lat="48.64992" lon="5.97445">
        <ele>215</ele>
        <time>2020-08-16T06:58:46Z</time>
      </trkpt>
      <trkpt lat="48.6499" lon="5.97439">
        <ele>215</ele>
        <time>2020-08-16T06:58:47Z</time>
      </trkpt>
      <trkpt lat="48.64987" lon="5.97426">
        <ele>215</ele>
        <time>2020-08-16T06:58:49Z</time>
      </trkpt>
      <trkpt lat="48.64985" lon="5.97419">
        <ele>215</ele>
        <time>2020-08-16T06:58:50Z</time>
      </trkpt>
      <trkpt lat="48.64981" lon="5.97406">
        <ele>215</ele>
        <time>2020-08-16T06:58:52Z</time>
      </trkpt>
      <trkpt lat="48.64977" lon="5.97394">
        <ele>215</ele>
        <time>2020-08-16T06:58:54Z</time>
      </trkpt>
      <trkpt lat="48.64973" lon="5.9739">
        <ele>214</ele>
        <time>2020-08-16T06:58:55Z</time>
      </trkpt>
      <trkpt lat="48.64969" lon="5.97387">
        <ele>214</ele>
        <time>2020-08-16T06:58:56Z</time>
      </trkpt>
      <trkpt lat="48.64961" lon="5.97382">
        <ele>214</ele>
        <time>2020-08-16T06:58:58Z</time>
      </trkpt>
      <trkpt lat="48.64953" lon="5.97382">
        <ele>213</ele>
        <time>2020-08-16T06:59:00Z</time>
      </trkpt>
      <trkpt lat="48.64945" lon="5.97386">
        <ele>210</ele>
        <time>2020-08-16T06:59:02Z</time>
      </trkpt>
      <trkpt lat="48.64939" lon="5.97391">
        <ele>208</ele>
        <time>2020-08-16T06:59:04Z</time>
      </trkpt>
      <trkpt lat="48.64933" lon="5.97394">
        <ele>210</ele>
        <time>2020-08-16T06:59:06Z</time>
      </trkpt>
      <trkpt lat="48.64927" lon="5.97398">
        <ele>213</ele>
        <time>2020-08-16T06:59:08Z</time>
      </trkpt>
      <trkpt lat="48.6492" lon="5.97401">
        <ele>214</ele>
        <time>2020-08-16T06:59:10Z</time>
      </trkpt>
      <trkpt lat="48.64916" lon="5.97405">
        <ele>215</ele>
        <time>2020-08-16T06:59:12Z</time>
      </trkpt>
      <trkpt lat="48.64915" lon="5.97412">
        <ele>215</ele>
        <time>2020-08-16T06:59:16Z</time>
      </trkpt>
      <trkpt lat="48.64916" lon="5.9742">
        <ele>215</ele>
        <time>2020-08-16T06:59:19Z</time>
      </trkpt>
      <trkpt lat="48.64917" lon="5.97427">
        <ele>215</ele>
        <time>2020-08-16T06:59:21Z</time>
      </trkpt>
      <trkpt lat="48.64919" lon="5.97436">
        <ele>215</ele>
        <time>2020-08-16T06:59:23Z</time>
      </trkpt>
      <trkpt lat="48.64922" lon="5.97445">
        <ele>215</ele>
        <time>2020-08-16T06:59:25Z</time>
      </trkpt>
      <trkpt lat="48.64924" lon="5.97455">
        <ele>215</ele>
        <time>2020-08-16T06:59:27Z</time>
      </trkpt>
      <trkpt lat="48.64927" lon="5.97466">
        <ele>215</ele>
        <time>2020-08-16T06:59:29Z</time>
      </trkpt>
      <trkpt lat="48.64929" lon="5.97477">
        <ele>215</ele>
        <time>2020-08-16T06:59:31Z</time>
      </trkpt>
      <trkpt lat="48.64932" lon="5.97488">
        <ele>215</ele>
        <time>2020-08-16T06:59:33Z</time>
      </trkpt>
      <trkpt lat="48.64935" lon="5.97499">
        <ele>215</ele>
        <time>2020-08-16T06:59:35Z</time>
      </trkpt>
      <trkpt lat="48.64936" lon="5.97511">
        <ele>215</ele>
        <time>2020-08-16T06:59:37Z</time>
      </trkpt>
      <trkpt lat="48.64939" lon="5.97522">
        <ele>215</ele>
        <time>2020-08-16T06:59:39Z</time>
      </trkpt>
      <trkpt lat="48.64942" lon="5.97534">
        <ele>215</ele>
        <time>2020-08-16T06:59:41Z</time>
      </trkpt>
      <trkpt lat="48.64945" lon="5.97545">
        <ele>215</ele>
        <time>2020-08-16T06:59:43Z</time>
      </trkpt>
      <trkpt lat="48.64948" lon="5.97558">
        <ele>215</ele>
        <time>2020-08-16T06:59:45Z</time>
      </trkpt>
      <trkpt lat="48.64952" lon="5.9757">
        <ele>214</ele>
        <time>2020-08-16T06:59:47Z</time>
      </trkpt>
      <trkpt lat="48.64953" lon="5.97577">
        <ele>214</ele>
        <time>2020-08-16T06:59:48Z</time>
      </trkpt>
      <trkpt lat="48.64955" lon="5.97583">
        <ele>214</ele>
        <time>2020-08-16T06:59:49Z</time>
      </trkpt>
      <trkpt lat="48.64958" lon="5.97595">
        <ele>215</ele>
        <time>2020-08-16T06:59:51Z</time>
      </trkpt>
      <trkpt lat="48.64961" lon="5.97608">
        <ele>215</ele>
        <time>2020-08-16T06:59:53Z</time>
      </trkpt>
      <trkpt lat="48.64962" lon="5.97614">
        <ele>215</ele>
        <time>2020-08-16T06:59:54Z</time>
      </trkpt>
      <trkpt lat="48.64964" lon="5.97621">
        <ele>215</ele>
        <time>2020-08-16T06:59:55Z</time>
      </trkpt>
      <trkpt lat="48.64966" lon="5.97628">
        <ele>215</ele>
        <time>2020-08-16T06:59:56Z</time>
      </trkpt>
      <trkpt lat="48.64968" lon="5.97634">
        <ele>215</ele>
        <time>2020-08-16T06:59:57Z</time>
      </trkpt>
      <trkpt lat="48.6497" lon="5.97647">
        <ele>215</ele>
        <time>2020-08-16T06:59:59Z</time>
      </trkpt>
      <trkpt lat="48.64972" lon="5.97654">
        <ele>215</ele>
        <time>2020-08-16T07:00:00Z</time>
      </trkpt>
      <trkpt lat="48.64974" lon="5.97661">
        <ele>215</ele>
        <time>2020-08-16T07:00:01Z</time>
      </trkpt>
      <trkpt lat="48.64976" lon="5.97668">
        <ele>215</ele>
        <time>2020-08-16T07:00:02Z</time>
      </trkpt>
      <trkpt lat="48.64978" lon="5.97675">
        <ele>215</ele>
        <time>2020-08-16T07:00:03Z</time>
      </trkpt>
      <trkpt lat="48.64979" lon="5.97682">
        <ele>215</ele>
        <time>2020-08-16T07:00:04Z</time>
      </trkpt>
      <trkpt lat="48.6498" lon="5.97689">
        <ele>215</ele>
        <time>2020-08-16T07:00:05Z</time>
      </trkpt>
      <trkpt lat="48.64982" lon="5.97695">
        <ele>215</ele>
        <time>2020-08-16T07:00:06Z</time>
      </trkpt>
      <trkpt lat="48.64983" lon="5.97703">
        <ele>215</ele>
        <time>2020-08-16T07:00:07Z</time>
      </trkpt>
      <trkpt lat="48.64985" lon="5.97711">
        <ele>215</ele>
        <time>2020-08-16T07:00:08Z</time>
      </trkpt>
      <trkpt lat="48.64986" lon="5.97718">
        <ele>215</ele>
        <time>2020-08-16T07:00:09Z</time>
      </trkpt>
      <trkpt lat="48.64988" lon="5.97725">
        <ele>215</ele>
        <time>2020-08-16T07:00:10Z</time>
      </trkpt>
      <trkpt lat="48.6499" lon="5.97732">
        <ele>215</ele>
        <time>2020-08-16T07:00:11Z</time>
      </trkpt>
      <trkpt lat="48.6499" lon="5.97739">
        <ele>215</ele>
        <time>2020-08-16T07:00:12Z</time>
      </trkpt>
      <trkpt lat="48.64992" lon="5.97746">
        <ele>215</ele>
        <time>2020-08-16T07:00:13Z</time>
      </trkpt>
      <trkpt lat="48.64993" lon="5.97753">
        <ele>215</ele>
        <time>2020-08-16T07:00:14Z</time>
      </trkpt>
      <trkpt lat="48.64996" lon="5.97767">
        <ele>215</ele>
        <time>2020-08-16T07:00:16Z</time>
      </trkpt>
      <trkpt lat="48.64997" lon="5.97773">
        <ele>215</ele>
        <time>2020-08-16T07:00:17Z</time>
      </trkpt>
      <trkpt lat="48.64998" lon="5.9778">
        <ele>215</ele>
        <time>2020-08-16T07:00:18Z</time>
      </trkpt>
      <trkpt lat="48.65" lon="5.97787">
        <ele>216</ele>
        <time>2020-08-16T07:00:19Z</time>
      </trkpt>
      <trkpt lat="48.65002" lon="5.97795">
        <ele>216</ele>
        <time>2020-08-16T07:00:20Z</time>
      </trkpt>
      <trkpt lat="48.65003" lon="5.97801">
        <ele>216</ele>
        <time>2020-08-16T07:00:21Z</time>
      </trkpt>
      <trkpt lat="48.65006" lon="5.97815">
        <ele>215</ele>
        <time>2020-08-16T07:00:23Z</time>
      </trkpt>
      <trkpt lat="48.65008" lon="5.97821">
        <ele>214</ele>
        <time>2020-08-16T07:00:24Z</time>
      </trkpt>
      <trkpt lat="48.65009" lon="5.97828">
        <ele>214</ele>
        <time>2020-08-16T07:00:25Z</time>
      </trkpt>
      <trkpt lat="48.65012" lon="5.97841">
        <ele>214</ele>
        <time>2020-08-16T07:00:27Z</time>
      </trkpt>
      <trkpt lat="48.65015" lon="5.97853">
        <ele>214</ele>
        <time>2020-08-16T07:00:29Z</time>
      </trkpt>
      <trkpt lat="48.65019" lon="5.9787">
        <ele>214</ele>
        <time>2020-08-16T07:00:32Z</time>
      </trkpt>
      <trkpt lat="48.65022" lon="5.97881">
        <ele>214</ele>
        <time>2020-08-16T07:00:34Z</time>
      </trkpt>
      <trkpt lat="48.65024" lon="5.97892">
        <ele>214</ele>
        <time>2020-08-16T07:00:36Z</time>
      </trkpt>
      <trkpt lat="48.65027" lon="5.97904">
        <ele>214</ele>
        <time>2020-08-16T07:00:38Z</time>
      </trkpt>
      <trkpt lat="48.65029" lon="5.97917">
        <ele>214</ele>
        <time>2020-08-16T07:00:40Z</time>
      </trkpt>
      <trkpt lat="48.6503" lon="5.97924">
        <ele>214</ele>
        <time>2020-08-16T07:00:41Z</time>
      </trkpt>
      <trkpt lat="48.65031" lon="5.97931">
        <ele>214</ele>
        <time>2020-08-16T07:00:42Z</time>
      </trkpt>
      <trkpt lat="48.65032" lon="5.97937">
        <ele>214</ele>
        <time>2020-08-16T07:00:43Z</time>
      </trkpt>
      <trkpt lat="48.65033" lon="5.97944">
        <ele>214</ele>
        <time>2020-08-16T07:00:44Z</time>
      </trkpt>
      <trkpt lat="48.65035" lon="5.97951">
        <ele>214</ele>
        <time>2020-08-16T07:00:45Z</time>
      </trkpt>
      <trkpt lat="48.65036" lon="5.97958">
        <ele>214</ele>
        <time>2020-08-16T07:00:46Z</time>
      </trkpt>
      <trkpt lat="48.65038" lon="5.97965">
        <ele>214</ele>
        <time>2020-08-16T07:00:47Z</time>
      </trkpt>
      <trkpt lat="48.65039" lon="5.97972">
        <ele>214</ele>
        <time>2020-08-16T07:00:48Z</time>
      </trkpt>
      <trkpt lat="48.6504" lon="5.97979">
        <ele>214</ele>
        <time>2020-08-16T07:00:49Z</time>
      </trkpt>
      <trkpt lat="48.65041" lon="5.97986">
        <ele>214</ele>
        <time>2020-08-16T07:00:50Z</time>
      </trkpt>
      <trkpt lat="48.65043" lon="5.97992">
        <ele>214</ele>
        <time>2020-08-16T07:00:51Z</time>
      </trkpt>
      <trkpt lat="48.65044" lon="5.97999">
        <ele>214</ele>
        <time>2020-08-16T07:00:52Z</time>
      </trkpt>
      <trkpt lat="48.65045" lon="5.98006">
        <ele>214</ele>
        <time>2020-08-16T07:00:53Z</time>
      </trkpt>
      <trkpt lat="48.65046" lon="5.98013">
        <ele>214</ele>
        <time>2020-08-16T07:00:54Z</time>
      </trkpt>
      <trkpt lat="48.65046" lon="5.9802">
        <ele>214</ele>
        <time>2020-08-16T07:00:55Z</time>
      </trkpt>
      <trkpt lat="48.65047" lon="5.98028">
        <ele>214</ele>
        <time>2020-08-16T07:00:56Z</time>
      </trkpt>
      <trkpt lat="48.65047" lon="5.98035">
        <ele>214</ele>
        <time>2020-08-16T07:00:57Z</time>
      </trkpt>
      <trkpt lat="48.65048" lon="5.98042">
        <ele>214</ele>
        <time>2020-08-16T07:00:58Z</time>
      </trkpt>
      <trkpt lat="48.65048" lon="5.98049">
        <ele>214</ele>
        <time>2020-08-16T07:00:59Z</time>
      </trkpt>
      <trkpt lat="48.65048" lon="5.98056">
        <ele>214</ele>
        <time>2020-08-16T07:01:00Z</time>
      </trkpt>
      <trkpt lat="48.65049" lon="5.98064">
        <ele>214</ele>
        <time>2020-08-16T07:01:01Z</time>
      </trkpt>
      <trkpt lat="48.65049" lon="5.98071">
        <ele>214</ele>
        <time>2020-08-16T07:01:02Z</time>
      </trkpt>
      <trkpt lat="48.6505" lon="5.98079">
        <ele>214</ele>
        <time>2020-08-16T07:01:03Z</time>
      </trkpt>
      <trkpt lat="48.65051" lon="5.98087">
        <ele>214</ele>
        <time>2020-08-16T07:01:04Z</time>
      </trkpt>
      <trkpt lat="48.65051" lon="5.98094">
        <ele>214</ele>
        <time>2020-08-16T07:01:05Z</time>
      </trkpt>
      <trkpt lat="48.65051" lon="5.98101">
        <ele>214</ele>
        <time>2020-08-16T07:01:06Z</time>
      </trkpt>
      <trkpt lat="48.65051" lon="5.98108">
        <ele>214</ele>
        <time>2020-08-16T07:01:07Z</time>
      </trkpt>
      <trkpt lat="48.6505" lon="5.98116">
        <ele>214</ele>
        <time>2020-08-16T07:01:08Z</time>
      </trkpt>
      <trkpt lat="48.6505" lon="5.98123">
        <ele>215</ele>
        <time>2020-08-16T07:01:09Z</time>
      </trkpt>
      <trkpt lat="48.6505" lon="5.98131">
        <ele>215</ele>
        <time>2020-08-16T07:01:10Z</time>
      </trkpt>
      <trkpt lat="48.6505" lon="5.98139">
        <ele>214</ele>
        <time>2020-08-16T07:01:11Z</time>
      </trkpt>
      <trkpt lat="48.6505" lon="5.98146">
        <ele>214</ele>
        <time>2020-08-16T07:01:12Z</time>
      </trkpt>
      <trkpt lat="48.6505" lon="5.98154">
        <ele>214</ele>
        <time>2020-08-16T07:01:13Z</time>
      </trkpt>
      <trkpt lat="48.6505" lon="5.98161">
        <ele>214</ele>
        <time>2020-08-16T07:01:14Z</time>
      </trkpt>
      <trkpt lat="48.6505" lon="5.98169">
        <ele>215</ele>
        <time>2020-08-16T07:01:15Z</time>
      </trkpt>
      <trkpt lat="48.65051" lon="5.98176">
        <ele>215</ele>
        <time>2020-08-16T07:01:16Z</time>
      </trkpt>
      <trkpt lat="48.65051" lon="5.98184">
        <ele>215</ele>
        <time>2020-08-16T07:01:17Z</time>
      </trkpt>
      <trkpt lat="48.65052" lon="5.98191">
        <ele>215</ele>
        <time>2020-08-16T07:01:18Z</time>
      </trkpt>
      <trkpt lat="48.65052" lon="5.98205">
        <ele>215</ele>
        <time>2020-08-16T07:01:20Z</time>
      </trkpt>
      <trkpt lat="48.65052" lon="5.98212">
        <ele>215</ele>
        <time>2020-08-16T07:01:21Z</time>
      </trkpt>
      <trkpt lat="48.65052" lon="5.98226">
        <ele>216</ele>
        <time>2020-08-16T07:01:23Z</time>
      </trkpt>
      <trkpt lat="48.65052" lon="5.98233">
        <ele>216</ele>
        <time>2020-08-16T07:01:24Z</time>
      </trkpt>
      <trkpt lat="48.65052" lon="5.9824">
        <ele>216</ele>
        <time>2020-08-16T07:01:25Z</time>
      </trkpt>
      <trkpt lat="48.65052" lon="5.98248">
        <ele>217</ele>
        <time>2020-08-16T07:01:26Z</time>
      </trkpt>
      <trkpt lat="48.65052" lon="5.98255">
        <ele>217</ele>
        <time>2020-08-16T07:01:27Z</time>
      </trkpt>
      <trkpt lat="48.65052" lon="5.98263">
        <ele>217</ele>
        <time>2020-08-16T07:01:28Z</time>
      </trkpt>
      <trkpt lat="48.65052" lon="5.9827">
        <ele>218</ele>
        <time>2020-08-16T07:01:29Z</time>
      </trkpt>
      <trkpt lat="48.65052" lon="5.98278">
        <ele>219</ele>
        <time>2020-08-16T07:01:30Z</time>
      </trkpt>
      <trkpt lat="48.65052" lon="5.98285">
        <ele>219</ele>
        <time>2020-08-16T07:01:31Z</time>
      </trkpt>
      <trkpt lat="48.65052" lon="5.98292">
        <ele>219</ele>
        <time>2020-08-16T07:01:32Z</time>
      </trkpt>
      <trkpt lat="48.65052" lon="5.98299">
        <ele>219</ele>
        <time>2020-08-16T07:01:33Z</time>
      </trkpt>
      <trkpt lat="48.65051" lon="5.98306">
        <ele>220</ele>
        <time>2020-08-16T07:01:34Z</time>
      </trkpt>
      <trkpt lat="48.6505" lon="5.98319">
        <ele>222</ele>
        <time>2020-08-16T07:01:36Z</time>
      </trkpt>
      <trkpt lat="48.65051" lon="5.98326">
        <ele>221</ele>
        <time>2020-08-16T07:01:37Z</time>
      </trkpt>
      <trkpt lat="48.65051" lon="5.98334">
        <ele>221</ele>
        <time>2020-08-16T07:01:38Z</time>
      </trkpt>
      <trkpt lat="48.6505" lon="5.98341">
        <ele>222</ele>
        <time>2020-08-16T07:01:39Z</time>
      </trkpt>
      <trkpt lat="48.65051" lon="5.98354">
        <ele>222</ele>
        <time>2020-08-16T07:01:41Z</time>
      </trkpt>
      <trkpt lat="48.65052" lon="5.98367">
        <ele>221</ele>
        <time>2020-08-16T07:01:43Z</time>
      </trkpt>
      <trkpt lat="48.65051" lon="5.98381">
        <ele>222</ele>
        <time>2020-08-16T07:01:45Z</time>
      </trkpt>
      <trkpt lat="48.65051" lon="5.98393">
        <ele>222</ele>
        <time>2020-08-16T07:01:47Z</time>
      </trkpt>
      <trkpt lat="48.65049" lon="5.98408">
        <ele>225</ele>
        <time>2020-08-16T07:01:49Z</time>
      </trkpt>
      <trkpt lat="48.6505" lon="5.9842">
        <ele>226</ele>
        <time>2020-08-16T07:01:51Z</time>
      </trkpt>
      <trkpt lat="48.65052" lon="5.98426">
        <ele>225</ele>
        <time>2020-08-16T07:01:52Z</time>
      </trkpt>
      <trkpt lat="48.65052" lon="5.98434">
        <ele>224</ele>
        <time>2020-08-16T07:01:53Z</time>
      </trkpt>
      <trkpt lat="48.65054" lon="5.98445">
        <ele>223</ele>
        <time>2020-08-16T07:01:55Z</time>
      </trkpt>
      <trkpt lat="48.65055" lon="5.98453">
        <ele>224</ele>
        <time>2020-08-16T07:01:56Z</time>
      </trkpt>
      <trkpt lat="48.65057" lon="5.98468">
        <ele>224</ele>
        <time>2020-08-16T07:01:58Z</time>
      </trkpt>
      <trkpt lat="48.65057" lon="5.98476">
        <ele>224</ele>
        <time>2020-08-16T07:01:59Z</time>
      </trkpt>
      <trkpt lat="48.65058" lon="5.98484">
        <ele>224</ele>
        <time>2020-08-16T07:02:00Z</time>
      </trkpt>
      <trkpt lat="48.65058" lon="5.98492">
        <ele>223</ele>
        <time>2020-08-16T07:02:01Z</time>
      </trkpt>
      <trkpt lat="48.65059" lon="5.98504">
        <ele>223</ele>
        <time>2020-08-16T07:02:03Z</time>
      </trkpt>
      <trkpt lat="48.65058" lon="5.98513">
        <ele>224</ele>
        <time>2020-08-16T07:02:04Z</time>
      </trkpt>
      <trkpt lat="48.65057" lon="5.98525">
        <ele>226</ele>
        <time>2020-08-16T07:02:06Z</time>
      </trkpt>
      <trkpt lat="48.65057" lon="5.98532">
        <ele>226</ele>
        <time>2020-08-16T07:02:07Z</time>
      </trkpt>
      <trkpt lat="48.65055" lon="5.98539">
        <ele>227</ele>
        <time>2020-08-16T07:02:08Z</time>
      </trkpt>
      <trkpt lat="48.65055" lon="5.98546">
        <ele>227</ele>
        <time>2020-08-16T07:02:09Z</time>
      </trkpt>
      <trkpt lat="48.65055" lon="5.98554">
        <ele>226</ele>
        <time>2020-08-16T07:02:10Z</time>
      </trkpt>
      <trkpt lat="48.65056" lon="5.98564">
        <ele>226</ele>
        <time>2020-08-16T07:02:11Z</time>
      </trkpt>
      <trkpt lat="48.65057" lon="5.98572">
        <ele>225</ele>
        <time>2020-08-16T07:02:12Z</time>
      </trkpt>
      <trkpt lat="48.65057" lon="5.98579">
        <ele>225</ele>
        <time>2020-08-16T07:02:13Z</time>
      </trkpt>
      <trkpt lat="48.65057" lon="5.98589">
        <ele>225</ele>
        <time>2020-08-16T07:02:14Z</time>
      </trkpt>
      <trkpt lat="48.6506" lon="5.98601">
        <ele>226</ele>
        <time>2020-08-16T07:02:16Z</time>
      </trkpt>
      <trkpt lat="48.6506" lon="5.98612">
        <ele>226</ele>
        <time>2020-08-16T07:02:17Z</time>
      </trkpt>
      <trkpt lat="48.65059" lon="5.9862">
        <ele>225</ele>
        <time>2020-08-16T07:02:18Z</time>
      </trkpt>
      <trkpt lat="48.65059" lon="5.98631">
        <ele>223</ele>
        <time>2020-08-16T07:02:20Z</time>
      </trkpt>
      <trkpt lat="48.65061" lon="5.98642">
        <ele>221</ele>
        <time>2020-08-16T07:02:22Z</time>
      </trkpt>
      <trkpt lat="48.6506" lon="5.9865">
        <ele>223</ele>
        <time>2020-08-16T07:02:23Z</time>
      </trkpt>
      <trkpt lat="48.6506" lon="5.98657">
        <ele>223</ele>
        <time>2020-08-16T07:02:24Z</time>
      </trkpt>
      <trkpt lat="48.65058" lon="5.98664">
        <ele>224</ele>
        <time>2020-08-16T07:02:25Z</time>
      </trkpt>
      <trkpt lat="48.65059" lon="5.98674">
        <ele>224</ele>
        <time>2020-08-16T07:02:27Z</time>
      </trkpt>
      <trkpt lat="48.65059" lon="5.98686">
        <ele>225</ele>
        <time>2020-08-16T07:02:29Z</time>
      </trkpt>
      <trkpt lat="48.6506" lon="5.98697">
        <ele>224</ele>
        <time>2020-08-16T07:02:31Z</time>
      </trkpt>
      <trkpt lat="48.65061" lon="5.98706">
        <ele>223</ele>
        <time>2020-08-16T07:02:33Z</time>
      </trkpt>
      <trkpt lat="48.65062" lon="5.98719">
        <ele>223</ele>
        <time>2020-08-16T07:02:35Z</time>
      </trkpt>
      <trkpt lat="48.65062" lon="5.98732">
        <ele>222</ele>
        <time>2020-08-16T07:02:37Z</time>
      </trkpt>
      <trkpt lat="48.65062" lon="5.98743">
        <ele>221</ele>
        <time>2020-08-16T07:02:39Z</time>
      </trkpt>
      <trkpt lat="48.6506" lon="5.98755">
        <ele>219</ele>
        <time>2020-08-16T07:02:41Z</time>
      </trkpt>
      <trkpt lat="48.65061" lon="5.98767">
        <ele>218</ele>
        <time>2020-08-16T07:02:43Z</time>
      </trkpt>
      <trkpt lat="48.65061" lon="5.98774">
        <ele>218</ele>
        <time>2020-08-16T07:02:44Z</time>
      </trkpt>
      <trkpt lat="48.65062" lon="5.98786">
        <ele>220</ele>
        <time>2020-08-16T07:02:46Z</time>
      </trkpt>
      <trkpt lat="48.65064" lon="5.988">
        <ele>222</ele>
        <time>2020-08-16T07:02:48Z</time>
      </trkpt>
      <trkpt lat="48.65065" lon="5.98808">
        <ele>224</ele>
        <time>2020-08-16T07:02:49Z</time>
      </trkpt>
      <trkpt lat="48.65067" lon="5.98814">
        <ele>224</ele>
        <time>2020-08-16T07:02:50Z</time>
      </trkpt>
      <trkpt lat="48.65067" lon="5.98823">
        <ele>225</ele>
        <time>2020-08-16T07:02:51Z</time>
      </trkpt>
      <trkpt lat="48.65068" lon="5.9883">
        <ele>225</ele>
        <time>2020-08-16T07:02:52Z</time>
      </trkpt>
      <trkpt lat="48.65068" lon="5.98838">
        <ele>225</ele>
        <time>2020-08-16T07:02:53Z</time>
      </trkpt>
      <trkpt lat="48.6507" lon="5.98853">
        <ele>226</ele>
        <time>2020-08-16T07:02:55Z</time>
      </trkpt>
      <trkpt lat="48.65071" lon="5.9886">
        <ele>227</ele>
        <time>2020-08-16T07:02:56Z</time>
      </trkpt>
      <trkpt lat="48.65073" lon="5.98874">
        <ele>227</ele>
        <time>2020-08-16T07:02:58Z</time>
      </trkpt>
      <trkpt lat="48.65075" lon="5.98888">
        <ele>227</ele>
        <time>2020-08-16T07:03:00Z</time>
      </trkpt>
      <trkpt lat="48.65075" lon="5.98895">
        <ele>227</ele>
        <time>2020-08-16T07:03:01Z</time>
      </trkpt>
      <trkpt lat="48.65075" lon="5.98903">
        <ele>226</ele>
        <time>2020-08-16T07:03:02Z</time>
      </trkpt>
      <trkpt lat="48.65075" lon="5.9891">
        <ele>226</ele>
        <time>2020-08-16T07:03:03Z</time>
      </trkpt>
      <trkpt lat="48.65075" lon="5.98917">
        <ele>227</ele>
        <time>2020-08-16T07:03:04Z</time>
      </trkpt>
      <trkpt lat="48.65075" lon="5.9893">
        <ele>227</ele>
        <time>2020-08-16T07:03:06Z</time>
      </trkpt>
      <trkpt lat="48.65078" lon="5.98945">
        <ele>227</ele>
        <time>2020-08-16T07:03:08Z</time>
      </trkpt>
      <trkpt lat="48.65078" lon="5.98952">
        <ele>228</ele>
        <time>2020-08-16T07:03:09Z</time>
      </trkpt>
      <trkpt lat="48.6508" lon="5.98967">
        <ele>228</ele>
        <time>2020-08-16T07:03:11Z</time>
      </trkpt>
      <trkpt lat="48.65082" lon="5.98973">
        <ele>227</ele>
        <time>2020-08-16T07:03:12Z</time>
      </trkpt>
      <trkpt lat="48.65084" lon="5.98987">
        <ele>227</ele>
        <time>2020-08-16T07:03:14Z</time>
      </trkpt>
      <trkpt lat="48.65082" lon="5.98994">
        <ele>228</ele>
        <time>2020-08-16T07:03:15Z</time>
      </trkpt>
      <trkpt lat="48.65083" lon="5.99004">
        <ele>228</ele>
        <time>2020-08-16T07:03:17Z</time>
      </trkpt>
      <trkpt lat="48.65083" lon="5.99017">
        <ele>228</ele>
        <time>2020-08-16T07:03:19Z</time>
      </trkpt>
      <trkpt lat="48.65083" lon="5.99029">
        <ele>229</ele>
        <time>2020-08-16T07:03:21Z</time>
      </trkpt>
      <trkpt lat="48.65085" lon="5.99039">
        <ele>229</ele>
        <time>2020-08-16T07:03:23Z</time>
      </trkpt>
      <trkpt lat="48.65087" lon="5.99046">
        <ele>229</ele>
        <time>2020-08-16T07:03:24Z</time>
      </trkpt>
      <trkpt lat="48.65088" lon="5.99053">
        <ele>229</ele>
        <time>2020-08-16T07:03:25Z</time>
      </trkpt>
      <trkpt lat="48.6509" lon="5.99061">
        <ele>228</ele>
        <time>2020-08-16T07:03:26Z</time>
      </trkpt>
      <trkpt lat="48.65091" lon="5.99069">
        <ele>227</ele>
        <time>2020-08-16T07:03:27Z</time>
      </trkpt>
      <trkpt lat="48.65091" lon="5.99078">
        <ele>227</ele>
        <time>2020-08-16T07:03:28Z</time>
      </trkpt>
      <trkpt lat="48.65091" lon="5.99087">
        <ele>228</ele>
        <time>2020-08-16T07:03:29Z</time>
      </trkpt>
      <trkpt lat="48.65092" lon="5.99095">
        <ele>227</ele>
        <time>2020-08-16T07:03:30Z</time>
      </trkpt>
      <trkpt lat="48.65093" lon="5.99103">
        <ele>227</ele>
        <time>2020-08-16T07:03:31Z</time>
      </trkpt>
      <trkpt lat="48.65094" lon="5.99111">
        <ele>227</ele>
        <time>2020-08-16T07:03:32Z</time>
      </trkpt>
      <trkpt lat="48.65095" lon="5.99119">
        <ele>227</ele>
        <time>2020-08-16T07:03:33Z</time>
      </trkpt>
      <trkpt lat="48.65097" lon="5.99127">
        <ele>226</ele>
        <time>2020-08-16T07:03:34Z</time>
      </trkpt>
      <trkpt lat="48.65097" lon="5.99135">
        <ele>226</ele>
        <time>2020-08-16T07:03:35Z</time>
      </trkpt>
      <trkpt lat="48.65098" lon="5.99142">
        <ele>225</ele>
        <time>2020-08-16T07:03:36Z</time>
      </trkpt>
      <trkpt lat="48.65098" lon="5.9915">
        <ele>224</ele>
        <time>2020-08-16T07:03:37Z</time>
      </trkpt>
      <trkpt lat="48.65099" lon="5.99157">
        <ele>224</ele>
        <time>2020-08-16T07:03:38Z</time>
      </trkpt>
      <trkpt lat="48.65099" lon="5.99164">
        <ele>224</ele>
        <time>2020-08-16T07:03:39Z</time>
      </trkpt>
      <trkpt lat="48.65101" lon="5.99173">
        <ele>224</ele>
        <time>2020-08-16T07:03:40Z</time>
      </trkpt>
      <trkpt lat="48.65102" lon="5.9918">
        <ele>224</ele>
        <time>2020-08-16T07:03:41Z</time>
      </trkpt>
      <trkpt lat="48.65102" lon="5.99188">
        <ele>224</ele>
        <time>2020-08-16T07:03:42Z</time>
      </trkpt>
      <trkpt lat="48.65103" lon="5.99195">
        <ele>223</ele>
        <time>2020-08-16T07:03:43Z</time>
      </trkpt>
      <trkpt lat="48.65104" lon="5.99203">
        <ele>223</ele>
        <time>2020-08-16T07:03:44Z</time>
      </trkpt>
      <trkpt lat="48.65104" lon="5.9921">
        <ele>223</ele>
        <time>2020-08-16T07:03:45Z</time>
      </trkpt>
      <trkpt lat="48.65102" lon="5.99222">
        <ele>224</ele>
        <time>2020-08-16T07:03:47Z</time>
      </trkpt>
      <trkpt lat="48.65102" lon="5.99229">
        <ele>224</ele>
        <time>2020-08-16T07:03:48Z</time>
      </trkpt>
      <trkpt lat="48.65102" lon="5.99239">
        <ele>225</ele>
        <time>2020-08-16T07:03:50Z</time>
      </trkpt>
      <trkpt lat="48.65104" lon="5.99247">
        <ele>225</ele>
        <time>2020-08-16T07:03:51Z</time>
      </trkpt>
      <trkpt lat="48.65105" lon="5.99255">
        <ele>225</ele>
        <time>2020-08-16T07:03:52Z</time>
      </trkpt>
      <trkpt lat="48.65108" lon="5.99269">
        <ele>225</ele>
        <time>2020-08-16T07:03:54Z</time>
      </trkpt>
      <trkpt lat="48.6511" lon="5.99276">
        <ele>224</ele>
        <time>2020-08-16T07:03:55Z</time>
      </trkpt>
      <trkpt lat="48.65111" lon="5.99284">
        <ele>224</ele>
        <time>2020-08-16T07:03:56Z</time>
      </trkpt>
      <trkpt lat="48.65113" lon="5.99291">
        <ele>223</ele>
        <time>2020-08-16T07:03:57Z</time>
      </trkpt>
      <trkpt lat="48.65113" lon="5.99306">
        <ele>226</ele>
        <time>2020-08-16T07:03:59Z</time>
      </trkpt>
      <trkpt lat="48.65115" lon="5.99313">
        <ele>227</ele>
        <time>2020-08-16T07:04:00Z</time>
      </trkpt>
      <trkpt lat="48.65115" lon="5.99327">
        <ele>229</ele>
        <time>2020-08-16T07:04:02Z</time>
      </trkpt>
      <trkpt lat="48.65118" lon="5.99339">
        <ele>226</ele>
        <time>2020-08-16T07:04:04Z</time>
      </trkpt>
      <trkpt lat="48.6512" lon="5.99346">
        <ele>226</ele>
        <time>2020-08-16T07:04:05Z</time>
      </trkpt>
      <trkpt lat="48.65118" lon="5.99354">
        <ele>229</ele>
        <time>2020-08-16T07:04:06Z</time>
      </trkpt>
      <trkpt lat="48.65118" lon="5.99361">
        <ele>231</ele>
        <time>2020-08-16T07:04:07Z</time>
      </trkpt>
      <trkpt lat="48.65122" lon="5.99372">
        <ele>229</ele>
        <time>2020-08-16T07:04:09Z</time>
      </trkpt>
      <trkpt lat="48.65123" lon="5.99384">
        <ele>229</ele>
        <time>2020-08-16T07:04:11Z</time>
      </trkpt>
      <trkpt lat="48.65123" lon="5.99394">
        <ele>230</ele>
        <time>2020-08-16T07:04:13Z</time>
      </trkpt>
      <trkpt lat="48.65125" lon="5.99404">
        <ele>228</ele>
        <time>2020-08-16T07:04:15Z</time>
      </trkpt>
      <trkpt lat="48.65124" lon="5.99412">
        <ele>230</ele>
        <time>2020-08-16T07:04:18Z</time>
      </trkpt>
      <trkpt lat="48.65125" lon="5.99418">
        <ele>230</ele>
        <time>2020-08-16T07:04:26Z</time>
      </trkpt>
      <trkpt lat="48.65126" lon="5.99426">
        <ele>230</ele>
        <time>2020-08-16T07:04:33Z</time>
      </trkpt>
      <trkpt lat="48.65128" lon="5.99434">
        <ele>230</ele>
        <time>2020-08-16T07:04:41Z</time>
      </trkpt>
      <trkpt lat="48.65131" lon="5.99443">
        <ele>230</ele>
        <time>2020-08-16T07:04:44Z</time>
      </trkpt>
      <trkpt lat="48.65134" lon="5.99448">
        <ele>228</ele>
        <time>2020-08-16T07:04:46Z</time>
      </trkpt>
      <trkpt lat="48.65133" lon="5.99457">
        <ele>229</ele>
        <time>2020-08-16T07:04:48Z</time>
      </trkpt>
      <trkpt lat="48.65135" lon="5.99469">
        <ele>229</ele>
        <time>2020-08-16T07:04:50Z</time>
      </trkpt>
      <trkpt lat="48.65139" lon="5.99479">
        <ele>229</ele>
        <time>2020-08-16T07:04:52Z</time>
      </trkpt>
      <trkpt lat="48.65144" lon="5.99489">
        <ele>227</ele>
        <time>2020-08-16T07:04:54Z</time>
      </trkpt>
      <trkpt lat="48.65146" lon="5.99501">
        <ele>229</ele>
        <time>2020-08-16T07:04:56Z</time>
      </trkpt>
      <trkpt lat="48.65149" lon="5.99511">
        <ele>229</ele>
        <time>2020-08-16T07:04:58Z</time>
      </trkpt>
      <trkpt lat="48.6515" lon="5.99522">
        <ele>230</ele>
        <time>2020-08-16T07:05:00Z</time>
      </trkpt>
      <trkpt lat="48.65152" lon="5.99533">
        <ele>228</ele>
        <time>2020-08-16T07:05:02Z</time>
      </trkpt>
      <trkpt lat="48.65154" lon="5.99543">
        <ele>226</ele>
        <time>2020-08-16T07:05:04Z</time>
      </trkpt>
      <trkpt lat="48.65156" lon="5.99549">
        <ele>225</ele>
        <time>2020-08-16T07:05:05Z</time>
      </trkpt>
      <trkpt lat="48.65158" lon="5.99556">
        <ele>224</ele>
        <time>2020-08-16T07:05:06Z</time>
      </trkpt>
      <trkpt lat="48.65157" lon="5.99567">
        <ele>226</ele>
        <time>2020-08-16T07:05:08Z</time>
      </trkpt>
      <trkpt lat="48.65159" lon="5.99579">
        <ele>225</ele>
        <time>2020-08-16T07:05:10Z</time>
      </trkpt>
      <trkpt lat="48.65162" lon="5.99589">
        <ele>226</ele>
        <time>2020-08-16T07:05:12Z</time>
      </trkpt>
      <trkpt lat="48.65164" lon="5.996">
        <ele>227</ele>
        <time>2020-08-16T07:05:14Z</time>
      </trkpt>
      <trkpt lat="48.65165" lon="5.99608">
        <ele>228</ele>
        <time>2020-08-16T07:05:16Z</time>
      </trkpt>
      <trkpt lat="48.65169" lon="5.99617">
        <ele>226</ele>
        <time>2020-08-16T07:05:18Z</time>
      </trkpt>
      <trkpt lat="48.65171" lon="5.99626">
        <ele>225</ele>
        <time>2020-08-16T07:05:20Z</time>
      </trkpt>
      <trkpt lat="48.65171" lon="5.99633">
        <ele>225</ele>
        <time>2020-08-16T07:05:22Z</time>
      </trkpt>
      <trkpt lat="48.65173" lon="5.99642">
        <ele>225</ele>
        <time>2020-08-16T07:05:24Z</time>
      </trkpt>
      <trkpt lat="48.65175" lon="5.99658">
        <ele>225</ele>
        <time>2020-08-16T07:05:28Z</time>
      </trkpt>
      <trkpt lat="48.65177" lon="5.99665">
        <ele>223</ele>
        <time>2020-08-16T07:05:30Z</time>
      </trkpt>
      <trkpt lat="48.65176" lon="5.99673">
        <ele>224</ele>
        <time>2020-08-16T07:05:32Z</time>
      </trkpt>
      <trkpt lat="48.6518" lon="5.99682">
        <ele>221</ele>
        <time>2020-08-16T07:05:34Z</time>
      </trkpt>
      <trkpt lat="48.6518" lon="5.99689">
        <ele>221</ele>
        <time>2020-08-16T07:05:36Z</time>
      </trkpt>
      <trkpt lat="48.65181" lon="5.997">
        <ele>221</ele>
        <time>2020-08-16T07:05:38Z</time>
      </trkpt>
      <trkpt lat="48.65181" lon="5.9971">
        <ele>222</ele>
        <time>2020-08-16T07:05:40Z</time>
      </trkpt>
      <trkpt lat="48.6518" lon="5.9972">
        <ele>223</ele>
        <time>2020-08-16T07:05:42Z</time>
      </trkpt>
      <trkpt lat="48.65181" lon="5.99731">
        <ele>224</ele>
        <time>2020-08-16T07:05:44Z</time>
      </trkpt>
      <trkpt lat="48.65181" lon="5.99744">
        <ele>224</ele>
        <time>2020-08-16T07:05:46Z</time>
      </trkpt>
      <trkpt lat="48.65182" lon="5.99751">
        <ele>224</ele>
        <time>2020-08-16T07:05:47Z</time>
      </trkpt>
      <trkpt lat="48.65183" lon="5.99758">
        <ele>224</ele>
        <time>2020-08-16T07:05:48Z</time>
      </trkpt>
      <trkpt lat="48.65183" lon="5.99766">
        <ele>224</ele>
        <time>2020-08-16T07:05:49Z</time>
      </trkpt>
      <trkpt lat="48.65183" lon="5.99774">
        <ele>225</ele>
        <time>2020-08-16T07:05:50Z</time>
      </trkpt>
      <trkpt lat="48.65182" lon="5.99783">
        <ele>225</ele>
        <time>2020-08-16T07:05:51Z</time>
      </trkpt>
      <trkpt lat="48.65181" lon="5.99791">
        <ele>226</ele>
        <time>2020-08-16T07:05:52Z</time>
      </trkpt>
      <trkpt lat="48.65182" lon="5.99801">
        <ele>226</ele>
        <time>2020-08-16T07:05:53Z</time>
      </trkpt>
      <trkpt lat="48.65183" lon="5.9981">
        <ele>226</ele>
        <time>2020-08-16T07:05:54Z</time>
      </trkpt>
      <trkpt lat="48.65184" lon="5.99819">
        <ele>227</ele>
        <time>2020-08-16T07:05:55Z</time>
      </trkpt>
      <trkpt lat="48.65184" lon="5.99828">
        <ele>227</ele>
        <time>2020-08-16T07:05:56Z</time>
      </trkpt>
      <trkpt lat="48.65186" lon="5.99838">
        <ele>226</ele>
        <time>2020-08-16T07:05:57Z</time>
      </trkpt>
      <trkpt lat="48.65188" lon="5.99848">
        <ele>226</ele>
        <time>2020-08-16T07:05:58Z</time>
      </trkpt>
      <trkpt lat="48.65191" lon="5.99856">
        <ele>226</ele>
        <time>2020-08-16T07:05:59Z</time>
      </trkpt>
      <trkpt lat="48.65195" lon="5.99865">
        <ele>227</ele>
        <time>2020-08-16T07:06:00Z</time>
      </trkpt>
      <trkpt lat="48.65199" lon="5.99872">
        <ele>227</ele>
        <time>2020-08-16T07:06:01Z</time>
      </trkpt>
      <trkpt lat="48.65202" lon="5.99879">
        <ele>227</ele>
        <time>2020-08-16T07:06:02Z</time>
      </trkpt>
      <trkpt lat="48.65206" lon="5.99884">
        <ele>227</ele>
        <time>2020-08-16T07:06:03Z</time>
      </trkpt>
      <trkpt lat="48.6521" lon="5.99891">
        <ele>227</ele>
        <time>2020-08-16T07:06:04Z</time>
      </trkpt>
      <trkpt lat="48.65215" lon="5.99895">
        <ele>224</ele>
        <time>2020-08-16T07:06:05Z</time>
      </trkpt>
      <trkpt lat="48.65218" lon="5.99899">
        <ele>222</ele>
        <time>2020-08-16T07:06:06Z</time>
      </trkpt>
      <trkpt lat="48.65223" lon="5.99904">
        <ele>221</ele>
        <time>2020-08-16T07:06:07Z</time>
      </trkpt>
      <trkpt lat="48.65228" lon="5.99908">
        <ele>220</ele>
        <time>2020-08-16T07:06:08Z</time>
      </trkpt>
      <trkpt lat="48.65232" lon="5.99912">
        <ele>219</ele>
        <time>2020-08-16T07:06:09Z</time>
      </trkpt>
      <trkpt lat="48.65236" lon="5.99917">
        <ele>219</ele>
        <time>2020-08-16T07:06:10Z</time>
      </trkpt>
      <trkpt lat="48.6524" lon="5.99922">
        <ele>220</ele>
        <time>2020-08-16T07:06:11Z</time>
      </trkpt>
      <trkpt lat="48.65244" lon="5.99927">
        <ele>220</ele>
        <time>2020-08-16T07:06:12Z</time>
      </trkpt>
      <trkpt lat="48.65247" lon="5.99932">
        <ele>220</ele>
        <time>2020-08-16T07:06:13Z</time>
      </trkpt>
      <trkpt lat="48.65252" lon="5.99937">
        <ele>219</ele>
        <time>2020-08-16T07:06:14Z</time>
      </trkpt>
      <trkpt lat="48.6526" lon="5.99946">
        <ele>220</ele>
        <time>2020-08-16T07:06:16Z</time>
      </trkpt>
      <trkpt lat="48.65265" lon="5.99951">
        <ele>220</ele>
        <time>2020-08-16T07:06:17Z</time>
      </trkpt>
      <trkpt lat="48.6527" lon="5.99958">
        <ele>220</ele>
        <time>2020-08-16T07:06:18Z</time>
      </trkpt>
      <trkpt lat="48.65274" lon="5.99964">
        <ele>220</ele>
        <time>2020-08-16T07:06:19Z</time>
      </trkpt>
      <trkpt lat="48.65278" lon="5.99967">
        <ele>220</ele>
        <time>2020-08-16T07:06:20Z</time>
      </trkpt>
      <trkpt lat="48.65281" lon="5.99971">
        <ele>219</ele>
        <time>2020-08-16T07:06:21Z</time>
      </trkpt>
      <trkpt lat="48.65288" lon="5.9998">
        <ele>218</ele>
        <time>2020-08-16T07:06:23Z</time>
      </trkpt>
      <trkpt lat="48.65296" lon="5.99988">
        <ele>217</ele>
        <time>2020-08-16T07:06:25Z</time>
      </trkpt>
      <trkpt lat="48.653" lon="5.99992">
        <ele>217</ele>
        <time>2020-08-16T07:06:26Z</time>
      </trkpt>
      <trkpt lat="48.65303" lon="5.99998">
        <ele>218</ele>
        <time>2020-08-16T07:06:27Z</time>
      </trkpt>
      <trkpt lat="48.65307" lon="6.00002">
        <ele>219</ele>
        <time>2020-08-16T07:06:28Z</time>
      </trkpt>
      <trkpt lat="48.65311" lon="6.00007">
        <ele>219</ele>
        <time>2020-08-16T07:06:29Z</time>
      </trkpt>
      <trkpt lat="48.65318" lon="6.00015">
        <ele>220</ele>
        <time>2020-08-16T07:06:31Z</time>
      </trkpt>
      <trkpt lat="48.65322" lon="6.0002">
        <ele>220</ele>
        <time>2020-08-16T07:06:32Z</time>
      </trkpt>
      <trkpt lat="48.65328" lon="6.00026">
        <ele>221</ele>
        <time>2020-08-16T07:06:33Z</time>
      </trkpt>
      <trkpt lat="48.65331" lon="6.00031">
        <ele>221</ele>
        <time>2020-08-16T07:06:34Z</time>
      </trkpt>
      <trkpt lat="48.65337" lon="6.0004">
        <ele>221</ele>
        <time>2020-08-16T07:06:36Z</time>
      </trkpt>
      <trkpt lat="48.65341" lon="6.00044">
        <ele>221</ele>
        <time>2020-08-16T07:06:37Z</time>
      </trkpt>
      <trkpt lat="48.65348" lon="6.00054">
        <ele>222</ele>
        <time>2020-08-16T07:06:39Z</time>
      </trkpt>
      <trkpt lat="48.65353" lon="6.00059">
        <ele>221</ele>
        <time>2020-08-16T07:06:40Z</time>
      </trkpt>
      <trkpt lat="48.65358" lon="6.00063">
        <ele>221</ele>
        <time>2020-08-16T07:06:41Z</time>
      </trkpt>
      <trkpt lat="48.65366" lon="6.0007">
        <ele>221</ele>
        <time>2020-08-16T07:06:43Z</time>
      </trkpt>
      <trkpt lat="48.65372" lon="6.00074">
        <ele>221</ele>
        <time>2020-08-16T07:06:44Z</time>
      </trkpt>
      <trkpt lat="48.65378" lon="6.00081">
        <ele>221</ele>
        <time>2020-08-16T07:06:46Z</time>
      </trkpt>
      <trkpt lat="48.65383" lon="6.00084">
        <ele>221</ele>
        <time>2020-08-16T07:06:47Z</time>
      </trkpt>
      <trkpt lat="48.65388" lon="6.00087">
        <ele>221</ele>
        <time>2020-08-16T07:06:48Z</time>
      </trkpt>
      <trkpt lat="48.65395" lon="6.00093">
        <ele>222</ele>
        <time>2020-08-16T07:06:50Z</time>
      </trkpt>
      <trkpt lat="48.654" lon="6.00095">
        <ele>222</ele>
        <time>2020-08-16T07:06:51Z</time>
      </trkpt>
      <trkpt lat="48.65406" lon="6.001">
        <ele>223</ele>
        <time>2020-08-16T07:06:53Z</time>
      </trkpt>
      <trkpt lat="48.65412" lon="6.00103">
        <ele>223</ele>
        <time>2020-08-16T07:06:54Z</time>
      </trkpt>
      <trkpt lat="48.65418" lon="6.00104">
        <ele>223</ele>
        <time>2020-08-16T07:06:55Z</time>
      </trkpt>
      <trkpt lat="48.65424" lon="6.00107">
        <ele>223</ele>
        <time>2020-08-16T07:06:56Z</time>
      </trkpt>
      <trkpt lat="48.65432" lon="6.00113">
        <ele>222</ele>
        <time>2020-08-16T07:06:58Z</time>
      </trkpt>
      <trkpt lat="48.65436" lon="6.00115">
        <ele>221</ele>
        <time>2020-08-16T07:06:59Z</time>
      </trkpt>
      <trkpt lat="48.65445" lon="6.00119">
        <ele>223</ele>
        <time>2020-08-16T07:07:01Z</time>
      </trkpt>
      <trkpt lat="48.65453" lon="6.00124">
        <ele>222</ele>
        <time>2020-08-16T07:07:03Z</time>
      </trkpt>
      <trkpt lat="48.65462" lon="6.00129">
        <ele>221</ele>
        <time>2020-08-16T07:07:05Z</time>
      </trkpt>
      <trkpt lat="48.65467" lon="6.00132">
        <ele>219</ele>
        <time>2020-08-16T07:07:06Z</time>
      </trkpt>
      <trkpt lat="48.65473" lon="6.00137">
        <ele>219</ele>
        <time>2020-08-16T07:07:08Z</time>
      </trkpt>
      <trkpt lat="48.65479" lon="6.00139">
        <ele>219</ele>
        <time>2020-08-16T07:07:09Z</time>
      </trkpt>
      <trkpt lat="48.65487" lon="6.00141">
        <ele>220</ele>
        <time>2020-08-16T07:07:11Z</time>
      </trkpt>
      <trkpt lat="48.65495" lon="6.00145">
        <ele>220</ele>
        <time>2020-08-16T07:07:13Z</time>
      </trkpt>
      <trkpt lat="48.655" lon="6.00147">
        <ele>220</ele>
        <time>2020-08-16T07:07:14Z</time>
      </trkpt>
      <trkpt lat="48.65506" lon="6.0015">
        <ele>220</ele>
        <time>2020-08-16T07:07:16Z</time>
      </trkpt>
      <trkpt lat="48.65513" lon="6.00151">
        <ele>221</ele>
        <time>2020-08-16T07:07:17Z</time>
      </trkpt>
      <trkpt lat="48.65523" lon="6.00156">
        <ele>221</ele>
        <time>2020-08-16T07:07:19Z</time>
      </trkpt>
      <trkpt lat="48.65531" lon="6.00161">
        <ele>221</ele>
        <time>2020-08-16T07:07:21Z</time>
      </trkpt>
      <trkpt lat="48.65535" lon="6.00164">
        <ele>221</ele>
        <time>2020-08-16T07:07:22Z</time>
      </trkpt>
      <trkpt lat="48.65542" lon="6.0017">
        <ele>219</ele>
        <time>2020-08-16T07:07:24Z</time>
      </trkpt>
      <trkpt lat="48.65551" lon="6.00173">
        <ele>219</ele>
        <time>2020-08-16T07:07:26Z</time>
      </trkpt>
      <trkpt lat="48.65558" lon="6.00176">
        <ele>220</ele>
        <time>2020-08-16T07:07:27Z</time>
      </trkpt>
      <trkpt lat="48.65564" lon="6.00179">
        <ele>221</ele>
        <time>2020-08-16T07:07:28Z</time>
      </trkpt>
      <trkpt lat="48.65574" lon="6.00182">
        <ele>221</ele>
        <time>2020-08-16T07:07:30Z</time>
      </trkpt>
      <trkpt lat="48.65582" lon="6.00186">
        <ele>222</ele>
        <time>2020-08-16T07:07:32Z</time>
      </trkpt>
      <trkpt lat="48.6559" lon="6.00192">
        <ele>222</ele>
        <time>2020-08-16T07:07:34Z</time>
      </trkpt>
      <trkpt lat="48.65597" lon="6.00197">
        <ele>222</ele>
        <time>2020-08-16T07:07:36Z</time>
      </trkpt>
      <trkpt lat="48.65604" lon="6.00202">
        <ele>221</ele>
        <time>2020-08-16T07:07:38Z</time>
      </trkpt>
      <trkpt lat="48.65609" lon="6.00205">
        <ele>220</ele>
        <time>2020-08-16T07:07:39Z</time>
      </trkpt>
      <trkpt lat="48.65616" lon="6.00208">
        <ele>220</ele>
        <time>2020-08-16T07:07:40Z</time>
      </trkpt>
      <trkpt lat="48.6562" lon="6.00212">
        <ele>221</ele>
        <time>2020-08-16T07:07:41Z</time>
      </trkpt>
      <trkpt lat="48.65625" lon="6.00214">
        <ele>222</ele>
        <time>2020-08-16T07:07:42Z</time>
      </trkpt>
      <trkpt lat="48.65629" lon="6.00217">
        <ele>222</ele>
        <time>2020-08-16T07:07:43Z</time>
      </trkpt>
      <trkpt lat="48.65638" lon="6.00224">
        <ele>222</ele>
        <time>2020-08-16T07:07:45Z</time>
      </trkpt>
      <trkpt lat="48.65643" lon="6.00226">
        <ele>222</ele>
        <time>2020-08-16T07:07:46Z</time>
      </trkpt>
      <trkpt lat="48.65648" lon="6.0023">
        <ele>221</ele>
        <time>2020-08-16T07:07:47Z</time>
      </trkpt>
      <trkpt lat="48.65655" lon="6.00236">
        <ele>220</ele>
        <time>2020-08-16T07:07:49Z</time>
      </trkpt>
      <trkpt lat="48.65664" lon="6.00241">
        <ele>219</ele>
        <time>2020-08-16T07:07:51Z</time>
      </trkpt>
      <trkpt lat="48.65669" lon="6.00244">
        <ele>219</ele>
        <time>2020-08-16T07:07:52Z</time>
      </trkpt>
      <trkpt lat="48.65674" lon="6.00246">
        <ele>220</ele>
        <time>2020-08-16T07:07:53Z</time>
      </trkpt>
      <trkpt lat="48.6568" lon="6.0025">
        <ele>221</ele>
        <time>2020-08-16T07:07:54Z</time>
      </trkpt>
      <trkpt lat="48.65685" lon="6.00252">
        <ele>221</ele>
        <time>2020-08-16T07:07:55Z</time>
      </trkpt>
      <trkpt lat="48.65693" lon="6.00259">
        <ele>221</ele>
        <time>2020-08-16T07:07:57Z</time>
      </trkpt>
      <trkpt lat="48.65698" lon="6.00262">
        <ele>222</ele>
        <time>2020-08-16T07:07:58Z</time>
      </trkpt>
      <trkpt lat="48.65702" lon="6.00267">
        <ele>223</ele>
        <time>2020-08-16T07:07:59Z</time>
      </trkpt>
      <trkpt lat="48.65706" lon="6.0027">
        <ele>223</ele>
        <time>2020-08-16T07:08:00Z</time>
      </trkpt>
      <trkpt lat="48.65711" lon="6.00275">
        <ele>223</ele>
        <time>2020-08-16T07:08:01Z</time>
      </trkpt>
      <trkpt lat="48.65717" lon="6.00283">
        <ele>224</ele>
        <time>2020-08-16T07:08:03Z</time>
      </trkpt>
      <trkpt lat="48.6572" lon="6.00287">
        <ele>223</ele>
        <time>2020-08-16T07:08:04Z</time>
      </trkpt>
      <trkpt lat="48.65726" lon="6.00295">
        <ele>223</ele>
        <time>2020-08-16T07:08:06Z</time>
      </trkpt>
      <trkpt lat="48.6573" lon="6.003">
        <ele>223</ele>
        <time>2020-08-16T07:08:07Z</time>
      </trkpt>
      <trkpt lat="48.65738" lon="6.00306">
        <ele>222</ele>
        <time>2020-08-16T07:08:09Z</time>
      </trkpt>
      <trkpt lat="48.65745" lon="6.00312">
        <ele>223</ele>
        <time>2020-08-16T07:08:11Z</time>
      </trkpt>
      <trkpt lat="48.65752" lon="6.00321">
        <ele>223</ele>
        <time>2020-08-16T07:08:13Z</time>
      </trkpt>
      <trkpt lat="48.6576" lon="6.00328">
        <ele>222</ele>
        <time>2020-08-16T07:08:15Z</time>
      </trkpt>
      <trkpt lat="48.65764" lon="6.00337">
        <ele>222</ele>
        <time>2020-08-16T07:08:17Z</time>
      </trkpt>
      <trkpt lat="48.65771" lon="6.00346">
        <ele>222</ele>
        <time>2020-08-16T07:08:19Z</time>
      </trkpt>
      <trkpt lat="48.65777" lon="6.0035">
        <ele>223</ele>
        <time>2020-08-16T07:08:20Z</time>
      </trkpt>
      <trkpt lat="48.65781" lon="6.00355">
        <ele>223</ele>
        <time>2020-08-16T07:08:21Z</time>
      </trkpt>
      <trkpt lat="48.65785" lon="6.00359">
        <ele>223</ele>
        <time>2020-08-16T07:08:22Z</time>
      </trkpt>
      <trkpt lat="48.65791" lon="6.00364">
        <ele>223</ele>
        <time>2020-08-16T07:08:23Z</time>
      </trkpt>
      <trkpt lat="48.65796" lon="6.00368">
        <ele>223</ele>
        <time>2020-08-16T07:08:24Z</time>
      </trkpt>
      <trkpt lat="48.658" lon="6.00372">
        <ele>223</ele>
        <time>2020-08-16T07:08:25Z</time>
      </trkpt>
      <trkpt lat="48.65808" lon="6.0038">
        <ele>224</ele>
        <time>2020-08-16T07:08:27Z</time>
      </trkpt>
      <trkpt lat="48.65812" lon="6.00385">
        <ele>224</ele>
        <time>2020-08-16T07:08:28Z</time>
      </trkpt>
      <trkpt lat="48.65817" lon="6.00389">
        <ele>224</ele>
        <time>2020-08-16T07:08:29Z</time>
      </trkpt>
      <trkpt lat="48.65824" lon="6.00399">
        <ele>224</ele>
        <time>2020-08-16T07:08:31Z</time>
      </trkpt>
      <trkpt lat="48.65831" lon="6.0041">
        <ele>224</ele>
        <time>2020-08-16T07:08:33Z</time>
      </trkpt>
      <trkpt lat="48.65835" lon="6.00415">
        <ele>224</ele>
        <time>2020-08-16T07:08:34Z</time>
      </trkpt>
      <trkpt lat="48.65839" lon="6.0042">
        <ele>224</ele>
        <time>2020-08-16T07:08:35Z</time>
      </trkpt>
      <trkpt lat="48.65847" lon="6.00429">
        <ele>224</ele>
        <time>2020-08-16T07:08:37Z</time>
      </trkpt>
      <trkpt lat="48.65852" lon="6.00434">
        <ele>224</ele>
        <time>2020-08-16T07:08:38Z</time>
      </trkpt>
      <trkpt lat="48.65857" lon="6.0044">
        <ele>223</ele>
        <time>2020-08-16T07:08:39Z</time>
      </trkpt>
      <trkpt lat="48.65862" lon="6.00445">
        <ele>223</ele>
        <time>2020-08-16T07:08:40Z</time>
      </trkpt>
      <trkpt lat="48.65866" lon="6.00451">
        <ele>222</ele>
        <time>2020-08-16T07:08:41Z</time>
      </trkpt>
      <trkpt lat="48.65871" lon="6.00461">
        <ele>220</ele>
        <time>2020-08-16T07:08:43Z</time>
      </trkpt>
      <trkpt lat="48.65879" lon="6.00469">
        <ele>220</ele>
        <time>2020-08-16T07:08:45Z</time>
      </trkpt>
      <trkpt lat="48.65883" lon="6.00474">
        <ele>220</ele>
        <time>2020-08-16T07:08:46Z</time>
      </trkpt>
      <trkpt lat="48.65888" lon="6.00478">
        <ele>220</ele>
        <time>2020-08-16T07:08:47Z</time>
      </trkpt>
      <trkpt lat="48.65892" lon="6.00487">
        <ele>219</ele>
        <time>2020-08-16T07:08:49Z</time>
      </trkpt>
      <trkpt lat="48.65896" lon="6.00491">
        <ele>219</ele>
        <time>2020-08-16T07:08:50Z</time>
      </trkpt>
      <trkpt lat="48.65899" lon="6.00497">
        <ele>219</ele>
        <time>2020-08-16T07:08:51Z</time>
      </trkpt>
      <trkpt lat="48.65903" lon="6.00504">
        <ele>219</ele>
        <time>2020-08-16T07:08:52Z</time>
      </trkpt>
      <trkpt lat="48.65906" lon="6.0051">
        <ele>219</ele>
        <time>2020-08-16T07:08:53Z</time>
      </trkpt>
      <trkpt lat="48.6591" lon="6.00515">
        <ele>219</ele>
        <time>2020-08-16T07:08:54Z</time>
      </trkpt>
      <trkpt lat="48.65913" lon="6.0052">
        <ele>219</ele>
        <time>2020-08-16T07:08:55Z</time>
      </trkpt>
      <trkpt lat="48.65919" lon="6.00531">
        <ele>219</ele>
        <time>2020-08-16T07:08:57Z</time>
      </trkpt>
      <trkpt lat="48.65925" lon="6.00541">
        <ele>219</ele>
        <time>2020-08-16T07:08:59Z</time>
      </trkpt>
      <trkpt lat="48.65929" lon="6.00545">
        <ele>219</ele>
        <time>2020-08-16T07:09:00Z</time>
      </trkpt>
      <trkpt lat="48.65933" lon="6.0055">
        <ele>219</ele>
        <time>2020-08-16T07:09:01Z</time>
      </trkpt>
      <trkpt lat="48.65941" lon="6.00566">
        <ele>220</ele>
        <time>2020-08-16T07:09:04Z</time>
      </trkpt>
      <trkpt lat="48.65945" lon="6.00575">
        <ele>220</ele>
        <time>2020-08-16T07:09:06Z</time>
      </trkpt>
      <trkpt lat="48.65951" lon="6.00586">
        <ele>219</ele>
        <time>2020-08-16T07:09:08Z</time>
      </trkpt>
      <trkpt lat="48.65957" lon="6.00596">
        <ele>218</ele>
        <time>2020-08-16T07:09:10Z</time>
      </trkpt>
      <trkpt lat="48.65963" lon="6.00606">
        <ele>217</ele>
        <time>2020-08-16T07:09:12Z</time>
      </trkpt>
      <trkpt lat="48.65966" lon="6.00612">
        <ele>217</ele>
        <time>2020-08-16T07:09:13Z</time>
      </trkpt>
      <trkpt lat="48.65968" lon="6.00617">
        <ele>217</ele>
        <time>2020-08-16T07:09:14Z</time>
      </trkpt>
      <trkpt lat="48.65971" lon="6.00623">
        <ele>217</ele>
        <time>2020-08-16T07:09:15Z</time>
      </trkpt>
      <trkpt lat="48.65977" lon="6.00634">
        <ele>216</ele>
        <time>2020-08-16T07:09:17Z</time>
      </trkpt>
      <trkpt lat="48.65983" lon="6.00644">
        <ele>214</ele>
        <time>2020-08-16T07:09:19Z</time>
      </trkpt>
      <trkpt lat="48.65989" lon="6.00656">
        <ele>214</ele>
        <time>2020-08-16T07:09:21Z</time>
      </trkpt>
      <trkpt lat="48.65991" lon="6.00662">
        <ele>214</ele>
        <time>2020-08-16T07:09:22Z</time>
      </trkpt>
      <trkpt lat="48.65995" lon="6.00667">
        <ele>214</ele>
        <time>2020-08-16T07:09:23Z</time>
      </trkpt>
      <trkpt lat="48.65998" lon="6.00673">
        <ele>215</ele>
        <time>2020-08-16T07:09:24Z</time>
      </trkpt>
      <trkpt lat="48.66002" lon="6.00679">
        <ele>215</ele>
        <time>2020-08-16T07:09:25Z</time>
      </trkpt>
      <trkpt lat="48.66007" lon="6.00691">
        <ele>215</ele>
        <time>2020-08-16T07:09:27Z</time>
      </trkpt>
      <trkpt lat="48.6601" lon="6.00697">
        <ele>216</ele>
        <time>2020-08-16T07:09:28Z</time>
      </trkpt>
      <trkpt lat="48.66012" lon="6.00703">
        <ele>216</ele>
        <time>2020-08-16T07:09:29Z</time>
      </trkpt>
      <trkpt lat="48.66018" lon="6.00714">
        <ele>216</ele>
        <time>2020-08-16T07:09:31Z</time>
      </trkpt>
      <trkpt lat="48.6602" lon="6.0072">
        <ele>216</ele>
        <time>2020-08-16T07:09:32Z</time>
      </trkpt>
      <trkpt lat="48.66027" lon="6.00732">
        <ele>216</ele>
        <time>2020-08-16T07:09:34Z</time>
      </trkpt>
      <trkpt lat="48.66031" lon="6.00744">
        <ele>216</ele>
        <time>2020-08-16T07:09:36Z</time>
      </trkpt>
      <trkpt lat="48.66036" lon="6.00755">
        <ele>216</ele>
        <time>2020-08-16T07:09:38Z</time>
      </trkpt>
      <trkpt lat="48.6604" lon="6.00767">
        <ele>216</ele>
        <time>2020-08-16T07:09:40Z</time>
      </trkpt>
      <trkpt lat="48.66046" lon="6.00779">
        <ele>216</ele>
        <time>2020-08-16T07:09:42Z</time>
      </trkpt>
      <trkpt lat="48.66048" lon="6.00785">
        <ele>216</ele>
        <time>2020-08-16T07:09:43Z</time>
      </trkpt>
      <trkpt lat="48.66052" lon="6.00792">
        <ele>216</ele>
        <time>2020-08-16T07:09:44Z</time>
      </trkpt>
      <trkpt lat="48.66054" lon="6.00798">
        <ele>216</ele>
        <time>2020-08-16T07:09:45Z</time>
      </trkpt>
      <trkpt lat="48.66056" lon="6.00804">
        <ele>216</ele>
        <time>2020-08-16T07:09:46Z</time>
      </trkpt>
      <trkpt lat="48.66059" lon="6.00811">
        <ele>217</ele>
        <time>2020-08-16T07:09:47Z</time>
      </trkpt>
      <trkpt lat="48.66061" lon="6.00817">
        <ele>216</ele>
        <time>2020-08-16T07:09:48Z</time>
      </trkpt>
      <trkpt lat="48.66063" lon="6.00824">
        <ele>216</ele>
        <time>2020-08-16T07:09:49Z</time>
      </trkpt>
      <trkpt lat="48.66067" lon="6.00836">
        <ele>216</ele>
        <time>2020-08-16T07:09:51Z</time>
      </trkpt>
      <trkpt lat="48.66069" lon="6.00842">
        <ele>216</ele>
        <time>2020-08-16T07:09:52Z</time>
      </trkpt>
      <trkpt lat="48.66072" lon="6.00848">
        <ele>216</ele>
        <time>2020-08-16T07:09:53Z</time>
      </trkpt>
      <trkpt lat="48.66074" lon="6.00855">
        <ele>216</ele>
        <time>2020-08-16T07:09:54Z</time>
      </trkpt>
      <trkpt lat="48.66077" lon="6.00861">
        <ele>216</ele>
        <time>2020-08-16T07:09:55Z</time>
      </trkpt>
      <trkpt lat="48.66079" lon="6.00868">
        <ele>216</ele>
        <time>2020-08-16T07:09:56Z</time>
      </trkpt>
      <trkpt lat="48.66082" lon="6.00874">
        <ele>216</ele>
        <time>2020-08-16T07:09:57Z</time>
      </trkpt>
      <trkpt lat="48.66087" lon="6.00887">
        <ele>216</ele>
        <time>2020-08-16T07:09:59Z</time>
      </trkpt>
      <trkpt lat="48.66089" lon="6.00895">
        <ele>216</ele>
        <time>2020-08-16T07:10:00Z</time>
      </trkpt>
      <trkpt lat="48.6609" lon="6.00901">
        <ele>216</ele>
        <time>2020-08-16T07:10:01Z</time>
      </trkpt>
      <trkpt lat="48.66093" lon="6.00914">
        <ele>215</ele>
        <time>2020-08-16T07:10:03Z</time>
      </trkpt>
      <trkpt lat="48.66095" lon="6.00921">
        <ele>216</ele>
        <time>2020-08-16T07:10:04Z</time>
      </trkpt>
      <trkpt lat="48.66097" lon="6.00927">
        <ele>216</ele>
        <time>2020-08-16T07:10:05Z</time>
      </trkpt>
      <trkpt lat="48.66099" lon="6.00934">
        <ele>218</ele>
        <time>2020-08-16T07:10:06Z</time>
      </trkpt>
      <trkpt lat="48.66101" lon="6.0094">
        <ele>219</ele>
        <time>2020-08-16T07:10:07Z</time>
      </trkpt>
      <trkpt lat="48.66104" lon="6.00953">
        <ele>220</ele>
        <time>2020-08-16T07:10:09Z</time>
      </trkpt>
      <trkpt lat="48.66107" lon="6.00959">
        <ele>220</ele>
        <time>2020-08-16T07:10:10Z</time>
      </trkpt>
      <trkpt lat="48.66109" lon="6.00966">
        <ele>221</ele>
        <time>2020-08-16T07:10:11Z</time>
      </trkpt>
      <trkpt lat="48.66113" lon="6.00977">
        <ele>221</ele>
        <time>2020-08-16T07:10:13Z</time>
      </trkpt>
      <trkpt lat="48.66115" lon="6.00984">
        <ele>220</ele>
        <time>2020-08-16T07:10:14Z</time>
      </trkpt>
      <trkpt lat="48.66116" lon="6.0099">
        <ele>220</ele>
        <time>2020-08-16T07:10:15Z</time>
      </trkpt>
      <trkpt lat="48.66118" lon="6.00997">
        <ele>219</ele>
        <time>2020-08-16T07:10:16Z</time>
      </trkpt>
      <trkpt lat="48.6612" lon="6.01004">
        <ele>219</ele>
        <time>2020-08-16T07:10:17Z</time>
      </trkpt>
      <trkpt lat="48.66122" lon="6.01011">
        <ele>219</ele>
        <time>2020-08-16T07:10:18Z</time>
      </trkpt>
      <trkpt lat="48.66126" lon="6.01018">
        <ele>219</ele>
        <time>2020-08-16T07:10:19Z</time>
      </trkpt>
      <trkpt lat="48.66127" lon="6.01025">
        <ele>219</ele>
        <time>2020-08-16T07:10:20Z</time>
      </trkpt>
      <trkpt lat="48.66129" lon="6.01031">
        <ele>220</ele>
        <time>2020-08-16T07:10:21Z</time>
      </trkpt>
      <trkpt lat="48.6613" lon="6.01038">
        <ele>220</ele>
        <time>2020-08-16T07:10:22Z</time>
      </trkpt>
      <trkpt lat="48.66132" lon="6.01045">
        <ele>220</ele>
        <time>2020-08-16T07:10:23Z</time>
      </trkpt>
      <trkpt lat="48.66134" lon="6.01052">
        <ele>220</ele>
        <time>2020-08-16T07:10:24Z</time>
      </trkpt>
      <trkpt lat="48.66136" lon="6.01059">
        <ele>220</ele>
        <time>2020-08-16T07:10:25Z</time>
      </trkpt>
      <trkpt lat="48.66137" lon="6.01066">
        <ele>220</ele>
        <time>2020-08-16T07:10:26Z</time>
      </trkpt>
      <trkpt lat="48.66138" lon="6.01073">
        <ele>220</ele>
        <time>2020-08-16T07:10:27Z</time>
      </trkpt>
      <trkpt lat="48.66141" lon="6.0108">
        <ele>220</ele>
        <time>2020-08-16T07:10:28Z</time>
      </trkpt>
      <trkpt lat="48.66142" lon="6.01087">
        <ele>220</ele>
        <time>2020-08-16T07:10:29Z</time>
      </trkpt>
      <trkpt lat="48.66142" lon="6.01099">
        <ele>220</ele>
        <time>2020-08-16T07:10:31Z</time>
      </trkpt>
      <trkpt lat="48.66145" lon="6.01112">
        <ele>221</ele>
        <time>2020-08-16T07:10:33Z</time>
      </trkpt>
      <trkpt lat="48.66148" lon="6.01124">
        <ele>221</ele>
        <time>2020-08-16T07:10:35Z</time>
      </trkpt>
      <trkpt lat="48.6615" lon="6.01132">
        <ele>221</ele>
        <time>2020-08-16T07:10:36Z</time>
      </trkpt>
      <trkpt lat="48.66153" lon="6.01145">
        <ele>222</ele>
        <time>2020-08-16T07:10:38Z</time>
      </trkpt>
      <trkpt lat="48.66155" lon="6.01153">
        <ele>222</ele>
        <time>2020-08-16T07:10:39Z</time>
      </trkpt>
      <trkpt lat="48.66156" lon="6.0116">
        <ele>221</ele>
        <time>2020-08-16T07:10:40Z</time>
      </trkpt>
      <trkpt lat="48.66156" lon="6.01168">
        <ele>220</ele>
        <time>2020-08-16T07:10:41Z</time>
      </trkpt>
      <trkpt lat="48.66157" lon="6.01179">
        <ele>219</ele>
        <time>2020-08-16T07:10:43Z</time>
      </trkpt>
      <trkpt lat="48.66159" lon="6.01188">
        <ele>220</ele>
        <time>2020-08-16T07:10:44Z</time>
      </trkpt>
      <trkpt lat="48.66158" lon="6.01195">
        <ele>218</ele>
        <time>2020-08-16T07:10:45Z</time>
      </trkpt>
      <trkpt lat="48.66158" lon="6.01202">
        <ele>218</ele>
        <time>2020-08-16T07:10:46Z</time>
      </trkpt>
      <trkpt lat="48.66159" lon="6.01209">
        <ele>218</ele>
        <time>2020-08-16T07:10:47Z</time>
      </trkpt>
      <trkpt lat="48.6616" lon="6.01216">
        <ele>219</ele>
        <time>2020-08-16T07:10:48Z</time>
      </trkpt>
      <trkpt lat="48.66161" lon="6.01224">
        <ele>220</ele>
        <time>2020-08-16T07:10:49Z</time>
      </trkpt>
      <trkpt lat="48.66163" lon="6.01231">
        <ele>221</ele>
        <time>2020-08-16T07:10:50Z</time>
      </trkpt>
      <trkpt lat="48.66164" lon="6.01239">
        <ele>221</ele>
        <time>2020-08-16T07:10:51Z</time>
      </trkpt>
      <trkpt lat="48.66164" lon="6.01253">
        <ele>222</ele>
        <time>2020-08-16T07:10:53Z</time>
      </trkpt>
      <trkpt lat="48.66165" lon="6.0126">
        <ele>221</ele>
        <time>2020-08-16T07:10:54Z</time>
      </trkpt>
      <trkpt lat="48.66165" lon="6.01273">
        <ele>222</ele>
        <time>2020-08-16T07:10:56Z</time>
      </trkpt>
      <trkpt lat="48.66166" lon="6.0128">
        <ele>223</ele>
        <time>2020-08-16T07:10:57Z</time>
      </trkpt>
      <trkpt lat="48.66167" lon="6.01294">
        <ele>224</ele>
        <time>2020-08-16T07:10:59Z</time>
      </trkpt>
      <trkpt lat="48.66168" lon="6.01302">
        <ele>224</ele>
        <time>2020-08-16T07:11:00Z</time>
      </trkpt>
      <trkpt lat="48.6617" lon="6.01311">
        <ele>225</ele>
        <time>2020-08-16T07:11:01Z</time>
      </trkpt>
      <trkpt lat="48.66171" lon="6.01318">
        <ele>225</ele>
        <time>2020-08-16T07:11:02Z</time>
      </trkpt>
      <trkpt lat="48.66173" lon="6.01325">
        <ele>225</ele>
        <time>2020-08-16T07:11:03Z</time>
      </trkpt>
      <trkpt lat="48.66172" lon="6.01339">
        <ele>225</ele>
        <time>2020-08-16T07:11:05Z</time>
      </trkpt>
      <trkpt lat="48.66172" lon="6.01351">
        <ele>225</ele>
        <time>2020-08-16T07:11:07Z</time>
      </trkpt>
      <trkpt lat="48.66173" lon="6.01362">
        <ele>224</ele>
        <time>2020-08-16T07:11:09Z</time>
      </trkpt>
      <trkpt lat="48.66172" lon="6.0137">
        <ele>224</ele>
        <time>2020-08-16T07:11:10Z</time>
      </trkpt>
      <trkpt lat="48.66173" lon="6.01377">
        <ele>223</ele>
        <time>2020-08-16T07:11:11Z</time>
      </trkpt>
      <trkpt lat="48.66173" lon="6.01391">
        <ele>223</ele>
        <time>2020-08-16T07:11:13Z</time>
      </trkpt>
      <trkpt lat="48.66172" lon="6.01398">
        <ele>224</ele>
        <time>2020-08-16T07:11:14Z</time>
      </trkpt>
      <trkpt lat="48.66174" lon="6.01405">
        <ele>224</ele>
        <time>2020-08-16T07:11:15Z</time>
      </trkpt>
      <trkpt lat="48.66174" lon="6.01412">
        <ele>224</ele>
        <time>2020-08-16T07:11:16Z</time>
      </trkpt>
      <trkpt lat="48.66172" lon="6.0142">
        <ele>224</ele>
        <time>2020-08-16T07:11:17Z</time>
      </trkpt>
      <trkpt lat="48.66173" lon="6.01433">
        <ele>224</ele>
        <time>2020-08-16T07:11:19Z</time>
      </trkpt>
      <trkpt lat="48.66173" lon="6.01442">
        <ele>223</ele>
        <time>2020-08-16T07:11:20Z</time>
      </trkpt>
      <trkpt lat="48.66173" lon="6.01456">
        <ele>223</ele>
        <time>2020-08-16T07:11:22Z</time>
      </trkpt>
      <trkpt lat="48.66173" lon="6.01463">
        <ele>222</ele>
        <time>2020-08-16T07:11:23Z</time>
      </trkpt>
      <trkpt lat="48.66174" lon="6.01471">
        <ele>222</ele>
        <time>2020-08-16T07:11:24Z</time>
      </trkpt>
      <trkpt lat="48.66173" lon="6.01478">
        <ele>222</ele>
        <time>2020-08-16T07:11:25Z</time>
      </trkpt>
      <trkpt lat="48.66174" lon="6.01485">
        <ele>222</ele>
        <time>2020-08-16T07:11:26Z</time>
      </trkpt>
      <trkpt lat="48.66174" lon="6.01493">
        <ele>222</ele>
        <time>2020-08-16T07:11:27Z</time>
      </trkpt>
      <trkpt lat="48.66173" lon="6.015">
        <ele>223</ele>
        <time>2020-08-16T07:11:28Z</time>
      </trkpt>
      <trkpt lat="48.66171" lon="6.01514">
        <ele>223</ele>
        <time>2020-08-16T07:11:30Z</time>
      </trkpt>
      <trkpt lat="48.6617" lon="6.01521">
        <ele>224</ele>
        <time>2020-08-16T07:11:31Z</time>
      </trkpt>
      <trkpt lat="48.66172" lon="6.01533">
        <ele>223</ele>
        <time>2020-08-16T07:11:33Z</time>
      </trkpt>
      <trkpt lat="48.66171" lon="6.0154">
        <ele>223</ele>
        <time>2020-08-16T07:11:34Z</time>
      </trkpt>
      <trkpt lat="48.6617" lon="6.01548">
        <ele>223</ele>
        <time>2020-08-16T07:11:35Z</time>
      </trkpt>
      <trkpt lat="48.66168" lon="6.01561">
        <ele>222</ele>
        <time>2020-08-16T07:11:37Z</time>
      </trkpt>
      <trkpt lat="48.66167" lon="6.01568">
        <ele>221</ele>
        <time>2020-08-16T07:11:38Z</time>
      </trkpt>
      <trkpt lat="48.66166" lon="6.01576">
        <ele>221</ele>
        <time>2020-08-16T07:11:39Z</time>
      </trkpt>
      <trkpt lat="48.66166" lon="6.01583">
        <ele>221</ele>
        <time>2020-08-16T07:11:40Z</time>
      </trkpt>
      <trkpt lat="48.66166" lon="6.0159">
        <ele>222</ele>
        <time>2020-08-16T07:11:41Z</time>
      </trkpt>
      <trkpt lat="48.66163" lon="6.01596">
        <ele>222</ele>
        <time>2020-08-16T07:11:42Z</time>
      </trkpt>
      <trkpt lat="48.66163" lon="6.01603">
        <ele>223</ele>
        <time>2020-08-16T07:11:43Z</time>
      </trkpt>
      <trkpt lat="48.66163" lon="6.01611">
        <ele>223</ele>
        <time>2020-08-16T07:11:44Z</time>
      </trkpt>
      <trkpt lat="48.66161" lon="6.01618">
        <ele>224</ele>
        <time>2020-08-16T07:11:45Z</time>
      </trkpt>
      <trkpt lat="48.66161" lon="6.01625">
        <ele>223</ele>
        <time>2020-08-16T07:11:46Z</time>
      </trkpt>
      <trkpt lat="48.66161" lon="6.01633">
        <ele>222</ele>
        <time>2020-08-16T07:11:47Z</time>
      </trkpt>
      <trkpt lat="48.66159" lon="6.0164">
        <ele>223</ele>
        <time>2020-08-16T07:11:48Z</time>
      </trkpt>
      <trkpt lat="48.66159" lon="6.01647">
        <ele>222</ele>
        <time>2020-08-16T07:11:49Z</time>
      </trkpt>
      <trkpt lat="48.66159" lon="6.01655">
        <ele>222</ele>
        <time>2020-08-16T07:11:50Z</time>
      </trkpt>
      <trkpt lat="48.66156" lon="6.01662">
        <ele>222</ele>
        <time>2020-08-16T07:11:51Z</time>
      </trkpt>
      <trkpt lat="48.66155" lon="6.01669">
        <ele>222</ele>
        <time>2020-08-16T07:11:52Z</time>
      </trkpt>
      <trkpt lat="48.66152" lon="6.01677">
        <ele>223</ele>
        <time>2020-08-16T07:11:53Z</time>
      </trkpt>
      <trkpt lat="48.6615" lon="6.01698">
        <ele>226</ele>
        <time>2020-08-16T07:11:56Z</time>
      </trkpt>
      <trkpt lat="48.66148" lon="6.01705">
        <ele>227</ele>
        <time>2020-08-16T07:11:57Z</time>
      </trkpt>
      <trkpt lat="48.66146" lon="6.01714">
        <ele>226</ele>
        <time>2020-08-16T07:11:59Z</time>
      </trkpt>
      <trkpt lat="48.66145" lon="6.01726">
        <ele>224</ele>
        <time>2020-08-16T07:12:01Z</time>
      </trkpt>
      <trkpt lat="48.66144" lon="6.01733">
        <ele>224</ele>
        <time>2020-08-16T07:12:02Z</time>
      </trkpt>
      <trkpt lat="48.66142" lon="6.01741">
        <ele>224</ele>
        <time>2020-08-16T07:12:03Z</time>
      </trkpt>
      <trkpt lat="48.6614" lon="6.01748">
        <ele>223</ele>
        <time>2020-08-16T07:12:04Z</time>
      </trkpt>
      <trkpt lat="48.66139" lon="6.01756">
        <ele>223</ele>
        <time>2020-08-16T07:12:05Z</time>
      </trkpt>
      <trkpt lat="48.66135" lon="6.01768">
        <ele>224</ele>
        <time>2020-08-16T07:12:07Z</time>
      </trkpt>
      <trkpt lat="48.66132" lon="6.01774">
        <ele>226</ele>
        <time>2020-08-16T07:12:08Z</time>
      </trkpt>
      <trkpt lat="48.6613" lon="6.01781">
        <ele>226</ele>
        <time>2020-08-16T07:12:09Z</time>
      </trkpt>
      <trkpt lat="48.66127" lon="6.01786">
        <ele>226</ele>
        <time>2020-08-16T07:12:10Z</time>
      </trkpt>
      <trkpt lat="48.66125" lon="6.01793">
        <ele>225</ele>
        <time>2020-08-16T07:12:11Z</time>
      </trkpt>
      <trkpt lat="48.66123" lon="6.018">
        <ele>225</ele>
        <time>2020-08-16T07:12:12Z</time>
      </trkpt>
      <trkpt lat="48.6612" lon="6.01806">
        <ele>225</ele>
        <time>2020-08-16T07:12:13Z</time>
      </trkpt>
      <trkpt lat="48.66117" lon="6.01813">
        <ele>225</ele>
        <time>2020-08-16T07:12:14Z</time>
      </trkpt>
      <trkpt lat="48.66113" lon="6.01826">
        <ele>227</ele>
        <time>2020-08-16T07:12:16Z</time>
      </trkpt>
      <trkpt lat="48.66109" lon="6.01838">
        <ele>227</ele>
        <time>2020-08-16T07:12:18Z</time>
      </trkpt>
      <trkpt lat="48.66107" lon="6.01845">
        <ele>226</ele>
        <time>2020-08-16T07:12:19Z</time>
      </trkpt>
      <trkpt lat="48.66103" lon="6.01857">
        <ele>226</ele>
        <time>2020-08-16T07:12:21Z</time>
      </trkpt>
      <trkpt lat="48.66099" lon="6.0187">
        <ele>227</ele>
        <time>2020-08-16T07:12:23Z</time>
      </trkpt>
      <trkpt lat="48.66095" lon="6.01876">
        <ele>228</ele>
        <time>2020-08-16T07:12:24Z</time>
      </trkpt>
      <trkpt lat="48.66094" lon="6.01884">
        <ele>228</ele>
        <time>2020-08-16T07:12:25Z</time>
      </trkpt>
      <trkpt lat="48.66092" lon="6.01891">
        <ele>228</ele>
        <time>2020-08-16T07:12:26Z</time>
      </trkpt>
      <trkpt lat="48.66088" lon="6.01903">
        <ele>226</ele>
        <time>2020-08-16T07:12:28Z</time>
      </trkpt>
      <trkpt lat="48.66085" lon="6.01909">
        <ele>226</ele>
        <time>2020-08-16T07:12:29Z</time>
      </trkpt>
      <trkpt lat="48.66082" lon="6.01915">
        <ele>226</ele>
        <time>2020-08-16T07:12:30Z</time>
      </trkpt>
      <trkpt lat="48.66076" lon="6.01928">
        <ele>227</ele>
        <time>2020-08-16T07:12:32Z</time>
      </trkpt>
      <trkpt lat="48.66072" lon="6.01941">
        <ele>226</ele>
        <time>2020-08-16T07:12:34Z</time>
      </trkpt>
      <trkpt lat="48.6607" lon="6.01948">
        <ele>225</ele>
        <time>2020-08-16T07:12:35Z</time>
      </trkpt>
      <trkpt lat="48.66067" lon="6.01954">
        <ele>223</ele>
        <time>2020-08-16T07:12:36Z</time>
      </trkpt>
      <trkpt lat="48.66064" lon="6.0196">
        <ele>223</ele>
        <time>2020-08-16T07:12:37Z</time>
      </trkpt>
      <trkpt lat="48.66061" lon="6.01965">
        <ele>222</ele>
        <time>2020-08-16T07:12:38Z</time>
      </trkpt>
      <trkpt lat="48.66058" lon="6.01971">
        <ele>223</ele>
        <time>2020-08-16T07:12:39Z</time>
      </trkpt>
      <trkpt lat="48.66056" lon="6.01977">
        <ele>223</ele>
        <time>2020-08-16T07:12:40Z</time>
      </trkpt>
      <trkpt lat="48.66052" lon="6.01983">
        <ele>223</ele>
        <time>2020-08-16T07:12:41Z</time>
      </trkpt>
      <trkpt lat="48.66047" lon="6.01997">
        <ele>223</ele>
        <time>2020-08-16T07:12:43Z</time>
      </trkpt>
      <trkpt lat="48.66044" lon="6.02009">
        <ele>222</ele>
        <time>2020-08-16T07:12:45Z</time>
      </trkpt>
      <trkpt lat="48.6604" lon="6.02014">
        <ele>222</ele>
        <time>2020-08-16T07:12:46Z</time>
      </trkpt>
      <trkpt lat="48.66037" lon="6.0202">
        <ele>221</ele>
        <time>2020-08-16T07:12:47Z</time>
      </trkpt>
      <trkpt lat="48.66033" lon="6.02025">
        <ele>220</ele>
        <time>2020-08-16T07:12:48Z</time>
      </trkpt>
      <trkpt lat="48.66031" lon="6.02031">
        <ele>220</ele>
        <time>2020-08-16T07:12:49Z</time>
      </trkpt>
      <trkpt lat="48.66028" lon="6.02037">
        <ele>221</ele>
        <time>2020-08-16T07:12:50Z</time>
      </trkpt>
      <trkpt lat="48.66024" lon="6.02043">
        <ele>223</ele>
        <time>2020-08-16T07:12:51Z</time>
      </trkpt>
      <trkpt lat="48.66019" lon="6.02049">
        <ele>225</ele>
        <time>2020-08-16T07:12:52Z</time>
      </trkpt>
      <trkpt lat="48.66015" lon="6.02055">
        <ele>225</ele>
        <time>2020-08-16T07:12:53Z</time>
      </trkpt>
      <trkpt lat="48.66011" lon="6.0206">
        <ele>226</ele>
        <time>2020-08-16T07:12:54Z</time>
      </trkpt>
      <trkpt lat="48.66008" lon="6.02066">
        <ele>225</ele>
        <time>2020-08-16T07:12:55Z</time>
      </trkpt>
      <trkpt lat="48.66003" lon="6.02072">
        <ele>226</ele>
        <time>2020-08-16T07:12:56Z</time>
      </trkpt>
      <trkpt lat="48.66" lon="6.02077">
        <ele>225</ele>
        <time>2020-08-16T07:12:57Z</time>
      </trkpt>
      <trkpt lat="48.65996" lon="6.02083">
        <ele>223</ele>
        <time>2020-08-16T07:12:58Z</time>
      </trkpt>
      <trkpt lat="48.65986" lon="6.021">
        <ele>224</ele>
        <time>2020-08-16T07:13:01Z</time>
      </trkpt>
      <trkpt lat="48.65981" lon="6.02106">
        <ele>225</ele>
        <time>2020-08-16T07:13:03Z</time>
      </trkpt>
      <trkpt lat="48.65974" lon="6.02113">
        <ele>226</ele>
        <time>2020-08-16T07:13:05Z</time>
      </trkpt>
      <trkpt lat="48.6597" lon="6.02118">
        <ele>225</ele>
        <time>2020-08-16T07:13:06Z</time>
      </trkpt>
      <trkpt lat="48.65966" lon="6.02121">
        <ele>224</ele>
        <time>2020-08-16T07:13:07Z</time>
      </trkpt>
      <trkpt lat="48.65962" lon="6.02127">
        <ele>222</ele>
        <time>2020-08-16T07:13:08Z</time>
      </trkpt>
      <trkpt lat="48.65955" lon="6.02136">
        <ele>221</ele>
        <time>2020-08-16T07:13:10Z</time>
      </trkpt>
      <trkpt lat="48.65949" lon="6.02142">
        <ele>223</ele>
        <time>2020-08-16T07:13:12Z</time>
      </trkpt>
      <trkpt lat="48.65942" lon="6.0215">
        <ele>224</ele>
        <time>2020-08-16T07:13:14Z</time>
      </trkpt>
      <trkpt lat="48.65934" lon="6.02157">
        <ele>224</ele>
        <time>2020-08-16T07:13:16Z</time>
      </trkpt>
      <trkpt lat="48.65929" lon="6.02161">
        <ele>225</ele>
        <time>2020-08-16T07:13:17Z</time>
      </trkpt>
      <trkpt lat="48.65924" lon="6.02169">
        <ele>225</ele>
        <time>2020-08-16T07:13:19Z</time>
      </trkpt>
      <trkpt lat="48.65918" lon="6.02178">
        <ele>225</ele>
        <time>2020-08-16T07:13:21Z</time>
      </trkpt>
      <trkpt lat="48.65914" lon="6.02184">
        <ele>226</ele>
        <time>2020-08-16T07:13:22Z</time>
      </trkpt>
      <trkpt lat="48.65906" lon="6.02192">
        <ele>226</ele>
        <time>2020-08-16T07:13:24Z</time>
      </trkpt>
      <trkpt lat="48.65899" lon="6.02201">
        <ele>226</ele>
        <time>2020-08-16T07:13:26Z</time>
      </trkpt>
      <trkpt lat="48.65894" lon="6.02205">
        <ele>227</ele>
        <time>2020-08-16T07:13:27Z</time>
      </trkpt>
      <trkpt lat="48.6589" lon="6.0221">
        <ele>226</ele>
        <time>2020-08-16T07:13:28Z</time>
      </trkpt>
      <trkpt lat="48.65886" lon="6.02214">
        <ele>226</ele>
        <time>2020-08-16T07:13:29Z</time>
      </trkpt>
      <trkpt lat="48.6588" lon="6.02219">
        <ele>225</ele>
        <time>2020-08-16T07:13:30Z</time>
      </trkpt>
      <trkpt lat="48.65876" lon="6.02224">
        <ele>224</ele>
        <time>2020-08-16T07:13:31Z</time>
      </trkpt>
      <trkpt lat="48.65873" lon="6.02229">
        <ele>224</ele>
        <time>2020-08-16T07:13:32Z</time>
      </trkpt>
      <trkpt lat="48.65866" lon="6.02238">
        <ele>224</ele>
        <time>2020-08-16T07:13:34Z</time>
      </trkpt>
      <trkpt lat="48.65863" lon="6.02243">
        <ele>224</ele>
        <time>2020-08-16T07:13:35Z</time>
      </trkpt>
      <trkpt lat="48.65859" lon="6.02248">
        <ele>224</ele>
        <time>2020-08-16T07:13:36Z</time>
      </trkpt>
      <trkpt lat="48.65856" lon="6.02254">
        <ele>221</ele>
        <time>2020-08-16T07:13:37Z</time>
      </trkpt>
      <trkpt lat="48.65853" lon="6.0226">
        <ele>218</ele>
        <time>2020-08-16T07:13:38Z</time>
      </trkpt>
      <trkpt lat="48.65848" lon="6.02264">
        <ele>218</ele>
        <time>2020-08-16T07:13:39Z</time>
      </trkpt>
      <trkpt lat="48.65845" lon="6.02269">
        <ele>218</ele>
        <time>2020-08-16T07:13:40Z</time>
      </trkpt>
      <trkpt lat="48.6584" lon="6.02273">
        <ele>221</ele>
        <time>2020-08-16T07:13:41Z</time>
      </trkpt>
      <trkpt lat="48.65837" lon="6.02279">
        <ele>222</ele>
        <time>2020-08-16T07:13:42Z</time>
      </trkpt>
      <trkpt lat="48.65833" lon="6.02283">
        <ele>223</ele>
        <time>2020-08-16T07:13:43Z</time>
      </trkpt>
      <trkpt lat="48.6583" lon="6.02289">
        <ele>224</ele>
        <time>2020-08-16T07:13:44Z</time>
      </trkpt>
      <trkpt lat="48.65825" lon="6.02298">
        <ele>223</ele>
        <time>2020-08-16T07:13:46Z</time>
      </trkpt>
      <trkpt lat="48.65819" lon="6.02306">
        <ele>226</ele>
        <time>2020-08-16T07:13:48Z</time>
      </trkpt>
      <trkpt lat="48.65815" lon="6.02317">
        <ele>225</ele>
        <time>2020-08-16T07:13:50Z</time>
      </trkpt>
      <trkpt lat="48.65808" lon="6.02326">
        <ele>224</ele>
        <time>2020-08-16T07:13:52Z</time>
      </trkpt>
      <trkpt lat="48.65803" lon="6.02332">
        <ele>224</ele>
        <time>2020-08-16T07:13:53Z</time>
      </trkpt>
      <trkpt lat="48.65798" lon="6.02344">
        <ele>225</ele>
        <time>2020-08-16T07:13:55Z</time>
      </trkpt>
      <trkpt lat="48.65796" lon="6.0235">
        <ele>225</ele>
        <time>2020-08-16T07:13:56Z</time>
      </trkpt>
      <trkpt lat="48.65791" lon="6.02355">
        <ele>227</ele>
        <time>2020-08-16T07:13:57Z</time>
      </trkpt>
      <trkpt lat="48.65786" lon="6.02365">
        <ele>229</ele>
        <time>2020-08-16T07:13:59Z</time>
      </trkpt>
      <trkpt lat="48.65781" lon="6.02378">
        <ele>227</ele>
        <time>2020-08-16T07:14:01Z</time>
      </trkpt>
      <trkpt lat="48.65776" lon="6.02388">
        <ele>226</ele>
        <time>2020-08-16T07:14:03Z</time>
      </trkpt>
      <trkpt lat="48.65776" lon="6.02395">
        <ele>223</ele>
        <time>2020-08-16T07:14:04Z</time>
      </trkpt>
      <trkpt lat="48.6577" lon="6.02405">
        <ele>223</ele>
        <time>2020-08-16T07:14:06Z</time>
      </trkpt>
      <trkpt lat="48.65764" lon="6.02415">
        <ele>224</ele>
        <time>2020-08-16T07:14:08Z</time>
      </trkpt>
      <trkpt lat="48.65761" lon="6.02422">
        <ele>225</ele>
        <time>2020-08-16T07:14:09Z</time>
      </trkpt>
      <trkpt lat="48.65759" lon="6.02428">
        <ele>224</ele>
        <time>2020-08-16T07:14:10Z</time>
      </trkpt>
      <trkpt lat="48.65757" lon="6.02435">
        <ele>222</ele>
        <time>2020-08-16T07:14:11Z</time>
      </trkpt>
      <trkpt lat="48.65751" lon="6.02446">
        <ele>222</ele>
        <time>2020-08-16T07:14:13Z</time>
      </trkpt>
      <trkpt lat="48.65746" lon="6.02456">
        <ele>223</ele>
        <time>2020-08-16T07:14:15Z</time>
      </trkpt>
      <trkpt lat="48.65741" lon="6.02468">
        <ele>221</ele>
        <time>2020-08-16T07:14:17Z</time>
      </trkpt>
      <trkpt lat="48.65739" lon="6.02475">
        <ele>220</ele>
        <time>2020-08-16T07:14:18Z</time>
      </trkpt>
      <trkpt lat="48.65737" lon="6.02481">
        <ele>220</ele>
        <time>2020-08-16T07:14:19Z</time>
      </trkpt>
      <trkpt lat="48.65734" lon="6.02487">
        <ele>219</ele>
        <time>2020-08-16T07:14:20Z</time>
      </trkpt>
      <trkpt lat="48.65729" lon="6.02498">
        <ele>218</ele>
        <time>2020-08-16T07:14:22Z</time>
      </trkpt>
      <trkpt lat="48.65727" lon="6.02505">
        <ele>218</ele>
        <time>2020-08-16T07:14:23Z</time>
      </trkpt>
      <trkpt lat="48.65723" lon="6.02517">
        <ele>219</ele>
        <time>2020-08-16T07:14:25Z</time>
      </trkpt>
      <trkpt lat="48.6572" lon="6.02523">
        <ele>219</ele>
        <time>2020-08-16T07:14:26Z</time>
      </trkpt>
      <trkpt lat="48.65715" lon="6.02535">
        <ele>220</ele>
        <time>2020-08-16T07:14:28Z</time>
      </trkpt>
      <trkpt lat="48.65712" lon="6.02542">
        <ele>223</ele>
        <time>2020-08-16T07:14:29Z</time>
      </trkpt>
      <trkpt lat="48.65708" lon="6.02554">
        <ele>225</ele>
        <time>2020-08-16T07:14:31Z</time>
      </trkpt>
      <trkpt lat="48.65705" lon="6.02559">
        <ele>226</ele>
        <time>2020-08-16T07:14:32Z</time>
      </trkpt>
      <trkpt lat="48.65701" lon="6.02569">
        <ele>225</ele>
        <time>2020-08-16T07:14:34Z</time>
      </trkpt>
      <trkpt lat="48.65698" lon="6.02576">
        <ele>226</ele>
        <time>2020-08-16T07:14:35Z</time>
      </trkpt>
      <trkpt lat="48.65695" lon="6.02582">
        <ele>224</ele>
        <time>2020-08-16T07:14:36Z</time>
      </trkpt>
      <trkpt lat="48.65693" lon="6.02589">
        <ele>224</ele>
        <time>2020-08-16T07:14:37Z</time>
      </trkpt>
      <trkpt lat="48.6569" lon="6.02595">
        <ele>225</ele>
        <time>2020-08-16T07:14:38Z</time>
      </trkpt>
      <trkpt lat="48.65687" lon="6.02601">
        <ele>227</ele>
        <time>2020-08-16T07:14:39Z</time>
      </trkpt>
      <trkpt lat="48.65683" lon="6.02611">
        <ele>227</ele>
        <time>2020-08-16T07:14:41Z</time>
      </trkpt>
      <trkpt lat="48.65681" lon="6.02618">
        <ele>224</ele>
        <time>2020-08-16T07:14:42Z</time>
      </trkpt>
      <trkpt lat="48.65677" lon="6.02624">
        <ele>225</ele>
        <time>2020-08-16T07:14:43Z</time>
      </trkpt>
      <trkpt lat="48.65675" lon="6.0263">
        <ele>224</ele>
        <time>2020-08-16T07:14:44Z</time>
      </trkpt>
      <trkpt lat="48.65673" lon="6.02637">
        <ele>223</ele>
        <time>2020-08-16T07:14:45Z</time>
      </trkpt>
      <trkpt lat="48.65671" lon="6.02643">
        <ele>224</ele>
        <time>2020-08-16T07:14:46Z</time>
      </trkpt>
      <trkpt lat="48.65668" lon="6.02654">
        <ele>224</ele>
        <time>2020-08-16T07:14:48Z</time>
      </trkpt>
      <trkpt lat="48.65665" lon="6.02659">
        <ele>223</ele>
        <time>2020-08-16T07:14:49Z</time>
      </trkpt>
      <trkpt lat="48.65662" lon="6.02665">
        <ele>225</ele>
        <time>2020-08-16T07:14:50Z</time>
      </trkpt>
      <trkpt lat="48.6566" lon="6.02672">
        <ele>224</ele>
        <time>2020-08-16T07:14:51Z</time>
      </trkpt>
      <trkpt lat="48.65657" lon="6.02677">
        <ele>223</ele>
        <time>2020-08-16T07:14:52Z</time>
      </trkpt>
      <trkpt lat="48.65649" lon="6.02688">
        <ele>223</ele>
        <time>2020-08-16T07:14:54Z</time>
      </trkpt>
      <trkpt lat="48.65646" lon="6.02695">
        <ele>223</ele>
        <time>2020-08-16T07:14:55Z</time>
      </trkpt>
      <trkpt lat="48.65643" lon="6.02702">
        <ele>224</ele>
        <time>2020-08-16T07:14:56Z</time>
      </trkpt>
      <trkpt lat="48.6564" lon="6.02708">
        <ele>224</ele>
        <time>2020-08-16T07:14:57Z</time>
      </trkpt>
      <trkpt lat="48.65635" lon="6.02713">
        <ele>228</ele>
        <time>2020-08-16T07:14:58Z</time>
      </trkpt>
      <trkpt lat="48.65632" lon="6.02719">
        <ele>229</ele>
        <time>2020-08-16T07:14:59Z</time>
      </trkpt>
      <trkpt lat="48.65625" lon="6.0273">
        <ele>230</ele>
        <time>2020-08-16T07:15:01Z</time>
      </trkpt>
      <trkpt lat="48.65622" lon="6.02737">
        <ele>230</ele>
        <time>2020-08-16T07:15:02Z</time>
      </trkpt>
      <trkpt lat="48.65619" lon="6.02742">
        <ele>231</ele>
        <time>2020-08-16T07:15:03Z</time>
      </trkpt>
      <trkpt lat="48.65616" lon="6.02748">
        <ele>233</ele>
        <time>2020-08-16T07:15:04Z</time>
      </trkpt>
      <trkpt lat="48.65612" lon="6.02758">
        <ele>231</ele>
        <time>2020-08-16T07:15:06Z</time>
      </trkpt>
      <trkpt lat="48.6561" lon="6.02766">
        <ele>227</ele>
        <time>2020-08-16T07:15:07Z</time>
      </trkpt>
      <trkpt lat="48.65608" lon="6.02773">
        <ele>223</ele>
        <time>2020-08-16T07:15:08Z</time>
      </trkpt>
      <trkpt lat="48.65604" lon="6.0278">
        <ele>221</ele>
        <time>2020-08-16T07:15:10Z</time>
      </trkpt>
      <trkpt lat="48.656" lon="6.02791">
        <ele>224</ele>
        <time>2020-08-16T07:15:12Z</time>
      </trkpt>
      <trkpt lat="48.65596" lon="6.02799">
        <ele>227</ele>
        <time>2020-08-16T07:15:13Z</time>
      </trkpt>
      <trkpt lat="48.65591" lon="6.02808">
        <ele>229</ele>
        <time>2020-08-16T07:15:14Z</time>
      </trkpt>
      <trkpt lat="48.65587" lon="6.02815">
        <ele>229</ele>
        <time>2020-08-16T07:15:15Z</time>
      </trkpt>
      <trkpt lat="48.65581" lon="6.02821">
        <ele>229</ele>
        <time>2020-08-16T07:15:16Z</time>
      </trkpt>
      <trkpt lat="48.65576" lon="6.02833">
        <ele>228</ele>
        <time>2020-08-16T07:15:18Z</time>
      </trkpt>
      <trkpt lat="48.65569" lon="6.02844">
        <ele>228</ele>
        <time>2020-08-16T07:15:20Z</time>
      </trkpt>
      <trkpt lat="48.65563" lon="6.02855">
        <ele>227</ele>
        <time>2020-08-16T07:15:22Z</time>
      </trkpt>
      <trkpt lat="48.65561" lon="6.02862">
        <ele>226</ele>
        <time>2020-08-16T07:15:23Z</time>
      </trkpt>
      <trkpt lat="48.65559" lon="6.02868">
        <ele>226</ele>
        <time>2020-08-16T07:15:24Z</time>
      </trkpt>
      <trkpt lat="48.65556" lon="6.02874">
        <ele>225</ele>
        <time>2020-08-16T07:15:25Z</time>
      </trkpt>
      <trkpt lat="48.65551" lon="6.02886">
        <ele>222</ele>
        <time>2020-08-16T07:15:27Z</time>
      </trkpt>
      <trkpt lat="48.65549" lon="6.02892">
        <ele>221</ele>
        <time>2020-08-16T07:15:28Z</time>
      </trkpt>
      <trkpt lat="48.65543" lon="6.02902">
        <ele>223</ele>
        <time>2020-08-16T07:15:30Z</time>
      </trkpt>
      <trkpt lat="48.65541" lon="6.02908">
        <ele>224</ele>
        <time>2020-08-16T07:15:31Z</time>
      </trkpt>
      <trkpt lat="48.65538" lon="6.02915">
        <ele>225</ele>
        <time>2020-08-16T07:15:32Z</time>
      </trkpt>
      <trkpt lat="48.65536" lon="6.0292">
        <ele>226</ele>
        <time>2020-08-16T07:15:33Z</time>
      </trkpt>
      <trkpt lat="48.65533" lon="6.02927">
        <ele>226</ele>
        <time>2020-08-16T07:15:34Z</time>
      </trkpt>
      <trkpt lat="48.6553" lon="6.02933">
        <ele>226</ele>
        <time>2020-08-16T07:15:35Z</time>
      </trkpt>
      <trkpt lat="48.65528" lon="6.02939">
        <ele>225</ele>
        <time>2020-08-16T07:15:36Z</time>
      </trkpt>
      <trkpt lat="48.65524" lon="6.02949">
        <ele>223</ele>
        <time>2020-08-16T07:15:38Z</time>
      </trkpt>
      <trkpt lat="48.6552" lon="6.02954">
        <ele>223</ele>
        <time>2020-08-16T07:15:39Z</time>
      </trkpt>
      <trkpt lat="48.65515" lon="6.02965">
        <ele>223</ele>
        <time>2020-08-16T07:15:41Z</time>
      </trkpt>
      <trkpt lat="48.65509" lon="6.02975">
        <ele>225</ele>
        <time>2020-08-16T07:15:43Z</time>
      </trkpt>
      <trkpt lat="48.65505" lon="6.0298">
        <ele>228</ele>
        <time>2020-08-16T07:15:44Z</time>
      </trkpt>
      <trkpt lat="48.65499" lon="6.02989">
        <ele>233</ele>
        <time>2020-08-16T07:15:46Z</time>
      </trkpt>
      <trkpt lat="48.65495" lon="6.02997">
        <ele>234</ele>
        <time>2020-08-16T07:15:48Z</time>
      </trkpt>
      <trkpt lat="48.65493" lon="6.03005">
        <ele>231</ele>
        <time>2020-08-16T07:15:49Z</time>
      </trkpt>
      <trkpt lat="48.6549" lon="6.03012">
        <ele>229</ele>
        <time>2020-08-16T07:15:50Z</time>
      </trkpt>
      <trkpt lat="48.65486" lon="6.03026">
        <ele>225</ele>
        <time>2020-08-16T07:15:52Z</time>
      </trkpt>
      <trkpt lat="48.65482" lon="6.03032">
        <ele>226</ele>
        <time>2020-08-16T07:15:53Z</time>
      </trkpt>
      <trkpt lat="48.65479" lon="6.03038">
        <ele>226</ele>
        <time>2020-08-16T07:15:54Z</time>
      </trkpt>
      <trkpt lat="48.65476" lon="6.03044">
        <ele>225</ele>
        <time>2020-08-16T07:15:55Z</time>
      </trkpt>
      <trkpt lat="48.65473" lon="6.03051">
        <ele>224</ele>
        <time>2020-08-16T07:15:56Z</time>
      </trkpt>
      <trkpt lat="48.6547" lon="6.03057">
        <ele>224</ele>
        <time>2020-08-16T07:15:57Z</time>
      </trkpt>
      <trkpt lat="48.65465" lon="6.03069">
        <ele>223</ele>
        <time>2020-08-16T07:15:59Z</time>
      </trkpt>
      <trkpt lat="48.65461" lon="6.03074">
        <ele>223</ele>
        <time>2020-08-16T07:16:00Z</time>
      </trkpt>
      <trkpt lat="48.65455" lon="6.03085">
        <ele>223</ele>
        <time>2020-08-16T07:16:02Z</time>
      </trkpt>
      <trkpt lat="48.65452" lon="6.0309">
        <ele>223</ele>
        <time>2020-08-16T07:16:03Z</time>
      </trkpt>
      <trkpt lat="48.65449" lon="6.03095">
        <ele>223</ele>
        <time>2020-08-16T07:16:04Z</time>
      </trkpt>
      <trkpt lat="48.65445" lon="6.031">
        <ele>223</ele>
        <time>2020-08-16T07:16:05Z</time>
      </trkpt>
      <trkpt lat="48.65437" lon="6.0311">
        <ele>221</ele>
        <time>2020-08-16T07:16:07Z</time>
      </trkpt>
      <trkpt lat="48.65435" lon="6.03116">
        <ele>219</ele>
        <time>2020-08-16T07:16:08Z</time>
      </trkpt>
      <trkpt lat="48.65432" lon="6.03122">
        <ele>218</ele>
        <time>2020-08-16T07:16:09Z</time>
      </trkpt>
      <trkpt lat="48.65428" lon="6.03133">
        <ele>218</ele>
        <time>2020-08-16T07:16:11Z</time>
      </trkpt>
      <trkpt lat="48.65424" lon="6.03143">
        <ele>217</ele>
        <time>2020-08-16T07:16:13Z</time>
      </trkpt>
      <trkpt lat="48.6542" lon="6.03153">
        <ele>217</ele>
        <time>2020-08-16T07:16:15Z</time>
      </trkpt>
      <trkpt lat="48.65415" lon="6.03163">
        <ele>217</ele>
        <time>2020-08-16T07:16:17Z</time>
      </trkpt>
      <trkpt lat="48.6541" lon="6.03172">
        <ele>216</ele>
        <time>2020-08-16T07:16:19Z</time>
      </trkpt>
      <trkpt lat="48.65404" lon="6.03181">
        <ele>216</ele>
        <time>2020-08-16T07:16:21Z</time>
      </trkpt>
      <trkpt lat="48.65401" lon="6.03186">
        <ele>215</ele>
        <time>2020-08-16T07:16:22Z</time>
      </trkpt>
      <trkpt lat="48.65397" lon="6.0319">
        <ele>215</ele>
        <time>2020-08-16T07:16:23Z</time>
      </trkpt>
      <trkpt lat="48.6539" lon="6.03199">
        <ele>215</ele>
        <time>2020-08-16T07:16:25Z</time>
      </trkpt>
      <trkpt lat="48.65387" lon="6.03204">
        <ele>215</ele>
        <time>2020-08-16T07:16:26Z</time>
      </trkpt>
      <trkpt lat="48.65379" lon="6.03213">
        <ele>215</ele>
        <time>2020-08-16T07:16:28Z</time>
      </trkpt>
      <trkpt lat="48.65375" lon="6.03219">
        <ele>216</ele>
        <time>2020-08-16T07:16:29Z</time>
      </trkpt>
      <trkpt lat="48.65371" lon="6.03225">
        <ele>216</ele>
        <time>2020-08-16T07:16:30Z</time>
      </trkpt>
      <trkpt lat="48.65367" lon="6.03231">
        <ele>216</ele>
        <time>2020-08-16T07:16:31Z</time>
      </trkpt>
      <trkpt lat="48.65363" lon="6.03237">
        <ele>216</ele>
        <time>2020-08-16T07:16:32Z</time>
      </trkpt>
      <trkpt lat="48.65359" lon="6.03242">
        <ele>216</ele>
        <time>2020-08-16T07:16:33Z</time>
      </trkpt>
      <trkpt lat="48.65356" lon="6.03249">
        <ele>216</ele>
        <time>2020-08-16T07:16:34Z</time>
      </trkpt>
      <trkpt lat="48.65352" lon="6.03255">
        <ele>216</ele>
        <time>2020-08-16T07:16:35Z</time>
      </trkpt>
      <trkpt lat="48.65348" lon="6.03261">
        <ele>216</ele>
        <time>2020-08-16T07:16:36Z</time>
      </trkpt>
      <trkpt lat="48.65345" lon="6.03268">
        <ele>216</ele>
        <time>2020-08-16T07:16:37Z</time>
      </trkpt>
      <trkpt lat="48.6534" lon="6.03273">
        <ele>216</ele>
        <time>2020-08-16T07:16:38Z</time>
      </trkpt>
      <trkpt lat="48.65336" lon="6.03279">
        <ele>216</ele>
        <time>2020-08-16T07:16:39Z</time>
      </trkpt>
      <trkpt lat="48.65332" lon="6.03285">
        <ele>216</ele>
        <time>2020-08-16T07:16:40Z</time>
      </trkpt>
      <trkpt lat="48.65328" lon="6.03297">
        <ele>216</ele>
        <time>2020-08-16T07:16:42Z</time>
      </trkpt>
      <trkpt lat="48.65324" lon="6.03302">
        <ele>215</ele>
        <time>2020-08-16T07:16:43Z</time>
      </trkpt>
      <trkpt lat="48.65318" lon="6.03313">
        <ele>216</ele>
        <time>2020-08-16T07:16:45Z</time>
      </trkpt>
      <trkpt lat="48.65315" lon="6.03319">
        <ele>216</ele>
        <time>2020-08-16T07:16:46Z</time>
      </trkpt>
      <trkpt lat="48.65312" lon="6.03326">
        <ele>216</ele>
        <time>2020-08-16T07:16:47Z</time>
      </trkpt>
      <trkpt lat="48.6531" lon="6.03333">
        <ele>216</ele>
        <time>2020-08-16T07:16:48Z</time>
      </trkpt>
      <trkpt lat="48.65307" lon="6.03344">
        <ele>216</ele>
        <time>2020-08-16T07:16:50Z</time>
      </trkpt>
      <trkpt lat="48.65306" lon="6.03351">
        <ele>215</ele>
        <time>2020-08-16T07:16:51Z</time>
      </trkpt>
      <trkpt lat="48.65303" lon="6.03358">
        <ele>216</ele>
        <time>2020-08-16T07:16:52Z</time>
      </trkpt>
      <trkpt lat="48.65299" lon="6.03364">
        <ele>216</ele>
        <time>2020-08-16T07:16:53Z</time>
      </trkpt>
      <trkpt lat="48.65296" lon="6.0337">
        <ele>216</ele>
        <time>2020-08-16T07:16:54Z</time>
      </trkpt>
      <trkpt lat="48.65294" lon="6.03377">
        <ele>216</ele>
        <time>2020-08-16T07:16:55Z</time>
      </trkpt>
      <trkpt lat="48.65291" lon="6.03382">
        <ele>216</ele>
        <time>2020-08-16T07:16:56Z</time>
      </trkpt>
      <trkpt lat="48.65288" lon="6.03388">
        <ele>217</ele>
        <time>2020-08-16T07:16:57Z</time>
      </trkpt>
      <trkpt lat="48.65282" lon="6.034">
        <ele>217</ele>
        <time>2020-08-16T07:16:59Z</time>
      </trkpt>
      <trkpt lat="48.6528" lon="6.03406">
        <ele>217</ele>
        <time>2020-08-16T07:17:00Z</time>
      </trkpt>
      <trkpt lat="48.65275" lon="6.03416">
        <ele>217</ele>
        <time>2020-08-16T07:17:02Z</time>
      </trkpt>
      <trkpt lat="48.65272" lon="6.03421">
        <ele>217</ele>
        <time>2020-08-16T07:17:03Z</time>
      </trkpt>
      <trkpt lat="48.65269" lon="6.03429">
        <ele>217</ele>
        <time>2020-08-16T07:17:04Z</time>
      </trkpt>
      <trkpt lat="48.65265" lon="6.03435">
        <ele>217</ele>
        <time>2020-08-16T07:17:05Z</time>
      </trkpt>
      <trkpt lat="48.65264" lon="6.03442">
        <ele>217</ele>
        <time>2020-08-16T07:17:06Z</time>
      </trkpt>
      <trkpt lat="48.65262" lon="6.03449">
        <ele>217</ele>
        <time>2020-08-16T07:17:07Z</time>
      </trkpt>
      <trkpt lat="48.65257" lon="6.03461">
        <ele>217</ele>
        <time>2020-08-16T07:17:09Z</time>
      </trkpt>
      <trkpt lat="48.65255" lon="6.03467">
        <ele>218</ele>
        <time>2020-08-16T07:17:10Z</time>
      </trkpt>
      <trkpt lat="48.65253" lon="6.03473">
        <ele>218</ele>
        <time>2020-08-16T07:17:11Z</time>
      </trkpt>
      <trkpt lat="48.6525" lon="6.0348">
        <ele>219</ele>
        <time>2020-08-16T07:17:12Z</time>
      </trkpt>
      <trkpt lat="48.65246" lon="6.03484">
        <ele>219</ele>
        <time>2020-08-16T07:17:13Z</time>
      </trkpt>
      <trkpt lat="48.65242" lon="6.03495">
        <ele>221</ele>
        <time>2020-08-16T07:17:15Z</time>
      </trkpt>
      <trkpt lat="48.65243" lon="6.03503">
        <ele>221</ele>
        <time>2020-08-16T07:17:16Z</time>
      </trkpt>
      <trkpt lat="48.65241" lon="6.0351">
        <ele>221</ele>
        <time>2020-08-16T07:17:17Z</time>
      </trkpt>
      <trkpt lat="48.65238" lon="6.03516">
        <ele>221</ele>
        <time>2020-08-16T07:17:18Z</time>
      </trkpt>
      <trkpt lat="48.65236" lon="6.03522">
        <ele>221</ele>
        <time>2020-08-16T07:17:19Z</time>
      </trkpt>
      <trkpt lat="48.65232" lon="6.03529">
        <ele>221</ele>
        <time>2020-08-16T07:17:20Z</time>
      </trkpt>
      <trkpt lat="48.6523" lon="6.03535">
        <ele>220</ele>
        <time>2020-08-16T07:17:21Z</time>
      </trkpt>
      <trkpt lat="48.65225" lon="6.03544">
        <ele>221</ele>
        <time>2020-08-16T07:17:23Z</time>
      </trkpt>
      <trkpt lat="48.6522" lon="6.03552">
        <ele>221</ele>
        <time>2020-08-16T07:17:25Z</time>
      </trkpt>
      <trkpt lat="48.65215" lon="6.03562">
        <ele>221</ele>
        <time>2020-08-16T07:17:27Z</time>
      </trkpt>
      <trkpt lat="48.65212" lon="6.03569">
        <ele>220</ele>
        <time>2020-08-16T07:17:29Z</time>
      </trkpt>
      <trkpt lat="48.65209" lon="6.03574">
        <ele>220</ele>
        <time>2020-08-16T07:17:30Z</time>
      </trkpt>
      <trkpt lat="48.65206" lon="6.03582">
        <ele>220</ele>
        <time>2020-08-16T07:17:31Z</time>
      </trkpt>
      <trkpt lat="48.65201" lon="6.03592">
        <ele>220</ele>
        <time>2020-08-16T07:17:33Z</time>
      </trkpt>
      <trkpt lat="48.65195" lon="6.03602">
        <ele>219</ele>
        <time>2020-08-16T07:17:35Z</time>
      </trkpt>
      <trkpt lat="48.6519" lon="6.03611">
        <ele>218</ele>
        <time>2020-08-16T07:17:37Z</time>
      </trkpt>
      <trkpt lat="48.65184" lon="6.03621">
        <ele>217</ele>
        <time>2020-08-16T07:17:39Z</time>
      </trkpt>
      <trkpt lat="48.65181" lon="6.03627">
        <ele>215</ele>
        <time>2020-08-16T07:17:40Z</time>
      </trkpt>
      <trkpt lat="48.65177" lon="6.03631">
        <ele>215</ele>
        <time>2020-08-16T07:17:41Z</time>
      </trkpt>
      <trkpt lat="48.6517" lon="6.0364">
        <ele>215</ele>
        <time>2020-08-16T07:17:43Z</time>
      </trkpt>
      <trkpt lat="48.65167" lon="6.03644">
        <ele>215</ele>
        <time>2020-08-16T07:17:44Z</time>
      </trkpt>
      <trkpt lat="48.65161" lon="6.03653">
        <ele>214</ele>
        <time>2020-08-16T07:17:46Z</time>
      </trkpt>
      <trkpt lat="48.65154" lon="6.03662">
        <ele>214</ele>
        <time>2020-08-16T07:17:48Z</time>
      </trkpt>
      <trkpt lat="48.65147" lon="6.03671">
        <ele>214</ele>
        <time>2020-08-16T07:17:50Z</time>
      </trkpt>
      <trkpt lat="48.65141" lon="6.0368">
        <ele>214</ele>
        <time>2020-08-16T07:17:52Z</time>
      </trkpt>
      <trkpt lat="48.65138" lon="6.03685">
        <ele>214</ele>
        <time>2020-08-16T07:17:53Z</time>
      </trkpt>
      <trkpt lat="48.65134" lon="6.0369">
        <ele>213</ele>
        <time>2020-08-16T07:17:54Z</time>
      </trkpt>
      <trkpt lat="48.65127" lon="6.03698">
        <ele>213</ele>
        <time>2020-08-16T07:17:56Z</time>
      </trkpt>
      <trkpt lat="48.6512" lon="6.03706">
        <ele>213</ele>
        <time>2020-08-16T07:17:58Z</time>
      </trkpt>
      <trkpt lat="48.65113" lon="6.03715">
        <ele>213</ele>
        <time>2020-08-16T07:18:00Z</time>
      </trkpt>
      <trkpt lat="48.65106" lon="6.03722">
        <ele>213</ele>
        <time>2020-08-16T07:18:02Z</time>
      </trkpt>
      <trkpt lat="48.65099" lon="6.03729">
        <ele>213</ele>
        <time>2020-08-16T07:18:04Z</time>
      </trkpt>
      <trkpt lat="48.65092" lon="6.03736">
        <ele>213</ele>
        <time>2020-08-16T07:18:06Z</time>
      </trkpt>
      <trkpt lat="48.65084" lon="6.03743">
        <ele>213</ele>
        <time>2020-08-16T07:18:08Z</time>
      </trkpt>
      <trkpt lat="48.65077" lon="6.0375">
        <ele>213</ele>
        <time>2020-08-16T07:18:10Z</time>
      </trkpt>
      <trkpt lat="48.6507" lon="6.03757">
        <ele>213</ele>
        <time>2020-08-16T07:18:12Z</time>
      </trkpt>
      <trkpt lat="48.65062" lon="6.03764">
        <ele>213</ele>
        <time>2020-08-16T07:18:14Z</time>
      </trkpt>
      <trkpt lat="48.65054" lon="6.03771">
        <ele>213</ele>
        <time>2020-08-16T07:18:16Z</time>
      </trkpt>
      <trkpt lat="48.65051" lon="6.03775">
        <ele>213</ele>
        <time>2020-08-16T07:18:17Z</time>
      </trkpt>
      <trkpt lat="48.65046" lon="6.03778">
        <ele>213</ele>
        <time>2020-08-16T07:18:18Z</time>
      </trkpt>
      <trkpt lat="48.65042" lon="6.03782">
        <ele>213</ele>
        <time>2020-08-16T07:18:19Z</time>
      </trkpt>
      <trkpt lat="48.65038" lon="6.03785">
        <ele>213</ele>
        <time>2020-08-16T07:18:20Z</time>
      </trkpt>
      <trkpt lat="48.65031" lon="6.03792">
        <ele>213</ele>
        <time>2020-08-16T07:18:22Z</time>
      </trkpt>
      <trkpt lat="48.65023" lon="6.03798">
        <ele>213</ele>
        <time>2020-08-16T07:18:24Z</time>
      </trkpt>
      <trkpt lat="48.65019" lon="6.03802">
        <ele>213</ele>
        <time>2020-08-16T07:18:25Z</time>
      </trkpt>
      <trkpt lat="48.65011" lon="6.03809">
        <ele>213</ele>
        <time>2020-08-16T07:18:27Z</time>
      </trkpt>
      <trkpt lat="48.65004" lon="6.03816">
        <ele>213</ele>
        <time>2020-08-16T07:18:29Z</time>
      </trkpt>
      <trkpt lat="48.64997" lon="6.03823">
        <ele>213</ele>
        <time>2020-08-16T07:18:31Z</time>
      </trkpt>
      <trkpt lat="48.6499" lon="6.03829">
        <ele>213</ele>
        <time>2020-08-16T07:18:33Z</time>
      </trkpt>
      <trkpt lat="48.64982" lon="6.03835">
        <ele>213</ele>
        <time>2020-08-16T07:18:35Z</time>
      </trkpt>
      <trkpt lat="48.64974" lon="6.03841">
        <ele>213</ele>
        <time>2020-08-16T07:18:37Z</time>
      </trkpt>
      <trkpt lat="48.64966" lon="6.03847">
        <ele>213</ele>
        <time>2020-08-16T07:18:39Z</time>
      </trkpt>
      <trkpt lat="48.64962" lon="6.03851">
        <ele>213</ele>
        <time>2020-08-16T07:18:40Z</time>
      </trkpt>
      <trkpt lat="48.64955" lon="6.03858">
        <ele>213</ele>
        <time>2020-08-16T07:18:42Z</time>
      </trkpt>
      <trkpt lat="48.64951" lon="6.03862">
        <ele>213</ele>
        <time>2020-08-16T07:18:43Z</time>
      </trkpt>
      <trkpt lat="48.64947" lon="6.03865">
        <ele>213</ele>
        <time>2020-08-16T07:18:44Z</time>
      </trkpt>
      <trkpt lat="48.6494" lon="6.03871">
        <ele>214</ele>
        <time>2020-08-16T07:18:46Z</time>
      </trkpt>
      <trkpt lat="48.64932" lon="6.03878">
        <ele>214</ele>
        <time>2020-08-16T07:18:48Z</time>
      </trkpt>
      <trkpt lat="48.64925" lon="6.03884">
        <ele>213</ele>
        <time>2020-08-16T07:18:50Z</time>
      </trkpt>
      <trkpt lat="48.64917" lon="6.03891">
        <ele>213</ele>
        <time>2020-08-16T07:18:52Z</time>
      </trkpt>
      <trkpt lat="48.64912" lon="6.03893">
        <ele>214</ele>
        <time>2020-08-16T07:18:53Z</time>
      </trkpt>
      <trkpt lat="48.64901" lon="6.03903">
        <ele>214</ele>
        <time>2020-08-16T07:18:56Z</time>
      </trkpt>
      <trkpt lat="48.6489" lon="6.03912">
        <ele>214</ele>
        <time>2020-08-16T07:18:59Z</time>
      </trkpt>
      <trkpt lat="48.64885" lon="6.03916">
        <ele>213</ele>
        <time>2020-08-16T07:19:00Z</time>
      </trkpt>
      <trkpt lat="48.64878" lon="6.03922">
        <ele>214</ele>
        <time>2020-08-16T07:19:02Z</time>
      </trkpt>
      <trkpt lat="48.64874" lon="6.03925">
        <ele>213</ele>
        <time>2020-08-16T07:19:03Z</time>
      </trkpt>
      <trkpt lat="48.6487" lon="6.03929">
        <ele>213</ele>
        <time>2020-08-16T07:19:04Z</time>
      </trkpt>
      <trkpt lat="48.64866" lon="6.03933">
        <ele>213</ele>
        <time>2020-08-16T07:19:05Z</time>
      </trkpt>
      <trkpt lat="48.64862" lon="6.03936">
        <ele>213</ele>
        <time>2020-08-16T07:19:06Z</time>
      </trkpt>
      <trkpt lat="48.64858" lon="6.0394">
        <ele>213</ele>
        <time>2020-08-16T07:19:07Z</time>
      </trkpt>
      <trkpt lat="48.64851" lon="6.03945">
        <ele>213</ele>
        <time>2020-08-16T07:19:09Z</time>
      </trkpt>
      <trkpt lat="48.64843" lon="6.03951">
        <ele>213</ele>
        <time>2020-08-16T07:19:11Z</time>
      </trkpt>
      <trkpt lat="48.64836" lon="6.03956">
        <ele>213</ele>
        <time>2020-08-16T07:19:13Z</time>
      </trkpt>
      <trkpt lat="48.64831" lon="6.03959">
        <ele>213</ele>
        <time>2020-08-16T07:19:14Z</time>
      </trkpt>
      <trkpt lat="48.64827" lon="6.03962">
        <ele>213</ele>
        <time>2020-08-16T07:19:15Z</time>
      </trkpt>
      <trkpt lat="48.64823" lon="6.03966">
        <ele>213</ele>
        <time>2020-08-16T07:19:16Z</time>
      </trkpt>
      <trkpt lat="48.64815" lon="6.03971">
        <ele>213</ele>
        <time>2020-08-16T07:19:18Z</time>
      </trkpt>
      <trkpt lat="48.64811" lon="6.03974">
        <ele>213</ele>
        <time>2020-08-16T07:19:19Z</time>
      </trkpt>
      <trkpt lat="48.64806" lon="6.03977">
        <ele>213</ele>
        <time>2020-08-16T07:19:20Z</time>
      </trkpt>
      <trkpt lat="48.64798" lon="6.03981">
        <ele>213</ele>
        <time>2020-08-16T07:19:22Z</time>
      </trkpt>
      <trkpt lat="48.6479" lon="6.03985">
        <ele>213</ele>
        <time>2020-08-16T07:19:24Z</time>
      </trkpt>
      <trkpt lat="48.64778" lon="6.03992">
        <ele>213</ele>
        <time>2020-08-16T07:19:27Z</time>
      </trkpt>
      <trkpt lat="48.64769" lon="6.03996">
        <ele>213</ele>
        <time>2020-08-16T07:19:29Z</time>
      </trkpt>
      <trkpt lat="48.64764" lon="6.03997">
        <ele>213</ele>
        <time>2020-08-16T07:19:30Z</time>
      </trkpt>
      <trkpt lat="48.64756" lon="6.04002">
        <ele>213</ele>
        <time>2020-08-16T07:19:32Z</time>
      </trkpt>
      <trkpt lat="48.64751" lon="6.04004">
        <ele>213</ele>
        <time>2020-08-16T07:19:33Z</time>
      </trkpt>
      <trkpt lat="48.64743" lon="6.04008">
        <ele>213</ele>
        <time>2020-08-16T07:19:35Z</time>
      </trkpt>
      <trkpt lat="48.64734" lon="6.04012">
        <ele>213</ele>
        <time>2020-08-16T07:19:37Z</time>
      </trkpt>
      <trkpt lat="48.64725" lon="6.04016">
        <ele>213</ele>
        <time>2020-08-16T07:19:39Z</time>
      </trkpt>
      <trkpt lat="48.6472" lon="6.04018">
        <ele>213</ele>
        <time>2020-08-16T07:19:40Z</time>
      </trkpt>
      <trkpt lat="48.64716" lon="6.04019">
        <ele>213</ele>
        <time>2020-08-16T07:19:41Z</time>
      </trkpt>
      <trkpt lat="48.64711" lon="6.04021">
        <ele>213</ele>
        <time>2020-08-16T07:19:42Z</time>
      </trkpt>
      <trkpt lat="48.64702" lon="6.04026">
        <ele>213</ele>
        <time>2020-08-16T07:19:44Z</time>
      </trkpt>
      <trkpt lat="48.64693" lon="6.04029">
        <ele>213</ele>
        <time>2020-08-16T07:19:46Z</time>
      </trkpt>
      <trkpt lat="48.64684" lon="6.04032">
        <ele>213</ele>
        <time>2020-08-16T07:19:48Z</time>
      </trkpt>
      <trkpt lat="48.64677" lon="6.04033">
        <ele>213</ele>
        <time>2020-08-16T07:19:50Z</time>
      </trkpt>
      <trkpt lat="48.64671" lon="6.04035">
        <ele>213</ele>
        <time>2020-08-16T07:19:51Z</time>
      </trkpt>
      <trkpt lat="48.64664" lon="6.04036">
        <ele>213</ele>
        <time>2020-08-16T07:19:53Z</time>
      </trkpt>
      <trkpt lat="48.6466" lon="6.04037">
        <ele>213</ele>
        <time>2020-08-16T07:19:54Z</time>
      </trkpt>
      <trkpt lat="48.64655" lon="6.0404">
        <ele>213</ele>
        <time>2020-08-16T07:19:55Z</time>
      </trkpt>
      <trkpt lat="48.64645" lon="6.04043">
        <ele>213</ele>
        <time>2020-08-16T07:19:57Z</time>
      </trkpt>
      <trkpt lat="48.64637" lon="6.04047">
        <ele>213</ele>
        <time>2020-08-16T07:19:59Z</time>
      </trkpt>
      <trkpt lat="48.64632" lon="6.04048">
        <ele>213</ele>
        <time>2020-08-16T07:20:00Z</time>
      </trkpt>
      <trkpt lat="48.64624" lon="6.04049">
        <ele>213</ele>
        <time>2020-08-16T07:20:02Z</time>
      </trkpt>
      <trkpt lat="48.64616" lon="6.04051">
        <ele>213</ele>
        <time>2020-08-16T07:20:04Z</time>
      </trkpt>
      <trkpt lat="48.6461" lon="6.04052">
        <ele>214</ele>
        <time>2020-08-16T07:20:05Z</time>
      </trkpt>
      <trkpt lat="48.64606" lon="6.04054">
        <ele>213</ele>
        <time>2020-08-16T07:20:06Z</time>
      </trkpt>
      <trkpt lat="48.64596" lon="6.04055">
        <ele>214</ele>
        <time>2020-08-16T07:20:08Z</time>
      </trkpt>
      <trkpt lat="48.64591" lon="6.04055">
        <ele>214</ele>
        <time>2020-08-16T07:20:09Z</time>
      </trkpt>
      <trkpt lat="48.64582" lon="6.04057">
        <ele>214</ele>
        <time>2020-08-16T07:20:11Z</time>
      </trkpt>
      <trkpt lat="48.64577" lon="6.04058">
        <ele>214</ele>
        <time>2020-08-16T07:20:12Z</time>
      </trkpt>
      <trkpt lat="48.64568" lon="6.04058">
        <ele>214</ele>
        <time>2020-08-16T07:20:14Z</time>
      </trkpt>
      <trkpt lat="48.64564" lon="6.04058">
        <ele>214</ele>
        <time>2020-08-16T07:20:15Z</time>
      </trkpt>
      <trkpt lat="48.64555" lon="6.04058">
        <ele>214</ele>
        <time>2020-08-16T07:20:17Z</time>
      </trkpt>
      <trkpt lat="48.64549" lon="6.04061">
        <ele>214</ele>
        <time>2020-08-16T07:20:18Z</time>
      </trkpt>
      <trkpt lat="48.64544" lon="6.04062">
        <ele>214</ele>
        <time>2020-08-16T07:20:19Z</time>
      </trkpt>
      <trkpt lat="48.64536" lon="6.04059">
        <ele>214</ele>
        <time>2020-08-16T07:20:21Z</time>
      </trkpt>
      <trkpt lat="48.64531" lon="6.04059">
        <ele>214</ele>
        <time>2020-08-16T07:20:22Z</time>
      </trkpt>
      <trkpt lat="48.64526" lon="6.04059">
        <ele>214</ele>
        <time>2020-08-16T07:20:23Z</time>
      </trkpt>
      <trkpt lat="48.64521" lon="6.04057">
        <ele>214</ele>
        <time>2020-08-16T07:20:24Z</time>
      </trkpt>
      <trkpt lat="48.64516" lon="6.04056">
        <ele>214</ele>
        <time>2020-08-16T07:20:25Z</time>
      </trkpt>
      <trkpt lat="48.64507" lon="6.04053">
        <ele>214</ele>
        <time>2020-08-16T07:20:27Z</time>
      </trkpt>
      <trkpt lat="48.64502" lon="6.04053">
        <ele>214</ele>
        <time>2020-08-16T07:20:28Z</time>
      </trkpt>
      <trkpt lat="48.64497" lon="6.04052">
        <ele>214</ele>
        <time>2020-08-16T07:20:29Z</time>
      </trkpt>
      <trkpt lat="48.64489" lon="6.04049">
        <ele>214</ele>
        <time>2020-08-16T07:20:31Z</time>
      </trkpt>
      <trkpt lat="48.64485" lon="6.04048">
        <ele>214</ele>
        <time>2020-08-16T07:20:32Z</time>
      </trkpt>
      <trkpt lat="48.64479" lon="6.04047">
        <ele>214</ele>
        <time>2020-08-16T07:20:33Z</time>
      </trkpt>
      <trkpt lat="48.64475" lon="6.04045">
        <ele>214</ele>
        <time>2020-08-16T07:20:34Z</time>
      </trkpt>
      <trkpt lat="48.6447" lon="6.04045">
        <ele>214</ele>
        <time>2020-08-16T07:20:35Z</time>
      </trkpt>
      <trkpt lat="48.64465" lon="6.04044">
        <ele>214</ele>
        <time>2020-08-16T07:20:36Z</time>
      </trkpt>
      <trkpt lat="48.6446" lon="6.04043">
        <ele>214</ele>
        <time>2020-08-16T07:20:37Z</time>
      </trkpt>
      <trkpt lat="48.64455" lon="6.04042">
        <ele>214</ele>
        <time>2020-08-16T07:20:38Z</time>
      </trkpt>
      <trkpt lat="48.64451" lon="6.04041">
        <ele>214</ele>
        <time>2020-08-16T07:20:39Z</time>
      </trkpt>
      <trkpt lat="48.64446" lon="6.04038">
        <ele>214</ele>
        <time>2020-08-16T07:20:40Z</time>
      </trkpt>
      <trkpt lat="48.64441" lon="6.04038">
        <ele>215</ele>
        <time>2020-08-16T07:20:41Z</time>
      </trkpt>
      <trkpt lat="48.64431" lon="6.04036">
        <ele>215</ele>
        <time>2020-08-16T07:20:43Z</time>
      </trkpt>
      <trkpt lat="48.64426" lon="6.04035">
        <ele>215</ele>
        <time>2020-08-16T07:20:44Z</time>
      </trkpt>
      <trkpt lat="48.64421" lon="6.04034">
        <ele>215</ele>
        <time>2020-08-16T07:20:45Z</time>
      </trkpt>
      <trkpt lat="48.64417" lon="6.04033">
        <ele>215</ele>
        <time>2020-08-16T07:20:46Z</time>
      </trkpt>
      <trkpt lat="48.64407" lon="6.04033">
        <ele>214</ele>
        <time>2020-08-16T07:20:48Z</time>
      </trkpt>
      <trkpt lat="48.64402" lon="6.04032">
        <ele>214</ele>
        <time>2020-08-16T07:20:49Z</time>
      </trkpt>
      <trkpt lat="48.64393" lon="6.04031">
        <ele>214</ele>
        <time>2020-08-16T07:20:51Z</time>
      </trkpt>
      <trkpt lat="48.64388" lon="6.04031">
        <ele>214</ele>
        <time>2020-08-16T07:20:52Z</time>
      </trkpt>
      <trkpt lat="48.6438" lon="6.04031">
        <ele>215</ele>
        <time>2020-08-16T07:20:54Z</time>
      </trkpt>
      <trkpt lat="48.64376" lon="6.04029">
        <ele>216</ele>
        <time>2020-08-16T07:20:55Z</time>
      </trkpt>
      <trkpt lat="48.64367" lon="6.04028">
        <ele>217</ele>
        <time>2020-08-16T07:20:57Z</time>
      </trkpt>
      <trkpt lat="48.64362" lon="6.04027">
        <ele>217</ele>
        <time>2020-08-16T07:20:58Z</time>
      </trkpt>
      <trkpt lat="48.64353" lon="6.04025">
        <ele>217</ele>
        <time>2020-08-16T07:21:00Z</time>
      </trkpt>
      <trkpt lat="48.64348" lon="6.04023">
        <ele>217</ele>
        <time>2020-08-16T07:21:01Z</time>
      </trkpt>
      <trkpt lat="48.64344" lon="6.04022">
        <ele>218</ele>
        <time>2020-08-16T07:21:02Z</time>
      </trkpt>
      <trkpt lat="48.64336" lon="6.04021">
        <ele>218</ele>
        <time>2020-08-16T07:21:04Z</time>
      </trkpt>
      <trkpt lat="48.64326" lon="6.04021">
        <ele>217</ele>
        <time>2020-08-16T07:21:06Z</time>
      </trkpt>
      <trkpt lat="48.64322" lon="6.0402">
        <ele>217</ele>
        <time>2020-08-16T07:21:07Z</time>
      </trkpt>
      <trkpt lat="48.64313" lon="6.04018">
        <ele>217</ele>
        <time>2020-08-16T07:21:09Z</time>
      </trkpt>
      <trkpt lat="48.64308" lon="6.04018">
        <ele>218</ele>
        <time>2020-08-16T07:21:10Z</time>
      </trkpt>
      <trkpt lat="48.64299" lon="6.04018">
        <ele>218</ele>
        <time>2020-08-16T07:21:12Z</time>
      </trkpt>
      <trkpt lat="48.64294" lon="6.04016">
        <ele>217</ele>
        <time>2020-08-16T07:21:13Z</time>
      </trkpt>
      <trkpt lat="48.64288" lon="6.04017">
        <ele>217</ele>
        <time>2020-08-16T07:21:15Z</time>
      </trkpt>
      <trkpt lat="48.64279" lon="6.04014">
        <ele>217</ele>
        <time>2020-08-16T07:21:17Z</time>
      </trkpt>
      <trkpt lat="48.64269" lon="6.04014">
        <ele>217</ele>
        <time>2020-08-16T07:21:19Z</time>
      </trkpt>
      <trkpt lat="48.64264" lon="6.04013">
        <ele>217</ele>
        <time>2020-08-16T07:21:20Z</time>
      </trkpt>
      <trkpt lat="48.64256" lon="6.04011">
        <ele>217</ele>
        <time>2020-08-16T07:21:22Z</time>
      </trkpt>
      <trkpt lat="48.64252" lon="6.0401">
        <ele>217</ele>
        <time>2020-08-16T07:21:23Z</time>
      </trkpt>
      <trkpt lat="48.64244" lon="6.04009">
        <ele>217</ele>
        <time>2020-08-16T07:21:25Z</time>
      </trkpt>
      <trkpt lat="48.64239" lon="6.04008">
        <ele>216</ele>
        <time>2020-08-16T07:21:26Z</time>
      </trkpt>
      <trkpt lat="48.6423" lon="6.04007">
        <ele>217</ele>
        <time>2020-08-16T07:21:28Z</time>
      </trkpt>
      <trkpt lat="48.64225" lon="6.04005">
        <ele>217</ele>
        <time>2020-08-16T07:21:29Z</time>
      </trkpt>
      <trkpt lat="48.64218" lon="6.04005">
        <ele>217</ele>
        <time>2020-08-16T07:21:31Z</time>
      </trkpt>
      <trkpt lat="48.64209" lon="6.04002">
        <ele>218</ele>
        <time>2020-08-16T07:21:33Z</time>
      </trkpt>
      <trkpt lat="48.64202" lon="6.04001">
        <ele>218</ele>
        <time>2020-08-16T07:21:35Z</time>
      </trkpt>
      <trkpt lat="48.64195" lon="6.03999">
        <ele>218</ele>
        <time>2020-08-16T07:21:37Z</time>
      </trkpt>
      <trkpt lat="48.64186" lon="6.03999">
        <ele>218</ele>
        <time>2020-08-16T07:21:39Z</time>
      </trkpt>
      <trkpt lat="48.64177" lon="6.03998">
        <ele>218</ele>
        <time>2020-08-16T07:21:41Z</time>
      </trkpt>
      <trkpt lat="48.6417" lon="6.03996">
        <ele>218</ele>
        <time>2020-08-16T07:21:43Z</time>
      </trkpt>
      <trkpt lat="48.64161" lon="6.03994">
        <ele>218</ele>
        <time>2020-08-16T07:21:45Z</time>
      </trkpt>
      <trkpt lat="48.64151" lon="6.03992">
        <ele>219</ele>
        <time>2020-08-16T07:21:47Z</time>
      </trkpt>
      <trkpt lat="48.64144" lon="6.03991">
        <ele>219</ele>
        <time>2020-08-16T07:21:49Z</time>
      </trkpt>
      <trkpt lat="48.64137" lon="6.03986">
        <ele>219</ele>
        <time>2020-08-16T07:21:51Z</time>
      </trkpt>
      <trkpt lat="48.64129" lon="6.03986">
        <ele>219</ele>
        <time>2020-08-16T07:21:53Z</time>
      </trkpt>
      <trkpt lat="48.64124" lon="6.03983">
        <ele>219</ele>
        <time>2020-08-16T07:21:54Z</time>
      </trkpt>
      <trkpt lat="48.64116" lon="6.03982">
        <ele>219</ele>
        <time>2020-08-16T07:21:56Z</time>
      </trkpt>
      <trkpt lat="48.64108" lon="6.03979">
        <ele>219</ele>
        <time>2020-08-16T07:21:58Z</time>
      </trkpt>
      <trkpt lat="48.641" lon="6.03976">
        <ele>220</ele>
        <time>2020-08-16T07:22:00Z</time>
      </trkpt>
      <trkpt lat="48.64095" lon="6.03976">
        <ele>220</ele>
        <time>2020-08-16T07:22:01Z</time>
      </trkpt>
      <trkpt lat="48.64087" lon="6.03976">
        <ele>221</ele>
        <time>2020-08-16T07:22:03Z</time>
      </trkpt>
      <trkpt lat="48.64079" lon="6.03975">
        <ele>221</ele>
        <time>2020-08-16T07:22:05Z</time>
      </trkpt>
      <trkpt lat="48.64072" lon="6.03975">
        <ele>222</ele>
        <time>2020-08-16T07:22:07Z</time>
      </trkpt>
      <trkpt lat="48.64064" lon="6.03973">
        <ele>222</ele>
        <time>2020-08-16T07:22:09Z</time>
      </trkpt>
      <trkpt lat="48.64057" lon="6.03971">
        <ele>222</ele>
        <time>2020-08-16T07:22:11Z</time>
      </trkpt>
      <trkpt lat="48.64052" lon="6.0397">
        <ele>222</ele>
        <time>2020-08-16T07:22:12Z</time>
      </trkpt>
      <trkpt lat="48.64045" lon="6.03969">
        <ele>223</ele>
        <time>2020-08-16T07:22:14Z</time>
      </trkpt>
      <trkpt lat="48.6404" lon="6.03968">
        <ele>223</ele>
        <time>2020-08-16T07:22:15Z</time>
      </trkpt>
      <trkpt lat="48.64031" lon="6.03968">
        <ele>222</ele>
        <time>2020-08-16T07:22:17Z</time>
      </trkpt>
      <trkpt lat="48.64022" lon="6.03967">
        <ele>222</ele>
        <time>2020-08-16T07:22:19Z</time>
      </trkpt>
      <trkpt lat="48.64014" lon="6.03966">
        <ele>222</ele>
        <time>2020-08-16T07:22:21Z</time>
      </trkpt>
      <trkpt lat="48.64006" lon="6.03963">
        <ele>223</ele>
        <time>2020-08-16T07:22:23Z</time>
      </trkpt>
      <trkpt lat="48.64002" lon="6.03964">
        <ele>223</ele>
        <time>2020-08-16T07:22:24Z</time>
      </trkpt>
      <trkpt lat="48.63996" lon="6.03963">
        <ele>223</ele>
        <time>2020-08-16T07:22:25Z</time>
      </trkpt>
      <trkpt lat="48.63992" lon="6.03961">
        <ele>223</ele>
        <time>2020-08-16T07:22:26Z</time>
      </trkpt>
      <trkpt lat="48.63984" lon="6.0396">
        <ele>223</ele>
        <time>2020-08-16T07:22:28Z</time>
      </trkpt>
      <trkpt lat="48.63977" lon="6.03961">
        <ele>223</ele>
        <time>2020-08-16T07:22:30Z</time>
      </trkpt>
      <trkpt lat="48.63971" lon="6.03962">
        <ele>223</ele>
        <time>2020-08-16T07:22:32Z</time>
      </trkpt>
      <trkpt lat="48.63962" lon="6.03961">
        <ele>223</ele>
        <time>2020-08-16T07:22:34Z</time>
      </trkpt>
      <trkpt lat="48.63953" lon="6.03963">
        <ele>222</ele>
        <time>2020-08-16T07:22:36Z</time>
      </trkpt>
      <trkpt lat="48.63944" lon="6.03963">
        <ele>222</ele>
        <time>2020-08-16T07:22:38Z</time>
      </trkpt>
      <trkpt lat="48.63937" lon="6.03963">
        <ele>222</ele>
        <time>2020-08-16T07:22:40Z</time>
      </trkpt>
      <trkpt lat="48.63932" lon="6.03964">
        <ele>222</ele>
        <time>2020-08-16T07:22:41Z</time>
      </trkpt>
      <trkpt lat="48.63925" lon="6.03965">
        <ele>222</ele>
        <time>2020-08-16T07:22:42Z</time>
      </trkpt>
      <trkpt lat="48.63916" lon="6.03966">
        <ele>222</ele>
        <time>2020-08-16T07:22:44Z</time>
      </trkpt>
      <trkpt lat="48.63908" lon="6.03968">
        <ele>221</ele>
        <time>2020-08-16T07:22:46Z</time>
      </trkpt>
      <trkpt lat="48.63903" lon="6.03968">
        <ele>221</ele>
        <time>2020-08-16T07:22:47Z</time>
      </trkpt>
      <trkpt lat="48.63896" lon="6.03967">
        <ele>221</ele>
        <time>2020-08-16T07:22:49Z</time>
      </trkpt>
      <trkpt lat="48.63892" lon="6.03968">
        <ele>221</ele>
        <time>2020-08-16T07:22:50Z</time>
      </trkpt>
      <trkpt lat="48.63883" lon="6.03966">
        <ele>221</ele>
        <time>2020-08-16T07:22:52Z</time>
      </trkpt>
      <trkpt lat="48.63879" lon="6.0397">
        <ele>222</ele>
        <time>2020-08-16T07:22:53Z</time>
      </trkpt>
      <trkpt lat="48.6387" lon="6.0397">
        <ele>222</ele>
        <time>2020-08-16T07:22:55Z</time>
      </trkpt>
      <trkpt lat="48.63862" lon="6.03967">
        <ele>222</ele>
        <time>2020-08-16T07:22:57Z</time>
      </trkpt>
      <trkpt lat="48.63857" lon="6.03968">
        <ele>222</ele>
        <time>2020-08-16T07:22:58Z</time>
      </trkpt>
      <trkpt lat="48.63852" lon="6.03968">
        <ele>222</ele>
        <time>2020-08-16T07:22:59Z</time>
      </trkpt>
      <trkpt lat="48.63846" lon="6.03972">
        <ele>222</ele>
        <time>2020-08-16T07:23:00Z</time>
      </trkpt>
      <trkpt lat="48.63838" lon="6.03972">
        <ele>222</ele>
        <time>2020-08-16T07:23:02Z</time>
      </trkpt>
      <trkpt lat="48.6383" lon="6.03975">
        <ele>221</ele>
        <time>2020-08-16T07:23:04Z</time>
      </trkpt>
      <trkpt lat="48.63824" lon="6.03977">
        <ele>221</ele>
        <time>2020-08-16T07:23:05Z</time>
      </trkpt>
      <trkpt lat="48.63815" lon="6.03978">
        <ele>221</ele>
        <time>2020-08-16T07:23:06Z</time>
      </trkpt>
      <trkpt lat="48.63806" lon="6.03977">
        <ele>222</ele>
        <time>2020-08-16T07:23:08Z</time>
      </trkpt>
      <trkpt lat="48.63796" lon="6.03983">
        <ele>222</ele>
        <time>2020-08-16T07:23:10Z</time>
      </trkpt>
      <trkpt lat="48.63787" lon="6.03984">
        <ele>222</ele>
        <time>2020-08-16T07:23:12Z</time>
      </trkpt>
      <trkpt lat="48.63782" lon="6.03987">
        <ele>222</ele>
        <time>2020-08-16T07:23:13Z</time>
      </trkpt>
      <trkpt lat="48.63775" lon="6.03986">
        <ele>221</ele>
        <time>2020-08-16T07:23:14Z</time>
      </trkpt>
      <trkpt lat="48.63767" lon="6.03988">
        <ele>221</ele>
        <time>2020-08-16T07:23:15Z</time>
      </trkpt>
      <trkpt lat="48.63762" lon="6.0399">
        <ele>220</ele>
        <time>2020-08-16T07:23:16Z</time>
      </trkpt>
      <trkpt lat="48.63756" lon="6.03991">
        <ele>220</ele>
        <time>2020-08-16T07:23:17Z</time>
      </trkpt>
      <trkpt lat="48.63751" lon="6.03992">
        <ele>219</ele>
        <time>2020-08-16T07:23:18Z</time>
      </trkpt>
      <trkpt lat="48.63744" lon="6.03995">
        <ele>219</ele>
        <time>2020-08-16T07:23:19Z</time>
      </trkpt>
      <trkpt lat="48.63738" lon="6.03997">
        <ele>218</ele>
        <time>2020-08-16T07:23:20Z</time>
      </trkpt>
      <trkpt lat="48.63732" lon="6.03998">
        <ele>218</ele>
        <time>2020-08-16T07:23:21Z</time>
      </trkpt>
      <trkpt lat="48.63725" lon="6.04">
        <ele>218</ele>
        <time>2020-08-16T07:23:22Z</time>
      </trkpt>
      <trkpt lat="48.6372" lon="6.04002">
        <ele>218</ele>
        <time>2020-08-16T07:23:23Z</time>
      </trkpt>
      <trkpt lat="48.6371" lon="6.04007">
        <ele>220</ele>
        <time>2020-08-16T07:23:25Z</time>
      </trkpt>
      <trkpt lat="48.63705" lon="6.04008">
        <ele>220</ele>
        <time>2020-08-16T07:23:26Z</time>
      </trkpt>
      <trkpt lat="48.637" lon="6.0401">
        <ele>220</ele>
        <time>2020-08-16T07:23:27Z</time>
      </trkpt>
      <trkpt lat="48.63692" lon="6.04016">
        <ele>220</ele>
        <time>2020-08-16T07:23:29Z</time>
      </trkpt>
      <trkpt lat="48.63688" lon="6.0402">
        <ele>220</ele>
        <time>2020-08-16T07:23:30Z</time>
      </trkpt>
      <trkpt lat="48.63683" lon="6.04023">
        <ele>220</ele>
        <time>2020-08-16T07:23:31Z</time>
      </trkpt>
      <trkpt lat="48.63678" lon="6.04028">
        <ele>220</ele>
        <time>2020-08-16T07:23:32Z</time>
      </trkpt>
      <trkpt lat="48.63674" lon="6.04032">
        <ele>220</ele>
        <time>2020-08-16T07:23:33Z</time>
      </trkpt>
      <trkpt lat="48.63669" lon="6.04035">
        <ele>220</ele>
        <time>2020-08-16T07:23:34Z</time>
      </trkpt>
      <trkpt lat="48.63658" lon="6.04043">
        <ele>220</ele>
        <time>2020-08-16T07:23:36Z</time>
      </trkpt>
      <trkpt lat="48.63653" lon="6.04047">
        <ele>220</ele>
        <time>2020-08-16T07:23:37Z</time>
      </trkpt>
      <trkpt lat="48.63648" lon="6.04051">
        <ele>220</ele>
        <time>2020-08-16T07:23:38Z</time>
      </trkpt>
      <trkpt lat="48.63644" lon="6.04056">
        <ele>220</ele>
        <time>2020-08-16T07:23:39Z</time>
      </trkpt>
      <trkpt lat="48.63639" lon="6.04062">
        <ele>219</ele>
        <time>2020-08-16T07:23:40Z</time>
      </trkpt>
      <trkpt lat="48.63634" lon="6.04067">
        <ele>218</ele>
        <time>2020-08-16T07:23:41Z</time>
      </trkpt>
      <trkpt lat="48.63629" lon="6.04076">
        <ele>219</ele>
        <time>2020-08-16T07:23:43Z</time>
      </trkpt>
      <trkpt lat="48.63624" lon="6.04083">
        <ele>220</ele>
        <time>2020-08-16T07:23:45Z</time>
      </trkpt>
      <trkpt lat="48.63619" lon="6.04088">
        <ele>220</ele>
        <time>2020-08-16T07:23:46Z</time>
      </trkpt>
      <trkpt lat="48.63614" lon="6.04092">
        <ele>220</ele>
        <time>2020-08-16T07:23:47Z</time>
      </trkpt>
      <trkpt lat="48.63608" lon="6.04096">
        <ele>220</ele>
        <time>2020-08-16T07:23:49Z</time>
      </trkpt>
      <trkpt lat="48.636" lon="6.04105">
        <ele>220</ele>
        <time>2020-08-16T07:23:51Z</time>
      </trkpt>
      <trkpt lat="48.6359" lon="6.04114">
        <ele>219</ele>
        <time>2020-08-16T07:23:53Z</time>
      </trkpt>
      <trkpt lat="48.63585" lon="6.04116">
        <ele>219</ele>
        <time>2020-08-16T07:23:54Z</time>
      </trkpt>
      <trkpt lat="48.6358" lon="6.04121">
        <ele>220</ele>
        <time>2020-08-16T07:23:57Z</time>
      </trkpt>
      <trkpt lat="48.63574" lon="6.04126">
        <ele>220</ele>
        <time>2020-08-16T07:23:59Z</time>
      </trkpt>
      <trkpt lat="48.6357" lon="6.04131">
        <ele>220</ele>
        <time>2020-08-16T07:24:00Z</time>
      </trkpt>
      <trkpt lat="48.63565" lon="6.04138">
        <ele>220</ele>
        <time>2020-08-16T07:24:02Z</time>
      </trkpt>
      <trkpt lat="48.6356" lon="6.04143">
        <ele>219</ele>
        <time>2020-08-16T07:24:03Z</time>
      </trkpt>
      <trkpt lat="48.63554" lon="6.04152">
        <ele>219</ele>
        <time>2020-08-16T07:24:05Z</time>
      </trkpt>
      <trkpt lat="48.63548" lon="6.04157">
        <ele>219</ele>
        <time>2020-08-16T07:24:07Z</time>
      </trkpt>
      <trkpt lat="48.63543" lon="6.04158">
        <ele>218</ele>
        <time>2020-08-16T07:24:09Z</time>
      </trkpt>
      <trkpt lat="48.63536" lon="6.04155">
        <ele>218</ele>
        <time>2020-08-16T07:24:11Z</time>
      </trkpt>
      <trkpt lat="48.63528" lon="6.04149">
        <ele>216</ele>
        <time>2020-08-16T07:24:13Z</time>
      </trkpt>
      <trkpt lat="48.63523" lon="6.04141">
        <ele>215</ele>
        <time>2020-08-16T07:24:15Z</time>
      </trkpt>
      <trkpt lat="48.63519" lon="6.04132">
        <ele>215</ele>
        <time>2020-08-16T07:24:17Z</time>
      </trkpt>
      <trkpt lat="48.63512" lon="6.04125">
        <ele>215</ele>
        <time>2020-08-16T07:24:19Z</time>
      </trkpt>
      <trkpt lat="48.63508" lon="6.04115">
        <ele>215</ele>
        <time>2020-08-16T07:24:21Z</time>
      </trkpt>
      <trkpt lat="48.63504" lon="6.04107">
        <ele>216</ele>
        <time>2020-08-16T07:24:23Z</time>
      </trkpt>
      <trkpt lat="48.635" lon="6.04099">
        <ele>217</ele>
        <time>2020-08-16T07:24:25Z</time>
      </trkpt>
      <trkpt lat="48.63495" lon="6.04091">
        <ele>217</ele>
        <time>2020-08-16T07:24:27Z</time>
      </trkpt>
      <trkpt lat="48.63494" lon="6.04079">
        <ele>218</ele>
        <time>2020-08-16T07:24:29Z</time>
      </trkpt>
      <trkpt lat="48.63494" lon="6.0407">
        <ele>218</ele>
        <time>2020-08-16T07:24:31Z</time>
      </trkpt>
      <trkpt lat="48.63493" lon="6.04059">
        <ele>217</ele>
        <time>2020-08-16T07:24:33Z</time>
      </trkpt>
      <trkpt lat="48.63493" lon="6.04052">
        <ele>217</ele>
        <time>2020-08-16T07:24:34Z</time>
      </trkpt>
      <trkpt lat="48.6349" lon="6.04041">
        <ele>217</ele>
        <time>2020-08-16T07:24:36Z</time>
      </trkpt>
      <trkpt lat="48.63489" lon="6.04033">
        <ele>218</ele>
        <time>2020-08-16T07:24:38Z</time>
      </trkpt>
      <trkpt lat="48.63487" lon="6.04024">
        <ele>218</ele>
        <time>2020-08-16T07:24:40Z</time>
      </trkpt>
      <trkpt lat="48.63482" lon="6.04018">
        <ele>219</ele>
        <time>2020-08-16T07:24:43Z</time>
      </trkpt>
      <trkpt lat="48.63476" lon="6.0402">
        <ele>219</ele>
        <time>2020-08-16T07:24:45Z</time>
      </trkpt>
      <trkpt lat="48.63471" lon="6.04018">
        <ele>219</ele>
        <time>2020-08-16T07:24:47Z</time>
      </trkpt>
      <trkpt lat="48.63464" lon="6.04019">
        <ele>219</ele>
        <time>2020-08-16T07:24:50Z</time>
      </trkpt>
      <trkpt lat="48.63458" lon="6.04019">
        <ele>219</ele>
        <time>2020-08-16T07:24:53Z</time>
      </trkpt>
      <trkpt lat="48.63453" lon="6.0402">
        <ele>220</ele>
        <time>2020-08-16T07:24:55Z</time>
      </trkpt>
      <trkpt lat="48.63447" lon="6.04021">
        <ele>220</ele>
        <time>2020-08-16T07:24:58Z</time>
      </trkpt>
      <trkpt lat="48.63442" lon="6.04022">
        <ele>220</ele>
        <time>2020-08-16T07:25:00Z</time>
      </trkpt>
      <trkpt lat="48.63437" lon="6.04022">
        <ele>220</ele>
        <time>2020-08-16T07:25:02Z</time>
      </trkpt>
      <trkpt lat="48.63432" lon="6.04022">
        <ele>221</ele>
        <time>2020-08-16T07:25:04Z</time>
      </trkpt>
      <trkpt lat="48.63428" lon="6.04024">
        <ele>221</ele>
        <time>2020-08-16T07:25:06Z</time>
      </trkpt>
      <trkpt lat="48.63424" lon="6.04027">
        <ele>221</ele>
        <time>2020-08-16T07:25:08Z</time>
      </trkpt>
      <trkpt lat="48.63417" lon="6.0403">
        <ele>221</ele>
        <time>2020-08-16T07:25:11Z</time>
      </trkpt>
      <trkpt lat="48.63413" lon="6.04032">
        <ele>222</ele>
        <time>2020-08-16T07:25:13Z</time>
      </trkpt>
      <trkpt lat="48.63408" lon="6.04033">
        <ele>222</ele>
        <time>2020-08-16T07:25:15Z</time>
      </trkpt>
      <trkpt lat="48.63402" lon="6.04034">
        <ele>223</ele>
        <time>2020-08-16T07:25:17Z</time>
      </trkpt>
      <trkpt lat="48.63397" lon="6.04036">
        <ele>223</ele>
        <time>2020-08-16T07:25:19Z</time>
      </trkpt>
      <trkpt lat="48.63392" lon="6.04038">
        <ele>223</ele>
        <time>2020-08-16T07:25:21Z</time>
      </trkpt>
      <trkpt lat="48.63385" lon="6.0404">
        <ele>223</ele>
        <time>2020-08-16T07:25:23Z</time>
      </trkpt>
      <trkpt lat="48.63378" lon="6.04043">
        <ele>223</ele>
        <time>2020-08-16T07:25:25Z</time>
      </trkpt>
      <trkpt lat="48.63371" lon="6.04044">
        <ele>223</ele>
        <time>2020-08-16T07:25:27Z</time>
      </trkpt>
      <trkpt lat="48.63363" lon="6.04045">
        <ele>223</ele>
        <time>2020-08-16T07:25:29Z</time>
      </trkpt>
      <trkpt lat="48.63355" lon="6.04048">
        <ele>223</ele>
        <time>2020-08-16T07:25:31Z</time>
      </trkpt>
      <trkpt lat="48.63348" lon="6.0405">
        <ele>222</ele>
        <time>2020-08-16T07:25:33Z</time>
      </trkpt>
      <trkpt lat="48.63339" lon="6.04052">
        <ele>223</ele>
        <time>2020-08-16T07:25:35Z</time>
      </trkpt>
      <trkpt lat="48.6333" lon="6.04055">
        <ele>223</ele>
        <time>2020-08-16T07:25:37Z</time>
      </trkpt>
      <trkpt lat="48.63322" lon="6.04058">
        <ele>223</ele>
        <time>2020-08-16T07:25:39Z</time>
      </trkpt>
      <trkpt lat="48.63315" lon="6.04062">
        <ele>223</ele>
        <time>2020-08-16T07:25:41Z</time>
      </trkpt>
      <trkpt lat="48.63308" lon="6.04065">
        <ele>224</ele>
        <time>2020-08-16T07:25:43Z</time>
      </trkpt>
      <trkpt lat="48.63302" lon="6.04066">
        <ele>224</ele>
        <time>2020-08-16T07:25:45Z</time>
      </trkpt>
      <trkpt lat="48.63297" lon="6.04069">
        <ele>224</ele>
        <time>2020-08-16T07:25:47Z</time>
      </trkpt>
      <trkpt lat="48.63291" lon="6.04071">
        <ele>224</ele>
        <time>2020-08-16T07:25:50Z</time>
      </trkpt>
      <trkpt lat="48.63286" lon="6.04073">
        <ele>224</ele>
        <time>2020-08-16T07:25:52Z</time>
      </trkpt>
      <trkpt lat="48.63281" lon="6.04077">
        <ele>224</ele>
        <time>2020-08-16T07:25:55Z</time>
      </trkpt>
      <trkpt lat="48.63281" lon="6.04084">
        <ele>223</ele>
        <time>2020-08-16T07:26:01Z</time>
      </trkpt>
      <trkpt lat="48.63285" lon="6.04089">
        <ele>222</ele>
        <time>2020-08-16T07:26:03Z</time>
      </trkpt>
      <trkpt lat="48.6329" lon="6.04089">
        <ele>222</ele>
        <time>2020-08-16T07:26:04Z</time>
      </trkpt>
      <trkpt lat="48.63295" lon="6.0409">
        <ele>221</ele>
        <time>2020-08-16T07:26:05Z</time>
      </trkpt>
      <trkpt lat="48.63305" lon="6.04095">
        <ele>220</ele>
        <time>2020-08-16T07:26:07Z</time>
      </trkpt>
      <trkpt lat="48.63314" lon="6.04098">
        <ele>219</ele>
        <time>2020-08-16T07:26:09Z</time>
      </trkpt>
      <trkpt lat="48.63319" lon="6.04099">
        <ele>219</ele>
        <time>2020-08-16T07:26:10Z</time>
      </trkpt>
      <trkpt lat="48.63325" lon="6.041">
        <ele>218</ele>
        <time>2020-08-16T07:26:11Z</time>
      </trkpt>
      <trkpt lat="48.63331" lon="6.04104">
        <ele>218</ele>
        <time>2020-08-16T07:26:12Z</time>
      </trkpt>
      <trkpt lat="48.63337" lon="6.04107">
        <ele>218</ele>
        <time>2020-08-16T07:26:13Z</time>
      </trkpt>
      <trkpt lat="48.63341" lon="6.0411">
        <ele>218</ele>
        <time>2020-08-16T07:26:14Z</time>
      </trkpt>
      <trkpt lat="48.63347" lon="6.04113">
        <ele>218</ele>
        <time>2020-08-16T07:26:15Z</time>
      </trkpt>
      <trkpt lat="48.63353" lon="6.04116">
        <ele>217</ele>
        <time>2020-08-16T07:26:16Z</time>
      </trkpt>
      <trkpt lat="48.6336" lon="6.04124">
        <ele>217</ele>
        <time>2020-08-16T07:26:18Z</time>
      </trkpt>
      <trkpt lat="48.63365" lon="6.04133">
        <ele>218</ele>
        <time>2020-08-16T07:26:20Z</time>
      </trkpt>
      <trkpt lat="48.63369" lon="6.04143">
        <ele>217</ele>
        <time>2020-08-16T07:26:22Z</time>
      </trkpt>
      <trkpt lat="48.63372" lon="6.04155">
        <ele>217</ele>
        <time>2020-08-16T07:26:24Z</time>
      </trkpt>
      <trkpt lat="48.63375" lon="6.04166">
        <ele>217</ele>
        <time>2020-08-16T07:26:26Z</time>
      </trkpt>
      <trkpt lat="48.63379" lon="6.04176">
        <ele>217</ele>
        <time>2020-08-16T07:26:28Z</time>
      </trkpt>
      <trkpt lat="48.63382" lon="6.04186">
        <ele>217</ele>
        <time>2020-08-16T07:26:30Z</time>
      </trkpt>
      <trkpt lat="48.63385" lon="6.04195">
        <ele>217</ele>
        <time>2020-08-16T07:26:32Z</time>
      </trkpt>
      <trkpt lat="48.63389" lon="6.04204">
        <ele>217</ele>
        <time>2020-08-16T07:26:34Z</time>
      </trkpt>
      <trkpt lat="48.63393" lon="6.04211">
        <ele>217</ele>
        <time>2020-08-16T07:26:36Z</time>
      </trkpt>
      <trkpt lat="48.63397" lon="6.04217">
        <ele>217</ele>
        <time>2020-08-16T07:26:38Z</time>
      </trkpt>
      <trkpt lat="48.63398" lon="6.04225">
        <ele>217</ele>
        <time>2020-08-16T07:26:40Z</time>
      </trkpt>
      <trkpt lat="48.63399" lon="6.04234">
        <ele>217</ele>
        <time>2020-08-16T07:26:42Z</time>
      </trkpt>
      <trkpt lat="48.634" lon="6.04244">
        <ele>216</ele>
        <time>2020-08-16T07:26:44Z</time>
      </trkpt>
      <trkpt lat="48.63403" lon="6.04254">
        <ele>215</ele>
        <time>2020-08-16T07:26:46Z</time>
      </trkpt>
      <trkpt lat="48.63406" lon="6.04264">
        <ele>215</ele>
        <time>2020-08-16T07:26:48Z</time>
      </trkpt>
      <trkpt lat="48.63409" lon="6.04273">
        <ele>216</ele>
        <time>2020-08-16T07:26:50Z</time>
      </trkpt>
      <trkpt lat="48.63411" lon="6.04282">
        <ele>215</ele>
        <time>2020-08-16T07:26:52Z</time>
      </trkpt>
      <trkpt lat="48.63411" lon="6.0429">
        <ele>215</ele>
        <time>2020-08-16T07:26:54Z</time>
      </trkpt>
      <trkpt lat="48.63413" lon="6.04298">
        <ele>215</ele>
        <time>2020-08-16T07:26:56Z</time>
      </trkpt>
      <trkpt lat="48.63411" lon="6.04305">
        <ele>216</ele>
        <time>2020-08-16T07:26:59Z</time>
      </trkpt>
      <trkpt lat="48.63408" lon="6.04311">
        <ele>216</ele>
        <time>2020-08-16T07:27:03Z</time>
      </trkpt>
      <trkpt lat="48.63404" lon="6.04319">
        <ele>217</ele>
        <time>2020-08-16T07:27:06Z</time>
      </trkpt>
      <trkpt lat="48.634" lon="6.04326">
        <ele>217</ele>
        <time>2020-08-16T07:27:08Z</time>
      </trkpt>
      <trkpt lat="48.63397" lon="6.04332">
        <ele>217</ele>
        <time>2020-08-16T07:27:10Z</time>
      </trkpt>
      <trkpt lat="48.63393" lon="6.04336">
        <ele>216</ele>
        <time>2020-08-16T07:27:12Z</time>
      </trkpt>
      <trkpt lat="48.63389" lon="6.04342">
        <ele>216</ele>
        <time>2020-08-16T07:27:14Z</time>
      </trkpt>
      <trkpt lat="48.63383" lon="6.0435">
        <ele>216</ele>
        <time>2020-08-16T07:27:16Z</time>
      </trkpt>
      <trkpt lat="48.63378" lon="6.04356">
        <ele>215</ele>
        <time>2020-08-16T07:27:18Z</time>
      </trkpt>
      <trkpt lat="48.63372" lon="6.04362">
        <ele>215</ele>
        <time>2020-08-16T07:27:20Z</time>
      </trkpt>
      <trkpt lat="48.63366" lon="6.04369">
        <ele>215</ele>
        <time>2020-08-16T07:27:22Z</time>
      </trkpt>
      <trkpt lat="48.6336" lon="6.04376">
        <ele>214</ele>
        <time>2020-08-16T07:27:24Z</time>
      </trkpt>
      <trkpt lat="48.63354" lon="6.04383">
        <ele>214</ele>
        <time>2020-08-16T07:27:26Z</time>
      </trkpt>
      <trkpt lat="48.63348" lon="6.04388">
        <ele>214</ele>
        <time>2020-08-16T07:27:28Z</time>
      </trkpt>
      <trkpt lat="48.63343" lon="6.04395">
        <ele>213</ele>
        <time>2020-08-16T07:27:30Z</time>
      </trkpt>
      <trkpt lat="48.63337" lon="6.04402">
        <ele>213</ele>
        <time>2020-08-16T07:27:32Z</time>
      </trkpt>
      <trkpt lat="48.63332" lon="6.04405">
        <ele>214</ele>
        <time>2020-08-16T07:27:34Z</time>
      </trkpt>
      <trkpt lat="48.63326" lon="6.04411">
        <ele>213</ele>
        <time>2020-08-16T07:27:36Z</time>
      </trkpt>
      <trkpt lat="48.63323" lon="6.04416">
        <ele>213</ele>
        <time>2020-08-16T07:27:38Z</time>
      </trkpt>
      <trkpt lat="48.63319" lon="6.04421">
        <ele>213</ele>
        <time>2020-08-16T07:27:41Z</time>
      </trkpt>
      <trkpt lat="48.63314" lon="6.04426">
        <ele>213</ele>
        <time>2020-08-16T07:27:43Z</time>
      </trkpt>
      <trkpt lat="48.63309" lon="6.04431">
        <ele>213</ele>
        <time>2020-08-16T07:27:45Z</time>
      </trkpt>
      <trkpt lat="48.63303" lon="6.04437">
        <ele>213</ele>
        <time>2020-08-16T07:27:47Z</time>
      </trkpt>
      <trkpt lat="48.63297" lon="6.04441">
        <ele>213</ele>
        <time>2020-08-16T07:27:49Z</time>
      </trkpt>
      <trkpt lat="48.63291" lon="6.04446">
        <ele>213</ele>
        <time>2020-08-16T07:27:51Z</time>
      </trkpt>
      <trkpt lat="48.63285" lon="6.04452">
        <ele>213</ele>
        <time>2020-08-16T07:27:53Z</time>
      </trkpt>
      <trkpt lat="48.63279" lon="6.04458">
        <ele>213</ele>
        <time>2020-08-16T07:27:55Z</time>
      </trkpt>
      <trkpt lat="48.63273" lon="6.04465">
        <ele>213</ele>
        <time>2020-08-16T07:27:57Z</time>
      </trkpt>
      <trkpt lat="48.63266" lon="6.0447">
        <ele>213</ele>
        <time>2020-08-16T07:27:59Z</time>
      </trkpt>
      <trkpt lat="48.6326" lon="6.04477">
        <ele>213</ele>
        <time>2020-08-16T07:28:01Z</time>
      </trkpt>
      <trkpt lat="48.63253" lon="6.04482">
        <ele>213</ele>
        <time>2020-08-16T07:28:03Z</time>
      </trkpt>
      <trkpt lat="48.63246" lon="6.04485">
        <ele>213</ele>
        <time>2020-08-16T07:28:05Z</time>
      </trkpt>
      <trkpt lat="48.6324" lon="6.04485">
        <ele>214</ele>
        <time>2020-08-16T07:28:07Z</time>
      </trkpt>
      <trkpt lat="48.63233" lon="6.04484">
        <ele>215</ele>
        <time>2020-08-16T07:28:09Z</time>
      </trkpt>
      <trkpt lat="48.63228" lon="6.04488">
        <ele>216</ele>
        <time>2020-08-16T07:28:11Z</time>
      </trkpt>
      <trkpt lat="48.63223" lon="6.04494">
        <ele>215</ele>
        <time>2020-08-16T07:28:13Z</time>
      </trkpt>
      <trkpt lat="48.63217" lon="6.04496">
        <ele>216</ele>
        <time>2020-08-16T07:28:15Z</time>
      </trkpt>
      <trkpt lat="48.6321" lon="6.04496">
        <ele>217</ele>
        <time>2020-08-16T07:28:17Z</time>
      </trkpt>
      <trkpt lat="48.63203" lon="6.04497">
        <ele>216</ele>
        <time>2020-08-16T07:28:19Z</time>
      </trkpt>
      <trkpt lat="48.63196" lon="6.04501">
        <ele>216</ele>
        <time>2020-08-16T07:28:21Z</time>
      </trkpt>
      <trkpt lat="48.6319" lon="6.04504">
        <ele>215</ele>
        <time>2020-08-16T07:28:23Z</time>
      </trkpt>
      <trkpt lat="48.63184" lon="6.04507">
        <ele>215</ele>
        <time>2020-08-16T07:28:25Z</time>
      </trkpt>
      <trkpt lat="48.63179" lon="6.04512">
        <ele>215</ele>
        <time>2020-08-16T07:28:27Z</time>
      </trkpt>
      <trkpt lat="48.63173" lon="6.04513">
        <ele>215</ele>
        <time>2020-08-16T07:28:29Z</time>
      </trkpt>
      <trkpt lat="48.63166" lon="6.04514">
        <ele>215</ele>
        <time>2020-08-16T07:28:31Z</time>
      </trkpt>
      <trkpt lat="48.6316" lon="6.04515">
        <ele>215</ele>
        <time>2020-08-16T07:28:33Z</time>
      </trkpt>
      <trkpt lat="48.63154" lon="6.04517">
        <ele>215</ele>
        <time>2020-08-16T07:28:35Z</time>
      </trkpt>
      <trkpt lat="48.63147" lon="6.04518">
        <ele>215</ele>
        <time>2020-08-16T07:28:37Z</time>
      </trkpt>
      <trkpt lat="48.63139" lon="6.04519">
        <ele>215</ele>
        <time>2020-08-16T07:28:39Z</time>
      </trkpt>
      <trkpt lat="48.63131" lon="6.0452">
        <ele>215</ele>
        <time>2020-08-16T07:28:41Z</time>
      </trkpt>
      <trkpt lat="48.63123" lon="6.0452">
        <ele>215</ele>
        <time>2020-08-16T07:28:43Z</time>
      </trkpt>
      <trkpt lat="48.63116" lon="6.0452">
        <ele>215</ele>
        <time>2020-08-16T07:28:45Z</time>
      </trkpt>
      <trkpt lat="48.63108" lon="6.0452">
        <ele>215</ele>
        <time>2020-08-16T07:28:47Z</time>
      </trkpt>
      <trkpt lat="48.63101" lon="6.04521">
        <ele>215</ele>
        <time>2020-08-16T07:28:49Z</time>
      </trkpt>
      <trkpt lat="48.63096" lon="6.04523">
        <ele>215</ele>
        <time>2020-08-16T07:28:50Z</time>
      </trkpt>
      <trkpt lat="48.63088" lon="6.04525">
        <ele>215</ele>
        <time>2020-08-16T07:28:52Z</time>
      </trkpt>
      <trkpt lat="48.63081" lon="6.04524">
        <ele>215</ele>
        <time>2020-08-16T07:28:54Z</time>
      </trkpt>
      <trkpt lat="48.63073" lon="6.04527">
        <ele>215</ele>
        <time>2020-08-16T07:28:56Z</time>
      </trkpt>
      <trkpt lat="48.63067" lon="6.04529">
        <ele>215</ele>
        <time>2020-08-16T07:28:58Z</time>
      </trkpt>
      <trkpt lat="48.63059" lon="6.04531">
        <ele>215</ele>
        <time>2020-08-16T07:29:00Z</time>
      </trkpt>
      <trkpt lat="48.63053" lon="6.04532">
        <ele>215</ele>
        <time>2020-08-16T07:29:02Z</time>
      </trkpt>
      <trkpt lat="48.63048" lon="6.04536">
        <ele>216</ele>
        <time>2020-08-16T07:29:04Z</time>
      </trkpt>
      <trkpt lat="48.63043" lon="6.04537">
        <ele>216</ele>
        <time>2020-08-16T07:29:06Z</time>
      </trkpt>
      <trkpt lat="48.63036" lon="6.04537">
        <ele>217</ele>
        <time>2020-08-16T07:29:10Z</time>
      </trkpt>
      <trkpt lat="48.63031" lon="6.04538">
        <ele>217</ele>
        <time>2020-08-16T07:29:12Z</time>
      </trkpt>
      <trkpt lat="48.63026" lon="6.04538">
        <ele>218</ele>
        <time>2020-08-16T07:29:14Z</time>
      </trkpt>
      <trkpt lat="48.63022" lon="6.04538">
        <ele>218</ele>
        <time>2020-08-16T07:29:16Z</time>
      </trkpt>
      <trkpt lat="48.63015" lon="6.04535">
        <ele>218</ele>
        <time>2020-08-16T07:29:18Z</time>
      </trkpt>
      <trkpt lat="48.63009" lon="6.04534">
        <ele>218</ele>
        <time>2020-08-16T07:29:20Z</time>
      </trkpt>
      <trkpt lat="48.63003" lon="6.04534">
        <ele>218</ele>
        <time>2020-08-16T07:29:22Z</time>
      </trkpt>
      <trkpt lat="48.62997" lon="6.04535">
        <ele>219</ele>
        <time>2020-08-16T07:29:24Z</time>
      </trkpt>
      <trkpt lat="48.62993" lon="6.04537">
        <ele>219</ele>
        <time>2020-08-16T07:29:26Z</time>
      </trkpt>
      <trkpt lat="48.62988" lon="6.0454">
        <ele>219</ele>
        <time>2020-08-16T07:29:28Z</time>
      </trkpt>
      <trkpt lat="48.62981" lon="6.04539">
        <ele>219</ele>
        <time>2020-08-16T07:29:30Z</time>
      </trkpt>
      <trkpt lat="48.62975" lon="6.04538">
        <ele>219</ele>
        <time>2020-08-16T07:29:32Z</time>
      </trkpt>
      <trkpt lat="48.6297" lon="6.04539">
        <ele>220</ele>
        <time>2020-08-16T07:29:34Z</time>
      </trkpt>
      <trkpt lat="48.62965" lon="6.04538">
        <ele>220</ele>
        <time>2020-08-16T07:29:36Z</time>
      </trkpt>
      <trkpt lat="48.62959" lon="6.04539">
        <ele>220</ele>
        <time>2020-08-16T07:29:38Z</time>
      </trkpt>
      <trkpt lat="48.62953" lon="6.04539">
        <ele>220</ele>
        <time>2020-08-16T07:29:40Z</time>
      </trkpt>
      <trkpt lat="48.62947" lon="6.04539">
        <ele>220</ele>
        <time>2020-08-16T07:29:42Z</time>
      </trkpt>
      <trkpt lat="48.62941" lon="6.04538">
        <ele>220</ele>
        <time>2020-08-16T07:29:44Z</time>
      </trkpt>
      <trkpt lat="48.62934" lon="6.04539">
        <ele>220</ele>
        <time>2020-08-16T07:29:46Z</time>
      </trkpt>
      <trkpt lat="48.62927" lon="6.0454">
        <ele>220</ele>
        <time>2020-08-16T07:29:48Z</time>
      </trkpt>
      <trkpt lat="48.62922" lon="6.04542">
        <ele>220</ele>
        <time>2020-08-16T07:29:50Z</time>
      </trkpt>
      <trkpt lat="48.62917" lon="6.04544">
        <ele>220</ele>
        <time>2020-08-16T07:29:52Z</time>
      </trkpt>
      <trkpt lat="48.62912" lon="6.04547">
        <ele>221</ele>
        <time>2020-08-16T07:29:54Z</time>
      </trkpt>
      <trkpt lat="48.62907" lon="6.04548">
        <ele>221</ele>
        <time>2020-08-16T07:29:56Z</time>
      </trkpt>
      <trkpt lat="48.62903" lon="6.0455">
        <ele>221</ele>
        <time>2020-08-16T07:29:58Z</time>
      </trkpt>
      <trkpt lat="48.62898" lon="6.04552">
        <ele>221</ele>
        <time>2020-08-16T07:30:00Z</time>
      </trkpt>
      <trkpt lat="48.62892" lon="6.04554">
        <ele>221</ele>
        <time>2020-08-16T07:30:02Z</time>
      </trkpt>
      <trkpt lat="48.62886" lon="6.04558">
        <ele>221</ele>
        <time>2020-08-16T07:30:04Z</time>
      </trkpt>
      <trkpt lat="48.6288" lon="6.04562">
        <ele>221</ele>
        <time>2020-08-16T07:30:06Z</time>
      </trkpt>
      <trkpt lat="48.62874" lon="6.04566">
        <ele>221</ele>
        <time>2020-08-16T07:30:08Z</time>
      </trkpt>
      <trkpt lat="48.62869" lon="6.04567">
        <ele>221</ele>
        <time>2020-08-16T07:30:10Z</time>
      </trkpt>
      <trkpt lat="48.62862" lon="6.04568">
        <ele>221</ele>
        <time>2020-08-16T07:30:12Z</time>
      </trkpt>
      <trkpt lat="48.62855" lon="6.04573">
        <ele>221</ele>
        <time>2020-08-16T07:30:14Z</time>
      </trkpt>
      <trkpt lat="48.6285" lon="6.04575">
        <ele>221</ele>
        <time>2020-08-16T07:30:16Z</time>
      </trkpt>
      <trkpt lat="48.62845" lon="6.04578">
        <ele>221</ele>
        <time>2020-08-16T07:30:18Z</time>
      </trkpt>
      <trkpt lat="48.62841" lon="6.0458">
        <ele>220</ele>
        <time>2020-08-16T07:30:20Z</time>
      </trkpt>
      <trkpt lat="48.62836" lon="6.04584">
        <ele>220</ele>
        <time>2020-08-16T07:30:22Z</time>
      </trkpt>
      <trkpt lat="48.6283" lon="6.0459">
        <ele>220</ele>
        <time>2020-08-16T07:30:24Z</time>
      </trkpt>
      <trkpt lat="48.62827" lon="6.04595">
        <ele>220</ele>
        <time>2020-08-16T07:30:26Z</time>
      </trkpt>
      <trkpt lat="48.62828" lon="6.04603">
        <ele>221</ele>
        <time>2020-08-16T07:30:29Z</time>
      </trkpt>
      <trkpt lat="48.62827" lon="6.04612">
        <ele>221</ele>
        <time>2020-08-16T07:30:32Z</time>
      </trkpt>
      <trkpt lat="48.62824" lon="6.04618">
        <ele>220</ele>
        <time>2020-08-16T07:30:43Z</time>
      </trkpt>
      <trkpt lat="48.6282" lon="6.04623">
        <ele>218</ele>
        <time>2020-08-16T07:30:50Z</time>
      </trkpt>
      <trkpt lat="48.62816" lon="6.04625">
        <ele>218</ele>
        <time>2020-08-16T07:31:03Z</time>
      </trkpt>
      <trkpt lat="48.62811" lon="6.04624">
        <ele>218</ele>
        <time>2020-08-16T07:31:10Z</time>
      </trkpt>
      <trkpt lat="48.62806" lon="6.04627">
        <ele>218</ele>
        <time>2020-08-16T07:31:13Z</time>
      </trkpt>
      <trkpt lat="48.62801" lon="6.04628">
        <ele>218</ele>
        <time>2020-08-16T07:31:15Z</time>
      </trkpt>
      <trkpt lat="48.62796" lon="6.0463">
        <ele>218</ele>
        <time>2020-08-16T07:31:17Z</time>
      </trkpt>
      <trkpt lat="48.62791" lon="6.04633">
        <ele>218</ele>
        <time>2020-08-16T07:31:19Z</time>
      </trkpt>
      <trkpt lat="48.62786" lon="6.04636">
        <ele>218</ele>
        <time>2020-08-16T07:31:21Z</time>
      </trkpt>
      <trkpt lat="48.62781" lon="6.04638">
        <ele>218</ele>
        <time>2020-08-16T07:31:23Z</time>
      </trkpt>
      <trkpt lat="48.62776" lon="6.0464">
        <ele>218</ele>
        <time>2020-08-16T07:31:25Z</time>
      </trkpt>
      <trkpt lat="48.62771" lon="6.04641">
        <ele>218</ele>
        <time>2020-08-16T07:31:27Z</time>
      </trkpt>
      <trkpt lat="48.62766" lon="6.04643">
        <ele>219</ele>
        <time>2020-08-16T07:31:29Z</time>
      </trkpt>
      <trkpt lat="48.62761" lon="6.04646">
        <ele>219</ele>
        <time>2020-08-16T07:31:31Z</time>
      </trkpt>
      <trkpt lat="48.62756" lon="6.04648">
        <ele>220</ele>
        <time>2020-08-16T07:31:33Z</time>
      </trkpt>
      <trkpt lat="48.62749" lon="6.04648">
        <ele>221</ele>
        <time>2020-08-16T07:31:35Z</time>
      </trkpt>
      <trkpt lat="48.62744" lon="6.0465">
        <ele>221</ele>
        <time>2020-08-16T07:31:37Z</time>
      </trkpt>
      <trkpt lat="48.62737" lon="6.04653">
        <ele>221</ele>
        <time>2020-08-16T07:31:39Z</time>
      </trkpt>
      <trkpt lat="48.62731" lon="6.04655">
        <ele>221</ele>
        <time>2020-08-16T07:31:41Z</time>
      </trkpt>
      <trkpt lat="48.62725" lon="6.04656">
        <ele>220</ele>
        <time>2020-08-16T07:31:43Z</time>
      </trkpt>
      <trkpt lat="48.6272" lon="6.04659">
        <ele>220</ele>
        <time>2020-08-16T07:31:45Z</time>
      </trkpt>
      <trkpt lat="48.62716" lon="6.04661">
        <ele>220</ele>
        <time>2020-08-16T07:31:47Z</time>
      </trkpt>
      <trkpt lat="48.62711" lon="6.04663">
        <ele>220</ele>
        <time>2020-08-16T07:31:49Z</time>
      </trkpt>
      <trkpt lat="48.62706" lon="6.04666">
        <ele>220</ele>
        <time>2020-08-16T07:31:51Z</time>
      </trkpt>
      <trkpt lat="48.62701" lon="6.04667">
        <ele>220</ele>
        <time>2020-08-16T07:31:53Z</time>
      </trkpt>
      <trkpt lat="48.62695" lon="6.04668">
        <ele>220</ele>
        <time>2020-08-16T07:31:55Z</time>
      </trkpt>
      <trkpt lat="48.6269" lon="6.0467">
        <ele>220</ele>
        <time>2020-08-16T07:31:57Z</time>
      </trkpt>
      <trkpt lat="48.62685" lon="6.04671">
        <ele>220</ele>
        <time>2020-08-16T07:31:59Z</time>
      </trkpt>
      <trkpt lat="48.62679" lon="6.04674">
        <ele>220</ele>
        <time>2020-08-16T07:32:01Z</time>
      </trkpt>
      <trkpt lat="48.62674" lon="6.04675">
        <ele>220</ele>
        <time>2020-08-16T07:32:03Z</time>
      </trkpt>
      <trkpt lat="48.62669" lon="6.04677">
        <ele>219</ele>
        <time>2020-08-16T07:32:05Z</time>
      </trkpt>
      <trkpt lat="48.62664" lon="6.04679">
        <ele>220</ele>
        <time>2020-08-16T07:32:07Z</time>
      </trkpt>
      <trkpt lat="48.62658" lon="6.04681">
        <ele>220</ele>
        <time>2020-08-16T07:32:09Z</time>
      </trkpt>
      <trkpt lat="48.62653" lon="6.04684">
        <ele>221</ele>
        <time>2020-08-16T07:32:11Z</time>
      </trkpt>
      <trkpt lat="48.62648" lon="6.04686">
        <ele>220</ele>
        <time>2020-08-16T07:32:13Z</time>
      </trkpt>
      <trkpt lat="48.62643" lon="6.04688">
        <ele>220</ele>
        <time>2020-08-16T07:32:15Z</time>
      </trkpt>
      <trkpt lat="48.62638" lon="6.0469">
        <ele>220</ele>
        <time>2020-08-16T07:32:17Z</time>
      </trkpt>
      <trkpt lat="48.62633" lon="6.04692">
        <ele>219</ele>
        <time>2020-08-16T07:32:19Z</time>
      </trkpt>
      <trkpt lat="48.62627" lon="6.04694">
        <ele>219</ele>
        <time>2020-08-16T07:32:21Z</time>
      </trkpt>
      <trkpt lat="48.62622" lon="6.04696">
        <ele>219</ele>
        <time>2020-08-16T07:32:23Z</time>
      </trkpt>
      <trkpt lat="48.62618" lon="6.04699">
        <ele>219</ele>
        <time>2020-08-16T07:32:25Z</time>
      </trkpt>
      <trkpt lat="48.62613" lon="6.04699">
        <ele>218</ele>
        <time>2020-08-16T07:32:27Z</time>
      </trkpt>
      <trkpt lat="48.62608" lon="6.04702">
        <ele>218</ele>
        <time>2020-08-16T07:32:29Z</time>
      </trkpt>
      <trkpt lat="48.62603" lon="6.04704">
        <ele>218</ele>
        <time>2020-08-16T07:32:31Z</time>
      </trkpt>
      <trkpt lat="48.62597" lon="6.04707">
        <ele>218</ele>
        <time>2020-08-16T07:32:33Z</time>
      </trkpt>
      <trkpt lat="48.62591" lon="6.04709">
        <ele>218</ele>
        <time>2020-08-16T07:32:35Z</time>
      </trkpt>
      <trkpt lat="48.62585" lon="6.04712">
        <ele>217</ele>
        <time>2020-08-16T07:32:37Z</time>
      </trkpt>
      <trkpt lat="48.62579" lon="6.04714">
        <ele>216</ele>
        <time>2020-08-16T07:32:39Z</time>
      </trkpt>
      <trkpt lat="48.62574" lon="6.04717">
        <ele>216</ele>
        <time>2020-08-16T07:32:41Z</time>
      </trkpt>
      <trkpt lat="48.62569" lon="6.04718">
        <ele>216</ele>
        <time>2020-08-16T07:32:43Z</time>
      </trkpt>
      <trkpt lat="48.62563" lon="6.04719">
        <ele>216</ele>
        <time>2020-08-16T07:32:45Z</time>
      </trkpt>
      <trkpt lat="48.62556" lon="6.04724">
        <ele>216</ele>
        <time>2020-08-16T07:32:47Z</time>
      </trkpt>
      <trkpt lat="48.62549" lon="6.04726">
        <ele>216</ele>
        <time>2020-08-16T07:32:49Z</time>
      </trkpt>
      <trkpt lat="48.62542" lon="6.04729">
        <ele>217</ele>
        <time>2020-08-16T07:32:51Z</time>
      </trkpt>
      <trkpt lat="48.62537" lon="6.04729">
        <ele>218</ele>
        <time>2020-08-16T07:32:53Z</time>
      </trkpt>
      <trkpt lat="48.62531" lon="6.04732">
        <ele>218</ele>
        <time>2020-08-16T07:32:55Z</time>
      </trkpt>
      <trkpt lat="48.62525" lon="6.04735">
        <ele>219</ele>
        <time>2020-08-16T07:32:57Z</time>
      </trkpt>
      <trkpt lat="48.62519" lon="6.04738">
        <ele>219</ele>
        <time>2020-08-16T07:32:59Z</time>
      </trkpt>
      <trkpt lat="48.62513" lon="6.04741">
        <ele>219</ele>
        <time>2020-08-16T07:33:01Z</time>
      </trkpt>
      <trkpt lat="48.62507" lon="6.04744">
        <ele>218</ele>
        <time>2020-08-16T07:33:03Z</time>
      </trkpt>
      <trkpt lat="48.625" lon="6.04746">
        <ele>218</ele>
        <time>2020-08-16T07:33:05Z</time>
      </trkpt>
      <trkpt lat="48.62494" lon="6.04748">
        <ele>218</ele>
        <time>2020-08-16T07:33:07Z</time>
      </trkpt>
      <trkpt lat="48.62486" lon="6.04749">
        <ele>218</ele>
        <time>2020-08-16T07:33:09Z</time>
      </trkpt>
      <trkpt lat="48.62478" lon="6.04749">
        <ele>218</ele>
        <time>2020-08-16T07:33:11Z</time>
      </trkpt>
      <trkpt lat="48.62471" lon="6.0475">
        <ele>218</ele>
        <time>2020-08-16T07:33:13Z</time>
      </trkpt>
      <trkpt lat="48.62463" lon="6.0475">
        <ele>218</ele>
        <time>2020-08-16T07:33:15Z</time>
      </trkpt>
      <trkpt lat="48.62455" lon="6.04752">
        <ele>218</ele>
        <time>2020-08-16T07:33:17Z</time>
      </trkpt>
      <trkpt lat="48.62448" lon="6.04753">
        <ele>218</ele>
        <time>2020-08-16T07:33:19Z</time>
      </trkpt>
      <trkpt lat="48.6244" lon="6.04755">
        <ele>217</ele>
        <time>2020-08-16T07:33:21Z</time>
      </trkpt>
      <trkpt lat="48.62433" lon="6.04757">
        <ele>217</ele>
        <time>2020-08-16T07:33:23Z</time>
      </trkpt>
      <trkpt lat="48.62425" lon="6.04757">
        <ele>217</ele>
        <time>2020-08-16T07:33:25Z</time>
      </trkpt>
      <trkpt lat="48.62416" lon="6.04759">
        <ele>217</ele>
        <time>2020-08-16T07:33:27Z</time>
      </trkpt>
      <trkpt lat="48.62409" lon="6.04762">
        <ele>217</ele>
        <time>2020-08-16T07:33:29Z</time>
      </trkpt>
      <trkpt lat="48.62403" lon="6.04762">
        <ele>217</ele>
        <time>2020-08-16T07:33:31Z</time>
      </trkpt>
      <trkpt lat="48.62398" lon="6.04764">
        <ele>217</ele>
        <time>2020-08-16T07:33:32Z</time>
      </trkpt>
      <trkpt lat="48.62391" lon="6.04767">
        <ele>217</ele>
        <time>2020-08-16T07:33:34Z</time>
      </trkpt>
      <trkpt lat="48.62383" lon="6.04768">
        <ele>217</ele>
        <time>2020-08-16T07:33:36Z</time>
      </trkpt>
      <trkpt lat="48.62377" lon="6.04771">
        <ele>218</ele>
        <time>2020-08-16T07:33:38Z</time>
      </trkpt>
      <trkpt lat="48.6237" lon="6.04773">
        <ele>218</ele>
        <time>2020-08-16T07:33:40Z</time>
      </trkpt>
      <trkpt lat="48.62363" lon="6.04776">
        <ele>218</ele>
        <time>2020-08-16T07:33:42Z</time>
      </trkpt>
      <trkpt lat="48.62357" lon="6.04779">
        <ele>219</ele>
        <time>2020-08-16T07:33:44Z</time>
      </trkpt>
      <trkpt lat="48.62351" lon="6.04782">
        <ele>219</ele>
        <time>2020-08-16T07:33:46Z</time>
      </trkpt>
      <trkpt lat="48.62344" lon="6.04784">
        <ele>219</ele>
        <time>2020-08-16T07:33:48Z</time>
      </trkpt>
      <trkpt lat="48.62337" lon="6.0479">
        <ele>218</ele>
        <time>2020-08-16T07:33:50Z</time>
      </trkpt>
      <trkpt lat="48.62331" lon="6.04793">
        <ele>219</ele>
        <time>2020-08-16T07:33:52Z</time>
      </trkpt>
      <trkpt lat="48.62325" lon="6.04797">
        <ele>219</ele>
        <time>2020-08-16T07:33:54Z</time>
      </trkpt>
      <trkpt lat="48.6232" lon="6.04802">
        <ele>219</ele>
        <time>2020-08-16T07:33:56Z</time>
      </trkpt>
      <trkpt lat="48.62314" lon="6.04806">
        <ele>219</ele>
        <time>2020-08-16T07:33:58Z</time>
      </trkpt>
      <trkpt lat="48.62309" lon="6.04812">
        <ele>218</ele>
        <time>2020-08-16T07:34:00Z</time>
      </trkpt>
      <trkpt lat="48.62304" lon="6.04817">
        <ele>218</ele>
        <time>2020-08-16T07:34:02Z</time>
      </trkpt>
      <trkpt lat="48.62298" lon="6.04823">
        <ele>218</ele>
        <time>2020-08-16T07:34:04Z</time>
      </trkpt>
      <trkpt lat="48.62293" lon="6.04828">
        <ele>216</ele>
        <time>2020-08-16T07:34:06Z</time>
      </trkpt>
      <trkpt lat="48.62288" lon="6.04835">
        <ele>215</ele>
        <time>2020-08-16T07:34:08Z</time>
      </trkpt>
      <trkpt lat="48.62283" lon="6.04842">
        <ele>214</ele>
        <time>2020-08-16T07:34:10Z</time>
      </trkpt>
      <trkpt lat="48.62278" lon="6.04848">
        <ele>214</ele>
        <time>2020-08-16T07:34:12Z</time>
      </trkpt>
      <trkpt lat="48.62273" lon="6.04852">
        <ele>215</ele>
        <time>2020-08-16T07:34:14Z</time>
      </trkpt>
      <trkpt lat="48.62269" lon="6.04859">
        <ele>215</ele>
        <time>2020-08-16T07:34:17Z</time>
      </trkpt>
      <trkpt lat="48.62264" lon="6.04866">
        <ele>216</ele>
        <time>2020-08-16T07:34:20Z</time>
      </trkpt>
      <trkpt lat="48.62259" lon="6.04873">
        <ele>216</ele>
        <time>2020-08-16T07:34:22Z</time>
      </trkpt>
      <trkpt lat="48.62256" lon="6.0488">
        <ele>217</ele>
        <time>2020-08-16T07:34:24Z</time>
      </trkpt>
      <trkpt lat="48.62252" lon="6.04887">
        <ele>217</ele>
        <time>2020-08-16T07:34:26Z</time>
      </trkpt>
      <trkpt lat="48.62249" lon="6.04895">
        <ele>218</ele>
        <time>2020-08-16T07:34:28Z</time>
      </trkpt>
      <trkpt lat="48.62246" lon="6.04902">
        <ele>219</ele>
        <time>2020-08-16T07:34:30Z</time>
      </trkpt>
      <trkpt lat="48.62243" lon="6.04909">
        <ele>219</ele>
        <time>2020-08-16T07:34:32Z</time>
      </trkpt>
      <trkpt lat="48.62239" lon="6.04916">
        <ele>219</ele>
        <time>2020-08-16T07:34:34Z</time>
      </trkpt>
      <trkpt lat="48.62236" lon="6.04924">
        <ele>218</ele>
        <time>2020-08-16T07:34:36Z</time>
      </trkpt>
      <trkpt lat="48.62234" lon="6.04934">
        <ele>218</ele>
        <time>2020-08-16T07:34:38Z</time>
      </trkpt>
      <trkpt lat="48.62231" lon="6.04943">
        <ele>218</ele>
        <time>2020-08-16T07:34:40Z</time>
      </trkpt>
      <trkpt lat="48.62229" lon="6.04952">
        <ele>218</ele>
        <time>2020-08-16T07:34:42Z</time>
      </trkpt>
      <trkpt lat="48.62227" lon="6.04962">
        <ele>218</ele>
        <time>2020-08-16T07:34:44Z</time>
      </trkpt>
      <trkpt lat="48.62224" lon="6.04973">
        <ele>218</ele>
        <time>2020-08-16T07:34:46Z</time>
      </trkpt>
      <trkpt lat="48.62222" lon="6.04982">
        <ele>218</ele>
        <time>2020-08-16T07:34:48Z</time>
      </trkpt>
      <trkpt lat="48.6222" lon="6.04993">
        <ele>218</ele>
        <time>2020-08-16T07:34:50Z</time>
      </trkpt>
      <trkpt lat="48.62219" lon="6.05002">
        <ele>218</ele>
        <time>2020-08-16T07:34:52Z</time>
      </trkpt>
      <trkpt lat="48.62217" lon="6.05015">
        <ele>219</ele>
        <time>2020-08-16T07:34:54Z</time>
      </trkpt>
      <trkpt lat="48.62215" lon="6.05027">
        <ele>219</ele>
        <time>2020-08-16T07:34:56Z</time>
      </trkpt>
      <trkpt lat="48.62213" lon="6.05037">
        <ele>218</ele>
        <time>2020-08-16T07:34:58Z</time>
      </trkpt>
      <trkpt lat="48.62212" lon="6.05048">
        <ele>218</ele>
        <time>2020-08-16T07:35:00Z</time>
      </trkpt>
      <trkpt lat="48.62211" lon="6.05059">
        <ele>217</ele>
        <time>2020-08-16T07:35:02Z</time>
      </trkpt>
      <trkpt lat="48.6221" lon="6.0507">
        <ele>217</ele>
        <time>2020-08-16T07:35:04Z</time>
      </trkpt>
      <trkpt lat="48.62208" lon="6.05081">
        <ele>217</ele>
        <time>2020-08-16T07:35:06Z</time>
      </trkpt>
      <trkpt lat="48.62207" lon="6.05093">
        <ele>217</ele>
        <time>2020-08-16T07:35:08Z</time>
      </trkpt>
      <trkpt lat="48.62206" lon="6.05106">
        <ele>217</ele>
        <time>2020-08-16T07:35:10Z</time>
      </trkpt>
      <trkpt lat="48.62205" lon="6.0512">
        <ele>216</ele>
        <time>2020-08-16T07:35:12Z</time>
      </trkpt>
      <trkpt lat="48.62205" lon="6.05128">
        <ele>215</ele>
        <time>2020-08-16T07:35:13Z</time>
      </trkpt>
      <trkpt lat="48.62204" lon="6.05136">
        <ele>215</ele>
        <time>2020-08-16T07:35:14Z</time>
      </trkpt>
      <trkpt lat="48.62203" lon="6.05144">
        <ele>216</ele>
        <time>2020-08-16T07:35:15Z</time>
      </trkpt>
      <trkpt lat="48.62202" lon="6.05152">
        <ele>216</ele>
        <time>2020-08-16T07:35:16Z</time>
      </trkpt>
      <trkpt lat="48.62202" lon="6.05159">
        <ele>216</ele>
        <time>2020-08-16T07:35:17Z</time>
      </trkpt>
      <trkpt lat="48.62201" lon="6.05171">
        <ele>216</ele>
        <time>2020-08-16T07:35:19Z</time>
      </trkpt>
      <trkpt lat="48.622" lon="6.05183">
        <ele>216</ele>
        <time>2020-08-16T07:35:21Z</time>
      </trkpt>
      <trkpt lat="48.62199" lon="6.05192">
        <ele>216</ele>
        <time>2020-08-16T07:35:23Z</time>
      </trkpt>
      <trkpt lat="48.62198" lon="6.05202">
        <ele>216</ele>
        <time>2020-08-16T07:35:25Z</time>
      </trkpt>
      <trkpt lat="48.62197" lon="6.05211">
        <ele>216</ele>
        <time>2020-08-16T07:35:27Z</time>
      </trkpt>
      <trkpt lat="48.62196" lon="6.05222">
        <ele>216</ele>
        <time>2020-08-16T07:35:29Z</time>
      </trkpt>
      <trkpt lat="48.62194" lon="6.05232">
        <ele>216</ele>
        <time>2020-08-16T07:35:31Z</time>
      </trkpt>
      <trkpt lat="48.62193" lon="6.05243">
        <ele>216</ele>
        <time>2020-08-16T07:35:33Z</time>
      </trkpt>
      <trkpt lat="48.62193" lon="6.05254">
        <ele>217</ele>
        <time>2020-08-16T07:35:35Z</time>
      </trkpt>
      <trkpt lat="48.62192" lon="6.05265">
        <ele>217</ele>
        <time>2020-08-16T07:35:37Z</time>
      </trkpt>
      <trkpt lat="48.62192" lon="6.05276">
        <ele>217</ele>
        <time>2020-08-16T07:35:39Z</time>
      </trkpt>
      <trkpt lat="48.62191" lon="6.05288">
        <ele>217</ele>
        <time>2020-08-16T07:35:41Z</time>
      </trkpt>
      <trkpt lat="48.6219" lon="6.05299">
        <ele>217</ele>
        <time>2020-08-16T07:35:43Z</time>
      </trkpt>
      <trkpt lat="48.6219" lon="6.0531">
        <ele>218</ele>
        <time>2020-08-16T07:35:45Z</time>
      </trkpt>
      <trkpt lat="48.62189" lon="6.05321">
        <ele>218</ele>
        <time>2020-08-16T07:35:47Z</time>
      </trkpt>
      <trkpt lat="48.62188" lon="6.05332">
        <ele>218</ele>
        <time>2020-08-16T07:35:49Z</time>
      </trkpt>
      <trkpt lat="48.62186" lon="6.05344">
        <ele>218</ele>
        <time>2020-08-16T07:35:51Z</time>
      </trkpt>
      <trkpt lat="48.62186" lon="6.05356">
        <ele>218</ele>
        <time>2020-08-16T07:35:53Z</time>
      </trkpt>
      <trkpt lat="48.62185" lon="6.05368">
        <ele>218</ele>
        <time>2020-08-16T07:35:55Z</time>
      </trkpt>
      <trkpt lat="48.62183" lon="6.05379">
        <ele>217</ele>
        <time>2020-08-16T07:35:57Z</time>
      </trkpt>
      <trkpt lat="48.62181" lon="6.0539">
        <ele>218</ele>
        <time>2020-08-16T07:35:59Z</time>
      </trkpt>
      <trkpt lat="48.62178" lon="6.05401">
        <ele>219</ele>
        <time>2020-08-16T07:36:01Z</time>
      </trkpt>
      <trkpt lat="48.62176" lon="6.05412">
        <ele>219</ele>
        <time>2020-08-16T07:36:03Z</time>
      </trkpt>
      <trkpt lat="48.62172" lon="6.05423">
        <ele>219</ele>
        <time>2020-08-16T07:36:05Z</time>
      </trkpt>
      <trkpt lat="48.62169" lon="6.05434">
        <ele>219</ele>
        <time>2020-08-16T07:36:07Z</time>
      </trkpt>
      <trkpt lat="48.62166" lon="6.05445">
        <ele>219</ele>
        <time>2020-08-16T07:36:09Z</time>
      </trkpt>
      <trkpt lat="48.62163" lon="6.05456">
        <ele>219</ele>
        <time>2020-08-16T07:36:11Z</time>
      </trkpt>
      <trkpt lat="48.6216" lon="6.05466">
        <ele>219</ele>
        <time>2020-08-16T07:36:13Z</time>
      </trkpt>
      <trkpt lat="48.62157" lon="6.05477">
        <ele>218</ele>
        <time>2020-08-16T07:36:15Z</time>
      </trkpt>
      <trkpt lat="48.62153" lon="6.05487">
        <ele>218</ele>
        <time>2020-08-16T07:36:17Z</time>
      </trkpt>
      <trkpt lat="48.6215" lon="6.05499">
        <ele>219</ele>
        <time>2020-08-16T07:36:19Z</time>
      </trkpt>
      <trkpt lat="48.62148" lon="6.0551">
        <ele>219</ele>
        <time>2020-08-16T07:36:21Z</time>
      </trkpt>
      <trkpt lat="48.62145" lon="6.05521">
        <ele>219</ele>
        <time>2020-08-16T07:36:23Z</time>
      </trkpt>
      <trkpt lat="48.62143" lon="6.05528">
        <ele>219</ele>
        <time>2020-08-16T07:36:24Z</time>
      </trkpt>
      <trkpt lat="48.62141" lon="6.05538">
        <ele>219</ele>
        <time>2020-08-16T07:36:26Z</time>
      </trkpt>
      <trkpt lat="48.62138" lon="6.05548">
        <ele>219</ele>
        <time>2020-08-16T07:36:28Z</time>
      </trkpt>
      <trkpt lat="48.62136" lon="6.05558">
        <ele>219</ele>
        <time>2020-08-16T07:36:30Z</time>
      </trkpt>
      <trkpt lat="48.62133" lon="6.05567">
        <ele>219</ele>
        <time>2020-08-16T07:36:32Z</time>
      </trkpt>
      <trkpt lat="48.62131" lon="6.05577">
        <ele>219</ele>
        <time>2020-08-16T07:36:34Z</time>
      </trkpt>
      <trkpt lat="48.62129" lon="6.05586">
        <ele>219</ele>
        <time>2020-08-16T07:36:36Z</time>
      </trkpt>
      <trkpt lat="48.62127" lon="6.05598">
        <ele>219</ele>
        <time>2020-08-16T07:36:38Z</time>
      </trkpt>
      <trkpt lat="48.62124" lon="6.05609">
        <ele>219</ele>
        <time>2020-08-16T07:36:40Z</time>
      </trkpt>
      <trkpt lat="48.62122" lon="6.05621">
        <ele>219</ele>
        <time>2020-08-16T07:36:42Z</time>
      </trkpt>
      <trkpt lat="48.62119" lon="6.05632">
        <ele>218</ele>
        <time>2020-08-16T07:36:44Z</time>
      </trkpt>
      <trkpt lat="48.62117" lon="6.05642">
        <ele>218</ele>
        <time>2020-08-16T07:36:46Z</time>
      </trkpt>
      <trkpt lat="48.62117" lon="6.05649">
        <ele>218</ele>
        <time>2020-08-16T07:36:48Z</time>
      </trkpt>
      <trkpt lat="48.62118" lon="6.05657">
        <ele>218</ele>
        <time>2020-08-16T07:36:50Z</time>
      </trkpt>
      <trkpt lat="48.6212" lon="6.05665">
        <ele>218</ele>
        <time>2020-08-16T07:36:52Z</time>
      </trkpt>
      <trkpt lat="48.6212" lon="6.05674">
        <ele>218</ele>
        <time>2020-08-16T07:36:54Z</time>
      </trkpt>
      <trkpt lat="48.62117" lon="6.05683">
        <ele>218</ele>
        <time>2020-08-16T07:36:56Z</time>
      </trkpt>
      <trkpt lat="48.62115" lon="6.05692">
        <ele>218</ele>
        <time>2020-08-16T07:36:58Z</time>
      </trkpt>
      <trkpt lat="48.62112" lon="6.05701">
        <ele>218</ele>
        <time>2020-08-16T07:37:00Z</time>
      </trkpt>
      <trkpt lat="48.62108" lon="6.0571">
        <ele>218</ele>
        <time>2020-08-16T07:37:02Z</time>
      </trkpt>
      <trkpt lat="48.62104" lon="6.0572">
        <ele>217</ele>
        <time>2020-08-16T07:37:04Z</time>
      </trkpt>
      <trkpt lat="48.621" lon="6.0573">
        <ele>217</ele>
        <time>2020-08-16T07:37:06Z</time>
      </trkpt>
      <trkpt lat="48.62096" lon="6.0574">
        <ele>217</ele>
        <time>2020-08-16T07:37:08Z</time>
      </trkpt>
      <trkpt lat="48.62091" lon="6.0575">
        <ele>217</ele>
        <time>2020-08-16T07:37:10Z</time>
      </trkpt>
      <trkpt lat="48.62087" lon="6.05762">
        <ele>217</ele>
        <time>2020-08-16T07:37:12Z</time>
      </trkpt>
      <trkpt lat="48.62085" lon="6.05768">
        <ele>217</ele>
        <time>2020-08-16T07:37:13Z</time>
      </trkpt>
      <trkpt lat="48.62081" lon="6.05779">
        <ele>217</ele>
        <time>2020-08-16T07:37:15Z</time>
      </trkpt>
      <trkpt lat="48.6208" lon="6.05793">
        <ele>217</ele>
        <time>2020-08-16T07:37:17Z</time>
      </trkpt>
      <trkpt lat="48.62077" lon="6.05805">
        <ele>217</ele>
        <time>2020-08-16T07:37:19Z</time>
      </trkpt>
      <trkpt lat="48.62073" lon="6.05816">
        <ele>217</ele>
        <time>2020-08-16T07:37:21Z</time>
      </trkpt>
      <trkpt lat="48.6207" lon="6.05822">
        <ele>217</ele>
        <time>2020-08-16T07:37:22Z</time>
      </trkpt>
      <trkpt lat="48.62069" lon="6.05831">
        <ele>217</ele>
        <time>2020-08-16T07:37:24Z</time>
      </trkpt>
      <trkpt lat="48.62067" lon="6.05837">
        <ele>217</ele>
        <time>2020-08-16T07:37:25Z</time>
      </trkpt>
      <trkpt lat="48.62064" lon="6.05848">
        <ele>217</ele>
        <time>2020-08-16T07:37:27Z</time>
      </trkpt>
      <trkpt lat="48.62061" lon="6.05859">
        <ele>217</ele>
        <time>2020-08-16T07:37:29Z</time>
      </trkpt>
      <trkpt lat="48.62058" lon="6.05865">
        <ele>217</ele>
        <time>2020-08-16T07:37:30Z</time>
      </trkpt>
      <trkpt lat="48.62053" lon="6.05874">
        <ele>218</ele>
        <time>2020-08-16T07:37:32Z</time>
      </trkpt>
      <trkpt lat="48.62053" lon="6.05881">
        <ele>218</ele>
        <time>2020-08-16T07:37:33Z</time>
      </trkpt>
      <trkpt lat="48.6205" lon="6.05892">
        <ele>219</ele>
        <time>2020-08-16T07:37:35Z</time>
      </trkpt>
      <trkpt lat="48.62048" lon="6.05903">
        <ele>219</ele>
        <time>2020-08-16T07:37:37Z</time>
      </trkpt>
      <trkpt lat="48.62045" lon="6.05915">
        <ele>218</ele>
        <time>2020-08-16T07:37:39Z</time>
      </trkpt>
      <trkpt lat="48.62043" lon="6.05921">
        <ele>218</ele>
        <time>2020-08-16T07:37:40Z</time>
      </trkpt>
      <trkpt lat="48.62042" lon="6.05934">
        <ele>218</ele>
        <time>2020-08-16T07:37:42Z</time>
      </trkpt>
      <trkpt lat="48.62038" lon="6.05945">
        <ele>218</ele>
        <time>2020-08-16T07:37:44Z</time>
      </trkpt>
      <trkpt lat="48.62035" lon="6.05955">
        <ele>218</ele>
        <time>2020-08-16T07:37:46Z</time>
      </trkpt>
      <trkpt lat="48.62031" lon="6.05966">
        <ele>218</ele>
        <time>2020-08-16T07:37:48Z</time>
      </trkpt>
      <trkpt lat="48.62028" lon="6.05978">
        <ele>218</ele>
        <time>2020-08-16T07:37:50Z</time>
      </trkpt>
      <trkpt lat="48.62026" lon="6.05989">
        <ele>218</ele>
        <time>2020-08-16T07:37:52Z</time>
      </trkpt>
      <trkpt lat="48.62023" lon="6.06001">
        <ele>218</ele>
        <time>2020-08-16T07:37:54Z</time>
      </trkpt>
      <trkpt lat="48.62021" lon="6.06012">
        <ele>219</ele>
        <time>2020-08-16T07:37:56Z</time>
      </trkpt>
      <trkpt lat="48.62018" lon="6.06024">
        <ele>219</ele>
        <time>2020-08-16T07:37:58Z</time>
      </trkpt>
      <trkpt lat="48.62016" lon="6.06036">
        <ele>219</ele>
        <time>2020-08-16T07:38:00Z</time>
      </trkpt>
      <trkpt lat="48.62014" lon="6.06046">
        <ele>219</ele>
        <time>2020-08-16T07:38:02Z</time>
      </trkpt>
      <trkpt lat="48.62012" lon="6.06054">
        <ele>219</ele>
        <time>2020-08-16T07:38:03Z</time>
      </trkpt>
      <trkpt lat="48.62009" lon="6.06065">
        <ele>219</ele>
        <time>2020-08-16T07:38:05Z</time>
      </trkpt>
      <trkpt lat="48.62008" lon="6.06072">
        <ele>219</ele>
        <time>2020-08-16T07:38:06Z</time>
      </trkpt>
      <trkpt lat="48.62006" lon="6.06078">
        <ele>219</ele>
        <time>2020-08-16T07:38:07Z</time>
      </trkpt>
      <trkpt lat="48.62001" lon="6.06091">
        <ele>219</ele>
        <time>2020-08-16T07:38:09Z</time>
      </trkpt>
      <trkpt lat="48.61999" lon="6.06098">
        <ele>219</ele>
        <time>2020-08-16T07:38:10Z</time>
      </trkpt>
      <trkpt lat="48.61997" lon="6.06105">
        <ele>218</ele>
        <time>2020-08-16T07:38:11Z</time>
      </trkpt>
      <trkpt lat="48.61995" lon="6.06112">
        <ele>218</ele>
        <time>2020-08-16T07:38:12Z</time>
      </trkpt>
      <trkpt lat="48.61992" lon="6.06125">
        <ele>217</ele>
        <time>2020-08-16T07:38:14Z</time>
      </trkpt>
      <trkpt lat="48.61991" lon="6.06132">
        <ele>218</ele>
        <time>2020-08-16T07:38:15Z</time>
      </trkpt>
      <trkpt lat="48.61992" lon="6.06144">
        <ele>218</ele>
        <time>2020-08-16T07:38:17Z</time>
      </trkpt>
      <trkpt lat="48.61988" lon="6.06155">
        <ele>218</ele>
        <time>2020-08-16T07:38:19Z</time>
      </trkpt>
      <trkpt lat="48.61984" lon="6.0616">
        <ele>218</ele>
        <time>2020-08-16T07:38:20Z</time>
      </trkpt>
      <trkpt lat="48.61983" lon="6.06168">
        <ele>219</ele>
        <time>2020-08-16T07:38:22Z</time>
      </trkpt>
      <trkpt lat="48.61982" lon="6.0618">
        <ele>219</ele>
        <time>2020-08-16T07:38:24Z</time>
      </trkpt>
      <trkpt lat="48.61977" lon="6.06187">
        <ele>218</ele>
        <time>2020-08-16T07:38:25Z</time>
      </trkpt>
      <trkpt lat="48.61975" lon="6.06193">
        <ele>218</ele>
        <time>2020-08-16T07:38:26Z</time>
      </trkpt>
      <trkpt lat="48.61972" lon="6.06199">
        <ele>218</ele>
        <time>2020-08-16T07:38:27Z</time>
      </trkpt>
      <trkpt lat="48.61971" lon="6.06211">
        <ele>219</ele>
        <time>2020-08-16T07:38:29Z</time>
      </trkpt>
      <trkpt lat="48.61969" lon="6.06217">
        <ele>219</ele>
        <time>2020-08-16T07:38:30Z</time>
      </trkpt>
      <trkpt lat="48.61966" lon="6.06229">
        <ele>219</ele>
        <time>2020-08-16T07:38:32Z</time>
      </trkpt>
      <trkpt lat="48.61963" lon="6.06241">
        <ele>218</ele>
        <time>2020-08-16T07:38:34Z</time>
      </trkpt>
      <trkpt lat="48.61962" lon="6.06253">
        <ele>218</ele>
        <time>2020-08-16T07:38:36Z</time>
      </trkpt>
      <trkpt lat="48.61958" lon="6.06267">
        <ele>218</ele>
        <time>2020-08-16T07:38:38Z</time>
      </trkpt>
      <trkpt lat="48.61954" lon="6.0628">
        <ele>218</ele>
        <time>2020-08-16T07:38:40Z</time>
      </trkpt>
      <trkpt lat="48.61951" lon="6.06291">
        <ele>219</ele>
        <time>2020-08-16T07:38:42Z</time>
      </trkpt>
      <trkpt lat="48.61949" lon="6.06303">
        <ele>219</ele>
        <time>2020-08-16T07:38:44Z</time>
      </trkpt>
      <trkpt lat="48.61947" lon="6.06315">
        <ele>219</ele>
        <time>2020-08-16T07:38:46Z</time>
      </trkpt>
      <trkpt lat="48.6194" lon="6.06324">
        <ele>218</ele>
        <time>2020-08-16T07:38:48Z</time>
      </trkpt>
      <trkpt lat="48.61937" lon="6.06332">
        <ele>218</ele>
        <time>2020-08-16T07:38:49Z</time>
      </trkpt>
      <trkpt lat="48.61934" lon="6.06343">
        <ele>218</ele>
        <time>2020-08-16T07:38:51Z</time>
      </trkpt>
      <trkpt lat="48.61931" lon="6.06355">
        <ele>218</ele>
        <time>2020-08-16T07:38:53Z</time>
      </trkpt>
      <trkpt lat="48.61928" lon="6.06367">
        <ele>218</ele>
        <time>2020-08-16T07:38:55Z</time>
      </trkpt>
      <trkpt lat="48.61926" lon="6.0638">
        <ele>218</ele>
        <time>2020-08-16T07:38:57Z</time>
      </trkpt>
      <trkpt lat="48.61925" lon="6.06387">
        <ele>218</ele>
        <time>2020-08-16T07:38:58Z</time>
      </trkpt>
      <trkpt lat="48.61923" lon="6.06402">
        <ele>219</ele>
        <time>2020-08-16T07:39:00Z</time>
      </trkpt>
      <trkpt lat="48.61919" lon="6.06414">
        <ele>218</ele>
        <time>2020-08-16T07:39:02Z</time>
      </trkpt>
      <trkpt lat="48.61918" lon="6.0642">
        <ele>218</ele>
        <time>2020-08-16T07:39:03Z</time>
      </trkpt>
      <trkpt lat="48.61915" lon="6.06427">
        <ele>218</ele>
        <time>2020-08-16T07:39:04Z</time>
      </trkpt>
      <trkpt lat="48.61912" lon="6.0644">
        <ele>218</ele>
        <time>2020-08-16T07:39:06Z</time>
      </trkpt>
      <trkpt lat="48.61911" lon="6.06446">
        <ele>218</ele>
        <time>2020-08-16T07:39:07Z</time>
      </trkpt>
      <trkpt lat="48.61909" lon="6.06453">
        <ele>218</ele>
        <time>2020-08-16T07:39:08Z</time>
      </trkpt>
      <trkpt lat="48.61907" lon="6.06459">
        <ele>218</ele>
        <time>2020-08-16T07:39:09Z</time>
      </trkpt>
      <trkpt lat="48.61905" lon="6.06472">
        <ele>218</ele>
        <time>2020-08-16T07:39:11Z</time>
      </trkpt>
      <trkpt lat="48.61902" lon="6.06484">
        <ele>218</ele>
        <time>2020-08-16T07:39:13Z</time>
      </trkpt>
      <trkpt lat="48.61904" lon="6.06495">
        <ele>219</ele>
        <time>2020-08-16T07:39:15Z</time>
      </trkpt>
      <trkpt lat="48.61902" lon="6.06507">
        <ele>219</ele>
        <time>2020-08-16T07:39:17Z</time>
      </trkpt>
      <trkpt lat="48.619" lon="6.06514">
        <ele>219</ele>
        <time>2020-08-16T07:39:18Z</time>
      </trkpt>
      <trkpt lat="48.61897" lon="6.06526">
        <ele>219</ele>
        <time>2020-08-16T07:39:20Z</time>
      </trkpt>
      <trkpt lat="48.61895" lon="6.06537">
        <ele>219</ele>
        <time>2020-08-16T07:39:22Z</time>
      </trkpt>
      <trkpt lat="48.61893" lon="6.06543">
        <ele>219</ele>
        <time>2020-08-16T07:39:23Z</time>
      </trkpt>
      <trkpt lat="48.61891" lon="6.06556">
        <ele>219</ele>
        <time>2020-08-16T07:39:25Z</time>
      </trkpt>
      <trkpt lat="48.61889" lon="6.06568">
        <ele>219</ele>
        <time>2020-08-16T07:39:27Z</time>
      </trkpt>
      <trkpt lat="48.61884" lon="6.0658">
        <ele>219</ele>
        <time>2020-08-16T07:39:29Z</time>
      </trkpt>
      <trkpt lat="48.61879" lon="6.06591">
        <ele>219</ele>
        <time>2020-08-16T07:39:31Z</time>
      </trkpt>
      <trkpt lat="48.61874" lon="6.066">
        <ele>218</ele>
        <time>2020-08-16T07:39:33Z</time>
      </trkpt>
      <trkpt lat="48.61871" lon="6.06612">
        <ele>218</ele>
        <time>2020-08-16T07:39:35Z</time>
      </trkpt>
      <trkpt lat="48.61869" lon="6.06618">
        <ele>218</ele>
        <time>2020-08-16T07:39:36Z</time>
      </trkpt>
      <trkpt lat="48.61865" lon="6.0663">
        <ele>217</ele>
        <time>2020-08-16T07:39:38Z</time>
      </trkpt>
      <trkpt lat="48.61862" lon="6.06642">
        <ele>218</ele>
        <time>2020-08-16T07:39:40Z</time>
      </trkpt>
      <trkpt lat="48.61858" lon="6.06654">
        <ele>217</ele>
        <time>2020-08-16T07:39:42Z</time>
      </trkpt>
      <trkpt lat="48.61856" lon="6.06666">
        <ele>218</ele>
        <time>2020-08-16T07:39:44Z</time>
      </trkpt>
      <trkpt lat="48.61852" lon="6.06678">
        <ele>218</ele>
        <time>2020-08-16T07:39:46Z</time>
      </trkpt>
      <trkpt lat="48.61849" lon="6.0669">
        <ele>218</ele>
        <time>2020-08-16T07:39:48Z</time>
      </trkpt>
      <trkpt lat="48.61847" lon="6.06702">
        <ele>218</ele>
        <time>2020-08-16T07:39:50Z</time>
      </trkpt>
      <trkpt lat="48.61844" lon="6.06712">
        <ele>217</ele>
        <time>2020-08-16T07:39:52Z</time>
      </trkpt>
      <trkpt lat="48.6184" lon="6.06725">
        <ele>217</ele>
        <time>2020-08-16T07:39:54Z</time>
      </trkpt>
      <trkpt lat="48.61836" lon="6.06735">
        <ele>217</ele>
        <time>2020-08-16T07:39:56Z</time>
      </trkpt>
      <trkpt lat="48.61834" lon="6.06747">
        <ele>217</ele>
        <time>2020-08-16T07:39:58Z</time>
      </trkpt>
      <trkpt lat="48.61831" lon="6.06757">
        <ele>217</ele>
        <time>2020-08-16T07:40:00Z</time>
      </trkpt>
      <trkpt lat="48.61828" lon="6.06768">
        <ele>217</ele>
        <time>2020-08-16T07:40:02Z</time>
      </trkpt>
      <trkpt lat="48.61825" lon="6.0678">
        <ele>217</ele>
        <time>2020-08-16T07:40:04Z</time>
      </trkpt>
      <trkpt lat="48.61823" lon="6.06792">
        <ele>217</ele>
        <time>2020-08-16T07:40:06Z</time>
      </trkpt>
      <trkpt lat="48.61821" lon="6.06798">
        <ele>216</ele>
        <time>2020-08-16T07:40:07Z</time>
      </trkpt>
      <trkpt lat="48.61819" lon="6.06805">
        <ele>216</ele>
        <time>2020-08-16T07:40:08Z</time>
      </trkpt>
      <trkpt lat="48.61817" lon="6.06812">
        <ele>216</ele>
        <time>2020-08-16T07:40:09Z</time>
      </trkpt>
      <trkpt lat="48.61815" lon="6.06822">
        <ele>216</ele>
        <time>2020-08-16T07:40:11Z</time>
      </trkpt>
      <trkpt lat="48.61812" lon="6.06835">
        <ele>216</ele>
        <time>2020-08-16T07:40:13Z</time>
      </trkpt>
      <trkpt lat="48.61809" lon="6.06846">
        <ele>216</ele>
        <time>2020-08-16T07:40:15Z</time>
      </trkpt>
      <trkpt lat="48.61806" lon="6.06858">
        <ele>216</ele>
        <time>2020-08-16T07:40:17Z</time>
      </trkpt>
      <trkpt lat="48.61804" lon="6.06865">
        <ele>216</ele>
        <time>2020-08-16T07:40:18Z</time>
      </trkpt>
      <trkpt lat="48.61801" lon="6.06876">
        <ele>216</ele>
        <time>2020-08-16T07:40:20Z</time>
      </trkpt>
      <trkpt lat="48.61799" lon="6.06887">
        <ele>216</ele>
        <time>2020-08-16T07:40:22Z</time>
      </trkpt>
      <trkpt lat="48.61796" lon="6.06899">
        <ele>216</ele>
        <time>2020-08-16T07:40:24Z</time>
      </trkpt>
      <trkpt lat="48.61793" lon="6.0691">
        <ele>216</ele>
        <time>2020-08-16T07:40:26Z</time>
      </trkpt>
      <trkpt lat="48.6179" lon="6.06921">
        <ele>216</ele>
        <time>2020-08-16T07:40:28Z</time>
      </trkpt>
      <trkpt lat="48.61787" lon="6.06933">
        <ele>216</ele>
        <time>2020-08-16T07:40:30Z</time>
      </trkpt>
      <trkpt lat="48.61786" lon="6.06942">
        <ele>216</ele>
        <time>2020-08-16T07:40:32Z</time>
      </trkpt>
      <trkpt lat="48.61783" lon="6.06948">
        <ele>216</ele>
        <time>2020-08-16T07:40:33Z</time>
      </trkpt>
      <trkpt lat="48.6178" lon="6.0696">
        <ele>216</ele>
        <time>2020-08-16T07:40:35Z</time>
      </trkpt>
      <trkpt lat="48.61779" lon="6.06974">
        <ele>216</ele>
        <time>2020-08-16T07:40:37Z</time>
      </trkpt>
      <trkpt lat="48.61776" lon="6.06983">
        <ele>217</ele>
        <time>2020-08-16T07:40:39Z</time>
      </trkpt>
      <trkpt lat="48.61774" lon="6.0699">
        <ele>217</ele>
        <time>2020-08-16T07:40:40Z</time>
      </trkpt>
      <trkpt lat="48.61772" lon="6.07">
        <ele>217</ele>
        <time>2020-08-16T07:40:42Z</time>
      </trkpt>
      <trkpt lat="48.61767" lon="6.0701">
        <ele>218</ele>
        <time>2020-08-16T07:40:44Z</time>
      </trkpt>
      <trkpt lat="48.61763" lon="6.07022">
        <ele>218</ele>
        <time>2020-08-16T07:40:46Z</time>
      </trkpt>
      <trkpt lat="48.6176" lon="6.07034">
        <ele>218</ele>
        <time>2020-08-16T07:40:48Z</time>
      </trkpt>
      <trkpt lat="48.61757" lon="6.07045">
        <ele>218</ele>
        <time>2020-08-16T07:40:50Z</time>
      </trkpt>
      <trkpt lat="48.61753" lon="6.07049">
        <ele>218</ele>
        <time>2020-08-16T07:40:51Z</time>
      </trkpt>
      <trkpt lat="48.61748" lon="6.07059">
        <ele>218</ele>
        <time>2020-08-16T07:40:53Z</time>
      </trkpt>
      <trkpt lat="48.61747" lon="6.07067">
        <ele>218</ele>
        <time>2020-08-16T07:40:54Z</time>
      </trkpt>
      <trkpt lat="48.61744" lon="6.07073">
        <ele>218</ele>
        <time>2020-08-16T07:40:55Z</time>
      </trkpt>
      <trkpt lat="48.61741" lon="6.07084">
        <ele>218</ele>
        <time>2020-08-16T07:40:57Z</time>
      </trkpt>
      <trkpt lat="48.61739" lon="6.0709">
        <ele>218</ele>
        <time>2020-08-16T07:40:58Z</time>
      </trkpt>
      <trkpt lat="48.61734" lon="6.07101">
        <ele>219</ele>
        <time>2020-08-16T07:41:00Z</time>
      </trkpt>
      <trkpt lat="48.61731" lon="6.07114">
        <ele>219</ele>
        <time>2020-08-16T07:41:02Z</time>
      </trkpt>
      <trkpt lat="48.61729" lon="6.0712">
        <ele>219</ele>
        <time>2020-08-16T07:41:03Z</time>
      </trkpt>
      <trkpt lat="48.61725" lon="6.07129">
        <ele>219</ele>
        <time>2020-08-16T07:41:05Z</time>
      </trkpt>
      <trkpt lat="48.61719" lon="6.07136">
        <ele>220</ele>
        <time>2020-08-16T07:41:07Z</time>
      </trkpt>
      <trkpt lat="48.61718" lon="6.07143">
        <ele>220</ele>
        <time>2020-08-16T07:41:08Z</time>
      </trkpt>
      <trkpt lat="48.61712" lon="6.07153">
        <ele>220</ele>
        <time>2020-08-16T07:41:10Z</time>
      </trkpt>
      <trkpt lat="48.61707" lon="6.07163">
        <ele>220</ele>
        <time>2020-08-16T07:41:12Z</time>
      </trkpt>
      <trkpt lat="48.61705" lon="6.07175">
        <ele>220</ele>
        <time>2020-08-16T07:41:14Z</time>
      </trkpt>
      <trkpt lat="48.61699" lon="6.07183">
        <ele>221</ele>
        <time>2020-08-16T07:41:16Z</time>
      </trkpt>
      <trkpt lat="48.61695" lon="6.07191">
        <ele>221</ele>
        <time>2020-08-16T07:41:18Z</time>
      </trkpt>
      <trkpt lat="48.61691" lon="6.07201">
        <ele>220</ele>
        <time>2020-08-16T07:41:20Z</time>
      </trkpt>
      <trkpt lat="48.61689" lon="6.07208">
        <ele>220</ele>
        <time>2020-08-16T07:41:22Z</time>
      </trkpt>
      <trkpt lat="48.61687" lon="6.07214">
        <ele>219</ele>
        <time>2020-08-16T07:41:23Z</time>
      </trkpt>
      <trkpt lat="48.61684" lon="6.07225">
        <ele>219</ele>
        <time>2020-08-16T07:41:25Z</time>
      </trkpt>
      <trkpt lat="48.6168" lon="6.07236">
        <ele>218</ele>
        <time>2020-08-16T07:41:27Z</time>
      </trkpt>
      <trkpt lat="48.61677" lon="6.07242">
        <ele>218</ele>
        <time>2020-08-16T07:41:28Z</time>
      </trkpt>
      <trkpt lat="48.61674" lon="6.07247">
        <ele>218</ele>
        <time>2020-08-16T07:41:29Z</time>
      </trkpt>
      <trkpt lat="48.61671" lon="6.07254">
        <ele>219</ele>
        <time>2020-08-16T07:41:30Z</time>
      </trkpt>
      <trkpt lat="48.61666" lon="6.07264">
        <ele>219</ele>
        <time>2020-08-16T07:41:32Z</time>
      </trkpt>
      <trkpt lat="48.61663" lon="6.0727">
        <ele>219</ele>
        <time>2020-08-16T07:41:33Z</time>
      </trkpt>
      <trkpt lat="48.61661" lon="6.07277">
        <ele>219</ele>
        <time>2020-08-16T07:41:34Z</time>
      </trkpt>
      <trkpt lat="48.61659" lon="6.07283">
        <ele>220</ele>
        <time>2020-08-16T07:41:35Z</time>
      </trkpt>
      <trkpt lat="48.61656" lon="6.07289">
        <ele>219</ele>
        <time>2020-08-16T07:41:36Z</time>
      </trkpt>
      <trkpt lat="48.61653" lon="6.073">
        <ele>219</ele>
        <time>2020-08-16T07:41:38Z</time>
      </trkpt>
      <trkpt lat="48.61649" lon="6.07306">
        <ele>219</ele>
        <time>2020-08-16T07:41:40Z</time>
      </trkpt>
      <trkpt lat="48.61644" lon="6.07315">
        <ele>219</ele>
        <time>2020-08-16T07:41:42Z</time>
      </trkpt>
      <trkpt lat="48.6164" lon="6.07325">
        <ele>219</ele>
        <time>2020-08-16T07:41:44Z</time>
      </trkpt>
      <trkpt lat="48.61636" lon="6.07332">
        <ele>219</ele>
        <time>2020-08-16T07:41:46Z</time>
      </trkpt>
      <trkpt lat="48.61632" lon="6.07342">
        <ele>219</ele>
        <time>2020-08-16T07:41:48Z</time>
      </trkpt>
      <trkpt lat="48.61628" lon="6.07353">
        <ele>219</ele>
        <time>2020-08-16T07:41:50Z</time>
      </trkpt>
      <trkpt lat="48.61624" lon="6.07363">
        <ele>219</ele>
        <time>2020-08-16T07:41:52Z</time>
      </trkpt>
      <trkpt lat="48.6162" lon="6.07373">
        <ele>219</ele>
        <time>2020-08-16T07:41:54Z</time>
      </trkpt>
      <trkpt lat="48.61615" lon="6.07383">
        <ele>219</ele>
        <time>2020-08-16T07:41:56Z</time>
      </trkpt>
      <trkpt lat="48.6161" lon="6.07394">
        <ele>219</ele>
        <time>2020-08-16T07:41:58Z</time>
      </trkpt>
      <trkpt lat="48.61605" lon="6.07404">
        <ele>219</ele>
        <time>2020-08-16T07:42:00Z</time>
      </trkpt>
      <trkpt lat="48.616" lon="6.07414">
        <ele>220</ele>
        <time>2020-08-16T07:42:02Z</time>
      </trkpt>
      <trkpt lat="48.61596" lon="6.07424">
        <ele>219</ele>
        <time>2020-08-16T07:42:04Z</time>
      </trkpt>
      <trkpt lat="48.61591" lon="6.07435">
        <ele>220</ele>
        <time>2020-08-16T07:42:06Z</time>
      </trkpt>
      <trkpt lat="48.61589" lon="6.07444">
        <ele>220</ele>
        <time>2020-08-16T07:42:08Z</time>
      </trkpt>
      <trkpt lat="48.61586" lon="6.07455">
        <ele>220</ele>
        <time>2020-08-16T07:42:10Z</time>
      </trkpt>
      <trkpt lat="48.61583" lon="6.07464">
        <ele>220</ele>
        <time>2020-08-16T07:42:12Z</time>
      </trkpt>
      <trkpt lat="48.61581" lon="6.07471">
        <ele>221</ele>
        <time>2020-08-16T07:42:14Z</time>
      </trkpt>
      <trkpt lat="48.61578" lon="6.07479">
        <ele>221</ele>
        <time>2020-08-16T07:42:17Z</time>
      </trkpt>
      <trkpt lat="48.61577" lon="6.07486">
        <ele>221</ele>
        <time>2020-08-16T07:42:20Z</time>
      </trkpt>
      <trkpt lat="48.61575" lon="6.07493">
        <ele>221</ele>
        <time>2020-08-16T07:42:22Z</time>
      </trkpt>
      <trkpt lat="48.61571" lon="6.07504">
        <ele>220</ele>
        <time>2020-08-16T07:42:24Z</time>
      </trkpt>
      <trkpt lat="48.61569" lon="6.0751">
        <ele>220</ele>
        <time>2020-08-16T07:42:25Z</time>
      </trkpt>
      <trkpt lat="48.61567" lon="6.07516">
        <ele>220</ele>
        <time>2020-08-16T07:42:26Z</time>
      </trkpt>
      <trkpt lat="48.61564" lon="6.07522">
        <ele>220</ele>
        <time>2020-08-16T07:42:27Z</time>
      </trkpt>
      <trkpt lat="48.61559" lon="6.07534">
        <ele>220</ele>
        <time>2020-08-16T07:42:29Z</time>
      </trkpt>
      <trkpt lat="48.61556" lon="6.0754">
        <ele>220</ele>
        <time>2020-08-16T07:42:30Z</time>
      </trkpt>
      <trkpt lat="48.61552" lon="6.07544">
        <ele>220</ele>
        <time>2020-08-16T07:42:31Z</time>
      </trkpt>
      <trkpt lat="48.61548" lon="6.07555">
        <ele>220</ele>
        <time>2020-08-16T07:42:33Z</time>
      </trkpt>
      <trkpt lat="48.61544" lon="6.07566">
        <ele>220</ele>
        <time>2020-08-16T07:42:35Z</time>
      </trkpt>
      <trkpt lat="48.61541" lon="6.07573">
        <ele>220</ele>
        <time>2020-08-16T07:42:36Z</time>
      </trkpt>
      <trkpt lat="48.61537" lon="6.07582">
        <ele>219</ele>
        <time>2020-08-16T07:42:38Z</time>
      </trkpt>
      <trkpt lat="48.61534" lon="6.07588">
        <ele>219</ele>
        <time>2020-08-16T07:42:39Z</time>
      </trkpt>
      <trkpt lat="48.61531" lon="6.07595">
        <ele>219</ele>
        <time>2020-08-16T07:42:41Z</time>
      </trkpt>
      <trkpt lat="48.61527" lon="6.07606">
        <ele>219</ele>
        <time>2020-08-16T07:42:43Z</time>
      </trkpt>
      <trkpt lat="48.6152" lon="6.07624">
        <ele>220</ele>
        <time>2020-08-16T07:42:46Z</time>
      </trkpt>
      <trkpt lat="48.61517" lon="6.07632">
        <ele>220</ele>
        <time>2020-08-16T07:42:48Z</time>
      </trkpt>
      <trkpt lat="48.61514" lon="6.0764">
        <ele>220</ele>
        <time>2020-08-16T07:42:49Z</time>
      </trkpt>
      <trkpt lat="48.61511" lon="6.07645">
        <ele>220</ele>
        <time>2020-08-16T07:42:50Z</time>
      </trkpt>
      <trkpt lat="48.61509" lon="6.07651">
        <ele>220</ele>
        <time>2020-08-16T07:42:51Z</time>
      </trkpt>
      <trkpt lat="48.61505" lon="6.07663">
        <ele>220</ele>
        <time>2020-08-16T07:42:53Z</time>
      </trkpt>
      <trkpt lat="48.61501" lon="6.07675">
        <ele>220</ele>
        <time>2020-08-16T07:42:55Z</time>
      </trkpt>
      <trkpt lat="48.61499" lon="6.07687">
        <ele>220</ele>
        <time>2020-08-16T07:42:57Z</time>
      </trkpt>
      <trkpt lat="48.61495" lon="6.07696">
        <ele>220</ele>
        <time>2020-08-16T07:42:59Z</time>
      </trkpt>
      <trkpt lat="48.61494" lon="6.07705">
        <ele>220</ele>
        <time>2020-08-16T07:43:01Z</time>
      </trkpt>
      <trkpt lat="48.6149" lon="6.07714">
        <ele>221</ele>
        <time>2020-08-16T07:43:03Z</time>
      </trkpt>
      <trkpt lat="48.61487" lon="6.07721">
        <ele>221</ele>
        <time>2020-08-16T07:43:04Z</time>
      </trkpt>
      <trkpt lat="48.61485" lon="6.07731">
        <ele>221</ele>
        <time>2020-08-16T07:43:06Z</time>
      </trkpt>
      <trkpt lat="48.61482" lon="6.07738">
        <ele>221</ele>
        <time>2020-08-16T07:43:07Z</time>
      </trkpt>
      <trkpt lat="48.6148" lon="6.07744">
        <ele>221</ele>
        <time>2020-08-16T07:43:08Z</time>
      </trkpt>
      <trkpt lat="48.61475" lon="6.07755">
        <ele>221</ele>
        <time>2020-08-16T07:43:10Z</time>
      </trkpt>
      <trkpt lat="48.6147" lon="6.07766">
        <ele>222</ele>
        <time>2020-08-16T07:43:12Z</time>
      </trkpt>
      <trkpt lat="48.61468" lon="6.07773">
        <ele>222</ele>
        <time>2020-08-16T07:43:13Z</time>
      </trkpt>
      <trkpt lat="48.61466" lon="6.07778">
        <ele>222</ele>
        <time>2020-08-16T07:43:14Z</time>
      </trkpt>
      <trkpt lat="48.61463" lon="6.07789">
        <ele>222</ele>
        <time>2020-08-16T07:43:16Z</time>
      </trkpt>
      <trkpt lat="48.61459" lon="6.07796">
        <ele>222</ele>
        <time>2020-08-16T07:43:17Z</time>
      </trkpt>
      <trkpt lat="48.61456" lon="6.07801">
        <ele>222</ele>
        <time>2020-08-16T07:43:18Z</time>
      </trkpt>
      <trkpt lat="48.61454" lon="6.07807">
        <ele>222</ele>
        <time>2020-08-16T07:43:19Z</time>
      </trkpt>
      <trkpt lat="48.61446" lon="6.07825">
        <ele>222</ele>
        <time>2020-08-16T07:43:22Z</time>
      </trkpt>
      <trkpt lat="48.61445" lon="6.07832">
        <ele>222</ele>
        <time>2020-08-16T07:43:23Z</time>
      </trkpt>
      <trkpt lat="48.61442" lon="6.07839">
        <ele>222</ele>
        <time>2020-08-16T07:43:24Z</time>
      </trkpt>
      <trkpt lat="48.6144" lon="6.07845">
        <ele>221</ele>
        <time>2020-08-16T07:43:25Z</time>
      </trkpt>
      <trkpt lat="48.61438" lon="6.07851">
        <ele>221</ele>
        <time>2020-08-16T07:43:26Z</time>
      </trkpt>
      <trkpt lat="48.61436" lon="6.07859">
        <ele>221</ele>
        <time>2020-08-16T07:43:27Z</time>
      </trkpt>
      <trkpt lat="48.61433" lon="6.07865">
        <ele>222</ele>
        <time>2020-08-16T07:43:28Z</time>
      </trkpt>
      <trkpt lat="48.6143" lon="6.07871">
        <ele>222</ele>
        <time>2020-08-16T07:43:29Z</time>
      </trkpt>
      <trkpt lat="48.61427" lon="6.07877">
        <ele>222</ele>
        <time>2020-08-16T07:43:30Z</time>
      </trkpt>
      <trkpt lat="48.61425" lon="6.07884">
        <ele>222</ele>
        <time>2020-08-16T07:43:31Z</time>
      </trkpt>
      <trkpt lat="48.61422" lon="6.0789">
        <ele>222</ele>
        <time>2020-08-16T07:43:32Z</time>
      </trkpt>
      <trkpt lat="48.61419" lon="6.07895">
        <ele>222</ele>
        <time>2020-08-16T07:43:33Z</time>
      </trkpt>
      <trkpt lat="48.61416" lon="6.07901">
        <ele>222</ele>
        <time>2020-08-16T07:43:34Z</time>
      </trkpt>
      <trkpt lat="48.61414" lon="6.07907">
        <ele>222</ele>
        <time>2020-08-16T07:43:35Z</time>
      </trkpt>
      <trkpt lat="48.61411" lon="6.07912">
        <ele>222</ele>
        <time>2020-08-16T07:43:36Z</time>
      </trkpt>
      <trkpt lat="48.61407" lon="6.07917">
        <ele>222</ele>
        <time>2020-08-16T07:43:37Z</time>
      </trkpt>
      <trkpt lat="48.61404" lon="6.07923">
        <ele>221</ele>
        <time>2020-08-16T07:43:38Z</time>
      </trkpt>
      <trkpt lat="48.61401" lon="6.07928">
        <ele>221</ele>
        <time>2020-08-16T07:43:39Z</time>
      </trkpt>
      <trkpt lat="48.61399" lon="6.07934">
        <ele>221</ele>
        <time>2020-08-16T07:43:40Z</time>
      </trkpt>
      <trkpt lat="48.61396" lon="6.07941">
        <ele>221</ele>
        <time>2020-08-16T07:43:41Z</time>
      </trkpt>
      <trkpt lat="48.61392" lon="6.07951">
        <ele>221</ele>
        <time>2020-08-16T07:43:43Z</time>
      </trkpt>
      <trkpt lat="48.61389" lon="6.07957">
        <ele>221</ele>
        <time>2020-08-16T07:43:44Z</time>
      </trkpt>
      <trkpt lat="48.61386" lon="6.07964">
        <ele>221</ele>
        <time>2020-08-16T07:43:45Z</time>
      </trkpt>
      <trkpt lat="48.61383" lon="6.07971">
        <ele>220</ele>
        <time>2020-08-16T07:43:46Z</time>
      </trkpt>
      <trkpt lat="48.6138" lon="6.07978">
        <ele>220</ele>
        <time>2020-08-16T07:43:47Z</time>
      </trkpt>
      <trkpt lat="48.61377" lon="6.07985">
        <ele>220</ele>
        <time>2020-08-16T07:43:48Z</time>
      </trkpt>
      <trkpt lat="48.61373" lon="6.07994">
        <ele>220</ele>
        <time>2020-08-16T07:43:49Z</time>
      </trkpt>
      <trkpt lat="48.61371" lon="6.08001">
        <ele>220</ele>
        <time>2020-08-16T07:43:50Z</time>
      </trkpt>
      <trkpt lat="48.61369" lon="6.08009">
        <ele>220</ele>
        <time>2020-08-16T07:43:51Z</time>
      </trkpt>
      <trkpt lat="48.61366" lon="6.08015">
        <ele>220</ele>
        <time>2020-08-16T07:43:52Z</time>
      </trkpt>
      <trkpt lat="48.61363" lon="6.08022">
        <ele>220</ele>
        <time>2020-08-16T07:43:53Z</time>
      </trkpt>
      <trkpt lat="48.61361" lon="6.0803">
        <ele>219</ele>
        <time>2020-08-16T07:43:54Z</time>
      </trkpt>
      <trkpt lat="48.61358" lon="6.08037">
        <ele>219</ele>
        <time>2020-08-16T07:43:55Z</time>
      </trkpt>
      <trkpt lat="48.61356" lon="6.08043">
        <ele>219</ele>
        <time>2020-08-16T07:43:56Z</time>
      </trkpt>
      <trkpt lat="48.61356" lon="6.0805">
        <ele>219</ele>
        <time>2020-08-16T07:43:57Z</time>
      </trkpt>
      <trkpt lat="48.61355" lon="6.08057">
        <ele>219</ele>
        <time>2020-08-16T07:43:58Z</time>
      </trkpt>
      <trkpt lat="48.61354" lon="6.08068">
        <ele>220</ele>
        <time>2020-08-16T07:44:00Z</time>
      </trkpt>
      <trkpt lat="48.6135" lon="6.08077">
        <ele>220</ele>
        <time>2020-08-16T07:44:02Z</time>
      </trkpt>
      <trkpt lat="48.61348" lon="6.08087">
        <ele>221</ele>
        <time>2020-08-16T07:44:04Z</time>
      </trkpt>
      <trkpt lat="48.61348" lon="6.08095">
        <ele>222</ele>
        <time>2020-08-16T07:44:06Z</time>
      </trkpt>
      <trkpt lat="48.61345" lon="6.08106">
        <ele>222</ele>
        <time>2020-08-16T07:44:08Z</time>
      </trkpt>
      <trkpt lat="48.61343" lon="6.08113">
        <ele>222</ele>
        <time>2020-08-16T07:44:09Z</time>
      </trkpt>
      <trkpt lat="48.61339" lon="6.08123">
        <ele>223</ele>
        <time>2020-08-16T07:44:11Z</time>
      </trkpt>
      <trkpt lat="48.61333" lon="6.08141">
        <ele>223</ele>
        <time>2020-08-16T07:44:14Z</time>
      </trkpt>
      <trkpt lat="48.61329" lon="6.08152">
        <ele>223</ele>
        <time>2020-08-16T07:44:16Z</time>
      </trkpt>
      <trkpt lat="48.61326" lon="6.08158">
        <ele>222</ele>
        <time>2020-08-16T07:44:17Z</time>
      </trkpt>
      <trkpt lat="48.61322" lon="6.08169">
        <ele>223</ele>
        <time>2020-08-16T07:44:19Z</time>
      </trkpt>
      <trkpt lat="48.61319" lon="6.08181">
        <ele>222</ele>
        <time>2020-08-16T07:44:21Z</time>
      </trkpt>
      <trkpt lat="48.61314" lon="6.08187">
        <ele>222</ele>
        <time>2020-08-16T07:44:22Z</time>
      </trkpt>
      <trkpt lat="48.61309" lon="6.08197">
        <ele>221</ele>
        <time>2020-08-16T07:44:24Z</time>
      </trkpt>
      <trkpt lat="48.61306" lon="6.08203">
        <ele>221</ele>
        <time>2020-08-16T07:44:25Z</time>
      </trkpt>
      <trkpt lat="48.61304" lon="6.08209">
        <ele>220</ele>
        <time>2020-08-16T07:44:26Z</time>
      </trkpt>
      <trkpt lat="48.61301" lon="6.08216">
        <ele>220</ele>
        <time>2020-08-16T07:44:27Z</time>
      </trkpt>
      <trkpt lat="48.61299" lon="6.08222">
        <ele>220</ele>
        <time>2020-08-16T07:44:28Z</time>
      </trkpt>
      <trkpt lat="48.61294" lon="6.08234">
        <ele>220</ele>
        <time>2020-08-16T07:44:30Z</time>
      </trkpt>
      <trkpt lat="48.61291" lon="6.08241">
        <ele>221</ele>
        <time>2020-08-16T07:44:31Z</time>
      </trkpt>
      <trkpt lat="48.61288" lon="6.08246">
        <ele>221</ele>
        <time>2020-08-16T07:44:32Z</time>
      </trkpt>
      <trkpt lat="48.61284" lon="6.08258">
        <ele>221</ele>
        <time>2020-08-16T07:44:34Z</time>
      </trkpt>
      <trkpt lat="48.61281" lon="6.08265">
        <ele>221</ele>
        <time>2020-08-16T07:44:35Z</time>
      </trkpt>
      <trkpt lat="48.61278" lon="6.0827">
        <ele>220</ele>
        <time>2020-08-16T07:44:36Z</time>
      </trkpt>
      <trkpt lat="48.61276" lon="6.08276">
        <ele>221</ele>
        <time>2020-08-16T07:44:37Z</time>
      </trkpt>
      <trkpt lat="48.61274" lon="6.08283">
        <ele>221</ele>
        <time>2020-08-16T07:44:38Z</time>
      </trkpt>
      <trkpt lat="48.61269" lon="6.08294">
        <ele>221</ele>
        <time>2020-08-16T07:44:40Z</time>
      </trkpt>
      <trkpt lat="48.61265" lon="6.08303">
        <ele>221</ele>
        <time>2020-08-16T07:44:42Z</time>
      </trkpt>
      <trkpt lat="48.61261" lon="6.0831">
        <ele>221</ele>
        <time>2020-08-16T07:44:44Z</time>
      </trkpt>
      <trkpt lat="48.61258" lon="6.08321">
        <ele>221</ele>
        <time>2020-08-16T07:44:46Z</time>
      </trkpt>
      <trkpt lat="48.61256" lon="6.08327">
        <ele>221</ele>
        <time>2020-08-16T07:44:47Z</time>
      </trkpt>
      <trkpt lat="48.61252" lon="6.08337">
        <ele>221</ele>
        <time>2020-08-16T07:44:48Z</time>
      </trkpt>
      <trkpt lat="48.61248" lon="6.08348">
        <ele>221</ele>
        <time>2020-08-16T07:44:50Z</time>
      </trkpt>
      <trkpt lat="48.61242" lon="6.08359">
        <ele>221</ele>
        <time>2020-08-16T07:44:52Z</time>
      </trkpt>
      <trkpt lat="48.61239" lon="6.08365">
        <ele>221</ele>
        <time>2020-08-16T07:44:53Z</time>
      </trkpt>
      <trkpt lat="48.61237" lon="6.08371">
        <ele>220</ele>
        <time>2020-08-16T07:44:54Z</time>
      </trkpt>
      <trkpt lat="48.61233" lon="6.08382">
        <ele>220</ele>
        <time>2020-08-16T07:44:56Z</time>
      </trkpt>
      <trkpt lat="48.61231" lon="6.08388">
        <ele>220</ele>
        <time>2020-08-16T07:44:57Z</time>
      </trkpt>
      <trkpt lat="48.61226" lon="6.084">
        <ele>220</ele>
        <time>2020-08-16T07:44:59Z</time>
      </trkpt>
      <trkpt lat="48.61224" lon="6.08406">
        <ele>220</ele>
        <time>2020-08-16T07:45:00Z</time>
      </trkpt>
      <trkpt lat="48.61223" lon="6.08413">
        <ele>220</ele>
        <time>2020-08-16T07:45:01Z</time>
      </trkpt>
      <trkpt lat="48.61218" lon="6.0843">
        <ele>220</ele>
        <time>2020-08-16T07:45:04Z</time>
      </trkpt>
      <trkpt lat="48.61216" lon="6.08439">
        <ele>221</ele>
        <time>2020-08-16T07:45:06Z</time>
      </trkpt>
      <trkpt lat="48.61214" lon="6.08447">
        <ele>222</ele>
        <time>2020-08-16T07:45:08Z</time>
      </trkpt>
      <trkpt lat="48.6121" lon="6.08459">
        <ele>222</ele>
        <time>2020-08-16T07:45:10Z</time>
      </trkpt>
      <trkpt lat="48.61207" lon="6.08465">
        <ele>222</ele>
        <time>2020-08-16T07:45:11Z</time>
      </trkpt>
      <trkpt lat="48.61205" lon="6.08471">
        <ele>222</ele>
        <time>2020-08-16T07:45:12Z</time>
      </trkpt>
      <trkpt lat="48.61202" lon="6.08478">
        <ele>222</ele>
        <time>2020-08-16T07:45:13Z</time>
      </trkpt>
      <trkpt lat="48.61199" lon="6.08485">
        <ele>221</ele>
        <time>2020-08-16T07:45:14Z</time>
      </trkpt>
      <trkpt lat="48.61197" lon="6.08492">
        <ele>221</ele>
        <time>2020-08-16T07:45:15Z</time>
      </trkpt>
      <trkpt lat="48.61192" lon="6.08503">
        <ele>221</ele>
        <time>2020-08-16T07:45:17Z</time>
      </trkpt>
      <trkpt lat="48.61189" lon="6.08509">
        <ele>221</ele>
        <time>2020-08-16T07:45:18Z</time>
      </trkpt>
      <trkpt lat="48.61184" lon="6.08521">
        <ele>221</ele>
        <time>2020-08-16T07:45:20Z</time>
      </trkpt>
      <trkpt lat="48.61182" lon="6.08527">
        <ele>221</ele>
        <time>2020-08-16T07:45:21Z</time>
      </trkpt>
      <trkpt lat="48.61177" lon="6.08539">
        <ele>220</ele>
        <time>2020-08-16T07:45:23Z</time>
      </trkpt>
      <trkpt lat="48.61174" lon="6.08546">
        <ele>220</ele>
        <time>2020-08-16T07:45:24Z</time>
      </trkpt>
      <trkpt lat="48.61171" lon="6.08552">
        <ele>219</ele>
        <time>2020-08-16T07:45:25Z</time>
      </trkpt>
      <trkpt lat="48.61166" lon="6.08563">
        <ele>219</ele>
        <time>2020-08-16T07:45:27Z</time>
      </trkpt>
      <trkpt lat="48.61164" lon="6.0857">
        <ele>219</ele>
        <time>2020-08-16T07:45:28Z</time>
      </trkpt>
      <trkpt lat="48.61161" lon="6.08575">
        <ele>219</ele>
        <time>2020-08-16T07:45:29Z</time>
      </trkpt>
      <trkpt lat="48.61156" lon="6.08586">
        <ele>219</ele>
        <time>2020-08-16T07:45:31Z</time>
      </trkpt>
      <trkpt lat="48.61155" lon="6.08593">
        <ele>220</ele>
        <time>2020-08-16T07:45:32Z</time>
      </trkpt>
      <trkpt lat="48.6115" lon="6.08603">
        <ele>220</ele>
        <time>2020-08-16T07:45:34Z</time>
      </trkpt>
      <trkpt lat="48.61147" lon="6.08613">
        <ele>219</ele>
        <time>2020-08-16T07:45:36Z</time>
      </trkpt>
      <trkpt lat="48.61141" lon="6.08623">
        <ele>219</ele>
        <time>2020-08-16T07:45:38Z</time>
      </trkpt>
      <trkpt lat="48.61139" lon="6.08629">
        <ele>219</ele>
        <time>2020-08-16T07:45:39Z</time>
      </trkpt>
      <trkpt lat="48.61132" lon="6.08639">
        <ele>219</ele>
        <time>2020-08-16T07:45:41Z</time>
      </trkpt>
      <trkpt lat="48.61126" lon="6.08651">
        <ele>219</ele>
        <time>2020-08-16T07:45:43Z</time>
      </trkpt>
      <trkpt lat="48.6112" lon="6.0866">
        <ele>220</ele>
        <time>2020-08-16T07:45:45Z</time>
      </trkpt>
      <trkpt lat="48.61115" lon="6.08669">
        <ele>220</ele>
        <time>2020-08-16T07:45:47Z</time>
      </trkpt>
      <trkpt lat="48.6111" lon="6.0868">
        <ele>220</ele>
        <time>2020-08-16T07:45:49Z</time>
      </trkpt>
      <trkpt lat="48.61108" lon="6.08686">
        <ele>220</ele>
        <time>2020-08-16T07:45:50Z</time>
      </trkpt>
      <trkpt lat="48.61105" lon="6.08692">
        <ele>220</ele>
        <time>2020-08-16T07:45:51Z</time>
      </trkpt>
      <trkpt lat="48.61102" lon="6.08697">
        <ele>219</ele>
        <time>2020-08-16T07:45:52Z</time>
      </trkpt>
      <trkpt lat="48.61097" lon="6.08707">
        <ele>220</ele>
        <time>2020-08-16T07:45:54Z</time>
      </trkpt>
      <trkpt lat="48.61092" lon="6.08718">
        <ele>220</ele>
        <time>2020-08-16T07:45:56Z</time>
      </trkpt>
      <trkpt lat="48.61089" lon="6.08723">
        <ele>220</ele>
        <time>2020-08-16T07:45:57Z</time>
      </trkpt>
      <trkpt lat="48.61087" lon="6.08729">
        <ele>220</ele>
        <time>2020-08-16T07:45:58Z</time>
      </trkpt>
      <trkpt lat="48.61084" lon="6.08735">
        <ele>220</ele>
        <time>2020-08-16T07:45:59Z</time>
      </trkpt>
      <trkpt lat="48.61079" lon="6.08744">
        <ele>219</ele>
        <time>2020-08-16T07:46:01Z</time>
      </trkpt>
      <trkpt lat="48.61076" lon="6.08752">
        <ele>219</ele>
        <time>2020-08-16T07:46:03Z</time>
      </trkpt>
      <trkpt lat="48.61071" lon="6.08762">
        <ele>219</ele>
        <time>2020-08-16T07:46:05Z</time>
      </trkpt>
      <trkpt lat="48.61068" lon="6.08769">
        <ele>219</ele>
        <time>2020-08-16T07:46:07Z</time>
      </trkpt>
      <trkpt lat="48.61064" lon="6.08778">
        <ele>219</ele>
        <time>2020-08-16T07:46:09Z</time>
      </trkpt>
      <trkpt lat="48.6106" lon="6.08787">
        <ele>219</ele>
        <time>2020-08-16T07:46:11Z</time>
      </trkpt>
      <trkpt lat="48.61055" lon="6.08796">
        <ele>219</ele>
        <time>2020-08-16T07:46:13Z</time>
      </trkpt>
      <trkpt lat="48.61052" lon="6.08807">
        <ele>219</ele>
        <time>2020-08-16T07:46:15Z</time>
      </trkpt>
      <trkpt lat="48.61047" lon="6.08818">
        <ele>220</ele>
        <time>2020-08-16T07:46:17Z</time>
      </trkpt>
      <trkpt lat="48.61044" lon="6.08828">
        <ele>220</ele>
        <time>2020-08-16T07:46:19Z</time>
      </trkpt>
      <trkpt lat="48.61042" lon="6.08833">
        <ele>220</ele>
        <time>2020-08-16T07:46:20Z</time>
      </trkpt>
      <trkpt lat="48.61037" lon="6.08845">
        <ele>221</ele>
        <time>2020-08-16T07:46:22Z</time>
      </trkpt>
      <trkpt lat="48.61031" lon="6.08862">
        <ele>223</ele>
        <time>2020-08-16T07:46:25Z</time>
      </trkpt>
      <trkpt lat="48.61028" lon="6.08872">
        <ele>222</ele>
        <time>2020-08-16T07:46:27Z</time>
      </trkpt>
      <trkpt lat="48.61025" lon="6.08878">
        <ele>222</ele>
        <time>2020-08-16T07:46:28Z</time>
      </trkpt>
      <trkpt lat="48.61023" lon="6.08885">
        <ele>221</ele>
        <time>2020-08-16T07:46:29Z</time>
      </trkpt>
      <trkpt lat="48.6102" lon="6.08897">
        <ele>221</ele>
        <time>2020-08-16T07:46:31Z</time>
      </trkpt>
      <trkpt lat="48.61016" lon="6.08907">
        <ele>221</ele>
        <time>2020-08-16T07:46:33Z</time>
      </trkpt>
      <trkpt lat="48.61013" lon="6.08917">
        <ele>220</ele>
        <time>2020-08-16T07:46:35Z</time>
      </trkpt>
      <trkpt lat="48.6101" lon="6.08928">
        <ele>220</ele>
        <time>2020-08-16T07:46:37Z</time>
      </trkpt>
      <trkpt lat="48.61007" lon="6.08935">
        <ele>220</ele>
        <time>2020-08-16T07:46:39Z</time>
      </trkpt>
      <trkpt lat="48.61004" lon="6.08941">
        <ele>220</ele>
        <time>2020-08-16T07:46:41Z</time>
      </trkpt>
      <trkpt lat="48.61001" lon="6.08949">
        <ele>220</ele>
        <time>2020-08-16T07:46:43Z</time>
      </trkpt>
      <trkpt lat="48.60999" lon="6.08957">
        <ele>220</ele>
        <time>2020-08-16T07:46:45Z</time>
      </trkpt>
      <trkpt lat="48.60995" lon="6.08966">
        <ele>220</ele>
        <time>2020-08-16T07:46:47Z</time>
      </trkpt>
      <trkpt lat="48.60991" lon="6.08976">
        <ele>220</ele>
        <time>2020-08-16T07:46:49Z</time>
      </trkpt>
      <trkpt lat="48.60987" lon="6.08986">
        <ele>220</ele>
        <time>2020-08-16T07:46:51Z</time>
      </trkpt>
      <trkpt lat="48.60982" lon="6.08996">
        <ele>221</ele>
        <time>2020-08-16T07:46:53Z</time>
      </trkpt>
      <trkpt lat="48.60978" lon="6.09004">
        <ele>221</ele>
        <time>2020-08-16T07:46:55Z</time>
      </trkpt>
      <trkpt lat="48.60975" lon="6.09011">
        <ele>222</ele>
        <time>2020-08-16T07:46:57Z</time>
      </trkpt>
      <trkpt lat="48.60971" lon="6.09017">
        <ele>222</ele>
        <time>2020-08-16T07:46:59Z</time>
      </trkpt>
      <trkpt lat="48.60971" lon="6.09024">
        <ele>222</ele>
        <time>2020-08-16T07:47:03Z</time>
      </trkpt>
      <trkpt lat="48.60975" lon="6.09027">
        <ele>222</ele>
        <time>2020-08-16T07:47:07Z</time>
      </trkpt>
      <trkpt lat="48.6098" lon="6.09034">
        <ele>221</ele>
        <time>2020-08-16T07:47:11Z</time>
      </trkpt>
      <trkpt lat="48.60984" lon="6.09039">
        <ele>219</ele>
        <time>2020-08-16T07:47:13Z</time>
      </trkpt>
      <trkpt lat="48.60988" lon="6.09043">
        <ele>216</ele>
        <time>2020-08-16T07:47:15Z</time>
      </trkpt>
      <trkpt lat="48.60993" lon="6.09049">
        <ele>215</ele>
        <time>2020-08-16T07:47:17Z</time>
      </trkpt>
      <trkpt lat="48.60999" lon="6.09054">
        <ele>215</ele>
        <time>2020-08-16T07:47:19Z</time>
      </trkpt>
      <trkpt lat="48.61003" lon="6.0906">
        <ele>215</ele>
        <time>2020-08-16T07:47:21Z</time>
      </trkpt>
      <trkpt lat="48.61009" lon="6.09065">
        <ele>215</ele>
        <time>2020-08-16T07:47:23Z</time>
      </trkpt>
      <trkpt lat="48.61014" lon="6.0907">
        <ele>217</ele>
        <time>2020-08-16T07:47:25Z</time>
      </trkpt>
      <trkpt lat="48.6102" lon="6.09074">
        <ele>221</ele>
        <time>2020-08-16T07:47:27Z</time>
      </trkpt>
      <trkpt lat="48.61026" lon="6.09082">
        <ele>222</ele>
        <time>2020-08-16T07:47:29Z</time>
      </trkpt>
      <trkpt lat="48.6103" lon="6.09088">
        <ele>221</ele>
        <time>2020-08-16T07:47:33Z</time>
      </trkpt>
      <trkpt lat="48.61034" lon="6.09091">
        <ele>221</ele>
        <time>2020-08-16T07:47:45Z</time>
      </trkpt>
      <trkpt lat="48.61037" lon="6.09082">
        <ele>221</ele>
        <time>2020-08-16T07:47:54Z</time>
      </trkpt>
      <trkpt lat="48.6104" lon="6.09073">
        <ele>221</ele>
        <time>2020-08-16T07:47:56Z</time>
      </trkpt>
      <trkpt lat="48.61043" lon="6.0906">
        <ele>221</ele>
        <time>2020-08-16T07:47:58Z</time>
      </trkpt>
      <trkpt lat="48.61046" lon="6.09052">
        <ele>221</ele>
        <time>2020-08-16T07:47:59Z</time>
      </trkpt>
      <trkpt lat="48.61048" lon="6.09045">
        <ele>220</ele>
        <time>2020-08-16T07:48:00Z</time>
      </trkpt>
      <trkpt lat="48.61052" lon="6.09036">
        <ele>220</ele>
        <time>2020-08-16T07:48:01Z</time>
      </trkpt>
      <trkpt lat="48.61056" lon="6.09027">
        <ele>219</ele>
        <time>2020-08-16T07:48:02Z</time>
      </trkpt>
      <trkpt lat="48.61059" lon="6.0902">
        <ele>219</ele>
        <time>2020-08-16T07:48:03Z</time>
      </trkpt>
      <trkpt lat="48.61064" lon="6.09014">
        <ele>218</ele>
        <time>2020-08-16T07:48:04Z</time>
      </trkpt>
      <trkpt lat="48.6107" lon="6.09008">
        <ele>218</ele>
        <time>2020-08-16T07:48:05Z</time>
      </trkpt>
      <trkpt lat="48.61074" lon="6.09003">
        <ele>218</ele>
        <time>2020-08-16T07:48:06Z</time>
      </trkpt>
      <trkpt lat="48.6108" lon="6.08997">
        <ele>218</ele>
        <time>2020-08-16T07:48:07Z</time>
      </trkpt>
      <trkpt lat="48.61086" lon="6.08991">
        <ele>217</ele>
        <time>2020-08-16T07:48:08Z</time>
      </trkpt>
      <trkpt lat="48.6109" lon="6.08987">
        <ele>217</ele>
        <time>2020-08-16T07:48:09Z</time>
      </trkpt>
      <trkpt lat="48.61095" lon="6.08982">
        <ele>217</ele>
        <time>2020-08-16T07:48:10Z</time>
      </trkpt>
      <trkpt lat="48.61101" lon="6.08978">
        <ele>218</ele>
        <time>2020-08-16T07:48:11Z</time>
      </trkpt>
      <trkpt lat="48.61107" lon="6.08975">
        <ele>218</ele>
        <time>2020-08-16T07:48:12Z</time>
      </trkpt>
      <trkpt lat="48.61112" lon="6.08974">
        <ele>218</ele>
        <time>2020-08-16T07:48:13Z</time>
      </trkpt>
      <trkpt lat="48.61117" lon="6.08974">
        <ele>218</ele>
        <time>2020-08-16T07:48:14Z</time>
      </trkpt>
      <trkpt lat="48.61122" lon="6.08975">
        <ele>218</ele>
        <time>2020-08-16T07:48:15Z</time>
      </trkpt>
      <trkpt lat="48.61127" lon="6.08976">
        <ele>218</ele>
        <time>2020-08-16T07:48:16Z</time>
      </trkpt>
      <trkpt lat="48.61132" lon="6.08977">
        <ele>218</ele>
        <time>2020-08-16T07:48:17Z</time>
      </trkpt>
      <trkpt lat="48.61137" lon="6.08978">
        <ele>218</ele>
        <time>2020-08-16T07:48:18Z</time>
      </trkpt>
      <trkpt lat="48.61145" lon="6.08983">
        <ele>218</ele>
        <time>2020-08-16T07:48:20Z</time>
      </trkpt>
      <trkpt lat="48.6115" lon="6.08985">
        <ele>218</ele>
        <time>2020-08-16T07:48:21Z</time>
      </trkpt>
      <trkpt lat="48.61154" lon="6.08988">
        <ele>218</ele>
        <time>2020-08-16T07:48:22Z</time>
      </trkpt>
      <trkpt lat="48.61158" lon="6.08992">
        <ele>218</ele>
        <time>2020-08-16T07:48:23Z</time>
      </trkpt>
      <trkpt lat="48.61163" lon="6.09002">
        <ele>218</ele>
        <time>2020-08-16T07:48:25Z</time>
      </trkpt>
      <trkpt lat="48.61164" lon="6.09013">
        <ele>218</ele>
        <time>2020-08-16T07:48:27Z</time>
      </trkpt>
      <trkpt lat="48.61161" lon="6.09022">
        <ele>218</ele>
        <time>2020-08-16T07:48:29Z</time>
      </trkpt>
      <trkpt lat="48.61157" lon="6.09032">
        <ele>218</ele>
        <time>2020-08-16T07:48:31Z</time>
      </trkpt>
      <trkpt lat="48.61153" lon="6.09041">
        <ele>218</ele>
        <time>2020-08-16T07:48:33Z</time>
      </trkpt>
      <trkpt lat="48.61149" lon="6.0905">
        <ele>219</ele>
        <time>2020-08-16T07:48:35Z</time>
      </trkpt>
      <trkpt lat="48.61144" lon="6.09059">
        <ele>219</ele>
        <time>2020-08-16T07:48:37Z</time>
      </trkpt>
      <trkpt lat="48.6114" lon="6.09067">
        <ele>219</ele>
        <time>2020-08-16T07:48:39Z</time>
      </trkpt>
      <trkpt lat="48.61136" lon="6.09077">
        <ele>220</ele>
        <time>2020-08-16T07:48:41Z</time>
      </trkpt>
      <trkpt lat="48.61129" lon="6.09085">
        <ele>220</ele>
        <time>2020-08-16T07:48:43Z</time>
      </trkpt>
      <trkpt lat="48.61124" lon="6.09094">
        <ele>220</ele>
        <time>2020-08-16T07:48:45Z</time>
      </trkpt>
      <trkpt lat="48.6112" lon="6.09104">
        <ele>219</ele>
        <time>2020-08-16T07:48:47Z</time>
      </trkpt>
      <trkpt lat="48.61115" lon="6.09115">
        <ele>220</ele>
        <time>2020-08-16T07:48:49Z</time>
      </trkpt>
      <trkpt lat="48.61112" lon="6.09121">
        <ele>220</ele>
        <time>2020-08-16T07:48:50Z</time>
      </trkpt>
      <trkpt lat="48.6111" lon="6.09127">
        <ele>220</ele>
        <time>2020-08-16T07:48:51Z</time>
      </trkpt>
      <trkpt lat="48.61107" lon="6.09138">
        <ele>220</ele>
        <time>2020-08-16T07:48:53Z</time>
      </trkpt>
      <trkpt lat="48.61102" lon="6.09148">
        <ele>219</ele>
        <time>2020-08-16T07:48:55Z</time>
      </trkpt>
      <trkpt lat="48.61096" lon="6.09159">
        <ele>219</ele>
        <time>2020-08-16T07:48:57Z</time>
      </trkpt>
      <trkpt lat="48.61091" lon="6.09169">
        <ele>219</ele>
        <time>2020-08-16T07:48:59Z</time>
      </trkpt>
      <trkpt lat="48.61087" lon="6.0918">
        <ele>219</ele>
        <time>2020-08-16T07:49:01Z</time>
      </trkpt>
      <trkpt lat="48.61083" lon="6.09191">
        <ele>219</ele>
        <time>2020-08-16T07:49:03Z</time>
      </trkpt>
      <trkpt lat="48.6108" lon="6.09197">
        <ele>219</ele>
        <time>2020-08-16T07:49:04Z</time>
      </trkpt>
      <trkpt lat="48.61075" lon="6.09207">
        <ele>218</ele>
        <time>2020-08-16T07:49:06Z</time>
      </trkpt>
      <trkpt lat="48.61072" lon="6.09213">
        <ele>218</ele>
        <time>2020-08-16T07:49:07Z</time>
      </trkpt>
      <trkpt lat="48.61068" lon="6.09224">
        <ele>217</ele>
        <time>2020-08-16T07:49:09Z</time>
      </trkpt>
      <trkpt lat="48.61066" lon="6.09231">
        <ele>217</ele>
        <time>2020-08-16T07:49:10Z</time>
      </trkpt>
      <trkpt lat="48.61063" lon="6.09236">
        <ele>217</ele>
        <time>2020-08-16T07:49:11Z</time>
      </trkpt>
      <trkpt lat="48.61058" lon="6.09245">
        <ele>217</ele>
        <time>2020-08-16T07:49:13Z</time>
      </trkpt>
      <trkpt lat="48.61053" lon="6.09255">
        <ele>217</ele>
        <time>2020-08-16T07:49:15Z</time>
      </trkpt>
      <trkpt lat="48.61048" lon="6.09265">
        <ele>217</ele>
        <time>2020-08-16T07:49:17Z</time>
      </trkpt>
      <trkpt lat="48.61043" lon="6.09275">
        <ele>217</ele>
        <time>2020-08-16T07:49:19Z</time>
      </trkpt>
      <trkpt lat="48.61039" lon="6.09286">
        <ele>217</ele>
        <time>2020-08-16T07:49:21Z</time>
      </trkpt>
      <trkpt lat="48.61036" lon="6.09291">
        <ele>217</ele>
        <time>2020-08-16T07:49:22Z</time>
      </trkpt>
      <trkpt lat="48.61031" lon="6.09302">
        <ele>217</ele>
        <time>2020-08-16T07:49:24Z</time>
      </trkpt>
      <trkpt lat="48.61027" lon="6.09312">
        <ele>218</ele>
        <time>2020-08-16T07:49:26Z</time>
      </trkpt>
      <trkpt lat="48.61024" lon="6.09318">
        <ele>218</ele>
        <time>2020-08-16T07:49:27Z</time>
      </trkpt>
      <trkpt lat="48.61021" lon="6.09325">
        <ele>218</ele>
        <time>2020-08-16T07:49:28Z</time>
      </trkpt>
      <trkpt lat="48.61018" lon="6.0933">
        <ele>218</ele>
        <time>2020-08-16T07:49:29Z</time>
      </trkpt>
      <trkpt lat="48.61013" lon="6.0934">
        <ele>219</ele>
        <time>2020-08-16T07:49:31Z</time>
      </trkpt>
      <trkpt lat="48.61011" lon="6.09347">
        <ele>219</ele>
        <time>2020-08-16T07:49:32Z</time>
      </trkpt>
      <trkpt lat="48.61008" lon="6.09353">
        <ele>219</ele>
        <time>2020-08-16T07:49:33Z</time>
      </trkpt>
      <trkpt lat="48.61006" lon="6.09359">
        <ele>219</ele>
        <time>2020-08-16T07:49:34Z</time>
      </trkpt>
      <trkpt lat="48.61002" lon="6.09369">
        <ele>219</ele>
        <time>2020-08-16T07:49:36Z</time>
      </trkpt>
      <trkpt lat="48.60999" lon="6.09375">
        <ele>219</ele>
        <time>2020-08-16T07:49:37Z</time>
      </trkpt>
      <trkpt lat="48.60993" lon="6.09385">
        <ele>219</ele>
        <time>2020-08-16T07:49:39Z</time>
      </trkpt>
      <trkpt lat="48.60988" lon="6.09395">
        <ele>219</ele>
        <time>2020-08-16T07:49:41Z</time>
      </trkpt>
      <trkpt lat="48.60985" lon="6.09401">
        <ele>218</ele>
        <time>2020-08-16T07:49:42Z</time>
      </trkpt>
      <trkpt lat="48.60983" lon="6.09411">
        <ele>218</ele>
        <time>2020-08-16T07:49:44Z</time>
      </trkpt>
      <trkpt lat="48.6098" lon="6.09417">
        <ele>218</ele>
        <time>2020-08-16T07:49:45Z</time>
      </trkpt>
      <trkpt lat="48.60976" lon="6.0943">
        <ele>218</ele>
        <time>2020-08-16T07:49:47Z</time>
      </trkpt>
      <trkpt lat="48.60973" lon="6.09436">
        <ele>218</ele>
        <time>2020-08-16T07:49:48Z</time>
      </trkpt>
      <trkpt lat="48.60965" lon="6.09452">
        <ele>218</ele>
        <time>2020-08-16T07:49:51Z</time>
      </trkpt>
      <trkpt lat="48.60962" lon="6.09458">
        <ele>218</ele>
        <time>2020-08-16T07:49:52Z</time>
      </trkpt>
      <trkpt lat="48.6096" lon="6.09463">
        <ele>218</ele>
        <time>2020-08-16T07:49:53Z</time>
      </trkpt>
      <trkpt lat="48.60954" lon="6.09473">
        <ele>218</ele>
        <time>2020-08-16T07:49:55Z</time>
      </trkpt>
      <trkpt lat="48.6095" lon="6.09484">
        <ele>218</ele>
        <time>2020-08-16T07:49:57Z</time>
      </trkpt>
      <trkpt lat="48.60948" lon="6.09491">
        <ele>218</ele>
        <time>2020-08-16T07:49:58Z</time>
      </trkpt>
      <trkpt lat="48.60945" lon="6.09496">
        <ele>219</ele>
        <time>2020-08-16T07:49:59Z</time>
      </trkpt>
      <trkpt lat="48.60941" lon="6.09501">
        <ele>219</ele>
        <time>2020-08-16T07:50:00Z</time>
      </trkpt>
      <trkpt lat="48.60936" lon="6.09511">
        <ele>219</ele>
        <time>2020-08-16T07:50:02Z</time>
      </trkpt>
      <trkpt lat="48.60933" lon="6.09517">
        <ele>219</ele>
        <time>2020-08-16T07:50:03Z</time>
      </trkpt>
      <trkpt lat="48.60928" lon="6.09527">
        <ele>219</ele>
        <time>2020-08-16T07:50:05Z</time>
      </trkpt>
      <trkpt lat="48.60925" lon="6.09533">
        <ele>219</ele>
        <time>2020-08-16T07:50:06Z</time>
      </trkpt>
      <trkpt lat="48.60921" lon="6.09544">
        <ele>219</ele>
        <time>2020-08-16T07:50:08Z</time>
      </trkpt>
      <trkpt lat="48.60918" lon="6.0955">
        <ele>219</ele>
        <time>2020-08-16T07:50:09Z</time>
      </trkpt>
      <trkpt lat="48.60914" lon="6.09562">
        <ele>219</ele>
        <time>2020-08-16T07:50:11Z</time>
      </trkpt>
      <trkpt lat="48.6091" lon="6.09573">
        <ele>219</ele>
        <time>2020-08-16T07:50:13Z</time>
      </trkpt>
      <trkpt lat="48.60907" lon="6.09581">
        <ele>219</ele>
        <time>2020-08-16T07:50:14Z</time>
      </trkpt>
      <trkpt lat="48.60904" lon="6.09586">
        <ele>219</ele>
        <time>2020-08-16T07:50:15Z</time>
      </trkpt>
      <trkpt lat="48.60901" lon="6.09593">
        <ele>220</ele>
        <time>2020-08-16T07:50:16Z</time>
      </trkpt>
      <trkpt lat="48.60899" lon="6.096">
        <ele>220</ele>
        <time>2020-08-16T07:50:17Z</time>
      </trkpt>
      <trkpt lat="48.60895" lon="6.09612">
        <ele>220</ele>
        <time>2020-08-16T07:50:19Z</time>
      </trkpt>
      <trkpt lat="48.60892" lon="6.09623">
        <ele>220</ele>
        <time>2020-08-16T07:50:21Z</time>
      </trkpt>
      <trkpt lat="48.60888" lon="6.09635">
        <ele>219</ele>
        <time>2020-08-16T07:50:23Z</time>
      </trkpt>
      <trkpt lat="48.60885" lon="6.09641">
        <ele>219</ele>
        <time>2020-08-16T07:50:24Z</time>
      </trkpt>
      <trkpt lat="48.60879" lon="6.09658">
        <ele>220</ele>
        <time>2020-08-16T07:50:27Z</time>
      </trkpt>
      <trkpt lat="48.60877" lon="6.09664">
        <ele>220</ele>
        <time>2020-08-16T07:50:28Z</time>
      </trkpt>
      <trkpt lat="48.60874" lon="6.0967">
        <ele>220</ele>
        <time>2020-08-16T07:50:29Z</time>
      </trkpt>
      <trkpt lat="48.6087" lon="6.09682">
        <ele>220</ele>
        <time>2020-08-16T07:50:31Z</time>
      </trkpt>
      <trkpt lat="48.60867" lon="6.09691">
        <ele>219</ele>
        <time>2020-08-16T07:50:33Z</time>
      </trkpt>
      <trkpt lat="48.60863" lon="6.09702">
        <ele>220</ele>
        <time>2020-08-16T07:50:35Z</time>
      </trkpt>
      <trkpt lat="48.6086" lon="6.09708">
        <ele>219</ele>
        <time>2020-08-16T07:50:36Z</time>
      </trkpt>
      <trkpt lat="48.60858" lon="6.09714">
        <ele>219</ele>
        <time>2020-08-16T07:50:37Z</time>
      </trkpt>
      <trkpt lat="48.60856" lon="6.09721">
        <ele>220</ele>
        <time>2020-08-16T07:50:38Z</time>
      </trkpt>
      <trkpt lat="48.60853" lon="6.09728">
        <ele>220</ele>
        <time>2020-08-16T07:50:39Z</time>
      </trkpt>
      <trkpt lat="48.60851" lon="6.0974">
        <ele>220</ele>
        <time>2020-08-16T07:50:41Z</time>
      </trkpt>
      <trkpt lat="48.60849" lon="6.09746">
        <ele>220</ele>
        <time>2020-08-16T07:50:42Z</time>
      </trkpt>
      <trkpt lat="48.60847" lon="6.09753">
        <ele>220</ele>
        <time>2020-08-16T07:50:43Z</time>
      </trkpt>
      <trkpt lat="48.60844" lon="6.0976">
        <ele>220</ele>
        <time>2020-08-16T07:50:44Z</time>
      </trkpt>
      <trkpt lat="48.6084" lon="6.09771">
        <ele>220</ele>
        <time>2020-08-16T07:50:46Z</time>
      </trkpt>
      <trkpt lat="48.60838" lon="6.09783">
        <ele>218</ele>
        <time>2020-08-16T07:50:48Z</time>
      </trkpt>
      <trkpt lat="48.60835" lon="6.09789">
        <ele>219</ele>
        <time>2020-08-16T07:50:49Z</time>
      </trkpt>
      <trkpt lat="48.60832" lon="6.09794">
        <ele>219</ele>
        <time>2020-08-16T07:50:50Z</time>
      </trkpt>
      <trkpt lat="48.6083" lon="6.098">
        <ele>219</ele>
        <time>2020-08-16T07:50:51Z</time>
      </trkpt>
      <trkpt lat="48.60827" lon="6.09807">
        <ele>219</ele>
        <time>2020-08-16T07:50:52Z</time>
      </trkpt>
      <trkpt lat="48.60823" lon="6.09818">
        <ele>219</ele>
        <time>2020-08-16T07:50:54Z</time>
      </trkpt>
      <trkpt lat="48.6082" lon="6.0983">
        <ele>218</ele>
        <time>2020-08-16T07:50:56Z</time>
      </trkpt>
      <trkpt lat="48.60817" lon="6.09836">
        <ele>218</ele>
        <time>2020-08-16T07:50:57Z</time>
      </trkpt>
      <trkpt lat="48.60815" lon="6.09842">
        <ele>219</ele>
        <time>2020-08-16T07:50:58Z</time>
      </trkpt>
      <trkpt lat="48.60813" lon="6.09849">
        <ele>218</ele>
        <time>2020-08-16T07:50:59Z</time>
      </trkpt>
      <trkpt lat="48.60811" lon="6.0986">
        <ele>218</ele>
        <time>2020-08-16T07:51:01Z</time>
      </trkpt>
      <trkpt lat="48.60809" lon="6.09867">
        <ele>218</ele>
        <time>2020-08-16T07:51:02Z</time>
      </trkpt>
      <trkpt lat="48.60805" lon="6.09878">
        <ele>218</ele>
        <time>2020-08-16T07:51:04Z</time>
      </trkpt>
      <trkpt lat="48.60803" lon="6.09884">
        <ele>218</ele>
        <time>2020-08-16T07:51:05Z</time>
      </trkpt>
      <trkpt lat="48.60801" lon="6.0989">
        <ele>218</ele>
        <time>2020-08-16T07:51:06Z</time>
      </trkpt>
      <trkpt lat="48.60799" lon="6.09897">
        <ele>218</ele>
        <time>2020-08-16T07:51:07Z</time>
      </trkpt>
      <trkpt lat="48.60796" lon="6.09903">
        <ele>218</ele>
        <time>2020-08-16T07:51:08Z</time>
      </trkpt>
      <trkpt lat="48.60794" lon="6.09909">
        <ele>218</ele>
        <time>2020-08-16T07:51:09Z</time>
      </trkpt>
      <trkpt lat="48.60791" lon="6.09921">
        <ele>218</ele>
        <time>2020-08-16T07:51:11Z</time>
      </trkpt>
      <trkpt lat="48.60791" lon="6.09928">
        <ele>218</ele>
        <time>2020-08-16T07:51:12Z</time>
      </trkpt>
      <trkpt lat="48.60787" lon="6.09938">
        <ele>218</ele>
        <time>2020-08-16T07:51:14Z</time>
      </trkpt>
      <trkpt lat="48.60783" lon="6.09949">
        <ele>218</ele>
        <time>2020-08-16T07:51:16Z</time>
      </trkpt>
      <trkpt lat="48.6078" lon="6.09959">
        <ele>218</ele>
        <time>2020-08-16T07:51:18Z</time>
      </trkpt>
      <trkpt lat="48.60777" lon="6.09965">
        <ele>218</ele>
        <time>2020-08-16T07:51:20Z</time>
      </trkpt>
      <trkpt lat="48.60776" lon="6.09974">
        <ele>218</ele>
        <time>2020-08-16T07:51:23Z</time>
      </trkpt>
      <trkpt lat="48.60773" lon="6.09981">
        <ele>218</ele>
        <time>2020-08-16T07:51:25Z</time>
      </trkpt>
      <trkpt lat="48.60772" lon="6.09988">
        <ele>218</ele>
        <time>2020-08-16T07:51:27Z</time>
      </trkpt>
      <trkpt lat="48.6077" lon="6.09995">
        <ele>219</ele>
        <time>2020-08-16T07:51:29Z</time>
      </trkpt>
      <trkpt lat="48.60767" lon="6.10003">
        <ele>219</ele>
        <time>2020-08-16T07:51:32Z</time>
      </trkpt>
      <trkpt lat="48.60764" lon="6.10008">
        <ele>220</ele>
        <time>2020-08-16T07:51:36Z</time>
      </trkpt>
      <trkpt lat="48.60761" lon="6.10014">
        <ele>220</ele>
        <time>2020-08-16T07:51:39Z</time>
      </trkpt>
      <trkpt lat="48.60761" lon="6.10022">
        <ele>220</ele>
        <time>2020-08-16T07:51:41Z</time>
      </trkpt>
      <trkpt lat="48.60764" lon="6.10028">
        <ele>220</ele>
        <time>2020-08-16T07:51:43Z</time>
      </trkpt>
      <trkpt lat="48.60764" lon="6.10039">
        <ele>220</ele>
        <time>2020-08-16T07:51:46Z</time>
      </trkpt>
      <trkpt lat="48.60762" lon="6.10049">
        <ele>220</ele>
        <time>2020-08-16T07:51:48Z</time>
      </trkpt>
      <trkpt lat="48.60761" lon="6.10061">
        <ele>219</ele>
        <time>2020-08-16T07:51:50Z</time>
      </trkpt>
      <trkpt lat="48.60759" lon="6.10072">
        <ele>219</ele>
        <time>2020-08-16T07:51:52Z</time>
      </trkpt>
      <trkpt lat="48.60758" lon="6.10081">
        <ele>218</ele>
        <time>2020-08-16T07:51:54Z</time>
      </trkpt>
      <trkpt lat="48.60756" lon="6.10091">
        <ele>218</ele>
        <time>2020-08-16T07:52:48Z</time>
      </trkpt>
      <trkpt lat="48.60755" lon="6.101">
        <ele>218</ele>
        <time>2020-08-16T07:52:50Z</time>
      </trkpt>
      <trkpt lat="48.60754" lon="6.1011">
        <ele>217</ele>
        <time>2020-08-16T07:52:52Z</time>
      </trkpt>
      <trkpt lat="48.60753" lon="6.10121">
        <ele>217</ele>
        <time>2020-08-16T07:52:54Z</time>
      </trkpt>
      <trkpt lat="48.60751" lon="6.10134">
        <ele>217</ele>
        <time>2020-08-16T07:52:56Z</time>
      </trkpt>
      <trkpt lat="48.6075" lon="6.10141">
        <ele>217</ele>
        <time>2020-08-16T07:52:57Z</time>
      </trkpt>
      <trkpt lat="48.60749" lon="6.10154">
        <ele>216</ele>
        <time>2020-08-16T07:52:59Z</time>
      </trkpt>
      <trkpt lat="48.60749" lon="6.10161">
        <ele>216</ele>
        <time>2020-08-16T07:53:00Z</time>
      </trkpt>
      <trkpt lat="48.60749" lon="6.1017">
        <ele>215</ele>
        <time>2020-08-16T07:53:01Z</time>
      </trkpt>
      <trkpt lat="48.60748" lon="6.10177">
        <ele>215</ele>
        <time>2020-08-16T07:53:02Z</time>
      </trkpt>
      <trkpt lat="48.60747" lon="6.10185">
        <ele>215</ele>
        <time>2020-08-16T07:53:03Z</time>
      </trkpt>
      <trkpt lat="48.60745" lon="6.10199">
        <ele>216</ele>
        <time>2020-08-16T07:53:05Z</time>
      </trkpt>
      <trkpt lat="48.60744" lon="6.10209">
        <ele>215</ele>
        <time>2020-08-16T07:53:06Z</time>
      </trkpt>
      <trkpt lat="48.60743" lon="6.10217">
        <ele>216</ele>
        <time>2020-08-16T07:53:07Z</time>
      </trkpt>
      <trkpt lat="48.60742" lon="6.10227">
        <ele>216</ele>
        <time>2020-08-16T07:53:08Z</time>
      </trkpt>
      <trkpt lat="48.60741" lon="6.10237">
        <ele>216</ele>
        <time>2020-08-16T07:53:09Z</time>
      </trkpt>
      <trkpt lat="48.60741" lon="6.10246">
        <ele>216</ele>
        <time>2020-08-16T07:53:10Z</time>
      </trkpt>
      <trkpt lat="48.60741" lon="6.10255">
        <ele>216</ele>
        <time>2020-08-16T07:53:11Z</time>
      </trkpt>
      <trkpt lat="48.60739" lon="6.10263">
        <ele>216</ele>
        <time>2020-08-16T07:53:12Z</time>
      </trkpt>
      <trkpt lat="48.60738" lon="6.10273">
        <ele>216</ele>
        <time>2020-08-16T07:53:13Z</time>
      </trkpt>
      <trkpt lat="48.60735" lon="6.10282">
        <ele>216</ele>
        <time>2020-08-16T07:53:14Z</time>
      </trkpt>
      <trkpt lat="48.60733" lon="6.10292">
        <ele>217</ele>
        <time>2020-08-16T07:53:15Z</time>
      </trkpt>
      <trkpt lat="48.60731" lon="6.10302">
        <ele>217</ele>
        <time>2020-08-16T07:53:16Z</time>
      </trkpt>
      <trkpt lat="48.6073" lon="6.10311">
        <ele>217</ele>
        <time>2020-08-16T07:53:17Z</time>
      </trkpt>
      <trkpt lat="48.60728" lon="6.1032">
        <ele>217</ele>
        <time>2020-08-16T07:53:18Z</time>
      </trkpt>
      <trkpt lat="48.60724" lon="6.10329">
        <ele>218</ele>
        <time>2020-08-16T07:53:19Z</time>
      </trkpt>
      <trkpt lat="48.60722" lon="6.10337">
        <ele>220</ele>
        <time>2020-08-16T07:53:20Z</time>
      </trkpt>
      <trkpt lat="48.60719" lon="6.10344">
        <ele>221</ele>
        <time>2020-08-16T07:53:21Z</time>
      </trkpt>
      <trkpt lat="48.60717" lon="6.10352">
        <ele>220</ele>
        <time>2020-08-16T07:53:22Z</time>
      </trkpt>
      <trkpt lat="48.60714" lon="6.10361">
        <ele>220</ele>
        <time>2020-08-16T07:53:23Z</time>
      </trkpt>
      <trkpt lat="48.60712" lon="6.10369">
        <ele>219</ele>
        <time>2020-08-16T07:53:24Z</time>
      </trkpt>
      <trkpt lat="48.60711" lon="6.10379">
        <ele>220</ele>
        <time>2020-08-16T07:53:25Z</time>
      </trkpt>
      <trkpt lat="48.60709" lon="6.10387">
        <ele>220</ele>
        <time>2020-08-16T07:53:26Z</time>
      </trkpt>
      <trkpt lat="48.60708" lon="6.10398">
        <ele>220</ele>
        <time>2020-08-16T07:53:27Z</time>
      </trkpt>
      <trkpt lat="48.60706" lon="6.10406">
        <ele>220</ele>
        <time>2020-08-16T07:53:28Z</time>
      </trkpt>
      <trkpt lat="48.60703" lon="6.10413">
        <ele>220</ele>
        <time>2020-08-16T07:53:29Z</time>
      </trkpt>
      <trkpt lat="48.60701" lon="6.10419">
        <ele>220</ele>
        <time>2020-08-16T07:53:30Z</time>
      </trkpt>
      <trkpt lat="48.60699" lon="6.10425">
        <ele>220</ele>
        <time>2020-08-16T07:53:31Z</time>
      </trkpt>
      <trkpt lat="48.60696" lon="6.10431">
        <ele>220</ele>
        <time>2020-08-16T07:53:32Z</time>
      </trkpt>
      <trkpt lat="48.60691" lon="6.10441">
        <ele>220</ele>
        <time>2020-08-16T07:53:34Z</time>
      </trkpt>
      <trkpt lat="48.60688" lon="6.10449">
        <ele>221</ele>
        <time>2020-08-16T07:53:36Z</time>
      </trkpt>
      <trkpt lat="48.60686" lon="6.10456">
        <ele>221</ele>
        <time>2020-08-16T07:53:38Z</time>
      </trkpt>
      <trkpt lat="48.60683" lon="6.10463">
        <ele>221</ele>
        <time>2020-08-16T07:53:40Z</time>
      </trkpt>
      <trkpt lat="48.6068" lon="6.10469">
        <ele>221</ele>
        <time>2020-08-16T07:53:42Z</time>
      </trkpt>
      <trkpt lat="48.60676" lon="6.10478">
        <ele>221</ele>
        <time>2020-08-16T07:53:44Z</time>
      </trkpt>
      <trkpt lat="48.60674" lon="6.10488">
        <ele>221</ele>
        <time>2020-08-16T07:53:46Z</time>
      </trkpt>
      <trkpt lat="48.60672" lon="6.105">
        <ele>220</ele>
        <time>2020-08-16T07:53:48Z</time>
      </trkpt>
      <trkpt lat="48.60671" lon="6.10508">
        <ele>220</ele>
        <time>2020-08-16T07:53:49Z</time>
      </trkpt>
      <trkpt lat="48.60669" lon="6.10514">
        <ele>220</ele>
        <time>2020-08-16T07:53:50Z</time>
      </trkpt>
      <trkpt lat="48.60667" lon="6.10522">
        <ele>220</ele>
        <time>2020-08-16T07:53:51Z</time>
      </trkpt>
      <trkpt lat="48.60666" lon="6.1053">
        <ele>220</ele>
        <time>2020-08-16T07:53:52Z</time>
      </trkpt>
      <trkpt lat="48.60664" lon="6.10536">
        <ele>220</ele>
        <time>2020-08-16T07:53:53Z</time>
      </trkpt>
      <trkpt lat="48.60661" lon="6.10548">
        <ele>220</ele>
        <time>2020-08-16T07:53:55Z</time>
      </trkpt>
      <trkpt lat="48.60659" lon="6.10554">
        <ele>220</ele>
        <time>2020-08-16T07:53:56Z</time>
      </trkpt>
      <trkpt lat="48.60659" lon="6.10568">
        <ele>220</ele>
        <time>2020-08-16T07:53:58Z</time>
      </trkpt>
      <trkpt lat="48.60659" lon="6.10574">
        <ele>220</ele>
        <time>2020-08-16T07:53:59Z</time>
      </trkpt>
      <trkpt lat="48.6066" lon="6.10582">
        <ele>220</ele>
        <time>2020-08-16T07:54:00Z</time>
      </trkpt>
      <trkpt lat="48.60659" lon="6.1059">
        <ele>220</ele>
        <time>2020-08-16T07:54:01Z</time>
      </trkpt>
      <trkpt lat="48.60659" lon="6.106">
        <ele>220</ele>
        <time>2020-08-16T07:54:03Z</time>
      </trkpt>
      <trkpt lat="48.60658" lon="6.10608">
        <ele>220</ele>
        <time>2020-08-16T07:54:04Z</time>
      </trkpt>
      <trkpt lat="48.60659" lon="6.10615">
        <ele>220</ele>
        <time>2020-08-16T07:54:05Z</time>
      </trkpt>
      <trkpt lat="48.60659" lon="6.10628">
        <ele>220</ele>
        <time>2020-08-16T07:54:07Z</time>
      </trkpt>
      <trkpt lat="48.60658" lon="6.10641">
        <ele>220</ele>
        <time>2020-08-16T07:54:09Z</time>
      </trkpt>
      <trkpt lat="48.6066" lon="6.1066">
        <ele>220</ele>
        <time>2020-08-16T07:54:12Z</time>
      </trkpt>
      <trkpt lat="48.60661" lon="6.10667">
        <ele>220</ele>
        <time>2020-08-16T07:54:13Z</time>
      </trkpt>
      <trkpt lat="48.60661" lon="6.10674">
        <ele>220</ele>
        <time>2020-08-16T07:54:14Z</time>
      </trkpt>
      <trkpt lat="48.60661" lon="6.10681">
        <ele>220</ele>
        <time>2020-08-16T07:54:15Z</time>
      </trkpt>
      <trkpt lat="48.60661" lon="6.10688">
        <ele>220</ele>
        <time>2020-08-16T07:54:16Z</time>
      </trkpt>
      <trkpt lat="48.60661" lon="6.10696">
        <ele>220</ele>
        <time>2020-08-16T07:54:17Z</time>
      </trkpt>
      <trkpt lat="48.60659" lon="6.10703">
        <ele>220</ele>
        <time>2020-08-16T07:54:18Z</time>
      </trkpt>
      <trkpt lat="48.60659" lon="6.1071">
        <ele>220</ele>
        <time>2020-08-16T07:54:19Z</time>
      </trkpt>
      <trkpt lat="48.60659" lon="6.10719">
        <ele>220</ele>
        <time>2020-08-16T07:54:20Z</time>
      </trkpt>
      <trkpt lat="48.60657" lon="6.10726">
        <ele>220</ele>
        <time>2020-08-16T07:54:21Z</time>
      </trkpt>
      <trkpt lat="48.60656" lon="6.10732">
        <ele>220</ele>
        <time>2020-08-16T07:54:22Z</time>
      </trkpt>
      <trkpt lat="48.60654" lon="6.10743">
        <ele>220</ele>
        <time>2020-08-16T07:54:24Z</time>
      </trkpt>
      <trkpt lat="48.60648" lon="6.10753">
        <ele>220</ele>
        <time>2020-08-16T07:54:26Z</time>
      </trkpt>
      <trkpt lat="48.60642" lon="6.1076">
        <ele>221</ele>
        <time>2020-08-16T07:54:28Z</time>
      </trkpt>
      <trkpt lat="48.60638" lon="6.10767">
        <ele>221</ele>
        <time>2020-08-16T07:54:30Z</time>
      </trkpt>
      <trkpt lat="48.60632" lon="6.10772">
        <ele>222</ele>
        <time>2020-08-16T07:54:32Z</time>
      </trkpt>
      <trkpt lat="48.60629" lon="6.10778">
        <ele>222</ele>
        <time>2020-08-16T07:54:34Z</time>
      </trkpt>
      <trkpt lat="48.60625" lon="6.10783">
        <ele>222</ele>
        <time>2020-08-16T07:54:36Z</time>
      </trkpt>
      <trkpt lat="48.60619" lon="6.10789">
        <ele>222</ele>
        <time>2020-08-16T07:54:38Z</time>
      </trkpt>
      <trkpt lat="48.60615" lon="6.10794">
        <ele>222</ele>
        <time>2020-08-16T07:54:40Z</time>
      </trkpt>
      <trkpt lat="48.60609" lon="6.10791">
        <ele>221</ele>
        <time>2020-08-16T07:54:43Z</time>
      </trkpt>
      <trkpt lat="48.60611" lon="6.10784">
        <ele>221</ele>
        <time>2020-08-16T07:54:45Z</time>
      </trkpt>
      <trkpt lat="48.60611" lon="6.10777">
        <ele>222</ele>
        <time>2020-08-16T07:54:47Z</time>
      </trkpt>
      <trkpt lat="48.60609" lon="6.10769">
        <ele>222</ele>
        <time>2020-08-16T07:54:49Z</time>
      </trkpt>
      <trkpt lat="48.60606" lon="6.10762">
        <ele>222</ele>
        <time>2020-08-16T07:54:51Z</time>
      </trkpt>
      <trkpt lat="48.60598" lon="6.10757">
        <ele>222</ele>
        <time>2020-08-16T07:54:53Z</time>
      </trkpt>
      <trkpt lat="48.60589" lon="6.10755">
        <ele>222</ele>
        <time>2020-08-16T07:54:55Z</time>
      </trkpt>
      <trkpt lat="48.60584" lon="6.10755">
        <ele>221</ele>
        <time>2020-08-16T07:54:56Z</time>
      </trkpt>
      <trkpt lat="48.60577" lon="6.10755">
        <ele>221</ele>
        <time>2020-08-16T07:54:57Z</time>
      </trkpt>
      <trkpt lat="48.60571" lon="6.10756">
        <ele>221</ele>
        <time>2020-08-16T07:54:58Z</time>
      </trkpt>
      <trkpt lat="48.60564" lon="6.10757">
        <ele>220</ele>
        <time>2020-08-16T07:54:59Z</time>
      </trkpt>
      <trkpt lat="48.60559" lon="6.10762">
        <ele>219</ele>
        <time>2020-08-16T07:55:00Z</time>
      </trkpt>
      <trkpt lat="48.60553" lon="6.10766">
        <ele>219</ele>
        <time>2020-08-16T07:55:01Z</time>
      </trkpt>
      <trkpt lat="48.60547" lon="6.10771">
        <ele>219</ele>
        <time>2020-08-16T07:55:02Z</time>
      </trkpt>
      <trkpt lat="48.60542" lon="6.10777">
        <ele>219</ele>
        <time>2020-08-16T07:55:03Z</time>
      </trkpt>
      <trkpt lat="48.60537" lon="6.10782">
        <ele>220</ele>
        <time>2020-08-16T07:55:04Z</time>
      </trkpt>
      <trkpt lat="48.60533" lon="6.10786">
        <ele>220</ele>
        <time>2020-08-16T07:55:05Z</time>
      </trkpt>
      <trkpt lat="48.60527" lon="6.10794">
        <ele>220</ele>
        <time>2020-08-16T07:55:07Z</time>
      </trkpt>
      <trkpt lat="48.60523" lon="6.108">
        <ele>219</ele>
        <time>2020-08-16T07:55:09Z</time>
      </trkpt>
      <trkpt lat="48.60517" lon="6.108">
        <ele>219</ele>
        <time>2020-08-16T07:55:11Z</time>
      </trkpt>
      <trkpt lat="48.60511" lon="6.10795">
        <ele>219</ele>
        <time>2020-08-16T07:55:14Z</time>
      </trkpt>
      <trkpt lat="48.60506" lon="6.10798">
        <ele>220</ele>
        <time>2020-08-16T07:55:16Z</time>
      </trkpt>
      <trkpt lat="48.60502" lon="6.10801">
        <ele>220</ele>
        <time>2020-08-16T07:55:18Z</time>
      </trkpt>
      <trkpt lat="48.60496" lon="6.10806">
        <ele>220</ele>
        <time>2020-08-16T07:55:20Z</time>
      </trkpt>
      <trkpt lat="48.60492" lon="6.10813">
        <ele>220</ele>
        <time>2020-08-16T07:55:22Z</time>
      </trkpt>
      <trkpt lat="48.60487" lon="6.1082">
        <ele>220</ele>
        <time>2020-08-16T07:55:24Z</time>
      </trkpt>
      <trkpt lat="48.60482" lon="6.10825">
        <ele>220</ele>
        <time>2020-08-16T07:55:26Z</time>
      </trkpt>
      <trkpt lat="48.60479" lon="6.1083">
        <ele>220</ele>
        <time>2020-08-16T07:55:27Z</time>
      </trkpt>
      <trkpt lat="48.60472" lon="6.10836">
        <ele>220</ele>
        <time>2020-08-16T07:55:29Z</time>
      </trkpt>
      <trkpt lat="48.60466" lon="6.10845">
        <ele>220</ele>
        <time>2020-08-16T07:55:31Z</time>
      </trkpt>
      <trkpt lat="48.60462" lon="6.1085">
        <ele>220</ele>
        <time>2020-08-16T07:55:32Z</time>
      </trkpt>
      <trkpt lat="48.60458" lon="6.10855">
        <ele>219</ele>
        <time>2020-08-16T07:55:33Z</time>
      </trkpt>
      <trkpt lat="48.60455" lon="6.10863">
        <ele>219</ele>
        <time>2020-08-16T07:55:35Z</time>
      </trkpt>
      <trkpt lat="48.6045" lon="6.10872">
        <ele>220</ele>
        <time>2020-08-16T07:55:37Z</time>
      </trkpt>
      <trkpt lat="48.60444" lon="6.10883">
        <ele>220</ele>
        <time>2020-08-16T07:55:39Z</time>
      </trkpt>
      <trkpt lat="48.6044" lon="6.10893">
        <ele>220</ele>
        <time>2020-08-16T07:55:41Z</time>
      </trkpt>
      <trkpt lat="48.60436" lon="6.10903">
        <ele>220</ele>
        <time>2020-08-16T07:55:43Z</time>
      </trkpt>
      <trkpt lat="48.60433" lon="6.10915">
        <ele>220</ele>
        <time>2020-08-16T07:55:45Z</time>
      </trkpt>
      <trkpt lat="48.60432" lon="6.10927">
        <ele>221</ele>
        <time>2020-08-16T07:55:47Z</time>
      </trkpt>
      <trkpt lat="48.60431" lon="6.10938">
        <ele>221</ele>
        <time>2020-08-16T07:55:49Z</time>
      </trkpt>
      <trkpt lat="48.60432" lon="6.10949">
        <ele>221</ele>
        <time>2020-08-16T07:55:51Z</time>
      </trkpt>
      <trkpt lat="48.60432" lon="6.1096">
        <ele>221</ele>
        <time>2020-08-16T07:55:53Z</time>
      </trkpt>
      <trkpt lat="48.60432" lon="6.10971">
        <ele>221</ele>
        <time>2020-08-16T07:55:55Z</time>
      </trkpt>
      <trkpt lat="48.60432" lon="6.10982">
        <ele>221</ele>
        <time>2020-08-16T07:55:57Z</time>
      </trkpt>
      <trkpt lat="48.60433" lon="6.10993">
        <ele>221</ele>
        <time>2020-08-16T07:55:59Z</time>
      </trkpt>
      <trkpt lat="48.60432" lon="6.11002">
        <ele>221</ele>
        <time>2020-08-16T07:56:01Z</time>
      </trkpt>
      <trkpt lat="48.60431" lon="6.11012">
        <ele>221</ele>
        <time>2020-08-16T07:56:03Z</time>
      </trkpt>
      <trkpt lat="48.60431" lon="6.11024">
        <ele>221</ele>
        <time>2020-08-16T07:56:05Z</time>
      </trkpt>
      <trkpt lat="48.6043" lon="6.11031">
        <ele>220</ele>
        <time>2020-08-16T07:56:06Z</time>
      </trkpt>
      <trkpt lat="48.60431" lon="6.11044">
        <ele>220</ele>
        <time>2020-08-16T07:56:08Z</time>
      </trkpt>
      <trkpt lat="48.60432" lon="6.11051">
        <ele>220</ele>
        <time>2020-08-16T07:56:09Z</time>
      </trkpt>
      <trkpt lat="48.60434" lon="6.1106">
        <ele>220</ele>
        <time>2020-08-16T07:56:10Z</time>
      </trkpt>
      <trkpt lat="48.60435" lon="6.11073">
        <ele>219</ele>
        <time>2020-08-16T07:56:12Z</time>
      </trkpt>
      <trkpt lat="48.60436" lon="6.1108">
        <ele>219</ele>
        <time>2020-08-16T07:56:13Z</time>
      </trkpt>
      <trkpt lat="48.60439" lon="6.11086">
        <ele>220</ele>
        <time>2020-08-16T07:56:14Z</time>
      </trkpt>
      <trkpt lat="48.60442" lon="6.11097">
        <ele>220</ele>
        <time>2020-08-16T07:56:16Z</time>
      </trkpt>
      <trkpt lat="48.60444" lon="6.11105">
        <ele>220</ele>
        <time>2020-08-16T07:56:17Z</time>
      </trkpt>
      <trkpt lat="48.60445" lon="6.11112">
        <ele>220</ele>
        <time>2020-08-16T07:56:18Z</time>
      </trkpt>
      <trkpt lat="48.60449" lon="6.11124">
        <ele>220</ele>
        <time>2020-08-16T07:56:20Z</time>
      </trkpt>
      <trkpt lat="48.60453" lon="6.11135">
        <ele>220</ele>
        <time>2020-08-16T07:56:22Z</time>
      </trkpt>
      <trkpt lat="48.60457" lon="6.11147">
        <ele>220</ele>
        <time>2020-08-16T07:56:24Z</time>
      </trkpt>
      <trkpt lat="48.60458" lon="6.11153">
        <ele>221</ele>
        <time>2020-08-16T07:56:25Z</time>
      </trkpt>
      <trkpt lat="48.60463" lon="6.11163">
        <ele>221</ele>
        <time>2020-08-16T07:56:27Z</time>
      </trkpt>
      <trkpt lat="48.60468" lon="6.11173">
        <ele>221</ele>
        <time>2020-08-16T07:56:29Z</time>
      </trkpt>
      <trkpt lat="48.60472" lon="6.11184">
        <ele>221</ele>
        <time>2020-08-16T07:56:31Z</time>
      </trkpt>
      <trkpt lat="48.60477" lon="6.11194">
        <ele>222</ele>
        <time>2020-08-16T07:56:33Z</time>
      </trkpt>
      <trkpt lat="48.60481" lon="6.11204">
        <ele>222</ele>
        <time>2020-08-16T07:56:35Z</time>
      </trkpt>
      <trkpt lat="48.60486" lon="6.11214">
        <ele>222</ele>
        <time>2020-08-16T07:56:37Z</time>
      </trkpt>
      <trkpt lat="48.60491" lon="6.11225">
        <ele>221</ele>
        <time>2020-08-16T07:56:39Z</time>
      </trkpt>
      <trkpt lat="48.60496" lon="6.11235">
        <ele>221</ele>
        <time>2020-08-16T07:56:41Z</time>
      </trkpt>
      <trkpt lat="48.60501" lon="6.11246">
        <ele>222</ele>
        <time>2020-08-16T07:56:43Z</time>
      </trkpt>
      <trkpt lat="48.60505" lon="6.11257">
        <ele>222</ele>
        <time>2020-08-16T07:56:45Z</time>
      </trkpt>
      <trkpt lat="48.60508" lon="6.11268">
        <ele>222</ele>
        <time>2020-08-16T07:56:47Z</time>
      </trkpt>
      <trkpt lat="48.60512" lon="6.11279">
        <ele>221</ele>
        <time>2020-08-16T07:56:49Z</time>
      </trkpt>
      <trkpt lat="48.60514" lon="6.1129">
        <ele>221</ele>
        <time>2020-08-16T07:56:51Z</time>
      </trkpt>
      <trkpt lat="48.60518" lon="6.11301">
        <ele>222</ele>
        <time>2020-08-16T07:56:53Z</time>
      </trkpt>
      <trkpt lat="48.60519" lon="6.11312">
        <ele>222</ele>
        <time>2020-08-16T07:56:55Z</time>
      </trkpt>
      <trkpt lat="48.60523" lon="6.11322">
        <ele>222</ele>
        <time>2020-08-16T07:56:57Z</time>
      </trkpt>
      <trkpt lat="48.60526" lon="6.11333">
        <ele>222</ele>
        <time>2020-08-16T07:56:59Z</time>
      </trkpt>
      <trkpt lat="48.6053" lon="6.11342">
        <ele>222</ele>
        <time>2020-08-16T07:57:01Z</time>
      </trkpt>
      <trkpt lat="48.60533" lon="6.1135">
        <ele>222</ele>
        <time>2020-08-16T07:57:03Z</time>
      </trkpt>
      <trkpt lat="48.60538" lon="6.11356">
        <ele>223</ele>
        <time>2020-08-16T07:57:05Z</time>
      </trkpt>
      <trkpt lat="48.60542" lon="6.11363">
        <ele>223</ele>
        <time>2020-08-16T07:57:07Z</time>
      </trkpt>
      <trkpt lat="48.60546" lon="6.1137">
        <ele>222</ele>
        <time>2020-08-16T07:57:09Z</time>
      </trkpt>
      <trkpt lat="48.6055" lon="6.11375">
        <ele>222</ele>
        <time>2020-08-16T07:57:11Z</time>
      </trkpt>
      <trkpt lat="48.60554" lon="6.11381">
        <ele>222</ele>
        <time>2020-08-16T07:57:13Z</time>
      </trkpt>
      <trkpt lat="48.60557" lon="6.11389">
        <ele>222</ele>
        <time>2020-08-16T07:57:15Z</time>
      </trkpt>
      <trkpt lat="48.60562" lon="6.11395">
        <ele>223</ele>
        <time>2020-08-16T07:57:17Z</time>
      </trkpt>
      <trkpt lat="48.60568" lon="6.114">
        <ele>224</ele>
        <time>2020-08-16T07:57:19Z</time>
      </trkpt>
      <trkpt lat="48.60572" lon="6.11406">
        <ele>224</ele>
        <time>2020-08-16T07:57:21Z</time>
      </trkpt>
      <trkpt lat="48.60577" lon="6.11411">
        <ele>225</ele>
        <time>2020-08-16T07:57:23Z</time>
      </trkpt>
      <trkpt lat="48.60583" lon="6.11416">
        <ele>225</ele>
        <time>2020-08-16T07:57:25Z</time>
      </trkpt>
      <trkpt lat="48.60588" lon="6.11422">
        <ele>225</ele>
        <time>2020-08-16T07:57:27Z</time>
      </trkpt>
      <trkpt lat="48.60593" lon="6.11428">
        <ele>226</ele>
        <time>2020-08-16T07:57:29Z</time>
      </trkpt>
      <trkpt lat="48.60599" lon="6.11435">
        <ele>226</ele>
        <time>2020-08-16T07:57:31Z</time>
      </trkpt>
      <trkpt lat="48.60603" lon="6.1144">
        <ele>226</ele>
        <time>2020-08-16T07:57:33Z</time>
      </trkpt>
      <trkpt lat="48.60609" lon="6.11446">
        <ele>227</ele>
        <time>2020-08-16T07:57:35Z</time>
      </trkpt>
      <trkpt lat="48.60617" lon="6.11449">
        <ele>226</ele>
        <time>2020-08-16T07:57:37Z</time>
      </trkpt>
      <trkpt lat="48.60622" lon="6.11455">
        <ele>226</ele>
        <time>2020-08-16T07:57:39Z</time>
      </trkpt>
      <trkpt lat="48.60626" lon="6.11461">
        <ele>226</ele>
        <time>2020-08-16T07:57:41Z</time>
      </trkpt>
      <trkpt lat="48.6063" lon="6.1147">
        <ele>225</ele>
        <time>2020-08-16T07:57:43Z</time>
      </trkpt>
      <trkpt lat="48.60633" lon="6.11475">
        <ele>225</ele>
        <time>2020-08-16T07:57:45Z</time>
      </trkpt>
      <trkpt lat="48.60638" lon="6.1148">
        <ele>225</ele>
        <time>2020-08-16T07:57:47Z</time>
      </trkpt>
      <trkpt lat="48.60643" lon="6.11482">
        <ele>224</ele>
        <time>2020-08-16T07:57:48Z</time>
      </trkpt>
      <trkpt lat="48.60646" lon="6.11488">
        <ele>224</ele>
        <time>2020-08-16T07:57:50Z</time>
      </trkpt>
      <trkpt lat="48.6065" lon="6.11495">
        <ele>223</ele>
        <time>2020-08-16T07:57:53Z</time>
      </trkpt>
      <trkpt lat="48.60655" lon="6.115">
        <ele>223</ele>
        <time>2020-08-16T07:57:55Z</time>
      </trkpt>
      <trkpt lat="48.60659" lon="6.11505">
        <ele>222</ele>
        <time>2020-08-16T07:57:57Z</time>
      </trkpt>
      <trkpt lat="48.60663" lon="6.11508">
        <ele>222</ele>
        <time>2020-08-16T07:57:59Z</time>
      </trkpt>
      <trkpt lat="48.60667" lon="6.11512">
        <ele>223</ele>
        <time>2020-08-16T07:58:06Z</time>
      </trkpt>
      <trkpt lat="48.6067" lon="6.11517">
        <ele>223</ele>
        <time>2020-08-16T07:58:52Z</time>
      </trkpt>
      <trkpt lat="48.60674" lon="6.1152">
        <ele>223</ele>
        <time>2020-08-16T07:58:54Z</time>
      </trkpt>
      <trkpt lat="48.6068" lon="6.11526">
        <ele>222</ele>
        <time>2020-08-16T07:58:57Z</time>
      </trkpt>
      <trkpt lat="48.60683" lon="6.11531">
        <ele>222</ele>
        <time>2020-08-16T07:58:59Z</time>
      </trkpt>
      <trkpt lat="48.60687" lon="6.11538">
        <ele>222</ele>
        <time>2020-08-16T07:59:01Z</time>
      </trkpt>
      <trkpt lat="48.6069" lon="6.11545">
        <ele>222</ele>
        <time>2020-08-16T07:59:03Z</time>
      </trkpt>
      <trkpt lat="48.60693" lon="6.11552">
        <ele>222</ele>
        <time>2020-08-16T07:59:05Z</time>
      </trkpt>
      <trkpt lat="48.60696" lon="6.1156">
        <ele>221</ele>
        <time>2020-08-16T07:59:07Z</time>
      </trkpt>
      <trkpt lat="48.607" lon="6.11567">
        <ele>221</ele>
        <time>2020-08-16T07:59:09Z</time>
      </trkpt>
      <trkpt lat="48.60703" lon="6.11574">
        <ele>220</ele>
        <time>2020-08-16T07:59:11Z</time>
      </trkpt>
      <trkpt lat="48.60706" lon="6.11583">
        <ele>220</ele>
        <time>2020-08-16T07:59:13Z</time>
      </trkpt>
      <trkpt lat="48.6071" lon="6.11592">
        <ele>221</ele>
        <time>2020-08-16T07:59:15Z</time>
      </trkpt>
      <trkpt lat="48.60715" lon="6.11602">
        <ele>223</ele>
        <time>2020-08-16T07:59:17Z</time>
      </trkpt>
      <trkpt lat="48.60719" lon="6.11611">
        <ele>224</ele>
        <time>2020-08-16T07:59:19Z</time>
      </trkpt>
      <trkpt lat="48.60721" lon="6.11618">
        <ele>224</ele>
        <time>2020-08-16T07:59:21Z</time>
      </trkpt>
      <trkpt lat="48.60725" lon="6.11629">
        <ele>224</ele>
        <time>2020-08-16T07:59:23Z</time>
      </trkpt>
      <trkpt lat="48.60729" lon="6.11638">
        <ele>223</ele>
        <time>2020-08-16T07:59:25Z</time>
      </trkpt>
      <trkpt lat="48.60733" lon="6.11648">
        <ele>223</ele>
        <time>2020-08-16T07:59:27Z</time>
      </trkpt>
      <trkpt lat="48.60736" lon="6.11659">
        <ele>222</ele>
        <time>2020-08-16T07:59:29Z</time>
      </trkpt>
      <trkpt lat="48.60741" lon="6.1167">
        <ele>222</ele>
        <time>2020-08-16T07:59:31Z</time>
      </trkpt>
      <trkpt lat="48.60746" lon="6.1168">
        <ele>222</ele>
        <time>2020-08-16T07:59:33Z</time>
      </trkpt>
      <trkpt lat="48.60749" lon="6.11691">
        <ele>221</ele>
        <time>2020-08-16T07:59:35Z</time>
      </trkpt>
      <trkpt lat="48.60754" lon="6.11701">
        <ele>221</ele>
        <time>2020-08-16T07:59:37Z</time>
      </trkpt>
      <trkpt lat="48.60758" lon="6.11712">
        <ele>221</ele>
        <time>2020-08-16T07:59:39Z</time>
      </trkpt>
      <trkpt lat="48.60762" lon="6.11722">
        <ele>221</ele>
        <time>2020-08-16T07:59:41Z</time>
      </trkpt>
      <trkpt lat="48.60767" lon="6.11732">
        <ele>221</ele>
        <time>2020-08-16T07:59:43Z</time>
      </trkpt>
      <trkpt lat="48.60771" lon="6.11743">
        <ele>221</ele>
        <time>2020-08-16T07:59:45Z</time>
      </trkpt>
      <trkpt lat="48.60775" lon="6.11753">
        <ele>222</ele>
        <time>2020-08-16T07:59:47Z</time>
      </trkpt>
      <trkpt lat="48.6078" lon="6.11764">
        <ele>221</ele>
        <time>2020-08-16T07:59:49Z</time>
      </trkpt>
      <trkpt lat="48.60784" lon="6.11774">
        <ele>221</ele>
        <time>2020-08-16T07:59:51Z</time>
      </trkpt>
      <trkpt lat="48.60788" lon="6.11784">
        <ele>221</ele>
        <time>2020-08-16T07:59:53Z</time>
      </trkpt>
      <trkpt lat="48.60792" lon="6.11795">
        <ele>221</ele>
        <time>2020-08-16T07:59:55Z</time>
      </trkpt>
      <trkpt lat="48.60796" lon="6.11806">
        <ele>221</ele>
        <time>2020-08-16T07:59:57Z</time>
      </trkpt>
      <trkpt lat="48.60798" lon="6.11818">
        <ele>221</ele>
        <time>2020-08-16T07:59:59Z</time>
      </trkpt>
      <trkpt lat="48.608" lon="6.1183">
        <ele>221</ele>
        <time>2020-08-16T08:00:01Z</time>
      </trkpt>
      <trkpt lat="48.60801" lon="6.11843">
        <ele>222</ele>
        <time>2020-08-16T08:00:03Z</time>
      </trkpt>
      <trkpt lat="48.60802" lon="6.11855">
        <ele>222</ele>
        <time>2020-08-16T08:00:05Z</time>
      </trkpt>
      <trkpt lat="48.60802" lon="6.11867">
        <ele>222</ele>
        <time>2020-08-16T08:00:07Z</time>
      </trkpt>
      <trkpt lat="48.60802" lon="6.11879">
        <ele>222</ele>
        <time>2020-08-16T08:00:09Z</time>
      </trkpt>
      <trkpt lat="48.60802" lon="6.11891">
        <ele>222</ele>
        <time>2020-08-16T08:00:11Z</time>
      </trkpt>
      <trkpt lat="48.60803" lon="6.11903">
        <ele>222</ele>
        <time>2020-08-16T08:00:13Z</time>
      </trkpt>
      <trkpt lat="48.60803" lon="6.11914">
        <ele>222</ele>
        <time>2020-08-16T08:00:15Z</time>
      </trkpt>
      <trkpt lat="48.60804" lon="6.11927">
        <ele>222</ele>
        <time>2020-08-16T08:00:17Z</time>
      </trkpt>
      <trkpt lat="48.60806" lon="6.11939">
        <ele>222</ele>
        <time>2020-08-16T08:00:19Z</time>
      </trkpt>
      <trkpt lat="48.60808" lon="6.11951">
        <ele>222</ele>
        <time>2020-08-16T08:00:21Z</time>
      </trkpt>
      <trkpt lat="48.60809" lon="6.11964">
        <ele>222</ele>
        <time>2020-08-16T08:00:23Z</time>
      </trkpt>
      <trkpt lat="48.60811" lon="6.11976">
        <ele>222</ele>
        <time>2020-08-16T08:00:25Z</time>
      </trkpt>
      <trkpt lat="48.60813" lon="6.11988">
        <ele>222</ele>
        <time>2020-08-16T08:00:27Z</time>
      </trkpt>
      <trkpt lat="48.60814" lon="6.12001">
        <ele>222</ele>
        <time>2020-08-16T08:00:29Z</time>
      </trkpt>
      <trkpt lat="48.60816" lon="6.12014">
        <ele>222</ele>
        <time>2020-08-16T08:00:31Z</time>
      </trkpt>
      <trkpt lat="48.60818" lon="6.12027">
        <ele>222</ele>
        <time>2020-08-16T08:00:33Z</time>
      </trkpt>
      <trkpt lat="48.6082" lon="6.1204">
        <ele>222</ele>
        <time>2020-08-16T08:00:35Z</time>
      </trkpt>
      <trkpt lat="48.6082" lon="6.12047">
        <ele>222</ele>
        <time>2020-08-16T08:00:36Z</time>
      </trkpt>
      <trkpt lat="48.60823" lon="6.1206">
        <ele>222</ele>
        <time>2020-08-16T08:00:38Z</time>
      </trkpt>
      <trkpt lat="48.60824" lon="6.12067">
        <ele>222</ele>
        <time>2020-08-16T08:00:39Z</time>
      </trkpt>
      <trkpt lat="48.60825" lon="6.1208">
        <ele>222</ele>
        <time>2020-08-16T08:00:41Z</time>
      </trkpt>
      <trkpt lat="48.60827" lon="6.12093">
        <ele>222</ele>
        <time>2020-08-16T08:00:43Z</time>
      </trkpt>
      <trkpt lat="48.60828" lon="6.12106">
        <ele>222</ele>
        <time>2020-08-16T08:00:45Z</time>
      </trkpt>
      <trkpt lat="48.60829" lon="6.12113">
        <ele>222</ele>
        <time>2020-08-16T08:00:46Z</time>
      </trkpt>
      <trkpt lat="48.6083" lon="6.1212">
        <ele>222</ele>
        <time>2020-08-16T08:00:47Z</time>
      </trkpt>
      <trkpt lat="48.60832" lon="6.12133">
        <ele>222</ele>
        <time>2020-08-16T08:00:49Z</time>
      </trkpt>
      <trkpt lat="48.60833" lon="6.12146">
        <ele>223</ele>
        <time>2020-08-16T08:00:51Z</time>
      </trkpt>
      <trkpt lat="48.60836" lon="6.12159">
        <ele>222</ele>
        <time>2020-08-16T08:00:53Z</time>
      </trkpt>
      <trkpt lat="48.60837" lon="6.12172">
        <ele>222</ele>
        <time>2020-08-16T08:00:55Z</time>
      </trkpt>
      <trkpt lat="48.60838" lon="6.12186">
        <ele>222</ele>
        <time>2020-08-16T08:00:57Z</time>
      </trkpt>
      <trkpt lat="48.60839" lon="6.12193">
        <ele>222</ele>
        <time>2020-08-16T08:00:58Z</time>
      </trkpt>
      <trkpt lat="48.60839" lon="6.12199">
        <ele>222</ele>
        <time>2020-08-16T08:00:59Z</time>
      </trkpt>
      <trkpt lat="48.6084" lon="6.12212">
        <ele>222</ele>
        <time>2020-08-16T08:01:01Z</time>
      </trkpt>
      <trkpt lat="48.6084" lon="6.12226">
        <ele>222</ele>
        <time>2020-08-16T08:01:03Z</time>
      </trkpt>
      <trkpt lat="48.6084" lon="6.12233">
        <ele>222</ele>
        <time>2020-08-16T08:01:04Z</time>
      </trkpt>
      <trkpt lat="48.6084" lon="6.1224">
        <ele>222</ele>
        <time>2020-08-16T08:01:05Z</time>
      </trkpt>
      <trkpt lat="48.6084" lon="6.12247">
        <ele>222</ele>
        <time>2020-08-16T08:01:06Z</time>
      </trkpt>
      <trkpt lat="48.60841" lon="6.12254">
        <ele>222</ele>
        <time>2020-08-16T08:01:07Z</time>
      </trkpt>
      <trkpt lat="48.60841" lon="6.12261">
        <ele>221</ele>
        <time>2020-08-16T08:01:08Z</time>
      </trkpt>
      <trkpt lat="48.60841" lon="6.12274">
        <ele>221</ele>
        <time>2020-08-16T08:01:10Z</time>
      </trkpt>
      <trkpt lat="48.60842" lon="6.12281">
        <ele>221</ele>
        <time>2020-08-16T08:01:11Z</time>
      </trkpt>
      <trkpt lat="48.60843" lon="6.12288">
        <ele>221</ele>
        <time>2020-08-16T08:01:12Z</time>
      </trkpt>
      <trkpt lat="48.60844" lon="6.12295">
        <ele>221</ele>
        <time>2020-08-16T08:01:13Z</time>
      </trkpt>
      <trkpt lat="48.60845" lon="6.12302">
        <ele>222</ele>
        <time>2020-08-16T08:01:14Z</time>
      </trkpt>
      <trkpt lat="48.60846" lon="6.12309">
        <ele>222</ele>
        <time>2020-08-16T08:01:15Z</time>
      </trkpt>
      <trkpt lat="48.60849" lon="6.12322">
        <ele>222</ele>
        <time>2020-08-16T08:01:17Z</time>
      </trkpt>
      <trkpt lat="48.60851" lon="6.12328">
        <ele>222</ele>
        <time>2020-08-16T08:01:18Z</time>
      </trkpt>
      <trkpt lat="48.60855" lon="6.1234">
        <ele>223</ele>
        <time>2020-08-16T08:01:20Z</time>
      </trkpt>
      <trkpt lat="48.60859" lon="6.12351">
        <ele>222</ele>
        <time>2020-08-16T08:01:22Z</time>
      </trkpt>
      <trkpt lat="48.60863" lon="6.12359">
        <ele>222</ele>
        <time>2020-08-16T08:01:24Z</time>
      </trkpt>
      <trkpt lat="48.60867" lon="6.12367">
        <ele>222</ele>
        <time>2020-08-16T08:01:26Z</time>
      </trkpt>
      <trkpt lat="48.6087" lon="6.12375">
        <ele>222</ele>
        <time>2020-08-16T08:01:28Z</time>
      </trkpt>
      <trkpt lat="48.60873" lon="6.12384">
        <ele>222</ele>
        <time>2020-08-16T08:01:30Z</time>
      </trkpt>
      <trkpt lat="48.60874" lon="6.12394">
        <ele>222</ele>
        <time>2020-08-16T08:01:32Z</time>
      </trkpt>
      <trkpt lat="48.60876" lon="6.12404">
        <ele>222</ele>
        <time>2020-08-16T08:01:34Z</time>
      </trkpt>
      <trkpt lat="48.60876" lon="6.12415">
        <ele>222</ele>
        <time>2020-08-16T08:01:36Z</time>
      </trkpt>
      <trkpt lat="48.60878" lon="6.12427">
        <ele>222</ele>
        <time>2020-08-16T08:01:38Z</time>
      </trkpt>
      <trkpt lat="48.6088" lon="6.12438">
        <ele>222</ele>
        <time>2020-08-16T08:01:40Z</time>
      </trkpt>
      <trkpt lat="48.60881" lon="6.12446">
        <ele>223</ele>
        <time>2020-08-16T08:01:42Z</time>
      </trkpt>
      <trkpt lat="48.60884" lon="6.12455">
        <ele>223</ele>
        <time>2020-08-16T08:01:44Z</time>
      </trkpt>
      <trkpt lat="48.60885" lon="6.12463">
        <ele>223</ele>
        <time>2020-08-16T08:01:46Z</time>
      </trkpt>
      <trkpt lat="48.60887" lon="6.12472">
        <ele>223</ele>
        <time>2020-08-16T08:01:48Z</time>
      </trkpt>
      <trkpt lat="48.60887" lon="6.12482">
        <ele>223</ele>
        <time>2020-08-16T08:01:50Z</time>
      </trkpt>
      <trkpt lat="48.60887" lon="6.12493">
        <ele>223</ele>
        <time>2020-08-16T08:01:52Z</time>
      </trkpt>
      <trkpt lat="48.60888" lon="6.12503">
        <ele>223</ele>
        <time>2020-08-16T08:01:54Z</time>
      </trkpt>
      <trkpt lat="48.60888" lon="6.12512">
        <ele>223</ele>
        <time>2020-08-16T08:01:56Z</time>
      </trkpt>
      <trkpt lat="48.60889" lon="6.12522">
        <ele>223</ele>
        <time>2020-08-16T08:01:58Z</time>
      </trkpt>
      <trkpt lat="48.60887" lon="6.12532">
        <ele>223</ele>
        <time>2020-08-16T08:02:00Z</time>
      </trkpt>
      <trkpt lat="48.60884" lon="6.12538">
        <ele>224</ele>
        <time>2020-08-16T08:02:02Z</time>
      </trkpt>
      <trkpt lat="48.60882" lon="6.12545">
        <ele>224</ele>
        <time>2020-08-16T08:02:04Z</time>
      </trkpt>
      <trkpt lat="48.60878" lon="6.1255">
        <ele>224</ele>
        <time>2020-08-16T08:02:07Z</time>
      </trkpt>
      <trkpt lat="48.60873" lon="6.12554">
        <ele>224</ele>
        <time>2020-08-16T08:02:09Z</time>
      </trkpt>
      <trkpt lat="48.60868" lon="6.12555">
        <ele>224</ele>
        <time>2020-08-16T08:02:11Z</time>
      </trkpt>
      <trkpt lat="48.60863" lon="6.12558">
        <ele>224</ele>
        <time>2020-08-16T08:02:13Z</time>
      </trkpt>
      <trkpt lat="48.60857" lon="6.1256">
        <ele>224</ele>
        <time>2020-08-16T08:02:15Z</time>
      </trkpt>
      <trkpt lat="48.60851" lon="6.12562">
        <ele>223</ele>
        <time>2020-08-16T08:02:17Z</time>
      </trkpt>
      <trkpt lat="48.60846" lon="6.12564">
        <ele>223</ele>
        <time>2020-08-16T08:02:19Z</time>
      </trkpt>
      <trkpt lat="48.6084" lon="6.12566">
        <ele>223</ele>
        <time>2020-08-16T08:02:21Z</time>
      </trkpt>
      <trkpt lat="48.60834" lon="6.12568">
        <ele>223</ele>
        <time>2020-08-16T08:02:23Z</time>
      </trkpt>
      <trkpt lat="48.60827" lon="6.12569">
        <ele>223</ele>
        <time>2020-08-16T08:02:25Z</time>
      </trkpt>
      <trkpt lat="48.6082" lon="6.12573">
        <ele>223</ele>
        <time>2020-08-16T08:02:27Z</time>
      </trkpt>
      <trkpt lat="48.60814" lon="6.12579">
        <ele>222</ele>
        <time>2020-08-16T08:02:29Z</time>
      </trkpt>
      <trkpt lat="48.60809" lon="6.12588">
        <ele>222</ele>
        <time>2020-08-16T08:02:31Z</time>
      </trkpt>
      <trkpt lat="48.60806" lon="6.12598">
        <ele>223</ele>
        <time>2020-08-16T08:02:33Z</time>
      </trkpt>
      <trkpt lat="48.60806" lon="6.1261">
        <ele>223</ele>
        <time>2020-08-16T08:02:35Z</time>
      </trkpt>
      <trkpt lat="48.60805" lon="6.12622">
        <ele>223</ele>
        <time>2020-08-16T08:02:37Z</time>
      </trkpt>
      <trkpt lat="48.60805" lon="6.12634">
        <ele>223</ele>
        <time>2020-08-16T08:02:39Z</time>
      </trkpt>
      <trkpt lat="48.60806" lon="6.12647">
        <ele>223</ele>
        <time>2020-08-16T08:02:41Z</time>
      </trkpt>
      <trkpt lat="48.60807" lon="6.1266">
        <ele>223</ele>
        <time>2020-08-16T08:02:43Z</time>
      </trkpt>
      <trkpt lat="48.60807" lon="6.12672">
        <ele>223</ele>
        <time>2020-08-16T08:02:45Z</time>
      </trkpt>
      <trkpt lat="48.60807" lon="6.12685">
        <ele>223</ele>
        <time>2020-08-16T08:02:47Z</time>
      </trkpt>
      <trkpt lat="48.60809" lon="6.12696">
        <ele>223</ele>
        <time>2020-08-16T08:02:49Z</time>
      </trkpt>
      <trkpt lat="48.60811" lon="6.12708">
        <ele>223</ele>
        <time>2020-08-16T08:02:51Z</time>
      </trkpt>
      <trkpt lat="48.60811" lon="6.12715">
        <ele>223</ele>
        <time>2020-08-16T08:02:52Z</time>
      </trkpt>
      <trkpt lat="48.60811" lon="6.12727">
        <ele>223</ele>
        <time>2020-08-16T08:02:54Z</time>
      </trkpt>
      <trkpt lat="48.60812" lon="6.12734">
        <ele>223</ele>
        <time>2020-08-16T08:02:55Z</time>
      </trkpt>
      <trkpt lat="48.60812" lon="6.12746">
        <ele>223</ele>
        <time>2020-08-16T08:02:57Z</time>
      </trkpt>
      <trkpt lat="48.60814" lon="6.12759">
        <ele>223</ele>
        <time>2020-08-16T08:02:59Z</time>
      </trkpt>
      <trkpt lat="48.60813" lon="6.1277">
        <ele>223</ele>
        <time>2020-08-16T08:03:01Z</time>
      </trkpt>
      <trkpt lat="48.60815" lon="6.12777">
        <ele>222</ele>
        <time>2020-08-16T08:03:02Z</time>
      </trkpt>
      <trkpt lat="48.60817" lon="6.1279">
        <ele>222</ele>
        <time>2020-08-16T08:03:04Z</time>
      </trkpt>
      <trkpt lat="48.60818" lon="6.12797">
        <ele>222</ele>
        <time>2020-08-16T08:03:05Z</time>
      </trkpt>
      <trkpt lat="48.60819" lon="6.12804">
        <ele>222</ele>
        <time>2020-08-16T08:03:06Z</time>
      </trkpt>
      <trkpt lat="48.60823" lon="6.12822">
        <ele>222</ele>
        <time>2020-08-16T08:03:09Z</time>
      </trkpt>
      <trkpt lat="48.60826" lon="6.12835">
        <ele>222</ele>
        <time>2020-08-16T08:03:11Z</time>
      </trkpt>
      <trkpt lat="48.60828" lon="6.12848">
        <ele>222</ele>
        <time>2020-08-16T08:03:13Z</time>
      </trkpt>
      <trkpt lat="48.60829" lon="6.12855">
        <ele>223</ele>
        <time>2020-08-16T08:03:14Z</time>
      </trkpt>
      <trkpt lat="48.60832" lon="6.12867">
        <ele>223</ele>
        <time>2020-08-16T08:03:16Z</time>
      </trkpt>
      <trkpt lat="48.60832" lon="6.12875">
        <ele>222</ele>
        <time>2020-08-16T08:03:17Z</time>
      </trkpt>
      <trkpt lat="48.60833" lon="6.12881">
        <ele>223</ele>
        <time>2020-08-16T08:03:18Z</time>
      </trkpt>
      <trkpt lat="48.60837" lon="6.12894">
        <ele>222</ele>
        <time>2020-08-16T08:03:20Z</time>
      </trkpt>
      <trkpt lat="48.60841" lon="6.12904">
        <ele>222</ele>
        <time>2020-08-16T08:03:22Z</time>
      </trkpt>
      <trkpt lat="48.60847" lon="6.12913">
        <ele>223</ele>
        <time>2020-08-16T08:03:24Z</time>
      </trkpt>
      <trkpt lat="48.60854" lon="6.12922">
        <ele>223</ele>
        <time>2020-08-16T08:03:26Z</time>
      </trkpt>
      <trkpt lat="48.60858" lon="6.12927">
        <ele>222</ele>
        <time>2020-08-16T08:03:27Z</time>
      </trkpt>
      <trkpt lat="48.60862" lon="6.12938">
        <ele>222</ele>
        <time>2020-08-16T08:03:29Z</time>
      </trkpt>
      <trkpt lat="48.60863" lon="6.12945">
        <ele>222</ele>
        <time>2020-08-16T08:03:30Z</time>
      </trkpt>
      <trkpt lat="48.60866" lon="6.12957">
        <ele>222</ele>
        <time>2020-08-16T08:03:32Z</time>
      </trkpt>
      <trkpt lat="48.60868" lon="6.12964">
        <ele>222</ele>
        <time>2020-08-16T08:03:33Z</time>
      </trkpt>
      <trkpt lat="48.60873" lon="6.12976">
        <ele>222</ele>
        <time>2020-08-16T08:03:35Z</time>
      </trkpt>
      <trkpt lat="48.60877" lon="6.12982">
        <ele>222</ele>
        <time>2020-08-16T08:03:36Z</time>
      </trkpt>
      <trkpt lat="48.60881" lon="6.12993">
        <ele>222</ele>
        <time>2020-08-16T08:03:38Z</time>
      </trkpt>
      <trkpt lat="48.60884" lon="6.12999">
        <ele>221</ele>
        <time>2020-08-16T08:03:39Z</time>
      </trkpt>
      <trkpt lat="48.60886" lon="6.13005">
        <ele>221</ele>
        <time>2020-08-16T08:03:40Z</time>
      </trkpt>
      <trkpt lat="48.60889" lon="6.13011">
        <ele>221</ele>
        <time>2020-08-16T08:03:41Z</time>
      </trkpt>
      <trkpt lat="48.60891" lon="6.13017">
        <ele>222</ele>
        <time>2020-08-16T08:03:42Z</time>
      </trkpt>
      <trkpt lat="48.60894" lon="6.13029">
        <ele>222</ele>
        <time>2020-08-16T08:03:44Z</time>
      </trkpt>
      <trkpt lat="48.6089" lon="6.13038">
        <ele>223</ele>
        <time>2020-08-16T08:03:46Z</time>
      </trkpt>
      <trkpt lat="48.60886" lon="6.1304">
        <ele>224</ele>
        <time>2020-08-16T08:03:47Z</time>
      </trkpt>
      <trkpt lat="48.60878" lon="6.13044">
        <ele>225</ele>
        <time>2020-08-16T08:03:49Z</time>
      </trkpt>
      <trkpt lat="48.60871" lon="6.13049">
        <ele>225</ele>
        <time>2020-08-16T08:03:51Z</time>
      </trkpt>
      <trkpt lat="48.60863" lon="6.13053">
        <ele>225</ele>
        <time>2020-08-16T08:03:53Z</time>
      </trkpt>
      <trkpt lat="48.60855" lon="6.13056">
        <ele>225</ele>
        <time>2020-08-16T08:03:55Z</time>
      </trkpt>
      <trkpt lat="48.60846" lon="6.13058">
        <ele>225</ele>
        <time>2020-08-16T08:03:57Z</time>
      </trkpt>
      <trkpt lat="48.60838" lon="6.13058">
        <ele>225</ele>
        <time>2020-08-16T08:03:59Z</time>
      </trkpt>
      <trkpt lat="48.60833" lon="6.13058">
        <ele>225</ele>
        <time>2020-08-16T08:04:00Z</time>
      </trkpt>
      <trkpt lat="48.60828" lon="6.13057">
        <ele>225</ele>
        <time>2020-08-16T08:04:01Z</time>
      </trkpt>
      <trkpt lat="48.60819" lon="6.13056">
        <ele>225</ele>
        <time>2020-08-16T08:04:03Z</time>
      </trkpt>
      <trkpt lat="48.60815" lon="6.13057">
        <ele>224</ele>
        <time>2020-08-16T08:04:04Z</time>
      </trkpt>
      <trkpt lat="48.60806" lon="6.13061">
        <ele>225</ele>
        <time>2020-08-16T08:04:06Z</time>
      </trkpt>
      <trkpt lat="48.60802" lon="6.13065">
        <ele>224</ele>
        <time>2020-08-16T08:04:07Z</time>
      </trkpt>
      <trkpt lat="48.60798" lon="6.13071">
        <ele>224</ele>
        <time>2020-08-16T08:04:08Z</time>
      </trkpt>
      <trkpt lat="48.60792" lon="6.1308">
        <ele>223</ele>
        <time>2020-08-16T08:04:10Z</time>
      </trkpt>
      <trkpt lat="48.60789" lon="6.13086">
        <ele>223</ele>
        <time>2020-08-16T08:04:11Z</time>
      </trkpt>
      <trkpt lat="48.60783" lon="6.13096">
        <ele>222</ele>
        <time>2020-08-16T08:04:13Z</time>
      </trkpt>
      <trkpt lat="48.60781" lon="6.13102">
        <ele>222</ele>
        <time>2020-08-16T08:04:14Z</time>
      </trkpt>
      <trkpt lat="48.60778" lon="6.13108">
        <ele>222</ele>
        <time>2020-08-16T08:04:15Z</time>
      </trkpt>
      <trkpt lat="48.60775" lon="6.13114">
        <ele>221</ele>
        <time>2020-08-16T08:04:16Z</time>
      </trkpt>
      <trkpt lat="48.60773" lon="6.1312">
        <ele>221</ele>
        <time>2020-08-16T08:04:17Z</time>
      </trkpt>
      <trkpt lat="48.60769" lon="6.13131">
        <ele>221</ele>
        <time>2020-08-16T08:04:19Z</time>
      </trkpt>
      <trkpt lat="48.60764" lon="6.13142">
        <ele>222</ele>
        <time>2020-08-16T08:04:21Z</time>
      </trkpt>
      <trkpt lat="48.6076" lon="6.13154">
        <ele>222</ele>
        <time>2020-08-16T08:04:23Z</time>
      </trkpt>
      <trkpt lat="48.60757" lon="6.13165">
        <ele>222</ele>
        <time>2020-08-16T08:04:25Z</time>
      </trkpt>
      <trkpt lat="48.60757" lon="6.13178">
        <ele>221</ele>
        <time>2020-08-16T08:04:27Z</time>
      </trkpt>
      <trkpt lat="48.60757" lon="6.13185">
        <ele>221</ele>
        <time>2020-08-16T08:04:28Z</time>
      </trkpt>
      <trkpt lat="48.60759" lon="6.13199">
        <ele>221</ele>
        <time>2020-08-16T08:04:30Z</time>
      </trkpt>
      <trkpt lat="48.6076" lon="6.13205">
        <ele>221</ele>
        <time>2020-08-16T08:04:31Z</time>
      </trkpt>
      <trkpt lat="48.60761" lon="6.13212">
        <ele>221</ele>
        <time>2020-08-16T08:04:32Z</time>
      </trkpt>
      <trkpt lat="48.60761" lon="6.13219">
        <ele>221</ele>
        <time>2020-08-16T08:04:33Z</time>
      </trkpt>
      <trkpt lat="48.60762" lon="6.13226">
        <ele>221</ele>
        <time>2020-08-16T08:04:34Z</time>
      </trkpt>
      <trkpt lat="48.60763" lon="6.13239">
        <ele>221</ele>
        <time>2020-08-16T08:04:36Z</time>
      </trkpt>
      <trkpt lat="48.60763" lon="6.13252">
        <ele>221</ele>
        <time>2020-08-16T08:04:38Z</time>
      </trkpt>
      <trkpt lat="48.60763" lon="6.13263">
        <ele>221</ele>
        <time>2020-08-16T08:04:40Z</time>
      </trkpt>
      <trkpt lat="48.60764" lon="6.13276">
        <ele>221</ele>
        <time>2020-08-16T08:04:42Z</time>
      </trkpt>
      <trkpt lat="48.60765" lon="6.1329">
        <ele>221</ele>
        <time>2020-08-16T08:04:44Z</time>
      </trkpt>
      <trkpt lat="48.60764" lon="6.13303">
        <ele>222</ele>
        <time>2020-08-16T08:04:46Z</time>
      </trkpt>
      <trkpt lat="48.60761" lon="6.1331">
        <ele>222</ele>
        <time>2020-08-16T08:04:47Z</time>
      </trkpt>
      <trkpt lat="48.60759" lon="6.13317">
        <ele>222</ele>
        <time>2020-08-16T08:04:48Z</time>
      </trkpt>
      <trkpt lat="48.60757" lon="6.13323">
        <ele>222</ele>
        <time>2020-08-16T08:04:49Z</time>
      </trkpt>
      <trkpt lat="48.60755" lon="6.13336">
        <ele>222</ele>
        <time>2020-08-16T08:04:51Z</time>
      </trkpt>
      <trkpt lat="48.60751" lon="6.13347">
        <ele>221</ele>
        <time>2020-08-16T08:04:53Z</time>
      </trkpt>
      <trkpt lat="48.60749" lon="6.13353">
        <ele>221</ele>
        <time>2020-08-16T08:04:54Z</time>
      </trkpt>
      <trkpt lat="48.60745" lon="6.13364">
        <ele>221</ele>
        <time>2020-08-16T08:04:56Z</time>
      </trkpt>
      <trkpt lat="48.60741" lon="6.13375">
        <ele>221</ele>
        <time>2020-08-16T08:04:58Z</time>
      </trkpt>
      <trkpt lat="48.60738" lon="6.13381">
        <ele>221</ele>
        <time>2020-08-16T08:04:59Z</time>
      </trkpt>
      <trkpt lat="48.60737" lon="6.13388">
        <ele>221</ele>
        <time>2020-08-16T08:05:00Z</time>
      </trkpt>
      <trkpt lat="48.60733" lon="6.13399">
        <ele>221</ele>
        <time>2020-08-16T08:05:02Z</time>
      </trkpt>
      <trkpt lat="48.60737" lon="6.13405">
        <ele>221</ele>
        <time>2020-08-16T08:05:03Z</time>
      </trkpt>
      <trkpt lat="48.60739" lon="6.13412">
        <ele>221</ele>
        <time>2020-08-16T08:05:04Z</time>
      </trkpt>
      <trkpt lat="48.60743" lon="6.13416">
        <ele>221</ele>
        <time>2020-08-16T08:05:05Z</time>
      </trkpt>
      <trkpt lat="48.60748" lon="6.13422">
        <ele>221</ele>
        <time>2020-08-16T08:05:06Z</time>
      </trkpt>
      <trkpt lat="48.60751" lon="6.13427">
        <ele>221</ele>
        <time>2020-08-16T08:05:07Z</time>
      </trkpt>
      <trkpt lat="48.60757" lon="6.13438">
        <ele>220</ele>
        <time>2020-08-16T08:05:09Z</time>
      </trkpt>
      <trkpt lat="48.60761" lon="6.13444">
        <ele>221</ele>
        <time>2020-08-16T08:05:10Z</time>
      </trkpt>
      <trkpt lat="48.60765" lon="6.13448">
        <ele>221</ele>
        <time>2020-08-16T08:05:11Z</time>
      </trkpt>
      <trkpt lat="48.60769" lon="6.13453">
        <ele>221</ele>
        <time>2020-08-16T08:05:12Z</time>
      </trkpt>
      <trkpt lat="48.60775" lon="6.13459">
        <ele>221</ele>
        <time>2020-08-16T08:05:13Z</time>
      </trkpt>
      <trkpt lat="48.6078" lon="6.13465">
        <ele>221</ele>
        <time>2020-08-16T08:05:14Z</time>
      </trkpt>
      <trkpt lat="48.60785" lon="6.1347">
        <ele>220</ele>
        <time>2020-08-16T08:05:16Z</time>
      </trkpt>
      <trkpt lat="48.60791" lon="6.13476">
        <ele>219</ele>
        <time>2020-08-16T08:05:17Z</time>
      </trkpt>
      <trkpt lat="48.60795" lon="6.1348">
        <ele>219</ele>
        <time>2020-08-16T08:05:18Z</time>
      </trkpt>
      <trkpt lat="48.60798" lon="6.1349">
        <ele>220</ele>
        <time>2020-08-16T08:05:19Z</time>
      </trkpt>
      <trkpt lat="48.60801" lon="6.13497">
        <ele>220</ele>
        <time>2020-08-16T08:05:20Z</time>
      </trkpt>
      <trkpt lat="48.60803" lon="6.13504">
        <ele>220</ele>
        <time>2020-08-16T08:05:21Z</time>
      </trkpt>
      <trkpt lat="48.60807" lon="6.13514">
        <ele>220</ele>
        <time>2020-08-16T08:05:23Z</time>
      </trkpt>
      <trkpt lat="48.6081" lon="6.13521">
        <ele>219</ele>
        <time>2020-08-16T08:05:24Z</time>
      </trkpt>
      <trkpt lat="48.60814" lon="6.13534">
        <ele>220</ele>
        <time>2020-08-16T08:05:26Z</time>
      </trkpt>
      <trkpt lat="48.60816" lon="6.13541">
        <ele>220</ele>
        <time>2020-08-16T08:05:27Z</time>
      </trkpt>
      <trkpt lat="48.60819" lon="6.13547">
        <ele>220</ele>
        <time>2020-08-16T08:05:28Z</time>
      </trkpt>
      <trkpt lat="48.60821" lon="6.13553">
        <ele>220</ele>
        <time>2020-08-16T08:05:29Z</time>
      </trkpt>
      <trkpt lat="48.60824" lon="6.1356">
        <ele>221</ele>
        <time>2020-08-16T08:05:30Z</time>
      </trkpt>
      <trkpt lat="48.60827" lon="6.13566">
        <ele>221</ele>
        <time>2020-08-16T08:05:31Z</time>
      </trkpt>
      <trkpt lat="48.6083" lon="6.13573">
        <ele>221</ele>
        <time>2020-08-16T08:05:32Z</time>
      </trkpt>
      <trkpt lat="48.60832" lon="6.13579">
        <ele>221</ele>
        <time>2020-08-16T08:05:33Z</time>
      </trkpt>
      <trkpt lat="48.60835" lon="6.13585">
        <ele>221</ele>
        <time>2020-08-16T08:05:34Z</time>
      </trkpt>
      <trkpt lat="48.60838" lon="6.13592">
        <ele>222</ele>
        <time>2020-08-16T08:05:35Z</time>
      </trkpt>
      <trkpt lat="48.60841" lon="6.13602">
        <ele>223</ele>
        <time>2020-08-16T08:05:37Z</time>
      </trkpt>
      <trkpt lat="48.60844" lon="6.13611">
        <ele>223</ele>
        <time>2020-08-16T08:05:39Z</time>
      </trkpt>
      <trkpt lat="48.60846" lon="6.13619">
        <ele>224</ele>
        <time>2020-08-16T08:05:41Z</time>
      </trkpt>
      <trkpt lat="48.60849" lon="6.13626">
        <ele>224</ele>
        <time>2020-08-16T08:05:43Z</time>
      </trkpt>
      <trkpt lat="48.60852" lon="6.13634">
        <ele>224</ele>
        <time>2020-08-16T08:05:45Z</time>
      </trkpt>
      <trkpt lat="48.60855" lon="6.13641">
        <ele>224</ele>
        <time>2020-08-16T08:05:47Z</time>
      </trkpt>
      <trkpt lat="48.60859" lon="6.13648">
        <ele>224</ele>
        <time>2020-08-16T08:05:49Z</time>
      </trkpt>
      <trkpt lat="48.60863" lon="6.13654">
        <ele>224</ele>
        <time>2020-08-16T08:05:51Z</time>
      </trkpt>
      <trkpt lat="48.6087" lon="6.13658">
        <ele>225</ele>
        <time>2020-08-16T08:05:53Z</time>
      </trkpt>
      <trkpt lat="48.60878" lon="6.13659">
        <ele>224</ele>
        <time>2020-08-16T08:05:55Z</time>
      </trkpt>
      <trkpt lat="48.60886" lon="6.13657">
        <ele>224</ele>
        <time>2020-08-16T08:05:57Z</time>
      </trkpt>
      <trkpt lat="48.60893" lon="6.13655">
        <ele>223</ele>
        <time>2020-08-16T08:05:59Z</time>
      </trkpt>
      <trkpt lat="48.609" lon="6.13654">
        <ele>223</ele>
        <time>2020-08-16T08:06:01Z</time>
      </trkpt>
      <trkpt lat="48.60906" lon="6.13661">
        <ele>223</ele>
        <time>2020-08-16T08:06:03Z</time>
      </trkpt>
      <trkpt lat="48.60908" lon="6.13671">
        <ele>223</ele>
        <time>2020-08-16T08:06:05Z</time>
      </trkpt>
      <trkpt lat="48.60907" lon="6.13682">
        <ele>223</ele>
        <time>2020-08-16T08:06:07Z</time>
      </trkpt>
      <trkpt lat="48.60904" lon="6.13692">
        <ele>223</ele>
        <time>2020-08-16T08:06:09Z</time>
      </trkpt>
      <trkpt lat="48.60901" lon="6.13702">
        <ele>223</ele>
        <time>2020-08-16T08:06:11Z</time>
      </trkpt>
      <trkpt lat="48.60897" lon="6.13712">
        <ele>223</ele>
        <time>2020-08-16T08:06:13Z</time>
      </trkpt>
      <trkpt lat="48.60893" lon="6.13722">
        <ele>223</ele>
        <time>2020-08-16T08:06:15Z</time>
      </trkpt>
      <trkpt lat="48.60889" lon="6.13732">
        <ele>223</ele>
        <time>2020-08-16T08:06:17Z</time>
      </trkpt>
      <trkpt lat="48.60884" lon="6.13742">
        <ele>223</ele>
        <time>2020-08-16T08:06:19Z</time>
      </trkpt>
      <trkpt lat="48.6088" lon="6.13751">
        <ele>223</ele>
        <time>2020-08-16T08:06:21Z</time>
      </trkpt>
      <trkpt lat="48.60877" lon="6.1376">
        <ele>222</ele>
        <time>2020-08-16T08:06:23Z</time>
      </trkpt>
      <trkpt lat="48.60876" lon="6.13772">
        <ele>222</ele>
        <time>2020-08-16T08:06:25Z</time>
      </trkpt>
      <trkpt lat="48.60876" lon="6.13783">
        <ele>221</ele>
        <time>2020-08-16T08:06:27Z</time>
      </trkpt>
      <trkpt lat="48.60878" lon="6.13795">
        <ele>221</ele>
        <time>2020-08-16T08:06:29Z</time>
      </trkpt>
      <trkpt lat="48.6088" lon="6.13806">
        <ele>221</ele>
        <time>2020-08-16T08:06:31Z</time>
      </trkpt>
      <trkpt lat="48.6088" lon="6.13817">
        <ele>221</ele>
        <time>2020-08-16T08:06:33Z</time>
      </trkpt>
      <trkpt lat="48.60882" lon="6.13827">
        <ele>221</ele>
        <time>2020-08-16T08:06:35Z</time>
      </trkpt>
      <trkpt lat="48.60883" lon="6.13835">
        <ele>221</ele>
        <time>2020-08-16T08:06:37Z</time>
      </trkpt>
      <trkpt lat="48.60883" lon="6.13844">
        <ele>221</ele>
        <time>2020-08-16T08:06:39Z</time>
      </trkpt>
      <trkpt lat="48.60882" lon="6.13853">
        <ele>221</ele>
        <time>2020-08-16T08:06:41Z</time>
      </trkpt>
      <trkpt lat="48.60883" lon="6.1386">
        <ele>221</ele>
        <time>2020-08-16T08:06:43Z</time>
      </trkpt>
      <trkpt lat="48.60886" lon="6.13868">
        <ele>221</ele>
        <time>2020-08-16T08:06:45Z</time>
      </trkpt>
      <trkpt lat="48.60888" lon="6.13875">
        <ele>221</ele>
        <time>2020-08-16T08:06:47Z</time>
      </trkpt>
      <trkpt lat="48.60892" lon="6.13881">
        <ele>221</ele>
        <time>2020-08-16T08:06:49Z</time>
      </trkpt>
      <trkpt lat="48.60897" lon="6.13886">
        <ele>221</ele>
        <time>2020-08-16T08:06:51Z</time>
      </trkpt>
      <trkpt lat="48.60903" lon="6.13888">
        <ele>221</ele>
        <time>2020-08-16T08:06:53Z</time>
      </trkpt>
      <trkpt lat="48.6091" lon="6.13889">
        <ele>221</ele>
        <time>2020-08-16T08:06:55Z</time>
      </trkpt>
      <trkpt lat="48.60917" lon="6.13891">
        <ele>221</ele>
        <time>2020-08-16T08:06:57Z</time>
      </trkpt>
      <trkpt lat="48.60923" lon="6.13889">
        <ele>221</ele>
        <time>2020-08-16T08:06:59Z</time>
      </trkpt>
      <trkpt lat="48.6093" lon="6.1389">
        <ele>221</ele>
        <time>2020-08-16T08:07:01Z</time>
      </trkpt>
      <trkpt lat="48.60936" lon="6.13889">
        <ele>221</ele>
        <time>2020-08-16T08:07:03Z</time>
      </trkpt>
      <trkpt lat="48.60944" lon="6.13889">
        <ele>220</ele>
        <time>2020-08-16T08:07:05Z</time>
      </trkpt>
      <trkpt lat="48.60951" lon="6.13891">
        <ele>220</ele>
        <time>2020-08-16T08:07:07Z</time>
      </trkpt>
      <trkpt lat="48.60957" lon="6.13893">
        <ele>220</ele>
        <time>2020-08-16T08:07:09Z</time>
      </trkpt>
      <trkpt lat="48.60962" lon="6.13892">
        <ele>220</ele>
        <time>2020-08-16T08:07:11Z</time>
      </trkpt>
      <trkpt lat="48.60968" lon="6.13895">
        <ele>221</ele>
        <time>2020-08-16T08:07:13Z</time>
      </trkpt>
      <trkpt lat="48.60976" lon="6.13897">
        <ele>221</ele>
        <time>2020-08-16T08:07:15Z</time>
      </trkpt>
      <trkpt lat="48.60983" lon="6.13897">
        <ele>221</ele>
        <time>2020-08-16T08:07:17Z</time>
      </trkpt>
      <trkpt lat="48.60989" lon="6.13898">
        <ele>221</ele>
        <time>2020-08-16T08:07:19Z</time>
      </trkpt>
      <trkpt lat="48.60993" lon="6.139">
        <ele>222</ele>
        <time>2020-08-16T08:07:21Z</time>
      </trkpt>
      <trkpt lat="48.60999" lon="6.13902">
        <ele>222</ele>
        <time>2020-08-16T08:07:24Z</time>
      </trkpt>
      <trkpt lat="48.61" lon="6.13909">
        <ele>222</ele>
        <time>2020-08-16T08:07:27Z</time>
      </trkpt>
      <trkpt lat="48.61" lon="6.13917">
        <ele>222</ele>
        <time>2020-08-16T08:07:29Z</time>
      </trkpt>
      <trkpt lat="48.60999" lon="6.13926">
        <ele>222</ele>
        <time>2020-08-16T08:07:31Z</time>
      </trkpt>
      <trkpt lat="48.60998" lon="6.13936">
        <ele>222</ele>
        <time>2020-08-16T08:07:33Z</time>
      </trkpt>
      <trkpt lat="48.60997" lon="6.13945">
        <ele>222</ele>
        <time>2020-08-16T08:07:35Z</time>
      </trkpt>
      <trkpt lat="48.60996" lon="6.13954">
        <ele>222</ele>
        <time>2020-08-16T08:07:37Z</time>
      </trkpt>
      <trkpt lat="48.60995" lon="6.13964">
        <ele>222</ele>
        <time>2020-08-16T08:07:39Z</time>
      </trkpt>
      <trkpt lat="48.60993" lon="6.13974">
        <ele>222</ele>
        <time>2020-08-16T08:07:41Z</time>
      </trkpt>
      <trkpt lat="48.60992" lon="6.13985">
        <ele>222</ele>
        <time>2020-08-16T08:07:43Z</time>
      </trkpt>
      <trkpt lat="48.60991" lon="6.13997">
        <ele>222</ele>
        <time>2020-08-16T08:07:45Z</time>
      </trkpt>
      <trkpt lat="48.60991" lon="6.1401">
        <ele>222</ele>
        <time>2020-08-16T08:07:47Z</time>
      </trkpt>
      <trkpt lat="48.6099" lon="6.14021">
        <ele>222</ele>
        <time>2020-08-16T08:07:49Z</time>
      </trkpt>
      <trkpt lat="48.60988" lon="6.14031">
        <ele>222</ele>
        <time>2020-08-16T08:07:51Z</time>
      </trkpt>
      <trkpt lat="48.60987" lon="6.14038">
        <ele>222</ele>
        <time>2020-08-16T08:07:52Z</time>
      </trkpt>
      <trkpt lat="48.60985" lon="6.1405">
        <ele>222</ele>
        <time>2020-08-16T08:07:54Z</time>
      </trkpt>
      <trkpt lat="48.60984" lon="6.14061">
        <ele>221</ele>
        <time>2020-08-16T08:07:56Z</time>
      </trkpt>
      <trkpt lat="48.60983" lon="6.14072">
        <ele>221</ele>
        <time>2020-08-16T08:07:58Z</time>
      </trkpt>
      <trkpt lat="48.60982" lon="6.14082">
        <ele>221</ele>
        <time>2020-08-16T08:08:00Z</time>
      </trkpt>
      <trkpt lat="48.6098" lon="6.14093">
        <ele>222</ele>
        <time>2020-08-16T08:08:02Z</time>
      </trkpt>
      <trkpt lat="48.60981" lon="6.14104">
        <ele>221</ele>
        <time>2020-08-16T08:08:04Z</time>
      </trkpt>
      <trkpt lat="48.6098" lon="6.14116">
        <ele>221</ele>
        <time>2020-08-16T08:08:06Z</time>
      </trkpt>
      <trkpt lat="48.60978" lon="6.14127">
        <ele>221</ele>
        <time>2020-08-16T08:08:08Z</time>
      </trkpt>
      <trkpt lat="48.60976" lon="6.14138">
        <ele>221</ele>
        <time>2020-08-16T08:08:10Z</time>
      </trkpt>
      <trkpt lat="48.60975" lon="6.1415">
        <ele>221</ele>
        <time>2020-08-16T08:08:12Z</time>
      </trkpt>
      <trkpt lat="48.60973" lon="6.1416">
        <ele>222</ele>
        <time>2020-08-16T08:08:14Z</time>
      </trkpt>
      <trkpt lat="48.60972" lon="6.14174">
        <ele>222</ele>
        <time>2020-08-16T08:08:16Z</time>
      </trkpt>
      <trkpt lat="48.6097" lon="6.14185">
        <ele>222</ele>
        <time>2020-08-16T08:08:18Z</time>
      </trkpt>
      <trkpt lat="48.60969" lon="6.14195">
        <ele>222</ele>
        <time>2020-08-16T08:08:20Z</time>
      </trkpt>
      <trkpt lat="48.60968" lon="6.14207">
        <ele>221</ele>
        <time>2020-08-16T08:08:22Z</time>
      </trkpt>
      <trkpt lat="48.60968" lon="6.14217">
        <ele>221</ele>
        <time>2020-08-16T08:08:24Z</time>
      </trkpt>
      <trkpt lat="48.60967" lon="6.14227">
        <ele>221</ele>
        <time>2020-08-16T08:08:26Z</time>
      </trkpt>
      <trkpt lat="48.60965" lon="6.14239">
        <ele>222</ele>
        <time>2020-08-16T08:08:28Z</time>
      </trkpt>
      <trkpt lat="48.60964" lon="6.14249">
        <ele>222</ele>
        <time>2020-08-16T08:08:30Z</time>
      </trkpt>
      <trkpt lat="48.60963" lon="6.14259">
        <ele>222</ele>
        <time>2020-08-16T08:08:32Z</time>
      </trkpt>
      <trkpt lat="48.60963" lon="6.14269">
        <ele>222</ele>
        <time>2020-08-16T08:08:34Z</time>
      </trkpt>
      <trkpt lat="48.60965" lon="6.14281">
        <ele>221</ele>
        <time>2020-08-16T08:08:36Z</time>
      </trkpt>
      <trkpt lat="48.60965" lon="6.14291">
        <ele>221</ele>
        <time>2020-08-16T08:08:38Z</time>
      </trkpt>
      <trkpt lat="48.60962" lon="6.14301">
        <ele>222</ele>
        <time>2020-08-16T08:08:40Z</time>
      </trkpt>
      <trkpt lat="48.60957" lon="6.14307">
        <ele>222</ele>
        <time>2020-08-16T08:08:42Z</time>
      </trkpt>
      <trkpt lat="48.60953" lon="6.14314">
        <ele>223</ele>
        <time>2020-08-16T08:08:44Z</time>
      </trkpt>
      <trkpt lat="48.60952" lon="6.14321">
        <ele>223</ele>
        <time>2020-08-16T08:08:46Z</time>
      </trkpt>
      <trkpt lat="48.6095" lon="6.14328">
        <ele>223</ele>
        <time>2020-08-16T08:08:48Z</time>
      </trkpt>
      <trkpt lat="48.60951" lon="6.1434">
        <ele>223</ele>
        <time>2020-08-16T08:08:50Z</time>
      </trkpt>
      <trkpt lat="48.60949" lon="6.14348">
        <ele>223</ele>
        <time>2020-08-16T08:08:52Z</time>
      </trkpt>
      <trkpt lat="48.60947" lon="6.14357">
        <ele>223</ele>
        <time>2020-08-16T08:08:54Z</time>
      </trkpt>
      <trkpt lat="48.60946" lon="6.14366">
        <ele>224</ele>
        <time>2020-08-16T08:08:56Z</time>
      </trkpt>
      <trkpt lat="48.60944" lon="6.14378">
        <ele>224</ele>
        <time>2020-08-16T08:08:58Z</time>
      </trkpt>
      <trkpt lat="48.60943" lon="6.1439">
        <ele>224</ele>
        <time>2020-08-16T08:09:00Z</time>
      </trkpt>
      <trkpt lat="48.60941" lon="6.14404">
        <ele>223</ele>
        <time>2020-08-16T08:09:02Z</time>
      </trkpt>
      <trkpt lat="48.60939" lon="6.14413">
        <ele>222</ele>
        <time>2020-08-16T08:09:04Z</time>
      </trkpt>
      <trkpt lat="48.60936" lon="6.14424">
        <ele>222</ele>
        <time>2020-08-16T08:09:06Z</time>
      </trkpt>
      <trkpt lat="48.60936" lon="6.14436">
        <ele>222</ele>
        <time>2020-08-16T08:09:08Z</time>
      </trkpt>
      <trkpt lat="48.60936" lon="6.14444">
        <ele>222</ele>
        <time>2020-08-16T08:09:09Z</time>
      </trkpt>
      <trkpt lat="48.60934" lon="6.14458">
        <ele>222</ele>
        <time>2020-08-16T08:09:11Z</time>
      </trkpt>
      <trkpt lat="48.60935" lon="6.14471">
        <ele>222</ele>
        <time>2020-08-16T08:09:13Z</time>
      </trkpt>
      <trkpt lat="48.60936" lon="6.14478">
        <ele>222</ele>
        <time>2020-08-16T08:09:14Z</time>
      </trkpt>
      <trkpt lat="48.60936" lon="6.14485">
        <ele>222</ele>
        <time>2020-08-16T08:09:15Z</time>
      </trkpt>
      <trkpt lat="48.60935" lon="6.14493">
        <ele>222</ele>
        <time>2020-08-16T08:09:16Z</time>
      </trkpt>
      <trkpt lat="48.60933" lon="6.14505">
        <ele>222</ele>
        <time>2020-08-16T08:09:18Z</time>
      </trkpt>
      <trkpt lat="48.60931" lon="6.14515">
        <ele>222</ele>
        <time>2020-08-16T08:09:20Z</time>
      </trkpt>
      <trkpt lat="48.6093" lon="6.14527">
        <ele>222</ele>
        <time>2020-08-16T08:09:22Z</time>
      </trkpt>
      <trkpt lat="48.60928" lon="6.14539">
        <ele>223</ele>
        <time>2020-08-16T08:09:24Z</time>
      </trkpt>
      <trkpt lat="48.60926" lon="6.14552">
        <ele>223</ele>
        <time>2020-08-16T08:09:26Z</time>
      </trkpt>
      <trkpt lat="48.60925" lon="6.14564">
        <ele>223</ele>
        <time>2020-08-16T08:09:28Z</time>
      </trkpt>
      <trkpt lat="48.60925" lon="6.14576">
        <ele>223</ele>
        <time>2020-08-16T08:09:30Z</time>
      </trkpt>
      <trkpt lat="48.60923" lon="6.14587">
        <ele>223</ele>
        <time>2020-08-16T08:09:32Z</time>
      </trkpt>
      <trkpt lat="48.60921" lon="6.14598">
        <ele>223</ele>
        <time>2020-08-16T08:09:34Z</time>
      </trkpt>
      <trkpt lat="48.6092" lon="6.14605">
        <ele>223</ele>
        <time>2020-08-16T08:09:35Z</time>
      </trkpt>
      <trkpt lat="48.60918" lon="6.14617">
        <ele>223</ele>
        <time>2020-08-16T08:09:37Z</time>
      </trkpt>
      <trkpt lat="48.60917" lon="6.1463">
        <ele>223</ele>
        <time>2020-08-16T08:09:39Z</time>
      </trkpt>
      <trkpt lat="48.60915" lon="6.14643">
        <ele>224</ele>
        <time>2020-08-16T08:09:41Z</time>
      </trkpt>
      <trkpt lat="48.60914" lon="6.14655">
        <ele>223</ele>
        <time>2020-08-16T08:09:43Z</time>
      </trkpt>
      <trkpt lat="48.60912" lon="6.14668">
        <ele>223</ele>
        <time>2020-08-16T08:09:45Z</time>
      </trkpt>
      <trkpt lat="48.60911" lon="6.1468">
        <ele>224</ele>
        <time>2020-08-16T08:09:47Z</time>
      </trkpt>
      <trkpt lat="48.60912" lon="6.14691">
        <ele>224</ele>
        <time>2020-08-16T08:09:49Z</time>
      </trkpt>
      <trkpt lat="48.60912" lon="6.14698">
        <ele>224</ele>
        <time>2020-08-16T08:09:50Z</time>
      </trkpt>
      <trkpt lat="48.60911" lon="6.14706">
        <ele>224</ele>
        <time>2020-08-16T08:09:51Z</time>
      </trkpt>
      <trkpt lat="48.60908" lon="6.14717">
        <ele>224</ele>
        <time>2020-08-16T08:09:53Z</time>
      </trkpt>
      <trkpt lat="48.60904" lon="6.14736">
        <ele>224</ele>
        <time>2020-08-16T08:09:56Z</time>
      </trkpt>
      <trkpt lat="48.609" lon="6.14747">
        <ele>225</ele>
        <time>2020-08-16T08:09:58Z</time>
      </trkpt>
      <trkpt lat="48.60897" lon="6.14756">
        <ele>224</ele>
        <time>2020-08-16T08:10:00Z</time>
      </trkpt>
      <trkpt lat="48.60893" lon="6.14767">
        <ele>224</ele>
        <time>2020-08-16T08:10:02Z</time>
      </trkpt>
      <trkpt lat="48.60892" lon="6.14775">
        <ele>224</ele>
        <time>2020-08-16T08:10:03Z</time>
      </trkpt>
      <trkpt lat="48.60889" lon="6.14785">
        <ele>224</ele>
        <time>2020-08-16T08:10:05Z</time>
      </trkpt>
      <trkpt lat="48.60887" lon="6.14795">
        <ele>224</ele>
        <time>2020-08-16T08:10:07Z</time>
      </trkpt>
      <trkpt lat="48.60881" lon="6.14805">
        <ele>225</ele>
        <time>2020-08-16T08:10:09Z</time>
      </trkpt>
      <trkpt lat="48.60877" lon="6.1481">
        <ele>224</ele>
        <time>2020-08-16T08:10:11Z</time>
      </trkpt>
      <trkpt lat="48.60873" lon="6.14816">
        <ele>224</ele>
        <time>2020-08-16T08:10:12Z</time>
      </trkpt>
      <trkpt lat="48.60869" lon="6.14822">
        <ele>224</ele>
        <time>2020-08-16T08:10:13Z</time>
      </trkpt>
      <trkpt lat="48.60868" lon="6.14829">
        <ele>224</ele>
        <time>2020-08-16T08:10:14Z</time>
      </trkpt>
      <trkpt lat="48.60862" lon="6.14838">
        <ele>224</ele>
        <time>2020-08-16T08:10:16Z</time>
      </trkpt>
      <trkpt lat="48.60857" lon="6.14844">
        <ele>223</ele>
        <time>2020-08-16T08:10:17Z</time>
      </trkpt>
      <trkpt lat="48.60854" lon="6.14849">
        <ele>224</ele>
        <time>2020-08-16T08:10:18Z</time>
      </trkpt>
      <trkpt lat="48.60849" lon="6.14859">
        <ele>224</ele>
        <time>2020-08-16T08:10:20Z</time>
      </trkpt>
      <trkpt lat="48.60843" lon="6.14864">
        <ele>224</ele>
        <time>2020-08-16T08:10:22Z</time>
      </trkpt>
      <trkpt lat="48.60836" lon="6.14871">
        <ele>224</ele>
        <time>2020-08-16T08:10:24Z</time>
      </trkpt>
      <trkpt lat="48.60829" lon="6.14877">
        <ele>224</ele>
        <time>2020-08-16T08:10:26Z</time>
      </trkpt>
      <trkpt lat="48.60823" lon="6.14884">
        <ele>223</ele>
        <time>2020-08-16T08:10:28Z</time>
      </trkpt>
      <trkpt lat="48.60817" lon="6.1489">
        <ele>223</ele>
        <time>2020-08-16T08:10:30Z</time>
      </trkpt>
      <trkpt lat="48.60812" lon="6.14892">
        <ele>223</ele>
        <time>2020-08-16T08:10:31Z</time>
      </trkpt>
      <trkpt lat="48.60804" lon="6.14896">
        <ele>223</ele>
        <time>2020-08-16T08:10:33Z</time>
      </trkpt>
      <trkpt lat="48.60795" lon="6.14899">
        <ele>223</ele>
        <time>2020-08-16T08:10:35Z</time>
      </trkpt>
      <trkpt lat="48.60788" lon="6.14903">
        <ele>223</ele>
        <time>2020-08-16T08:10:37Z</time>
      </trkpt>
      <trkpt lat="48.6078" lon="6.14907">
        <ele>222</ele>
        <time>2020-08-16T08:10:39Z</time>
      </trkpt>
      <trkpt lat="48.60771" lon="6.14913">
        <ele>222</ele>
        <time>2020-08-16T08:10:41Z</time>
      </trkpt>
      <trkpt lat="48.60764" lon="6.14916">
        <ele>222</ele>
        <time>2020-08-16T08:10:43Z</time>
      </trkpt>
      <trkpt lat="48.60756" lon="6.14919">
        <ele>223</ele>
        <time>2020-08-16T08:10:45Z</time>
      </trkpt>
      <trkpt lat="48.60749" lon="6.14924">
        <ele>223</ele>
        <time>2020-08-16T08:10:47Z</time>
      </trkpt>
      <trkpt lat="48.60742" lon="6.14927">
        <ele>223</ele>
        <time>2020-08-16T08:10:49Z</time>
      </trkpt>
      <trkpt lat="48.60735" lon="6.14931">
        <ele>224</ele>
        <time>2020-08-16T08:10:51Z</time>
      </trkpt>
      <trkpt lat="48.60728" lon="6.14934">
        <ele>224</ele>
        <time>2020-08-16T08:10:53Z</time>
      </trkpt>
      <trkpt lat="48.60717" lon="6.1494">
        <ele>224</ele>
        <time>2020-08-16T08:10:56Z</time>
      </trkpt>
      <trkpt lat="48.60709" lon="6.14945">
        <ele>224</ele>
        <time>2020-08-16T08:10:58Z</time>
      </trkpt>
      <trkpt lat="48.60703" lon="6.1495">
        <ele>224</ele>
        <time>2020-08-16T08:11:00Z</time>
      </trkpt>
      <trkpt lat="48.60695" lon="6.14955">
        <ele>223</ele>
        <time>2020-08-16T08:11:02Z</time>
      </trkpt>
      <trkpt lat="48.60688" lon="6.14958">
        <ele>223</ele>
        <time>2020-08-16T08:11:04Z</time>
      </trkpt>
      <trkpt lat="48.6068" lon="6.14961">
        <ele>224</ele>
        <time>2020-08-16T08:11:06Z</time>
      </trkpt>
      <trkpt lat="48.60672" lon="6.14965">
        <ele>223</ele>
        <time>2020-08-16T08:11:08Z</time>
      </trkpt>
      <trkpt lat="48.60668" lon="6.14967">
        <ele>223</ele>
        <time>2020-08-16T08:11:09Z</time>
      </trkpt>
      <trkpt lat="48.60661" lon="6.1497">
        <ele>223</ele>
        <time>2020-08-16T08:11:11Z</time>
      </trkpt>
      <trkpt lat="48.60654" lon="6.14974">
        <ele>223</ele>
        <time>2020-08-16T08:11:13Z</time>
      </trkpt>
      <trkpt lat="48.60649" lon="6.14977">
        <ele>222</ele>
        <time>2020-08-16T08:11:14Z</time>
      </trkpt>
      <trkpt lat="48.6064" lon="6.14982">
        <ele>223</ele>
        <time>2020-08-16T08:11:16Z</time>
      </trkpt>
      <trkpt lat="48.60632" lon="6.14987">
        <ele>223</ele>
        <time>2020-08-16T08:11:18Z</time>
      </trkpt>
      <trkpt lat="48.60625" lon="6.14991">
        <ele>223</ele>
        <time>2020-08-16T08:11:20Z</time>
      </trkpt>
      <trkpt lat="48.60618" lon="6.14995">
        <ele>223</ele>
        <time>2020-08-16T08:11:22Z</time>
      </trkpt>
      <trkpt lat="48.60608" lon="6.15002">
        <ele>222</ele>
        <time>2020-08-16T08:11:25Z</time>
      </trkpt>
      <trkpt lat="48.606" lon="6.15008">
        <ele>223</ele>
        <time>2020-08-16T08:11:27Z</time>
      </trkpt>
      <trkpt lat="48.6059" lon="6.15016">
        <ele>223</ele>
        <time>2020-08-16T08:11:30Z</time>
      </trkpt>
      <trkpt lat="48.60585" lon="6.15018">
        <ele>224</ele>
        <time>2020-08-16T08:11:31Z</time>
      </trkpt>
      <trkpt lat="48.60577" lon="6.15025">
        <ele>224</ele>
        <time>2020-08-16T08:11:33Z</time>
      </trkpt>
      <trkpt lat="48.60572" lon="6.15027">
        <ele>224</ele>
        <time>2020-08-16T08:11:34Z</time>
      </trkpt>
      <trkpt lat="48.60568" lon="6.1503">
        <ele>224</ele>
        <time>2020-08-16T08:11:35Z</time>
      </trkpt>
      <trkpt lat="48.60564" lon="6.15033">
        <ele>224</ele>
        <time>2020-08-16T08:11:36Z</time>
      </trkpt>
      <trkpt lat="48.60556" lon="6.1504">
        <ele>224</ele>
        <time>2020-08-16T08:11:38Z</time>
      </trkpt>
      <trkpt lat="48.60549" lon="6.15047">
        <ele>224</ele>
        <time>2020-08-16T08:11:40Z</time>
      </trkpt>
      <trkpt lat="48.60544" lon="6.15051">
        <ele>224</ele>
        <time>2020-08-16T08:11:41Z</time>
      </trkpt>
      <trkpt lat="48.60537" lon="6.15059">
        <ele>223</ele>
        <time>2020-08-16T08:11:43Z</time>
      </trkpt>
      <trkpt lat="48.60533" lon="6.15062">
        <ele>223</ele>
        <time>2020-08-16T08:11:44Z</time>
      </trkpt>
      <trkpt lat="48.60523" lon="6.15073">
        <ele>223</ele>
        <time>2020-08-16T08:11:47Z</time>
      </trkpt>
      <trkpt lat="48.60517" lon="6.15079">
        <ele>223</ele>
        <time>2020-08-16T08:11:49Z</time>
      </trkpt>
      <trkpt lat="48.60511" lon="6.15087">
        <ele>223</ele>
        <time>2020-08-16T08:11:51Z</time>
      </trkpt>
      <trkpt lat="48.60506" lon="6.15091">
        <ele>224</ele>
        <time>2020-08-16T08:11:52Z</time>
      </trkpt>
      <trkpt lat="48.605" lon="6.15097">
        <ele>224</ele>
        <time>2020-08-16T08:11:54Z</time>
      </trkpt>
      <trkpt lat="48.60494" lon="6.15105">
        <ele>224</ele>
        <time>2020-08-16T08:11:56Z</time>
      </trkpt>
      <trkpt lat="48.60488" lon="6.1511">
        <ele>224</ele>
        <time>2020-08-16T08:11:58Z</time>
      </trkpt>
      <trkpt lat="48.60482" lon="6.15117">
        <ele>224</ele>
        <time>2020-08-16T08:12:00Z</time>
      </trkpt>
      <trkpt lat="48.60477" lon="6.15121">
        <ele>224</ele>
        <time>2020-08-16T08:12:01Z</time>
      </trkpt>
      <trkpt lat="48.60471" lon="6.15125">
        <ele>224</ele>
        <time>2020-08-16T08:12:03Z</time>
      </trkpt>
      <trkpt lat="48.6046" lon="6.15135">
        <ele>224</ele>
        <time>2020-08-16T08:12:06Z</time>
      </trkpt>
      <trkpt lat="48.60454" lon="6.15142">
        <ele>224</ele>
        <time>2020-08-16T08:12:08Z</time>
      </trkpt>
      <trkpt lat="48.60448" lon="6.15148">
        <ele>224</ele>
        <time>2020-08-16T08:12:10Z</time>
      </trkpt>
      <trkpt lat="48.60442" lon="6.15155">
        <ele>224</ele>
        <time>2020-08-16T08:12:12Z</time>
      </trkpt>
      <trkpt lat="48.60435" lon="6.15162">
        <ele>224</ele>
        <time>2020-08-16T08:12:14Z</time>
      </trkpt>
      <trkpt lat="48.60429" lon="6.15169">
        <ele>224</ele>
        <time>2020-08-16T08:12:16Z</time>
      </trkpt>
      <trkpt lat="48.60422" lon="6.15176">
        <ele>223</ele>
        <time>2020-08-16T08:12:18Z</time>
      </trkpt>
      <trkpt lat="48.60416" lon="6.15182">
        <ele>223</ele>
        <time>2020-08-16T08:12:20Z</time>
      </trkpt>
      <trkpt lat="48.60412" lon="6.15186">
        <ele>223</ele>
        <time>2020-08-16T08:12:21Z</time>
      </trkpt>
      <trkpt lat="48.60407" lon="6.15193">
        <ele>223</ele>
        <time>2020-08-16T08:12:23Z</time>
      </trkpt>
      <trkpt lat="48.60401" lon="6.15199">
        <ele>224</ele>
        <time>2020-08-16T08:12:25Z</time>
      </trkpt>
      <trkpt lat="48.60395" lon="6.15206">
        <ele>225</ele>
        <time>2020-08-16T08:12:27Z</time>
      </trkpt>
      <trkpt lat="48.60391" lon="6.1521">
        <ele>225</ele>
        <time>2020-08-16T08:12:28Z</time>
      </trkpt>
      <trkpt lat="48.60386" lon="6.15215">
        <ele>226</ele>
        <time>2020-08-16T08:12:30Z</time>
      </trkpt>
      <trkpt lat="48.60381" lon="6.15222">
        <ele>225</ele>
        <time>2020-08-16T08:12:32Z</time>
      </trkpt>
      <trkpt lat="48.60375" lon="6.15228">
        <ele>225</ele>
        <time>2020-08-16T08:12:34Z</time>
      </trkpt>
      <trkpt lat="48.6037" lon="6.15232">
        <ele>224</ele>
        <time>2020-08-16T08:12:35Z</time>
      </trkpt>
      <trkpt lat="48.60363" lon="6.1524">
        <ele>224</ele>
        <time>2020-08-16T08:12:37Z</time>
      </trkpt>
      <trkpt lat="48.60358" lon="6.15247">
        <ele>225</ele>
        <time>2020-08-16T08:12:39Z</time>
      </trkpt>
      <trkpt lat="48.60352" lon="6.15255">
        <ele>225</ele>
        <time>2020-08-16T08:12:41Z</time>
      </trkpt>
      <trkpt lat="48.60344" lon="6.15262">
        <ele>224</ele>
        <time>2020-08-16T08:12:43Z</time>
      </trkpt>
      <trkpt lat="48.6034" lon="6.15266">
        <ele>223</ele>
        <time>2020-08-16T08:12:44Z</time>
      </trkpt>
      <trkpt lat="48.60336" lon="6.1527">
        <ele>223</ele>
        <time>2020-08-16T08:12:45Z</time>
      </trkpt>
      <trkpt lat="48.60331" lon="6.15277">
        <ele>223</ele>
        <time>2020-08-16T08:12:47Z</time>
      </trkpt>
      <trkpt lat="48.60327" lon="6.1528">
        <ele>223</ele>
        <time>2020-08-16T08:12:48Z</time>
      </trkpt>
      <trkpt lat="48.60321" lon="6.15287">
        <ele>223</ele>
        <time>2020-08-16T08:12:50Z</time>
      </trkpt>
      <trkpt lat="48.60315" lon="6.15293">
        <ele>224</ele>
        <time>2020-08-16T08:12:52Z</time>
      </trkpt>
      <trkpt lat="48.6031" lon="6.15299">
        <ele>224</ele>
        <time>2020-08-16T08:12:54Z</time>
      </trkpt>
      <trkpt lat="48.60305" lon="6.15304">
        <ele>224</ele>
        <time>2020-08-16T08:12:56Z</time>
      </trkpt>
      <trkpt lat="48.60299" lon="6.15312">
        <ele>224</ele>
        <time>2020-08-16T08:12:58Z</time>
      </trkpt>
      <trkpt lat="48.60292" lon="6.15318">
        <ele>223</ele>
        <time>2020-08-16T08:13:00Z</time>
      </trkpt>
      <trkpt lat="48.60286" lon="6.15323">
        <ele>224</ele>
        <time>2020-08-16T08:13:02Z</time>
      </trkpt>
      <trkpt lat="48.6028" lon="6.15329">
        <ele>224</ele>
        <time>2020-08-16T08:13:04Z</time>
      </trkpt>
      <trkpt lat="48.60276" lon="6.15332">
        <ele>224</ele>
        <time>2020-08-16T08:13:05Z</time>
      </trkpt>
      <trkpt lat="48.6027" lon="6.15339">
        <ele>225</ele>
        <time>2020-08-16T08:13:07Z</time>
      </trkpt>
      <trkpt lat="48.60264" lon="6.15343">
        <ele>225</ele>
        <time>2020-08-16T08:13:09Z</time>
      </trkpt>
      <trkpt lat="48.6026" lon="6.15348">
        <ele>225</ele>
        <time>2020-08-16T08:13:11Z</time>
      </trkpt>
      <trkpt lat="48.60256" lon="6.15353">
        <ele>225</ele>
        <time>2020-08-16T08:13:13Z</time>
      </trkpt>
      <trkpt lat="48.60251" lon="6.15356">
        <ele>226</ele>
        <time>2020-08-16T08:13:15Z</time>
      </trkpt>
      <trkpt lat="48.60247" lon="6.15362">
        <ele>226</ele>
        <time>2020-08-16T08:13:17Z</time>
      </trkpt>
      <trkpt lat="48.60243" lon="6.15365">
        <ele>226</ele>
        <time>2020-08-16T08:13:19Z</time>
      </trkpt>
      <trkpt lat="48.60235" lon="6.15361">
        <ele>227</ele>
        <time>2020-08-16T08:15:18Z</time>
      </trkpt>
      <trkpt lat="48.6024" lon="6.15357">
        <ele>226</ele>
        <time>2020-08-16T08:16:13Z</time>
      </trkpt>
      <trkpt lat="48.60244" lon="6.15365">
        <ele>226</ele>
        <time>2020-08-16T08:16:33Z</time>
      </trkpt>
      <trkpt lat="48.60252" lon="6.15378">
        <ele>223</ele>
        <time>2020-08-16T08:16:34Z</time>
      </trkpt>
      <trkpt lat="48.60247" lon="6.15376">
        <ele>224</ele>
        <time>2020-08-16T08:16:38Z</time>
      </trkpt>
      <trkpt lat="48.60244" lon="6.15371">
        <ele>226</ele>
        <time>2020-08-16T08:16:41Z</time>
      </trkpt>
      <trkpt lat="48.60241" lon="6.15364">
        <ele>226</ele>
        <time>2020-08-16T08:16:47Z</time>
      </trkpt>
      <trkpt lat="48.60239" lon="6.15397">
        <ele>223</ele>
        <time>2020-08-16T08:21:05Z</time>
      </trkpt>
      <trkpt lat="48.60242" lon="6.15405">
        <ele>222</ele>
        <time>2020-08-16T08:21:07Z</time>
      </trkpt>
      <trkpt lat="48.60241" lon="6.15415">
        <ele>224</ele>
        <time>2020-08-16T08:21:09Z</time>
      </trkpt>
      <trkpt lat="48.60235" lon="6.1542">
        <ele>224</ele>
        <time>2020-08-16T08:21:11Z</time>
      </trkpt>
      <trkpt lat="48.6023" lon="6.15424">
        <ele>223</ele>
        <time>2020-08-16T08:21:13Z</time>
      </trkpt>
      <trkpt lat="48.60223" lon="6.1543">
        <ele>223</ele>
        <time>2020-08-16T08:21:15Z</time>
      </trkpt>
      <trkpt lat="48.60218" lon="6.15435">
        <ele>223</ele>
        <time>2020-08-16T08:21:17Z</time>
      </trkpt>
      <trkpt lat="48.60212" lon="6.15439">
        <ele>223</ele>
        <time>2020-08-16T08:21:19Z</time>
      </trkpt>
      <trkpt lat="48.60209" lon="6.15445">
        <ele>223</ele>
        <time>2020-08-16T08:21:21Z</time>
      </trkpt>
      <trkpt lat="48.60205" lon="6.15453">
        <ele>225</ele>
        <time>2020-08-16T08:21:23Z</time>
      </trkpt>
      <trkpt lat="48.60197" lon="6.15459">
        <ele>224</ele>
        <time>2020-08-16T08:21:25Z</time>
      </trkpt>
      <trkpt lat="48.60193" lon="6.15466">
        <ele>225</ele>
        <time>2020-08-16T08:21:27Z</time>
      </trkpt>
      <trkpt lat="48.60188" lon="6.15473">
        <ele>226</ele>
        <time>2020-08-16T08:21:29Z</time>
      </trkpt>
      <trkpt lat="48.60184" lon="6.15484">
        <ele>227</ele>
        <time>2020-08-16T08:21:31Z</time>
      </trkpt>
      <trkpt lat="48.60179" lon="6.15494">
        <ele>228</ele>
        <time>2020-08-16T08:21:33Z</time>
      </trkpt>
      <trkpt lat="48.60174" lon="6.15501">
        <ele>228</ele>
        <time>2020-08-16T08:21:35Z</time>
      </trkpt>
      <trkpt lat="48.60172" lon="6.15509">
        <ele>228</ele>
        <time>2020-08-16T08:21:37Z</time>
      </trkpt>
      <trkpt lat="48.6017" lon="6.15516">
        <ele>228</ele>
        <time>2020-08-16T08:21:39Z</time>
      </trkpt>
      <trkpt lat="48.6017" lon="6.15523">
        <ele>228</ele>
        <time>2020-08-16T08:21:41Z</time>
      </trkpt>
      <trkpt lat="48.60171" lon="6.15531">
        <ele>229</ele>
        <time>2020-08-16T08:21:43Z</time>
      </trkpt>
      <trkpt lat="48.6017" lon="6.15539">
        <ele>229</ele>
        <time>2020-08-16T08:21:45Z</time>
      </trkpt>
      <trkpt lat="48.60172" lon="6.15546">
        <ele>230</ele>
        <time>2020-08-16T08:21:47Z</time>
      </trkpt>
      <trkpt lat="48.60172" lon="6.15554">
        <ele>230</ele>
        <time>2020-08-16T08:21:50Z</time>
      </trkpt>
      <trkpt lat="48.60169" lon="6.1556">
        <ele>230</ele>
        <time>2020-08-16T08:21:53Z</time>
      </trkpt>
      <trkpt lat="48.60163" lon="6.15562">
        <ele>229</ele>
        <time>2020-08-16T08:21:56Z</time>
      </trkpt>
      <trkpt lat="48.60156" lon="6.15563">
        <ele>228</ele>
        <time>2020-08-16T08:21:58Z</time>
      </trkpt>
      <trkpt lat="48.60152" lon="6.15566">
        <ele>229</ele>
        <time>2020-08-16T08:22:01Z</time>
      </trkpt>
      <trkpt lat="48.60153" lon="6.15578">
        <ele>231</ele>
        <time>2020-08-16T08:22:43Z</time>
      </trkpt>
      <trkpt lat="48.60158" lon="6.15585">
        <ele>230</ele>
        <time>2020-08-16T08:22:46Z</time>
      </trkpt>
      <trkpt lat="48.60163" lon="6.15593">
        <ele>230</ele>
        <time>2020-08-16T08:22:48Z</time>
      </trkpt>
      <trkpt lat="48.60168" lon="6.15604">
        <ele>230</ele>
        <time>2020-08-16T08:22:50Z</time>
      </trkpt>
      <trkpt lat="48.60171" lon="6.15612">
        <ele>230</ele>
        <time>2020-08-16T08:22:52Z</time>
      </trkpt>
      <trkpt lat="48.60175" lon="6.15622">
        <ele>230</ele>
        <time>2020-08-16T08:22:54Z</time>
      </trkpt>
      <trkpt lat="48.6018" lon="6.15628">
        <ele>230</ele>
        <time>2020-08-16T08:22:56Z</time>
      </trkpt>
      <trkpt lat="48.60183" lon="6.15634">
        <ele>230</ele>
        <time>2020-08-16T08:22:58Z</time>
      </trkpt>
      <trkpt lat="48.60185" lon="6.15642">
        <ele>230</ele>
        <time>2020-08-16T08:23:00Z</time>
      </trkpt>
      <trkpt lat="48.6019" lon="6.1565">
        <ele>230</ele>
        <time>2020-08-16T08:23:02Z</time>
      </trkpt>
      <trkpt lat="48.60191" lon="6.1566">
        <ele>230</ele>
        <time>2020-08-16T08:23:04Z</time>
      </trkpt>
      <trkpt lat="48.60195" lon="6.15666">
        <ele>230</ele>
        <time>2020-08-16T08:23:06Z</time>
      </trkpt>
      <trkpt lat="48.60199" lon="6.15671">
        <ele>230</ele>
        <time>2020-08-16T08:23:23Z</time>
      </trkpt>
      <trkpt lat="48.60197" lon="6.15658">
        <ele>230</ele>
        <time>2020-08-16T08:23:47Z</time>
      </trkpt>
      <trkpt lat="48.60193" lon="6.15655">
        <ele>230</ele>
        <time>2020-08-16T08:23:50Z</time>
      </trkpt>
      <trkpt lat="48.60188" lon="6.15648">
        <ele>230</ele>
        <time>2020-08-16T08:23:53Z</time>
      </trkpt>
      <trkpt lat="48.60183" lon="6.15639">
        <ele>230</ele>
        <time>2020-08-16T08:23:56Z</time>
      </trkpt>
      <trkpt lat="48.6018" lon="6.15633">
        <ele>230</ele>
        <time>2020-08-16T08:23:58Z</time>
      </trkpt>
      <trkpt lat="48.60177" lon="6.15626">
        <ele>230</ele>
        <time>2020-08-16T08:24:00Z</time>
      </trkpt>
      <trkpt lat="48.60173" lon="6.15622">
        <ele>230</ele>
        <time>2020-08-16T08:24:04Z</time>
      </trkpt>
      <trkpt lat="48.6017" lon="6.15628">
        <ele>230</ele>
        <time>2020-08-16T08:24:20Z</time>
      </trkpt>
      <trkpt lat="48.6017" lon="6.15637">
        <ele>231</ele>
        <time>2020-08-16T08:24:34Z</time>
      </trkpt>
      <trkpt lat="48.60171" lon="6.15645">
        <ele>232</ele>
        <time>2020-08-16T08:24:37Z</time>
      </trkpt>
      <trkpt lat="48.60177" lon="6.15646">
        <ele>231</ele>
        <time>2020-08-16T08:24:38Z</time>
      </trkpt>
      <trkpt lat="48.60169" lon="6.15637">
        <ele>231</ele>
        <time>2020-08-16T08:24:43Z</time>
      </trkpt>
      <trkpt lat="48.60174" lon="6.15632">
        <ele>230</ele>
        <time>2020-08-16T08:24:45Z</time>
      </trkpt>
      <trkpt lat="48.6018" lon="6.15633">
        <ele>230</ele>
        <time>2020-08-16T08:24:47Z</time>
      </trkpt>
      <trkpt lat="48.60187" lon="6.15628">
        <ele>230</ele>
        <time>2020-08-16T08:24:51Z</time>
      </trkpt>
      <trkpt lat="48.60183" lon="6.15625">
        <ele>230</ele>
        <time>2020-08-16T08:24:58Z</time>
      </trkpt>
      <trkpt lat="48.6018" lon="6.15631">
        <ele>230</ele>
        <time>2020-08-16T08:25:02Z</time>
      </trkpt>
      <trkpt lat="48.60176" lon="6.15628">
        <ele>230</ele>
        <time>2020-08-16T08:25:11Z</time>
      </trkpt>
      <trkpt lat="48.60173" lon="6.15635">
        <ele>231</ele>
        <time>2020-08-16T08:25:13Z</time>
      </trkpt>
      <trkpt lat="48.60175" lon="6.15629">
        <ele>230</ele>
        <time>2020-08-16T08:25:50Z</time>
      </trkpt>
      <trkpt lat="48.60196" lon="6.15664">
        <ele>230</ele>
        <time>2020-08-16T08:36:20Z</time>
      </trkpt>
      <trkpt lat="48.60199" lon="6.1567">
        <ele>230</ele>
        <time>2020-08-16T08:36:22Z</time>
      </trkpt>
      <trkpt lat="48.60204" lon="6.15678">
        <ele>230</ele>
        <time>2020-08-16T08:36:24Z</time>
      </trkpt>
      <trkpt lat="48.60202" lon="6.15686">
        <ele>230</ele>
        <time>2020-08-16T08:36:26Z</time>
      </trkpt>
      <trkpt lat="48.60201" lon="6.15695">
        <ele>231</ele>
        <time>2020-08-16T08:36:29Z</time>
      </trkpt>
      <trkpt lat="48.60203" lon="6.15701">
        <ele>231</ele>
        <time>2020-08-16T08:36:31Z</time>
      </trkpt>
      <trkpt lat="48.60207" lon="6.15706">
        <ele>231</ele>
        <time>2020-08-16T08:36:33Z</time>
      </trkpt>
      <trkpt lat="48.60214" lon="6.1571">
        <ele>232</ele>
        <time>2020-08-16T08:36:35Z</time>
      </trkpt>
      <trkpt lat="48.60221" lon="6.15716">
        <ele>232</ele>
        <time>2020-08-16T08:36:37Z</time>
      </trkpt>
      <trkpt lat="48.60225" lon="6.15721">
        <ele>231</ele>
        <time>2020-08-16T08:36:38Z</time>
      </trkpt>
      <trkpt lat="48.60232" lon="6.15727">
        <ele>231</ele>
        <time>2020-08-16T08:36:40Z</time>
      </trkpt>
      <trkpt lat="48.60239" lon="6.15733">
        <ele>230</ele>
        <time>2020-08-16T08:36:42Z</time>
      </trkpt>
      <trkpt lat="48.60246" lon="6.15742">
        <ele>230</ele>
        <time>2020-08-16T08:36:44Z</time>
      </trkpt>
      <trkpt lat="48.60251" lon="6.15751">
        <ele>231</ele>
        <time>2020-08-16T08:36:46Z</time>
      </trkpt>
      <trkpt lat="48.60257" lon="6.1576">
        <ele>231</ele>
        <time>2020-08-16T08:36:48Z</time>
      </trkpt>
      <trkpt lat="48.60261" lon="6.15763">
        <ele>231</ele>
        <time>2020-08-16T08:36:49Z</time>
      </trkpt>
      <trkpt lat="48.60267" lon="6.15769">
        <ele>231</ele>
        <time>2020-08-16T08:36:51Z</time>
      </trkpt>
      <trkpt lat="48.60273" lon="6.15776">
        <ele>232</ele>
        <time>2020-08-16T08:36:53Z</time>
      </trkpt>
      <trkpt lat="48.60278" lon="6.15785">
        <ele>232</ele>
        <time>2020-08-16T08:36:55Z</time>
      </trkpt>
      <trkpt lat="48.60284" lon="6.15795">
        <ele>232</ele>
        <time>2020-08-16T08:36:57Z</time>
      </trkpt>
      <trkpt lat="48.60289" lon="6.15802">
        <ele>232</ele>
        <time>2020-08-16T08:36:59Z</time>
      </trkpt>
      <trkpt lat="48.60294" lon="6.15807">
        <ele>232</ele>
        <time>2020-08-16T08:37:01Z</time>
      </trkpt>
      <trkpt lat="48.60297" lon="6.15813">
        <ele>232</ele>
        <time>2020-08-16T08:37:03Z</time>
      </trkpt>
      <trkpt lat="48.603" lon="6.15819">
        <ele>233</ele>
        <time>2020-08-16T08:37:05Z</time>
      </trkpt>
      <trkpt lat="48.60307" lon="6.15823">
        <ele>233</ele>
        <time>2020-08-16T08:37:07Z</time>
      </trkpt>
      <trkpt lat="48.60311" lon="6.15827">
        <ele>233</ele>
        <time>2020-08-16T08:37:10Z</time>
      </trkpt>
      <trkpt lat="48.60317" lon="6.15834">
        <ele>233</ele>
        <time>2020-08-16T08:37:13Z</time>
      </trkpt>
      <trkpt lat="48.60325" lon="6.15843">
        <ele>233</ele>
        <time>2020-08-16T08:37:17Z</time>
      </trkpt>
      <trkpt lat="48.60331" lon="6.15848">
        <ele>233</ele>
        <time>2020-08-16T08:37:19Z</time>
      </trkpt>
      <trkpt lat="48.60335" lon="6.15854">
        <ele>233</ele>
        <time>2020-08-16T08:37:21Z</time>
      </trkpt>
      <trkpt lat="48.60339" lon="6.15862">
        <ele>233</ele>
        <time>2020-08-16T08:37:23Z</time>
      </trkpt>
      <trkpt lat="48.60343" lon="6.1587">
        <ele>233</ele>
        <time>2020-08-16T08:37:25Z</time>
      </trkpt>
      <trkpt lat="48.60347" lon="6.15876">
        <ele>233</ele>
        <time>2020-08-16T08:37:27Z</time>
      </trkpt>
      <trkpt lat="48.60353" lon="6.15881">
        <ele>233</ele>
        <time>2020-08-16T08:37:29Z</time>
      </trkpt>
      <trkpt lat="48.60358" lon="6.1589">
        <ele>233</ele>
        <time>2020-08-16T08:37:31Z</time>
      </trkpt>
      <trkpt lat="48.60365" lon="6.15898">
        <ele>233</ele>
        <time>2020-08-16T08:37:33Z</time>
      </trkpt>
      <trkpt lat="48.6037" lon="6.15904">
        <ele>233</ele>
        <time>2020-08-16T08:37:35Z</time>
      </trkpt>
      <trkpt lat="48.60375" lon="6.15911">
        <ele>233</ele>
        <time>2020-08-16T08:37:37Z</time>
      </trkpt>
      <trkpt lat="48.60379" lon="6.15915">
        <ele>233</ele>
        <time>2020-08-16T08:37:38Z</time>
      </trkpt>
      <trkpt lat="48.60386" lon="6.15922">
        <ele>233</ele>
        <time>2020-08-16T08:37:40Z</time>
      </trkpt>
      <trkpt lat="48.60393" lon="6.15932">
        <ele>233</ele>
        <time>2020-08-16T08:37:42Z</time>
      </trkpt>
      <trkpt lat="48.60399" lon="6.1594">
        <ele>233</ele>
        <time>2020-08-16T08:37:44Z</time>
      </trkpt>
      <trkpt lat="48.60403" lon="6.15945">
        <ele>233</ele>
        <time>2020-08-16T08:37:45Z</time>
      </trkpt>
      <trkpt lat="48.60409" lon="6.15952">
        <ele>233</ele>
        <time>2020-08-16T08:37:47Z</time>
      </trkpt>
      <trkpt lat="48.60413" lon="6.15957">
        <ele>233</ele>
        <time>2020-08-16T08:37:49Z</time>
      </trkpt>
      <trkpt lat="48.60418" lon="6.15963">
        <ele>233</ele>
        <time>2020-08-16T08:37:51Z</time>
      </trkpt>
      <trkpt lat="48.60422" lon="6.15971">
        <ele>233</ele>
        <time>2020-08-16T08:37:53Z</time>
      </trkpt>
      <trkpt lat="48.60428" lon="6.1598">
        <ele>233</ele>
        <time>2020-08-16T08:37:55Z</time>
      </trkpt>
      <trkpt lat="48.60436" lon="6.15993">
        <ele>234</ele>
        <time>2020-08-16T08:37:58Z</time>
      </trkpt>
      <trkpt lat="48.60442" lon="6.16001">
        <ele>234</ele>
        <time>2020-08-16T08:38:00Z</time>
      </trkpt>
      <trkpt lat="48.60445" lon="6.16007">
        <ele>234</ele>
        <time>2020-08-16T08:38:01Z</time>
      </trkpt>
      <trkpt lat="48.60453" lon="6.16016">
        <ele>234</ele>
        <time>2020-08-16T08:38:03Z</time>
      </trkpt>
      <trkpt lat="48.60457" lon="6.1602">
        <ele>234</ele>
        <time>2020-08-16T08:38:04Z</time>
      </trkpt>
      <trkpt lat="48.60462" lon="6.16027">
        <ele>234</ele>
        <time>2020-08-16T08:38:06Z</time>
      </trkpt>
      <trkpt lat="48.60468" lon="6.16035">
        <ele>234</ele>
        <time>2020-08-16T08:38:08Z</time>
      </trkpt>
      <trkpt lat="48.60473" lon="6.16045">
        <ele>234</ele>
        <time>2020-08-16T08:38:10Z</time>
      </trkpt>
      <trkpt lat="48.60479" lon="6.16057">
        <ele>235</ele>
        <time>2020-08-16T08:38:12Z</time>
      </trkpt>
      <trkpt lat="48.6048" lon="6.16065">
        <ele>235</ele>
        <time>2020-08-16T08:38:14Z</time>
      </trkpt>
      <trkpt lat="48.60486" lon="6.16072">
        <ele>235</ele>
        <time>2020-08-16T08:38:16Z</time>
      </trkpt>
      <trkpt lat="48.60488" lon="6.16078">
        <ele>236</ele>
        <time>2020-08-16T08:38:17Z</time>
      </trkpt>
      <trkpt lat="48.60492" lon="6.16087">
        <ele>236</ele>
        <time>2020-08-16T08:38:19Z</time>
      </trkpt>
      <trkpt lat="48.60496" lon="6.16094">
        <ele>236</ele>
        <time>2020-08-16T08:38:21Z</time>
      </trkpt>
      <trkpt lat="48.60499" lon="6.16102">
        <ele>236</ele>
        <time>2020-08-16T08:38:23Z</time>
      </trkpt>
      <trkpt lat="48.60501" lon="6.16108">
        <ele>236</ele>
        <time>2020-08-16T08:38:25Z</time>
      </trkpt>
      <trkpt lat="48.60505" lon="6.16118">
        <ele>236</ele>
        <time>2020-08-16T08:38:28Z</time>
      </trkpt>
      <trkpt lat="48.60507" lon="6.16127">
        <ele>236</ele>
        <time>2020-08-16T08:38:31Z</time>
      </trkpt>
      <trkpt lat="48.6051" lon="6.16135">
        <ele>236</ele>
        <time>2020-08-16T08:38:33Z</time>
      </trkpt>
      <trkpt lat="48.60515" lon="6.16143">
        <ele>236</ele>
        <time>2020-08-16T08:38:35Z</time>
      </trkpt>
      <trkpt lat="48.60517" lon="6.16149">
        <ele>236</ele>
        <time>2020-08-16T08:38:36Z</time>
      </trkpt>
      <trkpt lat="48.60522" lon="6.16154">
        <ele>236</ele>
        <time>2020-08-16T08:38:37Z</time>
      </trkpt>
      <trkpt lat="48.60524" lon="6.16162">
        <ele>236</ele>
        <time>2020-08-16T08:38:39Z</time>
      </trkpt>
      <trkpt lat="48.60527" lon="6.16171">
        <ele>236</ele>
        <time>2020-08-16T08:38:41Z</time>
      </trkpt>
      <trkpt lat="48.60531" lon="6.16178">
        <ele>236</ele>
        <time>2020-08-16T08:38:43Z</time>
      </trkpt>
      <trkpt lat="48.60534" lon="6.16189">
        <ele>236</ele>
        <time>2020-08-16T08:38:45Z</time>
      </trkpt>
      <trkpt lat="48.60539" lon="6.16193">
        <ele>235</ele>
        <time>2020-08-16T08:38:46Z</time>
      </trkpt>
      <trkpt lat="48.60543" lon="6.16203">
        <ele>235</ele>
        <time>2020-08-16T08:38:48Z</time>
      </trkpt>
      <trkpt lat="48.60545" lon="6.16209">
        <ele>235</ele>
        <time>2020-08-16T08:38:49Z</time>
      </trkpt>
      <trkpt lat="48.60548" lon="6.16216">
        <ele>235</ele>
        <time>2020-08-16T08:38:50Z</time>
      </trkpt>
      <trkpt lat="48.60551" lon="6.16223">
        <ele>235</ele>
        <time>2020-08-16T08:38:52Z</time>
      </trkpt>
      <trkpt lat="48.60555" lon="6.16235">
        <ele>235</ele>
        <time>2020-08-16T08:38:54Z</time>
      </trkpt>
      <trkpt lat="48.60556" lon="6.16243">
        <ele>235</ele>
        <time>2020-08-16T08:38:55Z</time>
      </trkpt>
      <trkpt lat="48.60556" lon="6.16252">
        <ele>235</ele>
        <time>2020-08-16T08:38:57Z</time>
      </trkpt>
      <trkpt lat="48.60559" lon="6.16262">
        <ele>235</ele>
        <time>2020-08-16T08:38:59Z</time>
      </trkpt>
      <trkpt lat="48.60563" lon="6.16267">
        <ele>235</ele>
        <time>2020-08-16T08:39:01Z</time>
      </trkpt>
      <trkpt lat="48.60567" lon="6.16274">
        <ele>235</ele>
        <time>2020-08-16T08:39:03Z</time>
      </trkpt>
      <trkpt lat="48.60572" lon="6.16284">
        <ele>234</ele>
        <time>2020-08-16T08:39:05Z</time>
      </trkpt>
      <trkpt lat="48.60575" lon="6.16289">
        <ele>234</ele>
        <time>2020-08-16T08:39:06Z</time>
      </trkpt>
      <trkpt lat="48.60578" lon="6.16298">
        <ele>234</ele>
        <time>2020-08-16T08:39:08Z</time>
      </trkpt>
      <trkpt lat="48.60584" lon="6.16311">
        <ele>234</ele>
        <time>2020-08-16T08:39:10Z</time>
      </trkpt>
      <trkpt lat="48.60587" lon="6.16317">
        <ele>234</ele>
        <time>2020-08-16T08:39:11Z</time>
      </trkpt>
      <trkpt lat="48.6059" lon="6.16325">
        <ele>234</ele>
        <time>2020-08-16T08:39:13Z</time>
      </trkpt>
      <trkpt lat="48.60593" lon="6.16332">
        <ele>234</ele>
        <time>2020-08-16T08:39:14Z</time>
      </trkpt>
      <trkpt lat="48.60595" lon="6.16342">
        <ele>234</ele>
        <time>2020-08-16T08:39:16Z</time>
      </trkpt>
      <trkpt lat="48.60598" lon="6.16348">
        <ele>234</ele>
        <time>2020-08-16T08:39:17Z</time>
      </trkpt>
      <trkpt lat="48.60603" lon="6.16357">
        <ele>234</ele>
        <time>2020-08-16T08:39:19Z</time>
      </trkpt>
      <trkpt lat="48.60607" lon="6.16368">
        <ele>235</ele>
        <time>2020-08-16T08:39:21Z</time>
      </trkpt>
      <trkpt lat="48.60609" lon="6.16375">
        <ele>235</ele>
        <time>2020-08-16T08:39:22Z</time>
      </trkpt>
      <trkpt lat="48.60613" lon="6.16383">
        <ele>235</ele>
        <time>2020-08-16T08:39:24Z</time>
      </trkpt>
      <trkpt lat="48.60616" lon="6.1639">
        <ele>235</ele>
        <time>2020-08-16T08:39:25Z</time>
      </trkpt>
      <trkpt lat="48.60617" lon="6.16401">
        <ele>235</ele>
        <time>2020-08-16T08:39:27Z</time>
      </trkpt>
      <trkpt lat="48.60621" lon="6.16412">
        <ele>235</ele>
        <time>2020-08-16T08:39:29Z</time>
      </trkpt>
      <trkpt lat="48.60625" lon="6.16421">
        <ele>235</ele>
        <time>2020-08-16T08:39:31Z</time>
      </trkpt>
      <trkpt lat="48.60627" lon="6.16428">
        <ele>235</ele>
        <time>2020-08-16T08:39:32Z</time>
      </trkpt>
      <trkpt lat="48.60632" lon="6.16439">
        <ele>235</ele>
        <time>2020-08-16T08:39:34Z</time>
      </trkpt>
      <trkpt lat="48.60636" lon="6.16443">
        <ele>235</ele>
        <time>2020-08-16T08:39:35Z</time>
      </trkpt>
      <trkpt lat="48.60643" lon="6.16454">
        <ele>235</ele>
        <time>2020-08-16T08:39:37Z</time>
      </trkpt>
      <trkpt lat="48.60645" lon="6.16461">
        <ele>235</ele>
        <time>2020-08-16T08:39:38Z</time>
      </trkpt>
      <trkpt lat="48.60648" lon="6.16467">
        <ele>235</ele>
        <time>2020-08-16T08:39:39Z</time>
      </trkpt>
      <trkpt lat="48.60652" lon="6.16474">
        <ele>235</ele>
        <time>2020-08-16T08:39:40Z</time>
      </trkpt>
      <trkpt lat="48.60654" lon="6.16484">
        <ele>235</ele>
        <time>2020-08-16T08:39:42Z</time>
      </trkpt>
      <trkpt lat="48.60656" lon="6.16491">
        <ele>235</ele>
        <time>2020-08-16T08:39:43Z</time>
      </trkpt>
      <trkpt lat="48.6066" lon="6.16496">
        <ele>235</ele>
        <time>2020-08-16T08:39:44Z</time>
      </trkpt>
      <trkpt lat="48.60664" lon="6.16504">
        <ele>236</ele>
        <time>2020-08-16T08:39:46Z</time>
      </trkpt>
      <trkpt lat="48.60668" lon="6.16512">
        <ele>236</ele>
        <time>2020-08-16T08:39:47Z</time>
      </trkpt>
      <trkpt lat="48.60671" lon="6.1652">
        <ele>236</ele>
        <time>2020-08-16T08:39:49Z</time>
      </trkpt>
      <trkpt lat="48.60677" lon="6.16523">
        <ele>236</ele>
        <time>2020-08-16T08:39:50Z</time>
      </trkpt>
      <trkpt lat="48.60679" lon="6.16533">
        <ele>237</ele>
        <time>2020-08-16T08:39:53Z</time>
      </trkpt>
      <trkpt lat="48.60683" lon="6.16541">
        <ele>237</ele>
        <time>2020-08-16T08:39:56Z</time>
      </trkpt>
      <trkpt lat="48.60686" lon="6.16548">
        <ele>237</ele>
        <time>2020-08-16T08:39:59Z</time>
      </trkpt>
      <trkpt lat="48.60689" lon="6.16554">
        <ele>237</ele>
        <time>2020-08-16T08:40:01Z</time>
      </trkpt>
      <trkpt lat="48.60693" lon="6.1656">
        <ele>238</ele>
        <time>2020-08-16T08:40:03Z</time>
      </trkpt>
      <trkpt lat="48.60693" lon="6.16568">
        <ele>238</ele>
        <time>2020-08-16T08:40:05Z</time>
      </trkpt>
      <trkpt lat="48.60696" lon="6.16576">
        <ele>238</ele>
        <time>2020-08-16T08:40:07Z</time>
      </trkpt>
      <trkpt lat="48.60698" lon="6.16588">
        <ele>238</ele>
        <time>2020-08-16T08:40:09Z</time>
      </trkpt>
      <trkpt lat="48.60701" lon="6.16595">
        <ele>238</ele>
        <time>2020-08-16T08:40:11Z</time>
      </trkpt>
      <trkpt lat="48.60704" lon="6.16603">
        <ele>238</ele>
        <time>2020-08-16T08:40:13Z</time>
      </trkpt>
      <trkpt lat="48.6071" lon="6.16611">
        <ele>238</ele>
        <time>2020-08-16T08:40:15Z</time>
      </trkpt>
      <trkpt lat="48.60716" lon="6.16621">
        <ele>238</ele>
        <time>2020-08-16T08:40:17Z</time>
      </trkpt>
      <trkpt lat="48.60719" lon="6.1663">
        <ele>238</ele>
        <time>2020-08-16T08:40:19Z</time>
      </trkpt>
      <trkpt lat="48.60725" lon="6.16638">
        <ele>238</ele>
        <time>2020-08-16T08:40:21Z</time>
      </trkpt>
      <trkpt lat="48.60729" lon="6.16647">
        <ele>238</ele>
        <time>2020-08-16T08:40:22Z</time>
      </trkpt>
      <trkpt lat="48.60732" lon="6.16659">
        <ele>238</ele>
        <time>2020-08-16T08:40:24Z</time>
      </trkpt>
      <trkpt lat="48.60735" lon="6.16668">
        <ele>238</ele>
        <time>2020-08-16T08:40:26Z</time>
      </trkpt>
      <trkpt lat="48.60736" lon="6.16676">
        <ele>238</ele>
        <time>2020-08-16T08:40:28Z</time>
      </trkpt>
      <trkpt lat="48.6074" lon="6.16682">
        <ele>238</ele>
        <time>2020-08-16T08:40:29Z</time>
      </trkpt>
      <trkpt lat="48.60743" lon="6.1669">
        <ele>238</ele>
        <time>2020-08-16T08:40:30Z</time>
      </trkpt>
      <trkpt lat="48.60747" lon="6.16701">
        <ele>238</ele>
        <time>2020-08-16T08:40:32Z</time>
      </trkpt>
      <trkpt lat="48.60751" lon="6.1671">
        <ele>238</ele>
        <time>2020-08-16T08:40:34Z</time>
      </trkpt>
      <trkpt lat="48.60753" lon="6.16716">
        <ele>238</ele>
        <time>2020-08-16T08:40:35Z</time>
      </trkpt>
      <trkpt lat="48.60757" lon="6.16726">
        <ele>238</ele>
        <time>2020-08-16T08:40:37Z</time>
      </trkpt>
      <trkpt lat="48.60759" lon="6.16737">
        <ele>238</ele>
        <time>2020-08-16T08:40:39Z</time>
      </trkpt>
      <trkpt lat="48.60761" lon="6.16743">
        <ele>238</ele>
        <time>2020-08-16T08:40:40Z</time>
      </trkpt>
      <trkpt lat="48.60765" lon="6.16748">
        <ele>238</ele>
        <time>2020-08-16T08:40:41Z</time>
      </trkpt>
      <trkpt lat="48.60769" lon="6.16759">
        <ele>238</ele>
        <time>2020-08-16T08:40:43Z</time>
      </trkpt>
      <trkpt lat="48.60769" lon="6.1677">
        <ele>238</ele>
        <time>2020-08-16T08:40:45Z</time>
      </trkpt>
      <trkpt lat="48.60772" lon="6.16782">
        <ele>238</ele>
        <time>2020-08-16T08:40:47Z</time>
      </trkpt>
      <trkpt lat="48.60773" lon="6.16793">
        <ele>238</ele>
        <time>2020-08-16T08:40:49Z</time>
      </trkpt>
      <trkpt lat="48.60777" lon="6.1681">
        <ele>238</ele>
        <time>2020-08-16T08:40:52Z</time>
      </trkpt>
      <trkpt lat="48.60779" lon="6.16821">
        <ele>238</ele>
        <time>2020-08-16T08:40:54Z</time>
      </trkpt>
      <trkpt lat="48.60783" lon="6.16831">
        <ele>238</ele>
        <time>2020-08-16T08:40:56Z</time>
      </trkpt>
      <trkpt lat="48.60785" lon="6.16841">
        <ele>238</ele>
        <time>2020-08-16T08:40:58Z</time>
      </trkpt>
      <trkpt lat="48.60788" lon="6.16853">
        <ele>238</ele>
        <time>2020-08-16T08:41:00Z</time>
      </trkpt>
      <trkpt lat="48.6079" lon="6.16864">
        <ele>238</ele>
        <time>2020-08-16T08:41:02Z</time>
      </trkpt>
      <trkpt lat="48.60794" lon="6.16875">
        <ele>239</ele>
        <time>2020-08-16T08:41:04Z</time>
      </trkpt>
      <trkpt lat="48.60796" lon="6.16883">
        <ele>239</ele>
        <time>2020-08-16T08:41:06Z</time>
      </trkpt>
      <trkpt lat="48.60798" lon="6.16892">
        <ele>239</ele>
        <time>2020-08-16T08:41:08Z</time>
      </trkpt>
      <trkpt lat="48.60802" lon="6.16902">
        <ele>239</ele>
        <time>2020-08-16T08:41:10Z</time>
      </trkpt>
      <trkpt lat="48.60807" lon="6.1691">
        <ele>239</ele>
        <time>2020-08-16T08:41:11Z</time>
      </trkpt>
      <trkpt lat="48.60809" lon="6.16921">
        <ele>239</ele>
        <time>2020-08-16T08:41:13Z</time>
      </trkpt>
      <trkpt lat="48.60812" lon="6.16932">
        <ele>239</ele>
        <time>2020-08-16T08:41:15Z</time>
      </trkpt>
      <trkpt lat="48.60813" lon="6.16944">
        <ele>239</ele>
        <time>2020-08-16T08:41:17Z</time>
      </trkpt>
      <trkpt lat="48.60815" lon="6.16956">
        <ele>239</ele>
        <time>2020-08-16T08:41:19Z</time>
      </trkpt>
      <trkpt lat="48.60818" lon="6.16968">
        <ele>239</ele>
        <time>2020-08-16T08:41:21Z</time>
      </trkpt>
      <trkpt lat="48.6082" lon="6.16979">
        <ele>239</ele>
        <time>2020-08-16T08:41:23Z</time>
      </trkpt>
      <trkpt lat="48.60822" lon="6.16992">
        <ele>239</ele>
        <time>2020-08-16T08:41:25Z</time>
      </trkpt>
      <trkpt lat="48.60822" lon="6.17004">
        <ele>239</ele>
        <time>2020-08-16T08:41:27Z</time>
      </trkpt>
      <trkpt lat="48.60821" lon="6.17016">
        <ele>239</ele>
        <time>2020-08-16T08:41:29Z</time>
      </trkpt>
      <trkpt lat="48.60822" lon="6.17026">
        <ele>239</ele>
        <time>2020-08-16T08:41:31Z</time>
      </trkpt>
      <trkpt lat="48.60823" lon="6.17036">
        <ele>239</ele>
        <time>2020-08-16T08:41:33Z</time>
      </trkpt>
      <trkpt lat="48.60825" lon="6.17042">
        <ele>239</ele>
        <time>2020-08-16T08:41:34Z</time>
      </trkpt>
      <trkpt lat="48.60827" lon="6.17049">
        <ele>239</ele>
        <time>2020-08-16T08:41:35Z</time>
      </trkpt>
      <trkpt lat="48.60827" lon="6.17056">
        <ele>239</ele>
        <time>2020-08-16T08:41:36Z</time>
      </trkpt>
      <trkpt lat="48.60828" lon="6.1707">
        <ele>240</ele>
        <time>2020-08-16T08:41:38Z</time>
      </trkpt>
      <trkpt lat="48.60829" lon="6.17084">
        <ele>240</ele>
        <time>2020-08-16T08:41:40Z</time>
      </trkpt>
      <trkpt lat="48.6083" lon="6.17094">
        <ele>239</ele>
        <time>2020-08-16T08:41:42Z</time>
      </trkpt>
      <trkpt lat="48.60832" lon="6.17104">
        <ele>239</ele>
        <time>2020-08-16T08:41:44Z</time>
      </trkpt>
      <trkpt lat="48.60832" lon="6.17116">
        <ele>239</ele>
        <time>2020-08-16T08:41:46Z</time>
      </trkpt>
      <trkpt lat="48.6083" lon="6.17127">
        <ele>239</ele>
        <time>2020-08-16T08:41:48Z</time>
      </trkpt>
      <trkpt lat="48.6083" lon="6.17141">
        <ele>239</ele>
        <time>2020-08-16T08:41:50Z</time>
      </trkpt>
      <trkpt lat="48.6083" lon="6.17148">
        <ele>239</ele>
        <time>2020-08-16T08:41:51Z</time>
      </trkpt>
      <trkpt lat="48.60831" lon="6.17155">
        <ele>239</ele>
        <time>2020-08-16T08:41:52Z</time>
      </trkpt>
      <trkpt lat="48.60832" lon="6.17162">
        <ele>239</ele>
        <time>2020-08-16T08:41:53Z</time>
      </trkpt>
      <trkpt lat="48.60832" lon="6.17169">
        <ele>239</ele>
        <time>2020-08-16T08:41:54Z</time>
      </trkpt>
      <trkpt lat="48.60831" lon="6.17182">
        <ele>239</ele>
        <time>2020-08-16T08:41:56Z</time>
      </trkpt>
      <trkpt lat="48.60828" lon="6.17188">
        <ele>239</ele>
        <time>2020-08-16T08:41:57Z</time>
      </trkpt>
      <trkpt lat="48.60828" lon="6.17199">
        <ele>239</ele>
        <time>2020-08-16T08:41:59Z</time>
      </trkpt>
      <trkpt lat="48.6083" lon="6.17211">
        <ele>239</ele>
        <time>2020-08-16T08:42:01Z</time>
      </trkpt>
      <trkpt lat="48.60832" lon="6.17217">
        <ele>239</ele>
        <time>2020-08-16T08:42:02Z</time>
      </trkpt>
      <trkpt lat="48.60832" lon="6.1723">
        <ele>239</ele>
        <time>2020-08-16T08:42:04Z</time>
      </trkpt>
      <trkpt lat="48.60833" lon="6.17243">
        <ele>239</ele>
        <time>2020-08-16T08:42:06Z</time>
      </trkpt>
      <trkpt lat="48.60834" lon="6.17257">
        <ele>239</ele>
        <time>2020-08-16T08:42:08Z</time>
      </trkpt>
      <trkpt lat="48.60835" lon="6.1727">
        <ele>239</ele>
        <time>2020-08-16T08:42:10Z</time>
      </trkpt>
      <trkpt lat="48.60835" lon="6.17278">
        <ele>239</ele>
        <time>2020-08-16T08:42:11Z</time>
      </trkpt>
      <trkpt lat="48.60836" lon="6.1729">
        <ele>239</ele>
        <time>2020-08-16T08:42:13Z</time>
      </trkpt>
      <trkpt lat="48.60834" lon="6.17302">
        <ele>240</ele>
        <time>2020-08-16T08:42:15Z</time>
      </trkpt>
      <trkpt lat="48.60833" lon="6.17309">
        <ele>240</ele>
        <time>2020-08-16T08:42:16Z</time>
      </trkpt>
      <trkpt lat="48.60832" lon="6.17321">
        <ele>241</ele>
        <time>2020-08-16T08:42:18Z</time>
      </trkpt>
      <trkpt lat="48.60833" lon="6.17329">
        <ele>241</ele>
        <time>2020-08-16T08:42:20Z</time>
      </trkpt>
      <trkpt lat="48.60833" lon="6.17339">
        <ele>241</ele>
        <time>2020-08-16T08:42:22Z</time>
      </trkpt>
      <trkpt lat="48.60833" lon="6.17348">
        <ele>242</ele>
        <time>2020-08-16T08:42:24Z</time>
      </trkpt>
      <trkpt lat="48.60832" lon="6.17355">
        <ele>242</ele>
        <time>2020-08-16T08:42:26Z</time>
      </trkpt>
      <trkpt lat="48.6083" lon="6.17363">
        <ele>242</ele>
        <time>2020-08-16T08:42:39Z</time>
      </trkpt>
      <trkpt lat="48.60834" lon="6.17372">
        <ele>242</ele>
        <time>2020-08-16T08:42:42Z</time>
      </trkpt>
      <trkpt lat="48.60835" lon="6.17378">
        <ele>242</ele>
        <time>2020-08-16T08:42:44Z</time>
      </trkpt>
      <trkpt lat="48.60835" lon="6.17386">
        <ele>242</ele>
        <time>2020-08-16T08:42:46Z</time>
      </trkpt>
      <trkpt lat="48.60835" lon="6.17393">
        <ele>242</ele>
        <time>2020-08-16T08:42:48Z</time>
      </trkpt>
      <trkpt lat="48.60836" lon="6.17402">
        <ele>242</ele>
        <time>2020-08-16T08:42:50Z</time>
      </trkpt>
      <trkpt lat="48.60836" lon="6.17411">
        <ele>242</ele>
        <time>2020-08-16T08:42:52Z</time>
      </trkpt>
      <trkpt lat="48.60836" lon="6.17421">
        <ele>242</ele>
        <time>2020-08-16T08:42:54Z</time>
      </trkpt>
      <trkpt lat="48.60835" lon="6.17431">
        <ele>242</ele>
        <time>2020-08-16T08:42:56Z</time>
      </trkpt>
      <trkpt lat="48.60833" lon="6.17442">
        <ele>242</ele>
        <time>2020-08-16T08:42:58Z</time>
      </trkpt>
      <trkpt lat="48.60832" lon="6.17452">
        <ele>242</ele>
        <time>2020-08-16T08:43:00Z</time>
      </trkpt>
      <trkpt lat="48.60832" lon="6.17464">
        <ele>242</ele>
        <time>2020-08-16T08:43:02Z</time>
      </trkpt>
      <trkpt lat="48.60831" lon="6.17475">
        <ele>243</ele>
        <time>2020-08-16T08:43:04Z</time>
      </trkpt>
      <trkpt lat="48.60831" lon="6.17486">
        <ele>244</ele>
        <time>2020-08-16T08:43:06Z</time>
      </trkpt>
      <trkpt lat="48.60831" lon="6.17497">
        <ele>245</ele>
        <time>2020-08-16T08:43:08Z</time>
      </trkpt>
      <trkpt lat="48.60836" lon="6.17499">
        <ele>244</ele>
        <time>2020-08-16T08:43:10Z</time>
      </trkpt>
      <trkpt lat="48.60833" lon="6.17514">
        <ele>245</ele>
        <time>2020-08-16T08:43:13Z</time>
      </trkpt>
      <trkpt lat="48.60832" lon="6.17524">
        <ele>244</ele>
        <time>2020-08-16T08:43:14Z</time>
      </trkpt>
      <trkpt lat="48.60831" lon="6.17531">
        <ele>244</ele>
        <time>2020-08-16T08:43:15Z</time>
      </trkpt>
      <trkpt lat="48.60827" lon="6.17539">
        <ele>244</ele>
        <time>2020-08-16T08:43:16Z</time>
      </trkpt>
      <trkpt lat="48.60827" lon="6.17552">
        <ele>243</ele>
        <time>2020-08-16T08:43:18Z</time>
      </trkpt>
      <trkpt lat="48.60823" lon="6.17559">
        <ele>244</ele>
        <time>2020-08-16T08:43:20Z</time>
      </trkpt>
      <trkpt lat="48.60824" lon="6.17569">
        <ele>244</ele>
        <time>2020-08-16T08:43:22Z</time>
      </trkpt>
      <trkpt lat="48.60825" lon="6.17582">
        <ele>243</ele>
        <time>2020-08-16T08:43:24Z</time>
      </trkpt>
      <trkpt lat="48.60826" lon="6.17594">
        <ele>243</ele>
        <time>2020-08-16T08:43:26Z</time>
      </trkpt>
      <trkpt lat="48.60825" lon="6.17607">
        <ele>244</ele>
        <time>2020-08-16T08:43:28Z</time>
      </trkpt>
      <trkpt lat="48.60825" lon="6.17619">
        <ele>244</ele>
        <time>2020-08-16T08:43:30Z</time>
      </trkpt>
      <trkpt lat="48.60826" lon="6.17631">
        <ele>244</ele>
        <time>2020-08-16T08:43:32Z</time>
      </trkpt>
      <trkpt lat="48.60827" lon="6.17644">
        <ele>244</ele>
        <time>2020-08-16T08:43:34Z</time>
      </trkpt>
      <trkpt lat="48.60827" lon="6.17658">
        <ele>244</ele>
        <time>2020-08-16T08:43:36Z</time>
      </trkpt>
      <trkpt lat="48.60827" lon="6.17665">
        <ele>244</ele>
        <time>2020-08-16T08:43:37Z</time>
      </trkpt>
      <trkpt lat="48.60827" lon="6.17672">
        <ele>244</ele>
        <time>2020-08-16T08:43:38Z</time>
      </trkpt>
      <trkpt lat="48.60827" lon="6.17681">
        <ele>244</ele>
        <time>2020-08-16T08:43:39Z</time>
      </trkpt>
      <trkpt lat="48.60827" lon="6.17689">
        <ele>244</ele>
        <time>2020-08-16T08:43:40Z</time>
      </trkpt>
      <trkpt lat="48.60827" lon="6.17703">
        <ele>244</ele>
        <time>2020-08-16T08:43:42Z</time>
      </trkpt>
      <trkpt lat="48.60828" lon="6.17711">
        <ele>244</ele>
        <time>2020-08-16T08:43:43Z</time>
      </trkpt>
      <trkpt lat="48.60828" lon="6.17719">
        <ele>244</ele>
        <time>2020-08-16T08:43:44Z</time>
      </trkpt>
      <trkpt lat="48.60828" lon="6.17726">
        <ele>244</ele>
        <time>2020-08-16T08:43:45Z</time>
      </trkpt>
      <trkpt lat="48.60828" lon="6.17733">
        <ele>244</ele>
        <time>2020-08-16T08:43:46Z</time>
      </trkpt>
      <trkpt lat="48.60828" lon="6.1774">
        <ele>245</ele>
        <time>2020-08-16T08:43:47Z</time>
      </trkpt>
      <trkpt lat="48.60829" lon="6.17748">
        <ele>244</ele>
        <time>2020-08-16T08:43:48Z</time>
      </trkpt>
      <trkpt lat="48.6083" lon="6.17755">
        <ele>243</ele>
        <time>2020-08-16T08:43:49Z</time>
      </trkpt>
      <trkpt lat="48.60829" lon="6.17762">
        <ele>244</ele>
        <time>2020-08-16T08:43:50Z</time>
      </trkpt>
      <trkpt lat="48.60829" lon="6.17769">
        <ele>244</ele>
        <time>2020-08-16T08:43:51Z</time>
      </trkpt>
      <trkpt lat="48.6083" lon="6.17777">
        <ele>243</ele>
        <time>2020-08-16T08:43:52Z</time>
      </trkpt>
      <trkpt lat="48.6083" lon="6.17785">
        <ele>243</ele>
        <time>2020-08-16T08:43:53Z</time>
      </trkpt>
      <trkpt lat="48.60831" lon="6.17792">
        <ele>243</ele>
        <time>2020-08-16T08:43:54Z</time>
      </trkpt>
      <trkpt lat="48.6083" lon="6.17802">
        <ele>244</ele>
        <time>2020-08-16T08:43:55Z</time>
      </trkpt>
      <trkpt lat="48.6083" lon="6.17808">
        <ele>244</ele>
        <time>2020-08-16T08:43:56Z</time>
      </trkpt>
      <trkpt lat="48.60828" lon="6.17816">
        <ele>245</ele>
        <time>2020-08-16T08:43:57Z</time>
      </trkpt>
      <trkpt lat="48.6083" lon="6.17829">
        <ele>244</ele>
        <time>2020-08-16T08:43:59Z</time>
      </trkpt>
      <trkpt lat="48.6083" lon="6.17843">
        <ele>244</ele>
        <time>2020-08-16T08:44:01Z</time>
      </trkpt>
      <trkpt lat="48.6083" lon="6.17857">
        <ele>243</ele>
        <time>2020-08-16T08:44:03Z</time>
      </trkpt>
      <trkpt lat="48.60828" lon="6.1787">
        <ele>242</ele>
        <time>2020-08-16T08:44:05Z</time>
      </trkpt>
      <trkpt lat="48.60829" lon="6.17876">
        <ele>242</ele>
        <time>2020-08-16T08:44:06Z</time>
      </trkpt>
      <trkpt lat="48.60829" lon="6.17884">
        <ele>242</ele>
        <time>2020-08-16T08:44:07Z</time>
      </trkpt>
      <trkpt lat="48.60829" lon="6.17891">
        <ele>243</ele>
        <time>2020-08-16T08:44:08Z</time>
      </trkpt>
      <trkpt lat="48.60829" lon="6.17899">
        <ele>243</ele>
        <time>2020-08-16T08:44:09Z</time>
      </trkpt>
      <trkpt lat="48.60829" lon="6.17912">
        <ele>243</ele>
        <time>2020-08-16T08:44:11Z</time>
      </trkpt>
      <trkpt lat="48.60829" lon="6.17919">
        <ele>243</ele>
        <time>2020-08-16T08:44:12Z</time>
      </trkpt>
      <trkpt lat="48.60829" lon="6.17927">
        <ele>243</ele>
        <time>2020-08-16T08:44:13Z</time>
      </trkpt>
      <trkpt lat="48.60829" lon="6.1794">
        <ele>243</ele>
        <time>2020-08-16T08:44:15Z</time>
      </trkpt>
      <trkpt lat="48.60829" lon="6.17948">
        <ele>243</ele>
        <time>2020-08-16T08:44:16Z</time>
      </trkpt>
      <trkpt lat="48.60829" lon="6.17955">
        <ele>243</ele>
        <time>2020-08-16T08:44:17Z</time>
      </trkpt>
      <trkpt lat="48.60829" lon="6.17967">
        <ele>243</ele>
        <time>2020-08-16T08:44:19Z</time>
      </trkpt>
      <trkpt lat="48.60829" lon="6.17979">
        <ele>243</ele>
        <time>2020-08-16T08:44:21Z</time>
      </trkpt>
      <trkpt lat="48.60827" lon="6.17993">
        <ele>243</ele>
        <time>2020-08-16T08:44:23Z</time>
      </trkpt>
      <trkpt lat="48.60827" lon="6.18001">
        <ele>243</ele>
        <time>2020-08-16T08:44:24Z</time>
      </trkpt>
      <trkpt lat="48.60828" lon="6.18008">
        <ele>243</ele>
        <time>2020-08-16T08:44:25Z</time>
      </trkpt>
      <trkpt lat="48.60826" lon="6.18014">
        <ele>243</ele>
        <time>2020-08-16T08:44:26Z</time>
      </trkpt>
      <trkpt lat="48.60827" lon="6.18022">
        <ele>243</ele>
        <time>2020-08-16T08:44:27Z</time>
      </trkpt>
      <trkpt lat="48.60827" lon="6.18029">
        <ele>244</ele>
        <time>2020-08-16T08:44:28Z</time>
      </trkpt>
      <trkpt lat="48.60826" lon="6.18041">
        <ele>244</ele>
        <time>2020-08-16T08:44:30Z</time>
      </trkpt>
      <trkpt lat="48.60827" lon="6.18049">
        <ele>245</ele>
        <time>2020-08-16T08:44:31Z</time>
      </trkpt>
      <trkpt lat="48.60828" lon="6.18056">
        <ele>245</ele>
        <time>2020-08-16T08:44:32Z</time>
      </trkpt>
      <trkpt lat="48.60828" lon="6.18064">
        <ele>245</ele>
        <time>2020-08-16T08:44:33Z</time>
      </trkpt>
      <trkpt lat="48.60825" lon="6.18072">
        <ele>245</ele>
        <time>2020-08-16T08:44:34Z</time>
      </trkpt>
      <trkpt lat="48.60827" lon="6.18085">
        <ele>245</ele>
        <time>2020-08-16T08:44:36Z</time>
      </trkpt>
      <trkpt lat="48.60828" lon="6.18093">
        <ele>246</ele>
        <time>2020-08-16T08:44:37Z</time>
      </trkpt>
      <trkpt lat="48.60828" lon="6.18101">
        <ele>246</ele>
        <time>2020-08-16T08:44:38Z</time>
      </trkpt>
      <trkpt lat="48.6083" lon="6.18113">
        <ele>247</ele>
        <time>2020-08-16T08:44:40Z</time>
      </trkpt>
      <trkpt lat="48.60828" lon="6.18122">
        <ele>247</ele>
        <time>2020-08-16T08:44:42Z</time>
      </trkpt>
      <trkpt lat="48.60831" lon="6.18135">
        <ele>248</ele>
        <time>2020-08-16T08:44:44Z</time>
      </trkpt>
      <trkpt lat="48.60831" lon="6.18146">
        <ele>248</ele>
        <time>2020-08-16T08:44:46Z</time>
      </trkpt>
      <trkpt lat="48.60832" lon="6.18153">
        <ele>248</ele>
        <time>2020-08-16T08:44:47Z</time>
      </trkpt>
      <trkpt lat="48.60831" lon="6.18166">
        <ele>248</ele>
        <time>2020-08-16T08:44:49Z</time>
      </trkpt>
      <trkpt lat="48.60835" lon="6.18173">
        <ele>248</ele>
        <time>2020-08-16T08:44:50Z</time>
      </trkpt>
      <trkpt lat="48.60834" lon="6.1818">
        <ele>248</ele>
        <time>2020-08-16T08:44:51Z</time>
      </trkpt>
      <trkpt lat="48.60833" lon="6.18187">
        <ele>247</ele>
        <time>2020-08-16T08:44:52Z</time>
      </trkpt>
      <trkpt lat="48.60832" lon="6.18196">
        <ele>247</ele>
        <time>2020-08-16T08:44:53Z</time>
      </trkpt>
      <trkpt lat="48.60832" lon="6.18208">
        <ele>247</ele>
        <time>2020-08-16T08:44:55Z</time>
      </trkpt>
      <trkpt lat="48.60829" lon="6.1822">
        <ele>249</ele>
        <time>2020-08-16T08:44:57Z</time>
      </trkpt>
      <trkpt lat="48.60828" lon="6.18228">
        <ele>249</ele>
        <time>2020-08-16T08:44:58Z</time>
      </trkpt>
      <trkpt lat="48.60828" lon="6.1824">
        <ele>249</ele>
        <time>2020-08-16T08:45:00Z</time>
      </trkpt>
      <trkpt lat="48.6083" lon="6.18253">
        <ele>248</ele>
        <time>2020-08-16T08:45:02Z</time>
      </trkpt>
      <trkpt lat="48.6083" lon="6.18266">
        <ele>248</ele>
        <time>2020-08-16T08:45:04Z</time>
      </trkpt>
      <trkpt lat="48.60835" lon="6.18274">
        <ele>247</ele>
        <time>2020-08-16T08:45:06Z</time>
      </trkpt>
      <trkpt lat="48.60836" lon="6.18281">
        <ele>248</ele>
        <time>2020-08-16T08:45:07Z</time>
      </trkpt>
      <trkpt lat="48.60835" lon="6.18289">
        <ele>249</ele>
        <time>2020-08-16T08:45:09Z</time>
      </trkpt>
      <trkpt lat="48.60832" lon="6.18304">
        <ele>249</ele>
        <time>2020-08-16T08:45:49Z</time>
      </trkpt>
      <trkpt lat="48.60832" lon="6.18312">
        <ele>248</ele>
        <time>2020-08-16T08:45:52Z</time>
      </trkpt>
      <trkpt lat="48.6083" lon="6.18319">
        <ele>249</ele>
        <time>2020-08-16T08:45:54Z</time>
      </trkpt>
      <trkpt lat="48.60831" lon="6.18328">
        <ele>248</ele>
        <time>2020-08-16T08:45:56Z</time>
      </trkpt>
      <trkpt lat="48.60832" lon="6.18338">
        <ele>249</ele>
        <time>2020-08-16T08:45:58Z</time>
      </trkpt>
      <trkpt lat="48.60832" lon="6.18347">
        <ele>249</ele>
        <time>2020-08-16T08:46:00Z</time>
      </trkpt>
      <trkpt lat="48.60831" lon="6.18357">
        <ele>250</ele>
        <time>2020-08-16T08:46:02Z</time>
      </trkpt>
      <trkpt lat="48.60829" lon="6.1837">
        <ele>251</ele>
        <time>2020-08-16T08:46:04Z</time>
      </trkpt>
      <trkpt lat="48.60828" lon="6.18377">
        <ele>251</ele>
        <time>2020-08-16T08:46:05Z</time>
      </trkpt>
      <trkpt lat="48.60828" lon="6.18384">
        <ele>251</ele>
        <time>2020-08-16T08:46:06Z</time>
      </trkpt>
      <trkpt lat="48.60829" lon="6.18393">
        <ele>250</ele>
        <time>2020-08-16T08:46:08Z</time>
      </trkpt>
      <trkpt lat="48.6083" lon="6.18406">
        <ele>251</ele>
        <time>2020-08-16T08:46:10Z</time>
      </trkpt>
      <trkpt lat="48.60828" lon="6.18417">
        <ele>251</ele>
        <time>2020-08-16T08:46:12Z</time>
      </trkpt>
      <trkpt lat="48.60829" lon="6.18429">
        <ele>250</ele>
        <time>2020-08-16T08:46:14Z</time>
      </trkpt>
      <trkpt lat="48.60829" lon="6.18439">
        <ele>248</ele>
        <time>2020-08-16T08:46:15Z</time>
      </trkpt>
      <trkpt lat="48.60827" lon="6.18449">
        <ele>248</ele>
        <time>2020-08-16T08:46:17Z</time>
      </trkpt>
      <trkpt lat="48.60827" lon="6.18461">
        <ele>249</ele>
        <time>2020-08-16T08:46:19Z</time>
      </trkpt>
      <trkpt lat="48.60824" lon="6.18473">
        <ele>249</ele>
        <time>2020-08-16T08:46:21Z</time>
      </trkpt>
      <trkpt lat="48.6082" lon="6.1848">
        <ele>249</ele>
        <time>2020-08-16T08:46:22Z</time>
      </trkpt>
      <trkpt lat="48.60819" lon="6.18486">
        <ele>249</ele>
        <time>2020-08-16T08:46:23Z</time>
      </trkpt>
      <trkpt lat="48.60818" lon="6.18498">
        <ele>249</ele>
        <time>2020-08-16T08:46:25Z</time>
      </trkpt>
      <trkpt lat="48.6082" lon="6.18504">
        <ele>248</ele>
        <time>2020-08-16T08:46:26Z</time>
      </trkpt>
      <trkpt lat="48.60822" lon="6.1852">
        <ele>247</ele>
        <time>2020-08-16T08:46:28Z</time>
      </trkpt>
      <trkpt lat="48.60825" lon="6.18531">
        <ele>246</ele>
        <time>2020-08-16T08:46:30Z</time>
      </trkpt>
      <trkpt lat="48.60826" lon="6.18541">
        <ele>246</ele>
        <time>2020-08-16T08:46:31Z</time>
      </trkpt>
      <trkpt lat="48.60827" lon="6.18555">
        <ele>247</ele>
        <time>2020-08-16T08:46:33Z</time>
      </trkpt>
      <trkpt lat="48.60828" lon="6.18565">
        <ele>246</ele>
        <time>2020-08-16T08:46:35Z</time>
      </trkpt>
      <trkpt lat="48.60829" lon="6.18573">
        <ele>246</ele>
        <time>2020-08-16T08:46:36Z</time>
      </trkpt>
      <trkpt lat="48.60829" lon="6.1858">
        <ele>247</ele>
        <time>2020-08-16T08:46:37Z</time>
      </trkpt>
      <trkpt lat="48.60829" lon="6.18589">
        <ele>248</ele>
        <time>2020-08-16T08:46:38Z</time>
      </trkpt>
      <trkpt lat="48.6083" lon="6.18601">
        <ele>248</ele>
        <time>2020-08-16T08:46:40Z</time>
      </trkpt>
      <trkpt lat="48.60832" lon="6.18607">
        <ele>247</ele>
        <time>2020-08-16T08:46:41Z</time>
      </trkpt>
      <trkpt lat="48.60834" lon="6.18614">
        <ele>247</ele>
        <time>2020-08-16T08:46:42Z</time>
      </trkpt>
      <trkpt lat="48.60835" lon="6.18621">
        <ele>247</ele>
        <time>2020-08-16T08:46:43Z</time>
      </trkpt>
      <trkpt lat="48.60837" lon="6.18628">
        <ele>247</ele>
        <time>2020-08-16T08:46:44Z</time>
      </trkpt>
      <trkpt lat="48.6084" lon="6.1864">
        <ele>247</ele>
        <time>2020-08-16T08:46:46Z</time>
      </trkpt>
      <trkpt lat="48.60841" lon="6.18654">
        <ele>248</ele>
        <time>2020-08-16T08:46:48Z</time>
      </trkpt>
      <trkpt lat="48.60844" lon="6.18664">
        <ele>247</ele>
        <time>2020-08-16T08:46:50Z</time>
      </trkpt>
      <trkpt lat="48.60846" lon="6.18671">
        <ele>247</ele>
        <time>2020-08-16T08:46:51Z</time>
      </trkpt>
      <trkpt lat="48.60848" lon="6.18683">
        <ele>247</ele>
        <time>2020-08-16T08:46:53Z</time>
      </trkpt>
      <trkpt lat="48.60851" lon="6.18692">
        <ele>247</ele>
        <time>2020-08-16T08:46:54Z</time>
      </trkpt>
      <trkpt lat="48.60853" lon="6.18699">
        <ele>247</ele>
        <time>2020-08-16T08:46:55Z</time>
      </trkpt>
      <trkpt lat="48.60854" lon="6.1871">
        <ele>247</ele>
        <time>2020-08-16T08:46:57Z</time>
      </trkpt>
      <trkpt lat="48.60857" lon="6.18724">
        <ele>248</ele>
        <time>2020-08-16T08:46:59Z</time>
      </trkpt>
      <trkpt lat="48.60862" lon="6.18736">
        <ele>247</ele>
        <time>2020-08-16T08:47:01Z</time>
      </trkpt>
      <trkpt lat="48.60866" lon="6.18749">
        <ele>246</ele>
        <time>2020-08-16T08:47:03Z</time>
      </trkpt>
      <trkpt lat="48.60869" lon="6.18761">
        <ele>246</ele>
        <time>2020-08-16T08:47:05Z</time>
      </trkpt>
      <trkpt lat="48.60873" lon="6.18771">
        <ele>246</ele>
        <time>2020-08-16T08:47:07Z</time>
      </trkpt>
      <trkpt lat="48.60876" lon="6.18783">
        <ele>247</ele>
        <time>2020-08-16T08:47:09Z</time>
      </trkpt>
      <trkpt lat="48.60882" lon="6.18795">
        <ele>247</ele>
        <time>2020-08-16T08:47:11Z</time>
      </trkpt>
      <trkpt lat="48.60886" lon="6.18808">
        <ele>247</ele>
        <time>2020-08-16T08:47:13Z</time>
      </trkpt>
      <trkpt lat="48.60891" lon="6.18816">
        <ele>247</ele>
        <time>2020-08-16T08:47:15Z</time>
      </trkpt>
      <trkpt lat="48.60896" lon="6.18825">
        <ele>248</ele>
        <time>2020-08-16T08:47:17Z</time>
      </trkpt>
      <trkpt lat="48.60901" lon="6.18835">
        <ele>247</ele>
        <time>2020-08-16T08:47:19Z</time>
      </trkpt>
      <trkpt lat="48.60905" lon="6.18844">
        <ele>247</ele>
        <time>2020-08-16T08:47:23Z</time>
      </trkpt>
      <trkpt lat="48.60911" lon="6.18853">
        <ele>246</ele>
        <time>2020-08-16T08:47:24Z</time>
      </trkpt>
      <trkpt lat="48.60914" lon="6.1886">
        <ele>246</ele>
        <time>2020-08-16T08:47:26Z</time>
      </trkpt>
      <trkpt lat="48.60918" lon="6.18868">
        <ele>246</ele>
        <time>2020-08-16T08:47:28Z</time>
      </trkpt>
      <trkpt lat="48.60922" lon="6.18876">
        <ele>246</ele>
        <time>2020-08-16T08:47:30Z</time>
      </trkpt>
      <trkpt lat="48.60926" lon="6.18887">
        <ele>246</ele>
        <time>2020-08-16T08:47:32Z</time>
      </trkpt>
      <trkpt lat="48.60931" lon="6.18898">
        <ele>245</ele>
        <time>2020-08-16T08:47:34Z</time>
      </trkpt>
      <trkpt lat="48.60936" lon="6.18908">
        <ele>245</ele>
        <time>2020-08-16T08:47:36Z</time>
      </trkpt>
      <trkpt lat="48.60938" lon="6.18914">
        <ele>246</ele>
        <time>2020-08-16T08:47:37Z</time>
      </trkpt>
      <trkpt lat="48.60943" lon="6.18922">
        <ele>245</ele>
        <time>2020-08-16T08:47:39Z</time>
      </trkpt>
      <trkpt lat="48.60946" lon="6.18928">
        <ele>246</ele>
        <time>2020-08-16T08:47:40Z</time>
      </trkpt>
      <trkpt lat="48.60949" lon="6.18938">
        <ele>246</ele>
        <time>2020-08-16T08:47:42Z</time>
      </trkpt>
      <trkpt lat="48.60954" lon="6.18944">
        <ele>247</ele>
        <time>2020-08-16T08:47:44Z</time>
      </trkpt>
      <trkpt lat="48.60956" lon="6.18951">
        <ele>248</ele>
        <time>2020-08-16T08:47:46Z</time>
      </trkpt>
      <trkpt lat="48.60958" lon="6.1896">
        <ele>249</ele>
        <time>2020-08-16T08:47:48Z</time>
      </trkpt>
      <trkpt lat="48.60964" lon="6.18972">
        <ele>250</ele>
        <time>2020-08-16T08:47:50Z</time>
      </trkpt>
      <trkpt lat="48.60967" lon="6.18979">
        <ele>250</ele>
        <time>2020-08-16T08:47:51Z</time>
      </trkpt>
      <trkpt lat="48.60972" lon="6.18988">
        <ele>250</ele>
        <time>2020-08-16T08:47:53Z</time>
      </trkpt>
      <trkpt lat="48.60976" lon="6.18998">
        <ele>250</ele>
        <time>2020-08-16T08:47:55Z</time>
      </trkpt>
      <trkpt lat="48.60978" lon="6.19004">
        <ele>249</ele>
        <time>2020-08-16T08:47:56Z</time>
      </trkpt>
      <trkpt lat="48.60981" lon="6.19012">
        <ele>250</ele>
        <time>2020-08-16T08:47:57Z</time>
      </trkpt>
      <trkpt lat="48.60986" lon="6.19024">
        <ele>250</ele>
        <time>2020-08-16T08:47:59Z</time>
      </trkpt>
      <trkpt lat="48.60989" lon="6.19031">
        <ele>250</ele>
        <time>2020-08-16T08:48:01Z</time>
      </trkpt>
      <trkpt lat="48.60994" lon="6.1904">
        <ele>250</ele>
        <time>2020-08-16T08:48:03Z</time>
      </trkpt>
      <trkpt lat="48.60997" lon="6.19047">
        <ele>250</ele>
        <time>2020-08-16T08:48:05Z</time>
      </trkpt>
      <trkpt lat="48.61003" lon="6.19057">
        <ele>249</ele>
        <time>2020-08-16T08:48:07Z</time>
      </trkpt>
      <trkpt lat="48.61005" lon="6.19064">
        <ele>249</ele>
        <time>2020-08-16T08:48:08Z</time>
      </trkpt>
      <trkpt lat="48.6101" lon="6.19071">
        <ele>249</ele>
        <time>2020-08-16T08:48:09Z</time>
      </trkpt>
      <trkpt lat="48.61016" lon="6.19087">
        <ele>249</ele>
        <time>2020-08-16T08:48:11Z</time>
      </trkpt>
      <trkpt lat="48.61019" lon="6.19096">
        <ele>249</ele>
        <time>2020-08-16T08:48:13Z</time>
      </trkpt>
      <trkpt lat="48.61023" lon="6.19105">
        <ele>249</ele>
        <time>2020-08-16T08:48:15Z</time>
      </trkpt>
      <trkpt lat="48.61029" lon="6.19115">
        <ele>249</ele>
        <time>2020-08-16T08:48:16Z</time>
      </trkpt>
      <trkpt lat="48.61033" lon="6.19126">
        <ele>250</ele>
        <time>2020-08-16T08:48:18Z</time>
      </trkpt>
      <trkpt lat="48.61039" lon="6.19142">
        <ele>250</ele>
        <time>2020-08-16T08:48:19Z</time>
      </trkpt>
      <trkpt lat="48.61043" lon="6.19149">
        <ele>249</ele>
        <time>2020-08-16T08:48:20Z</time>
      </trkpt>
      <trkpt lat="48.61048" lon="6.1916">
        <ele>249</ele>
        <time>2020-08-16T08:48:22Z</time>
      </trkpt>
      <trkpt lat="48.61051" lon="6.19167">
        <ele>248</ele>
        <time>2020-08-16T08:48:23Z</time>
      </trkpt>
      <trkpt lat="48.61055" lon="6.19176">
        <ele>248</ele>
        <time>2020-08-16T08:48:25Z</time>
      </trkpt>
      <trkpt lat="48.61059" lon="6.19185">
        <ele>248</ele>
        <time>2020-08-16T08:48:27Z</time>
      </trkpt>
      <trkpt lat="48.61062" lon="6.19191">
        <ele>248</ele>
        <time>2020-08-16T08:48:28Z</time>
      </trkpt>
      <trkpt lat="48.61067" lon="6.192">
        <ele>248</ele>
        <time>2020-08-16T08:48:30Z</time>
      </trkpt>
      <trkpt lat="48.61071" lon="6.19211">
        <ele>248</ele>
        <time>2020-08-16T08:48:32Z</time>
      </trkpt>
      <trkpt lat="48.61076" lon="6.19227">
        <ele>248</ele>
        <time>2020-08-16T08:48:34Z</time>
      </trkpt>
      <trkpt lat="48.61082" lon="6.19236">
        <ele>247</ele>
        <time>2020-08-16T08:48:35Z</time>
      </trkpt>
      <trkpt lat="48.61086" lon="6.19242">
        <ele>247</ele>
        <time>2020-08-16T08:48:36Z</time>
      </trkpt>
      <trkpt lat="48.61091" lon="6.19249">
        <ele>247</ele>
        <time>2020-08-16T08:48:38Z</time>
      </trkpt>
      <trkpt lat="48.61097" lon="6.19256">
        <ele>246</ele>
        <time>2020-08-16T08:48:40Z</time>
      </trkpt>
      <trkpt lat="48.611" lon="6.19262">
        <ele>246</ele>
        <time>2020-08-16T08:48:41Z</time>
      </trkpt>
      <trkpt lat="48.61102" lon="6.19268">
        <ele>246</ele>
        <time>2020-08-16T08:48:42Z</time>
      </trkpt>
      <trkpt lat="48.61105" lon="6.19275">
        <ele>246</ele>
        <time>2020-08-16T08:48:43Z</time>
      </trkpt>
      <trkpt lat="48.61108" lon="6.19281">
        <ele>245</ele>
        <time>2020-08-16T08:48:44Z</time>
      </trkpt>
      <trkpt lat="48.61113" lon="6.19291">
        <ele>245</ele>
        <time>2020-08-16T08:48:46Z</time>
      </trkpt>
      <trkpt lat="48.61116" lon="6.19297">
        <ele>245</ele>
        <time>2020-08-16T08:48:47Z</time>
      </trkpt>
      <trkpt lat="48.61121" lon="6.19308">
        <ele>245</ele>
        <time>2020-08-16T08:48:49Z</time>
      </trkpt>
      <trkpt lat="48.61126" lon="6.19318">
        <ele>245</ele>
        <time>2020-08-16T08:48:51Z</time>
      </trkpt>
      <trkpt lat="48.61129" lon="6.19324">
        <ele>245</ele>
        <time>2020-08-16T08:48:52Z</time>
      </trkpt>
      <trkpt lat="48.61133" lon="6.19335">
        <ele>244</ele>
        <time>2020-08-16T08:48:54Z</time>
      </trkpt>
      <trkpt lat="48.61137" lon="6.19345">
        <ele>244</ele>
        <time>2020-08-16T08:48:56Z</time>
      </trkpt>
      <trkpt lat="48.61144" lon="6.19356">
        <ele>244</ele>
        <time>2020-08-16T08:48:58Z</time>
      </trkpt>
      <trkpt lat="48.61147" lon="6.19361">
        <ele>245</ele>
        <time>2020-08-16T08:48:59Z</time>
      </trkpt>
      <trkpt lat="48.6115" lon="6.19368">
        <ele>245</ele>
        <time>2020-08-16T08:49:00Z</time>
      </trkpt>
      <trkpt lat="48.61155" lon="6.19384">
        <ele>246</ele>
        <time>2020-08-16T08:49:03Z</time>
      </trkpt>
      <trkpt lat="48.61158" lon="6.19395">
        <ele>245</ele>
        <time>2020-08-16T08:49:05Z</time>
      </trkpt>
      <trkpt lat="48.61162" lon="6.19403">
        <ele>245</ele>
        <time>2020-08-16T08:49:07Z</time>
      </trkpt>
      <trkpt lat="48.61169" lon="6.19416">
        <ele>245</ele>
        <time>2020-08-16T08:49:09Z</time>
      </trkpt>
      <trkpt lat="48.61171" lon="6.19425">
        <ele>245</ele>
        <time>2020-08-16T08:49:10Z</time>
      </trkpt>
      <trkpt lat="48.61172" lon="6.19434">
        <ele>245</ele>
        <time>2020-08-16T08:49:12Z</time>
      </trkpt>
      <trkpt lat="48.61175" lon="6.19439">
        <ele>245</ele>
        <time>2020-08-16T08:49:13Z</time>
      </trkpt>
      <trkpt lat="48.61176" lon="6.19448">
        <ele>245</ele>
        <time>2020-08-16T08:49:14Z</time>
      </trkpt>
      <trkpt lat="48.61181" lon="6.19459">
        <ele>245</ele>
        <time>2020-08-16T08:49:15Z</time>
      </trkpt>
      <trkpt lat="48.61186" lon="6.19468">
        <ele>245</ele>
        <time>2020-08-16T08:49:17Z</time>
      </trkpt>
      <trkpt lat="48.61192" lon="6.19478">
        <ele>245</ele>
        <time>2020-08-16T08:49:19Z</time>
      </trkpt>
      <trkpt lat="48.61195" lon="6.19484">
        <ele>245</ele>
        <time>2020-08-16T08:49:20Z</time>
      </trkpt>
      <trkpt lat="48.61198" lon="6.1949">
        <ele>245</ele>
        <time>2020-08-16T08:49:21Z</time>
      </trkpt>
      <trkpt lat="48.61202" lon="6.19502">
        <ele>244</ele>
        <time>2020-08-16T08:49:23Z</time>
      </trkpt>
      <trkpt lat="48.61206" lon="6.19512">
        <ele>244</ele>
        <time>2020-08-16T08:49:25Z</time>
      </trkpt>
      <trkpt lat="48.61209" lon="6.19517">
        <ele>244</ele>
        <time>2020-08-16T08:49:26Z</time>
      </trkpt>
      <trkpt lat="48.61215" lon="6.19528">
        <ele>244</ele>
        <time>2020-08-16T08:49:28Z</time>
      </trkpt>
      <trkpt lat="48.61218" lon="6.19535">
        <ele>245</ele>
        <time>2020-08-16T08:49:29Z</time>
      </trkpt>
      <trkpt lat="48.61223" lon="6.19547">
        <ele>245</ele>
        <time>2020-08-16T08:49:31Z</time>
      </trkpt>
      <trkpt lat="48.61226" lon="6.19554">
        <ele>245</ele>
        <time>2020-08-16T08:49:32Z</time>
      </trkpt>
      <trkpt lat="48.61231" lon="6.19562">
        <ele>245</ele>
        <time>2020-08-16T08:49:34Z</time>
      </trkpt>
      <trkpt lat="48.61237" lon="6.19574">
        <ele>244</ele>
        <time>2020-08-16T08:49:36Z</time>
      </trkpt>
      <trkpt lat="48.61242" lon="6.19584">
        <ele>244</ele>
        <time>2020-08-16T08:49:38Z</time>
      </trkpt>
      <trkpt lat="48.61246" lon="6.19591">
        <ele>245</ele>
        <time>2020-08-16T08:49:39Z</time>
      </trkpt>
      <trkpt lat="48.61251" lon="6.19604">
        <ele>245</ele>
        <time>2020-08-16T08:49:41Z</time>
      </trkpt>
      <trkpt lat="48.61255" lon="6.19613">
        <ele>245</ele>
        <time>2020-08-16T08:49:43Z</time>
      </trkpt>
      <trkpt lat="48.6126" lon="6.19618">
        <ele>245</ele>
        <time>2020-08-16T08:49:44Z</time>
      </trkpt>
      <trkpt lat="48.61263" lon="6.19628">
        <ele>245</ele>
        <time>2020-08-16T08:49:46Z</time>
      </trkpt>
      <trkpt lat="48.61267" lon="6.19634">
        <ele>245</ele>
        <time>2020-08-16T08:49:47Z</time>
      </trkpt>
      <trkpt lat="48.61273" lon="6.19644">
        <ele>246</ele>
        <time>2020-08-16T08:49:49Z</time>
      </trkpt>
      <trkpt lat="48.61278" lon="6.19655">
        <ele>247</ele>
        <time>2020-08-16T08:49:51Z</time>
      </trkpt>
      <trkpt lat="48.61284" lon="6.19666">
        <ele>247</ele>
        <time>2020-08-16T08:49:53Z</time>
      </trkpt>
      <trkpt lat="48.61289" lon="6.19672">
        <ele>247</ele>
        <time>2020-08-16T08:49:54Z</time>
      </trkpt>
      <trkpt lat="48.61293" lon="6.1968">
        <ele>247</ele>
        <time>2020-08-16T08:49:55Z</time>
      </trkpt>
      <trkpt lat="48.61296" lon="6.19688">
        <ele>247</ele>
        <time>2020-08-16T08:49:56Z</time>
      </trkpt>
      <trkpt lat="48.613" lon="6.19693">
        <ele>247</ele>
        <time>2020-08-16T08:49:57Z</time>
      </trkpt>
      <trkpt lat="48.61303" lon="6.197">
        <ele>247</ele>
        <time>2020-08-16T08:49:58Z</time>
      </trkpt>
      <trkpt lat="48.61308" lon="6.19713">
        <ele>247</ele>
        <time>2020-08-16T08:50:00Z</time>
      </trkpt>
      <trkpt lat="48.61311" lon="6.19718">
        <ele>247</ele>
        <time>2020-08-16T08:50:01Z</time>
      </trkpt>
      <trkpt lat="48.61315" lon="6.19725">
        <ele>247</ele>
        <time>2020-08-16T08:50:02Z</time>
      </trkpt>
      <trkpt lat="48.61319" lon="6.19733">
        <ele>246</ele>
        <time>2020-08-16T08:50:03Z</time>
      </trkpt>
      <trkpt lat="48.61324" lon="6.19743">
        <ele>246</ele>
        <time>2020-08-16T08:50:05Z</time>
      </trkpt>
      <trkpt lat="48.61326" lon="6.19754">
        <ele>246</ele>
        <time>2020-08-16T08:50:07Z</time>
      </trkpt>
      <trkpt lat="48.6133" lon="6.1976">
        <ele>246</ele>
        <time>2020-08-16T08:50:08Z</time>
      </trkpt>
      <trkpt lat="48.61333" lon="6.19766">
        <ele>246</ele>
        <time>2020-08-16T08:50:09Z</time>
      </trkpt>
      <trkpt lat="48.61337" lon="6.19773">
        <ele>246</ele>
        <time>2020-08-16T08:50:10Z</time>
      </trkpt>
      <trkpt lat="48.61341" lon="6.19778">
        <ele>246</ele>
        <time>2020-08-16T08:50:11Z</time>
      </trkpt>
      <trkpt lat="48.61344" lon="6.19784">
        <ele>245</ele>
        <time>2020-08-16T08:50:13Z</time>
      </trkpt>
      <trkpt lat="48.61348" lon="6.19798">
        <ele>245</ele>
        <time>2020-08-16T08:50:15Z</time>
      </trkpt>
      <trkpt lat="48.61351" lon="6.19803">
        <ele>244</ele>
        <time>2020-08-16T08:50:16Z</time>
      </trkpt>
      <trkpt lat="48.61354" lon="6.19809">
        <ele>244</ele>
        <time>2020-08-16T08:50:17Z</time>
      </trkpt>
      <trkpt lat="48.61357" lon="6.19815">
        <ele>244</ele>
        <time>2020-08-16T08:50:18Z</time>
      </trkpt>
      <trkpt lat="48.6136" lon="6.19821">
        <ele>244</ele>
        <time>2020-08-16T08:50:19Z</time>
      </trkpt>
      <trkpt lat="48.61366" lon="6.1983">
        <ele>244</ele>
        <time>2020-08-16T08:50:20Z</time>
      </trkpt>
      <trkpt lat="48.61369" lon="6.19834">
        <ele>244</ele>
        <time>2020-08-16T08:50:21Z</time>
      </trkpt>
      <trkpt lat="48.61373" lon="6.19845">
        <ele>244</ele>
        <time>2020-08-16T08:50:23Z</time>
      </trkpt>
      <trkpt lat="48.61378" lon="6.19854">
        <ele>244</ele>
        <time>2020-08-16T08:50:25Z</time>
      </trkpt>
      <trkpt lat="48.61381" lon="6.19859">
        <ele>244</ele>
        <time>2020-08-16T08:50:26Z</time>
      </trkpt>
      <trkpt lat="48.61384" lon="6.19865">
        <ele>244</ele>
        <time>2020-08-16T08:50:27Z</time>
      </trkpt>
      <trkpt lat="48.61388" lon="6.19875">
        <ele>244</ele>
        <time>2020-08-16T08:50:29Z</time>
      </trkpt>
      <trkpt lat="48.61391" lon="6.1988">
        <ele>244</ele>
        <time>2020-08-16T08:50:30Z</time>
      </trkpt>
      <trkpt lat="48.61395" lon="6.19885">
        <ele>244</ele>
        <time>2020-08-16T08:50:31Z</time>
      </trkpt>
      <trkpt lat="48.61401" lon="6.19895">
        <ele>244</ele>
        <time>2020-08-16T08:50:33Z</time>
      </trkpt>
      <trkpt lat="48.61405" lon="6.199">
        <ele>244</ele>
        <time>2020-08-16T08:50:34Z</time>
      </trkpt>
      <trkpt lat="48.61411" lon="6.19908">
        <ele>244</ele>
        <time>2020-08-16T08:50:36Z</time>
      </trkpt>
      <trkpt lat="48.61417" lon="6.19917">
        <ele>245</ele>
        <time>2020-08-16T08:50:38Z</time>
      </trkpt>
      <trkpt lat="48.6142" lon="6.19925">
        <ele>245</ele>
        <time>2020-08-16T08:50:40Z</time>
      </trkpt>
      <trkpt lat="48.61426" lon="6.19934">
        <ele>245</ele>
        <time>2020-08-16T08:50:42Z</time>
      </trkpt>
      <trkpt lat="48.6143" lon="6.1994">
        <ele>245</ele>
        <time>2020-08-16T08:50:43Z</time>
      </trkpt>
      <trkpt lat="48.61435" lon="6.19946">
        <ele>245</ele>
        <time>2020-08-16T08:50:44Z</time>
      </trkpt>
      <trkpt lat="48.61441" lon="6.19953">
        <ele>245</ele>
        <time>2020-08-16T08:50:46Z</time>
      </trkpt>
      <trkpt lat="48.61444" lon="6.19959">
        <ele>245</ele>
        <time>2020-08-16T08:50:47Z</time>
      </trkpt>
      <trkpt lat="48.61448" lon="6.19964">
        <ele>245</ele>
        <time>2020-08-16T08:50:48Z</time>
      </trkpt>
      <trkpt lat="48.61454" lon="6.19973">
        <ele>245</ele>
        <time>2020-08-16T08:50:50Z</time>
      </trkpt>
      <trkpt lat="48.61458" lon="6.19978">
        <ele>244</ele>
        <time>2020-08-16T08:50:51Z</time>
      </trkpt>
      <trkpt lat="48.61462" lon="6.19984">
        <ele>244</ele>
        <time>2020-08-16T08:50:52Z</time>
      </trkpt>
      <trkpt lat="48.61466" lon="6.19989">
        <ele>244</ele>
        <time>2020-08-16T08:50:53Z</time>
      </trkpt>
      <trkpt lat="48.61469" lon="6.19992">
        <ele>243</ele>
        <time>2020-08-16T08:50:54Z</time>
      </trkpt>
      <trkpt lat="48.61477" lon="6.20003">
        <ele>243</ele>
        <time>2020-08-16T08:50:56Z</time>
      </trkpt>
      <trkpt lat="48.61481" lon="6.20008">
        <ele>243</ele>
        <time>2020-08-16T08:50:57Z</time>
      </trkpt>
      <trkpt lat="48.61485" lon="6.20012">
        <ele>243</ele>
        <time>2020-08-16T08:50:58Z</time>
      </trkpt>
      <trkpt lat="48.61492" lon="6.20021">
        <ele>242</ele>
        <time>2020-08-16T08:51:00Z</time>
      </trkpt>
      <trkpt lat="48.61499" lon="6.2003">
        <ele>242</ele>
        <time>2020-08-16T08:51:02Z</time>
      </trkpt>
      <trkpt lat="48.61505" lon="6.20038">
        <ele>242</ele>
        <time>2020-08-16T08:51:04Z</time>
      </trkpt>
      <trkpt lat="48.61509" lon="6.20044">
        <ele>242</ele>
        <time>2020-08-16T08:51:05Z</time>
      </trkpt>
      <trkpt lat="48.61513" lon="6.20049">
        <ele>242</ele>
        <time>2020-08-16T08:51:06Z</time>
      </trkpt>
      <trkpt lat="48.6152" lon="6.20058">
        <ele>242</ele>
        <time>2020-08-16T08:51:08Z</time>
      </trkpt>
      <trkpt lat="48.61527" lon="6.20066">
        <ele>242</ele>
        <time>2020-08-16T08:51:10Z</time>
      </trkpt>
      <trkpt lat="48.61532" lon="6.20071">
        <ele>242</ele>
        <time>2020-08-16T08:51:11Z</time>
      </trkpt>
      <trkpt lat="48.61537" lon="6.20076">
        <ele>242</ele>
        <time>2020-08-16T08:51:12Z</time>
      </trkpt>
      <trkpt lat="48.61541" lon="6.20082">
        <ele>243</ele>
        <time>2020-08-16T08:51:13Z</time>
      </trkpt>
      <trkpt lat="48.61548" lon="6.20089">
        <ele>243</ele>
        <time>2020-08-16T08:51:15Z</time>
      </trkpt>
      <trkpt lat="48.61553" lon="6.20093">
        <ele>243</ele>
        <time>2020-08-16T08:51:16Z</time>
      </trkpt>
      <trkpt lat="48.6156" lon="6.20099">
        <ele>243</ele>
        <time>2020-08-16T08:51:18Z</time>
      </trkpt>
      <trkpt lat="48.61565" lon="6.20104">
        <ele>243</ele>
        <time>2020-08-16T08:51:19Z</time>
      </trkpt>
      <trkpt lat="48.61572" lon="6.20113">
        <ele>243</ele>
        <time>2020-08-16T08:51:21Z</time>
      </trkpt>
      <trkpt lat="48.6158" lon="6.20121">
        <ele>242</ele>
        <time>2020-08-16T08:51:23Z</time>
      </trkpt>
      <trkpt lat="48.61588" lon="6.20128">
        <ele>243</ele>
        <time>2020-08-16T08:51:25Z</time>
      </trkpt>
      <trkpt lat="48.61596" lon="6.20135">
        <ele>243</ele>
        <time>2020-08-16T08:51:27Z</time>
      </trkpt>
      <trkpt lat="48.61601" lon="6.20138">
        <ele>243</ele>
        <time>2020-08-16T08:51:28Z</time>
      </trkpt>
      <trkpt lat="48.61606" lon="6.20141">
        <ele>243</ele>
        <time>2020-08-16T08:51:29Z</time>
      </trkpt>
      <trkpt lat="48.61617" lon="6.20153">
        <ele>243</ele>
        <time>2020-08-16T08:51:32Z</time>
      </trkpt>
      <trkpt lat="48.61622" lon="6.20157">
        <ele>243</ele>
        <time>2020-08-16T08:51:33Z</time>
      </trkpt>
      <trkpt lat="48.61625" lon="6.20161">
        <ele>243</ele>
        <time>2020-08-16T08:51:34Z</time>
      </trkpt>
      <trkpt lat="48.61633" lon="6.20167">
        <ele>243</ele>
        <time>2020-08-16T08:51:36Z</time>
      </trkpt>
      <trkpt lat="48.61641" lon="6.20175">
        <ele>243</ele>
        <time>2020-08-16T08:51:38Z</time>
      </trkpt>
      <trkpt lat="48.61649" lon="6.20179">
        <ele>244</ele>
        <time>2020-08-16T08:51:40Z</time>
      </trkpt>
      <trkpt lat="48.61653" lon="6.20182">
        <ele>244</ele>
        <time>2020-08-16T08:51:41Z</time>
      </trkpt>
      <trkpt lat="48.61657" lon="6.20187">
        <ele>243</ele>
        <time>2020-08-16T08:51:42Z</time>
      </trkpt>
      <trkpt lat="48.61662" lon="6.20191">
        <ele>244</ele>
        <time>2020-08-16T08:51:43Z</time>
      </trkpt>
      <trkpt lat="48.61669" lon="6.20198">
        <ele>244</ele>
        <time>2020-08-16T08:51:45Z</time>
      </trkpt>
      <trkpt lat="48.61673" lon="6.20201">
        <ele>244</ele>
        <time>2020-08-16T08:51:46Z</time>
      </trkpt>
      <trkpt lat="48.61678" lon="6.20205">
        <ele>243</ele>
        <time>2020-08-16T08:51:47Z</time>
      </trkpt>
      <trkpt lat="48.61682" lon="6.20209">
        <ele>243</ele>
        <time>2020-08-16T08:51:48Z</time>
      </trkpt>
      <trkpt lat="48.61687" lon="6.20213">
        <ele>243</ele>
        <time>2020-08-16T08:51:49Z</time>
      </trkpt>
      <trkpt lat="48.61694" lon="6.20221">
        <ele>243</ele>
        <time>2020-08-16T08:51:51Z</time>
      </trkpt>
      <trkpt lat="48.61699" lon="6.20227">
        <ele>243</ele>
        <time>2020-08-16T08:51:52Z</time>
      </trkpt>
      <trkpt lat="48.61703" lon="6.2023">
        <ele>243</ele>
        <time>2020-08-16T08:51:53Z</time>
      </trkpt>
      <trkpt lat="48.61707" lon="6.20234">
        <ele>243</ele>
        <time>2020-08-16T08:51:54Z</time>
      </trkpt>
      <trkpt lat="48.61711" lon="6.20238">
        <ele>243</ele>
        <time>2020-08-16T08:51:55Z</time>
      </trkpt>
      <trkpt lat="48.61715" lon="6.20241">
        <ele>243</ele>
        <time>2020-08-16T08:51:56Z</time>
      </trkpt>
      <trkpt lat="48.61724" lon="6.20248">
        <ele>243</ele>
        <time>2020-08-16T08:51:58Z</time>
      </trkpt>
      <trkpt lat="48.61728" lon="6.20252">
        <ele>243</ele>
        <time>2020-08-16T08:51:59Z</time>
      </trkpt>
      <trkpt lat="48.61733" lon="6.20255">
        <ele>243</ele>
        <time>2020-08-16T08:52:00Z</time>
      </trkpt>
      <trkpt lat="48.61737" lon="6.20259">
        <ele>243</ele>
        <time>2020-08-16T08:52:01Z</time>
      </trkpt>
      <trkpt lat="48.61741" lon="6.20261">
        <ele>243</ele>
        <time>2020-08-16T08:52:02Z</time>
      </trkpt>
      <trkpt lat="48.61748" lon="6.20265">
        <ele>243</ele>
        <time>2020-08-16T08:52:03Z</time>
      </trkpt>
      <trkpt lat="48.61756" lon="6.20273">
        <ele>243</ele>
        <time>2020-08-16T08:52:05Z</time>
      </trkpt>
      <trkpt lat="48.61764" lon="6.20279">
        <ele>243</ele>
        <time>2020-08-16T08:52:07Z</time>
      </trkpt>
      <trkpt lat="48.61768" lon="6.20284">
        <ele>243</ele>
        <time>2020-08-16T08:52:08Z</time>
      </trkpt>
      <trkpt lat="48.61772" lon="6.20288">
        <ele>243</ele>
        <time>2020-08-16T08:52:09Z</time>
      </trkpt>
      <trkpt lat="48.61779" lon="6.20296">
        <ele>242</ele>
        <time>2020-08-16T08:52:11Z</time>
      </trkpt>
      <trkpt lat="48.61784" lon="6.203">
        <ele>242</ele>
        <time>2020-08-16T08:52:12Z</time>
      </trkpt>
      <trkpt lat="48.61789" lon="6.20304">
        <ele>242</ele>
        <time>2020-08-16T08:52:13Z</time>
      </trkpt>
      <trkpt lat="48.61797" lon="6.20308">
        <ele>242</ele>
        <time>2020-08-16T08:52:15Z</time>
      </trkpt>
      <trkpt lat="48.61808" lon="6.20315">
        <ele>242</ele>
        <time>2020-08-16T08:52:18Z</time>
      </trkpt>
      <trkpt lat="48.61813" lon="6.20321">
        <ele>242</ele>
        <time>2020-08-16T08:52:20Z</time>
      </trkpt>
      <trkpt lat="48.61822" lon="6.20326">
        <ele>242</ele>
        <time>2020-08-16T08:52:22Z</time>
      </trkpt>
      <trkpt lat="48.61833" lon="6.20328">
        <ele>242</ele>
        <time>2020-08-16T08:52:24Z</time>
      </trkpt>
      <trkpt lat="48.61837" lon="6.20331">
        <ele>242</ele>
        <time>2020-08-16T08:52:25Z</time>
      </trkpt>
      <trkpt lat="48.61841" lon="6.20341">
        <ele>242</ele>
        <time>2020-08-16T08:52:27Z</time>
      </trkpt>
      <trkpt lat="48.61847" lon="6.20349">
        <ele>242</ele>
        <time>2020-08-16T08:52:29Z</time>
      </trkpt>
      <trkpt lat="48.61853" lon="6.20357">
        <ele>242</ele>
        <time>2020-08-16T08:52:31Z</time>
      </trkpt>
      <trkpt lat="48.61861" lon="6.20364">
        <ele>242</ele>
        <time>2020-08-16T08:52:33Z</time>
      </trkpt>
      <trkpt lat="48.61872" lon="6.20374">
        <ele>242</ele>
        <time>2020-08-16T08:52:36Z</time>
      </trkpt>
      <trkpt lat="48.61879" lon="6.20381">
        <ele>242</ele>
        <time>2020-08-16T08:52:38Z</time>
      </trkpt>
      <trkpt lat="48.61887" lon="6.20389">
        <ele>242</ele>
        <time>2020-08-16T08:52:40Z</time>
      </trkpt>
      <trkpt lat="48.61892" lon="6.20392">
        <ele>242</ele>
        <time>2020-08-16T08:52:41Z</time>
      </trkpt>
      <trkpt lat="48.61896" lon="6.20396">
        <ele>242</ele>
        <time>2020-08-16T08:52:42Z</time>
      </trkpt>
      <trkpt lat="48.61906" lon="6.20401">
        <ele>242</ele>
        <time>2020-08-16T08:52:44Z</time>
      </trkpt>
      <trkpt lat="48.6191" lon="6.20403">
        <ele>242</ele>
        <time>2020-08-16T08:52:45Z</time>
      </trkpt>
      <trkpt lat="48.61918" lon="6.20406">
        <ele>242</ele>
        <time>2020-08-16T08:52:47Z</time>
      </trkpt>
      <trkpt lat="48.61923" lon="6.2041">
        <ele>242</ele>
        <time>2020-08-16T08:52:48Z</time>
      </trkpt>
      <trkpt lat="48.61927" lon="6.20414">
        <ele>242</ele>
        <time>2020-08-16T08:52:49Z</time>
      </trkpt>
      <trkpt lat="48.61931" lon="6.20419">
        <ele>242</ele>
        <time>2020-08-16T08:52:50Z</time>
      </trkpt>
      <trkpt lat="48.61935" lon="6.20424">
        <ele>241</ele>
        <time>2020-08-16T08:52:51Z</time>
      </trkpt>
      <trkpt lat="48.61941" lon="6.20433">
        <ele>241</ele>
        <time>2020-08-16T08:52:53Z</time>
      </trkpt>
      <trkpt lat="48.61947" lon="6.20438">
        <ele>241</ele>
        <time>2020-08-16T08:52:55Z</time>
      </trkpt>
      <trkpt lat="48.61952" lon="6.20432">
        <ele>241</ele>
        <time>2020-08-16T08:52:57Z</time>
      </trkpt>
      <trkpt lat="48.61956" lon="6.20424">
        <ele>241</ele>
        <time>2020-08-16T08:52:59Z</time>
      </trkpt>
      <trkpt lat="48.61961" lon="6.20413">
        <ele>242</ele>
        <time>2020-08-16T08:53:01Z</time>
      </trkpt>
      <trkpt lat="48.61967" lon="6.20407">
        <ele>242</ele>
        <time>2020-08-16T08:53:03Z</time>
      </trkpt>
      <trkpt lat="48.61973" lon="6.20406">
        <ele>242</ele>
        <time>2020-08-16T08:53:05Z</time>
      </trkpt>
      <trkpt lat="48.61979" lon="6.20405">
        <ele>242</ele>
        <time>2020-08-16T08:53:07Z</time>
      </trkpt>
      <trkpt lat="48.61985" lon="6.20403">
        <ele>242</ele>
        <time>2020-08-16T08:53:09Z</time>
      </trkpt>
      <trkpt lat="48.61991" lon="6.20396">
        <ele>242</ele>
        <time>2020-08-16T08:53:11Z</time>
      </trkpt>
      <trkpt lat="48.61999" lon="6.20395">
        <ele>241</ele>
        <time>2020-08-16T08:53:13Z</time>
      </trkpt>
      <trkpt lat="48.62003" lon="6.20404">
        <ele>240</ele>
        <time>2020-08-16T08:53:15Z</time>
      </trkpt>
      <trkpt lat="48.62007" lon="6.20416">
        <ele>239</ele>
        <time>2020-08-16T08:53:17Z</time>
      </trkpt>
      <trkpt lat="48.62007" lon="6.20423">
        <ele>239</ele>
        <time>2020-08-16T08:53:18Z</time>
      </trkpt>
      <trkpt lat="48.62006" lon="6.20432">
        <ele>238</ele>
        <time>2020-08-16T08:53:19Z</time>
      </trkpt>
      <trkpt lat="48.62007" lon="6.20441">
        <ele>238</ele>
        <time>2020-08-16T08:53:20Z</time>
      </trkpt>
      <trkpt lat="48.62008" lon="6.2045">
        <ele>238</ele>
        <time>2020-08-16T08:53:21Z</time>
      </trkpt>
      <trkpt lat="48.6201" lon="6.20461">
        <ele>237</ele>
        <time>2020-08-16T08:53:22Z</time>
      </trkpt>
      <trkpt lat="48.62013" lon="6.20471">
        <ele>237</ele>
        <time>2020-08-16T08:53:23Z</time>
      </trkpt>
      <trkpt lat="48.62016" lon="6.2048">
        <ele>237</ele>
        <time>2020-08-16T08:53:24Z</time>
      </trkpt>
      <trkpt lat="48.62021" lon="6.20488">
        <ele>237</ele>
        <time>2020-08-16T08:53:25Z</time>
      </trkpt>
      <trkpt lat="48.62024" lon="6.20495">
        <ele>237</ele>
        <time>2020-08-16T08:53:26Z</time>
      </trkpt>
      <trkpt lat="48.62027" lon="6.20504">
        <ele>237</ele>
        <time>2020-08-16T08:53:27Z</time>
      </trkpt>
      <trkpt lat="48.62029" lon="6.20511">
        <ele>237</ele>
        <time>2020-08-16T08:53:28Z</time>
      </trkpt>
      <trkpt lat="48.62033" lon="6.2052">
        <ele>237</ele>
        <time>2020-08-16T08:53:29Z</time>
      </trkpt>
      <trkpt lat="48.62036" lon="6.20528">
        <ele>237</ele>
        <time>2020-08-16T08:53:30Z</time>
      </trkpt>
      <trkpt lat="48.62039" lon="6.20535">
        <ele>237</ele>
        <time>2020-08-16T08:53:31Z</time>
      </trkpt>
      <trkpt lat="48.62042" lon="6.20543">
        <ele>237</ele>
        <time>2020-08-16T08:53:32Z</time>
      </trkpt>
      <trkpt lat="48.62044" lon="6.2055">
        <ele>237</ele>
        <time>2020-08-16T08:53:33Z</time>
      </trkpt>
      <trkpt lat="48.62047" lon="6.20563">
        <ele>237</ele>
        <time>2020-08-16T08:53:35Z</time>
      </trkpt>
      <trkpt lat="48.62049" lon="6.2057">
        <ele>237</ele>
        <time>2020-08-16T08:53:36Z</time>
      </trkpt>
      <trkpt lat="48.62051" lon="6.20578">
        <ele>238</ele>
        <time>2020-08-16T08:53:37Z</time>
      </trkpt>
      <trkpt lat="48.62053" lon="6.20585">
        <ele>238</ele>
        <time>2020-08-16T08:53:38Z</time>
      </trkpt>
      <trkpt lat="48.62054" lon="6.20592">
        <ele>238</ele>
        <time>2020-08-16T08:53:39Z</time>
      </trkpt>
      <trkpt lat="48.62054" lon="6.206">
        <ele>238</ele>
        <time>2020-08-16T08:53:40Z</time>
      </trkpt>
      <trkpt lat="48.62056" lon="6.20609">
        <ele>238</ele>
        <time>2020-08-16T08:53:41Z</time>
      </trkpt>
      <trkpt lat="48.62056" lon="6.20616">
        <ele>237</ele>
        <time>2020-08-16T08:53:42Z</time>
      </trkpt>
      <trkpt lat="48.62057" lon="6.20624">
        <ele>237</ele>
        <time>2020-08-16T08:53:43Z</time>
      </trkpt>
      <trkpt lat="48.62058" lon="6.20632">
        <ele>237</ele>
        <time>2020-08-16T08:53:44Z</time>
      </trkpt>
      <trkpt lat="48.62059" lon="6.20641">
        <ele>237</ele>
        <time>2020-08-16T08:53:45Z</time>
      </trkpt>
      <trkpt lat="48.62061" lon="6.20651">
        <ele>237</ele>
        <time>2020-08-16T08:53:46Z</time>
      </trkpt>
      <trkpt lat="48.62062" lon="6.20661">
        <ele>237</ele>
        <time>2020-08-16T08:53:47Z</time>
      </trkpt>
      <trkpt lat="48.62064" lon="6.20667">
        <ele>237</ele>
        <time>2020-08-16T08:53:48Z</time>
      </trkpt>
      <trkpt lat="48.62067" lon="6.20677">
        <ele>237</ele>
        <time>2020-08-16T08:53:49Z</time>
      </trkpt>
      <trkpt lat="48.62069" lon="6.2069">
        <ele>237</ele>
        <time>2020-08-16T08:53:50Z</time>
      </trkpt>
      <trkpt lat="48.62071" lon="6.20698">
        <ele>237</ele>
        <time>2020-08-16T08:53:51Z</time>
      </trkpt>
      <trkpt lat="48.62072" lon="6.20705">
        <ele>237</ele>
        <time>2020-08-16T08:53:52Z</time>
      </trkpt>
      <trkpt lat="48.62074" lon="6.20714">
        <ele>237</ele>
        <time>2020-08-16T08:53:53Z</time>
      </trkpt>
      <trkpt lat="48.62076" lon="6.20725">
        <ele>237</ele>
        <time>2020-08-16T08:53:54Z</time>
      </trkpt>
      <trkpt lat="48.62079" lon="6.20737">
        <ele>236</ele>
        <time>2020-08-16T08:53:55Z</time>
      </trkpt>
      <trkpt lat="48.62079" lon="6.20747">
        <ele>236</ele>
        <time>2020-08-16T08:53:56Z</time>
      </trkpt>
      <trkpt lat="48.6208" lon="6.20756">
        <ele>236</ele>
        <time>2020-08-16T08:53:57Z</time>
      </trkpt>
      <trkpt lat="48.62082" lon="6.20765">
        <ele>235</ele>
        <time>2020-08-16T08:53:58Z</time>
      </trkpt>
      <trkpt lat="48.62083" lon="6.20775">
        <ele>235</ele>
        <time>2020-08-16T08:53:59Z</time>
      </trkpt>
      <trkpt lat="48.62086" lon="6.20784">
        <ele>235</ele>
        <time>2020-08-16T08:54:00Z</time>
      </trkpt>
      <trkpt lat="48.62087" lon="6.20794">
        <ele>234</ele>
        <time>2020-08-16T08:54:01Z</time>
      </trkpt>
      <trkpt lat="48.62089" lon="6.20807">
        <ele>234</ele>
        <time>2020-08-16T08:54:02Z</time>
      </trkpt>
      <trkpt lat="48.62091" lon="6.20818">
        <ele>234</ele>
        <time>2020-08-16T08:54:03Z</time>
      </trkpt>
      <trkpt lat="48.62091" lon="6.20827">
        <ele>235</ele>
        <time>2020-08-16T08:54:04Z</time>
      </trkpt>
      <trkpt lat="48.62091" lon="6.20836">
        <ele>235</ele>
        <time>2020-08-16T08:54:05Z</time>
      </trkpt>
      <trkpt lat="48.62092" lon="6.20845">
        <ele>235</ele>
        <time>2020-08-16T08:54:06Z</time>
      </trkpt>
      <trkpt lat="48.62093" lon="6.20854">
        <ele>235</ele>
        <time>2020-08-16T08:54:07Z</time>
      </trkpt>
      <trkpt lat="48.62095" lon="6.20863">
        <ele>235</ele>
        <time>2020-08-16T08:54:08Z</time>
      </trkpt>
      <trkpt lat="48.62096" lon="6.20872">
        <ele>235</ele>
        <time>2020-08-16T08:54:09Z</time>
      </trkpt>
      <trkpt lat="48.62097" lon="6.20879">
        <ele>235</ele>
        <time>2020-08-16T08:54:10Z</time>
      </trkpt>
      <trkpt lat="48.621" lon="6.20894">
        <ele>234</ele>
        <time>2020-08-16T08:54:12Z</time>
      </trkpt>
      <trkpt lat="48.62102" lon="6.20903">
        <ele>234</ele>
        <time>2020-08-16T08:54:13Z</time>
      </trkpt>
      <trkpt lat="48.62105" lon="6.20914">
        <ele>234</ele>
        <time>2020-08-16T08:54:14Z</time>
      </trkpt>
      <trkpt lat="48.62109" lon="6.20925">
        <ele>233</ele>
        <time>2020-08-16T08:54:15Z</time>
      </trkpt>
      <trkpt lat="48.62111" lon="6.20937">
        <ele>233</ele>
        <time>2020-08-16T08:54:16Z</time>
      </trkpt>
      <trkpt lat="48.62113" lon="6.20948">
        <ele>232</ele>
        <time>2020-08-16T08:54:17Z</time>
      </trkpt>
      <trkpt lat="48.62115" lon="6.20959">
        <ele>232</ele>
        <time>2020-08-16T08:54:18Z</time>
      </trkpt>
      <trkpt lat="48.62117" lon="6.20971">
        <ele>232</ele>
        <time>2020-08-16T08:54:19Z</time>
      </trkpt>
      <trkpt lat="48.62119" lon="6.20982">
        <ele>232</ele>
        <time>2020-08-16T08:54:20Z</time>
      </trkpt>
      <trkpt lat="48.6212" lon="6.20994">
        <ele>232</ele>
        <time>2020-08-16T08:54:21Z</time>
      </trkpt>
      <trkpt lat="48.62123" lon="6.21004">
        <ele>232</ele>
        <time>2020-08-16T08:54:22Z</time>
      </trkpt>
      <trkpt lat="48.62123" lon="6.21014">
        <ele>232</ele>
        <time>2020-08-16T08:54:23Z</time>
      </trkpt>
      <trkpt lat="48.62125" lon="6.21023">
        <ele>232</ele>
        <time>2020-08-16T08:54:24Z</time>
      </trkpt>
      <trkpt lat="48.62125" lon="6.21032">
        <ele>232</ele>
        <time>2020-08-16T08:54:25Z</time>
      </trkpt>
      <trkpt lat="48.62127" lon="6.21042">
        <ele>232</ele>
        <time>2020-08-16T08:54:26Z</time>
      </trkpt>
      <trkpt lat="48.62128" lon="6.21052">
        <ele>232</ele>
        <time>2020-08-16T08:54:27Z</time>
      </trkpt>
      <trkpt lat="48.62128" lon="6.21061">
        <ele>232</ele>
        <time>2020-08-16T08:54:28Z</time>
      </trkpt>
      <trkpt lat="48.62129" lon="6.21071">
        <ele>232</ele>
        <time>2020-08-16T08:54:29Z</time>
      </trkpt>
      <trkpt lat="48.6213" lon="6.21078">
        <ele>232</ele>
        <time>2020-08-16T08:54:30Z</time>
      </trkpt>
      <trkpt lat="48.62131" lon="6.21085">
        <ele>232</ele>
        <time>2020-08-16T08:54:31Z</time>
      </trkpt>
      <trkpt lat="48.62132" lon="6.21092">
        <ele>232</ele>
        <time>2020-08-16T08:54:32Z</time>
      </trkpt>
      <trkpt lat="48.62133" lon="6.21106">
        <ele>232</ele>
        <time>2020-08-16T08:54:34Z</time>
      </trkpt>
      <trkpt lat="48.62134" lon="6.21113">
        <ele>232</ele>
        <time>2020-08-16T08:54:35Z</time>
      </trkpt>
      <trkpt lat="48.62135" lon="6.2112">
        <ele>232</ele>
        <time>2020-08-16T08:54:36Z</time>
      </trkpt>
      <trkpt lat="48.62137" lon="6.21127">
        <ele>232</ele>
        <time>2020-08-16T08:54:37Z</time>
      </trkpt>
      <trkpt lat="48.6214" lon="6.2114">
        <ele>231</ele>
        <time>2020-08-16T08:54:39Z</time>
      </trkpt>
      <trkpt lat="48.62143" lon="6.21147">
        <ele>231</ele>
        <time>2020-08-16T08:54:40Z</time>
      </trkpt>
      <trkpt lat="48.62145" lon="6.21155">
        <ele>231</ele>
        <time>2020-08-16T08:54:41Z</time>
      </trkpt>
      <trkpt lat="48.62146" lon="6.21163">
        <ele>231</ele>
        <time>2020-08-16T08:54:42Z</time>
      </trkpt>
      <trkpt lat="48.62148" lon="6.21172">
        <ele>230</ele>
        <time>2020-08-16T08:54:43Z</time>
      </trkpt>
      <trkpt lat="48.62149" lon="6.21183">
        <ele>230</ele>
        <time>2020-08-16T08:54:44Z</time>
      </trkpt>
      <trkpt lat="48.62152" lon="6.21193">
        <ele>230</ele>
        <time>2020-08-16T08:54:45Z</time>
      </trkpt>
      <trkpt lat="48.62154" lon="6.21203">
        <ele>230</ele>
        <time>2020-08-16T08:54:46Z</time>
      </trkpt>
      <trkpt lat="48.62156" lon="6.21212">
        <ele>230</ele>
        <time>2020-08-16T08:54:47Z</time>
      </trkpt>
      <trkpt lat="48.62158" lon="6.21221">
        <ele>230</ele>
        <time>2020-08-16T08:54:48Z</time>
      </trkpt>
      <trkpt lat="48.62161" lon="6.21231">
        <ele>230</ele>
        <time>2020-08-16T08:54:49Z</time>
      </trkpt>
      <trkpt lat="48.62164" lon="6.2124">
        <ele>230</ele>
        <time>2020-08-16T08:54:50Z</time>
      </trkpt>
      <trkpt lat="48.62168" lon="6.21248">
        <ele>230</ele>
        <time>2020-08-16T08:54:51Z</time>
      </trkpt>
      <trkpt lat="48.62172" lon="6.21257">
        <ele>230</ele>
        <time>2020-08-16T08:54:52Z</time>
      </trkpt>
      <trkpt lat="48.62175" lon="6.21265">
        <ele>230</ele>
        <time>2020-08-16T08:54:53Z</time>
      </trkpt>
      <trkpt lat="48.62178" lon="6.21273">
        <ele>230</ele>
        <time>2020-08-16T08:54:54Z</time>
      </trkpt>
      <trkpt lat="48.62182" lon="6.21283">
        <ele>230</ele>
        <time>2020-08-16T08:54:55Z</time>
      </trkpt>
      <trkpt lat="48.62185" lon="6.21292">
        <ele>230</ele>
        <time>2020-08-16T08:54:56Z</time>
      </trkpt>
      <trkpt lat="48.62189" lon="6.21302">
        <ele>230</ele>
        <time>2020-08-16T08:54:57Z</time>
      </trkpt>
      <trkpt lat="48.62192" lon="6.21309">
        <ele>230</ele>
        <time>2020-08-16T08:54:58Z</time>
      </trkpt>
      <trkpt lat="48.62196" lon="6.21316">
        <ele>229</ele>
        <time>2020-08-16T08:54:59Z</time>
      </trkpt>
      <trkpt lat="48.62199" lon="6.21324">
        <ele>229</ele>
        <time>2020-08-16T08:55:00Z</time>
      </trkpt>
      <trkpt lat="48.62202" lon="6.21331">
        <ele>229</ele>
        <time>2020-08-16T08:55:01Z</time>
      </trkpt>
      <trkpt lat="48.62206" lon="6.21337">
        <ele>229</ele>
        <time>2020-08-16T08:55:02Z</time>
      </trkpt>
      <trkpt lat="48.62209" lon="6.21345">
        <ele>229</ele>
        <time>2020-08-16T08:55:03Z</time>
      </trkpt>
      <trkpt lat="48.62214" lon="6.21353">
        <ele>228</ele>
        <time>2020-08-16T08:55:04Z</time>
      </trkpt>
      <trkpt lat="48.62218" lon="6.21361">
        <ele>228</ele>
        <time>2020-08-16T08:55:05Z</time>
      </trkpt>
      <trkpt lat="48.62223" lon="6.21368">
        <ele>227</ele>
        <time>2020-08-16T08:55:06Z</time>
      </trkpt>
      <trkpt lat="48.62228" lon="6.21376">
        <ele>227</ele>
        <time>2020-08-16T08:55:07Z</time>
      </trkpt>
      <trkpt lat="48.62234" lon="6.21385">
        <ele>226</ele>
        <time>2020-08-16T08:55:08Z</time>
      </trkpt>
      <trkpt lat="48.62239" lon="6.21394">
        <ele>226</ele>
        <time>2020-08-16T08:55:09Z</time>
      </trkpt>
      <trkpt lat="48.62244" lon="6.21401">
        <ele>226</ele>
        <time>2020-08-16T08:55:10Z</time>
      </trkpt>
      <trkpt lat="48.62249" lon="6.2141">
        <ele>226</ele>
        <time>2020-08-16T08:55:11Z</time>
      </trkpt>
      <trkpt lat="48.62254" lon="6.21418">
        <ele>225</ele>
        <time>2020-08-16T08:55:12Z</time>
      </trkpt>
      <trkpt lat="48.62259" lon="6.21426">
        <ele>225</ele>
        <time>2020-08-16T08:55:13Z</time>
      </trkpt>
      <trkpt lat="48.62264" lon="6.21435">
        <ele>225</ele>
        <time>2020-08-16T08:55:14Z</time>
      </trkpt>
      <trkpt lat="48.62268" lon="6.21442">
        <ele>224</ele>
        <time>2020-08-16T08:55:15Z</time>
      </trkpt>
      <trkpt lat="48.62272" lon="6.21449">
        <ele>224</ele>
        <time>2020-08-16T08:55:16Z</time>
      </trkpt>
      <trkpt lat="48.62275" lon="6.21456">
        <ele>224</ele>
        <time>2020-08-16T08:55:17Z</time>
      </trkpt>
      <trkpt lat="48.62278" lon="6.21465">
        <ele>225</ele>
        <time>2020-08-16T08:55:18Z</time>
      </trkpt>
      <trkpt lat="48.62283" lon="6.21473">
        <ele>225</ele>
        <time>2020-08-16T08:55:19Z</time>
      </trkpt>
      <trkpt lat="48.62287" lon="6.2148">
        <ele>225</ele>
        <time>2020-08-16T08:55:20Z</time>
      </trkpt>
      <trkpt lat="48.6229" lon="6.21488">
        <ele>225</ele>
        <time>2020-08-16T08:55:21Z</time>
      </trkpt>
      <trkpt lat="48.62294" lon="6.21495">
        <ele>225</ele>
        <time>2020-08-16T08:55:22Z</time>
      </trkpt>
      <trkpt lat="48.62296" lon="6.21504">
        <ele>225</ele>
        <time>2020-08-16T08:55:23Z</time>
      </trkpt>
      <trkpt lat="48.623" lon="6.2151">
        <ele>225</ele>
        <time>2020-08-16T08:55:24Z</time>
      </trkpt>
      <trkpt lat="48.62304" lon="6.21517">
        <ele>225</ele>
        <time>2020-08-16T08:55:25Z</time>
      </trkpt>
      <trkpt lat="48.62308" lon="6.21524">
        <ele>225</ele>
        <time>2020-08-16T08:55:26Z</time>
      </trkpt>
      <trkpt lat="48.62312" lon="6.21536">
        <ele>225</ele>
        <time>2020-08-16T08:55:28Z</time>
      </trkpt>
      <trkpt lat="48.62315" lon="6.21543">
        <ele>225</ele>
        <time>2020-08-16T08:55:29Z</time>
      </trkpt>
      <trkpt lat="48.62319" lon="6.21549">
        <ele>225</ele>
        <time>2020-08-16T08:55:30Z</time>
      </trkpt>
      <trkpt lat="48.62323" lon="6.21555">
        <ele>225</ele>
        <time>2020-08-16T08:55:31Z</time>
      </trkpt>
      <trkpt lat="48.62327" lon="6.21561">
        <ele>225</ele>
        <time>2020-08-16T08:55:32Z</time>
      </trkpt>
      <trkpt lat="48.6233" lon="6.21567">
        <ele>224</ele>
        <time>2020-08-16T08:55:33Z</time>
      </trkpt>
      <trkpt lat="48.62335" lon="6.21574">
        <ele>223</ele>
        <time>2020-08-16T08:55:34Z</time>
      </trkpt>
      <trkpt lat="48.6234" lon="6.21582">
        <ele>223</ele>
        <time>2020-08-16T08:55:35Z</time>
      </trkpt>
      <trkpt lat="48.62345" lon="6.21589">
        <ele>222</ele>
        <time>2020-08-16T08:55:36Z</time>
      </trkpt>
      <trkpt lat="48.6235" lon="6.21596">
        <ele>222</ele>
        <time>2020-08-16T08:55:37Z</time>
      </trkpt>
      <trkpt lat="48.62354" lon="6.21605">
        <ele>222</ele>
        <time>2020-08-16T08:55:38Z</time>
      </trkpt>
      <trkpt lat="48.6236" lon="6.21611">
        <ele>222</ele>
        <time>2020-08-16T08:55:39Z</time>
      </trkpt>
      <trkpt lat="48.62365" lon="6.2162">
        <ele>222</ele>
        <time>2020-08-16T08:55:40Z</time>
      </trkpt>
      <trkpt lat="48.6237" lon="6.21627">
        <ele>222</ele>
        <time>2020-08-16T08:55:41Z</time>
      </trkpt>
      <trkpt lat="48.62375" lon="6.21634">
        <ele>223</ele>
        <time>2020-08-16T08:55:42Z</time>
      </trkpt>
      <trkpt lat="48.6238" lon="6.2164">
        <ele>222</ele>
        <time>2020-08-16T08:55:43Z</time>
      </trkpt>
      <trkpt lat="48.62385" lon="6.21647">
        <ele>222</ele>
        <time>2020-08-16T08:55:44Z</time>
      </trkpt>
      <trkpt lat="48.62389" lon="6.21653">
        <ele>223</ele>
        <time>2020-08-16T08:55:45Z</time>
      </trkpt>
      <trkpt lat="48.62394" lon="6.21659">
        <ele>223</ele>
        <time>2020-08-16T08:55:46Z</time>
      </trkpt>
      <trkpt lat="48.62399" lon="6.21664">
        <ele>223</ele>
        <time>2020-08-16T08:55:47Z</time>
      </trkpt>
      <trkpt lat="48.62403" lon="6.21669">
        <ele>222</ele>
        <time>2020-08-16T08:55:48Z</time>
      </trkpt>
      <trkpt lat="48.62407" lon="6.21674">
        <ele>222</ele>
        <time>2020-08-16T08:55:49Z</time>
      </trkpt>
      <trkpt lat="48.62414" lon="6.21682">
        <ele>222</ele>
        <time>2020-08-16T08:55:51Z</time>
      </trkpt>
      <trkpt lat="48.62418" lon="6.21686">
        <ele>222</ele>
        <time>2020-08-16T08:55:52Z</time>
      </trkpt>
      <trkpt lat="48.62425" lon="6.21693">
        <ele>222</ele>
        <time>2020-08-16T08:55:54Z</time>
      </trkpt>
      <trkpt lat="48.6243" lon="6.21697">
        <ele>222</ele>
        <time>2020-08-16T08:55:55Z</time>
      </trkpt>
      <trkpt lat="48.62433" lon="6.21702">
        <ele>222</ele>
        <time>2020-08-16T08:55:56Z</time>
      </trkpt>
      <trkpt lat="48.62437" lon="6.21707">
        <ele>222</ele>
        <time>2020-08-16T08:55:57Z</time>
      </trkpt>
      <trkpt lat="48.62444" lon="6.21714">
        <ele>222</ele>
        <time>2020-08-16T08:55:59Z</time>
      </trkpt>
      <trkpt lat="48.62451" lon="6.21719">
        <ele>222</ele>
        <time>2020-08-16T08:56:01Z</time>
      </trkpt>
      <trkpt lat="48.62455" lon="6.21723">
        <ele>222</ele>
        <time>2020-08-16T08:56:03Z</time>
      </trkpt>
      <trkpt lat="48.62454" lon="6.21716">
        <ele>222</ele>
        <time>2020-08-16T08:56:25Z</time>
      </trkpt>
      <trkpt lat="48.62453" lon="6.21724">
        <ele>222</ele>
        <time>2020-08-16T08:56:31Z</time>
      </trkpt>
      <trkpt lat="48.62455" lon="6.21729">
        <ele>222</ele>
        <time>2020-08-16T08:56:36Z</time>
      </trkpt>
      <trkpt lat="48.62452" lon="6.21735">
        <ele>222</ele>
        <time>2020-08-16T08:56:39Z</time>
      </trkpt>
      <trkpt lat="48.6245" lon="6.21741">
        <ele>222</ele>
        <time>2020-08-16T08:56:43Z</time>
      </trkpt>
      <trkpt lat="48.62456" lon="6.21739">
        <ele>222</ele>
        <time>2020-08-16T08:57:06Z</time>
      </trkpt>
      <trkpt lat="48.62456" lon="6.21731">
        <ele>222</ele>
        <time>2020-08-16T08:57:11Z</time>
      </trkpt>
      <trkpt lat="48.62452" lon="6.21727">
        <ele>222</ele>
        <time>2020-08-16T08:57:15Z</time>
      </trkpt>
      <trkpt lat="48.62454" lon="6.21719">
        <ele>222</ele>
        <time>2020-08-16T08:57:18Z</time>
      </trkpt>
      <trkpt lat="48.62458" lon="6.21724">
        <ele>222</ele>
        <time>2020-08-16T08:57:46Z</time>
      </trkpt>
      <trkpt lat="48.62463" lon="6.21728">
        <ele>221</ele>
        <time>2020-08-16T08:57:48Z</time>
      </trkpt>
      <trkpt lat="48.62467" lon="6.21732">
        <ele>221</ele>
        <time>2020-08-16T08:57:49Z</time>
      </trkpt>
      <trkpt lat="48.62471" lon="6.21737">
        <ele>221</ele>
        <time>2020-08-16T08:57:50Z</time>
      </trkpt>
      <trkpt lat="48.62475" lon="6.2174">
        <ele>221</ele>
        <time>2020-08-16T08:57:51Z</time>
      </trkpt>
      <trkpt lat="48.6248" lon="6.21743">
        <ele>220</ele>
        <time>2020-08-16T08:57:52Z</time>
      </trkpt>
      <trkpt lat="48.62485" lon="6.21747">
        <ele>220</ele>
        <time>2020-08-16T08:57:53Z</time>
      </trkpt>
      <trkpt lat="48.62491" lon="6.21751">
        <ele>220</ele>
        <time>2020-08-16T08:57:54Z</time>
      </trkpt>
      <trkpt lat="48.62497" lon="6.21756">
        <ele>220</ele>
        <time>2020-08-16T08:57:55Z</time>
      </trkpt>
      <trkpt lat="48.62502" lon="6.2176">
        <ele>220</ele>
        <time>2020-08-16T08:57:56Z</time>
      </trkpt>
      <trkpt lat="48.62508" lon="6.21764">
        <ele>220</ele>
        <time>2020-08-16T08:57:57Z</time>
      </trkpt>
      <trkpt lat="48.62514" lon="6.21768">
        <ele>220</ele>
        <time>2020-08-16T08:57:58Z</time>
      </trkpt>
      <trkpt lat="48.62519" lon="6.2177">
        <ele>220</ele>
        <time>2020-08-16T08:57:59Z</time>
      </trkpt>
      <trkpt lat="48.62524" lon="6.21774">
        <ele>220</ele>
        <time>2020-08-16T08:58:00Z</time>
      </trkpt>
      <trkpt lat="48.6253" lon="6.2178">
        <ele>220</ele>
        <time>2020-08-16T08:58:01Z</time>
      </trkpt>
      <trkpt lat="48.62536" lon="6.21784">
        <ele>220</ele>
        <time>2020-08-16T08:58:02Z</time>
      </trkpt>
      <trkpt lat="48.62541" lon="6.21788">
        <ele>220</ele>
        <time>2020-08-16T08:58:03Z</time>
      </trkpt>
      <trkpt lat="48.62546" lon="6.21791">
        <ele>220</ele>
        <time>2020-08-16T08:58:04Z</time>
      </trkpt>
      <trkpt lat="48.62551" lon="6.21795">
        <ele>220</ele>
        <time>2020-08-16T08:58:05Z</time>
      </trkpt>
      <trkpt lat="48.62556" lon="6.21799">
        <ele>220</ele>
        <time>2020-08-16T08:58:06Z</time>
      </trkpt>
      <trkpt lat="48.62562" lon="6.21802">
        <ele>220</ele>
        <time>2020-08-16T08:58:07Z</time>
      </trkpt>
      <trkpt lat="48.62566" lon="6.21805">
        <ele>220</ele>
        <time>2020-08-16T08:58:08Z</time>
      </trkpt>
      <trkpt lat="48.62571" lon="6.21808">
        <ele>219</ele>
        <time>2020-08-16T08:58:09Z</time>
      </trkpt>
      <trkpt lat="48.62576" lon="6.21812">
        <ele>219</ele>
        <time>2020-08-16T08:58:10Z</time>
      </trkpt>
      <trkpt lat="48.62582" lon="6.21819">
        <ele>219</ele>
        <time>2020-08-16T08:58:12Z</time>
      </trkpt>
      <trkpt lat="48.62591" lon="6.21825">
        <ele>219</ele>
        <time>2020-08-16T08:58:14Z</time>
      </trkpt>
      <trkpt lat="48.62596" lon="6.21827">
        <ele>219</ele>
        <time>2020-08-16T08:58:15Z</time>
      </trkpt>
      <trkpt lat="48.62603" lon="6.21827">
        <ele>219</ele>
        <time>2020-08-16T08:58:17Z</time>
      </trkpt>
      <trkpt lat="48.62608" lon="6.21828">
        <ele>219</ele>
        <time>2020-08-16T08:58:18Z</time>
      </trkpt>
      <trkpt lat="48.62615" lon="6.21829">
        <ele>218</ele>
        <time>2020-08-16T08:58:20Z</time>
      </trkpt>
      <trkpt lat="48.62622" lon="6.21834">
        <ele>218</ele>
        <time>2020-08-16T08:58:22Z</time>
      </trkpt>
      <trkpt lat="48.62629" lon="6.21838">
        <ele>217</ele>
        <time>2020-08-16T08:58:24Z</time>
      </trkpt>
      <trkpt lat="48.62635" lon="6.21841">
        <ele>217</ele>
        <time>2020-08-16T08:58:25Z</time>
      </trkpt>
      <trkpt lat="48.62642" lon="6.21844">
        <ele>216</ele>
        <time>2020-08-16T08:58:26Z</time>
      </trkpt>
      <trkpt lat="48.6265" lon="6.21848">
        <ele>216</ele>
        <time>2020-08-16T08:58:27Z</time>
      </trkpt>
      <trkpt lat="48.62656" lon="6.2185">
        <ele>216</ele>
        <time>2020-08-16T08:58:28Z</time>
      </trkpt>
      <trkpt lat="48.62664" lon="6.21854">
        <ele>216</ele>
        <time>2020-08-16T08:58:29Z</time>
      </trkpt>
      <trkpt lat="48.62671" lon="6.21858">
        <ele>216</ele>
        <time>2020-08-16T08:58:30Z</time>
      </trkpt>
      <trkpt lat="48.62676" lon="6.2186">
        <ele>216</ele>
        <time>2020-08-16T08:58:31Z</time>
      </trkpt>
      <trkpt lat="48.62682" lon="6.21864">
        <ele>216</ele>
        <time>2020-08-16T08:58:32Z</time>
      </trkpt>
      <trkpt lat="48.62689" lon="6.21867">
        <ele>216</ele>
        <time>2020-08-16T08:58:33Z</time>
      </trkpt>
      <trkpt lat="48.62696" lon="6.2187">
        <ele>216</ele>
        <time>2020-08-16T08:58:34Z</time>
      </trkpt>
      <trkpt lat="48.62701" lon="6.21875">
        <ele>216</ele>
        <time>2020-08-16T08:58:35Z</time>
      </trkpt>
      <trkpt lat="48.62707" lon="6.21877">
        <ele>216</ele>
        <time>2020-08-16T08:58:36Z</time>
      </trkpt>
      <trkpt lat="48.62714" lon="6.21881">
        <ele>216</ele>
        <time>2020-08-16T08:58:37Z</time>
      </trkpt>
      <trkpt lat="48.62721" lon="6.21886">
        <ele>216</ele>
        <time>2020-08-16T08:58:38Z</time>
      </trkpt>
      <trkpt lat="48.62726" lon="6.2189">
        <ele>217</ele>
        <time>2020-08-16T08:58:39Z</time>
      </trkpt>
      <trkpt lat="48.62732" lon="6.21893">
        <ele>217</ele>
        <time>2020-08-16T08:58:40Z</time>
      </trkpt>
      <trkpt lat="48.62737" lon="6.21895">
        <ele>217</ele>
        <time>2020-08-16T08:58:41Z</time>
      </trkpt>
      <trkpt lat="48.62743" lon="6.21898">
        <ele>218</ele>
        <time>2020-08-16T08:58:42Z</time>
      </trkpt>
      <trkpt lat="48.62749" lon="6.21901">
        <ele>218</ele>
        <time>2020-08-16T08:58:43Z</time>
      </trkpt>
      <trkpt lat="48.62754" lon="6.21903">
        <ele>218</ele>
        <time>2020-08-16T08:58:44Z</time>
      </trkpt>
      <trkpt lat="48.62759" lon="6.21905">
        <ele>218</ele>
        <time>2020-08-16T08:58:45Z</time>
      </trkpt>
      <trkpt lat="48.62764" lon="6.21906">
        <ele>219</ele>
        <time>2020-08-16T08:58:46Z</time>
      </trkpt>
      <trkpt lat="48.62769" lon="6.21907">
        <ele>219</ele>
        <time>2020-08-16T08:58:47Z</time>
      </trkpt>
      <trkpt lat="48.62776" lon="6.21906">
        <ele>219</ele>
        <time>2020-08-16T08:58:48Z</time>
      </trkpt>
      <trkpt lat="48.62781" lon="6.21905">
        <ele>220</ele>
        <time>2020-08-16T08:58:49Z</time>
      </trkpt>
      <trkpt lat="48.62787" lon="6.21901">
        <ele>220</ele>
        <time>2020-08-16T08:58:50Z</time>
      </trkpt>
      <trkpt lat="48.62791" lon="6.21899">
        <ele>220</ele>
        <time>2020-08-16T08:58:51Z</time>
      </trkpt>
      <trkpt lat="48.62796" lon="6.21898">
        <ele>220</ele>
        <time>2020-08-16T08:58:52Z</time>
      </trkpt>
      <trkpt lat="48.62803" lon="6.21894">
        <ele>220</ele>
        <time>2020-08-16T08:58:53Z</time>
      </trkpt>
      <trkpt lat="48.62808" lon="6.21893">
        <ele>220</ele>
        <time>2020-08-16T08:58:54Z</time>
      </trkpt>
      <trkpt lat="48.62813" lon="6.21888">
        <ele>219</ele>
        <time>2020-08-16T08:58:55Z</time>
      </trkpt>
      <trkpt lat="48.62822" lon="6.21879">
        <ele>219</ele>
        <time>2020-08-16T08:58:57Z</time>
      </trkpt>
      <trkpt lat="48.62827" lon="6.21873">
        <ele>219</ele>
        <time>2020-08-16T08:58:58Z</time>
      </trkpt>
      <trkpt lat="48.62831" lon="6.21867">
        <ele>219</ele>
        <time>2020-08-16T08:58:59Z</time>
      </trkpt>
      <trkpt lat="48.62835" lon="6.21861">
        <ele>219</ele>
        <time>2020-08-16T08:59:00Z</time>
      </trkpt>
      <trkpt lat="48.62839" lon="6.21856">
        <ele>219</ele>
        <time>2020-08-16T08:59:01Z</time>
      </trkpt>
      <trkpt lat="48.62843" lon="6.2185">
        <ele>219</ele>
        <time>2020-08-16T08:59:02Z</time>
      </trkpt>
      <trkpt lat="48.62846" lon="6.21843">
        <ele>218</ele>
        <time>2020-08-16T08:59:03Z</time>
      </trkpt>
      <trkpt lat="48.6285" lon="6.21837">
        <ele>218</ele>
        <time>2020-08-16T08:59:04Z</time>
      </trkpt>
      <trkpt lat="48.62853" lon="6.21831">
        <ele>218</ele>
        <time>2020-08-16T08:59:05Z</time>
      </trkpt>
      <trkpt lat="48.62855" lon="6.21825">
        <ele>218</ele>
        <time>2020-08-16T08:59:06Z</time>
      </trkpt>
      <trkpt lat="48.62858" lon="6.21819">
        <ele>218</ele>
        <time>2020-08-16T08:59:07Z</time>
      </trkpt>
      <trkpt lat="48.62862" lon="6.21814">
        <ele>218</ele>
        <time>2020-08-16T08:59:08Z</time>
      </trkpt>
      <trkpt lat="48.62865" lon="6.21808">
        <ele>218</ele>
        <time>2020-08-16T08:59:09Z</time>
      </trkpt>
      <trkpt lat="48.62869" lon="6.21802">
        <ele>218</ele>
        <time>2020-08-16T08:59:10Z</time>
      </trkpt>
      <trkpt lat="48.62873" lon="6.21795">
        <ele>217</ele>
        <time>2020-08-16T08:59:11Z</time>
      </trkpt>
      <trkpt lat="48.62875" lon="6.21787">
        <ele>217</ele>
        <time>2020-08-16T08:59:12Z</time>
      </trkpt>
      <trkpt lat="48.62878" lon="6.21774">
        <ele>217</ele>
        <time>2020-08-16T08:59:14Z</time>
      </trkpt>
      <trkpt lat="48.6288" lon="6.21766">
        <ele>216</ele>
        <time>2020-08-16T08:59:15Z</time>
      </trkpt>
      <trkpt lat="48.62883" lon="6.21759">
        <ele>216</ele>
        <time>2020-08-16T08:59:16Z</time>
      </trkpt>
      <trkpt lat="48.62889" lon="6.21755">
        <ele>216</ele>
        <time>2020-08-16T08:59:17Z</time>
      </trkpt>
      <trkpt lat="48.62894" lon="6.21747">
        <ele>216</ele>
        <time>2020-08-16T08:59:18Z</time>
      </trkpt>
      <trkpt lat="48.62899" lon="6.21738">
        <ele>215</ele>
        <time>2020-08-16T08:59:19Z</time>
      </trkpt>
      <trkpt lat="48.62904" lon="6.21728">
        <ele>215</ele>
        <time>2020-08-16T08:59:20Z</time>
      </trkpt>
      <trkpt lat="48.62907" lon="6.21716">
        <ele>215</ele>
        <time>2020-08-16T08:59:21Z</time>
      </trkpt>
      <trkpt lat="48.62911" lon="6.21706">
        <ele>215</ele>
        <time>2020-08-16T08:59:22Z</time>
      </trkpt>
      <trkpt lat="48.62914" lon="6.21697">
        <ele>215</ele>
        <time>2020-08-16T08:59:23Z</time>
      </trkpt>
      <trkpt lat="48.62918" lon="6.21687">
        <ele>215</ele>
        <time>2020-08-16T08:59:24Z</time>
      </trkpt>
      <trkpt lat="48.62922" lon="6.21678">
        <ele>215</ele>
        <time>2020-08-16T08:59:25Z</time>
      </trkpt>
      <trkpt lat="48.62925" lon="6.21671">
        <ele>215</ele>
        <time>2020-08-16T08:59:26Z</time>
      </trkpt>
      <trkpt lat="48.6293" lon="6.21663">
        <ele>215</ele>
        <time>2020-08-16T08:59:27Z</time>
      </trkpt>
      <trkpt lat="48.62933" lon="6.21655">
        <ele>216</ele>
        <time>2020-08-16T08:59:28Z</time>
      </trkpt>
      <trkpt lat="48.62936" lon="6.21646">
        <ele>215</ele>
        <time>2020-08-16T08:59:29Z</time>
      </trkpt>
      <trkpt lat="48.62939" lon="6.21639">
        <ele>215</ele>
        <time>2020-08-16T08:59:30Z</time>
      </trkpt>
      <trkpt lat="48.62944" lon="6.21631">
        <ele>215</ele>
        <time>2020-08-16T08:59:31Z</time>
      </trkpt>
      <trkpt lat="48.62948" lon="6.21624">
        <ele>215</ele>
        <time>2020-08-16T08:59:32Z</time>
      </trkpt>
      <trkpt lat="48.62952" lon="6.21618">
        <ele>215</ele>
        <time>2020-08-16T08:59:33Z</time>
      </trkpt>
      <trkpt lat="48.62956" lon="6.21609">
        <ele>214</ele>
        <time>2020-08-16T08:59:34Z</time>
      </trkpt>
      <trkpt lat="48.62959" lon="6.21604">
        <ele>214</ele>
        <time>2020-08-16T08:59:35Z</time>
      </trkpt>
      <trkpt lat="48.62962" lon="6.21598">
        <ele>214</ele>
        <time>2020-08-16T08:59:36Z</time>
      </trkpt>
      <trkpt lat="48.62967" lon="6.21591">
        <ele>214</ele>
        <time>2020-08-16T08:59:37Z</time>
      </trkpt>
      <trkpt lat="48.62972" lon="6.21583">
        <ele>214</ele>
        <time>2020-08-16T08:59:38Z</time>
      </trkpt>
      <trkpt lat="48.62975" lon="6.21574">
        <ele>214</ele>
        <time>2020-08-16T08:59:39Z</time>
      </trkpt>
      <trkpt lat="48.62978" lon="6.21566">
        <ele>214</ele>
        <time>2020-08-16T08:59:40Z</time>
      </trkpt>
      <trkpt lat="48.62981" lon="6.21558">
        <ele>213</ele>
        <time>2020-08-16T08:59:41Z</time>
      </trkpt>
      <trkpt lat="48.62985" lon="6.2155">
        <ele>213</ele>
        <time>2020-08-16T08:59:42Z</time>
      </trkpt>
      <trkpt lat="48.62989" lon="6.21542">
        <ele>212</ele>
        <time>2020-08-16T08:59:43Z</time>
      </trkpt>
      <trkpt lat="48.62992" lon="6.21532">
        <ele>212</ele>
        <time>2020-08-16T08:59:44Z</time>
      </trkpt>
      <trkpt lat="48.62996" lon="6.21521">
        <ele>212</ele>
        <time>2020-08-16T08:59:45Z</time>
      </trkpt>
      <trkpt lat="48.63001" lon="6.21512">
        <ele>212</ele>
        <time>2020-08-16T08:59:46Z</time>
      </trkpt>
      <trkpt lat="48.63004" lon="6.21502">
        <ele>211</ele>
        <time>2020-08-16T08:59:47Z</time>
      </trkpt>
      <trkpt lat="48.63008" lon="6.21491">
        <ele>211</ele>
        <time>2020-08-16T08:59:48Z</time>
      </trkpt>
      <trkpt lat="48.63012" lon="6.21482">
        <ele>211</ele>
        <time>2020-08-16T08:59:49Z</time>
      </trkpt>
      <trkpt lat="48.63015" lon="6.21474">
        <ele>211</ele>
        <time>2020-08-16T08:59:50Z</time>
      </trkpt>
      <trkpt lat="48.6302" lon="6.21468">
        <ele>211</ele>
        <time>2020-08-16T08:59:51Z</time>
      </trkpt>
      <trkpt lat="48.63024" lon="6.21461">
        <ele>211</ele>
        <time>2020-08-16T08:59:52Z</time>
      </trkpt>
      <trkpt lat="48.63028" lon="6.21455">
        <ele>211</ele>
        <time>2020-08-16T08:59:53Z</time>
      </trkpt>
      <trkpt lat="48.63034" lon="6.21448">
        <ele>211</ele>
        <time>2020-08-16T08:59:54Z</time>
      </trkpt>
      <trkpt lat="48.63038" lon="6.21443">
        <ele>211</ele>
        <time>2020-08-16T08:59:55Z</time>
      </trkpt>
      <trkpt lat="48.63045" lon="6.21436">
        <ele>211</ele>
        <time>2020-08-16T08:59:56Z</time>
      </trkpt>
      <trkpt lat="48.63051" lon="6.21431">
        <ele>211</ele>
        <time>2020-08-16T08:59:57Z</time>
      </trkpt>
      <trkpt lat="48.63056" lon="6.21426">
        <ele>211</ele>
        <time>2020-08-16T08:59:58Z</time>
      </trkpt>
      <trkpt lat="48.63062" lon="6.21422">
        <ele>212</ele>
        <time>2020-08-16T08:59:59Z</time>
      </trkpt>
      <trkpt lat="48.63067" lon="6.21417">
        <ele>212</ele>
        <time>2020-08-16T09:00:00Z</time>
      </trkpt>
      <trkpt lat="48.63071" lon="6.21412">
        <ele>212</ele>
        <time>2020-08-16T09:00:01Z</time>
      </trkpt>
      <trkpt lat="48.63076" lon="6.21408">
        <ele>212</ele>
        <time>2020-08-16T09:00:02Z</time>
      </trkpt>
      <trkpt lat="48.63081" lon="6.21405">
        <ele>212</ele>
        <time>2020-08-16T09:00:03Z</time>
      </trkpt>
      <trkpt lat="48.63086" lon="6.21402">
        <ele>212</ele>
        <time>2020-08-16T09:00:04Z</time>
      </trkpt>
      <trkpt lat="48.63092" lon="6.21399">
        <ele>213</ele>
        <time>2020-08-16T09:00:05Z</time>
      </trkpt>
      <trkpt lat="48.63097" lon="6.21396">
        <ele>213</ele>
        <time>2020-08-16T09:00:06Z</time>
      </trkpt>
      <trkpt lat="48.63102" lon="6.21393">
        <ele>213</ele>
        <time>2020-08-16T09:00:07Z</time>
      </trkpt>
      <trkpt lat="48.63108" lon="6.21391">
        <ele>213</ele>
        <time>2020-08-16T09:00:08Z</time>
      </trkpt>
      <trkpt lat="48.63113" lon="6.2139">
        <ele>213</ele>
        <time>2020-08-16T09:00:09Z</time>
      </trkpt>
      <trkpt lat="48.63119" lon="6.21388">
        <ele>213</ele>
        <time>2020-08-16T09:00:10Z</time>
      </trkpt>
      <trkpt lat="48.63125" lon="6.21387">
        <ele>213</ele>
        <time>2020-08-16T09:00:11Z</time>
      </trkpt>
      <trkpt lat="48.63131" lon="6.21385">
        <ele>213</ele>
        <time>2020-08-16T09:00:12Z</time>
      </trkpt>
      <trkpt lat="48.63136" lon="6.21384">
        <ele>213</ele>
        <time>2020-08-16T09:00:13Z</time>
      </trkpt>
      <trkpt lat="48.63141" lon="6.2138">
        <ele>213</ele>
        <time>2020-08-16T09:00:14Z</time>
      </trkpt>
      <trkpt lat="48.63147" lon="6.21378">
        <ele>213</ele>
        <time>2020-08-16T09:00:15Z</time>
      </trkpt>
      <trkpt lat="48.63152" lon="6.21377">
        <ele>213</ele>
        <time>2020-08-16T09:00:16Z</time>
      </trkpt>
      <trkpt lat="48.63157" lon="6.21375">
        <ele>212</ele>
        <time>2020-08-16T09:00:17Z</time>
      </trkpt>
      <trkpt lat="48.63163" lon="6.21373">
        <ele>212</ele>
        <time>2020-08-16T09:00:18Z</time>
      </trkpt>
      <trkpt lat="48.63168" lon="6.21371">
        <ele>212</ele>
        <time>2020-08-16T09:00:19Z</time>
      </trkpt>
      <trkpt lat="48.63174" lon="6.21369">
        <ele>213</ele>
        <time>2020-08-16T09:00:20Z</time>
      </trkpt>
      <trkpt lat="48.63179" lon="6.21368">
        <ele>213</ele>
        <time>2020-08-16T09:00:21Z</time>
      </trkpt>
      <trkpt lat="48.63185" lon="6.21366">
        <ele>213</ele>
        <time>2020-08-16T09:00:22Z</time>
      </trkpt>
      <trkpt lat="48.63191" lon="6.21365">
        <ele>213</ele>
        <time>2020-08-16T09:00:23Z</time>
      </trkpt>
      <trkpt lat="48.63196" lon="6.21363">
        <ele>213</ele>
        <time>2020-08-16T09:00:24Z</time>
      </trkpt>
      <trkpt lat="48.63202" lon="6.21361">
        <ele>213</ele>
        <time>2020-08-16T09:00:25Z</time>
      </trkpt>
      <trkpt lat="48.63207" lon="6.21358">
        <ele>212</ele>
        <time>2020-08-16T09:00:26Z</time>
      </trkpt>
      <trkpt lat="48.63213" lon="6.21357">
        <ele>212</ele>
        <time>2020-08-16T09:00:27Z</time>
      </trkpt>
      <trkpt lat="48.63218" lon="6.21355">
        <ele>212</ele>
        <time>2020-08-16T09:00:28Z</time>
      </trkpt>
      <trkpt lat="48.63224" lon="6.21353">
        <ele>212</ele>
        <time>2020-08-16T09:00:29Z</time>
      </trkpt>
      <trkpt lat="48.63229" lon="6.21352">
        <ele>212</ele>
        <time>2020-08-16T09:00:30Z</time>
      </trkpt>
      <trkpt lat="48.63233" lon="6.21349">
        <ele>212</ele>
        <time>2020-08-16T09:00:31Z</time>
      </trkpt>
      <trkpt lat="48.63238" lon="6.21347">
        <ele>212</ele>
        <time>2020-08-16T09:00:32Z</time>
      </trkpt>
      <trkpt lat="48.63247" lon="6.21342">
        <ele>212</ele>
        <time>2020-08-16T09:00:34Z</time>
      </trkpt>
      <trkpt lat="48.63252" lon="6.21341">
        <ele>212</ele>
        <time>2020-08-16T09:00:35Z</time>
      </trkpt>
      <trkpt lat="48.63258" lon="6.21339">
        <ele>212</ele>
        <time>2020-08-16T09:00:36Z</time>
      </trkpt>
      <trkpt lat="48.63263" lon="6.21338">
        <ele>212</ele>
        <time>2020-08-16T09:00:37Z</time>
      </trkpt>
      <trkpt lat="48.63268" lon="6.21336">
        <ele>212</ele>
        <time>2020-08-16T09:00:38Z</time>
      </trkpt>
      <trkpt lat="48.63273" lon="6.21335">
        <ele>212</ele>
        <time>2020-08-16T09:00:39Z</time>
      </trkpt>
      <trkpt lat="48.63278" lon="6.21334">
        <ele>212</ele>
        <time>2020-08-16T09:00:40Z</time>
      </trkpt>
      <trkpt lat="48.63284" lon="6.21332">
        <ele>212</ele>
        <time>2020-08-16T09:00:41Z</time>
      </trkpt>
      <trkpt lat="48.63289" lon="6.2133">
        <ele>212</ele>
        <time>2020-08-16T09:00:42Z</time>
      </trkpt>
      <trkpt lat="48.63294" lon="6.21328">
        <ele>211</ele>
        <time>2020-08-16T09:00:43Z</time>
      </trkpt>
      <trkpt lat="48.63299" lon="6.21326">
        <ele>211</ele>
        <time>2020-08-16T09:00:44Z</time>
      </trkpt>
      <trkpt lat="48.63304" lon="6.21325">
        <ele>211</ele>
        <time>2020-08-16T09:00:45Z</time>
      </trkpt>
      <trkpt lat="48.6331" lon="6.21322">
        <ele>211</ele>
        <time>2020-08-16T09:00:46Z</time>
      </trkpt>
      <trkpt lat="48.63315" lon="6.21321">
        <ele>212</ele>
        <time>2020-08-16T09:00:47Z</time>
      </trkpt>
      <trkpt lat="48.6332" lon="6.21319">
        <ele>212</ele>
        <time>2020-08-16T09:00:48Z</time>
      </trkpt>
      <trkpt lat="48.63325" lon="6.21318">
        <ele>212</ele>
        <time>2020-08-16T09:00:49Z</time>
      </trkpt>
      <trkpt lat="48.63331" lon="6.21316">
        <ele>212</ele>
        <time>2020-08-16T09:00:50Z</time>
      </trkpt>
      <trkpt lat="48.63336" lon="6.21314">
        <ele>212</ele>
        <time>2020-08-16T09:00:51Z</time>
      </trkpt>
      <trkpt lat="48.63341" lon="6.21312">
        <ele>212</ele>
        <time>2020-08-16T09:00:52Z</time>
      </trkpt>
      <trkpt lat="48.63346" lon="6.21309">
        <ele>212</ele>
        <time>2020-08-16T09:00:53Z</time>
      </trkpt>
      <trkpt lat="48.63351" lon="6.21307">
        <ele>212</ele>
        <time>2020-08-16T09:00:54Z</time>
      </trkpt>
      <trkpt lat="48.63356" lon="6.21306">
        <ele>212</ele>
        <time>2020-08-16T09:00:55Z</time>
      </trkpt>
      <trkpt lat="48.6336" lon="6.21305">
        <ele>212</ele>
        <time>2020-08-16T09:00:56Z</time>
      </trkpt>
      <trkpt lat="48.63365" lon="6.21304">
        <ele>212</ele>
        <time>2020-08-16T09:00:57Z</time>
      </trkpt>
      <trkpt lat="48.6337" lon="6.21303">
        <ele>212</ele>
        <time>2020-08-16T09:00:58Z</time>
      </trkpt>
      <trkpt lat="48.63375" lon="6.21302">
        <ele>212</ele>
        <time>2020-08-16T09:00:59Z</time>
      </trkpt>
      <trkpt lat="48.63381" lon="6.21299">
        <ele>211</ele>
        <time>2020-08-16T09:01:00Z</time>
      </trkpt>
      <trkpt lat="48.63386" lon="6.21297">
        <ele>211</ele>
        <time>2020-08-16T09:01:01Z</time>
      </trkpt>
      <trkpt lat="48.63391" lon="6.21296">
        <ele>211</ele>
        <time>2020-08-16T09:01:02Z</time>
      </trkpt>
      <trkpt lat="48.63399" lon="6.21294">
        <ele>211</ele>
        <time>2020-08-16T09:01:04Z</time>
      </trkpt>
      <trkpt lat="48.63403" lon="6.21293">
        <ele>211</ele>
        <time>2020-08-16T09:01:05Z</time>
      </trkpt>
      <trkpt lat="48.63408" lon="6.21292">
        <ele>211</ele>
        <time>2020-08-16T09:01:06Z</time>
      </trkpt>
      <trkpt lat="48.63413" lon="6.2129">
        <ele>211</ele>
        <time>2020-08-16T09:01:07Z</time>
      </trkpt>
      <trkpt lat="48.63418" lon="6.21289">
        <ele>211</ele>
        <time>2020-08-16T09:01:08Z</time>
      </trkpt>
      <trkpt lat="48.63427" lon="6.21288">
        <ele>212</ele>
        <time>2020-08-16T09:01:10Z</time>
      </trkpt>
      <trkpt lat="48.63432" lon="6.21288">
        <ele>212</ele>
        <time>2020-08-16T09:01:11Z</time>
      </trkpt>
      <trkpt lat="48.63438" lon="6.21287">
        <ele>212</ele>
        <time>2020-08-16T09:01:12Z</time>
      </trkpt>
      <trkpt lat="48.63443" lon="6.21286">
        <ele>211</ele>
        <time>2020-08-16T09:01:13Z</time>
      </trkpt>
      <trkpt lat="48.63448" lon="6.21286">
        <ele>211</ele>
        <time>2020-08-16T09:01:14Z</time>
      </trkpt>
      <trkpt lat="48.63453" lon="6.21285">
        <ele>211</ele>
        <time>2020-08-16T09:01:15Z</time>
      </trkpt>
      <trkpt lat="48.63458" lon="6.21285">
        <ele>211</ele>
        <time>2020-08-16T09:01:16Z</time>
      </trkpt>
      <trkpt lat="48.63462" lon="6.21284">
        <ele>211</ele>
        <time>2020-08-16T09:01:17Z</time>
      </trkpt>
      <trkpt lat="48.63468" lon="6.21284">
        <ele>211</ele>
        <time>2020-08-16T09:01:18Z</time>
      </trkpt>
      <trkpt lat="48.63473" lon="6.21284">
        <ele>211</ele>
        <time>2020-08-16T09:01:19Z</time>
      </trkpt>
      <trkpt lat="48.63478" lon="6.21283">
        <ele>211</ele>
        <time>2020-08-16T09:01:20Z</time>
      </trkpt>
      <trkpt lat="48.63483" lon="6.21283">
        <ele>211</ele>
        <time>2020-08-16T09:01:21Z</time>
      </trkpt>
      <trkpt lat="48.63488" lon="6.21283">
        <ele>211</ele>
        <time>2020-08-16T09:01:22Z</time>
      </trkpt>
      <trkpt lat="48.63493" lon="6.21282">
        <ele>211</ele>
        <time>2020-08-16T09:01:23Z</time>
      </trkpt>
      <trkpt lat="48.63498" lon="6.21283">
        <ele>211</ele>
        <time>2020-08-16T09:01:24Z</time>
      </trkpt>
      <trkpt lat="48.63503" lon="6.21283">
        <ele>211</ele>
        <time>2020-08-16T09:01:25Z</time>
      </trkpt>
      <trkpt lat="48.63508" lon="6.21283">
        <ele>212</ele>
        <time>2020-08-16T09:01:26Z</time>
      </trkpt>
      <trkpt lat="48.63513" lon="6.21283">
        <ele>212</ele>
        <time>2020-08-16T09:01:27Z</time>
      </trkpt>
      <trkpt lat="48.63517" lon="6.21283">
        <ele>212</ele>
        <time>2020-08-16T09:01:28Z</time>
      </trkpt>
      <trkpt lat="48.63522" lon="6.21284">
        <ele>212</ele>
        <time>2020-08-16T09:01:29Z</time>
      </trkpt>
      <trkpt lat="48.63527" lon="6.21283">
        <ele>212</ele>
        <time>2020-08-16T09:01:30Z</time>
      </trkpt>
      <trkpt lat="48.63532" lon="6.21283">
        <ele>212</ele>
        <time>2020-08-16T09:01:31Z</time>
      </trkpt>
      <trkpt lat="48.63537" lon="6.21284">
        <ele>212</ele>
        <time>2020-08-16T09:01:32Z</time>
      </trkpt>
      <trkpt lat="48.63543" lon="6.21284">
        <ele>212</ele>
        <time>2020-08-16T09:01:33Z</time>
      </trkpt>
      <trkpt lat="48.63548" lon="6.21285">
        <ele>212</ele>
        <time>2020-08-16T09:01:34Z</time>
      </trkpt>
      <trkpt lat="48.63552" lon="6.21285">
        <ele>212</ele>
        <time>2020-08-16T09:01:35Z</time>
      </trkpt>
      <trkpt lat="48.63558" lon="6.21286">
        <ele>212</ele>
        <time>2020-08-16T09:01:36Z</time>
      </trkpt>
      <trkpt lat="48.63562" lon="6.21287">
        <ele>212</ele>
        <time>2020-08-16T09:01:37Z</time>
      </trkpt>
      <trkpt lat="48.63567" lon="6.21287">
        <ele>212</ele>
        <time>2020-08-16T09:01:38Z</time>
      </trkpt>
      <trkpt lat="48.63572" lon="6.21287">
        <ele>212</ele>
        <time>2020-08-16T09:01:39Z</time>
      </trkpt>
      <trkpt lat="48.63577" lon="6.21288">
        <ele>212</ele>
        <time>2020-08-16T09:01:40Z</time>
      </trkpt>
      <trkpt lat="48.63582" lon="6.21288">
        <ele>211</ele>
        <time>2020-08-16T09:01:41Z</time>
      </trkpt>
      <trkpt lat="48.63587" lon="6.21289">
        <ele>211</ele>
        <time>2020-08-16T09:01:42Z</time>
      </trkpt>
      <trkpt lat="48.63593" lon="6.2129">
        <ele>211</ele>
        <time>2020-08-16T09:01:43Z</time>
      </trkpt>
      <trkpt lat="48.63598" lon="6.2129">
        <ele>211</ele>
        <time>2020-08-16T09:01:44Z</time>
      </trkpt>
      <trkpt lat="48.63603" lon="6.21291">
        <ele>211</ele>
        <time>2020-08-16T09:01:45Z</time>
      </trkpt>
      <trkpt lat="48.63608" lon="6.21293">
        <ele>210</ele>
        <time>2020-08-16T09:01:46Z</time>
      </trkpt>
      <trkpt lat="48.63613" lon="6.21294">
        <ele>210</ele>
        <time>2020-08-16T09:01:47Z</time>
      </trkpt>
      <trkpt lat="48.63618" lon="6.21296">
        <ele>211</ele>
        <time>2020-08-16T09:01:48Z</time>
      </trkpt>
      <trkpt lat="48.63623" lon="6.21297">
        <ele>211</ele>
        <time>2020-08-16T09:01:49Z</time>
      </trkpt>
      <trkpt lat="48.63628" lon="6.21298">
        <ele>211</ele>
        <time>2020-08-16T09:01:50Z</time>
      </trkpt>
      <trkpt lat="48.63637" lon="6.21302">
        <ele>211</ele>
        <time>2020-08-16T09:01:52Z</time>
      </trkpt>
      <trkpt lat="48.63642" lon="6.21304">
        <ele>211</ele>
        <time>2020-08-16T09:01:53Z</time>
      </trkpt>
      <trkpt lat="48.63647" lon="6.21305">
        <ele>211</ele>
        <time>2020-08-16T09:01:54Z</time>
      </trkpt>
      <trkpt lat="48.63652" lon="6.21308">
        <ele>211</ele>
        <time>2020-08-16T09:01:55Z</time>
      </trkpt>
      <trkpt lat="48.63657" lon="6.21309">
        <ele>211</ele>
        <time>2020-08-16T09:01:56Z</time>
      </trkpt>
      <trkpt lat="48.63662" lon="6.21311">
        <ele>211</ele>
        <time>2020-08-16T09:01:57Z</time>
      </trkpt>
      <trkpt lat="48.63667" lon="6.21312">
        <ele>211</ele>
        <time>2020-08-16T09:01:58Z</time>
      </trkpt>
      <trkpt lat="48.63672" lon="6.21314">
        <ele>211</ele>
        <time>2020-08-16T09:01:59Z</time>
      </trkpt>
      <trkpt lat="48.63677" lon="6.21316">
        <ele>211</ele>
        <time>2020-08-16T09:02:00Z</time>
      </trkpt>
      <trkpt lat="48.63681" lon="6.21318">
        <ele>211</ele>
        <time>2020-08-16T09:02:01Z</time>
      </trkpt>
      <trkpt lat="48.63686" lon="6.2132">
        <ele>211</ele>
        <time>2020-08-16T09:02:02Z</time>
      </trkpt>
      <trkpt lat="48.63691" lon="6.21322">
        <ele>211</ele>
        <time>2020-08-16T09:02:03Z</time>
      </trkpt>
      <trkpt lat="48.63699" lon="6.21326">
        <ele>210</ele>
        <time>2020-08-16T09:02:05Z</time>
      </trkpt>
      <trkpt lat="48.63708" lon="6.21331">
        <ele>209</ele>
        <time>2020-08-16T09:02:07Z</time>
      </trkpt>
      <trkpt lat="48.63713" lon="6.21333">
        <ele>209</ele>
        <time>2020-08-16T09:02:08Z</time>
      </trkpt>
      <trkpt lat="48.63717" lon="6.21335">
        <ele>209</ele>
        <time>2020-08-16T09:02:09Z</time>
      </trkpt>
      <trkpt lat="48.63726" lon="6.2134">
        <ele>209</ele>
        <time>2020-08-16T09:02:11Z</time>
      </trkpt>
      <trkpt lat="48.6373" lon="6.21342">
        <ele>209</ele>
        <time>2020-08-16T09:02:12Z</time>
      </trkpt>
      <trkpt lat="48.63735" lon="6.21345">
        <ele>209</ele>
        <time>2020-08-16T09:02:13Z</time>
      </trkpt>
      <trkpt lat="48.63739" lon="6.21348">
        <ele>209</ele>
        <time>2020-08-16T09:02:14Z</time>
      </trkpt>
      <trkpt lat="48.63747" lon="6.21353">
        <ele>209</ele>
        <time>2020-08-16T09:02:16Z</time>
      </trkpt>
      <trkpt lat="48.63756" lon="6.21359">
        <ele>209</ele>
        <time>2020-08-16T09:02:18Z</time>
      </trkpt>
      <trkpt lat="48.63761" lon="6.21362">
        <ele>209</ele>
        <time>2020-08-16T09:02:19Z</time>
      </trkpt>
      <trkpt lat="48.63766" lon="6.21364">
        <ele>208</ele>
        <time>2020-08-16T09:02:20Z</time>
      </trkpt>
      <trkpt lat="48.63771" lon="6.21367">
        <ele>208</ele>
        <time>2020-08-16T09:02:21Z</time>
      </trkpt>
      <trkpt lat="48.63775" lon="6.2137">
        <ele>208</ele>
        <time>2020-08-16T09:02:22Z</time>
      </trkpt>
      <trkpt lat="48.6378" lon="6.21373">
        <ele>208</ele>
        <time>2020-08-16T09:02:23Z</time>
      </trkpt>
      <trkpt lat="48.63785" lon="6.21376">
        <ele>208</ele>
        <time>2020-08-16T09:02:24Z</time>
      </trkpt>
      <trkpt lat="48.63792" lon="6.21383">
        <ele>208</ele>
        <time>2020-08-16T09:02:26Z</time>
      </trkpt>
      <trkpt lat="48.63796" lon="6.21385">
        <ele>208</ele>
        <time>2020-08-16T09:02:27Z</time>
      </trkpt>
      <trkpt lat="48.63801" lon="6.21389">
        <ele>208</ele>
        <time>2020-08-16T09:02:28Z</time>
      </trkpt>
      <trkpt lat="48.63806" lon="6.21393">
        <ele>208</ele>
        <time>2020-08-16T09:02:29Z</time>
      </trkpt>
      <trkpt lat="48.6381" lon="6.21396">
        <ele>208</ele>
        <time>2020-08-16T09:02:30Z</time>
      </trkpt>
      <trkpt lat="48.63815" lon="6.21402">
        <ele>208</ele>
        <time>2020-08-16T09:02:31Z</time>
      </trkpt>
      <trkpt lat="48.63821" lon="6.21405">
        <ele>208</ele>
        <time>2020-08-16T09:02:32Z</time>
      </trkpt>
      <trkpt lat="48.63825" lon="6.2141">
        <ele>208</ele>
        <time>2020-08-16T09:02:33Z</time>
      </trkpt>
      <trkpt lat="48.63833" lon="6.21415">
        <ele>208</ele>
        <time>2020-08-16T09:02:35Z</time>
      </trkpt>
      <trkpt lat="48.63837" lon="6.2142">
        <ele>208</ele>
        <time>2020-08-16T09:02:36Z</time>
      </trkpt>
      <trkpt lat="48.63841" lon="6.21423">
        <ele>208</ele>
        <time>2020-08-16T09:02:37Z</time>
      </trkpt>
      <trkpt lat="48.63846" lon="6.21426">
        <ele>208</ele>
        <time>2020-08-16T09:02:38Z</time>
      </trkpt>
      <trkpt lat="48.6385" lon="6.2143">
        <ele>209</ele>
        <time>2020-08-16T09:02:39Z</time>
      </trkpt>
      <trkpt lat="48.63854" lon="6.21434">
        <ele>209</ele>
        <time>2020-08-16T09:02:40Z</time>
      </trkpt>
      <trkpt lat="48.63858" lon="6.21438">
        <ele>209</ele>
        <time>2020-08-16T09:02:41Z</time>
      </trkpt>
      <trkpt lat="48.63863" lon="6.2144">
        <ele>209</ele>
        <time>2020-08-16T09:02:42Z</time>
      </trkpt>
      <trkpt lat="48.63867" lon="6.21443">
        <ele>209</ele>
        <time>2020-08-16T09:02:43Z</time>
      </trkpt>
      <trkpt lat="48.63871" lon="6.21446">
        <ele>209</ele>
        <time>2020-08-16T09:02:44Z</time>
      </trkpt>
      <trkpt lat="48.63876" lon="6.21449">
        <ele>209</ele>
        <time>2020-08-16T09:02:45Z</time>
      </trkpt>
      <trkpt lat="48.6388" lon="6.21454">
        <ele>209</ele>
        <time>2020-08-16T09:02:46Z</time>
      </trkpt>
      <trkpt lat="48.63885" lon="6.21458">
        <ele>209</ele>
        <time>2020-08-16T09:02:47Z</time>
      </trkpt>
      <trkpt lat="48.63892" lon="6.21465">
        <ele>210</ele>
        <time>2020-08-16T09:02:49Z</time>
      </trkpt>
      <trkpt lat="48.63897" lon="6.21468">
        <ele>210</ele>
        <time>2020-08-16T09:02:50Z</time>
      </trkpt>
      <trkpt lat="48.63902" lon="6.21472">
        <ele>210</ele>
        <time>2020-08-16T09:02:51Z</time>
      </trkpt>
      <trkpt lat="48.63908" lon="6.21476">
        <ele>210</ele>
        <time>2020-08-16T09:02:53Z</time>
      </trkpt>
      <trkpt lat="48.63913" lon="6.2148">
        <ele>210</ele>
        <time>2020-08-16T09:02:54Z</time>
      </trkpt>
      <trkpt lat="48.63918" lon="6.21484">
        <ele>211</ele>
        <time>2020-08-16T09:02:55Z</time>
      </trkpt>
      <trkpt lat="48.63926" lon="6.21489">
        <ele>211</ele>
        <time>2020-08-16T09:02:57Z</time>
      </trkpt>
      <trkpt lat="48.6393" lon="6.21493">
        <ele>211</ele>
        <time>2020-08-16T09:02:58Z</time>
      </trkpt>
      <trkpt lat="48.63937" lon="6.21497">
        <ele>211</ele>
        <time>2020-08-16T09:03:00Z</time>
      </trkpt>
      <trkpt lat="48.63941" lon="6.21501">
        <ele>211</ele>
        <time>2020-08-16T09:03:01Z</time>
      </trkpt>
      <trkpt lat="48.63953" lon="6.21508">
        <ele>210</ele>
        <time>2020-08-16T09:03:04Z</time>
      </trkpt>
      <trkpt lat="48.63959" lon="6.21513">
        <ele>210</ele>
        <time>2020-08-16T09:03:05Z</time>
      </trkpt>
      <trkpt lat="48.63963" lon="6.21517">
        <ele>210</ele>
        <time>2020-08-16T09:03:06Z</time>
      </trkpt>
      <trkpt lat="48.63968" lon="6.21521">
        <ele>211</ele>
        <time>2020-08-16T09:03:07Z</time>
      </trkpt>
      <trkpt lat="48.63975" lon="6.21528">
        <ele>211</ele>
        <time>2020-08-16T09:03:09Z</time>
      </trkpt>
      <trkpt lat="48.63982" lon="6.21534">
        <ele>211</ele>
        <time>2020-08-16T09:03:11Z</time>
      </trkpt>
      <trkpt lat="48.63987" lon="6.21536">
        <ele>211</ele>
        <time>2020-08-16T09:03:12Z</time>
      </trkpt>
      <trkpt lat="48.63992" lon="6.2154">
        <ele>211</ele>
        <time>2020-08-16T09:03:13Z</time>
      </trkpt>
      <trkpt lat="48.63996" lon="6.21543">
        <ele>210</ele>
        <time>2020-08-16T09:03:14Z</time>
      </trkpt>
      <trkpt lat="48.64003" lon="6.2155">
        <ele>210</ele>
        <time>2020-08-16T09:03:16Z</time>
      </trkpt>
      <trkpt lat="48.64008" lon="6.21554">
        <ele>210</ele>
        <time>2020-08-16T09:03:17Z</time>
      </trkpt>
      <trkpt lat="48.64012" lon="6.21558">
        <ele>210</ele>
        <time>2020-08-16T09:03:18Z</time>
      </trkpt>
      <trkpt lat="48.64019" lon="6.21567">
        <ele>210</ele>
        <time>2020-08-16T09:03:20Z</time>
      </trkpt>
      <trkpt lat="48.64023" lon="6.21571">
        <ele>210</ele>
        <time>2020-08-16T09:03:21Z</time>
      </trkpt>
      <trkpt lat="48.64027" lon="6.21574">
        <ele>210</ele>
        <time>2020-08-16T09:03:22Z</time>
      </trkpt>
      <trkpt lat="48.64034" lon="6.21582">
        <ele>210</ele>
        <time>2020-08-16T09:03:24Z</time>
      </trkpt>
      <trkpt lat="48.64041" lon="6.2159">
        <ele>210</ele>
        <time>2020-08-16T09:03:26Z</time>
      </trkpt>
      <trkpt lat="48.64045" lon="6.21594">
        <ele>211</ele>
        <time>2020-08-16T09:03:27Z</time>
      </trkpt>
      <trkpt lat="48.64049" lon="6.21599">
        <ele>211</ele>
        <time>2020-08-16T09:03:28Z</time>
      </trkpt>
      <trkpt lat="48.64055" lon="6.21607">
        <ele>211</ele>
        <time>2020-08-16T09:03:30Z</time>
      </trkpt>
      <trkpt lat="48.64059" lon="6.21612">
        <ele>211</ele>
        <time>2020-08-16T09:03:31Z</time>
      </trkpt>
      <trkpt lat="48.64063" lon="6.21617">
        <ele>211</ele>
        <time>2020-08-16T09:03:32Z</time>
      </trkpt>
      <trkpt lat="48.64067" lon="6.21622">
        <ele>210</ele>
        <time>2020-08-16T09:03:33Z</time>
      </trkpt>
      <trkpt lat="48.64071" lon="6.21628">
        <ele>210</ele>
        <time>2020-08-16T09:03:34Z</time>
      </trkpt>
      <trkpt lat="48.64074" lon="6.21634">
        <ele>210</ele>
        <time>2020-08-16T09:03:35Z</time>
      </trkpt>
      <trkpt lat="48.64077" lon="6.21639">
        <ele>210</ele>
        <time>2020-08-16T09:03:36Z</time>
      </trkpt>
      <trkpt lat="48.6408" lon="6.21644">
        <ele>209</ele>
        <time>2020-08-16T09:03:37Z</time>
      </trkpt>
      <trkpt lat="48.64083" lon="6.21649">
        <ele>209</ele>
        <time>2020-08-16T09:03:38Z</time>
      </trkpt>
      <trkpt lat="48.64089" lon="6.2166">
        <ele>209</ele>
        <time>2020-08-16T09:03:40Z</time>
      </trkpt>
      <trkpt lat="48.64092" lon="6.21667">
        <ele>209</ele>
        <time>2020-08-16T09:03:41Z</time>
      </trkpt>
      <trkpt lat="48.64094" lon="6.21673">
        <ele>209</ele>
        <time>2020-08-16T09:03:42Z</time>
      </trkpt>
      <trkpt lat="48.64097" lon="6.21679">
        <ele>209</ele>
        <time>2020-08-16T09:03:43Z</time>
      </trkpt>
      <trkpt lat="48.64101" lon="6.21685">
        <ele>209</ele>
        <time>2020-08-16T09:03:44Z</time>
      </trkpt>
      <trkpt lat="48.64104" lon="6.21691">
        <ele>209</ele>
        <time>2020-08-16T09:03:45Z</time>
      </trkpt>
      <trkpt lat="48.64107" lon="6.21696">
        <ele>210</ele>
        <time>2020-08-16T09:03:46Z</time>
      </trkpt>
      <trkpt lat="48.64113" lon="6.21706">
        <ele>210</ele>
        <time>2020-08-16T09:03:48Z</time>
      </trkpt>
      <trkpt lat="48.64116" lon="6.21711">
        <ele>210</ele>
        <time>2020-08-16T09:03:49Z</time>
      </trkpt>
      <trkpt lat="48.64123" lon="6.21718">
        <ele>210</ele>
        <time>2020-08-16T09:03:51Z</time>
      </trkpt>
      <trkpt lat="48.64128" lon="6.21722">
        <ele>210</ele>
        <time>2020-08-16T09:03:53Z</time>
      </trkpt>
      <trkpt lat="48.64132" lon="6.21725">
        <ele>210</ele>
        <time>2020-08-16T09:03:55Z</time>
      </trkpt>
      <trkpt lat="48.64138" lon="6.21732">
        <ele>209</ele>
        <time>2020-08-16T09:03:57Z</time>
      </trkpt>
      <trkpt lat="48.64144" lon="6.21743">
        <ele>208</ele>
        <time>2020-08-16T09:03:59Z</time>
      </trkpt>
      <trkpt lat="48.64148" lon="6.21749">
        <ele>208</ele>
        <time>2020-08-16T09:04:00Z</time>
      </trkpt>
      <trkpt lat="48.64152" lon="6.21755">
        <ele>207</ele>
        <time>2020-08-16T09:04:01Z</time>
      </trkpt>
      <trkpt lat="48.64156" lon="6.21763">
        <ele>207</ele>
        <time>2020-08-16T09:04:02Z</time>
      </trkpt>
      <trkpt lat="48.6416" lon="6.2177">
        <ele>207</ele>
        <time>2020-08-16T09:04:03Z</time>
      </trkpt>
      <trkpt lat="48.64164" lon="6.21778">
        <ele>206</ele>
        <time>2020-08-16T09:04:04Z</time>
      </trkpt>
      <trkpt lat="48.64169" lon="6.21785">
        <ele>206</ele>
        <time>2020-08-16T09:04:05Z</time>
      </trkpt>
      <trkpt lat="48.64173" lon="6.21792">
        <ele>206</ele>
        <time>2020-08-16T09:04:06Z</time>
      </trkpt>
      <trkpt lat="48.64177" lon="6.21799">
        <ele>207</ele>
        <time>2020-08-16T09:04:07Z</time>
      </trkpt>
      <trkpt lat="48.64181" lon="6.21806">
        <ele>207</ele>
        <time>2020-08-16T09:04:08Z</time>
      </trkpt>
      <trkpt lat="48.64185" lon="6.21812">
        <ele>206</ele>
        <time>2020-08-16T09:04:09Z</time>
      </trkpt>
      <trkpt lat="48.6419" lon="6.21818">
        <ele>206</ele>
        <time>2020-08-16T09:04:10Z</time>
      </trkpt>
      <trkpt lat="48.64194" lon="6.21826">
        <ele>206</ele>
        <time>2020-08-16T09:04:11Z</time>
      </trkpt>
      <trkpt lat="48.64198" lon="6.21831">
        <ele>206</ele>
        <time>2020-08-16T09:04:12Z</time>
      </trkpt>
      <trkpt lat="48.64202" lon="6.21838">
        <ele>206</ele>
        <time>2020-08-16T09:04:13Z</time>
      </trkpt>
      <trkpt lat="48.64206" lon="6.21844">
        <ele>206</ele>
        <time>2020-08-16T09:04:14Z</time>
      </trkpt>
      <trkpt lat="48.64209" lon="6.21851">
        <ele>206</ele>
        <time>2020-08-16T09:04:15Z</time>
      </trkpt>
      <trkpt lat="48.64213" lon="6.21856">
        <ele>206</ele>
        <time>2020-08-16T09:04:16Z</time>
      </trkpt>
      <trkpt lat="48.64217" lon="6.21862">
        <ele>206</ele>
        <time>2020-08-16T09:04:17Z</time>
      </trkpt>
      <trkpt lat="48.64221" lon="6.21868">
        <ele>206</ele>
        <time>2020-08-16T09:04:18Z</time>
      </trkpt>
      <trkpt lat="48.64224" lon="6.21875">
        <ele>205</ele>
        <time>2020-08-16T09:04:19Z</time>
      </trkpt>
      <trkpt lat="48.64228" lon="6.21881">
        <ele>205</ele>
        <time>2020-08-16T09:04:20Z</time>
      </trkpt>
      <trkpt lat="48.64232" lon="6.21886">
        <ele>205</ele>
        <time>2020-08-16T09:04:21Z</time>
      </trkpt>
      <trkpt lat="48.64235" lon="6.21892">
        <ele>206</ele>
        <time>2020-08-16T09:04:22Z</time>
      </trkpt>
      <trkpt lat="48.64239" lon="6.21897">
        <ele>206</ele>
        <time>2020-08-16T09:04:23Z</time>
      </trkpt>
      <trkpt lat="48.64243" lon="6.21901">
        <ele>206</ele>
        <time>2020-08-16T09:04:24Z</time>
      </trkpt>
      <trkpt lat="48.64247" lon="6.21906">
        <ele>206</ele>
        <time>2020-08-16T09:04:25Z</time>
      </trkpt>
      <trkpt lat="48.64251" lon="6.21911">
        <ele>206</ele>
        <time>2020-08-16T09:04:26Z</time>
      </trkpt>
      <trkpt lat="48.64255" lon="6.21916">
        <ele>206</ele>
        <time>2020-08-16T09:04:27Z</time>
      </trkpt>
      <trkpt lat="48.64259" lon="6.21921">
        <ele>206</ele>
        <time>2020-08-16T09:04:28Z</time>
      </trkpt>
      <trkpt lat="48.64263" lon="6.21926">
        <ele>206</ele>
        <time>2020-08-16T09:04:29Z</time>
      </trkpt>
      <trkpt lat="48.64267" lon="6.21931">
        <ele>206</ele>
        <time>2020-08-16T09:04:30Z</time>
      </trkpt>
      <trkpt lat="48.64272" lon="6.21934">
        <ele>206</ele>
        <time>2020-08-16T09:04:31Z</time>
      </trkpt>
      <trkpt lat="48.64276" lon="6.21939">
        <ele>206</ele>
        <time>2020-08-16T09:04:32Z</time>
      </trkpt>
      <trkpt lat="48.6428" lon="6.21944">
        <ele>206</ele>
        <time>2020-08-16T09:04:33Z</time>
      </trkpt>
      <trkpt lat="48.64284" lon="6.21948">
        <ele>206</ele>
        <time>2020-08-16T09:04:34Z</time>
      </trkpt>
      <trkpt lat="48.64288" lon="6.21953">
        <ele>206</ele>
        <time>2020-08-16T09:04:35Z</time>
      </trkpt>
      <trkpt lat="48.64292" lon="6.21957">
        <ele>206</ele>
        <time>2020-08-16T09:04:36Z</time>
      </trkpt>
      <trkpt lat="48.64296" lon="6.21962">
        <ele>206</ele>
        <time>2020-08-16T09:04:37Z</time>
      </trkpt>
      <trkpt lat="48.643" lon="6.21967">
        <ele>206</ele>
        <time>2020-08-16T09:04:38Z</time>
      </trkpt>
      <trkpt lat="48.64306" lon="6.21971">
        <ele>206</ele>
        <time>2020-08-16T09:04:39Z</time>
      </trkpt>
      <trkpt lat="48.6431" lon="6.21975">
        <ele>206</ele>
        <time>2020-08-16T09:04:40Z</time>
      </trkpt>
      <trkpt lat="48.64317" lon="6.21983">
        <ele>206</ele>
        <time>2020-08-16T09:04:42Z</time>
      </trkpt>
      <trkpt lat="48.64321" lon="6.21988">
        <ele>207</ele>
        <time>2020-08-16T09:04:43Z</time>
      </trkpt>
      <trkpt lat="48.64325" lon="6.21992">
        <ele>207</ele>
        <time>2020-08-16T09:04:44Z</time>
      </trkpt>
      <trkpt lat="48.64329" lon="6.21996">
        <ele>207</ele>
        <time>2020-08-16T09:04:45Z</time>
      </trkpt>
      <trkpt lat="48.64334" lon="6.22001">
        <ele>207</ele>
        <time>2020-08-16T09:04:46Z</time>
      </trkpt>
      <trkpt lat="48.64338" lon="6.22005">
        <ele>207</ele>
        <time>2020-08-16T09:04:47Z</time>
      </trkpt>
      <trkpt lat="48.64343" lon="6.22009">
        <ele>207</ele>
        <time>2020-08-16T09:04:48Z</time>
      </trkpt>
      <trkpt lat="48.64348" lon="6.22012">
        <ele>207</ele>
        <time>2020-08-16T09:04:49Z</time>
      </trkpt>
      <trkpt lat="48.64352" lon="6.22015">
        <ele>207</ele>
        <time>2020-08-16T09:04:50Z</time>
      </trkpt>
      <trkpt lat="48.6436" lon="6.22023">
        <ele>207</ele>
        <time>2020-08-16T09:04:52Z</time>
      </trkpt>
      <trkpt lat="48.64364" lon="6.22028">
        <ele>207</ele>
        <time>2020-08-16T09:04:53Z</time>
      </trkpt>
      <trkpt lat="48.64369" lon="6.22032">
        <ele>207</ele>
        <time>2020-08-16T09:04:54Z</time>
      </trkpt>
      <trkpt lat="48.64373" lon="6.22036">
        <ele>207</ele>
        <time>2020-08-16T09:04:55Z</time>
      </trkpt>
      <trkpt lat="48.6438" lon="6.22044">
        <ele>207</ele>
        <time>2020-08-16T09:04:57Z</time>
      </trkpt>
      <trkpt lat="48.64385" lon="6.22048">
        <ele>206</ele>
        <time>2020-08-16T09:04:58Z</time>
      </trkpt>
      <trkpt lat="48.64391" lon="6.22053">
        <ele>207</ele>
        <time>2020-08-16T09:04:59Z</time>
      </trkpt>
      <trkpt lat="48.64394" lon="6.22058">
        <ele>207</ele>
        <time>2020-08-16T09:05:00Z</time>
      </trkpt>
      <trkpt lat="48.64399" lon="6.22062">
        <ele>206</ele>
        <time>2020-08-16T09:05:01Z</time>
      </trkpt>
      <trkpt lat="48.64404" lon="6.22066">
        <ele>206</ele>
        <time>2020-08-16T09:05:02Z</time>
      </trkpt>
      <trkpt lat="48.64409" lon="6.2207">
        <ele>206</ele>
        <time>2020-08-16T09:05:03Z</time>
      </trkpt>
      <trkpt lat="48.64414" lon="6.22074">
        <ele>206</ele>
        <time>2020-08-16T09:05:04Z</time>
      </trkpt>
      <trkpt lat="48.64418" lon="6.22078">
        <ele>207</ele>
        <time>2020-08-16T09:05:05Z</time>
      </trkpt>
      <trkpt lat="48.64421" lon="6.22083">
        <ele>207</ele>
        <time>2020-08-16T09:05:06Z</time>
      </trkpt>
      <trkpt lat="48.64425" lon="6.22086">
        <ele>207</ele>
        <time>2020-08-16T09:05:07Z</time>
      </trkpt>
      <trkpt lat="48.6443" lon="6.2209">
        <ele>207</ele>
        <time>2020-08-16T09:05:08Z</time>
      </trkpt>
      <trkpt lat="48.64438" lon="6.22097">
        <ele>207</ele>
        <time>2020-08-16T09:05:10Z</time>
      </trkpt>
      <trkpt lat="48.64442" lon="6.22101">
        <ele>207</ele>
        <time>2020-08-16T09:05:11Z</time>
      </trkpt>
      <trkpt lat="48.64447" lon="6.22104">
        <ele>207</ele>
        <time>2020-08-16T09:05:12Z</time>
      </trkpt>
      <trkpt lat="48.64451" lon="6.22109">
        <ele>207</ele>
        <time>2020-08-16T09:05:13Z</time>
      </trkpt>
      <trkpt lat="48.64456" lon="6.22112">
        <ele>207</ele>
        <time>2020-08-16T09:05:14Z</time>
      </trkpt>
      <trkpt lat="48.64461" lon="6.22116">
        <ele>207</ele>
        <time>2020-08-16T09:05:15Z</time>
      </trkpt>
      <trkpt lat="48.64466" lon="6.2212">
        <ele>207</ele>
        <time>2020-08-16T09:05:16Z</time>
      </trkpt>
      <trkpt lat="48.6447" lon="6.22125">
        <ele>207</ele>
        <time>2020-08-16T09:05:17Z</time>
      </trkpt>
      <trkpt lat="48.64475" lon="6.22129">
        <ele>207</ele>
        <time>2020-08-16T09:05:18Z</time>
      </trkpt>
      <trkpt lat="48.64479" lon="6.22132">
        <ele>207</ele>
        <time>2020-08-16T09:05:19Z</time>
      </trkpt>
      <trkpt lat="48.64483" lon="6.22137">
        <ele>207</ele>
        <time>2020-08-16T09:05:20Z</time>
      </trkpt>
      <trkpt lat="48.64487" lon="6.22141">
        <ele>207</ele>
        <time>2020-08-16T09:05:21Z</time>
      </trkpt>
      <trkpt lat="48.64491" lon="6.22146">
        <ele>207</ele>
        <time>2020-08-16T09:05:22Z</time>
      </trkpt>
      <trkpt lat="48.645" lon="6.22152">
        <ele>207</ele>
        <time>2020-08-16T09:05:24Z</time>
      </trkpt>
      <trkpt lat="48.64504" lon="6.22156">
        <ele>207</ele>
        <time>2020-08-16T09:05:25Z</time>
      </trkpt>
      <trkpt lat="48.64509" lon="6.22161">
        <ele>207</ele>
        <time>2020-08-16T09:05:26Z</time>
      </trkpt>
      <trkpt lat="48.64516" lon="6.2217">
        <ele>208</ele>
        <time>2020-08-16T09:05:28Z</time>
      </trkpt>
      <trkpt lat="48.6452" lon="6.22174">
        <ele>208</ele>
        <time>2020-08-16T09:05:29Z</time>
      </trkpt>
      <trkpt lat="48.64525" lon="6.22177">
        <ele>208</ele>
        <time>2020-08-16T09:05:30Z</time>
      </trkpt>
      <trkpt lat="48.64529" lon="6.2218">
        <ele>208</ele>
        <time>2020-08-16T09:05:31Z</time>
      </trkpt>
      <trkpt lat="48.64533" lon="6.22185">
        <ele>208</ele>
        <time>2020-08-16T09:05:32Z</time>
      </trkpt>
      <trkpt lat="48.64537" lon="6.22189">
        <ele>208</ele>
        <time>2020-08-16T09:05:33Z</time>
      </trkpt>
      <trkpt lat="48.64542" lon="6.22192">
        <ele>208</ele>
        <time>2020-08-16T09:05:34Z</time>
      </trkpt>
      <trkpt lat="48.64547" lon="6.22196">
        <ele>208</ele>
        <time>2020-08-16T09:05:35Z</time>
      </trkpt>
      <trkpt lat="48.64552" lon="6.22198">
        <ele>208</ele>
        <time>2020-08-16T09:05:36Z</time>
      </trkpt>
      <trkpt lat="48.64557" lon="6.22202">
        <ele>208</ele>
        <time>2020-08-16T09:05:37Z</time>
      </trkpt>
      <trkpt lat="48.64565" lon="6.22209">
        <ele>208</ele>
        <time>2020-08-16T09:05:39Z</time>
      </trkpt>
      <trkpt lat="48.64571" lon="6.22212">
        <ele>209</ele>
        <time>2020-08-16T09:05:40Z</time>
      </trkpt>
      <trkpt lat="48.64575" lon="6.22213">
        <ele>208</ele>
        <time>2020-08-16T09:05:41Z</time>
      </trkpt>
      <trkpt lat="48.64584" lon="6.22216">
        <ele>208</ele>
        <time>2020-08-16T09:05:43Z</time>
      </trkpt>
      <trkpt lat="48.64588" lon="6.22219">
        <ele>209</ele>
        <time>2020-08-16T09:05:44Z</time>
      </trkpt>
      <trkpt lat="48.64593" lon="6.2222">
        <ele>208</ele>
        <time>2020-08-16T09:05:45Z</time>
      </trkpt>
      <trkpt lat="48.64602" lon="6.22223">
        <ele>208</ele>
        <time>2020-08-16T09:05:47Z</time>
      </trkpt>
      <trkpt lat="48.64607" lon="6.22224">
        <ele>208</ele>
        <time>2020-08-16T09:05:48Z</time>
      </trkpt>
      <trkpt lat="48.64613" lon="6.22226">
        <ele>208</ele>
        <time>2020-08-16T09:05:49Z</time>
      </trkpt>
      <trkpt lat="48.64618" lon="6.22226">
        <ele>208</ele>
        <time>2020-08-16T09:05:50Z</time>
      </trkpt>
      <trkpt lat="48.64623" lon="6.22227">
        <ele>207</ele>
        <time>2020-08-16T09:05:51Z</time>
      </trkpt>
      <trkpt lat="48.64628" lon="6.22227">
        <ele>207</ele>
        <time>2020-08-16T09:05:52Z</time>
      </trkpt>
      <trkpt lat="48.64633" lon="6.22228">
        <ele>207</ele>
        <time>2020-08-16T09:05:53Z</time>
      </trkpt>
      <trkpt lat="48.64638" lon="6.22229">
        <ele>207</ele>
        <time>2020-08-16T09:05:54Z</time>
      </trkpt>
      <trkpt lat="48.64643" lon="6.2223">
        <ele>207</ele>
        <time>2020-08-16T09:05:55Z</time>
      </trkpt>
      <trkpt lat="48.64648" lon="6.2223">
        <ele>207</ele>
        <time>2020-08-16T09:05:56Z</time>
      </trkpt>
      <trkpt lat="48.64653" lon="6.2223">
        <ele>207</ele>
        <time>2020-08-16T09:05:57Z</time>
      </trkpt>
      <trkpt lat="48.64658" lon="6.22229">
        <ele>207</ele>
        <time>2020-08-16T09:05:58Z</time>
      </trkpt>
      <trkpt lat="48.64663" lon="6.2223">
        <ele>208</ele>
        <time>2020-08-16T09:05:59Z</time>
      </trkpt>
      <trkpt lat="48.64668" lon="6.2223">
        <ele>208</ele>
        <time>2020-08-16T09:06:00Z</time>
      </trkpt>
      <trkpt lat="48.64673" lon="6.22229">
        <ele>208</ele>
        <time>2020-08-16T09:06:01Z</time>
      </trkpt>
      <trkpt lat="48.64677" lon="6.22229">
        <ele>208</ele>
        <time>2020-08-16T09:06:02Z</time>
      </trkpt>
      <trkpt lat="48.64682" lon="6.22228">
        <ele>208</ele>
        <time>2020-08-16T09:06:03Z</time>
      </trkpt>
      <trkpt lat="48.64688" lon="6.22228">
        <ele>208</ele>
        <time>2020-08-16T09:06:04Z</time>
      </trkpt>
      <trkpt lat="48.64693" lon="6.22227">
        <ele>208</ele>
        <time>2020-08-16T09:06:05Z</time>
      </trkpt>
      <trkpt lat="48.64698" lon="6.22226">
        <ele>208</ele>
        <time>2020-08-16T09:06:06Z</time>
      </trkpt>
      <trkpt lat="48.64703" lon="6.22225">
        <ele>208</ele>
        <time>2020-08-16T09:06:07Z</time>
      </trkpt>
      <trkpt lat="48.64708" lon="6.22224">
        <ele>208</ele>
        <time>2020-08-16T09:06:08Z</time>
      </trkpt>
      <trkpt lat="48.64713" lon="6.22224">
        <ele>209</ele>
        <time>2020-08-16T09:06:09Z</time>
      </trkpt>
      <trkpt lat="48.64718" lon="6.22222">
        <ele>209</ele>
        <time>2020-08-16T09:06:10Z</time>
      </trkpt>
      <trkpt lat="48.64723" lon="6.22221">
        <ele>209</ele>
        <time>2020-08-16T09:06:11Z</time>
      </trkpt>
      <trkpt lat="48.64728" lon="6.22219">
        <ele>209</ele>
        <time>2020-08-16T09:06:12Z</time>
      </trkpt>
      <trkpt lat="48.64733" lon="6.22219">
        <ele>209</ele>
        <time>2020-08-16T09:06:13Z</time>
      </trkpt>
      <trkpt lat="48.64739" lon="6.22217">
        <ele>209</ele>
        <time>2020-08-16T09:06:14Z</time>
      </trkpt>
      <trkpt lat="48.64744" lon="6.22216">
        <ele>209</ele>
        <time>2020-08-16T09:06:15Z</time>
      </trkpt>
      <trkpt lat="48.64749" lon="6.22214">
        <ele>209</ele>
        <time>2020-08-16T09:06:16Z</time>
      </trkpt>
      <trkpt lat="48.64754" lon="6.22212">
        <ele>209</ele>
        <time>2020-08-16T09:06:17Z</time>
      </trkpt>
      <trkpt lat="48.64759" lon="6.22211">
        <ele>210</ele>
        <time>2020-08-16T09:06:18Z</time>
      </trkpt>
      <trkpt lat="48.64764" lon="6.22209">
        <ele>210</ele>
        <time>2020-08-16T09:06:19Z</time>
      </trkpt>
      <trkpt lat="48.6477" lon="6.22207">
        <ele>210</ele>
        <time>2020-08-16T09:06:20Z</time>
      </trkpt>
      <trkpt lat="48.64775" lon="6.22204">
        <ele>210</ele>
        <time>2020-08-16T09:06:21Z</time>
      </trkpt>
      <trkpt lat="48.64779" lon="6.22202">
        <ele>210</ele>
        <time>2020-08-16T09:06:22Z</time>
      </trkpt>
      <trkpt lat="48.64788" lon="6.22197">
        <ele>209</ele>
        <time>2020-08-16T09:06:24Z</time>
      </trkpt>
      <trkpt lat="48.64793" lon="6.22194">
        <ele>209</ele>
        <time>2020-08-16T09:06:25Z</time>
      </trkpt>
      <trkpt lat="48.64798" lon="6.22192">
        <ele>209</ele>
        <time>2020-08-16T09:06:26Z</time>
      </trkpt>
      <trkpt lat="48.64803" lon="6.22189">
        <ele>209</ele>
        <time>2020-08-16T09:06:27Z</time>
      </trkpt>
      <trkpt lat="48.64808" lon="6.22186">
        <ele>209</ele>
        <time>2020-08-16T09:06:28Z</time>
      </trkpt>
      <trkpt lat="48.64812" lon="6.22183">
        <ele>209</ele>
        <time>2020-08-16T09:06:29Z</time>
      </trkpt>
      <trkpt lat="48.64817" lon="6.2218">
        <ele>209</ele>
        <time>2020-08-16T09:06:30Z</time>
      </trkpt>
      <trkpt lat="48.64822" lon="6.22177">
        <ele>209</ele>
        <time>2020-08-16T09:06:31Z</time>
      </trkpt>
      <trkpt lat="48.64827" lon="6.22173">
        <ele>209</ele>
        <time>2020-08-16T09:06:32Z</time>
      </trkpt>
      <trkpt lat="48.64832" lon="6.22171">
        <ele>209</ele>
        <time>2020-08-16T09:06:33Z</time>
      </trkpt>
      <trkpt lat="48.64837" lon="6.22168">
        <ele>209</ele>
        <time>2020-08-16T09:06:34Z</time>
      </trkpt>
      <trkpt lat="48.64842" lon="6.22164">
        <ele>209</ele>
        <time>2020-08-16T09:06:35Z</time>
      </trkpt>
      <trkpt lat="48.64846" lon="6.22161">
        <ele>209</ele>
        <time>2020-08-16T09:06:36Z</time>
      </trkpt>
      <trkpt lat="48.64851" lon="6.22157">
        <ele>209</ele>
        <time>2020-08-16T09:06:37Z</time>
      </trkpt>
      <trkpt lat="48.64856" lon="6.22153">
        <ele>209</ele>
        <time>2020-08-16T09:06:38Z</time>
      </trkpt>
      <trkpt lat="48.6486" lon="6.2215">
        <ele>209</ele>
        <time>2020-08-16T09:06:39Z</time>
      </trkpt>
      <trkpt lat="48.64865" lon="6.22146">
        <ele>209</ele>
        <time>2020-08-16T09:06:40Z</time>
      </trkpt>
      <trkpt lat="48.64869" lon="6.22143">
        <ele>210</ele>
        <time>2020-08-16T09:06:41Z</time>
      </trkpt>
      <trkpt lat="48.64877" lon="6.22136">
        <ele>210</ele>
        <time>2020-08-16T09:06:43Z</time>
      </trkpt>
      <trkpt lat="48.64882" lon="6.22132">
        <ele>210</ele>
        <time>2020-08-16T09:06:44Z</time>
      </trkpt>
      <trkpt lat="48.64886" lon="6.22128">
        <ele>210</ele>
        <time>2020-08-16T09:06:45Z</time>
      </trkpt>
      <trkpt lat="48.6489" lon="6.22124">
        <ele>210</ele>
        <time>2020-08-16T09:06:46Z</time>
      </trkpt>
      <trkpt lat="48.64894" lon="6.22119">
        <ele>209</ele>
        <time>2020-08-16T09:06:47Z</time>
      </trkpt>
      <trkpt lat="48.64899" lon="6.22116">
        <ele>209</ele>
        <time>2020-08-16T09:06:48Z</time>
      </trkpt>
      <trkpt lat="48.64903" lon="6.22111">
        <ele>209</ele>
        <time>2020-08-16T09:06:49Z</time>
      </trkpt>
      <trkpt lat="48.64908" lon="6.22107">
        <ele>209</ele>
        <time>2020-08-16T09:06:50Z</time>
      </trkpt>
      <trkpt lat="48.64912" lon="6.22104">
        <ele>209</ele>
        <time>2020-08-16T09:06:51Z</time>
      </trkpt>
      <trkpt lat="48.64916" lon="6.221">
        <ele>209</ele>
        <time>2020-08-16T09:06:52Z</time>
      </trkpt>
      <trkpt lat="48.6492" lon="6.22096">
        <ele>209</ele>
        <time>2020-08-16T09:06:53Z</time>
      </trkpt>
      <trkpt lat="48.64924" lon="6.22092">
        <ele>209</ele>
        <time>2020-08-16T09:06:54Z</time>
      </trkpt>
      <trkpt lat="48.64929" lon="6.22088">
        <ele>210</ele>
        <time>2020-08-16T09:06:55Z</time>
      </trkpt>
      <trkpt lat="48.64933" lon="6.22084">
        <ele>210</ele>
        <time>2020-08-16T09:06:56Z</time>
      </trkpt>
      <trkpt lat="48.64938" lon="6.2208">
        <ele>210</ele>
        <time>2020-08-16T09:06:57Z</time>
      </trkpt>
      <trkpt lat="48.64943" lon="6.22076">
        <ele>210</ele>
        <time>2020-08-16T09:06:58Z</time>
      </trkpt>
      <trkpt lat="48.64948" lon="6.22072">
        <ele>210</ele>
        <time>2020-08-16T09:06:59Z</time>
      </trkpt>
      <trkpt lat="48.64953" lon="6.22069">
        <ele>210</ele>
        <time>2020-08-16T09:07:00Z</time>
      </trkpt>
      <trkpt lat="48.64958" lon="6.22065">
        <ele>210</ele>
        <time>2020-08-16T09:07:01Z</time>
      </trkpt>
      <trkpt lat="48.64962" lon="6.22061">
        <ele>210</ele>
        <time>2020-08-16T09:07:02Z</time>
      </trkpt>
      <trkpt lat="48.64967" lon="6.22057">
        <ele>210</ele>
        <time>2020-08-16T09:07:03Z</time>
      </trkpt>
      <trkpt lat="48.64971" lon="6.22053">
        <ele>210</ele>
        <time>2020-08-16T09:07:04Z</time>
      </trkpt>
      <trkpt lat="48.64976" lon="6.2205">
        <ele>209</ele>
        <time>2020-08-16T09:07:05Z</time>
      </trkpt>
      <trkpt lat="48.64981" lon="6.22047">
        <ele>209</ele>
        <time>2020-08-16T09:07:06Z</time>
      </trkpt>
      <trkpt lat="48.64986" lon="6.22043">
        <ele>209</ele>
        <time>2020-08-16T09:07:07Z</time>
      </trkpt>
      <trkpt lat="48.64991" lon="6.2204">
        <ele>209</ele>
        <time>2020-08-16T09:07:08Z</time>
      </trkpt>
      <trkpt lat="48.64996" lon="6.22036">
        <ele>209</ele>
        <time>2020-08-16T09:07:09Z</time>
      </trkpt>
      <trkpt lat="48.65" lon="6.22033">
        <ele>209</ele>
        <time>2020-08-16T09:07:10Z</time>
      </trkpt>
      <trkpt lat="48.65005" lon="6.22029">
        <ele>209</ele>
        <time>2020-08-16T09:07:11Z</time>
      </trkpt>
      <trkpt lat="48.6501" lon="6.22027">
        <ele>209</ele>
        <time>2020-08-16T09:07:12Z</time>
      </trkpt>
      <trkpt lat="48.65015" lon="6.22024">
        <ele>209</ele>
        <time>2020-08-16T09:07:13Z</time>
      </trkpt>
      <trkpt lat="48.6502" lon="6.22022">
        <ele>209</ele>
        <time>2020-08-16T09:07:14Z</time>
      </trkpt>
      <trkpt lat="48.65025" lon="6.22019">
        <ele>209</ele>
        <time>2020-08-16T09:07:15Z</time>
      </trkpt>
      <trkpt lat="48.6503" lon="6.22017">
        <ele>209</ele>
        <time>2020-08-16T09:07:16Z</time>
      </trkpt>
      <trkpt lat="48.65035" lon="6.22015">
        <ele>209</ele>
        <time>2020-08-16T09:07:17Z</time>
      </trkpt>
      <trkpt lat="48.65045" lon="6.22011">
        <ele>209</ele>
        <time>2020-08-16T09:07:19Z</time>
      </trkpt>
      <trkpt lat="48.65049" lon="6.22009">
        <ele>209</ele>
        <time>2020-08-16T09:07:20Z</time>
      </trkpt>
      <trkpt lat="48.65055" lon="6.22008">
        <ele>209</ele>
        <time>2020-08-16T09:07:21Z</time>
      </trkpt>
      <trkpt lat="48.6506" lon="6.22006">
        <ele>209</ele>
        <time>2020-08-16T09:07:22Z</time>
      </trkpt>
      <trkpt lat="48.65065" lon="6.22005">
        <ele>210</ele>
        <time>2020-08-16T09:07:23Z</time>
      </trkpt>
      <trkpt lat="48.6507" lon="6.22004">
        <ele>210</ele>
        <time>2020-08-16T09:07:24Z</time>
      </trkpt>
      <trkpt lat="48.65076" lon="6.22002">
        <ele>210</ele>
        <time>2020-08-16T09:07:25Z</time>
      </trkpt>
      <trkpt lat="48.65081" lon="6.22001">
        <ele>210</ele>
        <time>2020-08-16T09:07:26Z</time>
      </trkpt>
      <trkpt lat="48.65086" lon="6.22001">
        <ele>209</ele>
        <time>2020-08-16T09:07:27Z</time>
      </trkpt>
      <trkpt lat="48.65091" lon="6.22">
        <ele>209</ele>
        <time>2020-08-16T09:07:28Z</time>
      </trkpt>
      <trkpt lat="48.65097" lon="6.22">
        <ele>209</ele>
        <time>2020-08-16T09:07:29Z</time>
      </trkpt>
      <trkpt lat="48.65102" lon="6.22">
        <ele>209</ele>
        <time>2020-08-16T09:07:30Z</time>
      </trkpt>
      <trkpt lat="48.65108" lon="6.22">
        <ele>209</ele>
        <time>2020-08-16T09:07:31Z</time>
      </trkpt>
      <trkpt lat="48.65113" lon="6.22">
        <ele>209</ele>
        <time>2020-08-16T09:07:32Z</time>
      </trkpt>
      <trkpt lat="48.65118" lon="6.22001">
        <ele>209</ele>
        <time>2020-08-16T09:07:33Z</time>
      </trkpt>
      <trkpt lat="48.65124" lon="6.22001">
        <ele>209</ele>
        <time>2020-08-16T09:07:34Z</time>
      </trkpt>
      <trkpt lat="48.65133" lon="6.22002">
        <ele>209</ele>
        <time>2020-08-16T09:07:36Z</time>
      </trkpt>
      <trkpt lat="48.65138" lon="6.22003">
        <ele>209</ele>
        <time>2020-08-16T09:07:37Z</time>
      </trkpt>
      <trkpt lat="48.65143" lon="6.22003">
        <ele>208</ele>
        <time>2020-08-16T09:07:38Z</time>
      </trkpt>
      <trkpt lat="48.65148" lon="6.22004">
        <ele>208</ele>
        <time>2020-08-16T09:07:39Z</time>
      </trkpt>
      <trkpt lat="48.65157" lon="6.22006">
        <ele>208</ele>
        <time>2020-08-16T09:07:41Z</time>
      </trkpt>
      <trkpt lat="48.65163" lon="6.22008">
        <ele>208</ele>
        <time>2020-08-16T09:07:42Z</time>
      </trkpt>
      <trkpt lat="48.65168" lon="6.2201">
        <ele>208</ele>
        <time>2020-08-16T09:07:43Z</time>
      </trkpt>
      <trkpt lat="48.65173" lon="6.22011">
        <ele>208</ele>
        <time>2020-08-16T09:07:44Z</time>
      </trkpt>
      <trkpt lat="48.65178" lon="6.22013">
        <ele>208</ele>
        <time>2020-08-16T09:07:45Z</time>
      </trkpt>
      <trkpt lat="48.65183" lon="6.22015">
        <ele>208</ele>
        <time>2020-08-16T09:07:46Z</time>
      </trkpt>
      <trkpt lat="48.65188" lon="6.22018">
        <ele>208</ele>
        <time>2020-08-16T09:07:47Z</time>
      </trkpt>
      <trkpt lat="48.65193" lon="6.22022">
        <ele>208</ele>
        <time>2020-08-16T09:07:48Z</time>
      </trkpt>
      <trkpt lat="48.65198" lon="6.22024">
        <ele>208</ele>
        <time>2020-08-16T09:07:49Z</time>
      </trkpt>
      <trkpt lat="48.65203" lon="6.22026">
        <ele>208</ele>
        <time>2020-08-16T09:07:50Z</time>
      </trkpt>
      <trkpt lat="48.65207" lon="6.22029">
        <ele>208</ele>
        <time>2020-08-16T09:07:51Z</time>
      </trkpt>
      <trkpt lat="48.65212" lon="6.22032">
        <ele>208</ele>
        <time>2020-08-16T09:07:52Z</time>
      </trkpt>
      <trkpt lat="48.65217" lon="6.22035">
        <ele>208</ele>
        <time>2020-08-16T09:07:53Z</time>
      </trkpt>
      <trkpt lat="48.65222" lon="6.22038">
        <ele>209</ele>
        <time>2020-08-16T09:07:54Z</time>
      </trkpt>
      <trkpt lat="48.65226" lon="6.22041">
        <ele>209</ele>
        <time>2020-08-16T09:07:55Z</time>
      </trkpt>
      <trkpt lat="48.65231" lon="6.22044">
        <ele>209</ele>
        <time>2020-08-16T09:07:56Z</time>
      </trkpt>
      <trkpt lat="48.65236" lon="6.22047">
        <ele>209</ele>
        <time>2020-08-16T09:07:57Z</time>
      </trkpt>
      <trkpt lat="48.65241" lon="6.2205">
        <ele>209</ele>
        <time>2020-08-16T09:07:58Z</time>
      </trkpt>
      <trkpt lat="48.65245" lon="6.22053">
        <ele>209</ele>
        <time>2020-08-16T09:07:59Z</time>
      </trkpt>
      <trkpt lat="48.65249" lon="6.22057">
        <ele>209</ele>
        <time>2020-08-16T09:08:00Z</time>
      </trkpt>
      <trkpt lat="48.65253" lon="6.22061">
        <ele>209</ele>
        <time>2020-08-16T09:08:01Z</time>
      </trkpt>
      <trkpt lat="48.65258" lon="6.22064">
        <ele>209</ele>
        <time>2020-08-16T09:08:02Z</time>
      </trkpt>
      <trkpt lat="48.65269" lon="6.22071">
        <ele>208</ele>
        <time>2020-08-16T09:08:05Z</time>
      </trkpt>
      <trkpt lat="48.65274" lon="6.22073">
        <ele>208</ele>
        <time>2020-08-16T09:08:06Z</time>
      </trkpt>
      <trkpt lat="48.65278" lon="6.22077">
        <ele>208</ele>
        <time>2020-08-16T09:08:07Z</time>
      </trkpt>
      <trkpt lat="48.65283" lon="6.22082">
        <ele>209</ele>
        <time>2020-08-16T09:08:08Z</time>
      </trkpt>
      <trkpt lat="48.65287" lon="6.22086">
        <ele>209</ele>
        <time>2020-08-16T09:08:09Z</time>
      </trkpt>
      <trkpt lat="48.65292" lon="6.22089">
        <ele>209</ele>
        <time>2020-08-16T09:08:10Z</time>
      </trkpt>
      <trkpt lat="48.65297" lon="6.22094">
        <ele>209</ele>
        <time>2020-08-16T09:08:11Z</time>
      </trkpt>
      <trkpt lat="48.65305" lon="6.221">
        <ele>209</ele>
        <time>2020-08-16T09:08:13Z</time>
      </trkpt>
      <trkpt lat="48.65313" lon="6.22105">
        <ele>209</ele>
        <time>2020-08-16T09:08:15Z</time>
      </trkpt>
      <trkpt lat="48.65321" lon="6.22112">
        <ele>209</ele>
        <time>2020-08-16T09:08:17Z</time>
      </trkpt>
      <trkpt lat="48.6533" lon="6.22119">
        <ele>209</ele>
        <time>2020-08-16T09:08:19Z</time>
      </trkpt>
      <trkpt lat="48.65335" lon="6.22121">
        <ele>208</ele>
        <time>2020-08-16T09:08:20Z</time>
      </trkpt>
      <trkpt lat="48.6534" lon="6.22126">
        <ele>208</ele>
        <time>2020-08-16T09:08:21Z</time>
      </trkpt>
      <trkpt lat="48.65346" lon="6.2213">
        <ele>208</ele>
        <time>2020-08-16T09:08:22Z</time>
      </trkpt>
      <trkpt lat="48.65351" lon="6.22134">
        <ele>208</ele>
        <time>2020-08-16T09:08:23Z</time>
      </trkpt>
      <trkpt lat="48.6536" lon="6.22139">
        <ele>208</ele>
        <time>2020-08-16T09:08:25Z</time>
      </trkpt>
      <trkpt lat="48.65365" lon="6.22143">
        <ele>208</ele>
        <time>2020-08-16T09:08:26Z</time>
      </trkpt>
      <trkpt lat="48.65371" lon="6.22147">
        <ele>208</ele>
        <time>2020-08-16T09:08:27Z</time>
      </trkpt>
      <trkpt lat="48.65375" lon="6.2215">
        <ele>208</ele>
        <time>2020-08-16T09:08:28Z</time>
      </trkpt>
      <trkpt lat="48.65379" lon="6.22155">
        <ele>208</ele>
        <time>2020-08-16T09:08:29Z</time>
      </trkpt>
      <trkpt lat="48.65384" lon="6.2216">
        <ele>208</ele>
        <time>2020-08-16T09:08:30Z</time>
      </trkpt>
      <trkpt lat="48.65392" lon="6.22166">
        <ele>208</ele>
        <time>2020-08-16T09:08:32Z</time>
      </trkpt>
      <trkpt lat="48.65397" lon="6.22169">
        <ele>207</ele>
        <time>2020-08-16T09:08:33Z</time>
      </trkpt>
      <trkpt lat="48.65402" lon="6.22172">
        <ele>207</ele>
        <time>2020-08-16T09:08:34Z</time>
      </trkpt>
      <trkpt lat="48.65407" lon="6.22177">
        <ele>207</ele>
        <time>2020-08-16T09:08:35Z</time>
      </trkpt>
      <trkpt lat="48.65413" lon="6.22185">
        <ele>208</ele>
        <time>2020-08-16T09:08:37Z</time>
      </trkpt>
      <trkpt lat="48.65417" lon="6.22189">
        <ele>208</ele>
        <time>2020-08-16T09:08:38Z</time>
      </trkpt>
      <trkpt lat="48.65421" lon="6.22195">
        <ele>208</ele>
        <time>2020-08-16T09:08:39Z</time>
      </trkpt>
      <trkpt lat="48.65424" lon="6.222">
        <ele>208</ele>
        <time>2020-08-16T09:08:40Z</time>
      </trkpt>
      <trkpt lat="48.65429" lon="6.22206">
        <ele>208</ele>
        <time>2020-08-16T09:08:41Z</time>
      </trkpt>
      <trkpt lat="48.65433" lon="6.22212">
        <ele>208</ele>
        <time>2020-08-16T09:08:42Z</time>
      </trkpt>
      <trkpt lat="48.65438" lon="6.22217">
        <ele>209</ele>
        <time>2020-08-16T09:08:43Z</time>
      </trkpt>
      <trkpt lat="48.65442" lon="6.22223">
        <ele>209</ele>
        <time>2020-08-16T09:08:44Z</time>
      </trkpt>
      <trkpt lat="48.65446" lon="6.22228">
        <ele>209</ele>
        <time>2020-08-16T09:08:45Z</time>
      </trkpt>
      <trkpt lat="48.65451" lon="6.22233">
        <ele>209</ele>
        <time>2020-08-16T09:08:46Z</time>
      </trkpt>
      <trkpt lat="48.65455" lon="6.22237">
        <ele>208</ele>
        <time>2020-08-16T09:08:47Z</time>
      </trkpt>
      <trkpt lat="48.65459" lon="6.22241">
        <ele>208</ele>
        <time>2020-08-16T09:08:48Z</time>
      </trkpt>
      <trkpt lat="48.65464" lon="6.22247">
        <ele>207</ele>
        <time>2020-08-16T09:08:49Z</time>
      </trkpt>
      <trkpt lat="48.65468" lon="6.2225">
        <ele>207</ele>
        <time>2020-08-16T09:08:50Z</time>
      </trkpt>
      <trkpt lat="48.65473" lon="6.22254">
        <ele>207</ele>
        <time>2020-08-16T09:08:51Z</time>
      </trkpt>
      <trkpt lat="48.65477" lon="6.2226">
        <ele>207</ele>
        <time>2020-08-16T09:08:52Z</time>
      </trkpt>
      <trkpt lat="48.65482" lon="6.22265">
        <ele>207</ele>
        <time>2020-08-16T09:08:53Z</time>
      </trkpt>
      <trkpt lat="48.65486" lon="6.22272">
        <ele>207</ele>
        <time>2020-08-16T09:08:54Z</time>
      </trkpt>
      <trkpt lat="48.6549" lon="6.22279">
        <ele>208</ele>
        <time>2020-08-16T09:08:55Z</time>
      </trkpt>
      <trkpt lat="48.65494" lon="6.22284">
        <ele>207</ele>
        <time>2020-08-16T09:08:56Z</time>
      </trkpt>
      <trkpt lat="48.65498" lon="6.22288">
        <ele>208</ele>
        <time>2020-08-16T09:08:57Z</time>
      </trkpt>
      <trkpt lat="48.65501" lon="6.22293">
        <ele>208</ele>
        <time>2020-08-16T09:08:58Z</time>
      </trkpt>
      <trkpt lat="48.65505" lon="6.22298">
        <ele>208</ele>
        <time>2020-08-16T09:08:59Z</time>
      </trkpt>
      <trkpt lat="48.65513" lon="6.22307">
        <ele>207</ele>
        <time>2020-08-16T09:09:01Z</time>
      </trkpt>
      <trkpt lat="48.65522" lon="6.22321">
        <ele>207</ele>
        <time>2020-08-16T09:09:04Z</time>
      </trkpt>
      <trkpt lat="48.65529" lon="6.2233">
        <ele>206</ele>
        <time>2020-08-16T09:09:06Z</time>
      </trkpt>
      <trkpt lat="48.65532" lon="6.22336">
        <ele>206</ele>
        <time>2020-08-16T09:09:07Z</time>
      </trkpt>
      <trkpt lat="48.65535" lon="6.22343">
        <ele>206</ele>
        <time>2020-08-16T09:09:08Z</time>
      </trkpt>
      <trkpt lat="48.65538" lon="6.22349">
        <ele>206</ele>
        <time>2020-08-16T09:09:09Z</time>
      </trkpt>
      <trkpt lat="48.65541" lon="6.22356">
        <ele>206</ele>
        <time>2020-08-16T09:09:10Z</time>
      </trkpt>
      <trkpt lat="48.65543" lon="6.22363">
        <ele>207</ele>
        <time>2020-08-16T09:09:11Z</time>
      </trkpt>
      <trkpt lat="48.65549" lon="6.22373">
        <ele>206</ele>
        <time>2020-08-16T09:09:13Z</time>
      </trkpt>
      <trkpt lat="48.65551" lon="6.22381">
        <ele>207</ele>
        <time>2020-08-16T09:09:14Z</time>
      </trkpt>
      <trkpt lat="48.65554" lon="6.22387">
        <ele>207</ele>
        <time>2020-08-16T09:09:15Z</time>
      </trkpt>
      <trkpt lat="48.65557" lon="6.22393">
        <ele>207</ele>
        <time>2020-08-16T09:09:16Z</time>
      </trkpt>
      <trkpt lat="48.65559" lon="6.224">
        <ele>207</ele>
        <time>2020-08-16T09:09:17Z</time>
      </trkpt>
      <trkpt lat="48.65562" lon="6.22407">
        <ele>208</ele>
        <time>2020-08-16T09:09:18Z</time>
      </trkpt>
      <trkpt lat="48.65564" lon="6.22414">
        <ele>208</ele>
        <time>2020-08-16T09:09:19Z</time>
      </trkpt>
      <trkpt lat="48.65568" lon="6.22427">
        <ele>208</ele>
        <time>2020-08-16T09:09:21Z</time>
      </trkpt>
      <trkpt lat="48.6557" lon="6.22434">
        <ele>208</ele>
        <time>2020-08-16T09:09:22Z</time>
      </trkpt>
      <trkpt lat="48.65572" lon="6.22442">
        <ele>207</ele>
        <time>2020-08-16T09:09:23Z</time>
      </trkpt>
      <trkpt lat="48.65573" lon="6.22449">
        <ele>207</ele>
        <time>2020-08-16T09:09:24Z</time>
      </trkpt>
      <trkpt lat="48.65575" lon="6.22456">
        <ele>207</ele>
        <time>2020-08-16T09:09:25Z</time>
      </trkpt>
      <trkpt lat="48.65577" lon="6.22462">
        <ele>207</ele>
        <time>2020-08-16T09:09:26Z</time>
      </trkpt>
      <trkpt lat="48.65579" lon="6.22469">
        <ele>207</ele>
        <time>2020-08-16T09:09:27Z</time>
      </trkpt>
      <trkpt lat="48.65581" lon="6.22476">
        <ele>207</ele>
        <time>2020-08-16T09:09:28Z</time>
      </trkpt>
      <trkpt lat="48.65583" lon="6.22482">
        <ele>207</ele>
        <time>2020-08-16T09:09:29Z</time>
      </trkpt>
      <trkpt lat="48.65584" lon="6.2249">
        <ele>208</ele>
        <time>2020-08-16T09:09:30Z</time>
      </trkpt>
      <trkpt lat="48.65587" lon="6.22501">
        <ele>208</ele>
        <time>2020-08-16T09:09:32Z</time>
      </trkpt>
      <trkpt lat="48.6559" lon="6.22514">
        <ele>208</ele>
        <time>2020-08-16T09:09:34Z</time>
      </trkpt>
      <trkpt lat="48.65593" lon="6.2252">
        <ele>208</ele>
        <time>2020-08-16T09:09:35Z</time>
      </trkpt>
      <trkpt lat="48.65595" lon="6.22528">
        <ele>208</ele>
        <time>2020-08-16T09:09:36Z</time>
      </trkpt>
      <trkpt lat="48.65599" lon="6.22541">
        <ele>208</ele>
        <time>2020-08-16T09:09:38Z</time>
      </trkpt>
      <trkpt lat="48.65602" lon="6.22547">
        <ele>207</ele>
        <time>2020-08-16T09:09:39Z</time>
      </trkpt>
      <trkpt lat="48.65605" lon="6.22554">
        <ele>207</ele>
        <time>2020-08-16T09:09:40Z</time>
      </trkpt>
      <trkpt lat="48.65607" lon="6.22562">
        <ele>208</ele>
        <time>2020-08-16T09:09:41Z</time>
      </trkpt>
      <trkpt lat="48.6561" lon="6.22568">
        <ele>208</ele>
        <time>2020-08-16T09:09:42Z</time>
      </trkpt>
      <trkpt lat="48.65612" lon="6.22574">
        <ele>208</ele>
        <time>2020-08-16T09:09:43Z</time>
      </trkpt>
      <trkpt lat="48.65615" lon="6.22581">
        <ele>208</ele>
        <time>2020-08-16T09:09:44Z</time>
      </trkpt>
      <trkpt lat="48.65617" lon="6.22587">
        <ele>208</ele>
        <time>2020-08-16T09:09:45Z</time>
      </trkpt>
      <trkpt lat="48.6562" lon="6.22594">
        <ele>207</ele>
        <time>2020-08-16T09:09:46Z</time>
      </trkpt>
      <trkpt lat="48.65622" lon="6.22601">
        <ele>207</ele>
        <time>2020-08-16T09:09:47Z</time>
      </trkpt>
      <trkpt lat="48.65625" lon="6.22608">
        <ele>207</ele>
        <time>2020-08-16T09:09:48Z</time>
      </trkpt>
      <trkpt lat="48.65628" lon="6.22614">
        <ele>208</ele>
        <time>2020-08-16T09:09:49Z</time>
      </trkpt>
      <trkpt lat="48.65631" lon="6.22621">
        <ele>208</ele>
        <time>2020-08-16T09:09:50Z</time>
      </trkpt>
      <trkpt lat="48.65634" lon="6.22628">
        <ele>208</ele>
        <time>2020-08-16T09:09:51Z</time>
      </trkpt>
      <trkpt lat="48.65636" lon="6.22635">
        <ele>208</ele>
        <time>2020-08-16T09:09:52Z</time>
      </trkpt>
      <trkpt lat="48.65638" lon="6.22642">
        <ele>208</ele>
        <time>2020-08-16T09:09:53Z</time>
      </trkpt>
      <trkpt lat="48.65641" lon="6.22648">
        <ele>209</ele>
        <time>2020-08-16T09:09:54Z</time>
      </trkpt>
      <trkpt lat="48.65644" lon="6.22658">
        <ele>211</ele>
        <time>2020-08-16T09:09:56Z</time>
      </trkpt>
      <trkpt lat="48.6565" lon="6.22669">
        <ele>212</ele>
        <time>2020-08-16T09:09:58Z</time>
      </trkpt>
      <trkpt lat="48.65656" lon="6.22676">
        <ele>211</ele>
        <time>2020-08-16T09:10:00Z</time>
      </trkpt>
      <trkpt lat="48.65661" lon="6.2268">
        <ele>211</ele>
        <time>2020-08-16T09:10:02Z</time>
      </trkpt>
      <trkpt lat="48.65665" lon="6.22687">
        <ele>210</ele>
        <time>2020-08-16T09:10:04Z</time>
      </trkpt>
      <trkpt lat="48.65669" lon="6.22697">
        <ele>208</ele>
        <time>2020-08-16T09:10:06Z</time>
      </trkpt>
      <trkpt lat="48.65671" lon="6.22704">
        <ele>207</ele>
        <time>2020-08-16T09:10:08Z</time>
      </trkpt>
      <trkpt lat="48.65675" lon="6.22709">
        <ele>206</ele>
        <time>2020-08-16T09:10:10Z</time>
      </trkpt>
      <trkpt lat="48.65679" lon="6.22714">
        <ele>206</ele>
        <time>2020-08-16T09:10:12Z</time>
      </trkpt>
      <trkpt lat="48.65684" lon="6.2272">
        <ele>206</ele>
        <time>2020-08-16T09:10:15Z</time>
      </trkpt>
      <trkpt lat="48.65689" lon="6.22726">
        <ele>205</ele>
        <time>2020-08-16T09:10:17Z</time>
      </trkpt>
      <trkpt lat="48.65694" lon="6.22732">
        <ele>205</ele>
        <time>2020-08-16T09:10:19Z</time>
      </trkpt>
      <trkpt lat="48.65701" lon="6.22741">
        <ele>205</ele>
        <time>2020-08-16T09:10:21Z</time>
      </trkpt>
      <trkpt lat="48.65706" lon="6.22745">
        <ele>205</ele>
        <time>2020-08-16T09:10:22Z</time>
      </trkpt>
      <trkpt lat="48.6571" lon="6.2275">
        <ele>205</ele>
        <time>2020-08-16T09:10:23Z</time>
      </trkpt>
      <trkpt lat="48.65714" lon="6.22754">
        <ele>205</ele>
        <time>2020-08-16T09:10:24Z</time>
      </trkpt>
      <trkpt lat="48.65719" lon="6.22758">
        <ele>205</ele>
        <time>2020-08-16T09:10:25Z</time>
      </trkpt>
      <trkpt lat="48.65724" lon="6.22762">
        <ele>204</ele>
        <time>2020-08-16T09:10:26Z</time>
      </trkpt>
      <trkpt lat="48.65728" lon="6.22767">
        <ele>204</ele>
        <time>2020-08-16T09:10:27Z</time>
      </trkpt>
      <trkpt lat="48.65733" lon="6.22772">
        <ele>204</ele>
        <time>2020-08-16T09:10:28Z</time>
      </trkpt>
      <trkpt lat="48.65738" lon="6.22777">
        <ele>203</ele>
        <time>2020-08-16T09:10:29Z</time>
      </trkpt>
      <trkpt lat="48.65741" lon="6.22781">
        <ele>203</ele>
        <time>2020-08-16T09:10:30Z</time>
      </trkpt>
      <trkpt lat="48.65746" lon="6.22786">
        <ele>203</ele>
        <time>2020-08-16T09:10:31Z</time>
      </trkpt>
      <trkpt lat="48.6575" lon="6.2279">
        <ele>203</ele>
        <time>2020-08-16T09:10:32Z</time>
      </trkpt>
      <trkpt lat="48.65754" lon="6.22794">
        <ele>203</ele>
        <time>2020-08-16T09:10:33Z</time>
      </trkpt>
      <trkpt lat="48.65758" lon="6.22798">
        <ele>202</ele>
        <time>2020-08-16T09:10:34Z</time>
      </trkpt>
      <trkpt lat="48.65762" lon="6.22802">
        <ele>202</ele>
        <time>2020-08-16T09:10:35Z</time>
      </trkpt>
      <trkpt lat="48.65765" lon="6.22806">
        <ele>202</ele>
        <time>2020-08-16T09:10:36Z</time>
      </trkpt>
      <trkpt lat="48.65769" lon="6.22811">
        <ele>203</ele>
        <time>2020-08-16T09:10:37Z</time>
      </trkpt>
      <trkpt lat="48.65773" lon="6.22815">
        <ele>203</ele>
        <time>2020-08-16T09:10:38Z</time>
      </trkpt>
      <trkpt lat="48.65777" lon="6.22819">
        <ele>203</ele>
        <time>2020-08-16T09:10:39Z</time>
      </trkpt>
      <trkpt lat="48.65781" lon="6.22823">
        <ele>203</ele>
        <time>2020-08-16T09:10:40Z</time>
      </trkpt>
      <trkpt lat="48.65785" lon="6.22828">
        <ele>203</ele>
        <time>2020-08-16T09:10:41Z</time>
      </trkpt>
      <trkpt lat="48.65793" lon="6.22836">
        <ele>203</ele>
        <time>2020-08-16T09:10:43Z</time>
      </trkpt>
      <trkpt lat="48.65797" lon="6.22841">
        <ele>203</ele>
        <time>2020-08-16T09:10:44Z</time>
      </trkpt>
      <trkpt lat="48.65801" lon="6.22845">
        <ele>203</ele>
        <time>2020-08-16T09:10:45Z</time>
      </trkpt>
      <trkpt lat="48.65804" lon="6.2285">
        <ele>203</ele>
        <time>2020-08-16T09:10:46Z</time>
      </trkpt>
      <trkpt lat="48.6581" lon="6.22859">
        <ele>203</ele>
        <time>2020-08-16T09:10:48Z</time>
      </trkpt>
      <trkpt lat="48.65815" lon="6.22864">
        <ele>204</ele>
        <time>2020-08-16T09:10:49Z</time>
      </trkpt>
      <trkpt lat="48.65818" lon="6.22868">
        <ele>204</ele>
        <time>2020-08-16T09:10:50Z</time>
      </trkpt>
      <trkpt lat="48.65825" lon="6.2288">
        <ele>204</ele>
        <time>2020-08-16T09:10:52Z</time>
      </trkpt>
      <trkpt lat="48.6583" lon="6.22888">
        <ele>204</ele>
        <time>2020-08-16T09:10:54Z</time>
      </trkpt>
      <trkpt lat="48.65835" lon="6.22896">
        <ele>203</ele>
        <time>2020-08-16T09:10:56Z</time>
      </trkpt>
      <trkpt lat="48.6584" lon="6.229">
        <ele>203</ele>
        <time>2020-08-16T09:10:58Z</time>
      </trkpt>
      <trkpt lat="48.65845" lon="6.22906">
        <ele>202</ele>
        <time>2020-08-16T09:11:00Z</time>
      </trkpt>
      <trkpt lat="48.6585" lon="6.2291">
        <ele>202</ele>
        <time>2020-08-16T09:11:02Z</time>
      </trkpt>
      <trkpt lat="48.65855" lon="6.22912">
        <ele>202</ele>
        <time>2020-08-16T09:11:05Z</time>
      </trkpt>
      <trkpt lat="48.65859" lon="6.22914">
        <ele>203</ele>
        <time>2020-08-16T09:11:07Z</time>
      </trkpt>
      <trkpt lat="48.65865" lon="6.22915">
        <ele>204</ele>
        <time>2020-08-16T09:11:09Z</time>
      </trkpt>
      <trkpt lat="48.65866" lon="6.22924">
        <ele>204</ele>
        <time>2020-08-16T09:11:42Z</time>
      </trkpt>
      <trkpt lat="48.65864" lon="6.22931">
        <ele>204</ele>
        <time>2020-08-16T09:11:44Z</time>
      </trkpt>
      <trkpt lat="48.65862" lon="6.22939">
        <ele>204</ele>
        <time>2020-08-16T09:11:46Z</time>
      </trkpt>
      <trkpt lat="48.6586" lon="6.22947">
        <ele>204</ele>
        <time>2020-08-16T09:11:48Z</time>
      </trkpt>
      <trkpt lat="48.6586" lon="6.22957">
        <ele>204</ele>
        <time>2020-08-16T09:11:51Z</time>
      </trkpt>
      <trkpt lat="48.65865" lon="6.22962">
        <ele>204</ele>
        <time>2020-08-16T09:11:54Z</time>
      </trkpt>
      <trkpt lat="48.65869" lon="6.22959">
        <ele>204</ele>
        <time>2020-08-16T09:11:57Z</time>
      </trkpt>
      <trkpt lat="48.65875" lon="6.22964">
        <ele>203</ele>
        <time>2020-08-16T09:12:00Z</time>
      </trkpt>
      <trkpt lat="48.65884" lon="6.2297">
        <ele>204</ele>
        <time>2020-08-16T09:12:02Z</time>
      </trkpt>
      <trkpt lat="48.65889" lon="6.22973">
        <ele>204</ele>
        <time>2020-08-16T09:12:03Z</time>
      </trkpt>
      <trkpt lat="48.65896" lon="6.22978">
        <ele>204</ele>
        <time>2020-08-16T09:12:04Z</time>
      </trkpt>
      <trkpt lat="48.65901" lon="6.22982">
        <ele>204</ele>
        <time>2020-08-16T09:12:05Z</time>
      </trkpt>
      <trkpt lat="48.65907" lon="6.22986">
        <ele>204</ele>
        <time>2020-08-16T09:12:06Z</time>
      </trkpt>
      <trkpt lat="48.65912" lon="6.2299">
        <ele>203</ele>
        <time>2020-08-16T09:12:07Z</time>
      </trkpt>
      <trkpt lat="48.65916" lon="6.22995">
        <ele>203</ele>
        <time>2020-08-16T09:12:08Z</time>
      </trkpt>
      <trkpt lat="48.65921" lon="6.22998">
        <ele>203</ele>
        <time>2020-08-16T09:12:09Z</time>
      </trkpt>
      <trkpt lat="48.65926" lon="6.23002">
        <ele>203</ele>
        <time>2020-08-16T09:12:10Z</time>
      </trkpt>
      <trkpt lat="48.65931" lon="6.23006">
        <ele>202</ele>
        <time>2020-08-16T09:12:11Z</time>
      </trkpt>
      <trkpt lat="48.65936" lon="6.23011">
        <ele>202</ele>
        <time>2020-08-16T09:12:12Z</time>
      </trkpt>
      <trkpt lat="48.65944" lon="6.23017">
        <ele>202</ele>
        <time>2020-08-16T09:12:14Z</time>
      </trkpt>
      <trkpt lat="48.65949" lon="6.23027">
        <ele>202</ele>
        <time>2020-08-16T09:12:16Z</time>
      </trkpt>
      <trkpt lat="48.65952" lon="6.23036">
        <ele>202</ele>
        <time>2020-08-16T09:12:18Z</time>
      </trkpt>
      <trkpt lat="48.65955" lon="6.23046">
        <ele>202</ele>
        <time>2020-08-16T09:12:20Z</time>
      </trkpt>
      <trkpt lat="48.65955" lon="6.23056">
        <ele>203</ele>
        <time>2020-08-16T09:12:22Z</time>
      </trkpt>
      <trkpt lat="48.65956" lon="6.23064">
        <ele>203</ele>
        <time>2020-08-16T09:12:24Z</time>
      </trkpt>
      <trkpt lat="48.65954" lon="6.2307">
        <ele>203</ele>
        <time>2020-08-16T09:12:26Z</time>
      </trkpt>
      <trkpt lat="48.6595" lon="6.23074">
        <ele>204</ele>
        <time>2020-08-16T09:12:28Z</time>
      </trkpt>
      <trkpt lat="48.65945" lon="6.23073">
        <ele>204</ele>
        <time>2020-08-16T09:12:45Z</time>
      </trkpt>
      <trkpt lat="48.65943" lon="6.23084">
        <ele>204</ele>
        <time>2020-08-16T09:13:02Z</time>
      </trkpt>
      <trkpt lat="48.65945" lon="6.23091">
        <ele>204</ele>
        <time>2020-08-16T09:13:06Z</time>
      </trkpt>
      <trkpt lat="48.65947" lon="6.23099">
        <ele>205</ele>
        <time>2020-08-16T09:13:11Z</time>
      </trkpt>
      <trkpt lat="48.6595" lon="6.23106">
        <ele>204</ele>
        <time>2020-08-16T09:13:20Z</time>
      </trkpt>
      <trkpt lat="48.65953" lon="6.23111">
        <ele>204</ele>
        <time>2020-08-16T09:13:24Z</time>
      </trkpt>
      <trkpt lat="48.65955" lon="6.23117">
        <ele>204</ele>
        <time>2020-08-16T09:13:27Z</time>
      </trkpt>
      <trkpt lat="48.65958" lon="6.23124">
        <ele>204</ele>
        <time>2020-08-16T09:13:29Z</time>
      </trkpt>
      <trkpt lat="48.6596" lon="6.23131">
        <ele>204</ele>
        <time>2020-08-16T09:13:31Z</time>
      </trkpt>
      <trkpt lat="48.65964" lon="6.23139">
        <ele>204</ele>
        <time>2020-08-16T09:13:33Z</time>
      </trkpt>
      <trkpt lat="48.65968" lon="6.23146">
        <ele>204</ele>
        <time>2020-08-16T09:13:35Z</time>
      </trkpt>
      <trkpt lat="48.65971" lon="6.23156">
        <ele>205</ele>
        <time>2020-08-16T09:13:37Z</time>
      </trkpt>
      <trkpt lat="48.65974" lon="6.23165">
        <ele>205</ele>
        <time>2020-08-16T09:13:39Z</time>
      </trkpt>
      <trkpt lat="48.65979" lon="6.23175">
        <ele>204</ele>
        <time>2020-08-16T09:13:41Z</time>
      </trkpt>
      <trkpt lat="48.65979" lon="6.23188">
        <ele>204</ele>
        <time>2020-08-16T09:13:43Z</time>
      </trkpt>
      <trkpt lat="48.65977" lon="6.23201">
        <ele>203</ele>
        <time>2020-08-16T09:13:45Z</time>
      </trkpt>
      <trkpt lat="48.65975" lon="6.23208">
        <ele>203</ele>
        <time>2020-08-16T09:13:46Z</time>
      </trkpt>
      <trkpt lat="48.6597" lon="6.23221">
        <ele>203</ele>
        <time>2020-08-16T09:13:48Z</time>
      </trkpt>
      <trkpt lat="48.65967" lon="6.23226">
        <ele>203</ele>
        <time>2020-08-16T09:13:49Z</time>
      </trkpt>
      <trkpt lat="48.65963" lon="6.23231">
        <ele>203</ele>
        <time>2020-08-16T09:13:50Z</time>
      </trkpt>
      <trkpt lat="48.6596" lon="6.23237">
        <ele>203</ele>
        <time>2020-08-16T09:13:51Z</time>
      </trkpt>
      <trkpt lat="48.65954" lon="6.23247">
        <ele>203</ele>
        <time>2020-08-16T09:13:53Z</time>
      </trkpt>
      <trkpt lat="48.65949" lon="6.23255">
        <ele>202</ele>
        <time>2020-08-16T09:13:55Z</time>
      </trkpt>
      <trkpt lat="48.65943" lon="6.23263">
        <ele>202</ele>
        <time>2020-08-16T09:13:57Z</time>
      </trkpt>
      <trkpt lat="48.65938" lon="6.23269">
        <ele>202</ele>
        <time>2020-08-16T09:13:59Z</time>
      </trkpt>
      <trkpt lat="48.65933" lon="6.23273">
        <ele>201</ele>
        <time>2020-08-16T09:14:00Z</time>
      </trkpt>
      <trkpt lat="48.65926" lon="6.23281">
        <ele>201</ele>
        <time>2020-08-16T09:14:02Z</time>
      </trkpt>
      <trkpt lat="48.65922" lon="6.23285">
        <ele>201</ele>
        <time>2020-08-16T09:14:03Z</time>
      </trkpt>
      <trkpt lat="48.65919" lon="6.23291">
        <ele>201</ele>
        <time>2020-08-16T09:14:04Z</time>
      </trkpt>
      <trkpt lat="48.65916" lon="6.23296">
        <ele>201</ele>
        <time>2020-08-16T09:14:05Z</time>
      </trkpt>
      <trkpt lat="48.65912" lon="6.23301">
        <ele>201</ele>
        <time>2020-08-16T09:14:06Z</time>
      </trkpt>
      <trkpt lat="48.65909" lon="6.23307">
        <ele>201</ele>
        <time>2020-08-16T09:14:07Z</time>
      </trkpt>
      <trkpt lat="48.65906" lon="6.23314">
        <ele>200</ele>
        <time>2020-08-16T09:14:08Z</time>
      </trkpt>
      <trkpt lat="48.65899" lon="6.23325">
        <ele>200</ele>
        <time>2020-08-16T09:14:10Z</time>
      </trkpt>
      <trkpt lat="48.65896" lon="6.2333">
        <ele>200</ele>
        <time>2020-08-16T09:14:11Z</time>
      </trkpt>
      <trkpt lat="48.65892" lon="6.23335">
        <ele>200</ele>
        <time>2020-08-16T09:14:12Z</time>
      </trkpt>
      <trkpt lat="48.65888" lon="6.23341">
        <ele>200</ele>
        <time>2020-08-16T09:14:13Z</time>
      </trkpt>
      <trkpt lat="48.65885" lon="6.23347">
        <ele>200</ele>
        <time>2020-08-16T09:14:14Z</time>
      </trkpt>
      <trkpt lat="48.65879" lon="6.23353">
        <ele>200</ele>
        <time>2020-08-16T09:14:16Z</time>
      </trkpt>
      <trkpt lat="48.65875" lon="6.23355">
        <ele>200</ele>
        <time>2020-08-16T09:14:18Z</time>
      </trkpt>
      <trkpt lat="48.65869" lon="6.23352">
        <ele>202</ele>
        <time>2020-08-16T09:14:20Z</time>
      </trkpt>
      <trkpt lat="48.65862" lon="6.2335">
        <ele>203</ele>
        <time>2020-08-16T09:14:22Z</time>
      </trkpt>
      <trkpt lat="48.65854" lon="6.23346">
        <ele>205</ele>
        <time>2020-08-16T09:14:24Z</time>
      </trkpt>
      <trkpt lat="48.65847" lon="6.23348">
        <ele>205</ele>
        <time>2020-08-16T09:14:26Z</time>
      </trkpt>
      <trkpt lat="48.65841" lon="6.23348">
        <ele>206</ele>
        <time>2020-08-16T09:14:28Z</time>
      </trkpt>
      <trkpt lat="48.65833" lon="6.23352">
        <ele>205</ele>
        <time>2020-08-16T09:14:30Z</time>
      </trkpt>
      <trkpt lat="48.65826" lon="6.23354">
        <ele>205</ele>
        <time>2020-08-16T09:14:32Z</time>
      </trkpt>
      <trkpt lat="48.65818" lon="6.23359">
        <ele>205</ele>
        <time>2020-08-16T09:14:34Z</time>
      </trkpt>
      <trkpt lat="48.65813" lon="6.23359">
        <ele>205</ele>
        <time>2020-08-16T09:14:36Z</time>
      </trkpt>
      <trkpt lat="48.65806" lon="6.23363">
        <ele>205</ele>
        <time>2020-08-16T09:14:38Z</time>
      </trkpt>
      <trkpt lat="48.65799" lon="6.23367">
        <ele>205</ele>
        <time>2020-08-16T09:14:40Z</time>
      </trkpt>
      <trkpt lat="48.65791" lon="6.23371">
        <ele>205</ele>
        <time>2020-08-16T09:14:42Z</time>
      </trkpt>
      <trkpt lat="48.65786" lon="6.23373">
        <ele>205</ele>
        <time>2020-08-16T09:14:43Z</time>
      </trkpt>
      <trkpt lat="48.65777" lon="6.23377">
        <ele>206</ele>
        <time>2020-08-16T09:14:45Z</time>
      </trkpt>
      <trkpt lat="48.6577" lon="6.23381">
        <ele>206</ele>
        <time>2020-08-16T09:14:47Z</time>
      </trkpt>
      <trkpt lat="48.65765" lon="6.23383">
        <ele>206</ele>
        <time>2020-08-16T09:14:48Z</time>
      </trkpt>
      <trkpt lat="48.6576" lon="6.23386">
        <ele>206</ele>
        <time>2020-08-16T09:14:49Z</time>
      </trkpt>
      <trkpt lat="48.65755" lon="6.23389">
        <ele>205</ele>
        <time>2020-08-16T09:14:50Z</time>
      </trkpt>
      <trkpt lat="48.6575" lon="6.23391">
        <ele>205</ele>
        <time>2020-08-16T09:14:51Z</time>
      </trkpt>
      <trkpt lat="48.65742" lon="6.23387">
        <ele>206</ele>
        <time>2020-08-16T09:14:53Z</time>
      </trkpt>
      <trkpt lat="48.65733" lon="6.23393">
        <ele>206</ele>
        <time>2020-08-16T09:14:55Z</time>
      </trkpt>
      <trkpt lat="48.65726" lon="6.23394">
        <ele>206</ele>
        <time>2020-08-16T09:14:57Z</time>
      </trkpt>
      <trkpt lat="48.65719" lon="6.23399">
        <ele>205</ele>
        <time>2020-08-16T09:14:59Z</time>
      </trkpt>
      <trkpt lat="48.65711" lon="6.23404">
        <ele>205</ele>
        <time>2020-08-16T09:15:01Z</time>
      </trkpt>
      <trkpt lat="48.65703" lon="6.23411">
        <ele>205</ele>
        <time>2020-08-16T09:15:03Z</time>
      </trkpt>
      <trkpt lat="48.65696" lon="6.23414">
        <ele>206</ele>
        <time>2020-08-16T09:15:05Z</time>
      </trkpt>
      <trkpt lat="48.65686" lon="6.23419">
        <ele>206</ele>
        <time>2020-08-16T09:15:07Z</time>
      </trkpt>
      <trkpt lat="48.6568" lon="6.23423">
        <ele>205</ele>
        <time>2020-08-16T09:15:09Z</time>
      </trkpt>
      <trkpt lat="48.65671" lon="6.23428">
        <ele>205</ele>
        <time>2020-08-16T09:15:11Z</time>
      </trkpt>
      <trkpt lat="48.65666" lon="6.23431">
        <ele>205</ele>
        <time>2020-08-16T09:15:12Z</time>
      </trkpt>
      <trkpt lat="48.65662" lon="6.23434">
        <ele>205</ele>
        <time>2020-08-16T09:15:13Z</time>
      </trkpt>
      <trkpt lat="48.65657" lon="6.23437">
        <ele>205</ele>
        <time>2020-08-16T09:15:14Z</time>
      </trkpt>
      <trkpt lat="48.65653" lon="6.2344">
        <ele>205</ele>
        <time>2020-08-16T09:15:15Z</time>
      </trkpt>
      <trkpt lat="48.65646" lon="6.23441">
        <ele>205</ele>
        <time>2020-08-16T09:15:17Z</time>
      </trkpt>
      <trkpt lat="48.6564" lon="6.23446">
        <ele>205</ele>
        <time>2020-08-16T09:15:19Z</time>
      </trkpt>
      <trkpt lat="48.65631" lon="6.2345">
        <ele>205</ele>
        <time>2020-08-16T09:15:21Z</time>
      </trkpt>
      <trkpt lat="48.65627" lon="6.23455">
        <ele>205</ele>
        <time>2020-08-16T09:15:22Z</time>
      </trkpt>
      <trkpt lat="48.65622" lon="6.23457">
        <ele>205</ele>
        <time>2020-08-16T09:15:24Z</time>
      </trkpt>
      <trkpt lat="48.65613" lon="6.23458">
        <ele>205</ele>
        <time>2020-08-16T09:15:26Z</time>
      </trkpt>
      <trkpt lat="48.65609" lon="6.23462">
        <ele>205</ele>
        <time>2020-08-16T09:15:27Z</time>
      </trkpt>
      <trkpt lat="48.65602" lon="6.23461">
        <ele>205</ele>
        <time>2020-08-16T09:15:29Z</time>
      </trkpt>
      <trkpt lat="48.65595" lon="6.23464">
        <ele>205</ele>
        <time>2020-08-16T09:15:31Z</time>
      </trkpt>
      <trkpt lat="48.65591" lon="6.23466">
        <ele>205</ele>
        <time>2020-08-16T09:15:32Z</time>
      </trkpt>
      <trkpt lat="48.65583" lon="6.23467">
        <ele>206</ele>
        <time>2020-08-16T09:15:34Z</time>
      </trkpt>
      <trkpt lat="48.65579" lon="6.23469">
        <ele>206</ele>
        <time>2020-08-16T09:15:35Z</time>
      </trkpt>
      <trkpt lat="48.6557" lon="6.23475">
        <ele>205</ele>
        <time>2020-08-16T09:15:37Z</time>
      </trkpt>
      <trkpt lat="48.65566" lon="6.23477">
        <ele>205</ele>
        <time>2020-08-16T09:15:38Z</time>
      </trkpt>
      <trkpt lat="48.65561" lon="6.23479">
        <ele>205</ele>
        <time>2020-08-16T09:15:39Z</time>
      </trkpt>
      <trkpt lat="48.65554" lon="6.23479">
        <ele>205</ele>
        <time>2020-08-16T09:15:41Z</time>
      </trkpt>
      <trkpt lat="48.65548" lon="6.23482">
        <ele>205</ele>
        <time>2020-08-16T09:15:42Z</time>
      </trkpt>
      <trkpt lat="48.65542" lon="6.23485">
        <ele>205</ele>
        <time>2020-08-16T09:15:43Z</time>
      </trkpt>
      <trkpt lat="48.65537" lon="6.23488">
        <ele>205</ele>
        <time>2020-08-16T09:15:44Z</time>
      </trkpt>
      <trkpt lat="48.65532" lon="6.23491">
        <ele>205</ele>
        <time>2020-08-16T09:15:45Z</time>
      </trkpt>
      <trkpt lat="48.65527" lon="6.23495">
        <ele>205</ele>
        <time>2020-08-16T09:15:46Z</time>
      </trkpt>
      <trkpt lat="48.65519" lon="6.23501">
        <ele>205</ele>
        <time>2020-08-16T09:15:48Z</time>
      </trkpt>
      <trkpt lat="48.65514" lon="6.23505">
        <ele>206</ele>
        <time>2020-08-16T09:15:49Z</time>
      </trkpt>
      <trkpt lat="48.65508" lon="6.23508">
        <ele>206</ele>
        <time>2020-08-16T09:15:50Z</time>
      </trkpt>
      <trkpt lat="48.65503" lon="6.23511">
        <ele>206</ele>
        <time>2020-08-16T09:15:51Z</time>
      </trkpt>
      <trkpt lat="48.65496" lon="6.23512">
        <ele>207</ele>
        <time>2020-08-16T09:15:53Z</time>
      </trkpt>
      <trkpt lat="48.65489" lon="6.23518">
        <ele>206</ele>
        <time>2020-08-16T09:15:55Z</time>
      </trkpt>
      <trkpt lat="48.65484" lon="6.23517">
        <ele>207</ele>
        <time>2020-08-16T09:15:56Z</time>
      </trkpt>
      <trkpt lat="48.65479" lon="6.23519">
        <ele>207</ele>
        <time>2020-08-16T09:15:57Z</time>
      </trkpt>
      <trkpt lat="48.65473" lon="6.23523">
        <ele>206</ele>
        <time>2020-08-16T09:15:59Z</time>
      </trkpt>
      <trkpt lat="48.65467" lon="6.23528">
        <ele>206</ele>
        <time>2020-08-16T09:16:01Z</time>
      </trkpt>
      <trkpt lat="48.65461" lon="6.23531">
        <ele>205</ele>
        <time>2020-08-16T09:16:03Z</time>
      </trkpt>
      <trkpt lat="48.65456" lon="6.23539">
        <ele>203</ele>
        <time>2020-08-16T09:16:05Z</time>
      </trkpt>
      <trkpt lat="48.6545" lon="6.23546">
        <ele>202</ele>
        <time>2020-08-16T09:16:07Z</time>
      </trkpt>
      <trkpt lat="48.65442" lon="6.23553">
        <ele>202</ele>
        <time>2020-08-16T09:16:09Z</time>
      </trkpt>
      <trkpt lat="48.65434" lon="6.23558">
        <ele>201</ele>
        <time>2020-08-16T09:16:11Z</time>
      </trkpt>
      <trkpt lat="48.65428" lon="6.2356">
        <ele>201</ele>
        <time>2020-08-16T09:16:13Z</time>
      </trkpt>
      <trkpt lat="48.65424" lon="6.23565">
        <ele>201</ele>
        <time>2020-08-16T09:16:14Z</time>
      </trkpt>
      <trkpt lat="48.65418" lon="6.23574">
        <ele>200</ele>
        <time>2020-08-16T09:16:16Z</time>
      </trkpt>
      <trkpt lat="48.65411" lon="6.2358">
        <ele>201</ele>
        <time>2020-08-16T09:16:18Z</time>
      </trkpt>
      <trkpt lat="48.65405" lon="6.23587">
        <ele>201</ele>
        <time>2020-08-16T09:16:20Z</time>
      </trkpt>
      <trkpt lat="48.65398" lon="6.2359">
        <ele>202</ele>
        <time>2020-08-16T09:16:22Z</time>
      </trkpt>
      <trkpt lat="48.65393" lon="6.23595">
        <ele>202</ele>
        <time>2020-08-16T09:16:24Z</time>
      </trkpt>
      <trkpt lat="48.6539" lon="6.236">
        <ele>202</ele>
        <time>2020-08-16T09:16:26Z</time>
      </trkpt>
      <trkpt lat="48.65385" lon="6.23604">
        <ele>202</ele>
        <time>2020-08-16T09:16:28Z</time>
      </trkpt>
      <trkpt lat="48.65381" lon="6.23609">
        <ele>202</ele>
        <time>2020-08-16T09:16:30Z</time>
      </trkpt>
      <trkpt lat="48.65376" lon="6.23614">
        <ele>202</ele>
        <time>2020-08-16T09:16:33Z</time>
      </trkpt>
      <trkpt lat="48.6537" lon="6.23612">
        <ele>203</ele>
        <time>2020-08-16T09:16:35Z</time>
      </trkpt>
      <trkpt lat="48.65363" lon="6.23617">
        <ele>203</ele>
        <time>2020-08-16T09:16:37Z</time>
      </trkpt>
      <trkpt lat="48.65357" lon="6.23625">
        <ele>203</ele>
        <time>2020-08-16T09:16:39Z</time>
      </trkpt>
      <trkpt lat="48.65354" lon="6.2363">
        <ele>203</ele>
        <time>2020-08-16T09:16:40Z</time>
      </trkpt>
      <trkpt lat="48.6535" lon="6.23635">
        <ele>203</ele>
        <time>2020-08-16T09:16:42Z</time>
      </trkpt>
      <trkpt lat="48.65345" lon="6.23641">
        <ele>203</ele>
        <time>2020-08-16T09:16:44Z</time>
      </trkpt>
      <trkpt lat="48.65342" lon="6.23648">
        <ele>203</ele>
        <time>2020-08-16T09:16:46Z</time>
      </trkpt>
      <trkpt lat="48.65338" lon="6.23657">
        <ele>204</ele>
        <time>2020-08-16T09:16:48Z</time>
      </trkpt>
      <trkpt lat="48.65333" lon="6.23665">
        <ele>204</ele>
        <time>2020-08-16T09:16:50Z</time>
      </trkpt>
      <trkpt lat="48.65329" lon="6.2367">
        <ele>204</ele>
        <time>2020-08-16T09:16:52Z</time>
      </trkpt>
      <trkpt lat="48.65326" lon="6.23678">
        <ele>205</ele>
        <time>2020-08-16T09:16:54Z</time>
      </trkpt>
      <trkpt lat="48.65324" lon="6.23685">
        <ele>205</ele>
        <time>2020-08-16T09:16:56Z</time>
      </trkpt>
      <trkpt lat="48.65319" lon="6.23691">
        <ele>206</ele>
        <time>2020-08-16T09:16:59Z</time>
      </trkpt>
      <trkpt lat="48.65314" lon="6.23694">
        <ele>206</ele>
        <time>2020-08-16T09:17:02Z</time>
      </trkpt>
      <trkpt lat="48.65309" lon="6.23699">
        <ele>207</ele>
        <time>2020-08-16T09:17:05Z</time>
      </trkpt>
      <trkpt lat="48.65303" lon="6.23703">
        <ele>207</ele>
        <time>2020-08-16T09:17:09Z</time>
      </trkpt>
      <trkpt lat="48.65299" lon="6.23701">
        <ele>208</ele>
        <time>2020-08-16T09:17:13Z</time>
      </trkpt>
      <trkpt lat="48.65296" lon="6.23695">
        <ele>208</ele>
        <time>2020-08-16T09:17:39Z</time>
      </trkpt>
      <trkpt lat="48.65294" lon="6.23686">
        <ele>208</ele>
        <time>2020-08-16T09:17:43Z</time>
      </trkpt>
      <trkpt lat="48.65289" lon="6.23681">
        <ele>208</ele>
        <time>2020-08-16T09:17:46Z</time>
      </trkpt>
      <trkpt lat="48.65284" lon="6.23673">
        <ele>209</ele>
        <time>2020-08-16T09:17:49Z</time>
      </trkpt>
      <trkpt lat="48.65281" lon="6.23667">
        <ele>209</ele>
        <time>2020-08-16T09:17:51Z</time>
      </trkpt>
      <trkpt lat="48.65276" lon="6.23663">
        <ele>210</ele>
        <time>2020-08-16T09:17:54Z</time>
      </trkpt>
      <trkpt lat="48.65281" lon="6.23667">
        <ele>209</ele>
        <time>2020-08-16T09:18:00Z</time>
      </trkpt>
      <trkpt lat="48.65284" lon="6.23672">
        <ele>209</ele>
        <time>2020-08-16T09:18:02Z</time>
      </trkpt>
      <trkpt lat="48.65288" lon="6.23677">
        <ele>209</ele>
        <time>2020-08-16T09:18:04Z</time>
      </trkpt>
      <trkpt lat="48.65292" lon="6.23685">
        <ele>208</ele>
        <time>2020-08-16T09:18:07Z</time>
      </trkpt>
      <trkpt lat="48.65295" lon="6.2369">
        <ele>208</ele>
        <time>2020-08-16T09:18:09Z</time>
      </trkpt>
      <trkpt lat="48.65298" lon="6.23696">
        <ele>208</ele>
        <time>2020-08-16T09:18:12Z</time>
      </trkpt>
      <trkpt lat="48.65302" lon="6.237">
        <ele>207</ele>
        <time>2020-08-16T09:18:15Z</time>
      </trkpt>
      <trkpt lat="48.65302" lon="6.2371">
        <ele>207</ele>
        <time>2020-08-16T09:18:19Z</time>
      </trkpt>
      <trkpt lat="48.65297" lon="6.23716">
        <ele>206</ele>
        <time>2020-08-16T09:18:22Z</time>
      </trkpt>
      <trkpt lat="48.65292" lon="6.23721">
        <ele>206</ele>
        <time>2020-08-16T09:18:24Z</time>
      </trkpt>
      <trkpt lat="48.65287" lon="6.23726">
        <ele>206</ele>
        <time>2020-08-16T09:18:26Z</time>
      </trkpt>
      <trkpt lat="48.65282" lon="6.23731">
        <ele>205</ele>
        <time>2020-08-16T09:18:27Z</time>
      </trkpt>
      <trkpt lat="48.65273" lon="6.23738">
        <ele>205</ele>
        <time>2020-08-16T09:18:29Z</time>
      </trkpt>
      <trkpt lat="48.65269" lon="6.23743">
        <ele>205</ele>
        <time>2020-08-16T09:18:30Z</time>
      </trkpt>
      <trkpt lat="48.65265" lon="6.23747">
        <ele>204</ele>
        <time>2020-08-16T09:18:31Z</time>
      </trkpt>
      <trkpt lat="48.65261" lon="6.23752">
        <ele>203</ele>
        <time>2020-08-16T09:18:32Z</time>
      </trkpt>
      <trkpt lat="48.65257" lon="6.23758">
        <ele>203</ele>
        <time>2020-08-16T09:18:33Z</time>
      </trkpt>
      <trkpt lat="48.65253" lon="6.23763">
        <ele>203</ele>
        <time>2020-08-16T09:18:34Z</time>
      </trkpt>
      <trkpt lat="48.6525" lon="6.2377">
        <ele>202</ele>
        <time>2020-08-16T09:18:35Z</time>
      </trkpt>
      <trkpt lat="48.65245" lon="6.23776">
        <ele>202</ele>
        <time>2020-08-16T09:18:36Z</time>
      </trkpt>
      <trkpt lat="48.6524" lon="6.23783">
        <ele>202</ele>
        <time>2020-08-16T09:18:37Z</time>
      </trkpt>
      <trkpt lat="48.65236" lon="6.23789">
        <ele>202</ele>
        <time>2020-08-16T09:18:38Z</time>
      </trkpt>
      <trkpt lat="48.65233" lon="6.23796">
        <ele>202</ele>
        <time>2020-08-16T09:18:39Z</time>
      </trkpt>
      <trkpt lat="48.65228" lon="6.23801">
        <ele>203</ele>
        <time>2020-08-16T09:18:40Z</time>
      </trkpt>
      <trkpt lat="48.65224" lon="6.23807">
        <ele>203</ele>
        <time>2020-08-16T09:18:41Z</time>
      </trkpt>
      <trkpt lat="48.65219" lon="6.23813">
        <ele>203</ele>
        <time>2020-08-16T09:18:42Z</time>
      </trkpt>
      <trkpt lat="48.65215" lon="6.23818">
        <ele>203</ele>
        <time>2020-08-16T09:18:43Z</time>
      </trkpt>
      <trkpt lat="48.6521" lon="6.23824">
        <ele>203</ele>
        <time>2020-08-16T09:18:45Z</time>
      </trkpt>
      <trkpt lat="48.65206" lon="6.23829">
        <ele>203</ele>
        <time>2020-08-16T09:18:46Z</time>
      </trkpt>
      <trkpt lat="48.65202" lon="6.23833">
        <ele>203</ele>
        <time>2020-08-16T09:18:47Z</time>
      </trkpt>
      <trkpt lat="48.65196" lon="6.23841">
        <ele>203</ele>
        <time>2020-08-16T09:18:49Z</time>
      </trkpt>
      <trkpt lat="48.65192" lon="6.23846">
        <ele>203</ele>
        <time>2020-08-16T09:18:50Z</time>
      </trkpt>
      <trkpt lat="48.65186" lon="6.23854">
        <ele>204</ele>
        <time>2020-08-16T09:18:52Z</time>
      </trkpt>
      <trkpt lat="48.6518" lon="6.23864">
        <ele>204</ele>
        <time>2020-08-16T09:18:54Z</time>
      </trkpt>
      <trkpt lat="48.65177" lon="6.23869">
        <ele>203</ele>
        <time>2020-08-16T09:18:55Z</time>
      </trkpt>
      <trkpt lat="48.65173" lon="6.23874">
        <ele>203</ele>
        <time>2020-08-16T09:18:56Z</time>
      </trkpt>
      <trkpt lat="48.65169" lon="6.23879">
        <ele>203</ele>
        <time>2020-08-16T09:18:57Z</time>
      </trkpt>
      <trkpt lat="48.65166" lon="6.23884">
        <ele>203</ele>
        <time>2020-08-16T09:18:58Z</time>
      </trkpt>
      <trkpt lat="48.65162" lon="6.23888">
        <ele>204</ele>
        <time>2020-08-16T09:18:59Z</time>
      </trkpt>
      <trkpt lat="48.65157" lon="6.23893">
        <ele>205</ele>
        <time>2020-08-16T09:19:00Z</time>
      </trkpt>
      <trkpt lat="48.65155" lon="6.23899">
        <ele>205</ele>
        <time>2020-08-16T09:19:01Z</time>
      </trkpt>
      <trkpt lat="48.65148" lon="6.23907">
        <ele>204</ele>
        <time>2020-08-16T09:19:03Z</time>
      </trkpt>
      <trkpt lat="48.65141" lon="6.23916">
        <ele>204</ele>
        <time>2020-08-16T09:19:05Z</time>
      </trkpt>
      <trkpt lat="48.65136" lon="6.23925">
        <ele>203</ele>
        <time>2020-08-16T09:19:07Z</time>
      </trkpt>
      <trkpt lat="48.6513" lon="6.23934">
        <ele>203</ele>
        <time>2020-08-16T09:19:09Z</time>
      </trkpt>
      <trkpt lat="48.65124" lon="6.23941">
        <ele>203</ele>
        <time>2020-08-16T09:19:11Z</time>
      </trkpt>
      <trkpt lat="48.6512" lon="6.23949">
        <ele>202</ele>
        <time>2020-08-16T09:19:13Z</time>
      </trkpt>
      <trkpt lat="48.65113" lon="6.23956">
        <ele>202</ele>
        <time>2020-08-16T09:19:15Z</time>
      </trkpt>
      <trkpt lat="48.65107" lon="6.23965">
        <ele>203</ele>
        <time>2020-08-16T09:19:17Z</time>
      </trkpt>
      <trkpt lat="48.65101" lon="6.23973">
        <ele>204</ele>
        <time>2020-08-16T09:19:19Z</time>
      </trkpt>
      <trkpt lat="48.65098" lon="6.23982">
        <ele>204</ele>
        <time>2020-08-16T09:19:21Z</time>
      </trkpt>
      <trkpt lat="48.65093" lon="6.23988">
        <ele>204</ele>
        <time>2020-08-16T09:19:23Z</time>
      </trkpt>
      <trkpt lat="48.65088" lon="6.23994">
        <ele>204</ele>
        <time>2020-08-16T09:19:25Z</time>
      </trkpt>
      <trkpt lat="48.65083" lon="6.24003">
        <ele>203</ele>
        <time>2020-08-16T09:19:27Z</time>
      </trkpt>
      <trkpt lat="48.65078" lon="6.24008">
        <ele>203</ele>
        <time>2020-08-16T09:19:29Z</time>
      </trkpt>
      <trkpt lat="48.65073" lon="6.24011">
        <ele>203</ele>
        <time>2020-08-16T09:19:31Z</time>
      </trkpt>
      <trkpt lat="48.65068" lon="6.24016">
        <ele>203</ele>
        <time>2020-08-16T09:19:33Z</time>
      </trkpt>
      <trkpt lat="48.65063" lon="6.24021">
        <ele>203</ele>
        <time>2020-08-16T09:19:35Z</time>
      </trkpt>
      <trkpt lat="48.65059" lon="6.24028">
        <ele>203</ele>
        <time>2020-08-16T09:19:37Z</time>
      </trkpt>
      <trkpt lat="48.65054" lon="6.24036">
        <ele>203</ele>
        <time>2020-08-16T09:19:39Z</time>
      </trkpt>
      <trkpt lat="48.65049" lon="6.24044">
        <ele>203</ele>
        <time>2020-08-16T09:19:41Z</time>
      </trkpt>
      <trkpt lat="48.65044" lon="6.24045">
        <ele>203</ele>
        <time>2020-08-16T09:19:43Z</time>
      </trkpt>
      <trkpt lat="48.65039" lon="6.24051">
        <ele>204</ele>
        <time>2020-08-16T09:19:45Z</time>
      </trkpt>
      <trkpt lat="48.65033" lon="6.24057">
        <ele>205</ele>
        <time>2020-08-16T09:19:47Z</time>
      </trkpt>
      <trkpt lat="48.65029" lon="6.24062">
        <ele>205</ele>
        <time>2020-08-16T09:19:49Z</time>
      </trkpt>
      <trkpt lat="48.65025" lon="6.24071">
        <ele>205</ele>
        <time>2020-08-16T09:19:51Z</time>
      </trkpt>
      <trkpt lat="48.65022" lon="6.24076">
        <ele>205</ele>
        <time>2020-08-16T09:19:53Z</time>
      </trkpt>
      <trkpt lat="48.65017" lon="6.24082">
        <ele>204</ele>
        <time>2020-08-16T09:19:55Z</time>
      </trkpt>
      <trkpt lat="48.65014" lon="6.24087">
        <ele>204</ele>
        <time>2020-08-16T09:19:57Z</time>
      </trkpt>
      <trkpt lat="48.65009" lon="6.24092">
        <ele>204</ele>
        <time>2020-08-16T09:19:59Z</time>
      </trkpt>
      <trkpt lat="48.65004" lon="6.24097">
        <ele>204</ele>
        <time>2020-08-16T09:20:01Z</time>
      </trkpt>
      <trkpt lat="48.65" lon="6.24102">
        <ele>204</ele>
        <time>2020-08-16T09:20:03Z</time>
      </trkpt>
      <trkpt lat="48.64994" lon="6.2411">
        <ele>204</ele>
        <time>2020-08-16T09:20:05Z</time>
      </trkpt>
      <trkpt lat="48.64989" lon="6.24113">
        <ele>205</ele>
        <time>2020-08-16T09:20:07Z</time>
      </trkpt>
      <trkpt lat="48.64985" lon="6.2412">
        <ele>204</ele>
        <time>2020-08-16T09:20:09Z</time>
      </trkpt>
      <trkpt lat="48.6498" lon="6.24128">
        <ele>204</ele>
        <time>2020-08-16T09:20:11Z</time>
      </trkpt>
      <trkpt lat="48.64975" lon="6.24133">
        <ele>204</ele>
        <time>2020-08-16T09:20:13Z</time>
      </trkpt>
      <trkpt lat="48.64971" lon="6.24139">
        <ele>203</ele>
        <time>2020-08-16T09:20:14Z</time>
      </trkpt>
      <trkpt lat="48.64965" lon="6.24146">
        <ele>203</ele>
        <time>2020-08-16T09:20:16Z</time>
      </trkpt>
      <trkpt lat="48.64961" lon="6.24154">
        <ele>203</ele>
        <time>2020-08-16T09:20:18Z</time>
      </trkpt>
      <trkpt lat="48.64956" lon="6.24161">
        <ele>204</ele>
        <time>2020-08-16T09:20:20Z</time>
      </trkpt>
      <trkpt lat="48.64951" lon="6.24168">
        <ele>204</ele>
        <time>2020-08-16T09:20:22Z</time>
      </trkpt>
      <trkpt lat="48.64946" lon="6.24175">
        <ele>204</ele>
        <time>2020-08-16T09:20:24Z</time>
      </trkpt>
      <trkpt lat="48.64941" lon="6.24183">
        <ele>204</ele>
        <time>2020-08-16T09:20:26Z</time>
      </trkpt>
      <trkpt lat="48.64936" lon="6.24191">
        <ele>204</ele>
        <time>2020-08-16T09:20:28Z</time>
      </trkpt>
      <trkpt lat="48.6493" lon="6.24199">
        <ele>204</ele>
        <time>2020-08-16T09:20:30Z</time>
      </trkpt>
      <trkpt lat="48.64926" lon="6.24204">
        <ele>204</ele>
        <time>2020-08-16T09:20:31Z</time>
      </trkpt>
      <trkpt lat="48.6492" lon="6.24211">
        <ele>204</ele>
        <time>2020-08-16T09:20:33Z</time>
      </trkpt>
      <trkpt lat="48.64914" lon="6.24219">
        <ele>203</ele>
        <time>2020-08-16T09:20:35Z</time>
      </trkpt>
      <trkpt lat="48.64909" lon="6.24226">
        <ele>203</ele>
        <time>2020-08-16T09:20:37Z</time>
      </trkpt>
      <trkpt lat="48.64902" lon="6.24234">
        <ele>204</ele>
        <time>2020-08-16T09:20:39Z</time>
      </trkpt>
      <trkpt lat="48.64898" lon="6.24238">
        <ele>205</ele>
        <time>2020-08-16T09:20:41Z</time>
      </trkpt>
      <trkpt lat="48.64893" lon="6.24243">
        <ele>205</ele>
        <time>2020-08-16T09:20:43Z</time>
      </trkpt>
      <trkpt lat="48.64889" lon="6.24247">
        <ele>204</ele>
        <time>2020-08-16T09:20:45Z</time>
      </trkpt>
      <trkpt lat="48.64885" lon="6.24253">
        <ele>204</ele>
        <time>2020-08-16T09:20:47Z</time>
      </trkpt>
      <trkpt lat="48.64881" lon="6.24261">
        <ele>204</ele>
        <time>2020-08-16T09:20:49Z</time>
      </trkpt>
      <trkpt lat="48.64875" lon="6.24268">
        <ele>204</ele>
        <time>2020-08-16T09:20:51Z</time>
      </trkpt>
      <trkpt lat="48.64868" lon="6.2428">
        <ele>203</ele>
        <time>2020-08-16T09:20:53Z</time>
      </trkpt>
      <trkpt lat="48.64863" lon="6.24287">
        <ele>204</ele>
        <time>2020-08-16T09:20:55Z</time>
      </trkpt>
      <trkpt lat="48.64859" lon="6.2429">
        <ele>204</ele>
        <time>2020-08-16T09:20:57Z</time>
      </trkpt>
      <trkpt lat="48.64854" lon="6.24297">
        <ele>205</ele>
        <time>2020-08-16T09:20:59Z</time>
      </trkpt>
      <trkpt lat="48.6485" lon="6.24303">
        <ele>204</ele>
        <time>2020-08-16T09:21:00Z</time>
      </trkpt>
      <trkpt lat="48.64846" lon="6.2431">
        <ele>204</ele>
        <time>2020-08-16T09:21:02Z</time>
      </trkpt>
      <trkpt lat="48.64842" lon="6.24318">
        <ele>204</ele>
        <time>2020-08-16T09:21:04Z</time>
      </trkpt>
      <trkpt lat="48.64837" lon="6.24322">
        <ele>205</ele>
        <time>2020-08-16T09:21:06Z</time>
      </trkpt>
      <trkpt lat="48.64834" lon="6.24329">
        <ele>205</ele>
        <time>2020-08-16T09:21:08Z</time>
      </trkpt>
      <trkpt lat="48.6483" lon="6.24334">
        <ele>205</ele>
        <time>2020-08-16T09:21:09Z</time>
      </trkpt>
      <trkpt lat="48.64826" lon="6.2434">
        <ele>205</ele>
        <time>2020-08-16T09:21:11Z</time>
      </trkpt>
      <trkpt lat="48.64821" lon="6.24345">
        <ele>205</ele>
        <time>2020-08-16T09:21:13Z</time>
      </trkpt>
      <trkpt lat="48.6482" lon="6.24355">
        <ele>205</ele>
        <time>2020-08-16T09:21:16Z</time>
      </trkpt>
      <trkpt lat="48.64815" lon="6.24363">
        <ele>205</ele>
        <time>2020-08-16T09:21:18Z</time>
      </trkpt>
      <trkpt lat="48.6481" lon="6.2437">
        <ele>205</ele>
        <time>2020-08-16T09:21:20Z</time>
      </trkpt>
      <trkpt lat="48.64804" lon="6.24374">
        <ele>205</ele>
        <time>2020-08-16T09:21:23Z</time>
      </trkpt>
      <trkpt lat="48.648" lon="6.24382">
        <ele>205</ele>
        <time>2020-08-16T09:21:25Z</time>
      </trkpt>
      <trkpt lat="48.64795" lon="6.2439">
        <ele>205</ele>
        <time>2020-08-16T09:21:27Z</time>
      </trkpt>
      <trkpt lat="48.64789" lon="6.24398">
        <ele>205</ele>
        <time>2020-08-16T09:21:29Z</time>
      </trkpt>
      <trkpt lat="48.64786" lon="6.24405">
        <ele>205</ele>
        <time>2020-08-16T09:21:31Z</time>
      </trkpt>
      <trkpt lat="48.64782" lon="6.24411">
        <ele>205</ele>
        <time>2020-08-16T09:21:33Z</time>
      </trkpt>
      <trkpt lat="48.6478" lon="6.24417">
        <ele>205</ele>
        <time>2020-08-16T09:21:34Z</time>
      </trkpt>
      <trkpt lat="48.64777" lon="6.24426">
        <ele>205</ele>
        <time>2020-08-16T09:21:36Z</time>
      </trkpt>
      <trkpt lat="48.64771" lon="6.24436">
        <ele>204</ele>
        <time>2020-08-16T09:21:38Z</time>
      </trkpt>
      <trkpt lat="48.64766" lon="6.24446">
        <ele>204</ele>
        <time>2020-08-16T09:21:40Z</time>
      </trkpt>
      <trkpt lat="48.64764" lon="6.24452">
        <ele>204</ele>
        <time>2020-08-16T09:21:41Z</time>
      </trkpt>
      <trkpt lat="48.64758" lon="6.24461">
        <ele>205</ele>
        <time>2020-08-16T09:21:43Z</time>
      </trkpt>
      <trkpt lat="48.64753" lon="6.24471">
        <ele>204</ele>
        <time>2020-08-16T09:21:45Z</time>
      </trkpt>
      <trkpt lat="48.64748" lon="6.24481">
        <ele>205</ele>
        <time>2020-08-16T09:21:47Z</time>
      </trkpt>
      <trkpt lat="48.64743" lon="6.24492">
        <ele>205</ele>
        <time>2020-08-16T09:21:49Z</time>
      </trkpt>
      <trkpt lat="48.64738" lon="6.24502">
        <ele>204</ele>
        <time>2020-08-16T09:21:51Z</time>
      </trkpt>
      <trkpt lat="48.64733" lon="6.24511">
        <ele>203</ele>
        <time>2020-08-16T09:21:53Z</time>
      </trkpt>
      <trkpt lat="48.64729" lon="6.24518">
        <ele>203</ele>
        <time>2020-08-16T09:21:55Z</time>
      </trkpt>
      <trkpt lat="48.64726" lon="6.24527">
        <ele>203</ele>
        <time>2020-08-16T09:21:57Z</time>
      </trkpt>
      <trkpt lat="48.64721" lon="6.24536">
        <ele>204</ele>
        <time>2020-08-16T09:21:59Z</time>
      </trkpt>
      <trkpt lat="48.64717" lon="6.24541">
        <ele>204</ele>
        <time>2020-08-16T09:22:00Z</time>
      </trkpt>
      <trkpt lat="48.64712" lon="6.24551">
        <ele>205</ele>
        <time>2020-08-16T09:22:02Z</time>
      </trkpt>
      <trkpt lat="48.64707" lon="6.2456">
        <ele>205</ele>
        <time>2020-08-16T09:22:04Z</time>
      </trkpt>
      <trkpt lat="48.64702" lon="6.2457">
        <ele>205</ele>
        <time>2020-08-16T09:22:06Z</time>
      </trkpt>
      <trkpt lat="48.64697" lon="6.2458">
        <ele>205</ele>
        <time>2020-08-16T09:22:08Z</time>
      </trkpt>
      <trkpt lat="48.64692" lon="6.24588">
        <ele>205</ele>
        <time>2020-08-16T09:22:10Z</time>
      </trkpt>
      <trkpt lat="48.64687" lon="6.24595">
        <ele>205</ele>
        <time>2020-08-16T09:22:12Z</time>
      </trkpt>
      <trkpt lat="48.64683" lon="6.24602">
        <ele>205</ele>
        <time>2020-08-16T09:22:14Z</time>
      </trkpt>
      <trkpt lat="48.64679" lon="6.2461">
        <ele>205</ele>
        <time>2020-08-16T09:22:16Z</time>
      </trkpt>
      <trkpt lat="48.64675" lon="6.24618">
        <ele>205</ele>
        <time>2020-08-16T09:22:18Z</time>
      </trkpt>
      <trkpt lat="48.64671" lon="6.24625">
        <ele>205</ele>
        <time>2020-08-16T09:22:20Z</time>
      </trkpt>
      <trkpt lat="48.64669" lon="6.24633">
        <ele>205</ele>
        <time>2020-08-16T09:22:22Z</time>
      </trkpt>
      <trkpt lat="48.64665" lon="6.24643">
        <ele>204</ele>
        <time>2020-08-16T09:22:24Z</time>
      </trkpt>
      <trkpt lat="48.64661" lon="6.24652">
        <ele>204</ele>
        <time>2020-08-16T09:22:26Z</time>
      </trkpt>
      <trkpt lat="48.64656" lon="6.24662">
        <ele>203</ele>
        <time>2020-08-16T09:22:28Z</time>
      </trkpt>
      <trkpt lat="48.64653" lon="6.24672">
        <ele>203</ele>
        <time>2020-08-16T09:22:30Z</time>
      </trkpt>
      <trkpt lat="48.64648" lon="6.24681">
        <ele>203</ele>
        <time>2020-08-16T09:22:32Z</time>
      </trkpt>
      <trkpt lat="48.64644" lon="6.24691">
        <ele>202</ele>
        <time>2020-08-16T09:22:34Z</time>
      </trkpt>
      <trkpt lat="48.64639" lon="6.24699">
        <ele>202</ele>
        <time>2020-08-16T09:22:36Z</time>
      </trkpt>
      <trkpt lat="48.64637" lon="6.24707">
        <ele>202</ele>
        <time>2020-08-16T09:22:38Z</time>
      </trkpt>
      <trkpt lat="48.64633" lon="6.24714">
        <ele>203</ele>
        <time>2020-08-16T09:22:40Z</time>
      </trkpt>
      <trkpt lat="48.6463" lon="6.24721">
        <ele>203</ele>
        <time>2020-08-16T09:22:42Z</time>
      </trkpt>
      <trkpt lat="48.64627" lon="6.2473">
        <ele>203</ele>
        <time>2020-08-16T09:22:44Z</time>
      </trkpt>
      <trkpt lat="48.64623" lon="6.24736">
        <ele>202</ele>
        <time>2020-08-16T09:22:46Z</time>
      </trkpt>
      <trkpt lat="48.64619" lon="6.24745">
        <ele>202</ele>
        <time>2020-08-16T09:22:49Z</time>
      </trkpt>
      <trkpt lat="48.64616" lon="6.24751">
        <ele>202</ele>
        <time>2020-08-16T09:22:51Z</time>
      </trkpt>
      <trkpt lat="48.64612" lon="6.24758">
        <ele>202</ele>
        <time>2020-08-16T09:22:54Z</time>
      </trkpt>
      <trkpt lat="48.64608" lon="6.24765">
        <ele>202</ele>
        <time>2020-08-16T09:22:56Z</time>
      </trkpt>
      <trkpt lat="48.64605" lon="6.24772">
        <ele>202</ele>
        <time>2020-08-16T09:22:59Z</time>
      </trkpt>
      <trkpt lat="48.64602" lon="6.2478">
        <ele>202</ele>
        <time>2020-08-16T09:23:01Z</time>
      </trkpt>
      <trkpt lat="48.64599" lon="6.24788">
        <ele>202</ele>
        <time>2020-08-16T09:23:03Z</time>
      </trkpt>
      <trkpt lat="48.64597" lon="6.24794">
        <ele>202</ele>
        <time>2020-08-16T09:23:04Z</time>
      </trkpt>
      <trkpt lat="48.64596" lon="6.24802">
        <ele>203</ele>
        <time>2020-08-16T09:23:07Z</time>
      </trkpt>
      <trkpt lat="48.64592" lon="6.24809">
        <ele>203</ele>
        <time>2020-08-16T09:23:10Z</time>
      </trkpt>
      <trkpt lat="48.64589" lon="6.24817">
        <ele>203</ele>
        <time>2020-08-16T09:23:12Z</time>
      </trkpt>
      <trkpt lat="48.64584" lon="6.24825">
        <ele>203</ele>
        <time>2020-08-16T09:23:14Z</time>
      </trkpt>
      <trkpt lat="48.64581" lon="6.24833">
        <ele>203</ele>
        <time>2020-08-16T09:23:16Z</time>
      </trkpt>
      <trkpt lat="48.64577" lon="6.24841">
        <ele>203</ele>
        <time>2020-08-16T09:23:18Z</time>
      </trkpt>
      <trkpt lat="48.64574" lon="6.24849">
        <ele>203</ele>
        <time>2020-08-16T09:23:20Z</time>
      </trkpt>
      <trkpt lat="48.64571" lon="6.24855">
        <ele>203</ele>
        <time>2020-08-16T09:23:22Z</time>
      </trkpt>
      <trkpt lat="48.64568" lon="6.24862">
        <ele>203</ele>
        <time>2020-08-16T09:23:24Z</time>
      </trkpt>
      <trkpt lat="48.64565" lon="6.24869">
        <ele>203</ele>
        <time>2020-08-16T09:23:26Z</time>
      </trkpt>
      <trkpt lat="48.64562" lon="6.24875">
        <ele>203</ele>
        <time>2020-08-16T09:23:28Z</time>
      </trkpt>
      <trkpt lat="48.6456" lon="6.24882">
        <ele>204</ele>
        <time>2020-08-16T09:23:30Z</time>
      </trkpt>
      <trkpt lat="48.64557" lon="6.24891">
        <ele>204</ele>
        <time>2020-08-16T09:23:33Z</time>
      </trkpt>
      <trkpt lat="48.64554" lon="6.24898">
        <ele>205</ele>
        <time>2020-08-16T09:23:36Z</time>
      </trkpt>
      <trkpt lat="48.64552" lon="6.24905">
        <ele>205</ele>
        <time>2020-08-16T09:23:38Z</time>
      </trkpt>
      <trkpt lat="48.64549" lon="6.2491">
        <ele>205</ele>
        <time>2020-08-16T09:23:40Z</time>
      </trkpt>
      <trkpt lat="48.64548" lon="6.24918">
        <ele>204</ele>
        <time>2020-08-16T09:23:42Z</time>
      </trkpt>
      <trkpt lat="48.64552" lon="6.24923">
        <ele>204</ele>
        <time>2020-08-16T09:23:59Z</time>
      </trkpt>
      <trkpt lat="48.64547" lon="6.24924">
        <ele>204</ele>
        <time>2020-08-16T09:24:13Z</time>
      </trkpt>
      <trkpt lat="48.6455" lon="6.24918">
        <ele>204</ele>
        <time>2020-08-16T09:24:24Z</time>
      </trkpt>
      <trkpt lat="48.6455" lon="6.24927">
        <ele>204</ele>
        <time>2020-08-16T09:25:00Z</time>
      </trkpt>
      <trkpt lat="48.64547" lon="6.24933">
        <ele>203</ele>
        <time>2020-08-16T09:25:02Z</time>
      </trkpt>
      <trkpt lat="48.64543" lon="6.2494">
        <ele>203</ele>
        <time>2020-08-16T09:25:04Z</time>
      </trkpt>
      <trkpt lat="48.64539" lon="6.24945">
        <ele>203</ele>
        <time>2020-08-16T09:25:06Z</time>
      </trkpt>
      <trkpt lat="48.64537" lon="6.24954">
        <ele>203</ele>
        <time>2020-08-16T09:25:08Z</time>
      </trkpt>
      <trkpt lat="48.64536" lon="6.24962">
        <ele>203</ele>
        <time>2020-08-16T09:25:10Z</time>
      </trkpt>
      <trkpt lat="48.64532" lon="6.24973">
        <ele>203</ele>
        <time>2020-08-16T09:25:12Z</time>
      </trkpt>
      <trkpt lat="48.64528" lon="6.24983">
        <ele>203</ele>
        <time>2020-08-16T09:25:14Z</time>
      </trkpt>
      <trkpt lat="48.64525" lon="6.24988">
        <ele>203</ele>
        <time>2020-08-16T09:25:15Z</time>
      </trkpt>
      <trkpt lat="48.64521" lon="6.25">
        <ele>203</ele>
        <time>2020-08-16T09:25:17Z</time>
      </trkpt>
      <trkpt lat="48.6452" lon="6.25009">
        <ele>203</ele>
        <time>2020-08-16T09:25:19Z</time>
      </trkpt>
      <trkpt lat="48.64516" lon="6.25019">
        <ele>203</ele>
        <time>2020-08-16T09:25:21Z</time>
      </trkpt>
      <trkpt lat="48.64514" lon="6.25028">
        <ele>203</ele>
        <time>2020-08-16T09:25:23Z</time>
      </trkpt>
      <trkpt lat="48.64511" lon="6.25037">
        <ele>203</ele>
        <time>2020-08-16T09:25:25Z</time>
      </trkpt>
      <trkpt lat="48.64509" lon="6.25047">
        <ele>203</ele>
        <time>2020-08-16T09:25:27Z</time>
      </trkpt>
      <trkpt lat="48.64507" lon="6.25054">
        <ele>203</ele>
        <time>2020-08-16T09:25:29Z</time>
      </trkpt>
      <trkpt lat="48.64503" lon="6.25067">
        <ele>203</ele>
        <time>2020-08-16T09:25:31Z</time>
      </trkpt>
      <trkpt lat="48.64497" lon="6.25075">
        <ele>203</ele>
        <time>2020-08-16T09:25:33Z</time>
      </trkpt>
      <trkpt lat="48.64494" lon="6.25085">
        <ele>203</ele>
        <time>2020-08-16T09:25:35Z</time>
      </trkpt>
      <trkpt lat="48.64491" lon="6.25094">
        <ele>203</ele>
        <time>2020-08-16T09:25:37Z</time>
      </trkpt>
      <trkpt lat="48.64488" lon="6.25103">
        <ele>203</ele>
        <time>2020-08-16T09:25:39Z</time>
      </trkpt>
      <trkpt lat="48.64486" lon="6.25112">
        <ele>203</ele>
        <time>2020-08-16T09:25:41Z</time>
      </trkpt>
      <trkpt lat="48.64484" lon="6.25122">
        <ele>203</ele>
        <time>2020-08-16T09:25:43Z</time>
      </trkpt>
      <trkpt lat="48.64481" lon="6.25128">
        <ele>203</ele>
        <time>2020-08-16T09:25:44Z</time>
      </trkpt>
      <trkpt lat="48.64476" lon="6.25137">
        <ele>203</ele>
        <time>2020-08-16T09:25:46Z</time>
      </trkpt>
      <trkpt lat="48.64473" lon="6.25145">
        <ele>203</ele>
        <time>2020-08-16T09:25:48Z</time>
      </trkpt>
      <trkpt lat="48.64473" lon="6.25153">
        <ele>202</ele>
        <time>2020-08-16T09:25:50Z</time>
      </trkpt>
      <trkpt lat="48.64472" lon="6.25161">
        <ele>202</ele>
        <time>2020-08-16T09:25:53Z</time>
      </trkpt>
      <trkpt lat="48.64471" lon="6.2517">
        <ele>202</ele>
        <time>2020-08-16T09:25:55Z</time>
      </trkpt>
      <trkpt lat="48.64468" lon="6.25175">
        <ele>202</ele>
        <time>2020-08-16T09:25:57Z</time>
      </trkpt>
      <trkpt lat="48.64466" lon="6.25182">
        <ele>202</ele>
        <time>2020-08-16T09:25:59Z</time>
      </trkpt>
      <trkpt lat="48.64462" lon="6.2519">
        <ele>202</ele>
        <time>2020-08-16T09:26:01Z</time>
      </trkpt>
      <trkpt lat="48.6446" lon="6.25201">
        <ele>202</ele>
        <time>2020-08-16T09:26:03Z</time>
      </trkpt>
      <trkpt lat="48.64459" lon="6.2521">
        <ele>202</ele>
        <time>2020-08-16T09:26:05Z</time>
      </trkpt>
      <trkpt lat="48.64456" lon="6.25218">
        <ele>202</ele>
        <time>2020-08-16T09:26:08Z</time>
      </trkpt>
      <trkpt lat="48.64454" lon="6.25227">
        <ele>201</ele>
        <time>2020-08-16T09:26:11Z</time>
      </trkpt>
      <trkpt lat="48.64451" lon="6.25233">
        <ele>202</ele>
        <time>2020-08-16T09:26:13Z</time>
      </trkpt>
      <trkpt lat="48.6445" lon="6.2524">
        <ele>202</ele>
        <time>2020-08-16T09:26:15Z</time>
      </trkpt>
      <trkpt lat="48.64447" lon="6.2525">
        <ele>202</ele>
        <time>2020-08-16T09:26:18Z</time>
      </trkpt>
      <trkpt lat="48.64445" lon="6.25258">
        <ele>202</ele>
        <time>2020-08-16T09:26:20Z</time>
      </trkpt>
      <trkpt lat="48.64443" lon="6.25266">
        <ele>202</ele>
        <time>2020-08-16T09:26:22Z</time>
      </trkpt>
      <trkpt lat="48.64441" lon="6.25275">
        <ele>202</ele>
        <time>2020-08-16T09:26:24Z</time>
      </trkpt>
      <trkpt lat="48.64439" lon="6.25283">
        <ele>202</ele>
        <time>2020-08-16T09:26:26Z</time>
      </trkpt>
      <trkpt lat="48.64438" lon="6.25292">
        <ele>202</ele>
        <time>2020-08-16T09:26:28Z</time>
      </trkpt>
      <trkpt lat="48.64437" lon="6.25299">
        <ele>202</ele>
        <time>2020-08-16T09:26:30Z</time>
      </trkpt>
      <trkpt lat="48.64434" lon="6.25307">
        <ele>202</ele>
        <time>2020-08-16T09:26:32Z</time>
      </trkpt>
      <trkpt lat="48.64432" lon="6.25313">
        <ele>202</ele>
        <time>2020-08-16T09:26:34Z</time>
      </trkpt>
      <trkpt lat="48.64429" lon="6.2532">
        <ele>202</ele>
        <time>2020-08-16T09:26:37Z</time>
      </trkpt>
      <trkpt lat="48.64426" lon="6.25328">
        <ele>202</ele>
        <time>2020-08-16T09:26:39Z</time>
      </trkpt>
      <trkpt lat="48.64426" lon="6.25335">
        <ele>202</ele>
        <time>2020-08-16T09:26:41Z</time>
      </trkpt>
      <trkpt lat="48.64424" lon="6.25343">
        <ele>202</ele>
        <time>2020-08-16T09:26:43Z</time>
      </trkpt>
      <trkpt lat="48.64422" lon="6.2535">
        <ele>202</ele>
        <time>2020-08-16T09:26:45Z</time>
      </trkpt>
      <trkpt lat="48.64419" lon="6.25359">
        <ele>201</ele>
        <time>2020-08-16T09:26:47Z</time>
      </trkpt>
      <trkpt lat="48.64417" lon="6.25371">
        <ele>201</ele>
        <time>2020-08-16T09:26:49Z</time>
      </trkpt>
      <trkpt lat="48.64415" lon="6.25377">
        <ele>201</ele>
        <time>2020-08-16T09:26:50Z</time>
      </trkpt>
      <trkpt lat="48.64412" lon="6.25387">
        <ele>201</ele>
        <time>2020-08-16T09:26:52Z</time>
      </trkpt>
      <trkpt lat="48.64411" lon="6.25398">
        <ele>201</ele>
        <time>2020-08-16T09:26:54Z</time>
      </trkpt>
      <trkpt lat="48.64409" lon="6.25409">
        <ele>202</ele>
        <time>2020-08-16T09:26:56Z</time>
      </trkpt>
      <trkpt lat="48.64407" lon="6.2542">
        <ele>202</ele>
        <time>2020-08-16T09:26:58Z</time>
      </trkpt>
      <trkpt lat="48.64405" lon="6.25431">
        <ele>202</ele>
        <time>2020-08-16T09:27:00Z</time>
      </trkpt>
      <trkpt lat="48.64402" lon="6.25442">
        <ele>202</ele>
        <time>2020-08-16T09:27:02Z</time>
      </trkpt>
      <trkpt lat="48.644" lon="6.25453">
        <ele>202</ele>
        <time>2020-08-16T09:27:04Z</time>
      </trkpt>
      <trkpt lat="48.64395" lon="6.25465">
        <ele>202</ele>
        <time>2020-08-16T09:27:06Z</time>
      </trkpt>
      <trkpt lat="48.64393" lon="6.25477">
        <ele>202</ele>
        <time>2020-08-16T09:27:08Z</time>
      </trkpt>
      <trkpt lat="48.64393" lon="6.25487">
        <ele>202</ele>
        <time>2020-08-16T09:27:10Z</time>
      </trkpt>
      <trkpt lat="48.64389" lon="6.25499">
        <ele>202</ele>
        <time>2020-08-16T09:27:12Z</time>
      </trkpt>
      <trkpt lat="48.64387" lon="6.25511">
        <ele>202</ele>
        <time>2020-08-16T09:27:14Z</time>
      </trkpt>
      <trkpt lat="48.64386" lon="6.25521">
        <ele>201</ele>
        <time>2020-08-16T09:27:16Z</time>
      </trkpt>
      <trkpt lat="48.64384" lon="6.25533">
        <ele>201</ele>
        <time>2020-08-16T09:27:18Z</time>
      </trkpt>
      <trkpt lat="48.64383" lon="6.25545">
        <ele>202</ele>
        <time>2020-08-16T09:27:20Z</time>
      </trkpt>
      <trkpt lat="48.64381" lon="6.25558">
        <ele>202</ele>
        <time>2020-08-16T09:27:22Z</time>
      </trkpt>
      <trkpt lat="48.64378" lon="6.2557">
        <ele>202</ele>
        <time>2020-08-16T09:27:24Z</time>
      </trkpt>
      <trkpt lat="48.64377" lon="6.25577">
        <ele>201</ele>
        <time>2020-08-16T09:27:25Z</time>
      </trkpt>
      <trkpt lat="48.64376" lon="6.25584">
        <ele>202</ele>
        <time>2020-08-16T09:27:26Z</time>
      </trkpt>
      <trkpt lat="48.64375" lon="6.2559">
        <ele>202</ele>
        <time>2020-08-16T09:27:27Z</time>
      </trkpt>
      <trkpt lat="48.64373" lon="6.25597">
        <ele>202</ele>
        <time>2020-08-16T09:27:28Z</time>
      </trkpt>
      <trkpt lat="48.64372" lon="6.25609">
        <ele>203</ele>
        <time>2020-08-16T09:27:30Z</time>
      </trkpt>
      <trkpt lat="48.6437" lon="6.2562">
        <ele>203</ele>
        <time>2020-08-16T09:27:32Z</time>
      </trkpt>
      <trkpt lat="48.64369" lon="6.25628">
        <ele>202</ele>
        <time>2020-08-16T09:27:33Z</time>
      </trkpt>
      <trkpt lat="48.64366" lon="6.2564">
        <ele>202</ele>
        <time>2020-08-16T09:27:35Z</time>
      </trkpt>
      <trkpt lat="48.64363" lon="6.25648">
        <ele>203</ele>
        <time>2020-08-16T09:27:37Z</time>
      </trkpt>
      <trkpt lat="48.64362" lon="6.2566">
        <ele>202</ele>
        <time>2020-08-16T09:27:39Z</time>
      </trkpt>
      <trkpt lat="48.6436" lon="6.25667">
        <ele>202</ele>
        <time>2020-08-16T09:27:40Z</time>
      </trkpt>
      <trkpt lat="48.64358" lon="6.25678">
        <ele>202</ele>
        <time>2020-08-16T09:27:42Z</time>
      </trkpt>
      <trkpt lat="48.64354" lon="6.25689">
        <ele>202</ele>
        <time>2020-08-16T09:27:44Z</time>
      </trkpt>
      <trkpt lat="48.64353" lon="6.25696">
        <ele>202</ele>
        <time>2020-08-16T09:27:45Z</time>
      </trkpt>
      <trkpt lat="48.6435" lon="6.25707">
        <ele>202</ele>
        <time>2020-08-16T09:27:47Z</time>
      </trkpt>
      <trkpt lat="48.64349" lon="6.2572">
        <ele>202</ele>
        <time>2020-08-16T09:27:49Z</time>
      </trkpt>
      <trkpt lat="48.64348" lon="6.25733">
        <ele>202</ele>
        <time>2020-08-16T09:27:51Z</time>
      </trkpt>
      <trkpt lat="48.64344" lon="6.25744">
        <ele>202</ele>
        <time>2020-08-16T09:27:53Z</time>
      </trkpt>
      <trkpt lat="48.64343" lon="6.25752">
        <ele>202</ele>
        <time>2020-08-16T09:27:54Z</time>
      </trkpt>
      <trkpt lat="48.64344" lon="6.25759">
        <ele>203</ele>
        <time>2020-08-16T09:27:55Z</time>
      </trkpt>
      <trkpt lat="48.64342" lon="6.2577">
        <ele>203</ele>
        <time>2020-08-16T09:27:57Z</time>
      </trkpt>
      <trkpt lat="48.64341" lon="6.25784">
        <ele>203</ele>
        <time>2020-08-16T09:27:59Z</time>
      </trkpt>
      <trkpt lat="48.64339" lon="6.25791">
        <ele>203</ele>
        <time>2020-08-16T09:28:00Z</time>
      </trkpt>
      <trkpt lat="48.64337" lon="6.25798">
        <ele>203</ele>
        <time>2020-08-16T09:28:01Z</time>
      </trkpt>
      <trkpt lat="48.64336" lon="6.25809">
        <ele>203</ele>
        <time>2020-08-16T09:28:03Z</time>
      </trkpt>
      <trkpt lat="48.64334" lon="6.2582">
        <ele>202</ele>
        <time>2020-08-16T09:28:05Z</time>
      </trkpt>
      <trkpt lat="48.64331" lon="6.25833">
        <ele>203</ele>
        <time>2020-08-16T09:28:07Z</time>
      </trkpt>
      <trkpt lat="48.6433" lon="6.2584">
        <ele>203</ele>
        <time>2020-08-16T09:28:08Z</time>
      </trkpt>
      <trkpt lat="48.64328" lon="6.25852">
        <ele>203</ele>
        <time>2020-08-16T09:28:10Z</time>
      </trkpt>
      <trkpt lat="48.64325" lon="6.25861">
        <ele>202</ele>
        <time>2020-08-16T09:28:12Z</time>
      </trkpt>
      <trkpt lat="48.64323" lon="6.25874">
        <ele>202</ele>
        <time>2020-08-16T09:28:14Z</time>
      </trkpt>
      <trkpt lat="48.6432" lon="6.25886">
        <ele>202</ele>
        <time>2020-08-16T09:28:16Z</time>
      </trkpt>
      <trkpt lat="48.64318" lon="6.25898">
        <ele>202</ele>
        <time>2020-08-16T09:28:18Z</time>
      </trkpt>
      <trkpt lat="48.64316" lon="6.25908">
        <ele>202</ele>
        <time>2020-08-16T09:28:20Z</time>
      </trkpt>
      <trkpt lat="48.64314" lon="6.2592">
        <ele>202</ele>
        <time>2020-08-16T09:28:22Z</time>
      </trkpt>
      <trkpt lat="48.64311" lon="6.25931">
        <ele>202</ele>
        <time>2020-08-16T09:28:24Z</time>
      </trkpt>
      <trkpt lat="48.6431" lon="6.25942">
        <ele>202</ele>
        <time>2020-08-16T09:28:26Z</time>
      </trkpt>
      <trkpt lat="48.64309" lon="6.25949">
        <ele>202</ele>
        <time>2020-08-16T09:28:27Z</time>
      </trkpt>
      <trkpt lat="48.64307" lon="6.25959">
        <ele>202</ele>
        <time>2020-08-16T09:28:29Z</time>
      </trkpt>
      <trkpt lat="48.64306" lon="6.25968">
        <ele>202</ele>
        <time>2020-08-16T09:28:31Z</time>
      </trkpt>
      <trkpt lat="48.64302" lon="6.25979">
        <ele>202</ele>
        <time>2020-08-16T09:28:33Z</time>
      </trkpt>
      <trkpt lat="48.643" lon="6.25989">
        <ele>202</ele>
        <time>2020-08-16T09:28:35Z</time>
      </trkpt>
      <trkpt lat="48.64298" lon="6.26">
        <ele>202</ele>
        <time>2020-08-16T09:28:37Z</time>
      </trkpt>
      <trkpt lat="48.64296" lon="6.2601">
        <ele>202</ele>
        <time>2020-08-16T09:28:39Z</time>
      </trkpt>
      <trkpt lat="48.64294" lon="6.26021">
        <ele>202</ele>
        <time>2020-08-16T09:28:41Z</time>
      </trkpt>
      <trkpt lat="48.64291" lon="6.26032">
        <ele>203</ele>
        <time>2020-08-16T09:28:43Z</time>
      </trkpt>
      <trkpt lat="48.6429" lon="6.26043">
        <ele>202</ele>
        <time>2020-08-16T09:28:45Z</time>
      </trkpt>
      <trkpt lat="48.64289" lon="6.26051">
        <ele>202</ele>
        <time>2020-08-16T09:28:46Z</time>
      </trkpt>
      <trkpt lat="48.64289" lon="6.26058">
        <ele>202</ele>
        <time>2020-08-16T09:28:47Z</time>
      </trkpt>
      <trkpt lat="48.64288" lon="6.2607">
        <ele>202</ele>
        <time>2020-08-16T09:28:49Z</time>
      </trkpt>
      <trkpt lat="48.64286" lon="6.26079">
        <ele>202</ele>
        <time>2020-08-16T09:28:51Z</time>
      </trkpt>
      <trkpt lat="48.64285" lon="6.26086">
        <ele>202</ele>
        <time>2020-08-16T09:28:52Z</time>
      </trkpt>
      <trkpt lat="48.64283" lon="6.26097">
        <ele>203</ele>
        <time>2020-08-16T09:28:54Z</time>
      </trkpt>
      <trkpt lat="48.64282" lon="6.2611">
        <ele>203</ele>
        <time>2020-08-16T09:28:56Z</time>
      </trkpt>
      <trkpt lat="48.64281" lon="6.26121">
        <ele>203</ele>
        <time>2020-08-16T09:28:58Z</time>
      </trkpt>
      <trkpt lat="48.64278" lon="6.26133">
        <ele>203</ele>
        <time>2020-08-16T09:29:00Z</time>
      </trkpt>
      <trkpt lat="48.64277" lon="6.26143">
        <ele>203</ele>
        <time>2020-08-16T09:29:02Z</time>
      </trkpt>
      <trkpt lat="48.64276" lon="6.26152">
        <ele>203</ele>
        <time>2020-08-16T09:29:04Z</time>
      </trkpt>
      <trkpt lat="48.64275" lon="6.26162">
        <ele>203</ele>
        <time>2020-08-16T09:29:06Z</time>
      </trkpt>
      <trkpt lat="48.64273" lon="6.26174">
        <ele>203</ele>
        <time>2020-08-16T09:29:08Z</time>
      </trkpt>
      <trkpt lat="48.64272" lon="6.26186">
        <ele>203</ele>
        <time>2020-08-16T09:29:10Z</time>
      </trkpt>
      <trkpt lat="48.64272" lon="6.26198">
        <ele>203</ele>
        <time>2020-08-16T09:29:12Z</time>
      </trkpt>
      <trkpt lat="48.64271" lon="6.26211">
        <ele>203</ele>
        <time>2020-08-16T09:29:14Z</time>
      </trkpt>
      <trkpt lat="48.64271" lon="6.26222">
        <ele>203</ele>
        <time>2020-08-16T09:29:16Z</time>
      </trkpt>
      <trkpt lat="48.64271" lon="6.26229">
        <ele>203</ele>
        <time>2020-08-16T09:29:17Z</time>
      </trkpt>
      <trkpt lat="48.64271" lon="6.26241">
        <ele>204</ele>
        <time>2020-08-16T09:29:19Z</time>
      </trkpt>
      <trkpt lat="48.6427" lon="6.2625">
        <ele>205</ele>
        <time>2020-08-16T09:29:21Z</time>
      </trkpt>
      <trkpt lat="48.64268" lon="6.26261">
        <ele>205</ele>
        <time>2020-08-16T09:29:23Z</time>
      </trkpt>
      <trkpt lat="48.64267" lon="6.26271">
        <ele>205</ele>
        <time>2020-08-16T09:29:25Z</time>
      </trkpt>
      <trkpt lat="48.64265" lon="6.26279">
        <ele>205</ele>
        <time>2020-08-16T09:29:27Z</time>
      </trkpt>
      <trkpt lat="48.64264" lon="6.26286">
        <ele>205</ele>
        <time>2020-08-16T09:29:29Z</time>
      </trkpt>
      <trkpt lat="48.64262" lon="6.26295">
        <ele>205</ele>
        <time>2020-08-16T09:29:31Z</time>
      </trkpt>
      <trkpt lat="48.64259" lon="6.26303">
        <ele>205</ele>
        <time>2020-08-16T09:29:33Z</time>
      </trkpt>
      <trkpt lat="48.64257" lon="6.2631">
        <ele>206</ele>
        <time>2020-08-16T09:29:36Z</time>
      </trkpt>
      <trkpt lat="48.64254" lon="6.26316">
        <ele>206</ele>
        <time>2020-08-16T09:29:40Z</time>
      </trkpt>
      <trkpt lat="48.64251" lon="6.26323">
        <ele>206</ele>
        <time>2020-08-16T09:29:44Z</time>
      </trkpt>
      <trkpt lat="48.64248" lon="6.26328">
        <ele>206</ele>
        <time>2020-08-16T09:29:51Z</time>
      </trkpt>
      <trkpt lat="48.64246" lon="6.2634">
        <ele>207</ele>
        <time>2020-08-16T09:30:33Z</time>
      </trkpt>
      <trkpt lat="48.64243" lon="6.26349">
        <ele>207</ele>
        <time>2020-08-16T09:31:06Z</time>
      </trkpt>
      <trkpt lat="48.64241" lon="6.26358">
        <ele>207</ele>
        <time>2020-08-16T09:31:09Z</time>
      </trkpt>
      <trkpt lat="48.64241" lon="6.26366">
        <ele>207</ele>
        <time>2020-08-16T09:31:13Z</time>
      </trkpt>
      <trkpt lat="48.6424" lon="6.26373">
        <ele>207</ele>
        <time>2020-08-16T09:31:16Z</time>
      </trkpt>
      <trkpt lat="48.64236" lon="6.26381">
        <ele>207</ele>
        <time>2020-08-16T09:31:19Z</time>
      </trkpt>
      <trkpt lat="48.64238" lon="6.2639">
        <ele>207</ele>
        <time>2020-08-16T09:31:22Z</time>
      </trkpt>
      <trkpt lat="48.64237" lon="6.26398">
        <ele>207</ele>
        <time>2020-08-16T09:31:24Z</time>
      </trkpt>
      <trkpt lat="48.64237" lon="6.26406">
        <ele>207</ele>
        <time>2020-08-16T09:31:26Z</time>
      </trkpt>
      <trkpt lat="48.64236" lon="6.26415">
        <ele>208</ele>
        <time>2020-08-16T09:31:28Z</time>
      </trkpt>
      <trkpt lat="48.64235" lon="6.26424">
        <ele>208</ele>
        <time>2020-08-16T09:31:30Z</time>
      </trkpt>
      <trkpt lat="48.64234" lon="6.26434">
        <ele>208</ele>
        <time>2020-08-16T09:31:32Z</time>
      </trkpt>
      <trkpt lat="48.64233" lon="6.26444">
        <ele>208</ele>
        <time>2020-08-16T09:31:34Z</time>
      </trkpt>
      <trkpt lat="48.64232" lon="6.26454">
        <ele>207</ele>
        <time>2020-08-16T09:31:36Z</time>
      </trkpt>
      <trkpt lat="48.6423" lon="6.26464">
        <ele>208</ele>
        <time>2020-08-16T09:31:38Z</time>
      </trkpt>
      <trkpt lat="48.6423" lon="6.26474">
        <ele>209</ele>
        <time>2020-08-16T09:31:40Z</time>
      </trkpt>
      <trkpt lat="48.64229" lon="6.26484">
        <ele>209</ele>
        <time>2020-08-16T09:31:42Z</time>
      </trkpt>
      <trkpt lat="48.6423" lon="6.26492">
        <ele>209</ele>
        <time>2020-08-16T09:31:44Z</time>
      </trkpt>
      <trkpt lat="48.64229" lon="6.265">
        <ele>209</ele>
        <time>2020-08-16T09:31:46Z</time>
      </trkpt>
      <trkpt lat="48.64228" lon="6.26509">
        <ele>209</ele>
        <time>2020-08-16T09:31:48Z</time>
      </trkpt>
      <trkpt lat="48.64226" lon="6.26518">
        <ele>209</ele>
        <time>2020-08-16T09:31:50Z</time>
      </trkpt>
      <trkpt lat="48.64226" lon="6.26528">
        <ele>209</ele>
        <time>2020-08-16T09:31:52Z</time>
      </trkpt>
      <trkpt lat="48.64224" lon="6.26535">
        <ele>209</ele>
        <time>2020-08-16T09:31:54Z</time>
      </trkpt>
      <trkpt lat="48.64223" lon="6.26541">
        <ele>209</ele>
        <time>2020-08-16T09:31:56Z</time>
      </trkpt>
      <trkpt lat="48.64223" lon="6.2655">
        <ele>210</ele>
        <time>2020-08-16T09:31:59Z</time>
      </trkpt>
      <trkpt lat="48.64222" lon="6.26559">
        <ele>210</ele>
        <time>2020-08-16T09:32:02Z</time>
      </trkpt>
      <trkpt lat="48.64224" lon="6.26568">
        <ele>210</ele>
        <time>2020-08-16T09:32:04Z</time>
      </trkpt>
      <trkpt lat="48.64223" lon="6.26579">
        <ele>210</ele>
        <time>2020-08-16T09:32:06Z</time>
      </trkpt>
      <trkpt lat="48.64224" lon="6.2659">
        <ele>210</ele>
        <time>2020-08-16T09:32:08Z</time>
      </trkpt>
      <trkpt lat="48.64224" lon="6.26602">
        <ele>210</ele>
        <time>2020-08-16T09:32:10Z</time>
      </trkpt>
      <trkpt lat="48.64224" lon="6.26615">
        <ele>209</ele>
        <time>2020-08-16T09:32:12Z</time>
      </trkpt>
      <trkpt lat="48.64224" lon="6.26628">
        <ele>209</ele>
        <time>2020-08-16T09:32:14Z</time>
      </trkpt>
      <trkpt lat="48.64224" lon="6.2664">
        <ele>209</ele>
        <time>2020-08-16T09:32:16Z</time>
      </trkpt>
      <trkpt lat="48.64224" lon="6.26647">
        <ele>210</ele>
        <time>2020-08-16T09:32:17Z</time>
      </trkpt>
      <trkpt lat="48.64224" lon="6.26654">
        <ele>210</ele>
        <time>2020-08-16T09:32:18Z</time>
      </trkpt>
      <trkpt lat="48.64224" lon="6.26661">
        <ele>211</ele>
        <time>2020-08-16T09:32:19Z</time>
      </trkpt>
      <trkpt lat="48.64225" lon="6.26673">
        <ele>210</ele>
        <time>2020-08-16T09:32:21Z</time>
      </trkpt>
      <trkpt lat="48.64224" lon="6.26684">
        <ele>208</ele>
        <time>2020-08-16T09:32:23Z</time>
      </trkpt>
      <trkpt lat="48.64223" lon="6.26695">
        <ele>208</ele>
        <time>2020-08-16T09:32:25Z</time>
      </trkpt>
      <trkpt lat="48.64222" lon="6.26708">
        <ele>208</ele>
        <time>2020-08-16T09:32:27Z</time>
      </trkpt>
      <trkpt lat="48.64222" lon="6.26716">
        <ele>208</ele>
        <time>2020-08-16T09:32:28Z</time>
      </trkpt>
      <trkpt lat="48.64223" lon="6.26723">
        <ele>208</ele>
        <time>2020-08-16T09:32:29Z</time>
      </trkpt>
      <trkpt lat="48.64225" lon="6.26735">
        <ele>209</ele>
        <time>2020-08-16T09:32:31Z</time>
      </trkpt>
      <trkpt lat="48.64227" lon="6.26747">
        <ele>210</ele>
        <time>2020-08-16T09:32:33Z</time>
      </trkpt>
      <trkpt lat="48.64228" lon="6.26761">
        <ele>209</ele>
        <time>2020-08-16T09:32:35Z</time>
      </trkpt>
      <trkpt lat="48.6423" lon="6.26768">
        <ele>209</ele>
        <time>2020-08-16T09:32:36Z</time>
      </trkpt>
      <trkpt lat="48.64233" lon="6.2678">
        <ele>209</ele>
        <time>2020-08-16T09:32:38Z</time>
      </trkpt>
      <trkpt lat="48.64235" lon="6.26791">
        <ele>209</ele>
        <time>2020-08-16T09:32:40Z</time>
      </trkpt>
      <trkpt lat="48.64237" lon="6.26802">
        <ele>209</ele>
        <time>2020-08-16T09:32:42Z</time>
      </trkpt>
      <trkpt lat="48.6424" lon="6.26814">
        <ele>209</ele>
        <time>2020-08-16T09:32:44Z</time>
      </trkpt>
      <trkpt lat="48.64244" lon="6.26824">
        <ele>209</ele>
        <time>2020-08-16T09:32:46Z</time>
      </trkpt>
      <trkpt lat="48.64246" lon="6.26833">
        <ele>209</ele>
        <time>2020-08-16T09:32:48Z</time>
      </trkpt>
      <trkpt lat="48.64249" lon="6.26844">
        <ele>209</ele>
        <time>2020-08-16T09:32:50Z</time>
      </trkpt>
      <trkpt lat="48.64253" lon="6.26855">
        <ele>210</ele>
        <time>2020-08-16T09:32:52Z</time>
      </trkpt>
      <trkpt lat="48.64257" lon="6.26865">
        <ele>210</ele>
        <time>2020-08-16T09:32:54Z</time>
      </trkpt>
      <trkpt lat="48.64261" lon="6.26876">
        <ele>209</ele>
        <time>2020-08-16T09:32:56Z</time>
      </trkpt>
      <trkpt lat="48.64265" lon="6.26886">
        <ele>209</ele>
        <time>2020-08-16T09:32:58Z</time>
      </trkpt>
      <trkpt lat="48.64269" lon="6.26895">
        <ele>208</ele>
        <time>2020-08-16T09:33:00Z</time>
      </trkpt>
      <trkpt lat="48.64274" lon="6.26903">
        <ele>208</ele>
        <time>2020-08-16T09:33:02Z</time>
      </trkpt>
      <trkpt lat="48.64278" lon="6.26913">
        <ele>208</ele>
        <time>2020-08-16T09:33:04Z</time>
      </trkpt>
      <trkpt lat="48.64282" lon="6.26922">
        <ele>208</ele>
        <time>2020-08-16T09:33:06Z</time>
      </trkpt>
      <trkpt lat="48.64286" lon="6.26931">
        <ele>208</ele>
        <time>2020-08-16T09:33:08Z</time>
      </trkpt>
      <trkpt lat="48.6429" lon="6.2694">
        <ele>208</ele>
        <time>2020-08-16T09:33:10Z</time>
      </trkpt>
      <trkpt lat="48.64293" lon="6.26949">
        <ele>208</ele>
        <time>2020-08-16T09:33:12Z</time>
      </trkpt>
      <trkpt lat="48.64297" lon="6.26958">
        <ele>208</ele>
        <time>2020-08-16T09:33:14Z</time>
      </trkpt>
      <trkpt lat="48.643" lon="6.26968">
        <ele>207</ele>
        <time>2020-08-16T09:33:16Z</time>
      </trkpt>
      <trkpt lat="48.64304" lon="6.26977">
        <ele>208</ele>
        <time>2020-08-16T09:33:18Z</time>
      </trkpt>
      <trkpt lat="48.64307" lon="6.26985">
        <ele>209</ele>
        <time>2020-08-16T09:33:20Z</time>
      </trkpt>
      <trkpt lat="48.64311" lon="6.26994">
        <ele>209</ele>
        <time>2020-08-16T09:33:22Z</time>
      </trkpt>
      <trkpt lat="48.64315" lon="6.27004">
        <ele>208</ele>
        <time>2020-08-16T09:33:24Z</time>
      </trkpt>
      <trkpt lat="48.64319" lon="6.27013">
        <ele>208</ele>
        <time>2020-08-16T09:33:26Z</time>
      </trkpt>
      <trkpt lat="48.64324" lon="6.27022">
        <ele>208</ele>
        <time>2020-08-16T09:33:28Z</time>
      </trkpt>
      <trkpt lat="48.64328" lon="6.27032">
        <ele>207</ele>
        <time>2020-08-16T09:33:30Z</time>
      </trkpt>
      <trkpt lat="48.64331" lon="6.27041">
        <ele>207</ele>
        <time>2020-08-16T09:33:32Z</time>
      </trkpt>
      <trkpt lat="48.64336" lon="6.27047">
        <ele>207</ele>
        <time>2020-08-16T09:33:34Z</time>
      </trkpt>
      <trkpt lat="48.6434" lon="6.27055">
        <ele>207</ele>
        <time>2020-08-16T09:33:36Z</time>
      </trkpt>
      <trkpt lat="48.64344" lon="6.27063">
        <ele>206</ele>
        <time>2020-08-16T09:33:38Z</time>
      </trkpt>
      <trkpt lat="48.64348" lon="6.2707">
        <ele>205</ele>
        <time>2020-08-16T09:33:40Z</time>
      </trkpt>
      <trkpt lat="48.64351" lon="6.27081">
        <ele>204</ele>
        <time>2020-08-16T09:33:42Z</time>
      </trkpt>
      <trkpt lat="48.64355" lon="6.27089">
        <ele>201</ele>
        <time>2020-08-16T09:33:44Z</time>
      </trkpt>
      <trkpt lat="48.64358" lon="6.27094">
        <ele>198</ele>
        <time>2020-08-16T09:33:46Z</time>
      </trkpt>
      <trkpt lat="48.64357" lon="6.27101">
        <ele>198</ele>
        <time>2020-08-16T09:34:01Z</time>
      </trkpt>
      <trkpt lat="48.64361" lon="6.27097">
        <ele>197</ele>
        <time>2020-08-16T09:34:12Z</time>
      </trkpt>
      <trkpt lat="48.64361" lon="6.27104">
        <ele>197</ele>
        <time>2020-08-16T09:34:15Z</time>
      </trkpt>
      <trkpt lat="48.64365" lon="6.27109">
        <ele>197</ele>
        <time>2020-08-16T09:35:07Z</time>
      </trkpt>
      <trkpt lat="48.64369" lon="6.27114">
        <ele>197</ele>
        <time>2020-08-16T09:35:11Z</time>
      </trkpt>
      <trkpt lat="48.64374" lon="6.27121">
        <ele>197</ele>
        <time>2020-08-16T09:35:14Z</time>
      </trkpt>
      <trkpt lat="48.64378" lon="6.27128">
        <ele>197</ele>
        <time>2020-08-16T09:35:17Z</time>
      </trkpt>
      <trkpt lat="48.64383" lon="6.27134">
        <ele>197</ele>
        <time>2020-08-16T09:35:19Z</time>
      </trkpt>
      <trkpt lat="48.64387" lon="6.27142">
        <ele>197</ele>
        <time>2020-08-16T09:35:21Z</time>
      </trkpt>
      <trkpt lat="48.64391" lon="6.2715">
        <ele>197</ele>
        <time>2020-08-16T09:35:23Z</time>
      </trkpt>
      <trkpt lat="48.64393" lon="6.27158">
        <ele>197</ele>
        <time>2020-08-16T09:35:25Z</time>
      </trkpt>
      <trkpt lat="48.64398" lon="6.27168">
        <ele>197</ele>
        <time>2020-08-16T09:35:27Z</time>
      </trkpt>
      <trkpt lat="48.64403" lon="6.27177">
        <ele>198</ele>
        <time>2020-08-16T09:35:29Z</time>
      </trkpt>
      <trkpt lat="48.64407" lon="6.27186">
        <ele>202</ele>
        <time>2020-08-16T09:35:31Z</time>
      </trkpt>
      <trkpt lat="48.6441" lon="6.27194">
        <ele>204</ele>
        <time>2020-08-16T09:35:33Z</time>
      </trkpt>
      <trkpt lat="48.64414" lon="6.27202">
        <ele>206</ele>
        <time>2020-08-16T09:35:35Z</time>
      </trkpt>
      <trkpt lat="48.64418" lon="6.27206">
        <ele>206</ele>
        <time>2020-08-16T09:35:37Z</time>
      </trkpt>
      <trkpt lat="48.64422" lon="6.27212">
        <ele>207</ele>
        <time>2020-08-16T09:35:39Z</time>
      </trkpt>
      <trkpt lat="48.64427" lon="6.27221">
        <ele>207</ele>
        <time>2020-08-16T09:35:41Z</time>
      </trkpt>
      <trkpt lat="48.64431" lon="6.27229">
        <ele>208</ele>
        <time>2020-08-16T09:35:43Z</time>
      </trkpt>
      <trkpt lat="48.64436" lon="6.27237">
        <ele>208</ele>
        <time>2020-08-16T09:35:45Z</time>
      </trkpt>
      <trkpt lat="48.64439" lon="6.27246">
        <ele>208</ele>
        <time>2020-08-16T09:35:47Z</time>
      </trkpt>
      <trkpt lat="48.64443" lon="6.27252">
        <ele>208</ele>
        <time>2020-08-16T09:35:49Z</time>
      </trkpt>
      <trkpt lat="48.64447" lon="6.27258">
        <ele>208</ele>
        <time>2020-08-16T09:35:51Z</time>
      </trkpt>
      <trkpt lat="48.64452" lon="6.27266">
        <ele>209</ele>
        <time>2020-08-16T09:35:53Z</time>
      </trkpt>
      <trkpt lat="48.64457" lon="6.27273">
        <ele>209</ele>
        <time>2020-08-16T09:35:55Z</time>
      </trkpt>
      <trkpt lat="48.64459" lon="6.27282">
        <ele>209</ele>
        <time>2020-08-16T09:35:57Z</time>
      </trkpt>
      <trkpt lat="48.64463" lon="6.2729">
        <ele>209</ele>
        <time>2020-08-16T09:35:59Z</time>
      </trkpt>
      <trkpt lat="48.64467" lon="6.27297">
        <ele>209</ele>
        <time>2020-08-16T09:36:01Z</time>
      </trkpt>
      <trkpt lat="48.64471" lon="6.27304">
        <ele>209</ele>
        <time>2020-08-16T09:36:03Z</time>
      </trkpt>
      <trkpt lat="48.64474" lon="6.2731">
        <ele>209</ele>
        <time>2020-08-16T09:36:05Z</time>
      </trkpt>
      <trkpt lat="48.64478" lon="6.27318">
        <ele>209</ele>
        <time>2020-08-16T09:36:07Z</time>
      </trkpt>
      <trkpt lat="48.64481" lon="6.27326">
        <ele>209</ele>
        <time>2020-08-16T09:36:09Z</time>
      </trkpt>
      <trkpt lat="48.64485" lon="6.27334">
        <ele>209</ele>
        <time>2020-08-16T09:36:11Z</time>
      </trkpt>
      <trkpt lat="48.64489" lon="6.27342">
        <ele>209</ele>
        <time>2020-08-16T09:36:13Z</time>
      </trkpt>
      <trkpt lat="48.64492" lon="6.27351">
        <ele>209</ele>
        <time>2020-08-16T09:36:15Z</time>
      </trkpt>
      <trkpt lat="48.64497" lon="6.27358">
        <ele>209</ele>
        <time>2020-08-16T09:36:17Z</time>
      </trkpt>
      <trkpt lat="48.645" lon="6.27365">
        <ele>209</ele>
        <time>2020-08-16T09:36:19Z</time>
      </trkpt>
      <trkpt lat="48.64505" lon="6.27372">
        <ele>208</ele>
        <time>2020-08-16T09:36:21Z</time>
      </trkpt>
      <trkpt lat="48.64508" lon="6.27381">
        <ele>208</ele>
        <time>2020-08-16T09:36:23Z</time>
      </trkpt>
      <trkpt lat="48.64511" lon="6.27391">
        <ele>208</ele>
        <time>2020-08-16T09:36:25Z</time>
      </trkpt>
      <trkpt lat="48.64514" lon="6.274">
        <ele>208</ele>
        <time>2020-08-16T09:36:27Z</time>
      </trkpt>
      <trkpt lat="48.64516" lon="6.27412">
        <ele>208</ele>
        <time>2020-08-16T09:36:29Z</time>
      </trkpt>
      <trkpt lat="48.64519" lon="6.27422">
        <ele>208</ele>
        <time>2020-08-16T09:36:31Z</time>
      </trkpt>
      <trkpt lat="48.64522" lon="6.27431">
        <ele>208</ele>
        <time>2020-08-16T09:36:33Z</time>
      </trkpt>
      <trkpt lat="48.64525" lon="6.27439">
        <ele>208</ele>
        <time>2020-08-16T09:36:35Z</time>
      </trkpt>
      <trkpt lat="48.64528" lon="6.27448">
        <ele>208</ele>
        <time>2020-08-16T09:36:37Z</time>
      </trkpt>
      <trkpt lat="48.64531" lon="6.27457">
        <ele>208</ele>
        <time>2020-08-16T09:36:39Z</time>
      </trkpt>
      <trkpt lat="48.64534" lon="6.27466">
        <ele>207</ele>
        <time>2020-08-16T09:36:41Z</time>
      </trkpt>
      <trkpt lat="48.64537" lon="6.27474">
        <ele>207</ele>
        <time>2020-08-16T09:36:43Z</time>
      </trkpt>
      <trkpt lat="48.6454" lon="6.27484">
        <ele>207</ele>
        <time>2020-08-16T09:36:45Z</time>
      </trkpt>
      <trkpt lat="48.64541" lon="6.27495">
        <ele>207</ele>
        <time>2020-08-16T09:36:47Z</time>
      </trkpt>
      <trkpt lat="48.64544" lon="6.27506">
        <ele>208</ele>
        <time>2020-08-16T09:36:49Z</time>
      </trkpt>
      <trkpt lat="48.64546" lon="6.27516">
        <ele>208</ele>
        <time>2020-08-16T09:36:51Z</time>
      </trkpt>
      <trkpt lat="48.64549" lon="6.27525">
        <ele>208</ele>
        <time>2020-08-16T09:36:53Z</time>
      </trkpt>
      <trkpt lat="48.64551" lon="6.27533">
        <ele>208</ele>
        <time>2020-08-16T09:36:55Z</time>
      </trkpt>
      <trkpt lat="48.64554" lon="6.27543">
        <ele>208</ele>
        <time>2020-08-16T09:36:57Z</time>
      </trkpt>
      <trkpt lat="48.64557" lon="6.27551">
        <ele>207</ele>
        <time>2020-08-16T09:36:59Z</time>
      </trkpt>
      <trkpt lat="48.64559" lon="6.27557">
        <ele>207</ele>
        <time>2020-08-16T09:37:00Z</time>
      </trkpt>
      <trkpt lat="48.64563" lon="6.27567">
        <ele>207</ele>
        <time>2020-08-16T09:37:02Z</time>
      </trkpt>
      <trkpt lat="48.64566" lon="6.27575">
        <ele>207</ele>
        <time>2020-08-16T09:37:04Z</time>
      </trkpt>
      <trkpt lat="48.64567" lon="6.27586">
        <ele>207</ele>
        <time>2020-08-16T09:37:06Z</time>
      </trkpt>
      <trkpt lat="48.64571" lon="6.27595">
        <ele>206</ele>
        <time>2020-08-16T09:37:08Z</time>
      </trkpt>
      <trkpt lat="48.64573" lon="6.27605">
        <ele>206</ele>
        <time>2020-08-16T09:37:10Z</time>
      </trkpt>
      <trkpt lat="48.64573" lon="6.27613">
        <ele>207</ele>
        <time>2020-08-16T09:37:12Z</time>
      </trkpt>
      <trkpt lat="48.64575" lon="6.27625">
        <ele>207</ele>
        <time>2020-08-16T09:37:14Z</time>
      </trkpt>
      <trkpt lat="48.64575" lon="6.27632">
        <ele>207</ele>
        <time>2020-08-16T09:37:15Z</time>
      </trkpt>
      <trkpt lat="48.64577" lon="6.27641">
        <ele>206</ele>
        <time>2020-08-16T09:37:17Z</time>
      </trkpt>
      <trkpt lat="48.6458" lon="6.27649">
        <ele>206</ele>
        <time>2020-08-16T09:37:19Z</time>
      </trkpt>
      <trkpt lat="48.64581" lon="6.27661">
        <ele>206</ele>
        <time>2020-08-16T09:37:21Z</time>
      </trkpt>
      <trkpt lat="48.64584" lon="6.27669">
        <ele>206</ele>
        <time>2020-08-16T09:37:23Z</time>
      </trkpt>
      <trkpt lat="48.64585" lon="6.27676">
        <ele>206</ele>
        <time>2020-08-16T09:37:25Z</time>
      </trkpt>
      <trkpt lat="48.64586" lon="6.27683">
        <ele>207</ele>
        <time>2020-08-16T09:37:27Z</time>
      </trkpt>
      <trkpt lat="48.64587" lon="6.27692">
        <ele>207</ele>
        <time>2020-08-16T09:37:29Z</time>
      </trkpt>
      <trkpt lat="48.64587" lon="6.27699">
        <ele>207</ele>
        <time>2020-08-16T09:37:31Z</time>
      </trkpt>
      <trkpt lat="48.64588" lon="6.27709">
        <ele>207</ele>
        <time>2020-08-16T09:37:33Z</time>
      </trkpt>
      <trkpt lat="48.6459" lon="6.27719">
        <ele>207</ele>
        <time>2020-08-16T09:37:36Z</time>
      </trkpt>
      <trkpt lat="48.64591" lon="6.27728">
        <ele>207</ele>
        <time>2020-08-16T09:37:38Z</time>
      </trkpt>
      <trkpt lat="48.64592" lon="6.27738">
        <ele>207</ele>
        <time>2020-08-16T09:37:40Z</time>
      </trkpt>
      <trkpt lat="48.64595" lon="6.27747">
        <ele>207</ele>
        <time>2020-08-16T09:37:42Z</time>
      </trkpt>
      <trkpt lat="48.64599" lon="6.27757">
        <ele>207</ele>
        <time>2020-08-16T09:37:44Z</time>
      </trkpt>
      <trkpt lat="48.64599" lon="6.27768">
        <ele>207</ele>
        <time>2020-08-16T09:37:46Z</time>
      </trkpt>
      <trkpt lat="48.646" lon="6.27776">
        <ele>207</ele>
        <time>2020-08-16T09:37:48Z</time>
      </trkpt>
      <trkpt lat="48.646" lon="6.27787">
        <ele>207</ele>
        <time>2020-08-16T09:37:50Z</time>
      </trkpt>
      <trkpt lat="48.64601" lon="6.27798">
        <ele>207</ele>
        <time>2020-08-16T09:37:52Z</time>
      </trkpt>
      <trkpt lat="48.64602" lon="6.27806">
        <ele>207</ele>
        <time>2020-08-16T09:37:54Z</time>
      </trkpt>
      <trkpt lat="48.64603" lon="6.27813">
        <ele>207</ele>
        <time>2020-08-16T09:37:55Z</time>
      </trkpt>
      <trkpt lat="48.64605" lon="6.27824">
        <ele>206</ele>
        <time>2020-08-16T09:37:57Z</time>
      </trkpt>
      <trkpt lat="48.64605" lon="6.27835">
        <ele>207</ele>
        <time>2020-08-16T09:37:59Z</time>
      </trkpt>
      <trkpt lat="48.64606" lon="6.27843">
        <ele>207</ele>
        <time>2020-08-16T09:38:01Z</time>
      </trkpt>
      <trkpt lat="48.64607" lon="6.27851">
        <ele>207</ele>
        <time>2020-08-16T09:38:03Z</time>
      </trkpt>
      <trkpt lat="48.6461" lon="6.27857">
        <ele>206</ele>
        <time>2020-08-16T09:38:07Z</time>
      </trkpt>
      <trkpt lat="48.64613" lon="6.27867">
        <ele>206</ele>
        <time>2020-08-16T09:38:31Z</time>
      </trkpt>
      <trkpt lat="48.64613" lon="6.27874">
        <ele>206</ele>
        <time>2020-08-16T09:38:33Z</time>
      </trkpt>
      <trkpt lat="48.64615" lon="6.27883">
        <ele>206</ele>
        <time>2020-08-16T09:38:36Z</time>
      </trkpt>
      <trkpt lat="48.64615" lon="6.2789">
        <ele>206</ele>
        <time>2020-08-16T09:38:38Z</time>
      </trkpt>
      <trkpt lat="48.64615" lon="6.27899">
        <ele>206</ele>
        <time>2020-08-16T09:38:40Z</time>
      </trkpt>
      <trkpt lat="48.64615" lon="6.2791">
        <ele>206</ele>
        <time>2020-08-16T09:38:43Z</time>
      </trkpt>
      <trkpt lat="48.64615" lon="6.27917">
        <ele>206</ele>
        <time>2020-08-16T09:38:44Z</time>
      </trkpt>
      <trkpt lat="48.64615" lon="6.27924">
        <ele>206</ele>
        <time>2020-08-16T09:38:45Z</time>
      </trkpt>
      <trkpt lat="48.64615" lon="6.27935">
        <ele>206</ele>
        <time>2020-08-16T09:38:47Z</time>
      </trkpt>
      <trkpt lat="48.64615" lon="6.27945">
        <ele>206</ele>
        <time>2020-08-16T09:38:49Z</time>
      </trkpt>
      <trkpt lat="48.64617" lon="6.27954">
        <ele>205</ele>
        <time>2020-08-16T09:38:51Z</time>
      </trkpt>
      <trkpt lat="48.64617" lon="6.27963">
        <ele>206</ele>
        <time>2020-08-16T09:38:53Z</time>
      </trkpt>
      <trkpt lat="48.64617" lon="6.27975">
        <ele>206</ele>
        <time>2020-08-16T09:38:55Z</time>
      </trkpt>
      <trkpt lat="48.64616" lon="6.27984">
        <ele>206</ele>
        <time>2020-08-16T09:38:57Z</time>
      </trkpt>
      <trkpt lat="48.64616" lon="6.27993">
        <ele>206</ele>
        <time>2020-08-16T09:38:59Z</time>
      </trkpt>
      <trkpt lat="48.64615" lon="6.28001">
        <ele>206</ele>
        <time>2020-08-16T09:39:01Z</time>
      </trkpt>
      <trkpt lat="48.64616" lon="6.28012">
        <ele>206</ele>
        <time>2020-08-16T09:39:03Z</time>
      </trkpt>
      <trkpt lat="48.64616" lon="6.28021">
        <ele>206</ele>
        <time>2020-08-16T09:39:05Z</time>
      </trkpt>
      <trkpt lat="48.64616" lon="6.28031">
        <ele>206</ele>
        <time>2020-08-16T09:39:07Z</time>
      </trkpt>
      <trkpt lat="48.64617" lon="6.2804">
        <ele>206</ele>
        <time>2020-08-16T09:39:09Z</time>
      </trkpt>
      <trkpt lat="48.64616" lon="6.28047">
        <ele>206</ele>
        <time>2020-08-16T09:39:10Z</time>
      </trkpt>
      <trkpt lat="48.64616" lon="6.28055">
        <ele>206</ele>
        <time>2020-08-16T09:39:12Z</time>
      </trkpt>
      <trkpt lat="48.64617" lon="6.28063">
        <ele>206</ele>
        <time>2020-08-16T09:39:14Z</time>
      </trkpt>
      <trkpt lat="48.64618" lon="6.28072">
        <ele>206</ele>
        <time>2020-08-16T09:39:16Z</time>
      </trkpt>
      <trkpt lat="48.64618" lon="6.28082">
        <ele>206</ele>
        <time>2020-08-16T09:39:18Z</time>
      </trkpt>
      <trkpt lat="48.64618" lon="6.28091">
        <ele>206</ele>
        <time>2020-08-16T09:39:20Z</time>
      </trkpt>
      <trkpt lat="48.64618" lon="6.28101">
        <ele>206</ele>
        <time>2020-08-16T09:39:22Z</time>
      </trkpt>
      <trkpt lat="48.64618" lon="6.28111">
        <ele>205</ele>
        <time>2020-08-16T09:39:24Z</time>
      </trkpt>
      <trkpt lat="48.64618" lon="6.28121">
        <ele>206</ele>
        <time>2020-08-16T09:39:26Z</time>
      </trkpt>
      <trkpt lat="48.64618" lon="6.28132">
        <ele>206</ele>
        <time>2020-08-16T09:39:28Z</time>
      </trkpt>
      <trkpt lat="48.64618" lon="6.28145">
        <ele>206</ele>
        <time>2020-08-16T09:39:30Z</time>
      </trkpt>
      <trkpt lat="48.64617" lon="6.28155">
        <ele>206</ele>
        <time>2020-08-16T09:39:32Z</time>
      </trkpt>
      <trkpt lat="48.64616" lon="6.28163">
        <ele>206</ele>
        <time>2020-08-16T09:39:34Z</time>
      </trkpt>
      <trkpt lat="48.64617" lon="6.28176">
        <ele>206</ele>
        <time>2020-08-16T09:39:36Z</time>
      </trkpt>
      <trkpt lat="48.64616" lon="6.28185">
        <ele>206</ele>
        <time>2020-08-16T09:39:38Z</time>
      </trkpt>
      <trkpt lat="48.64615" lon="6.28192">
        <ele>206</ele>
        <time>2020-08-16T09:39:40Z</time>
      </trkpt>
      <trkpt lat="48.64615" lon="6.28202">
        <ele>206</ele>
        <time>2020-08-16T09:39:42Z</time>
      </trkpt>
      <trkpt lat="48.64615" lon="6.28211">
        <ele>206</ele>
        <time>2020-08-16T09:39:44Z</time>
      </trkpt>
      <trkpt lat="48.64615" lon="6.28219">
        <ele>207</ele>
        <time>2020-08-16T09:39:46Z</time>
      </trkpt>
      <trkpt lat="48.64614" lon="6.28228">
        <ele>207</ele>
        <time>2020-08-16T09:39:48Z</time>
      </trkpt>
      <trkpt lat="48.64614" lon="6.28237">
        <ele>207</ele>
        <time>2020-08-16T09:39:50Z</time>
      </trkpt>
      <trkpt lat="48.64613" lon="6.28244">
        <ele>208</ele>
        <time>2020-08-16T09:39:52Z</time>
      </trkpt>
      <trkpt lat="48.64612" lon="6.28254">
        <ele>208</ele>
        <time>2020-08-16T09:39:54Z</time>
      </trkpt>
      <trkpt lat="48.64611" lon="6.28262">
        <ele>208</ele>
        <time>2020-08-16T09:39:56Z</time>
      </trkpt>
      <trkpt lat="48.64611" lon="6.28271">
        <ele>208</ele>
        <time>2020-08-16T09:39:58Z</time>
      </trkpt>
      <trkpt lat="48.6461" lon="6.28278">
        <ele>208</ele>
        <time>2020-08-16T09:40:00Z</time>
      </trkpt>
      <trkpt lat="48.6461" lon="6.28287">
        <ele>208</ele>
        <time>2020-08-16T09:40:02Z</time>
      </trkpt>
      <trkpt lat="48.64608" lon="6.28295">
        <ele>208</ele>
        <time>2020-08-16T09:40:04Z</time>
      </trkpt>
      <trkpt lat="48.64607" lon="6.28302">
        <ele>209</ele>
        <time>2020-08-16T09:40:06Z</time>
      </trkpt>
      <trkpt lat="48.64606" lon="6.28309">
        <ele>209</ele>
        <time>2020-08-16T09:40:08Z</time>
      </trkpt>
      <trkpt lat="48.64604" lon="6.28318">
        <ele>209</ele>
        <time>2020-08-16T09:40:11Z</time>
      </trkpt>
      <trkpt lat="48.64603" lon="6.28324">
        <ele>209</ele>
        <time>2020-08-16T09:40:13Z</time>
      </trkpt>
      <trkpt lat="48.64602" lon="6.28333">
        <ele>209</ele>
        <time>2020-08-16T09:40:15Z</time>
      </trkpt>
      <trkpt lat="48.64601" lon="6.28341">
        <ele>209</ele>
        <time>2020-08-16T09:40:17Z</time>
      </trkpt>
      <trkpt lat="48.646" lon="6.2835">
        <ele>209</ele>
        <time>2020-08-16T09:40:20Z</time>
      </trkpt>
      <trkpt lat="48.64598" lon="6.28359">
        <ele>209</ele>
        <time>2020-08-16T09:40:22Z</time>
      </trkpt>
      <trkpt lat="48.64597" lon="6.28367">
        <ele>209</ele>
        <time>2020-08-16T09:40:24Z</time>
      </trkpt>
      <trkpt lat="48.64596" lon="6.28375">
        <ele>209</ele>
        <time>2020-08-16T09:40:26Z</time>
      </trkpt>
      <trkpt lat="48.64595" lon="6.28383">
        <ele>209</ele>
        <time>2020-08-16T09:40:28Z</time>
      </trkpt>
      <trkpt lat="48.64594" lon="6.28393">
        <ele>209</ele>
        <time>2020-08-16T09:40:30Z</time>
      </trkpt>
      <trkpt lat="48.64593" lon="6.28401">
        <ele>209</ele>
        <time>2020-08-16T09:40:32Z</time>
      </trkpt>
      <trkpt lat="48.64592" lon="6.28409">
        <ele>209</ele>
        <time>2020-08-16T09:40:34Z</time>
      </trkpt>
      <trkpt lat="48.64591" lon="6.28418">
        <ele>209</ele>
        <time>2020-08-16T09:40:36Z</time>
      </trkpt>
      <trkpt lat="48.6459" lon="6.28427">
        <ele>209</ele>
        <time>2020-08-16T09:40:38Z</time>
      </trkpt>
      <trkpt lat="48.64589" lon="6.28435">
        <ele>209</ele>
        <time>2020-08-16T09:40:40Z</time>
      </trkpt>
      <trkpt lat="48.64587" lon="6.28443">
        <ele>209</ele>
        <time>2020-08-16T09:40:42Z</time>
      </trkpt>
      <trkpt lat="48.64587" lon="6.28453">
        <ele>209</ele>
        <time>2020-08-16T09:40:44Z</time>
      </trkpt>
      <trkpt lat="48.64586" lon="6.28463">
        <ele>209</ele>
        <time>2020-08-16T09:40:46Z</time>
      </trkpt>
      <trkpt lat="48.64583" lon="6.2847">
        <ele>209</ele>
        <time>2020-08-16T09:40:48Z</time>
      </trkpt>
      <trkpt lat="48.64581" lon="6.28478">
        <ele>209</ele>
        <time>2020-08-16T09:40:50Z</time>
      </trkpt>
      <trkpt lat="48.64579" lon="6.28487">
        <ele>209</ele>
        <time>2020-08-16T09:40:53Z</time>
      </trkpt>
      <trkpt lat="48.64575" lon="6.28483">
        <ele>208</ele>
        <time>2020-08-16T09:41:42Z</time>
      </trkpt>
      <trkpt lat="48.64573" lon="6.28524">
        <ele>208</ele>
        <time>2020-08-16T09:47:13Z</time>
      </trkpt>
      <trkpt lat="48.64573" lon="6.28531">
        <ele>209</ele>
        <time>2020-08-16T09:47:15Z</time>
      </trkpt>
      <trkpt lat="48.64571" lon="6.28538">
        <ele>209</ele>
        <time>2020-08-16T09:47:17Z</time>
      </trkpt>
      <trkpt lat="48.64569" lon="6.28545">
        <ele>209</ele>
        <time>2020-08-16T09:47:19Z</time>
      </trkpt>
      <trkpt lat="48.64568" lon="6.28553">
        <ele>209</ele>
        <time>2020-08-16T09:47:21Z</time>
      </trkpt>
      <trkpt lat="48.64568" lon="6.28561">
        <ele>209</ele>
        <time>2020-08-16T09:47:24Z</time>
      </trkpt>
      <trkpt lat="48.64566" lon="6.28569">
        <ele>209</ele>
        <time>2020-08-16T09:47:26Z</time>
      </trkpt>
      <trkpt lat="48.64564" lon="6.28578">
        <ele>209</ele>
        <time>2020-08-16T09:47:28Z</time>
      </trkpt>
      <trkpt lat="48.64563" lon="6.28586">
        <ele>209</ele>
        <time>2020-08-16T09:47:30Z</time>
      </trkpt>
      <trkpt lat="48.64563" lon="6.28594">
        <ele>210</ele>
        <time>2020-08-16T09:47:32Z</time>
      </trkpt>
      <trkpt lat="48.64561" lon="6.28603">
        <ele>209</ele>
        <time>2020-08-16T09:47:34Z</time>
      </trkpt>
      <trkpt lat="48.6456" lon="6.28613">
        <ele>209</ele>
        <time>2020-08-16T09:47:36Z</time>
      </trkpt>
      <trkpt lat="48.64558" lon="6.28621">
        <ele>209</ele>
        <time>2020-08-16T09:47:38Z</time>
      </trkpt>
      <trkpt lat="48.64558" lon="6.28631">
        <ele>210</ele>
        <time>2020-08-16T09:47:41Z</time>
      </trkpt>
      <trkpt lat="48.64557" lon="6.28638">
        <ele>211</ele>
        <time>2020-08-16T09:47:43Z</time>
      </trkpt>
      <trkpt lat="48.64557" lon="6.2865">
        <ele>212</ele>
        <time>2020-08-16T09:47:46Z</time>
      </trkpt>
      <trkpt lat="48.64555" lon="6.2866">
        <ele>213</ele>
        <time>2020-08-16T09:47:48Z</time>
      </trkpt>
      <trkpt lat="48.64554" lon="6.28667">
        <ele>213</ele>
        <time>2020-08-16T09:47:50Z</time>
      </trkpt>
      <trkpt lat="48.64552" lon="6.28675">
        <ele>213</ele>
        <time>2020-08-16T09:47:52Z</time>
      </trkpt>
      <trkpt lat="48.6455" lon="6.28686">
        <ele>212</ele>
        <time>2020-08-16T09:47:55Z</time>
      </trkpt>
      <trkpt lat="48.64548" lon="6.28693">
        <ele>212</ele>
        <time>2020-08-16T09:47:58Z</time>
      </trkpt>
      <trkpt lat="48.64547" lon="6.28702">
        <ele>212</ele>
        <time>2020-08-16T09:48:00Z</time>
      </trkpt>
      <trkpt lat="48.64545" lon="6.28709">
        <ele>211</ele>
        <time>2020-08-16T09:48:01Z</time>
      </trkpt>
      <trkpt lat="48.64544" lon="6.28721">
        <ele>212</ele>
        <time>2020-08-16T09:48:03Z</time>
      </trkpt>
      <trkpt lat="48.64542" lon="6.28727">
        <ele>211</ele>
        <time>2020-08-16T09:48:04Z</time>
      </trkpt>
      <trkpt lat="48.64541" lon="6.28737">
        <ele>210</ele>
        <time>2020-08-16T09:48:06Z</time>
      </trkpt>
      <trkpt lat="48.6454" lon="6.28747">
        <ele>210</ele>
        <time>2020-08-16T09:48:08Z</time>
      </trkpt>
      <trkpt lat="48.64539" lon="6.28756">
        <ele>211</ele>
        <time>2020-08-16T09:48:10Z</time>
      </trkpt>
      <trkpt lat="48.64536" lon="6.28763">
        <ele>211</ele>
        <time>2020-08-16T09:48:12Z</time>
      </trkpt>
      <trkpt lat="48.64534" lon="6.28773">
        <ele>211</ele>
        <time>2020-08-16T09:48:14Z</time>
      </trkpt>
      <trkpt lat="48.64535" lon="6.28782">
        <ele>212</ele>
        <time>2020-08-16T09:48:16Z</time>
      </trkpt>
      <trkpt lat="48.64533" lon="6.2879">
        <ele>212</ele>
        <time>2020-08-16T09:48:18Z</time>
      </trkpt>
      <trkpt lat="48.64533" lon="6.28799">
        <ele>212</ele>
        <time>2020-08-16T09:48:20Z</time>
      </trkpt>
      <trkpt lat="48.64532" lon="6.28808">
        <ele>212</ele>
        <time>2020-08-16T09:48:22Z</time>
      </trkpt>
      <trkpt lat="48.64533" lon="6.28815">
        <ele>212</ele>
        <time>2020-08-16T09:48:24Z</time>
      </trkpt>
      <trkpt lat="48.64531" lon="6.28827">
        <ele>212</ele>
        <time>2020-08-16T09:48:26Z</time>
      </trkpt>
      <trkpt lat="48.6453" lon="6.28838">
        <ele>211</ele>
        <time>2020-08-16T09:48:28Z</time>
      </trkpt>
      <trkpt lat="48.64529" lon="6.28848">
        <ele>210</ele>
        <time>2020-08-16T09:48:30Z</time>
      </trkpt>
      <trkpt lat="48.64528" lon="6.28857">
        <ele>209</ele>
        <time>2020-08-16T09:48:32Z</time>
      </trkpt>
      <trkpt lat="48.64526" lon="6.28866">
        <ele>209</ele>
        <time>2020-08-16T09:48:34Z</time>
      </trkpt>
      <trkpt lat="48.64526" lon="6.28875">
        <ele>210</ele>
        <time>2020-08-16T09:48:36Z</time>
      </trkpt>
      <trkpt lat="48.64526" lon="6.28884">
        <ele>211</ele>
        <time>2020-08-16T09:48:38Z</time>
      </trkpt>
      <trkpt lat="48.64525" lon="6.28891">
        <ele>211</ele>
        <time>2020-08-16T09:48:40Z</time>
      </trkpt>
      <trkpt lat="48.64525" lon="6.28898">
        <ele>211</ele>
        <time>2020-08-16T09:48:42Z</time>
      </trkpt>
      <trkpt lat="48.64524" lon="6.28905">
        <ele>210</ele>
        <time>2020-08-16T09:48:44Z</time>
      </trkpt>
      <trkpt lat="48.64523" lon="6.28913">
        <ele>210</ele>
        <time>2020-08-16T09:48:46Z</time>
      </trkpt>
      <trkpt lat="48.64522" lon="6.28922">
        <ele>210</ele>
        <time>2020-08-16T09:48:48Z</time>
      </trkpt>
      <trkpt lat="48.6452" lon="6.28931">
        <ele>210</ele>
        <time>2020-08-16T09:48:50Z</time>
      </trkpt>
      <trkpt lat="48.64518" lon="6.28938">
        <ele>210</ele>
        <time>2020-08-16T09:48:51Z</time>
      </trkpt>
      <trkpt lat="48.64515" lon="6.28945">
        <ele>208</ele>
        <time>2020-08-16T09:48:53Z</time>
      </trkpt>
      <trkpt lat="48.64515" lon="6.28952">
        <ele>208</ele>
        <time>2020-08-16T09:48:55Z</time>
      </trkpt>
      <trkpt lat="48.64514" lon="6.2896">
        <ele>207</ele>
        <time>2020-08-16T09:48:57Z</time>
      </trkpt>
      <trkpt lat="48.64511" lon="6.2897">
        <ele>207</ele>
        <time>2020-08-16T09:48:59Z</time>
      </trkpt>
      <trkpt lat="48.64509" lon="6.2898">
        <ele>207</ele>
        <time>2020-08-16T09:49:01Z</time>
      </trkpt>
      <trkpt lat="48.64507" lon="6.28989">
        <ele>206</ele>
        <time>2020-08-16T09:49:03Z</time>
      </trkpt>
      <trkpt lat="48.64507" lon="6.28997">
        <ele>206</ele>
        <time>2020-08-16T09:49:05Z</time>
      </trkpt>
      <trkpt lat="48.64506" lon="6.29006">
        <ele>206</ele>
        <time>2020-08-16T09:49:07Z</time>
      </trkpt>
      <trkpt lat="48.64504" lon="6.29015">
        <ele>206</ele>
        <time>2020-08-16T09:49:09Z</time>
      </trkpt>
      <trkpt lat="48.64505" lon="6.29025">
        <ele>206</ele>
        <time>2020-08-16T09:49:12Z</time>
      </trkpt>
      <trkpt lat="48.64509" lon="6.29031">
        <ele>207</ele>
        <time>2020-08-16T09:49:20Z</time>
      </trkpt>
      <trkpt lat="48.64508" lon="6.29039">
        <ele>207</ele>
        <time>2020-08-16T09:49:23Z</time>
      </trkpt>
      <trkpt lat="48.64508" lon="6.29047">
        <ele>207</ele>
        <time>2020-08-16T09:49:26Z</time>
      </trkpt>
      <trkpt lat="48.64507" lon="6.29057">
        <ele>207</ele>
        <time>2020-08-16T09:49:29Z</time>
      </trkpt>
      <trkpt lat="48.64506" lon="6.29066">
        <ele>207</ele>
        <time>2020-08-16T09:49:31Z</time>
      </trkpt>
      <trkpt lat="48.64504" lon="6.29075">
        <ele>207</ele>
        <time>2020-08-16T09:49:33Z</time>
      </trkpt>
      <trkpt lat="48.64503" lon="6.29084">
        <ele>207</ele>
        <time>2020-08-16T09:49:35Z</time>
      </trkpt>
      <trkpt lat="48.64501" lon="6.29093">
        <ele>207</ele>
        <time>2020-08-16T09:49:37Z</time>
      </trkpt>
      <trkpt lat="48.645" lon="6.29104">
        <ele>207</ele>
        <time>2020-08-16T09:49:39Z</time>
      </trkpt>
      <trkpt lat="48.64497" lon="6.29114">
        <ele>206</ele>
        <time>2020-08-16T09:49:41Z</time>
      </trkpt>
      <trkpt lat="48.64496" lon="6.29123">
        <ele>206</ele>
        <time>2020-08-16T09:49:43Z</time>
      </trkpt>
      <trkpt lat="48.64495" lon="6.29133">
        <ele>206</ele>
        <time>2020-08-16T09:49:45Z</time>
      </trkpt>
      <trkpt lat="48.64493" lon="6.29144">
        <ele>206</ele>
        <time>2020-08-16T09:49:47Z</time>
      </trkpt>
      <trkpt lat="48.64491" lon="6.29152">
        <ele>206</ele>
        <time>2020-08-16T09:49:49Z</time>
      </trkpt>
      <trkpt lat="48.6449" lon="6.29165">
        <ele>206</ele>
        <time>2020-08-16T09:49:51Z</time>
      </trkpt>
      <trkpt lat="48.64489" lon="6.29177">
        <ele>206</ele>
        <time>2020-08-16T09:49:53Z</time>
      </trkpt>
      <trkpt lat="48.64488" lon="6.29187">
        <ele>206</ele>
        <time>2020-08-16T09:49:55Z</time>
      </trkpt>
      <trkpt lat="48.64486" lon="6.29198">
        <ele>206</ele>
        <time>2020-08-16T09:49:57Z</time>
      </trkpt>
      <trkpt lat="48.64484" lon="6.29208">
        <ele>206</ele>
        <time>2020-08-16T09:49:59Z</time>
      </trkpt>
      <trkpt lat="48.64482" lon="6.2922">
        <ele>205</ele>
        <time>2020-08-16T09:50:01Z</time>
      </trkpt>
      <trkpt lat="48.64479" lon="6.29231">
        <ele>205</ele>
        <time>2020-08-16T09:50:03Z</time>
      </trkpt>
      <trkpt lat="48.64477" lon="6.29241">
        <ele>205</ele>
        <time>2020-08-16T09:50:05Z</time>
      </trkpt>
      <trkpt lat="48.64475" lon="6.29249">
        <ele>205</ele>
        <time>2020-08-16T09:50:06Z</time>
      </trkpt>
      <trkpt lat="48.64473" lon="6.29255">
        <ele>205</ele>
        <time>2020-08-16T09:50:07Z</time>
      </trkpt>
      <trkpt lat="48.64471" lon="6.29262">
        <ele>205</ele>
        <time>2020-08-16T09:50:08Z</time>
      </trkpt>
      <trkpt lat="48.64469" lon="6.29269">
        <ele>205</ele>
        <time>2020-08-16T09:50:09Z</time>
      </trkpt>
      <trkpt lat="48.64465" lon="6.29287">
        <ele>205</ele>
        <time>2020-08-16T09:50:12Z</time>
      </trkpt>
      <trkpt lat="48.64465" lon="6.29294">
        <ele>205</ele>
        <time>2020-08-16T09:50:13Z</time>
      </trkpt>
      <trkpt lat="48.64463" lon="6.29302">
        <ele>205</ele>
        <time>2020-08-16T09:50:14Z</time>
      </trkpt>
      <trkpt lat="48.6446" lon="6.29313">
        <ele>206</ele>
        <time>2020-08-16T09:50:16Z</time>
      </trkpt>
      <trkpt lat="48.64459" lon="6.29321">
        <ele>206</ele>
        <time>2020-08-16T09:50:17Z</time>
      </trkpt>
      <trkpt lat="48.64456" lon="6.29327">
        <ele>205</ele>
        <time>2020-08-16T09:50:18Z</time>
      </trkpt>
      <trkpt lat="48.64455" lon="6.29337">
        <ele>205</ele>
        <time>2020-08-16T09:50:19Z</time>
      </trkpt>
      <trkpt lat="48.64454" lon="6.29344">
        <ele>205</ele>
        <time>2020-08-16T09:50:20Z</time>
      </trkpt>
      <trkpt lat="48.64451" lon="6.29351">
        <ele>205</ele>
        <time>2020-08-16T09:50:21Z</time>
      </trkpt>
      <trkpt lat="48.64449" lon="6.29358">
        <ele>205</ele>
        <time>2020-08-16T09:50:22Z</time>
      </trkpt>
      <trkpt lat="48.64445" lon="6.2937">
        <ele>205</ele>
        <time>2020-08-16T09:50:24Z</time>
      </trkpt>
      <trkpt lat="48.64444" lon="6.29377">
        <ele>205</ele>
        <time>2020-08-16T09:50:25Z</time>
      </trkpt>
      <trkpt lat="48.64443" lon="6.29384">
        <ele>205</ele>
        <time>2020-08-16T09:50:26Z</time>
      </trkpt>
      <trkpt lat="48.64441" lon="6.29391">
        <ele>205</ele>
        <time>2020-08-16T09:50:27Z</time>
      </trkpt>
      <trkpt lat="48.64437" lon="6.29403">
        <ele>206</ele>
        <time>2020-08-16T09:50:29Z</time>
      </trkpt>
      <trkpt lat="48.64436" lon="6.29411">
        <ele>206</ele>
        <time>2020-08-16T09:50:30Z</time>
      </trkpt>
      <trkpt lat="48.64433" lon="6.29422">
        <ele>206</ele>
        <time>2020-08-16T09:50:32Z</time>
      </trkpt>
      <trkpt lat="48.64429" lon="6.29427">
        <ele>206</ele>
        <time>2020-08-16T09:50:33Z</time>
      </trkpt>
      <trkpt lat="48.64426" lon="6.29439">
        <ele>206</ele>
        <time>2020-08-16T09:50:35Z</time>
      </trkpt>
      <trkpt lat="48.64423" lon="6.29446">
        <ele>206</ele>
        <time>2020-08-16T09:50:36Z</time>
      </trkpt>
      <trkpt lat="48.64422" lon="6.29453">
        <ele>206</ele>
        <time>2020-08-16T09:50:37Z</time>
      </trkpt>
      <trkpt lat="48.64418" lon="6.29461">
        <ele>205</ele>
        <time>2020-08-16T09:50:39Z</time>
      </trkpt>
      <trkpt lat="48.64414" lon="6.29473">
        <ele>206</ele>
        <time>2020-08-16T09:50:41Z</time>
      </trkpt>
      <trkpt lat="48.6441" lon="6.29479">
        <ele>206</ele>
        <time>2020-08-16T09:50:42Z</time>
      </trkpt>
      <trkpt lat="48.64407" lon="6.29486">
        <ele>206</ele>
        <time>2020-08-16T09:50:43Z</time>
      </trkpt>
      <trkpt lat="48.64405" lon="6.29493">
        <ele>206</ele>
        <time>2020-08-16T09:50:44Z</time>
      </trkpt>
      <trkpt lat="48.64402" lon="6.29498">
        <ele>206</ele>
        <time>2020-08-16T09:50:45Z</time>
      </trkpt>
      <trkpt lat="48.64396" lon="6.29509">
        <ele>207</ele>
        <time>2020-08-16T09:50:47Z</time>
      </trkpt>
      <trkpt lat="48.64394" lon="6.29515">
        <ele>206</ele>
        <time>2020-08-16T09:50:48Z</time>
      </trkpt>
      <trkpt lat="48.6439" lon="6.29525">
        <ele>206</ele>
        <time>2020-08-16T09:50:50Z</time>
      </trkpt>
      <trkpt lat="48.64387" lon="6.29537">
        <ele>206</ele>
        <time>2020-08-16T09:50:52Z</time>
      </trkpt>
      <trkpt lat="48.64383" lon="6.29548">
        <ele>206</ele>
        <time>2020-08-16T09:50:54Z</time>
      </trkpt>
      <trkpt lat="48.64379" lon="6.29559">
        <ele>206</ele>
        <time>2020-08-16T09:50:56Z</time>
      </trkpt>
      <trkpt lat="48.64375" lon="6.29566">
        <ele>206</ele>
        <time>2020-08-16T09:50:57Z</time>
      </trkpt>
      <trkpt lat="48.64372" lon="6.29572">
        <ele>206</ele>
        <time>2020-08-16T09:50:58Z</time>
      </trkpt>
      <trkpt lat="48.6437" lon="6.29578">
        <ele>206</ele>
        <time>2020-08-16T09:50:59Z</time>
      </trkpt>
      <trkpt lat="48.64367" lon="6.29585">
        <ele>206</ele>
        <time>2020-08-16T09:51:00Z</time>
      </trkpt>
      <trkpt lat="48.64366" lon="6.29592">
        <ele>205</ele>
        <time>2020-08-16T09:51:01Z</time>
      </trkpt>
      <trkpt lat="48.64365" lon="6.296">
        <ele>205</ele>
        <time>2020-08-16T09:51:02Z</time>
      </trkpt>
      <trkpt lat="48.64362" lon="6.29606">
        <ele>205</ele>
        <time>2020-08-16T09:51:03Z</time>
      </trkpt>
      <trkpt lat="48.6436" lon="6.29613">
        <ele>205</ele>
        <time>2020-08-16T09:51:04Z</time>
      </trkpt>
      <trkpt lat="48.64357" lon="6.29619">
        <ele>205</ele>
        <time>2020-08-16T09:51:05Z</time>
      </trkpt>
      <trkpt lat="48.64354" lon="6.29624">
        <ele>205</ele>
        <time>2020-08-16T09:51:06Z</time>
      </trkpt>
      <trkpt lat="48.64352" lon="6.29631">
        <ele>205</ele>
        <time>2020-08-16T09:51:07Z</time>
      </trkpt>
      <trkpt lat="48.64349" lon="6.29637">
        <ele>206</ele>
        <time>2020-08-16T09:51:08Z</time>
      </trkpt>
      <trkpt lat="48.64346" lon="6.29644">
        <ele>206</ele>
        <time>2020-08-16T09:51:09Z</time>
      </trkpt>
      <trkpt lat="48.64339" lon="6.29655">
        <ele>206</ele>
        <time>2020-08-16T09:51:11Z</time>
      </trkpt>
      <trkpt lat="48.64336" lon="6.29659">
        <ele>206</ele>
        <time>2020-08-16T09:51:12Z</time>
      </trkpt>
      <trkpt lat="48.6433" lon="6.29668">
        <ele>206</ele>
        <time>2020-08-16T09:51:14Z</time>
      </trkpt>
      <trkpt lat="48.64322" lon="6.29671">
        <ele>207</ele>
        <time>2020-08-16T09:51:16Z</time>
      </trkpt>
      <trkpt lat="48.64318" lon="6.29681">
        <ele>207</ele>
        <time>2020-08-16T09:51:18Z</time>
      </trkpt>
      <trkpt lat="48.64314" lon="6.2969">
        <ele>207</ele>
        <time>2020-08-16T09:51:20Z</time>
      </trkpt>
      <trkpt lat="48.64312" lon="6.29696">
        <ele>206</ele>
        <time>2020-08-16T09:51:21Z</time>
      </trkpt>
      <trkpt lat="48.64307" lon="6.29702">
        <ele>206</ele>
        <time>2020-08-16T09:51:22Z</time>
      </trkpt>
      <trkpt lat="48.64304" lon="6.2971">
        <ele>206</ele>
        <time>2020-08-16T09:51:24Z</time>
      </trkpt>
      <trkpt lat="48.64301" lon="6.29721">
        <ele>207</ele>
        <time>2020-08-16T09:51:26Z</time>
      </trkpt>
      <trkpt lat="48.64297" lon="6.29729">
        <ele>207</ele>
        <time>2020-08-16T09:51:28Z</time>
      </trkpt>
      <trkpt lat="48.64293" lon="6.2974">
        <ele>207</ele>
        <time>2020-08-16T09:51:30Z</time>
      </trkpt>
      <trkpt lat="48.6429" lon="6.29748">
        <ele>208</ele>
        <time>2020-08-16T09:51:32Z</time>
      </trkpt>
      <trkpt lat="48.64286" lon="6.29752">
        <ele>208</ele>
        <time>2020-08-16T09:51:33Z</time>
      </trkpt>
      <trkpt lat="48.64283" lon="6.29761">
        <ele>208</ele>
        <time>2020-08-16T09:51:35Z</time>
      </trkpt>
      <trkpt lat="48.6428" lon="6.29769">
        <ele>208</ele>
        <time>2020-08-16T09:51:37Z</time>
      </trkpt>
      <trkpt lat="48.64275" lon="6.29776">
        <ele>209</ele>
        <time>2020-08-16T09:51:39Z</time>
      </trkpt>
      <trkpt lat="48.64272" lon="6.29782">
        <ele>209</ele>
        <time>2020-08-16T09:51:41Z</time>
      </trkpt>
      <trkpt lat="48.64269" lon="6.29791">
        <ele>210</ele>
        <time>2020-08-16T09:51:43Z</time>
      </trkpt>
      <trkpt lat="48.64265" lon="6.29799">
        <ele>211</ele>
        <time>2020-08-16T09:51:46Z</time>
      </trkpt>
      <trkpt lat="48.64262" lon="6.29806">
        <ele>211</ele>
        <time>2020-08-16T09:51:48Z</time>
      </trkpt>
      <trkpt lat="48.64259" lon="6.29813">
        <ele>211</ele>
        <time>2020-08-16T09:51:50Z</time>
      </trkpt>
      <trkpt lat="48.64255" lon="6.2982">
        <ele>211</ele>
        <time>2020-08-16T09:51:52Z</time>
      </trkpt>
      <trkpt lat="48.64251" lon="6.29826">
        <ele>212</ele>
        <time>2020-08-16T09:51:54Z</time>
      </trkpt>
      <trkpt lat="48.64247" lon="6.29832">
        <ele>212</ele>
        <time>2020-08-16T09:51:56Z</time>
      </trkpt>
      <trkpt lat="48.64244" lon="6.2984">
        <ele>212</ele>
        <time>2020-08-16T09:51:59Z</time>
      </trkpt>
      <trkpt lat="48.64241" lon="6.29845">
        <ele>212</ele>
        <time>2020-08-16T09:52:01Z</time>
      </trkpt>
      <trkpt lat="48.64237" lon="6.29852">
        <ele>212</ele>
        <time>2020-08-16T09:52:03Z</time>
      </trkpt>
      <trkpt lat="48.64234" lon="6.29857">
        <ele>212</ele>
        <time>2020-08-16T09:52:05Z</time>
      </trkpt>
      <trkpt lat="48.6423" lon="6.29861">
        <ele>211</ele>
        <time>2020-08-16T09:52:07Z</time>
      </trkpt>
      <trkpt lat="48.64225" lon="6.29869">
        <ele>212</ele>
        <time>2020-08-16T09:52:09Z</time>
      </trkpt>
      <trkpt lat="48.6422" lon="6.29874">
        <ele>211</ele>
        <time>2020-08-16T09:52:11Z</time>
      </trkpt>
      <trkpt lat="48.64215" lon="6.29884">
        <ele>211</ele>
        <time>2020-08-16T09:52:13Z</time>
      </trkpt>
      <trkpt lat="48.64208" lon="6.29895">
        <ele>210</ele>
        <time>2020-08-16T09:52:15Z</time>
      </trkpt>
      <trkpt lat="48.64201" lon="6.29903">
        <ele>210</ele>
        <time>2020-08-16T09:52:17Z</time>
      </trkpt>
      <trkpt lat="48.64197" lon="6.29909">
        <ele>210</ele>
        <time>2020-08-16T09:52:18Z</time>
      </trkpt>
      <trkpt lat="48.64193" lon="6.29914">
        <ele>210</ele>
        <time>2020-08-16T09:52:19Z</time>
      </trkpt>
      <trkpt lat="48.64188" lon="6.2992">
        <ele>210</ele>
        <time>2020-08-16T09:52:20Z</time>
      </trkpt>
      <trkpt lat="48.64184" lon="6.29925">
        <ele>210</ele>
        <time>2020-08-16T09:52:21Z</time>
      </trkpt>
      <trkpt lat="48.64181" lon="6.29931">
        <ele>210</ele>
        <time>2020-08-16T09:52:22Z</time>
      </trkpt>
      <trkpt lat="48.64177" lon="6.29936">
        <ele>210</ele>
        <time>2020-08-16T09:52:23Z</time>
      </trkpt>
      <trkpt lat="48.64174" lon="6.2994">
        <ele>210</ele>
        <time>2020-08-16T09:52:24Z</time>
      </trkpt>
      <trkpt lat="48.64169" lon="6.29946">
        <ele>209</ele>
        <time>2020-08-16T09:52:25Z</time>
      </trkpt>
      <trkpt lat="48.64165" lon="6.29951">
        <ele>209</ele>
        <time>2020-08-16T09:52:26Z</time>
      </trkpt>
      <trkpt lat="48.64161" lon="6.29957">
        <ele>209</ele>
        <time>2020-08-16T09:52:27Z</time>
      </trkpt>
      <trkpt lat="48.64154" lon="6.29965">
        <ele>209</ele>
        <time>2020-08-16T09:52:28Z</time>
      </trkpt>
      <trkpt lat="48.6415" lon="6.2997">
        <ele>209</ele>
        <time>2020-08-16T09:52:29Z</time>
      </trkpt>
      <trkpt lat="48.64146" lon="6.29975">
        <ele>209</ele>
        <time>2020-08-16T09:52:30Z</time>
      </trkpt>
      <trkpt lat="48.64141" lon="6.29981">
        <ele>208</ele>
        <time>2020-08-16T09:52:31Z</time>
      </trkpt>
      <trkpt lat="48.64137" lon="6.29987">
        <ele>208</ele>
        <time>2020-08-16T09:52:32Z</time>
      </trkpt>
      <trkpt lat="48.64131" lon="6.29993">
        <ele>208</ele>
        <time>2020-08-16T09:52:33Z</time>
      </trkpt>
      <trkpt lat="48.64127" lon="6.29999">
        <ele>208</ele>
        <time>2020-08-16T09:52:34Z</time>
      </trkpt>
      <trkpt lat="48.64123" lon="6.30004">
        <ele>208</ele>
        <time>2020-08-16T09:52:35Z</time>
      </trkpt>
      <trkpt lat="48.6412" lon="6.30009">
        <ele>208</ele>
        <time>2020-08-16T09:52:36Z</time>
      </trkpt>
      <trkpt lat="48.64117" lon="6.30016">
        <ele>208</ele>
        <time>2020-08-16T09:52:37Z</time>
      </trkpt>
      <trkpt lat="48.64113" lon="6.30023">
        <ele>208</ele>
        <time>2020-08-16T09:52:38Z</time>
      </trkpt>
      <trkpt lat="48.64109" lon="6.30029">
        <ele>208</ele>
        <time>2020-08-16T09:52:39Z</time>
      </trkpt>
      <trkpt lat="48.64105" lon="6.30035">
        <ele>208</ele>
        <time>2020-08-16T09:52:40Z</time>
      </trkpt>
      <trkpt lat="48.64102" lon="6.30041">
        <ele>209</ele>
        <time>2020-08-16T09:52:41Z</time>
      </trkpt>
      <trkpt lat="48.64098" lon="6.30045">
        <ele>209</ele>
        <time>2020-08-16T09:52:42Z</time>
      </trkpt>
      <trkpt lat="48.64094" lon="6.3005">
        <ele>209</ele>
        <time>2020-08-16T09:52:43Z</time>
      </trkpt>
      <trkpt lat="48.6409" lon="6.30055">
        <ele>209</ele>
        <time>2020-08-16T09:52:44Z</time>
      </trkpt>
      <trkpt lat="48.64084" lon="6.30062">
        <ele>209</ele>
        <time>2020-08-16T09:52:46Z</time>
      </trkpt>
      <trkpt lat="48.64079" lon="6.30069">
        <ele>209</ele>
        <time>2020-08-16T09:52:48Z</time>
      </trkpt>
      <trkpt lat="48.64072" lon="6.30076">
        <ele>209</ele>
        <time>2020-08-16T09:52:50Z</time>
      </trkpt>
      <trkpt lat="48.64068" lon="6.30082">
        <ele>209</ele>
        <time>2020-08-16T09:52:51Z</time>
      </trkpt>
      <trkpt lat="48.64061" lon="6.30092">
        <ele>209</ele>
        <time>2020-08-16T09:52:53Z</time>
      </trkpt>
      <trkpt lat="48.64055" lon="6.30101">
        <ele>210</ele>
        <time>2020-08-16T09:52:55Z</time>
      </trkpt>
      <trkpt lat="48.6405" lon="6.30107">
        <ele>210</ele>
        <time>2020-08-16T09:52:57Z</time>
      </trkpt>
      <trkpt lat="48.64044" lon="6.30116">
        <ele>210</ele>
        <time>2020-08-16T09:52:59Z</time>
      </trkpt>
      <trkpt lat="48.64042" lon="6.30122">
        <ele>210</ele>
        <time>2020-08-16T09:53:00Z</time>
      </trkpt>
      <trkpt lat="48.64037" lon="6.30133">
        <ele>210</ele>
        <time>2020-08-16T09:53:02Z</time>
      </trkpt>
      <trkpt lat="48.64032" lon="6.30141">
        <ele>210</ele>
        <time>2020-08-16T09:53:04Z</time>
      </trkpt>
      <trkpt lat="48.64025" lon="6.3015">
        <ele>210</ele>
        <time>2020-08-16T09:53:06Z</time>
      </trkpt>
      <trkpt lat="48.64021" lon="6.30155">
        <ele>210</ele>
        <time>2020-08-16T09:53:07Z</time>
      </trkpt>
      <trkpt lat="48.64018" lon="6.3016">
        <ele>210</ele>
        <time>2020-08-16T09:53:08Z</time>
      </trkpt>
      <trkpt lat="48.64016" lon="6.30166">
        <ele>210</ele>
        <time>2020-08-16T09:53:09Z</time>
      </trkpt>
      <trkpt lat="48.64011" lon="6.30174">
        <ele>210</ele>
        <time>2020-08-16T09:53:10Z</time>
      </trkpt>
      <trkpt lat="48.64005" lon="6.30182">
        <ele>210</ele>
        <time>2020-08-16T09:53:12Z</time>
      </trkpt>
      <trkpt lat="48.64001" lon="6.30187">
        <ele>209</ele>
        <time>2020-08-16T09:53:13Z</time>
      </trkpt>
      <trkpt lat="48.63997" lon="6.30193">
        <ele>210</ele>
        <time>2020-08-16T09:53:14Z</time>
      </trkpt>
      <trkpt lat="48.63993" lon="6.302">
        <ele>209</ele>
        <time>2020-08-16T09:53:15Z</time>
      </trkpt>
      <trkpt lat="48.63989" lon="6.30205">
        <ele>209</ele>
        <time>2020-08-16T09:53:16Z</time>
      </trkpt>
      <trkpt lat="48.63985" lon="6.3021">
        <ele>209</ele>
        <time>2020-08-16T09:53:17Z</time>
      </trkpt>
      <trkpt lat="48.63981" lon="6.30214">
        <ele>209</ele>
        <time>2020-08-16T09:53:18Z</time>
      </trkpt>
      <trkpt lat="48.6397" lon="6.30229">
        <ele>209</ele>
        <time>2020-08-16T09:53:21Z</time>
      </trkpt>
      <trkpt lat="48.63966" lon="6.30238">
        <ele>209</ele>
        <time>2020-08-16T09:53:23Z</time>
      </trkpt>
      <trkpt lat="48.63959" lon="6.30247">
        <ele>208</ele>
        <time>2020-08-16T09:53:25Z</time>
      </trkpt>
      <trkpt lat="48.63956" lon="6.30253">
        <ele>208</ele>
        <time>2020-08-16T09:53:26Z</time>
      </trkpt>
      <trkpt lat="48.63952" lon="6.30259">
        <ele>208</ele>
        <time>2020-08-16T09:53:27Z</time>
      </trkpt>
      <trkpt lat="48.63948" lon="6.30263">
        <ele>209</ele>
        <time>2020-08-16T09:53:28Z</time>
      </trkpt>
      <trkpt lat="48.63941" lon="6.30271">
        <ele>209</ele>
        <time>2020-08-16T09:53:30Z</time>
      </trkpt>
      <trkpt lat="48.63938" lon="6.30276">
        <ele>209</ele>
        <time>2020-08-16T09:53:31Z</time>
      </trkpt>
      <trkpt lat="48.63934" lon="6.30283">
        <ele>209</ele>
        <time>2020-08-16T09:53:32Z</time>
      </trkpt>
      <trkpt lat="48.6393" lon="6.30288">
        <ele>209</ele>
        <time>2020-08-16T09:53:33Z</time>
      </trkpt>
      <trkpt lat="48.63926" lon="6.30294">
        <ele>209</ele>
        <time>2020-08-16T09:53:34Z</time>
      </trkpt>
      <trkpt lat="48.63923" lon="6.30299">
        <ele>209</ele>
        <time>2020-08-16T09:53:35Z</time>
      </trkpt>
      <trkpt lat="48.63917" lon="6.30309">
        <ele>209</ele>
        <time>2020-08-16T09:53:37Z</time>
      </trkpt>
      <trkpt lat="48.63913" lon="6.30314">
        <ele>209</ele>
        <time>2020-08-16T09:53:38Z</time>
      </trkpt>
      <trkpt lat="48.63909" lon="6.3032">
        <ele>209</ele>
        <time>2020-08-16T09:53:39Z</time>
      </trkpt>
      <trkpt lat="48.63906" lon="6.30327">
        <ele>209</ele>
        <time>2020-08-16T09:53:40Z</time>
      </trkpt>
      <trkpt lat="48.63903" lon="6.30333">
        <ele>209</ele>
        <time>2020-08-16T09:53:41Z</time>
      </trkpt>
      <trkpt lat="48.63901" lon="6.30339">
        <ele>209</ele>
        <time>2020-08-16T09:53:42Z</time>
      </trkpt>
      <trkpt lat="48.63897" lon="6.30345">
        <ele>209</ele>
        <time>2020-08-16T09:53:43Z</time>
      </trkpt>
      <trkpt lat="48.63894" lon="6.3035">
        <ele>209</ele>
        <time>2020-08-16T09:53:44Z</time>
      </trkpt>
      <trkpt lat="48.63886" lon="6.30367">
        <ele>209</ele>
        <time>2020-08-16T09:53:47Z</time>
      </trkpt>
      <trkpt lat="48.63883" lon="6.30373">
        <ele>209</ele>
        <time>2020-08-16T09:53:48Z</time>
      </trkpt>
      <trkpt lat="48.63878" lon="6.30384">
        <ele>209</ele>
        <time>2020-08-16T09:53:50Z</time>
      </trkpt>
      <trkpt lat="48.63873" lon="6.30392">
        <ele>209</ele>
        <time>2020-08-16T09:53:52Z</time>
      </trkpt>
      <trkpt lat="48.63868" lon="6.304">
        <ele>208</ele>
        <time>2020-08-16T09:53:54Z</time>
      </trkpt>
      <trkpt lat="48.63866" lon="6.30407">
        <ele>209</ele>
        <time>2020-08-16T09:53:55Z</time>
      </trkpt>
      <trkpt lat="48.63859" lon="6.30416">
        <ele>209</ele>
        <time>2020-08-16T09:53:57Z</time>
      </trkpt>
      <trkpt lat="48.63854" lon="6.30425">
        <ele>209</ele>
        <time>2020-08-16T09:53:59Z</time>
      </trkpt>
      <trkpt lat="48.63851" lon="6.30432">
        <ele>209</ele>
        <time>2020-08-16T09:54:00Z</time>
      </trkpt>
      <trkpt lat="48.63849" lon="6.30437">
        <ele>209</ele>
        <time>2020-08-16T09:54:01Z</time>
      </trkpt>
      <trkpt lat="48.63845" lon="6.30443">
        <ele>209</ele>
        <time>2020-08-16T09:54:02Z</time>
      </trkpt>
      <trkpt lat="48.63839" lon="6.30454">
        <ele>209</ele>
        <time>2020-08-16T09:54:04Z</time>
      </trkpt>
      <trkpt lat="48.63835" lon="6.30465">
        <ele>209</ele>
        <time>2020-08-16T09:54:06Z</time>
      </trkpt>
      <trkpt lat="48.63832" lon="6.30478">
        <ele>209</ele>
        <time>2020-08-16T09:54:08Z</time>
      </trkpt>
      <trkpt lat="48.63828" lon="6.30488">
        <ele>209</ele>
        <time>2020-08-16T09:54:10Z</time>
      </trkpt>
      <trkpt lat="48.63825" lon="6.30494">
        <ele>209</ele>
        <time>2020-08-16T09:54:11Z</time>
      </trkpt>
      <trkpt lat="48.63821" lon="6.30499">
        <ele>209</ele>
        <time>2020-08-16T09:54:12Z</time>
      </trkpt>
      <trkpt lat="48.63817" lon="6.30511">
        <ele>208</ele>
        <time>2020-08-16T09:54:14Z</time>
      </trkpt>
      <trkpt lat="48.63812" lon="6.30518">
        <ele>208</ele>
        <time>2020-08-16T09:54:15Z</time>
      </trkpt>
      <trkpt lat="48.63807" lon="6.30527">
        <ele>208</ele>
        <time>2020-08-16T09:54:17Z</time>
      </trkpt>
      <trkpt lat="48.63805" lon="6.30534">
        <ele>208</ele>
        <time>2020-08-16T09:54:18Z</time>
      </trkpt>
      <trkpt lat="48.63804" lon="6.30541">
        <ele>208</ele>
        <time>2020-08-16T09:54:19Z</time>
      </trkpt>
      <trkpt lat="48.63801" lon="6.30548">
        <ele>208</ele>
        <time>2020-08-16T09:54:20Z</time>
      </trkpt>
      <trkpt lat="48.63796" lon="6.3056">
        <ele>208</ele>
        <time>2020-08-16T09:54:22Z</time>
      </trkpt>
      <trkpt lat="48.63794" lon="6.30568">
        <ele>208</ele>
        <time>2020-08-16T09:54:23Z</time>
      </trkpt>
      <trkpt lat="48.63792" lon="6.30575">
        <ele>208</ele>
        <time>2020-08-16T09:54:24Z</time>
      </trkpt>
      <trkpt lat="48.6379" lon="6.30582">
        <ele>208</ele>
        <time>2020-08-16T09:54:25Z</time>
      </trkpt>
      <trkpt lat="48.63785" lon="6.30594">
        <ele>208</ele>
        <time>2020-08-16T09:54:27Z</time>
      </trkpt>
      <trkpt lat="48.63781" lon="6.30606">
        <ele>208</ele>
        <time>2020-08-16T09:54:29Z</time>
      </trkpt>
      <trkpt lat="48.63779" lon="6.30614">
        <ele>208</ele>
        <time>2020-08-16T09:54:30Z</time>
      </trkpt>
      <trkpt lat="48.63776" lon="6.30628">
        <ele>208</ele>
        <time>2020-08-16T09:54:32Z</time>
      </trkpt>
      <trkpt lat="48.63772" lon="6.30639">
        <ele>208</ele>
        <time>2020-08-16T09:54:34Z</time>
      </trkpt>
      <trkpt lat="48.63769" lon="6.30644">
        <ele>208</ele>
        <time>2020-08-16T09:54:35Z</time>
      </trkpt>
      <trkpt lat="48.63766" lon="6.30657">
        <ele>208</ele>
        <time>2020-08-16T09:54:37Z</time>
      </trkpt>
      <trkpt lat="48.63763" lon="6.30663">
        <ele>208</ele>
        <time>2020-08-16T09:54:38Z</time>
      </trkpt>
      <trkpt lat="48.63758" lon="6.30677">
        <ele>207</ele>
        <time>2020-08-16T09:54:40Z</time>
      </trkpt>
      <trkpt lat="48.63756" lon="6.3069">
        <ele>207</ele>
        <time>2020-08-16T09:54:42Z</time>
      </trkpt>
      <trkpt lat="48.63754" lon="6.30696">
        <ele>207</ele>
        <time>2020-08-16T09:54:43Z</time>
      </trkpt>
      <trkpt lat="48.63749" lon="6.30705">
        <ele>207</ele>
        <time>2020-08-16T09:54:44Z</time>
      </trkpt>
      <trkpt lat="48.63747" lon="6.3072">
        <ele>207</ele>
        <time>2020-08-16T09:54:46Z</time>
      </trkpt>
      <trkpt lat="48.63744" lon="6.30726">
        <ele>207</ele>
        <time>2020-08-16T09:54:47Z</time>
      </trkpt>
      <trkpt lat="48.63741" lon="6.30732">
        <ele>208</ele>
        <time>2020-08-16T09:54:48Z</time>
      </trkpt>
      <trkpt lat="48.63737" lon="6.30744">
        <ele>208</ele>
        <time>2020-08-16T09:54:50Z</time>
      </trkpt>
      <trkpt lat="48.63734" lon="6.30756">
        <ele>208</ele>
        <time>2020-08-16T09:54:52Z</time>
      </trkpt>
      <trkpt lat="48.63732" lon="6.30762">
        <ele>208</ele>
        <time>2020-08-16T09:54:53Z</time>
      </trkpt>
      <trkpt lat="48.63727" lon="6.30772">
        <ele>208</ele>
        <time>2020-08-16T09:54:55Z</time>
      </trkpt>
      <trkpt lat="48.63724" lon="6.30784">
        <ele>208</ele>
        <time>2020-08-16T09:54:57Z</time>
      </trkpt>
      <trkpt lat="48.63721" lon="6.30797">
        <ele>208</ele>
        <time>2020-08-16T09:54:59Z</time>
      </trkpt>
      <trkpt lat="48.63718" lon="6.30808">
        <ele>208</ele>
        <time>2020-08-16T09:55:01Z</time>
      </trkpt>
      <trkpt lat="48.63714" lon="6.30819">
        <ele>208</ele>
        <time>2020-08-16T09:55:03Z</time>
      </trkpt>
      <trkpt lat="48.6371" lon="6.30831">
        <ele>208</ele>
        <time>2020-08-16T09:55:05Z</time>
      </trkpt>
      <trkpt lat="48.63707" lon="6.30843">
        <ele>208</ele>
        <time>2020-08-16T09:55:07Z</time>
      </trkpt>
      <trkpt lat="48.63705" lon="6.30849">
        <ele>208</ele>
        <time>2020-08-16T09:55:08Z</time>
      </trkpt>
      <trkpt lat="48.63702" lon="6.30861">
        <ele>208</ele>
        <time>2020-08-16T09:55:10Z</time>
      </trkpt>
      <trkpt lat="48.63699" lon="6.30874">
        <ele>208</ele>
        <time>2020-08-16T09:55:12Z</time>
      </trkpt>
      <trkpt lat="48.63697" lon="6.30881">
        <ele>208</ele>
        <time>2020-08-16T09:55:13Z</time>
      </trkpt>
      <trkpt lat="48.63694" lon="6.30895">
        <ele>208</ele>
        <time>2020-08-16T09:55:15Z</time>
      </trkpt>
      <trkpt lat="48.63693" lon="6.30903">
        <ele>209</ele>
        <time>2020-08-16T09:55:16Z</time>
      </trkpt>
      <trkpt lat="48.63689" lon="6.30915">
        <ele>209</ele>
        <time>2020-08-16T09:55:18Z</time>
      </trkpt>
      <trkpt lat="48.63689" lon="6.30925">
        <ele>209</ele>
        <time>2020-08-16T09:55:19Z</time>
      </trkpt>
      <trkpt lat="48.63686" lon="6.30937">
        <ele>209</ele>
        <time>2020-08-16T09:55:21Z</time>
      </trkpt>
      <trkpt lat="48.63685" lon="6.30945">
        <ele>209</ele>
        <time>2020-08-16T09:55:22Z</time>
      </trkpt>
      <trkpt lat="48.63682" lon="6.30955">
        <ele>209</ele>
        <time>2020-08-16T09:55:24Z</time>
      </trkpt>
      <trkpt lat="48.63678" lon="6.30962">
        <ele>209</ele>
        <time>2020-08-16T09:55:25Z</time>
      </trkpt>
      <trkpt lat="48.63676" lon="6.30969">
        <ele>209</ele>
        <time>2020-08-16T09:55:26Z</time>
      </trkpt>
      <trkpt lat="48.63673" lon="6.30981">
        <ele>209</ele>
        <time>2020-08-16T09:55:28Z</time>
      </trkpt>
      <trkpt lat="48.63673" lon="6.30989">
        <ele>209</ele>
        <time>2020-08-16T09:55:29Z</time>
      </trkpt>
      <trkpt lat="48.6367" lon="6.31001">
        <ele>209</ele>
        <time>2020-08-16T09:55:31Z</time>
      </trkpt>
      <trkpt lat="48.63665" lon="6.3101">
        <ele>209</ele>
        <time>2020-08-16T09:55:33Z</time>
      </trkpt>
      <trkpt lat="48.63661" lon="6.31022">
        <ele>209</ele>
        <time>2020-08-16T09:55:35Z</time>
      </trkpt>
      <trkpt lat="48.63658" lon="6.31032">
        <ele>209</ele>
        <time>2020-08-16T09:55:37Z</time>
      </trkpt>
      <trkpt lat="48.63654" lon="6.31043">
        <ele>209</ele>
        <time>2020-08-16T09:55:39Z</time>
      </trkpt>
      <trkpt lat="48.63652" lon="6.31054">
        <ele>210</ele>
        <time>2020-08-16T09:55:41Z</time>
      </trkpt>
      <trkpt lat="48.63648" lon="6.31065">
        <ele>210</ele>
        <time>2020-08-16T09:55:43Z</time>
      </trkpt>
      <trkpt lat="48.63644" lon="6.31076">
        <ele>210</ele>
        <time>2020-08-16T09:55:45Z</time>
      </trkpt>
      <trkpt lat="48.63642" lon="6.31085">
        <ele>210</ele>
        <time>2020-08-16T09:55:47Z</time>
      </trkpt>
      <trkpt lat="48.63639" lon="6.31095">
        <ele>210</ele>
        <time>2020-08-16T09:55:49Z</time>
      </trkpt>
      <trkpt lat="48.63636" lon="6.31104">
        <ele>210</ele>
        <time>2020-08-16T09:55:51Z</time>
      </trkpt>
      <trkpt lat="48.63633" lon="6.31112">
        <ele>210</ele>
        <time>2020-08-16T09:55:53Z</time>
      </trkpt>
      <trkpt lat="48.63632" lon="6.3112">
        <ele>211</ele>
        <time>2020-08-16T09:55:55Z</time>
      </trkpt>
      <trkpt lat="48.63631" lon="6.31127">
        <ele>211</ele>
        <time>2020-08-16T09:55:57Z</time>
      </trkpt>
      <trkpt lat="48.63628" lon="6.31135">
        <ele>211</ele>
        <time>2020-08-16T09:56:00Z</time>
      </trkpt>
      <trkpt lat="48.63625" lon="6.31141">
        <ele>212</ele>
        <time>2020-08-16T09:56:02Z</time>
      </trkpt>
      <trkpt lat="48.6362" lon="6.31144">
        <ele>212</ele>
        <time>2020-08-16T09:56:06Z</time>
      </trkpt>
      <trkpt lat="48.63615" lon="6.31142">
        <ele>211</ele>
        <time>2020-08-16T09:56:08Z</time>
      </trkpt>
      <trkpt lat="48.63609" lon="6.31141">
        <ele>211</ele>
        <time>2020-08-16T09:56:10Z</time>
      </trkpt>
      <trkpt lat="48.63605" lon="6.31137">
        <ele>210</ele>
        <time>2020-08-16T09:56:12Z</time>
      </trkpt>
      <trkpt lat="48.636" lon="6.31134">
        <ele>210</ele>
        <time>2020-08-16T09:56:14Z</time>
      </trkpt>
      <trkpt lat="48.63594" lon="6.31129">
        <ele>210</ele>
        <time>2020-08-16T09:56:17Z</time>
      </trkpt>
      <trkpt lat="48.63588" lon="6.31126">
        <ele>211</ele>
        <time>2020-08-16T09:56:19Z</time>
      </trkpt>
      <trkpt lat="48.63583" lon="6.31122">
        <ele>211</ele>
        <time>2020-08-16T09:56:21Z</time>
      </trkpt>
      <trkpt lat="48.63575" lon="6.31118">
        <ele>212</ele>
        <time>2020-08-16T09:56:23Z</time>
      </trkpt>
      <trkpt lat="48.63568" lon="6.31115">
        <ele>212</ele>
        <time>2020-08-16T09:56:25Z</time>
      </trkpt>
      <trkpt lat="48.63562" lon="6.31109">
        <ele>212</ele>
        <time>2020-08-16T09:56:27Z</time>
      </trkpt>
      <trkpt lat="48.63554" lon="6.31104">
        <ele>212</ele>
        <time>2020-08-16T09:56:29Z</time>
      </trkpt>
      <trkpt lat="48.63549" lon="6.31103">
        <ele>211</ele>
        <time>2020-08-16T09:56:30Z</time>
      </trkpt>
      <trkpt lat="48.63541" lon="6.31098">
        <ele>211</ele>
        <time>2020-08-16T09:56:32Z</time>
      </trkpt>
      <trkpt lat="48.63533" lon="6.31092">
        <ele>211</ele>
        <time>2020-08-16T09:56:34Z</time>
      </trkpt>
      <trkpt lat="48.63525" lon="6.31087">
        <ele>211</ele>
        <time>2020-08-16T09:56:36Z</time>
      </trkpt>
      <trkpt lat="48.6352" lon="6.31083">
        <ele>211</ele>
        <time>2020-08-16T09:56:37Z</time>
      </trkpt>
      <trkpt lat="48.63516" lon="6.3108">
        <ele>210</ele>
        <time>2020-08-16T09:56:38Z</time>
      </trkpt>
      <trkpt lat="48.63511" lon="6.31076">
        <ele>210</ele>
        <time>2020-08-16T09:56:39Z</time>
      </trkpt>
      <trkpt lat="48.63507" lon="6.3107">
        <ele>209</ele>
        <time>2020-08-16T09:56:40Z</time>
      </trkpt>
      <trkpt lat="48.63502" lon="6.31065">
        <ele>209</ele>
        <time>2020-08-16T09:56:41Z</time>
      </trkpt>
      <trkpt lat="48.63496" lon="6.31063">
        <ele>208</ele>
        <time>2020-08-16T09:56:42Z</time>
      </trkpt>
      <trkpt lat="48.6349" lon="6.31059">
        <ele>208</ele>
        <time>2020-08-16T09:56:43Z</time>
      </trkpt>
      <trkpt lat="48.63485" lon="6.31055">
        <ele>208</ele>
        <time>2020-08-16T09:56:44Z</time>
      </trkpt>
      <trkpt lat="48.63479" lon="6.31052">
        <ele>208</ele>
        <time>2020-08-16T09:56:45Z</time>
      </trkpt>
      <trkpt lat="48.63474" lon="6.31048">
        <ele>208</ele>
        <time>2020-08-16T09:56:46Z</time>
      </trkpt>
      <trkpt lat="48.63468" lon="6.31045">
        <ele>208</ele>
        <time>2020-08-16T09:56:47Z</time>
      </trkpt>
      <trkpt lat="48.63463" lon="6.31042">
        <ele>208</ele>
        <time>2020-08-16T09:56:48Z</time>
      </trkpt>
      <trkpt lat="48.63457" lon="6.31039">
        <ele>208</ele>
        <time>2020-08-16T09:56:49Z</time>
      </trkpt>
      <trkpt lat="48.63451" lon="6.31035">
        <ele>208</ele>
        <time>2020-08-16T09:56:50Z</time>
      </trkpt>
      <trkpt lat="48.63446" lon="6.31031">
        <ele>208</ele>
        <time>2020-08-16T09:56:51Z</time>
      </trkpt>
      <trkpt lat="48.63442" lon="6.31026">
        <ele>207</ele>
        <time>2020-08-16T09:56:52Z</time>
      </trkpt>
      <trkpt lat="48.63436" lon="6.31022">
        <ele>207</ele>
        <time>2020-08-16T09:56:53Z</time>
      </trkpt>
      <trkpt lat="48.63432" lon="6.31017">
        <ele>207</ele>
        <time>2020-08-16T09:56:54Z</time>
      </trkpt>
      <trkpt lat="48.63426" lon="6.31014">
        <ele>207</ele>
        <time>2020-08-16T09:56:55Z</time>
      </trkpt>
      <trkpt lat="48.63419" lon="6.3101">
        <ele>207</ele>
        <time>2020-08-16T09:56:56Z</time>
      </trkpt>
      <trkpt lat="48.63414" lon="6.31008">
        <ele>207</ele>
        <time>2020-08-16T09:56:57Z</time>
      </trkpt>
      <trkpt lat="48.63407" lon="6.31">
        <ele>207</ele>
        <time>2020-08-16T09:56:59Z</time>
      </trkpt>
      <trkpt lat="48.63403" lon="6.30989">
        <ele>207</ele>
        <time>2020-08-16T09:57:01Z</time>
      </trkpt>
      <trkpt lat="48.634" lon="6.3098">
        <ele>207</ele>
        <time>2020-08-16T09:57:03Z</time>
      </trkpt>
      <trkpt lat="48.63396" lon="6.30971">
        <ele>207</ele>
        <time>2020-08-16T09:57:05Z</time>
      </trkpt>
      <trkpt lat="48.63393" lon="6.30962">
        <ele>207</ele>
        <time>2020-08-16T09:57:07Z</time>
      </trkpt>
      <trkpt lat="48.6339" lon="6.30951">
        <ele>207</ele>
        <time>2020-08-16T09:57:10Z</time>
      </trkpt>
      <trkpt lat="48.63387" lon="6.30942">
        <ele>207</ele>
        <time>2020-08-16T09:57:12Z</time>
      </trkpt>
      <trkpt lat="48.63384" lon="6.30933">
        <ele>207</ele>
        <time>2020-08-16T09:57:14Z</time>
      </trkpt>
      <trkpt lat="48.6338" lon="6.30924">
        <ele>206</ele>
        <time>2020-08-16T09:57:16Z</time>
      </trkpt>
      <trkpt lat="48.63377" lon="6.30915">
        <ele>205</ele>
        <time>2020-08-16T09:57:18Z</time>
      </trkpt>
      <trkpt lat="48.63374" lon="6.30908">
        <ele>205</ele>
        <time>2020-08-16T09:57:20Z</time>
      </trkpt>
      <trkpt lat="48.63369" lon="6.309">
        <ele>203</ele>
        <time>2020-08-16T09:57:22Z</time>
      </trkpt>
      <trkpt lat="48.63364" lon="6.30894">
        <ele>200</ele>
        <time>2020-08-16T09:57:24Z</time>
      </trkpt>
      <trkpt lat="48.63361" lon="6.30887">
        <ele>200</ele>
        <time>2020-08-16T09:57:26Z</time>
      </trkpt>
      <trkpt lat="48.63356" lon="6.30881">
        <ele>200</ele>
        <time>2020-08-16T09:57:28Z</time>
      </trkpt>
      <trkpt lat="48.63352" lon="6.30875">
        <ele>200</ele>
        <time>2020-08-16T09:57:30Z</time>
      </trkpt>
      <trkpt lat="48.63348" lon="6.30868">
        <ele>200</ele>
        <time>2020-08-16T09:57:32Z</time>
      </trkpt>
      <trkpt lat="48.63344" lon="6.30861">
        <ele>200</ele>
        <time>2020-08-16T09:57:34Z</time>
      </trkpt>
      <trkpt lat="48.6334" lon="6.30853">
        <ele>200</ele>
        <time>2020-08-16T09:57:36Z</time>
      </trkpt>
      <trkpt lat="48.63335" lon="6.30846">
        <ele>201</ele>
        <time>2020-08-16T09:57:38Z</time>
      </trkpt>
      <trkpt lat="48.63329" lon="6.30838">
        <ele>205</ele>
        <time>2020-08-16T09:57:40Z</time>
      </trkpt>
      <trkpt lat="48.63324" lon="6.30831">
        <ele>207</ele>
        <time>2020-08-16T09:57:42Z</time>
      </trkpt>
      <trkpt lat="48.6332" lon="6.30828">
        <ele>208</ele>
        <time>2020-08-16T09:57:44Z</time>
      </trkpt>
      <trkpt lat="48.63315" lon="6.30823">
        <ele>208</ele>
        <time>2020-08-16T09:57:46Z</time>
      </trkpt>
      <trkpt lat="48.63311" lon="6.30816">
        <ele>208</ele>
        <time>2020-08-16T09:57:48Z</time>
      </trkpt>
      <trkpt lat="48.63308" lon="6.30809">
        <ele>208</ele>
        <time>2020-08-16T09:57:51Z</time>
      </trkpt>
      <trkpt lat="48.63305" lon="6.30802">
        <ele>208</ele>
        <time>2020-08-16T09:57:54Z</time>
      </trkpt>
      <trkpt lat="48.63302" lon="6.30797">
        <ele>208</ele>
        <time>2020-08-16T09:57:59Z</time>
      </trkpt>
      <trkpt lat="48.63298" lon="6.30789">
        <ele>208</ele>
        <time>2020-08-16T09:58:23Z</time>
      </trkpt>
      <trkpt lat="48.63292" lon="6.30781">
        <ele>208</ele>
        <time>2020-08-16T09:58:25Z</time>
      </trkpt>
      <trkpt lat="48.63288" lon="6.30774">
        <ele>208</ele>
        <time>2020-08-16T09:58:27Z</time>
      </trkpt>
      <trkpt lat="48.63284" lon="6.30766">
        <ele>207</ele>
        <time>2020-08-16T09:58:29Z</time>
      </trkpt>
      <trkpt lat="48.6328" lon="6.30756">
        <ele>205</ele>
        <time>2020-08-16T09:58:31Z</time>
      </trkpt>
      <trkpt lat="48.63275" lon="6.30745">
        <ele>201</ele>
        <time>2020-08-16T09:58:33Z</time>
      </trkpt>
      <trkpt lat="48.63273" lon="6.30733">
        <ele>201</ele>
        <time>2020-08-16T09:58:35Z</time>
      </trkpt>
      <trkpt lat="48.63272" lon="6.30726">
        <ele>203</ele>
        <time>2020-08-16T09:58:36Z</time>
      </trkpt>
      <trkpt lat="48.63271" lon="6.30719">
        <ele>205</ele>
        <time>2020-08-16T09:58:37Z</time>
      </trkpt>
      <trkpt lat="48.63272" lon="6.30707">
        <ele>206</ele>
        <time>2020-08-16T09:58:39Z</time>
      </trkpt>
      <trkpt lat="48.63274" lon="6.307">
        <ele>207</ele>
        <time>2020-08-16T09:58:40Z</time>
      </trkpt>
      <trkpt lat="48.63277" lon="6.30693">
        <ele>207</ele>
        <time>2020-08-16T09:58:41Z</time>
      </trkpt>
      <trkpt lat="48.63279" lon="6.30687">
        <ele>207</ele>
        <time>2020-08-16T09:58:42Z</time>
      </trkpt>
      <trkpt lat="48.63282" lon="6.3068">
        <ele>207</ele>
        <time>2020-08-16T09:58:43Z</time>
      </trkpt>
      <trkpt lat="48.63286" lon="6.30668">
        <ele>207</ele>
        <time>2020-08-16T09:58:45Z</time>
      </trkpt>
      <trkpt lat="48.63288" lon="6.30662">
        <ele>207</ele>
        <time>2020-08-16T09:58:46Z</time>
      </trkpt>
      <trkpt lat="48.6329" lon="6.30654">
        <ele>207</ele>
        <time>2020-08-16T09:58:47Z</time>
      </trkpt>
      <trkpt lat="48.63293" lon="6.30641">
        <ele>207</ele>
        <time>2020-08-16T09:58:49Z</time>
      </trkpt>
      <trkpt lat="48.63295" lon="6.30635">
        <ele>207</ele>
        <time>2020-08-16T09:58:50Z</time>
      </trkpt>
      <trkpt lat="48.63297" lon="6.30624">
        <ele>207</ele>
        <time>2020-08-16T09:58:52Z</time>
      </trkpt>
      <trkpt lat="48.63298" lon="6.30615">
        <ele>206</ele>
        <time>2020-08-16T09:58:54Z</time>
      </trkpt>
      <trkpt lat="48.63292" lon="6.30609">
        <ele>206</ele>
        <time>2020-08-16T09:58:56Z</time>
      </trkpt>
      <trkpt lat="48.63287" lon="6.30603">
        <ele>207</ele>
        <time>2020-08-16T09:58:58Z</time>
      </trkpt>
      <trkpt lat="48.63281" lon="6.30594">
        <ele>207</ele>
        <time>2020-08-16T09:59:00Z</time>
      </trkpt>
      <trkpt lat="48.63276" lon="6.30592">
        <ele>207</ele>
        <time>2020-08-16T09:59:02Z</time>
      </trkpt>
      <trkpt lat="48.63271" lon="6.30589">
        <ele>207</ele>
        <time>2020-08-16T09:59:04Z</time>
      </trkpt>
      <trkpt lat="48.63266" lon="6.30586">
        <ele>207</ele>
        <time>2020-08-16T09:59:06Z</time>
      </trkpt>
      <trkpt lat="48.6326" lon="6.30583">
        <ele>207</ele>
        <time>2020-08-16T09:59:08Z</time>
      </trkpt>
      <trkpt lat="48.63256" lon="6.30581">
        <ele>207</ele>
        <time>2020-08-16T09:59:10Z</time>
      </trkpt>
      <trkpt lat="48.63253" lon="6.30576">
        <ele>206</ele>
        <time>2020-08-16T09:59:12Z</time>
      </trkpt>
      <trkpt lat="48.6325" lon="6.30568">
        <ele>206</ele>
        <time>2020-08-16T09:59:16Z</time>
      </trkpt>
      <trkpt lat="48.6325" lon="6.30561">
        <ele>206</ele>
        <time>2020-08-16T09:59:20Z</time>
      </trkpt>
      <trkpt lat="48.63259" lon="6.3055">
        <ele>206</ele>
        <time>2020-08-16T09:59:27Z</time>
      </trkpt>
      <trkpt lat="48.63262" lon="6.30544">
        <ele>206</ele>
        <time>2020-08-16T09:59:29Z</time>
      </trkpt>
      <trkpt lat="48.63266" lon="6.30535">
        <ele>206</ele>
        <time>2020-08-16T09:59:32Z</time>
      </trkpt>
      <trkpt lat="48.63269" lon="6.30527">
        <ele>206</ele>
        <time>2020-08-16T09:59:34Z</time>
      </trkpt>
      <trkpt lat="48.63273" lon="6.30519">
        <ele>206</ele>
        <time>2020-08-16T09:59:36Z</time>
      </trkpt>
      <trkpt lat="48.63276" lon="6.3051">
        <ele>206</ele>
        <time>2020-08-16T09:59:38Z</time>
      </trkpt>
      <trkpt lat="48.63279" lon="6.30501">
        <ele>206</ele>
        <time>2020-08-16T09:59:40Z</time>
      </trkpt>
      <trkpt lat="48.63284" lon="6.30493">
        <ele>206</ele>
        <time>2020-08-16T09:59:42Z</time>
      </trkpt>
      <trkpt lat="48.63288" lon="6.30485">
        <ele>206</ele>
        <time>2020-08-16T09:59:44Z</time>
      </trkpt>
      <trkpt lat="48.63291" lon="6.30475">
        <ele>206</ele>
        <time>2020-08-16T09:59:46Z</time>
      </trkpt>
      <trkpt lat="48.63293" lon="6.30468">
        <ele>206</ele>
        <time>2020-08-16T09:59:48Z</time>
      </trkpt>
      <trkpt lat="48.63295" lon="6.3046">
        <ele>206</ele>
        <time>2020-08-16T09:59:52Z</time>
      </trkpt>
      <trkpt lat="48.6329" lon="6.30456">
        <ele>207</ele>
        <time>2020-08-16T09:59:54Z</time>
      </trkpt>
      <trkpt lat="48.63285" lon="6.3045">
        <ele>207</ele>
        <time>2020-08-16T09:59:56Z</time>
      </trkpt>
      <trkpt lat="48.63279" lon="6.30445">
        <ele>207</ele>
        <time>2020-08-16T09:59:58Z</time>
      </trkpt>
      <trkpt lat="48.63274" lon="6.3044">
        <ele>208</ele>
        <time>2020-08-16T10:00:00Z</time>
      </trkpt>
      <trkpt lat="48.63267" lon="6.30433">
        <ele>208</ele>
        <time>2020-08-16T10:00:03Z</time>
      </trkpt>
      <trkpt lat="48.63262" lon="6.30427">
        <ele>208</ele>
        <time>2020-08-16T10:00:05Z</time>
      </trkpt>
      <trkpt lat="48.63256" lon="6.30421">
        <ele>208</ele>
        <time>2020-08-16T10:00:07Z</time>
      </trkpt>
      <trkpt lat="48.63252" lon="6.30416">
        <ele>208</ele>
        <time>2020-08-16T10:00:09Z</time>
      </trkpt>
      <trkpt lat="48.63245" lon="6.3041">
        <ele>209</ele>
        <time>2020-08-16T10:00:11Z</time>
      </trkpt>
      <trkpt lat="48.6324" lon="6.30404">
        <ele>209</ele>
        <time>2020-08-16T10:00:13Z</time>
      </trkpt>
      <trkpt lat="48.63235" lon="6.30399">
        <ele>210</ele>
        <time>2020-08-16T10:00:15Z</time>
      </trkpt>
      <trkpt lat="48.63229" lon="6.30394">
        <ele>210</ele>
        <time>2020-08-16T10:00:17Z</time>
      </trkpt>
      <trkpt lat="48.63224" lon="6.3039">
        <ele>211</ele>
        <time>2020-08-16T10:00:19Z</time>
      </trkpt>
      <trkpt lat="48.6322" lon="6.30381">
        <ele>211</ele>
        <time>2020-08-16T10:00:22Z</time>
      </trkpt>
      <trkpt lat="48.63217" lon="6.30376">
        <ele>212</ele>
        <time>2020-08-16T10:00:25Z</time>
      </trkpt>
      <trkpt lat="48.63214" lon="6.30371">
        <ele>212</ele>
        <time>2020-08-16T10:00:28Z</time>
      </trkpt>
      <trkpt lat="48.63209" lon="6.30367">
        <ele>212</ele>
        <time>2020-08-16T10:00:32Z</time>
      </trkpt>
      <trkpt lat="48.63205" lon="6.30362">
        <ele>213</ele>
        <time>2020-08-16T10:00:35Z</time>
      </trkpt>
      <trkpt lat="48.632" lon="6.30356">
        <ele>213</ele>
        <time>2020-08-16T10:00:38Z</time>
      </trkpt>
      <trkpt lat="48.63196" lon="6.30353">
        <ele>214</ele>
        <time>2020-08-16T10:00:41Z</time>
      </trkpt>
      <trkpt lat="48.63192" lon="6.30348">
        <ele>214</ele>
        <time>2020-08-16T10:00:43Z</time>
      </trkpt>
      <trkpt lat="48.63188" lon="6.30343">
        <ele>214</ele>
        <time>2020-08-16T10:00:46Z</time>
      </trkpt>
      <trkpt lat="48.63182" lon="6.30339">
        <ele>214</ele>
        <time>2020-08-16T10:00:49Z</time>
      </trkpt>
      <trkpt lat="48.63178" lon="6.30334">
        <ele>214</ele>
        <time>2020-08-16T10:00:52Z</time>
      </trkpt>
      <trkpt lat="48.63173" lon="6.30332">
        <ele>215</ele>
        <time>2020-08-16T10:00:57Z</time>
      </trkpt>
      <trkpt lat="48.63147" lon="6.30395">
        <ele>213</ele>
        <time>2020-08-16T10:17:14Z</time>
      </trkpt>
      <trkpt lat="48.63145" lon="6.30403">
        <ele>213</ele>
        <time>2020-08-16T10:17:18Z</time>
      </trkpt>
      <trkpt lat="48.63148" lon="6.3041">
        <ele>213</ele>
        <time>2020-08-16T10:17:39Z</time>
      </trkpt>
      <trkpt lat="48.63141" lon="6.3041">
        <ele>213</ele>
        <time>2020-08-16T10:18:05Z</time>
      </trkpt>
      <trkpt lat="48.63136" lon="6.30411">
        <ele>212</ele>
        <time>2020-08-16T10:18:11Z</time>
      </trkpt>
      <trkpt lat="48.63162" lon="6.30369">
        <ele>214</ele>
        <time>2020-08-16T10:20:07Z</time>
      </trkpt>
      <trkpt lat="48.63163" lon="6.30361">
        <ele>214</ele>
        <time>2020-08-16T10:20:11Z</time>
      </trkpt>
      <trkpt lat="48.63167" lon="6.30355">
        <ele>214</ele>
        <time>2020-08-16T10:20:17Z</time>
      </trkpt>
      <trkpt lat="48.6317" lon="6.30349">
        <ele>214</ele>
        <time>2020-08-16T10:20:21Z</time>
      </trkpt>
      <trkpt lat="48.63172" lon="6.30343">
        <ele>215</ele>
        <time>2020-08-16T10:20:24Z</time>
      </trkpt>
      <trkpt lat="48.63175" lon="6.30337">
        <ele>215</ele>
        <time>2020-08-16T10:20:29Z</time>
      </trkpt>
      <trkpt lat="48.63173" lon="6.3033">
        <ele>215</ele>
        <time>2020-08-16T10:20:37Z</time>
      </trkpt>
      <trkpt lat="48.63178" lon="6.30331">
        <ele>214</ele>
        <time>2020-08-16T10:20:54Z</time>
      </trkpt>
      <trkpt lat="48.63174" lon="6.30337">
        <ele>215</ele>
        <time>2020-08-16T10:21:32Z</time>
      </trkpt>
      <trkpt lat="48.63169" lon="6.30339">
        <ele>215</ele>
        <time>2020-08-16T10:21:33Z</time>
      </trkpt>
      <trkpt lat="48.6317" lon="6.30332">
        <ele>215</ele>
        <time>2020-08-16T10:21:43Z</time>
      </trkpt>
      <trkpt lat="48.63178" lon="6.30329">
        <ele>215</ele>
        <time>2020-08-16T10:22:15Z</time>
      </trkpt>
      <trkpt lat="48.63196" lon="6.30348">
        <ele>214</ele>
        <time>2020-08-16T10:25:47Z</time>
      </trkpt>
      <trkpt lat="48.632" lon="6.30353">
        <ele>214</ele>
        <time>2020-08-16T10:25:49Z</time>
      </trkpt>
      <trkpt lat="48.63204" lon="6.30357">
        <ele>213</ele>
        <time>2020-08-16T10:25:51Z</time>
      </trkpt>
      <trkpt lat="48.63207" lon="6.30364">
        <ele>213</ele>
        <time>2020-08-16T10:25:54Z</time>
      </trkpt>
      <trkpt lat="48.632" lon="6.3037">
        <ele>213</ele>
        <time>2020-08-16T10:25:56Z</time>
      </trkpt>
      <trkpt lat="48.63196" lon="6.30376">
        <ele>213</ele>
        <time>2020-08-16T10:25:58Z</time>
      </trkpt>
      <trkpt lat="48.63192" lon="6.30383">
        <ele>213</ele>
        <time>2020-08-16T10:26:01Z</time>
      </trkpt>
      <trkpt lat="48.63188" lon="6.30389">
        <ele>213</ele>
        <time>2020-08-16T10:26:04Z</time>
      </trkpt>
      <trkpt lat="48.63184" lon="6.30393">
        <ele>213</ele>
        <time>2020-08-16T10:26:09Z</time>
      </trkpt>
      <trkpt lat="48.63179" lon="6.30398">
        <ele>213</ele>
        <time>2020-08-16T10:26:13Z</time>
      </trkpt>
      <trkpt lat="48.63177" lon="6.30405">
        <ele>213</ele>
        <time>2020-08-16T10:26:16Z</time>
      </trkpt>
      <trkpt lat="48.63173" lon="6.3041">
        <ele>214</ele>
        <time>2020-08-16T10:26:19Z</time>
      </trkpt>
      <trkpt lat="48.6317" lon="6.30417">
        <ele>213</ele>
        <time>2020-08-16T10:26:22Z</time>
      </trkpt>
      <trkpt lat="48.63165" lon="6.30423">
        <ele>213</ele>
        <time>2020-08-16T10:26:25Z</time>
      </trkpt>
      <trkpt lat="48.63163" lon="6.30429">
        <ele>213</ele>
        <time>2020-08-16T10:26:28Z</time>
      </trkpt>
      <trkpt lat="48.63158" lon="6.30432">
        <ele>213</ele>
        <time>2020-08-16T10:26:30Z</time>
      </trkpt>
      <trkpt lat="48.63154" lon="6.30437">
        <ele>213</ele>
        <time>2020-08-16T10:26:33Z</time>
      </trkpt>
      <trkpt lat="48.63151" lon="6.30444">
        <ele>213</ele>
        <time>2020-08-16T10:26:36Z</time>
      </trkpt>
      <trkpt lat="48.63148" lon="6.30452">
        <ele>213</ele>
        <time>2020-08-16T10:26:39Z</time>
      </trkpt>
      <trkpt lat="48.63149" lon="6.30459">
        <ele>213</ele>
        <time>2020-08-16T10:26:42Z</time>
      </trkpt>
      <trkpt lat="48.63152" lon="6.30467">
        <ele>212</ele>
        <time>2020-08-16T10:26:45Z</time>
      </trkpt>
      <trkpt lat="48.63156" lon="6.30477">
        <ele>211</ele>
        <time>2020-08-16T10:26:48Z</time>
      </trkpt>
      <trkpt lat="48.6316" lon="6.30483">
        <ele>211</ele>
        <time>2020-08-16T10:26:50Z</time>
      </trkpt>
      <trkpt lat="48.63163" lon="6.30489">
        <ele>210</ele>
        <time>2020-08-16T10:26:52Z</time>
      </trkpt>
      <trkpt lat="48.63167" lon="6.30495">
        <ele>210</ele>
        <time>2020-08-16T10:26:54Z</time>
      </trkpt>
      <trkpt lat="48.63172" lon="6.30503">
        <ele>209</ele>
        <time>2020-08-16T10:26:56Z</time>
      </trkpt>
      <trkpt lat="48.63175" lon="6.30508">
        <ele>209</ele>
        <time>2020-08-16T10:26:58Z</time>
      </trkpt>
      <trkpt lat="48.63179" lon="6.30516">
        <ele>209</ele>
        <time>2020-08-16T10:27:01Z</time>
      </trkpt>
      <trkpt lat="48.63182" lon="6.30524">
        <ele>208</ele>
        <time>2020-08-16T10:27:04Z</time>
      </trkpt>
      <trkpt lat="48.63187" lon="6.30528">
        <ele>208</ele>
        <time>2020-08-16T10:27:12Z</time>
      </trkpt>
      <trkpt lat="48.63193" lon="6.30535">
        <ele>207</ele>
        <time>2020-08-16T10:27:56Z</time>
      </trkpt>
      <trkpt lat="48.63196" lon="6.30544">
        <ele>207</ele>
        <time>2020-08-16T10:27:59Z</time>
      </trkpt>
      <trkpt lat="48.63199" lon="6.30553">
        <ele>207</ele>
        <time>2020-08-16T10:28:02Z</time>
      </trkpt>
      <trkpt lat="48.63202" lon="6.30561">
        <ele>207</ele>
        <time>2020-08-16T10:28:04Z</time>
      </trkpt>
      <trkpt lat="48.63205" lon="6.30569">
        <ele>207</ele>
        <time>2020-08-16T10:28:06Z</time>
      </trkpt>
      <trkpt lat="48.63209" lon="6.30579">
        <ele>207</ele>
        <time>2020-08-16T10:28:08Z</time>
      </trkpt>
      <trkpt lat="48.63211" lon="6.30589">
        <ele>207</ele>
        <time>2020-08-16T10:28:10Z</time>
      </trkpt>
      <trkpt lat="48.63214" lon="6.30599">
        <ele>207</ele>
        <time>2020-08-16T10:28:12Z</time>
      </trkpt>
      <trkpt lat="48.63217" lon="6.30609">
        <ele>207</ele>
        <time>2020-08-16T10:28:14Z</time>
      </trkpt>
      <trkpt lat="48.63219" lon="6.30617">
        <ele>206</ele>
        <time>2020-08-16T10:28:16Z</time>
      </trkpt>
      <trkpt lat="48.63223" lon="6.30627">
        <ele>206</ele>
        <time>2020-08-16T10:28:18Z</time>
      </trkpt>
      <trkpt lat="48.63226" lon="6.30637">
        <ele>206</ele>
        <time>2020-08-16T10:28:20Z</time>
      </trkpt>
      <trkpt lat="48.63229" lon="6.30648">
        <ele>206</ele>
        <time>2020-08-16T10:28:22Z</time>
      </trkpt>
      <trkpt lat="48.63232" lon="6.30655">
        <ele>206</ele>
        <time>2020-08-16T10:28:24Z</time>
      </trkpt>
      <trkpt lat="48.63236" lon="6.30663">
        <ele>206</ele>
        <time>2020-08-16T10:28:26Z</time>
      </trkpt>
      <trkpt lat="48.63239" lon="6.30674">
        <ele>206</ele>
        <time>2020-08-16T10:28:28Z</time>
      </trkpt>
      <trkpt lat="48.63242" lon="6.30684">
        <ele>206</ele>
        <time>2020-08-16T10:28:30Z</time>
      </trkpt>
      <trkpt lat="48.63244" lon="6.30694">
        <ele>207</ele>
        <time>2020-08-16T10:28:32Z</time>
      </trkpt>
      <trkpt lat="48.63248" lon="6.30704">
        <ele>207</ele>
        <time>2020-08-16T10:28:34Z</time>
      </trkpt>
      <trkpt lat="48.63252" lon="6.30708">
        <ele>207</ele>
        <time>2020-08-16T10:28:35Z</time>
      </trkpt>
      <trkpt lat="48.63254" lon="6.30716">
        <ele>207</ele>
        <time>2020-08-16T10:28:37Z</time>
      </trkpt>
      <trkpt lat="48.63259" lon="6.30722">
        <ele>206</ele>
        <time>2020-08-16T10:28:39Z</time>
      </trkpt>
      <trkpt lat="48.63259" lon="6.30729">
        <ele>206</ele>
        <time>2020-08-16T10:28:41Z</time>
      </trkpt>
      <trkpt lat="48.63261" lon="6.30737">
        <ele>203</ele>
        <time>2020-08-16T10:28:43Z</time>
      </trkpt>
      <trkpt lat="48.63262" lon="6.30746">
        <ele>201</ele>
        <time>2020-08-16T10:28:46Z</time>
      </trkpt>
      <trkpt lat="48.63264" lon="6.30755">
        <ele>202</ele>
        <time>2020-08-16T10:28:49Z</time>
      </trkpt>
      <trkpt lat="48.63268" lon="6.30759">
        <ele>204</ele>
        <time>2020-08-16T10:28:52Z</time>
      </trkpt>
      <trkpt lat="48.63271" lon="6.30767">
        <ele>206</ele>
        <time>2020-08-16T10:29:05Z</time>
      </trkpt>
      <trkpt lat="48.63273" lon="6.30776">
        <ele>207</ele>
        <time>2020-08-16T10:29:08Z</time>
      </trkpt>
      <trkpt lat="48.63277" lon="6.30785">
        <ele>207</ele>
        <time>2020-08-16T10:29:11Z</time>
      </trkpt>
      <trkpt lat="48.63281" lon="6.3079">
        <ele>208</ele>
        <time>2020-08-16T10:29:13Z</time>
      </trkpt>
      <trkpt lat="48.63286" lon="6.30796">
        <ele>208</ele>
        <time>2020-08-16T10:29:15Z</time>
      </trkpt>
      <trkpt lat="48.6329" lon="6.30803">
        <ele>208</ele>
        <time>2020-08-16T10:29:17Z</time>
      </trkpt>
      <trkpt lat="48.63295" lon="6.30811">
        <ele>208</ele>
        <time>2020-08-16T10:29:19Z</time>
      </trkpt>
      <trkpt lat="48.633" lon="6.30817">
        <ele>208</ele>
        <time>2020-08-16T10:29:21Z</time>
      </trkpt>
      <trkpt lat="48.63306" lon="6.30825">
        <ele>208</ele>
        <time>2020-08-16T10:29:23Z</time>
      </trkpt>
      <trkpt lat="48.63311" lon="6.30833">
        <ele>208</ele>
        <time>2020-08-16T10:29:25Z</time>
      </trkpt>
      <trkpt lat="48.63316" lon="6.3084">
        <ele>208</ele>
        <time>2020-08-16T10:29:27Z</time>
      </trkpt>
      <trkpt lat="48.63323" lon="6.30848">
        <ele>205</ele>
        <time>2020-08-16T10:29:29Z</time>
      </trkpt>
      <trkpt lat="48.63328" lon="6.30854">
        <ele>201</ele>
        <time>2020-08-16T10:29:31Z</time>
      </trkpt>
      <trkpt lat="48.63334" lon="6.3086">
        <ele>200</ele>
        <time>2020-08-16T10:29:33Z</time>
      </trkpt>
      <trkpt lat="48.63337" lon="6.30868">
        <ele>200</ele>
        <time>2020-08-16T10:29:35Z</time>
      </trkpt>
      <trkpt lat="48.63341" lon="6.30876">
        <ele>200</ele>
        <time>2020-08-16T10:29:37Z</time>
      </trkpt>
      <trkpt lat="48.63346" lon="6.30883">
        <ele>200</ele>
        <time>2020-08-16T10:29:39Z</time>
      </trkpt>
      <trkpt lat="48.6335" lon="6.30891">
        <ele>200</ele>
        <time>2020-08-16T10:29:41Z</time>
      </trkpt>
      <trkpt lat="48.63355" lon="6.30898">
        <ele>200</ele>
        <time>2020-08-16T10:29:43Z</time>
      </trkpt>
      <trkpt lat="48.63362" lon="6.30905">
        <ele>202</ele>
        <time>2020-08-16T10:29:45Z</time>
      </trkpt>
      <trkpt lat="48.63366" lon="6.30913">
        <ele>204</ele>
        <time>2020-08-16T10:29:47Z</time>
      </trkpt>
      <trkpt lat="48.63369" lon="6.3092">
        <ele>205</ele>
        <time>2020-08-16T10:29:49Z</time>
      </trkpt>
      <trkpt lat="48.63374" lon="6.30929">
        <ele>206</ele>
        <time>2020-08-16T10:29:51Z</time>
      </trkpt>
      <trkpt lat="48.63378" lon="6.30939">
        <ele>206</ele>
        <time>2020-08-16T10:29:53Z</time>
      </trkpt>
      <trkpt lat="48.63381" lon="6.30944">
        <ele>206</ele>
        <time>2020-08-16T10:29:54Z</time>
      </trkpt>
      <trkpt lat="48.63384" lon="6.30955">
        <ele>206</ele>
        <time>2020-08-16T10:29:56Z</time>
      </trkpt>
      <trkpt lat="48.63387" lon="6.30966">
        <ele>206</ele>
        <time>2020-08-16T10:29:58Z</time>
      </trkpt>
      <trkpt lat="48.6339" lon="6.30976">
        <ele>206</ele>
        <time>2020-08-16T10:30:00Z</time>
      </trkpt>
      <trkpt lat="48.63394" lon="6.30987">
        <ele>206</ele>
        <time>2020-08-16T10:30:02Z</time>
      </trkpt>
      <trkpt lat="48.63399" lon="6.30999">
        <ele>207</ele>
        <time>2020-08-16T10:30:04Z</time>
      </trkpt>
      <trkpt lat="48.63401" lon="6.31005">
        <ele>207</ele>
        <time>2020-08-16T10:30:05Z</time>
      </trkpt>
      <trkpt lat="48.63408" lon="6.31021">
        <ele>207</ele>
        <time>2020-08-16T10:30:08Z</time>
      </trkpt>
      <trkpt lat="48.63412" lon="6.31032">
        <ele>207</ele>
        <time>2020-08-16T10:30:10Z</time>
      </trkpt>
      <trkpt lat="48.63416" lon="6.31042">
        <ele>207</ele>
        <time>2020-08-16T10:30:12Z</time>
      </trkpt>
      <trkpt lat="48.63421" lon="6.31052">
        <ele>206</ele>
        <time>2020-08-16T10:30:14Z</time>
      </trkpt>
      <trkpt lat="48.63425" lon="6.31061">
        <ele>207</ele>
        <time>2020-08-16T10:30:16Z</time>
      </trkpt>
      <trkpt lat="48.63428" lon="6.31069">
        <ele>207</ele>
        <time>2020-08-16T10:30:18Z</time>
      </trkpt>
      <trkpt lat="48.63431" lon="6.31077">
        <ele>206</ele>
        <time>2020-08-16T10:30:20Z</time>
      </trkpt>
      <trkpt lat="48.63433" lon="6.31084">
        <ele>206</ele>
        <time>2020-08-16T10:30:22Z</time>
      </trkpt>
      <trkpt lat="48.63434" lon="6.31091">
        <ele>206</ele>
        <time>2020-08-16T10:30:26Z</time>
      </trkpt>
      <trkpt lat="48.63435" lon="6.311">
        <ele>205</ele>
        <time>2020-08-16T10:30:51Z</time>
      </trkpt>
      <trkpt lat="48.63432" lon="6.31108">
        <ele>205</ele>
        <time>2020-08-16T10:30:54Z</time>
      </trkpt>
      <trkpt lat="48.63429" lon="6.31115">
        <ele>205</ele>
        <time>2020-08-16T10:30:57Z</time>
      </trkpt>
      <trkpt lat="48.63422" lon="6.31109">
        <ele>205</ele>
        <time>2020-08-16T10:31:03Z</time>
      </trkpt>
      <trkpt lat="48.63417" lon="6.31103">
        <ele>205</ele>
        <time>2020-08-16T10:31:05Z</time>
      </trkpt>
      <trkpt lat="48.63413" lon="6.31097">
        <ele>205</ele>
        <time>2020-08-16T10:31:07Z</time>
      </trkpt>
      <trkpt lat="48.63408" lon="6.31091">
        <ele>204</ele>
        <time>2020-08-16T10:31:09Z</time>
      </trkpt>
      <trkpt lat="48.63404" lon="6.31085">
        <ele>204</ele>
        <time>2020-08-16T10:31:11Z</time>
      </trkpt>
      <trkpt lat="48.63399" lon="6.31081">
        <ele>204</ele>
        <time>2020-08-16T10:31:13Z</time>
      </trkpt>
      <trkpt lat="48.63393" lon="6.31086">
        <ele>204</ele>
        <time>2020-08-16T10:31:15Z</time>
      </trkpt>
      <trkpt lat="48.6339" lon="6.31094">
        <ele>204</ele>
        <time>2020-08-16T10:31:17Z</time>
      </trkpt>
      <trkpt lat="48.63387" lon="6.31102">
        <ele>204</ele>
        <time>2020-08-16T10:31:19Z</time>
      </trkpt>
      <trkpt lat="48.63384" lon="6.3111">
        <ele>204</ele>
        <time>2020-08-16T10:31:21Z</time>
      </trkpt>
      <trkpt lat="48.63381" lon="6.31116">
        <ele>204</ele>
        <time>2020-08-16T10:31:22Z</time>
      </trkpt>
      <trkpt lat="48.63378" lon="6.31124">
        <ele>204</ele>
        <time>2020-08-16T10:31:24Z</time>
      </trkpt>
      <trkpt lat="48.63374" lon="6.31134">
        <ele>204</ele>
        <time>2020-08-16T10:31:26Z</time>
      </trkpt>
      <trkpt lat="48.63369" lon="6.31144">
        <ele>204</ele>
        <time>2020-08-16T10:31:28Z</time>
      </trkpt>
      <trkpt lat="48.63366" lon="6.31153">
        <ele>204</ele>
        <time>2020-08-16T10:31:30Z</time>
      </trkpt>
      <trkpt lat="48.63362" lon="6.31164">
        <ele>204</ele>
        <time>2020-08-16T10:31:32Z</time>
      </trkpt>
      <trkpt lat="48.6336" lon="6.31173">
        <ele>204</ele>
        <time>2020-08-16T10:31:34Z</time>
      </trkpt>
      <trkpt lat="48.63356" lon="6.31182">
        <ele>204</ele>
        <time>2020-08-16T10:31:36Z</time>
      </trkpt>
      <trkpt lat="48.63348" lon="6.31194">
        <ele>204</ele>
        <time>2020-08-16T10:31:39Z</time>
      </trkpt>
      <trkpt lat="48.63343" lon="6.312">
        <ele>205</ele>
        <time>2020-08-16T10:31:41Z</time>
      </trkpt>
      <trkpt lat="48.63336" lon="6.31203">
        <ele>205</ele>
        <time>2020-08-16T10:31:43Z</time>
      </trkpt>
      <trkpt lat="48.63331" lon="6.31206">
        <ele>205</ele>
        <time>2020-08-16T10:31:45Z</time>
      </trkpt>
      <trkpt lat="48.63324" lon="6.31209">
        <ele>205</ele>
        <time>2020-08-16T10:31:47Z</time>
      </trkpt>
      <trkpt lat="48.63316" lon="6.31212">
        <ele>204</ele>
        <time>2020-08-16T10:31:49Z</time>
      </trkpt>
      <trkpt lat="48.63308" lon="6.31216">
        <ele>204</ele>
        <time>2020-08-16T10:31:51Z</time>
      </trkpt>
      <trkpt lat="48.63299" lon="6.3122">
        <ele>204</ele>
        <time>2020-08-16T10:31:53Z</time>
      </trkpt>
      <trkpt lat="48.63295" lon="6.31219">
        <ele>204</ele>
        <time>2020-08-16T10:31:54Z</time>
      </trkpt>
      <trkpt lat="48.63288" lon="6.31221">
        <ele>203</ele>
        <time>2020-08-16T10:31:56Z</time>
      </trkpt>
      <trkpt lat="48.63281" lon="6.31224">
        <ele>203</ele>
        <time>2020-08-16T10:31:58Z</time>
      </trkpt>
      <trkpt lat="48.63274" lon="6.31227">
        <ele>204</ele>
        <time>2020-08-16T10:32:00Z</time>
      </trkpt>
      <trkpt lat="48.6327" lon="6.31234">
        <ele>204</ele>
        <time>2020-08-16T10:32:02Z</time>
      </trkpt>
      <trkpt lat="48.63265" lon="6.31244">
        <ele>204</ele>
        <time>2020-08-16T10:32:04Z</time>
      </trkpt>
      <trkpt lat="48.6326" lon="6.31252">
        <ele>204</ele>
        <time>2020-08-16T10:32:06Z</time>
      </trkpt>
      <trkpt lat="48.63255" lon="6.31258">
        <ele>204</ele>
        <time>2020-08-16T10:32:08Z</time>
      </trkpt>
      <trkpt lat="48.63251" lon="6.31265">
        <ele>204</ele>
        <time>2020-08-16T10:32:10Z</time>
      </trkpt>
      <trkpt lat="48.63245" lon="6.31271">
        <ele>204</ele>
        <time>2020-08-16T10:32:12Z</time>
      </trkpt>
      <trkpt lat="48.63242" lon="6.31278">
        <ele>204</ele>
        <time>2020-08-16T10:32:14Z</time>
      </trkpt>
      <trkpt lat="48.63238" lon="6.31285">
        <ele>204</ele>
        <time>2020-08-16T10:32:16Z</time>
      </trkpt>
      <trkpt lat="48.63234" lon="6.31294">
        <ele>204</ele>
        <time>2020-08-16T10:32:18Z</time>
      </trkpt>
      <trkpt lat="48.63231" lon="6.31302">
        <ele>204</ele>
        <time>2020-08-16T10:32:20Z</time>
      </trkpt>
      <trkpt lat="48.63229" lon="6.31309">
        <ele>204</ele>
        <time>2020-08-16T10:32:21Z</time>
      </trkpt>
      <trkpt lat="48.63226" lon="6.31316">
        <ele>204</ele>
        <time>2020-08-16T10:32:23Z</time>
      </trkpt>
      <trkpt lat="48.63223" lon="6.31322">
        <ele>204</ele>
        <time>2020-08-16T10:32:25Z</time>
      </trkpt>
      <trkpt lat="48.63218" lon="6.3132">
        <ele>204</ele>
        <time>2020-08-16T10:32:28Z</time>
      </trkpt>
      <trkpt lat="48.63215" lon="6.31313">
        <ele>204</ele>
        <time>2020-08-16T10:32:30Z</time>
      </trkpt>
      <trkpt lat="48.63211" lon="6.31306">
        <ele>204</ele>
        <time>2020-08-16T10:32:32Z</time>
      </trkpt>
      <trkpt lat="48.63206" lon="6.31299">
        <ele>203</ele>
        <time>2020-08-16T10:32:34Z</time>
      </trkpt>
      <trkpt lat="48.63202" lon="6.31291">
        <ele>203</ele>
        <time>2020-08-16T10:32:36Z</time>
      </trkpt>
      <trkpt lat="48.63196" lon="6.31285">
        <ele>203</ele>
        <time>2020-08-16T10:32:38Z</time>
      </trkpt>
      <trkpt lat="48.63192" lon="6.31278">
        <ele>203</ele>
        <time>2020-08-16T10:32:40Z</time>
      </trkpt>
      <trkpt lat="48.63187" lon="6.31271">
        <ele>203</ele>
        <time>2020-08-16T10:32:42Z</time>
      </trkpt>
      <trkpt lat="48.63184" lon="6.31264">
        <ele>203</ele>
        <time>2020-08-16T10:32:44Z</time>
      </trkpt>
      <trkpt lat="48.63179" lon="6.31259">
        <ele>203</ele>
        <time>2020-08-16T10:32:46Z</time>
      </trkpt>
      <trkpt lat="48.63174" lon="6.31252">
        <ele>203</ele>
        <time>2020-08-16T10:32:48Z</time>
      </trkpt>
      <trkpt lat="48.63169" lon="6.31246">
        <ele>203</ele>
        <time>2020-08-16T10:32:50Z</time>
      </trkpt>
      <trkpt lat="48.63165" lon="6.31238">
        <ele>203</ele>
        <time>2020-08-16T10:32:52Z</time>
      </trkpt>
      <trkpt lat="48.63162" lon="6.31232">
        <ele>203</ele>
        <time>2020-08-16T10:32:54Z</time>
      </trkpt>
      <trkpt lat="48.63158" lon="6.31225">
        <ele>203</ele>
        <time>2020-08-16T10:32:56Z</time>
      </trkpt>
      <trkpt lat="48.63155" lon="6.31218">
        <ele>203</ele>
        <time>2020-08-16T10:32:58Z</time>
      </trkpt>
      <trkpt lat="48.6315" lon="6.31212">
        <ele>203</ele>
        <time>2020-08-16T10:33:00Z</time>
      </trkpt>
      <trkpt lat="48.63146" lon="6.31207">
        <ele>203</ele>
        <time>2020-08-16T10:33:02Z</time>
      </trkpt>
      <trkpt lat="48.63142" lon="6.31201">
        <ele>203</ele>
        <time>2020-08-16T10:33:05Z</time>
      </trkpt>
      <trkpt lat="48.63147" lon="6.31205">
        <ele>203</ele>
        <time>2020-08-16T10:34:45Z</time>
      </trkpt>
      <trkpt lat="48.63149" lon="6.31211">
        <ele>203</ele>
        <time>2020-08-16T10:34:51Z</time>
      </trkpt>
      <trkpt lat="48.63177" lon="6.3126">
        <ele>203</ele>
        <time>2020-08-16T10:35:08Z</time>
      </trkpt>
      <trkpt lat="48.63181" lon="6.31267">
        <ele>203</ele>
        <time>2020-08-16T10:35:10Z</time>
      </trkpt>
      <trkpt lat="48.63186" lon="6.31272">
        <ele>203</ele>
        <time>2020-08-16T10:35:12Z</time>
      </trkpt>
      <trkpt lat="48.63191" lon="6.31278">
        <ele>203</ele>
        <time>2020-08-16T10:35:14Z</time>
      </trkpt>
      <trkpt lat="48.63197" lon="6.31285">
        <ele>203</ele>
        <time>2020-08-16T10:35:16Z</time>
      </trkpt>
      <trkpt lat="48.63203" lon="6.31292">
        <ele>203</ele>
        <time>2020-08-16T10:35:18Z</time>
      </trkpt>
      <trkpt lat="48.63207" lon="6.313">
        <ele>203</ele>
        <time>2020-08-16T10:35:20Z</time>
      </trkpt>
      <trkpt lat="48.63211" lon="6.31308">
        <ele>204</ele>
        <time>2020-08-16T10:35:22Z</time>
      </trkpt>
      <trkpt lat="48.63215" lon="6.31316">
        <ele>204</ele>
        <time>2020-08-16T10:35:24Z</time>
      </trkpt>
      <trkpt lat="48.63218" lon="6.31321">
        <ele>204</ele>
        <time>2020-08-16T10:35:26Z</time>
      </trkpt>
      <trkpt lat="48.63219" lon="6.31329">
        <ele>204</ele>
        <time>2020-08-16T10:35:29Z</time>
      </trkpt>
      <trkpt lat="48.63219" lon="6.31336">
        <ele>204</ele>
        <time>2020-08-16T10:35:31Z</time>
      </trkpt>
      <trkpt lat="48.6322" lon="6.31344">
        <ele>204</ele>
        <time>2020-08-16T10:35:33Z</time>
      </trkpt>
      <trkpt lat="48.63219" lon="6.31354">
        <ele>204</ele>
        <time>2020-08-16T10:35:36Z</time>
      </trkpt>
      <trkpt lat="48.63218" lon="6.31363">
        <ele>204</ele>
        <time>2020-08-16T10:35:38Z</time>
      </trkpt>
      <trkpt lat="48.63216" lon="6.31372">
        <ele>204</ele>
        <time>2020-08-16T10:35:41Z</time>
      </trkpt>
      <trkpt lat="48.63213" lon="6.31379">
        <ele>204</ele>
        <time>2020-08-16T10:35:43Z</time>
      </trkpt>
      <trkpt lat="48.63211" lon="6.31387">
        <ele>204</ele>
        <time>2020-08-16T10:35:45Z</time>
      </trkpt>
      <trkpt lat="48.6321" lon="6.31395">
        <ele>204</ele>
        <time>2020-08-16T10:35:47Z</time>
      </trkpt>
      <trkpt lat="48.63207" lon="6.31402">
        <ele>204</ele>
        <time>2020-08-16T10:35:49Z</time>
      </trkpt>
      <trkpt lat="48.63205" lon="6.3141">
        <ele>204</ele>
        <time>2020-08-16T10:35:51Z</time>
      </trkpt>
      <trkpt lat="48.63202" lon="6.31419">
        <ele>204</ele>
        <time>2020-08-16T10:35:53Z</time>
      </trkpt>
      <trkpt lat="48.632" lon="6.31427">
        <ele>204</ele>
        <time>2020-08-16T10:35:55Z</time>
      </trkpt>
      <trkpt lat="48.63199" lon="6.31434">
        <ele>204</ele>
        <time>2020-08-16T10:35:57Z</time>
      </trkpt>
      <trkpt lat="48.63197" lon="6.3144">
        <ele>204</ele>
        <time>2020-08-16T10:35:59Z</time>
      </trkpt>
      <trkpt lat="48.63196" lon="6.31448">
        <ele>204</ele>
        <time>2020-08-16T10:36:01Z</time>
      </trkpt>
      <trkpt lat="48.63194" lon="6.31455">
        <ele>204</ele>
        <time>2020-08-16T10:36:03Z</time>
      </trkpt>
      <trkpt lat="48.63193" lon="6.31463">
        <ele>205</ele>
        <time>2020-08-16T10:36:06Z</time>
      </trkpt>
      <trkpt lat="48.63191" lon="6.31471">
        <ele>204</ele>
        <time>2020-08-16T10:36:10Z</time>
      </trkpt>
      <trkpt lat="48.63193" lon="6.31478">
        <ele>205</ele>
        <time>2020-08-16T10:36:25Z</time>
      </trkpt>
      <trkpt lat="48.63197" lon="6.31474">
        <ele>205</ele>
        <time>2020-08-16T10:36:38Z</time>
      </trkpt>
      <trkpt lat="48.63202" lon="6.31474">
        <ele>205</ele>
        <time>2020-08-16T10:36:45Z</time>
      </trkpt>
      <trkpt lat="48.63207" lon="6.31474">
        <ele>205</ele>
        <time>2020-08-16T10:36:50Z</time>
      </trkpt>
      <trkpt lat="48.63213" lon="6.31473">
        <ele>205</ele>
        <time>2020-08-16T10:36:55Z</time>
      </trkpt>
      <trkpt lat="48.63218" lon="6.31472">
        <ele>205</ele>
        <time>2020-08-16T10:37:00Z</time>
      </trkpt>
      <trkpt lat="48.63223" lon="6.31473">
        <ele>205</ele>
        <time>2020-08-16T10:37:05Z</time>
      </trkpt>
      <trkpt lat="48.63227" lon="6.31476">
        <ele>205</ele>
        <time>2020-08-16T10:37:10Z</time>
      </trkpt>
      <trkpt lat="48.63232" lon="6.31475">
        <ele>205</ele>
        <time>2020-08-16T10:38:53Z</time>
      </trkpt>
      <trkpt lat="48.63223" lon="6.31508">
        <ele>204</ele>
        <time>2020-08-16T10:48:45Z</time>
      </trkpt>
      <trkpt lat="48.63225" lon="6.3149">
        <ele>205</ele>
        <time>2020-08-16T10:48:47Z</time>
      </trkpt>
      <trkpt lat="48.63225" lon="6.31482">
        <ele>205</ele>
        <time>2020-08-16T10:48:50Z</time>
      </trkpt>
      <trkpt lat="48.63227" lon="6.31476">
        <ele>205</ele>
        <time>2020-08-16T10:50:10Z</time>
      </trkpt>
      <trkpt lat="48.63233" lon="6.31472">
        <ele>205</ele>
        <time>2020-08-16T10:50:11Z</time>
      </trkpt>
      <trkpt lat="48.63229" lon="6.31476">
        <ele>205</ele>
        <time>2020-08-16T10:50:17Z</time>
      </trkpt>
      <trkpt lat="48.63247" lon="6.31473">
        <ele>205</ele>
        <time>2020-08-16T11:37:06Z</time>
      </trkpt>
      <trkpt lat="48.63253" lon="6.31473">
        <ele>206</ele>
        <time>2020-08-16T11:37:10Z</time>
      </trkpt>
      <trkpt lat="48.63258" lon="6.31476">
        <ele>206</ele>
        <time>2020-08-16T11:37:16Z</time>
      </trkpt>
      <trkpt lat="48.63262" lon="6.31479">
        <ele>206</ele>
        <time>2020-08-16T11:37:20Z</time>
      </trkpt>
      <trkpt lat="48.63267" lon="6.3148">
        <ele>207</ele>
        <time>2020-08-16T11:37:23Z</time>
      </trkpt>
      <trkpt lat="48.63272" lon="6.31479">
        <ele>207</ele>
        <time>2020-08-16T11:37:26Z</time>
      </trkpt>
      <trkpt lat="48.63277" lon="6.31479">
        <ele>207</ele>
        <time>2020-08-16T11:37:29Z</time>
      </trkpt>
      <trkpt lat="48.63282" lon="6.31483">
        <ele>207</ele>
        <time>2020-08-16T11:37:33Z</time>
      </trkpt>
      <trkpt lat="48.63287" lon="6.31481">
        <ele>207</ele>
        <time>2020-08-16T11:37:56Z</time>
      </trkpt>
      <trkpt lat="48.63293" lon="6.3148">
        <ele>207</ele>
        <time>2020-08-16T11:37:59Z</time>
      </trkpt>
      <trkpt lat="48.63298" lon="6.31484">
        <ele>207</ele>
        <time>2020-08-16T11:38:06Z</time>
      </trkpt>
      <trkpt lat="48.633" lon="6.3149">
        <ele>207</ele>
        <time>2020-08-16T11:39:22Z</time>
      </trkpt>
      <trkpt lat="48.63305" lon="6.31488">
        <ele>207</ele>
        <time>2020-08-16T11:41:45Z</time>
      </trkpt>
      <trkpt lat="48.633" lon="6.31483">
        <ele>207</ele>
        <time>2020-08-16T11:42:04Z</time>
      </trkpt>
      <trkpt lat="48.63322" lon="6.31458">
        <ele>205</ele>
        <time>2020-08-16T11:50:17Z</time>
      </trkpt>
      <trkpt lat="48.63326" lon="6.3145">
        <ele>205</ele>
        <time>2020-08-16T11:50:19Z</time>
      </trkpt>
      <trkpt lat="48.63329" lon="6.31443">
        <ele>205</ele>
        <time>2020-08-16T11:50:21Z</time>
      </trkpt>
      <trkpt lat="48.63333" lon="6.31435">
        <ele>206</ele>
        <time>2020-08-16T11:50:23Z</time>
      </trkpt>
      <trkpt lat="48.63337" lon="6.31427">
        <ele>206</ele>
        <time>2020-08-16T11:50:25Z</time>
      </trkpt>
      <trkpt lat="48.6334" lon="6.3142">
        <ele>206</ele>
        <time>2020-08-16T11:50:27Z</time>
      </trkpt>
      <trkpt lat="48.63344" lon="6.31411">
        <ele>207</ele>
        <time>2020-08-16T11:50:29Z</time>
      </trkpt>
      <trkpt lat="48.63347" lon="6.31403">
        <ele>207</ele>
        <time>2020-08-16T11:50:31Z</time>
      </trkpt>
      <trkpt lat="48.6335" lon="6.31396">
        <ele>207</ele>
        <time>2020-08-16T11:50:33Z</time>
      </trkpt>
      <trkpt lat="48.63351" lon="6.31385">
        <ele>206</ele>
        <time>2020-08-16T11:50:35Z</time>
      </trkpt>
      <trkpt lat="48.63354" lon="6.31376">
        <ele>205</ele>
        <time>2020-08-16T11:50:37Z</time>
      </trkpt>
      <trkpt lat="48.6336" lon="6.31375">
        <ele>206</ele>
        <time>2020-08-16T11:50:39Z</time>
      </trkpt>
      <trkpt lat="48.63366" lon="6.3138">
        <ele>207</ele>
        <time>2020-08-16T11:50:41Z</time>
      </trkpt>
      <trkpt lat="48.63372" lon="6.31389">
        <ele>208</ele>
        <time>2020-08-16T11:50:43Z</time>
      </trkpt>
      <trkpt lat="48.63377" lon="6.31398">
        <ele>208</ele>
        <time>2020-08-16T11:50:45Z</time>
      </trkpt>
      <trkpt lat="48.63382" lon="6.31404">
        <ele>207</ele>
        <time>2020-08-16T11:50:47Z</time>
      </trkpt>
      <trkpt lat="48.63388" lon="6.31408">
        <ele>207</ele>
        <time>2020-08-16T11:50:49Z</time>
      </trkpt>
      <trkpt lat="48.63394" lon="6.31412">
        <ele>206</ele>
        <time>2020-08-16T11:50:51Z</time>
      </trkpt>
      <trkpt lat="48.63399" lon="6.31416">
        <ele>205</ele>
        <time>2020-08-16T11:50:53Z</time>
      </trkpt>
      <trkpt lat="48.63402" lon="6.31421">
        <ele>205</ele>
        <time>2020-08-16T11:50:55Z</time>
      </trkpt>
      <trkpt lat="48.634" lon="6.3143">
        <ele>205</ele>
        <time>2020-08-16T11:50:57Z</time>
      </trkpt>
      <trkpt lat="48.63398" lon="6.31438">
        <ele>205</ele>
        <time>2020-08-16T11:50:59Z</time>
      </trkpt>
      <trkpt lat="48.63394" lon="6.31446">
        <ele>205</ele>
        <time>2020-08-16T11:51:01Z</time>
      </trkpt>
      <trkpt lat="48.6339" lon="6.31455">
        <ele>205</ele>
        <time>2020-08-16T11:51:03Z</time>
      </trkpt>
      <trkpt lat="48.63386" lon="6.31464">
        <ele>205</ele>
        <time>2020-08-16T11:51:05Z</time>
      </trkpt>
      <trkpt lat="48.63384" lon="6.31474">
        <ele>205</ele>
        <time>2020-08-16T11:51:07Z</time>
      </trkpt>
      <trkpt lat="48.6338" lon="6.31483">
        <ele>205</ele>
        <time>2020-08-16T11:51:09Z</time>
      </trkpt>
      <trkpt lat="48.63377" lon="6.31491">
        <ele>205</ele>
        <time>2020-08-16T11:51:11Z</time>
      </trkpt>
      <trkpt lat="48.63374" lon="6.31501">
        <ele>206</ele>
        <time>2020-08-16T11:51:13Z</time>
      </trkpt>
      <trkpt lat="48.6337" lon="6.31509">
        <ele>206</ele>
        <time>2020-08-16T11:51:15Z</time>
      </trkpt>
      <trkpt lat="48.63367" lon="6.31517">
        <ele>206</ele>
        <time>2020-08-16T11:51:17Z</time>
      </trkpt>
      <trkpt lat="48.63363" lon="6.31524">
        <ele>206</ele>
        <time>2020-08-16T11:51:19Z</time>
      </trkpt>
      <trkpt lat="48.63361" lon="6.31532">
        <ele>206</ele>
        <time>2020-08-16T11:51:21Z</time>
      </trkpt>
      <trkpt lat="48.63358" lon="6.31542">
        <ele>206</ele>
        <time>2020-08-16T11:51:23Z</time>
      </trkpt>
      <trkpt lat="48.63355" lon="6.31553">
        <ele>205</ele>
        <time>2020-08-16T11:51:25Z</time>
      </trkpt>
      <trkpt lat="48.63352" lon="6.31562">
        <ele>205</ele>
        <time>2020-08-16T11:51:27Z</time>
      </trkpt>
      <trkpt lat="48.63349" lon="6.31572">
        <ele>205</ele>
        <time>2020-08-16T11:51:29Z</time>
      </trkpt>
      <trkpt lat="48.63345" lon="6.31579">
        <ele>205</ele>
        <time>2020-08-16T11:51:31Z</time>
      </trkpt>
      <trkpt lat="48.63343" lon="6.31589">
        <ele>205</ele>
        <time>2020-08-16T11:51:33Z</time>
      </trkpt>
      <trkpt lat="48.63341" lon="6.31597">
        <ele>205</ele>
        <time>2020-08-16T11:51:35Z</time>
      </trkpt>
      <trkpt lat="48.63338" lon="6.31607">
        <ele>205</ele>
        <time>2020-08-16T11:51:37Z</time>
      </trkpt>
      <trkpt lat="48.63335" lon="6.31615">
        <ele>205</ele>
        <time>2020-08-16T11:51:39Z</time>
      </trkpt>
      <trkpt lat="48.63332" lon="6.31622">
        <ele>205</ele>
        <time>2020-08-16T11:51:41Z</time>
      </trkpt>
      <trkpt lat="48.6333" lon="6.31632">
        <ele>206</ele>
        <time>2020-08-16T11:51:43Z</time>
      </trkpt>
      <trkpt lat="48.63328" lon="6.31639">
        <ele>206</ele>
        <time>2020-08-16T11:51:45Z</time>
      </trkpt>
      <trkpt lat="48.63327" lon="6.31648">
        <ele>206</ele>
        <time>2020-08-16T11:51:47Z</time>
      </trkpt>
      <trkpt lat="48.63324" lon="6.31656">
        <ele>206</ele>
        <time>2020-08-16T11:51:49Z</time>
      </trkpt>
      <trkpt lat="48.63322" lon="6.31664">
        <ele>206</ele>
        <time>2020-08-16T11:51:51Z</time>
      </trkpt>
      <trkpt lat="48.63319" lon="6.31673">
        <ele>205</ele>
        <time>2020-08-16T11:51:53Z</time>
      </trkpt>
      <trkpt lat="48.63317" lon="6.31682">
        <ele>205</ele>
        <time>2020-08-16T11:51:55Z</time>
      </trkpt>
      <trkpt lat="48.63315" lon="6.31692">
        <ele>205</ele>
        <time>2020-08-16T11:51:57Z</time>
      </trkpt>
      <trkpt lat="48.63313" lon="6.31702">
        <ele>205</ele>
        <time>2020-08-16T11:51:59Z</time>
      </trkpt>
      <trkpt lat="48.6331" lon="6.31712">
        <ele>205</ele>
        <time>2020-08-16T11:52:01Z</time>
      </trkpt>
      <trkpt lat="48.63307" lon="6.31723">
        <ele>206</ele>
        <time>2020-08-16T11:52:03Z</time>
      </trkpt>
      <trkpt lat="48.63303" lon="6.31733">
        <ele>206</ele>
        <time>2020-08-16T11:52:05Z</time>
      </trkpt>
      <trkpt lat="48.633" lon="6.31745">
        <ele>206</ele>
        <time>2020-08-16T11:52:07Z</time>
      </trkpt>
      <trkpt lat="48.63297" lon="6.31756">
        <ele>206</ele>
        <time>2020-08-16T11:52:09Z</time>
      </trkpt>
      <trkpt lat="48.63295" lon="6.31768">
        <ele>206</ele>
        <time>2020-08-16T11:52:11Z</time>
      </trkpt>
      <trkpt lat="48.63293" lon="6.31778">
        <ele>206</ele>
        <time>2020-08-16T11:52:13Z</time>
      </trkpt>
      <trkpt lat="48.6329" lon="6.31788">
        <ele>206</ele>
        <time>2020-08-16T11:52:15Z</time>
      </trkpt>
      <trkpt lat="48.63286" lon="6.31797">
        <ele>206</ele>
        <time>2020-08-16T11:52:17Z</time>
      </trkpt>
      <trkpt lat="48.63283" lon="6.31809">
        <ele>206</ele>
        <time>2020-08-16T11:52:19Z</time>
      </trkpt>
      <trkpt lat="48.63281" lon="6.3182">
        <ele>206</ele>
        <time>2020-08-16T11:52:21Z</time>
      </trkpt>
      <trkpt lat="48.63276" lon="6.31832">
        <ele>206</ele>
        <time>2020-08-16T11:52:23Z</time>
      </trkpt>
      <trkpt lat="48.63272" lon="6.31842">
        <ele>206</ele>
        <time>2020-08-16T11:52:25Z</time>
      </trkpt>
      <trkpt lat="48.63269" lon="6.31852">
        <ele>206</ele>
        <time>2020-08-16T11:52:27Z</time>
      </trkpt>
      <trkpt lat="48.63266" lon="6.31862">
        <ele>205</ele>
        <time>2020-08-16T11:52:29Z</time>
      </trkpt>
      <trkpt lat="48.63263" lon="6.31872">
        <ele>205</ele>
        <time>2020-08-16T11:52:31Z</time>
      </trkpt>
      <trkpt lat="48.6326" lon="6.31882">
        <ele>205</ele>
        <time>2020-08-16T11:52:33Z</time>
      </trkpt>
      <trkpt lat="48.63255" lon="6.31894">
        <ele>205</ele>
        <time>2020-08-16T11:52:35Z</time>
      </trkpt>
      <trkpt lat="48.63254" lon="6.31901">
        <ele>205</ele>
        <time>2020-08-16T11:52:36Z</time>
      </trkpt>
      <trkpt lat="48.63252" lon="6.31908">
        <ele>205</ele>
        <time>2020-08-16T11:52:37Z</time>
      </trkpt>
      <trkpt lat="48.63249" lon="6.31918">
        <ele>205</ele>
        <time>2020-08-16T11:52:39Z</time>
      </trkpt>
      <trkpt lat="48.63247" lon="6.3193">
        <ele>205</ele>
        <time>2020-08-16T11:52:41Z</time>
      </trkpt>
      <trkpt lat="48.63243" lon="6.31941">
        <ele>205</ele>
        <time>2020-08-16T11:52:43Z</time>
      </trkpt>
      <trkpt lat="48.63241" lon="6.31951">
        <ele>205</ele>
        <time>2020-08-16T11:52:45Z</time>
      </trkpt>
      <trkpt lat="48.63239" lon="6.31962">
        <ele>205</ele>
        <time>2020-08-16T11:52:47Z</time>
      </trkpt>
      <trkpt lat="48.63235" lon="6.31973">
        <ele>206</ele>
        <time>2020-08-16T11:52:49Z</time>
      </trkpt>
      <trkpt lat="48.63232" lon="6.31984">
        <ele>206</ele>
        <time>2020-08-16T11:52:51Z</time>
      </trkpt>
      <trkpt lat="48.6323" lon="6.31997">
        <ele>206</ele>
        <time>2020-08-16T11:52:53Z</time>
      </trkpt>
      <trkpt lat="48.63227" lon="6.32009">
        <ele>206</ele>
        <time>2020-08-16T11:52:55Z</time>
      </trkpt>
      <trkpt lat="48.63223" lon="6.3202">
        <ele>206</ele>
        <time>2020-08-16T11:52:57Z</time>
      </trkpt>
      <trkpt lat="48.6322" lon="6.32032">
        <ele>206</ele>
        <time>2020-08-16T11:52:59Z</time>
      </trkpt>
      <trkpt lat="48.63217" lon="6.32043">
        <ele>206</ele>
        <time>2020-08-16T11:53:01Z</time>
      </trkpt>
      <trkpt lat="48.63214" lon="6.32054">
        <ele>205</ele>
        <time>2020-08-16T11:53:03Z</time>
      </trkpt>
      <trkpt lat="48.63212" lon="6.3206">
        <ele>205</ele>
        <time>2020-08-16T11:53:04Z</time>
      </trkpt>
      <trkpt lat="48.6321" lon="6.32067">
        <ele>205</ele>
        <time>2020-08-16T11:53:05Z</time>
      </trkpt>
      <trkpt lat="48.63208" lon="6.32073">
        <ele>205</ele>
        <time>2020-08-16T11:53:06Z</time>
      </trkpt>
      <trkpt lat="48.63205" lon="6.32083">
        <ele>205</ele>
        <time>2020-08-16T11:53:08Z</time>
      </trkpt>
      <trkpt lat="48.632" lon="6.3209">
        <ele>205</ele>
        <time>2020-08-16T11:53:10Z</time>
      </trkpt>
      <trkpt lat="48.63196" lon="6.321">
        <ele>205</ele>
        <time>2020-08-16T11:53:12Z</time>
      </trkpt>
      <trkpt lat="48.63192" lon="6.32108">
        <ele>205</ele>
        <time>2020-08-16T11:53:14Z</time>
      </trkpt>
      <trkpt lat="48.63189" lon="6.32117">
        <ele>206</ele>
        <time>2020-08-16T11:53:16Z</time>
      </trkpt>
      <trkpt lat="48.63186" lon="6.32127">
        <ele>206</ele>
        <time>2020-08-16T11:53:18Z</time>
      </trkpt>
      <trkpt lat="48.63186" lon="6.32136">
        <ele>206</ele>
        <time>2020-08-16T11:53:20Z</time>
      </trkpt>
      <trkpt lat="48.63187" lon="6.32146">
        <ele>206</ele>
        <time>2020-08-16T11:53:22Z</time>
      </trkpt>
      <trkpt lat="48.63187" lon="6.32155">
        <ele>206</ele>
        <time>2020-08-16T11:53:24Z</time>
      </trkpt>
      <trkpt lat="48.63188" lon="6.32163">
        <ele>206</ele>
        <time>2020-08-16T11:53:26Z</time>
      </trkpt>
      <trkpt lat="48.63189" lon="6.32172">
        <ele>207</ele>
        <time>2020-08-16T11:53:28Z</time>
      </trkpt>
      <trkpt lat="48.6319" lon="6.32181">
        <ele>207</ele>
        <time>2020-08-16T11:53:30Z</time>
      </trkpt>
      <trkpt lat="48.63191" lon="6.32191">
        <ele>207</ele>
        <time>2020-08-16T11:53:32Z</time>
      </trkpt>
      <trkpt lat="48.63194" lon="6.322">
        <ele>207</ele>
        <time>2020-08-16T11:53:34Z</time>
      </trkpt>
      <trkpt lat="48.63196" lon="6.3221">
        <ele>207</ele>
        <time>2020-08-16T11:53:36Z</time>
      </trkpt>
      <trkpt lat="48.63197" lon="6.32218">
        <ele>207</ele>
        <time>2020-08-16T11:53:38Z</time>
      </trkpt>
      <trkpt lat="48.63198" lon="6.32227">
        <ele>207</ele>
        <time>2020-08-16T11:53:40Z</time>
      </trkpt>
      <trkpt lat="48.63201" lon="6.32236">
        <ele>207</ele>
        <time>2020-08-16T11:53:42Z</time>
      </trkpt>
      <trkpt lat="48.63202" lon="6.32245">
        <ele>207</ele>
        <time>2020-08-16T11:53:44Z</time>
      </trkpt>
      <trkpt lat="48.63204" lon="6.32255">
        <ele>207</ele>
        <time>2020-08-16T11:53:46Z</time>
      </trkpt>
      <trkpt lat="48.63205" lon="6.32264">
        <ele>208</ele>
        <time>2020-08-16T11:53:48Z</time>
      </trkpt>
      <trkpt lat="48.63207" lon="6.32275">
        <ele>208</ele>
        <time>2020-08-16T11:53:50Z</time>
      </trkpt>
      <trkpt lat="48.63209" lon="6.32287">
        <ele>207</ele>
        <time>2020-08-16T11:53:52Z</time>
      </trkpt>
      <trkpt lat="48.63209" lon="6.32299">
        <ele>207</ele>
        <time>2020-08-16T11:53:54Z</time>
      </trkpt>
      <trkpt lat="48.6321" lon="6.32312">
        <ele>207</ele>
        <time>2020-08-16T11:53:56Z</time>
      </trkpt>
      <trkpt lat="48.6321" lon="6.32324">
        <ele>207</ele>
        <time>2020-08-16T11:53:58Z</time>
      </trkpt>
      <trkpt lat="48.63211" lon="6.32336">
        <ele>207</ele>
        <time>2020-08-16T11:54:00Z</time>
      </trkpt>
      <trkpt lat="48.6321" lon="6.32343">
        <ele>207</ele>
        <time>2020-08-16T11:54:01Z</time>
      </trkpt>
      <trkpt lat="48.6321" lon="6.32356">
        <ele>207</ele>
        <time>2020-08-16T11:54:03Z</time>
      </trkpt>
      <trkpt lat="48.6321" lon="6.32363">
        <ele>207</ele>
        <time>2020-08-16T11:54:04Z</time>
      </trkpt>
      <trkpt lat="48.6321" lon="6.32371">
        <ele>208</ele>
        <time>2020-08-16T11:54:05Z</time>
      </trkpt>
      <trkpt lat="48.63207" lon="6.32383">
        <ele>207</ele>
        <time>2020-08-16T11:54:07Z</time>
      </trkpt>
      <trkpt lat="48.63206" lon="6.32395">
        <ele>207</ele>
        <time>2020-08-16T11:54:09Z</time>
      </trkpt>
      <trkpt lat="48.63202" lon="6.32408">
        <ele>208</ele>
        <time>2020-08-16T11:54:11Z</time>
      </trkpt>
      <trkpt lat="48.63199" lon="6.3242">
        <ele>208</ele>
        <time>2020-08-16T11:54:13Z</time>
      </trkpt>
      <trkpt lat="48.63197" lon="6.32427">
        <ele>208</ele>
        <time>2020-08-16T11:54:14Z</time>
      </trkpt>
      <trkpt lat="48.63195" lon="6.32433">
        <ele>208</ele>
        <time>2020-08-16T11:54:15Z</time>
      </trkpt>
      <trkpt lat="48.63193" lon="6.32445">
        <ele>207</ele>
        <time>2020-08-16T11:54:17Z</time>
      </trkpt>
      <trkpt lat="48.63191" lon="6.32458">
        <ele>208</ele>
        <time>2020-08-16T11:54:19Z</time>
      </trkpt>
      <trkpt lat="48.63187" lon="6.32469">
        <ele>208</ele>
        <time>2020-08-16T11:54:21Z</time>
      </trkpt>
      <trkpt lat="48.63185" lon="6.32476">
        <ele>208</ele>
        <time>2020-08-16T11:54:22Z</time>
      </trkpt>
      <trkpt lat="48.63181" lon="6.32487">
        <ele>207</ele>
        <time>2020-08-16T11:54:24Z</time>
      </trkpt>
      <trkpt lat="48.63179" lon="6.32494">
        <ele>207</ele>
        <time>2020-08-16T11:54:25Z</time>
      </trkpt>
      <trkpt lat="48.63177" lon="6.32501">
        <ele>207</ele>
        <time>2020-08-16T11:54:26Z</time>
      </trkpt>
      <trkpt lat="48.63175" lon="6.32508">
        <ele>207</ele>
        <time>2020-08-16T11:54:27Z</time>
      </trkpt>
      <trkpt lat="48.63171" lon="6.32519">
        <ele>208</ele>
        <time>2020-08-16T11:54:29Z</time>
      </trkpt>
      <trkpt lat="48.63168" lon="6.32529">
        <ele>208</ele>
        <time>2020-08-16T11:54:31Z</time>
      </trkpt>
      <trkpt lat="48.63164" lon="6.3254">
        <ele>208</ele>
        <time>2020-08-16T11:54:33Z</time>
      </trkpt>
      <trkpt lat="48.6316" lon="6.32551">
        <ele>208</ele>
        <time>2020-08-16T11:54:35Z</time>
      </trkpt>
      <trkpt lat="48.63157" lon="6.32563">
        <ele>208</ele>
        <time>2020-08-16T11:54:37Z</time>
      </trkpt>
      <trkpt lat="48.63154" lon="6.32573">
        <ele>208</ele>
        <time>2020-08-16T11:54:39Z</time>
      </trkpt>
      <trkpt lat="48.6315" lon="6.32584">
        <ele>208</ele>
        <time>2020-08-16T11:54:41Z</time>
      </trkpt>
      <trkpt lat="48.63147" lon="6.32594">
        <ele>207</ele>
        <time>2020-08-16T11:54:43Z</time>
      </trkpt>
      <trkpt lat="48.63143" lon="6.32603">
        <ele>207</ele>
        <time>2020-08-16T11:54:45Z</time>
      </trkpt>
      <trkpt lat="48.63139" lon="6.32614">
        <ele>207</ele>
        <time>2020-08-16T11:54:47Z</time>
      </trkpt>
      <trkpt lat="48.63138" lon="6.32622">
        <ele>207</ele>
        <time>2020-08-16T11:54:49Z</time>
      </trkpt>
      <trkpt lat="48.63136" lon="6.32628">
        <ele>207</ele>
        <time>2020-08-16T11:54:50Z</time>
      </trkpt>
      <trkpt lat="48.63134" lon="6.32638">
        <ele>207</ele>
        <time>2020-08-16T11:54:52Z</time>
      </trkpt>
      <trkpt lat="48.63133" lon="6.32648">
        <ele>207</ele>
        <time>2020-08-16T11:54:54Z</time>
      </trkpt>
      <trkpt lat="48.63131" lon="6.32661">
        <ele>207</ele>
        <time>2020-08-16T11:54:56Z</time>
      </trkpt>
      <trkpt lat="48.63127" lon="6.32671">
        <ele>207</ele>
        <time>2020-08-16T11:54:58Z</time>
      </trkpt>
      <trkpt lat="48.63125" lon="6.32681">
        <ele>207</ele>
        <time>2020-08-16T11:55:00Z</time>
      </trkpt>
      <trkpt lat="48.63122" lon="6.32692">
        <ele>207</ele>
        <time>2020-08-16T11:55:02Z</time>
      </trkpt>
      <trkpt lat="48.6312" lon="6.32697">
        <ele>207</ele>
        <time>2020-08-16T11:55:03Z</time>
      </trkpt>
      <trkpt lat="48.63117" lon="6.32706">
        <ele>207</ele>
        <time>2020-08-16T11:55:05Z</time>
      </trkpt>
      <trkpt lat="48.63115" lon="6.32713">
        <ele>207</ele>
        <time>2020-08-16T11:55:06Z</time>
      </trkpt>
      <trkpt lat="48.63112" lon="6.32723">
        <ele>208</ele>
        <time>2020-08-16T11:55:08Z</time>
      </trkpt>
      <trkpt lat="48.63109" lon="6.32736">
        <ele>208</ele>
        <time>2020-08-16T11:55:10Z</time>
      </trkpt>
      <trkpt lat="48.63106" lon="6.32748">
        <ele>208</ele>
        <time>2020-08-16T11:55:12Z</time>
      </trkpt>
      <trkpt lat="48.63104" lon="6.32757">
        <ele>208</ele>
        <time>2020-08-16T11:55:14Z</time>
      </trkpt>
      <trkpt lat="48.631" lon="6.32767">
        <ele>207</ele>
        <time>2020-08-16T11:55:16Z</time>
      </trkpt>
      <trkpt lat="48.63098" lon="6.32773">
        <ele>207</ele>
        <time>2020-08-16T11:55:17Z</time>
      </trkpt>
      <trkpt lat="48.63096" lon="6.3278">
        <ele>207</ele>
        <time>2020-08-16T11:55:18Z</time>
      </trkpt>
      <trkpt lat="48.63092" lon="6.32791">
        <ele>207</ele>
        <time>2020-08-16T11:55:20Z</time>
      </trkpt>
      <trkpt lat="48.63088" lon="6.32803">
        <ele>207</ele>
        <time>2020-08-16T11:55:22Z</time>
      </trkpt>
      <trkpt lat="48.63084" lon="6.32815">
        <ele>207</ele>
        <time>2020-08-16T11:55:24Z</time>
      </trkpt>
      <trkpt lat="48.63082" lon="6.32822">
        <ele>207</ele>
        <time>2020-08-16T11:55:25Z</time>
      </trkpt>
      <trkpt lat="48.6308" lon="6.32828">
        <ele>207</ele>
        <time>2020-08-16T11:55:26Z</time>
      </trkpt>
      <trkpt lat="48.63079" lon="6.32835">
        <ele>207</ele>
        <time>2020-08-16T11:55:27Z</time>
      </trkpt>
      <trkpt lat="48.63077" lon="6.32843">
        <ele>207</ele>
        <time>2020-08-16T11:55:29Z</time>
      </trkpt>
      <trkpt lat="48.63073" lon="6.32854">
        <ele>207</ele>
        <time>2020-08-16T11:55:31Z</time>
      </trkpt>
      <trkpt lat="48.63071" lon="6.32866">
        <ele>207</ele>
        <time>2020-08-16T11:55:33Z</time>
      </trkpt>
      <trkpt lat="48.63067" lon="6.32877">
        <ele>207</ele>
        <time>2020-08-16T11:55:35Z</time>
      </trkpt>
      <trkpt lat="48.63065" lon="6.32884">
        <ele>207</ele>
        <time>2020-08-16T11:55:36Z</time>
      </trkpt>
      <trkpt lat="48.63061" lon="6.32897">
        <ele>207</ele>
        <time>2020-08-16T11:55:38Z</time>
      </trkpt>
      <trkpt lat="48.63057" lon="6.32909">
        <ele>207</ele>
        <time>2020-08-16T11:55:40Z</time>
      </trkpt>
      <trkpt lat="48.63055" lon="6.32916">
        <ele>207</ele>
        <time>2020-08-16T11:55:41Z</time>
      </trkpt>
      <trkpt lat="48.63052" lon="6.32928">
        <ele>208</ele>
        <time>2020-08-16T11:55:43Z</time>
      </trkpt>
      <trkpt lat="48.63048" lon="6.32939">
        <ele>208</ele>
        <time>2020-08-16T11:55:45Z</time>
      </trkpt>
      <trkpt lat="48.63046" lon="6.32946">
        <ele>208</ele>
        <time>2020-08-16T11:55:46Z</time>
      </trkpt>
      <trkpt lat="48.63043" lon="6.32952">
        <ele>208</ele>
        <time>2020-08-16T11:55:47Z</time>
      </trkpt>
      <trkpt lat="48.63041" lon="6.32965">
        <ele>208</ele>
        <time>2020-08-16T11:55:49Z</time>
      </trkpt>
      <trkpt lat="48.63039" lon="6.32971">
        <ele>208</ele>
        <time>2020-08-16T11:55:50Z</time>
      </trkpt>
      <trkpt lat="48.63037" lon="6.32977">
        <ele>208</ele>
        <time>2020-08-16T11:55:51Z</time>
      </trkpt>
      <trkpt lat="48.63034" lon="6.3299">
        <ele>207</ele>
        <time>2020-08-16T11:55:53Z</time>
      </trkpt>
      <trkpt lat="48.63032" lon="6.32997">
        <ele>207</ele>
        <time>2020-08-16T11:55:54Z</time>
      </trkpt>
      <trkpt lat="48.63028" lon="6.33008">
        <ele>207</ele>
        <time>2020-08-16T11:55:56Z</time>
      </trkpt>
      <trkpt lat="48.63025" lon="6.33015">
        <ele>207</ele>
        <time>2020-08-16T11:55:57Z</time>
      </trkpt>
      <trkpt lat="48.63025" lon="6.33022">
        <ele>207</ele>
        <time>2020-08-16T11:55:58Z</time>
      </trkpt>
      <trkpt lat="48.63023" lon="6.33029">
        <ele>207</ele>
        <time>2020-08-16T11:55:59Z</time>
      </trkpt>
      <trkpt lat="48.63021" lon="6.33036">
        <ele>206</ele>
        <time>2020-08-16T11:56:00Z</time>
      </trkpt>
      <trkpt lat="48.63017" lon="6.3305">
        <ele>206</ele>
        <time>2020-08-16T11:56:02Z</time>
      </trkpt>
      <trkpt lat="48.63014" lon="6.33062">
        <ele>206</ele>
        <time>2020-08-16T11:56:04Z</time>
      </trkpt>
      <trkpt lat="48.63011" lon="6.33069">
        <ele>206</ele>
        <time>2020-08-16T11:56:05Z</time>
      </trkpt>
      <trkpt lat="48.63009" lon="6.33075">
        <ele>206</ele>
        <time>2020-08-16T11:56:06Z</time>
      </trkpt>
      <trkpt lat="48.63008" lon="6.33082">
        <ele>206</ele>
        <time>2020-08-16T11:56:07Z</time>
      </trkpt>
      <trkpt lat="48.63006" lon="6.33089">
        <ele>206</ele>
        <time>2020-08-16T11:56:08Z</time>
      </trkpt>
      <trkpt lat="48.63002" lon="6.331">
        <ele>206</ele>
        <time>2020-08-16T11:56:10Z</time>
      </trkpt>
      <trkpt lat="48.63" lon="6.33107">
        <ele>206</ele>
        <time>2020-08-16T11:56:11Z</time>
      </trkpt>
      <trkpt lat="48.62996" lon="6.3312">
        <ele>206</ele>
        <time>2020-08-16T11:56:13Z</time>
      </trkpt>
      <trkpt lat="48.62994" lon="6.33128">
        <ele>206</ele>
        <time>2020-08-16T11:56:14Z</time>
      </trkpt>
      <trkpt lat="48.62993" lon="6.33135">
        <ele>206</ele>
        <time>2020-08-16T11:56:15Z</time>
      </trkpt>
      <trkpt lat="48.62989" lon="6.33147">
        <ele>206</ele>
        <time>2020-08-16T11:56:17Z</time>
      </trkpt>
      <trkpt lat="48.62985" lon="6.33159">
        <ele>206</ele>
        <time>2020-08-16T11:56:19Z</time>
      </trkpt>
      <trkpt lat="48.62983" lon="6.33166">
        <ele>207</ele>
        <time>2020-08-16T11:56:20Z</time>
      </trkpt>
      <trkpt lat="48.62981" lon="6.33172">
        <ele>207</ele>
        <time>2020-08-16T11:56:21Z</time>
      </trkpt>
      <trkpt lat="48.62979" lon="6.33182">
        <ele>207</ele>
        <time>2020-08-16T11:56:23Z</time>
      </trkpt>
      <trkpt lat="48.62977" lon="6.33189">
        <ele>207</ele>
        <time>2020-08-16T11:56:24Z</time>
      </trkpt>
      <trkpt lat="48.62975" lon="6.332">
        <ele>207</ele>
        <time>2020-08-16T11:56:26Z</time>
      </trkpt>
      <trkpt lat="48.62972" lon="6.33207">
        <ele>207</ele>
        <time>2020-08-16T11:56:27Z</time>
      </trkpt>
      <trkpt lat="48.62968" lon="6.33219">
        <ele>207</ele>
        <time>2020-08-16T11:56:29Z</time>
      </trkpt>
      <trkpt lat="48.62967" lon="6.3323">
        <ele>207</ele>
        <time>2020-08-16T11:56:31Z</time>
      </trkpt>
      <trkpt lat="48.62965" lon="6.33236">
        <ele>207</ele>
        <time>2020-08-16T11:56:32Z</time>
      </trkpt>
      <trkpt lat="48.62962" lon="6.33249">
        <ele>207</ele>
        <time>2020-08-16T11:56:34Z</time>
      </trkpt>
      <trkpt lat="48.6296" lon="6.33258">
        <ele>207</ele>
        <time>2020-08-16T11:56:36Z</time>
      </trkpt>
      <trkpt lat="48.62956" lon="6.33267">
        <ele>207</ele>
        <time>2020-08-16T11:56:38Z</time>
      </trkpt>
      <trkpt lat="48.62952" lon="6.33278">
        <ele>207</ele>
        <time>2020-08-16T11:56:40Z</time>
      </trkpt>
      <trkpt lat="48.62951" lon="6.33288">
        <ele>207</ele>
        <time>2020-08-16T11:56:42Z</time>
      </trkpt>
      <trkpt lat="48.62946" lon="6.33301">
        <ele>207</ele>
        <time>2020-08-16T11:56:44Z</time>
      </trkpt>
      <trkpt lat="48.62945" lon="6.33307">
        <ele>207</ele>
        <time>2020-08-16T11:56:45Z</time>
      </trkpt>
      <trkpt lat="48.62942" lon="6.33318">
        <ele>207</ele>
        <time>2020-08-16T11:56:47Z</time>
      </trkpt>
      <trkpt lat="48.6294" lon="6.33325">
        <ele>208</ele>
        <time>2020-08-16T11:56:48Z</time>
      </trkpt>
      <trkpt lat="48.62939" lon="6.33336">
        <ele>208</ele>
        <time>2020-08-16T11:56:50Z</time>
      </trkpt>
      <trkpt lat="48.62934" lon="6.33349">
        <ele>208</ele>
        <time>2020-08-16T11:56:52Z</time>
      </trkpt>
      <trkpt lat="48.62932" lon="6.33356">
        <ele>208</ele>
        <time>2020-08-16T11:56:53Z</time>
      </trkpt>
      <trkpt lat="48.62929" lon="6.33366">
        <ele>208</ele>
        <time>2020-08-16T11:56:55Z</time>
      </trkpt>
      <trkpt lat="48.62927" lon="6.33379">
        <ele>208</ele>
        <time>2020-08-16T11:56:57Z</time>
      </trkpt>
      <trkpt lat="48.62924" lon="6.3339">
        <ele>208</ele>
        <time>2020-08-16T11:56:59Z</time>
      </trkpt>
      <trkpt lat="48.62922" lon="6.33397">
        <ele>208</ele>
        <time>2020-08-16T11:57:00Z</time>
      </trkpt>
      <trkpt lat="48.6292" lon="6.33409">
        <ele>208</ele>
        <time>2020-08-16T11:57:02Z</time>
      </trkpt>
      <trkpt lat="48.62917" lon="6.33421">
        <ele>208</ele>
        <time>2020-08-16T11:57:04Z</time>
      </trkpt>
      <trkpt lat="48.62914" lon="6.33433">
        <ele>208</ele>
        <time>2020-08-16T11:57:06Z</time>
      </trkpt>
      <trkpt lat="48.62911" lon="6.33445">
        <ele>208</ele>
        <time>2020-08-16T11:57:08Z</time>
      </trkpt>
      <trkpt lat="48.6291" lon="6.33458">
        <ele>208</ele>
        <time>2020-08-16T11:57:10Z</time>
      </trkpt>
      <trkpt lat="48.62907" lon="6.3347">
        <ele>208</ele>
        <time>2020-08-16T11:57:12Z</time>
      </trkpt>
      <trkpt lat="48.62905" lon="6.33476">
        <ele>208</ele>
        <time>2020-08-16T11:57:13Z</time>
      </trkpt>
      <trkpt lat="48.62901" lon="6.33487">
        <ele>208</ele>
        <time>2020-08-16T11:57:15Z</time>
      </trkpt>
      <trkpt lat="48.62899" lon="6.33494">
        <ele>208</ele>
        <time>2020-08-16T11:57:16Z</time>
      </trkpt>
      <trkpt lat="48.62897" lon="6.335">
        <ele>208</ele>
        <time>2020-08-16T11:57:17Z</time>
      </trkpt>
      <trkpt lat="48.62895" lon="6.33507">
        <ele>208</ele>
        <time>2020-08-16T11:57:18Z</time>
      </trkpt>
      <trkpt lat="48.62893" lon="6.33519">
        <ele>209</ele>
        <time>2020-08-16T11:57:20Z</time>
      </trkpt>
      <trkpt lat="48.62889" lon="6.33529">
        <ele>209</ele>
        <time>2020-08-16T11:57:22Z</time>
      </trkpt>
      <trkpt lat="48.62887" lon="6.33535">
        <ele>209</ele>
        <time>2020-08-16T11:57:23Z</time>
      </trkpt>
      <trkpt lat="48.62885" lon="6.33542">
        <ele>208</ele>
        <time>2020-08-16T11:57:24Z</time>
      </trkpt>
      <trkpt lat="48.62882" lon="6.33548">
        <ele>208</ele>
        <time>2020-08-16T11:57:25Z</time>
      </trkpt>
      <trkpt lat="48.62878" lon="6.33561">
        <ele>208</ele>
        <time>2020-08-16T11:57:27Z</time>
      </trkpt>
      <trkpt lat="48.62874" lon="6.33573">
        <ele>208</ele>
        <time>2020-08-16T11:57:29Z</time>
      </trkpt>
      <trkpt lat="48.62871" lon="6.33584">
        <ele>208</ele>
        <time>2020-08-16T11:57:31Z</time>
      </trkpt>
      <trkpt lat="48.62867" lon="6.33595">
        <ele>208</ele>
        <time>2020-08-16T11:57:33Z</time>
      </trkpt>
      <trkpt lat="48.62864" lon="6.33607">
        <ele>208</ele>
        <time>2020-08-16T11:57:35Z</time>
      </trkpt>
      <trkpt lat="48.6286" lon="6.33618">
        <ele>208</ele>
        <time>2020-08-16T11:57:37Z</time>
      </trkpt>
      <trkpt lat="48.62857" lon="6.33625">
        <ele>208</ele>
        <time>2020-08-16T11:57:39Z</time>
      </trkpt>
      <trkpt lat="48.62855" lon="6.33632">
        <ele>208</ele>
        <time>2020-08-16T11:57:40Z</time>
      </trkpt>
      <trkpt lat="48.62851" lon="6.33643">
        <ele>208</ele>
        <time>2020-08-16T11:57:42Z</time>
      </trkpt>
      <trkpt lat="48.62847" lon="6.33653">
        <ele>208</ele>
        <time>2020-08-16T11:57:44Z</time>
      </trkpt>
      <trkpt lat="48.62844" lon="6.33662">
        <ele>208</ele>
        <time>2020-08-16T11:57:45Z</time>
      </trkpt>
      <trkpt lat="48.62842" lon="6.3367">
        <ele>208</ele>
        <time>2020-08-16T11:57:47Z</time>
      </trkpt>
      <trkpt lat="48.6284" lon="6.33677">
        <ele>208</ele>
        <time>2020-08-16T11:57:49Z</time>
      </trkpt>
      <trkpt lat="48.62835" lon="6.33687">
        <ele>209</ele>
        <time>2020-08-16T11:57:51Z</time>
      </trkpt>
      <trkpt lat="48.62832" lon="6.33699">
        <ele>209</ele>
        <time>2020-08-16T11:57:53Z</time>
      </trkpt>
      <trkpt lat="48.6283" lon="6.33709">
        <ele>210</ele>
        <time>2020-08-16T11:57:55Z</time>
      </trkpt>
      <trkpt lat="48.62829" lon="6.33719">
        <ele>209</ele>
        <time>2020-08-16T11:57:57Z</time>
      </trkpt>
      <trkpt lat="48.62825" lon="6.33727">
        <ele>209</ele>
        <time>2020-08-16T11:57:59Z</time>
      </trkpt>
      <trkpt lat="48.62821" lon="6.33736">
        <ele>209</ele>
        <time>2020-08-16T11:58:01Z</time>
      </trkpt>
      <trkpt lat="48.62819" lon="6.33746">
        <ele>209</ele>
        <time>2020-08-16T11:58:03Z</time>
      </trkpt>
      <trkpt lat="48.62819" lon="6.33753">
        <ele>209</ele>
        <time>2020-08-16T11:58:05Z</time>
      </trkpt>
      <trkpt lat="48.62817" lon="6.33763">
        <ele>209</ele>
        <time>2020-08-16T11:58:07Z</time>
      </trkpt>
      <trkpt lat="48.62816" lon="6.33772">
        <ele>209</ele>
        <time>2020-08-16T11:58:09Z</time>
      </trkpt>
      <trkpt lat="48.62812" lon="6.33784">
        <ele>210</ele>
        <time>2020-08-16T11:58:11Z</time>
      </trkpt>
      <trkpt lat="48.62809" lon="6.33794">
        <ele>209</ele>
        <time>2020-08-16T11:58:12Z</time>
      </trkpt>
      <trkpt lat="48.62804" lon="6.33803">
        <ele>208</ele>
        <time>2020-08-16T11:58:14Z</time>
      </trkpt>
      <trkpt lat="48.628" lon="6.33812">
        <ele>209</ele>
        <time>2020-08-16T11:58:16Z</time>
      </trkpt>
      <trkpt lat="48.62793" lon="6.33822">
        <ele>209</ele>
        <time>2020-08-16T11:58:18Z</time>
      </trkpt>
      <trkpt lat="48.6279" lon="6.33832">
        <ele>209</ele>
        <time>2020-08-16T11:58:20Z</time>
      </trkpt>
      <trkpt lat="48.62788" lon="6.33842">
        <ele>208</ele>
        <time>2020-08-16T11:58:22Z</time>
      </trkpt>
      <trkpt lat="48.62786" lon="6.33848">
        <ele>208</ele>
        <time>2020-08-16T11:58:23Z</time>
      </trkpt>
      <trkpt lat="48.62781" lon="6.33856">
        <ele>208</ele>
        <time>2020-08-16T11:58:25Z</time>
      </trkpt>
      <trkpt lat="48.62774" lon="6.33864">
        <ele>209</ele>
        <time>2020-08-16T11:58:27Z</time>
      </trkpt>
      <trkpt lat="48.62769" lon="6.33874">
        <ele>210</ele>
        <time>2020-08-16T11:58:29Z</time>
      </trkpt>
      <trkpt lat="48.62764" lon="6.33879">
        <ele>209</ele>
        <time>2020-08-16T11:58:30Z</time>
      </trkpt>
      <trkpt lat="48.62761" lon="6.33884">
        <ele>209</ele>
        <time>2020-08-16T11:58:31Z</time>
      </trkpt>
      <trkpt lat="48.62757" lon="6.33889">
        <ele>209</ele>
        <time>2020-08-16T11:58:32Z</time>
      </trkpt>
      <trkpt lat="48.62753" lon="6.33894">
        <ele>208</ele>
        <time>2020-08-16T11:58:33Z</time>
      </trkpt>
      <trkpt lat="48.6275" lon="6.33899">
        <ele>208</ele>
        <time>2020-08-16T11:58:34Z</time>
      </trkpt>
      <trkpt lat="48.62746" lon="6.33904">
        <ele>208</ele>
        <time>2020-08-16T11:58:35Z</time>
      </trkpt>
      <trkpt lat="48.62743" lon="6.3391">
        <ele>208</ele>
        <time>2020-08-16T11:58:36Z</time>
      </trkpt>
      <trkpt lat="48.62738" lon="6.33914">
        <ele>208</ele>
        <time>2020-08-16T11:58:37Z</time>
      </trkpt>
      <trkpt lat="48.62731" lon="6.33925">
        <ele>207</ele>
        <time>2020-08-16T11:58:39Z</time>
      </trkpt>
      <trkpt lat="48.62727" lon="6.33931">
        <ele>207</ele>
        <time>2020-08-16T11:58:40Z</time>
      </trkpt>
      <trkpt lat="48.62722" lon="6.33936">
        <ele>207</ele>
        <time>2020-08-16T11:58:41Z</time>
      </trkpt>
      <trkpt lat="48.62718" lon="6.33942">
        <ele>207</ele>
        <time>2020-08-16T11:58:42Z</time>
      </trkpt>
      <trkpt lat="48.62713" lon="6.33948">
        <ele>207</ele>
        <time>2020-08-16T11:58:43Z</time>
      </trkpt>
      <trkpt lat="48.62709" lon="6.33953">
        <ele>207</ele>
        <time>2020-08-16T11:58:44Z</time>
      </trkpt>
      <trkpt lat="48.62705" lon="6.33957">
        <ele>206</ele>
        <time>2020-08-16T11:58:45Z</time>
      </trkpt>
      <trkpt lat="48.62701" lon="6.33963">
        <ele>206</ele>
        <time>2020-08-16T11:58:46Z</time>
      </trkpt>
      <trkpt lat="48.62698" lon="6.33972">
        <ele>206</ele>
        <time>2020-08-16T11:58:48Z</time>
      </trkpt>
      <trkpt lat="48.62701" lon="6.3398">
        <ele>206</ele>
        <time>2020-08-16T11:58:50Z</time>
      </trkpt>
      <trkpt lat="48.62705" lon="6.33986">
        <ele>207</ele>
        <time>2020-08-16T11:58:52Z</time>
      </trkpt>
      <trkpt lat="48.62711" lon="6.33991">
        <ele>207</ele>
        <time>2020-08-16T11:58:54Z</time>
      </trkpt>
      <trkpt lat="48.62716" lon="6.33998">
        <ele>206</ele>
        <time>2020-08-16T11:58:56Z</time>
      </trkpt>
      <trkpt lat="48.62721" lon="6.34003">
        <ele>206</ele>
        <time>2020-08-16T11:58:58Z</time>
      </trkpt>
      <trkpt lat="48.62725" lon="6.3401">
        <ele>206</ele>
        <time>2020-08-16T11:59:00Z</time>
      </trkpt>
      <trkpt lat="48.62727" lon="6.34017">
        <ele>206</ele>
        <time>2020-08-16T11:59:02Z</time>
      </trkpt>
      <trkpt lat="48.62731" lon="6.34023">
        <ele>206</ele>
        <time>2020-08-16T11:59:04Z</time>
      </trkpt>
      <trkpt lat="48.62737" lon="6.34032">
        <ele>207</ele>
        <time>2020-08-16T11:59:06Z</time>
      </trkpt>
      <trkpt lat="48.62739" lon="6.3404">
        <ele>207</ele>
        <time>2020-08-16T11:59:07Z</time>
      </trkpt>
      <trkpt lat="48.62741" lon="6.34048">
        <ele>207</ele>
        <time>2020-08-16T11:59:09Z</time>
      </trkpt>
      <trkpt lat="48.62743" lon="6.34055">
        <ele>207</ele>
        <time>2020-08-16T11:59:11Z</time>
      </trkpt>
      <trkpt lat="48.62746" lon="6.34062">
        <ele>207</ele>
        <time>2020-08-16T11:59:13Z</time>
      </trkpt>
      <trkpt lat="48.62748" lon="6.34069">
        <ele>207</ele>
        <time>2020-08-16T11:59:15Z</time>
      </trkpt>
      <trkpt lat="48.62752" lon="6.34074">
        <ele>207</ele>
        <time>2020-08-16T11:59:18Z</time>
      </trkpt>
      <trkpt lat="48.62756" lon="6.34098">
        <ele>206</ele>
        <time>2020-08-16T11:59:21Z</time>
      </trkpt>
      <trkpt lat="48.62757" lon="6.3411">
        <ele>206</ele>
        <time>2020-08-16T11:59:22Z</time>
      </trkpt>
      <trkpt lat="48.62759" lon="6.34118">
        <ele>206</ele>
        <time>2020-08-16T11:59:24Z</time>
      </trkpt>
      <trkpt lat="48.6276" lon="6.3413">
        <ele>206</ele>
        <time>2020-08-16T11:59:26Z</time>
      </trkpt>
      <trkpt lat="48.62761" lon="6.34141">
        <ele>206</ele>
        <time>2020-08-16T11:59:28Z</time>
      </trkpt>
      <trkpt lat="48.62763" lon="6.3415">
        <ele>207</ele>
        <time>2020-08-16T11:59:30Z</time>
      </trkpt>
      <trkpt lat="48.62764" lon="6.34159">
        <ele>207</ele>
        <time>2020-08-16T11:59:32Z</time>
      </trkpt>
      <trkpt lat="48.62765" lon="6.3417">
        <ele>207</ele>
        <time>2020-08-16T11:59:34Z</time>
      </trkpt>
      <trkpt lat="48.62766" lon="6.34182">
        <ele>207</ele>
        <time>2020-08-16T11:59:36Z</time>
      </trkpt>
      <trkpt lat="48.62767" lon="6.34191">
        <ele>208</ele>
        <time>2020-08-16T11:59:38Z</time>
      </trkpt>
      <trkpt lat="48.62768" lon="6.34199">
        <ele>208</ele>
        <time>2020-08-16T11:59:40Z</time>
      </trkpt>
      <trkpt lat="48.62772" lon="6.34205">
        <ele>210</ele>
        <time>2020-08-16T11:59:42Z</time>
      </trkpt>
      <trkpt lat="48.62777" lon="6.3421">
        <ele>211</ele>
        <time>2020-08-16T11:59:44Z</time>
      </trkpt>
      <trkpt lat="48.62782" lon="6.34213">
        <ele>212</ele>
        <time>2020-08-16T11:59:46Z</time>
      </trkpt>
      <trkpt lat="48.62788" lon="6.34216">
        <ele>211</ele>
        <time>2020-08-16T11:59:49Z</time>
      </trkpt>
      <trkpt lat="48.62793" lon="6.34219">
        <ele>211</ele>
        <time>2020-08-16T11:59:51Z</time>
      </trkpt>
      <trkpt lat="48.62797" lon="6.34222">
        <ele>210</ele>
        <time>2020-08-16T11:59:53Z</time>
      </trkpt>
      <trkpt lat="48.62801" lon="6.34227">
        <ele>210</ele>
        <time>2020-08-16T11:59:56Z</time>
      </trkpt>
      <trkpt lat="48.62806" lon="6.34233">
        <ele>210</ele>
        <time>2020-08-16T11:59:59Z</time>
      </trkpt>
      <trkpt lat="48.62808" lon="6.3424">
        <ele>210</ele>
        <time>2020-08-16T12:00:06Z</time>
      </trkpt>
      <trkpt lat="48.62805" lon="6.34247">
        <ele>209</ele>
        <time>2020-08-16T12:00:12Z</time>
      </trkpt>
      <trkpt lat="48.62803" lon="6.34257">
        <ele>209</ele>
        <time>2020-08-16T12:00:15Z</time>
      </trkpt>
      <trkpt lat="48.628" lon="6.34265">
        <ele>209</ele>
        <time>2020-08-16T12:00:17Z</time>
      </trkpt>
      <trkpt lat="48.62796" lon="6.34273">
        <ele>209</ele>
        <time>2020-08-16T12:00:19Z</time>
      </trkpt>
      <trkpt lat="48.62793" lon="6.34281">
        <ele>209</ele>
        <time>2020-08-16T12:00:21Z</time>
      </trkpt>
      <trkpt lat="48.62788" lon="6.34289">
        <ele>209</ele>
        <time>2020-08-16T12:00:23Z</time>
      </trkpt>
      <trkpt lat="48.62783" lon="6.34296">
        <ele>209</ele>
        <time>2020-08-16T12:00:25Z</time>
      </trkpt>
      <trkpt lat="48.62778" lon="6.34303">
        <ele>209</ele>
        <time>2020-08-16T12:00:27Z</time>
      </trkpt>
      <trkpt lat="48.62772" lon="6.3431">
        <ele>209</ele>
        <time>2020-08-16T12:00:29Z</time>
      </trkpt>
      <trkpt lat="48.62766" lon="6.34316">
        <ele>208</ele>
        <time>2020-08-16T12:00:31Z</time>
      </trkpt>
      <trkpt lat="48.62761" lon="6.34321">
        <ele>208</ele>
        <time>2020-08-16T12:00:33Z</time>
      </trkpt>
      <trkpt lat="48.62755" lon="6.34325">
        <ele>208</ele>
        <time>2020-08-16T12:00:35Z</time>
      </trkpt>
      <trkpt lat="48.62753" lon="6.34333">
        <ele>208</ele>
        <time>2020-08-16T12:00:37Z</time>
      </trkpt>
      <trkpt lat="48.62752" lon="6.34341">
        <ele>208</ele>
        <time>2020-08-16T12:00:39Z</time>
      </trkpt>
      <trkpt lat="48.62753" lon="6.34349">
        <ele>208</ele>
        <time>2020-08-16T12:00:41Z</time>
      </trkpt>
      <trkpt lat="48.62753" lon="6.34357">
        <ele>208</ele>
        <time>2020-08-16T12:00:43Z</time>
      </trkpt>
      <trkpt lat="48.62754" lon="6.34366">
        <ele>209</ele>
        <time>2020-08-16T12:00:45Z</time>
      </trkpt>
      <trkpt lat="48.62754" lon="6.34374">
        <ele>209</ele>
        <time>2020-08-16T12:00:47Z</time>
      </trkpt>
      <trkpt lat="48.62756" lon="6.34384">
        <ele>209</ele>
        <time>2020-08-16T12:00:49Z</time>
      </trkpt>
      <trkpt lat="48.62756" lon="6.34394">
        <ele>209</ele>
        <time>2020-08-16T12:00:51Z</time>
      </trkpt>
      <trkpt lat="48.62756" lon="6.34404">
        <ele>209</ele>
        <time>2020-08-16T12:00:53Z</time>
      </trkpt>
      <trkpt lat="48.62759" lon="6.34413">
        <ele>209</ele>
        <time>2020-08-16T12:00:55Z</time>
      </trkpt>
      <trkpt lat="48.62761" lon="6.34422">
        <ele>209</ele>
        <time>2020-08-16T12:00:57Z</time>
      </trkpt>
      <trkpt lat="48.62762" lon="6.34433">
        <ele>209</ele>
        <time>2020-08-16T12:00:59Z</time>
      </trkpt>
      <trkpt lat="48.62764" lon="6.34442">
        <ele>209</ele>
        <time>2020-08-16T12:01:01Z</time>
      </trkpt>
      <trkpt lat="48.62766" lon="6.34454">
        <ele>208</ele>
        <time>2020-08-16T12:01:03Z</time>
      </trkpt>
      <trkpt lat="48.62767" lon="6.34464">
        <ele>208</ele>
        <time>2020-08-16T12:01:05Z</time>
      </trkpt>
      <trkpt lat="48.62769" lon="6.34475">
        <ele>209</ele>
        <time>2020-08-16T12:01:07Z</time>
      </trkpt>
      <trkpt lat="48.62771" lon="6.34485">
        <ele>209</ele>
        <time>2020-08-16T12:01:09Z</time>
      </trkpt>
      <trkpt lat="48.62775" lon="6.34496">
        <ele>209</ele>
        <time>2020-08-16T12:01:11Z</time>
      </trkpt>
      <trkpt lat="48.62778" lon="6.34506">
        <ele>209</ele>
        <time>2020-08-16T12:01:13Z</time>
      </trkpt>
      <trkpt lat="48.62781" lon="6.34518">
        <ele>209</ele>
        <time>2020-08-16T12:01:15Z</time>
      </trkpt>
      <trkpt lat="48.62783" lon="6.34528">
        <ele>209</ele>
        <time>2020-08-16T12:01:17Z</time>
      </trkpt>
      <trkpt lat="48.62787" lon="6.34537">
        <ele>208</ele>
        <time>2020-08-16T12:01:19Z</time>
      </trkpt>
      <trkpt lat="48.6279" lon="6.34548">
        <ele>208</ele>
        <time>2020-08-16T12:01:21Z</time>
      </trkpt>
      <trkpt lat="48.62793" lon="6.34558">
        <ele>208</ele>
        <time>2020-08-16T12:01:23Z</time>
      </trkpt>
      <trkpt lat="48.62796" lon="6.34568">
        <ele>208</ele>
        <time>2020-08-16T12:01:25Z</time>
      </trkpt>
      <trkpt lat="48.628" lon="6.34577">
        <ele>208</ele>
        <time>2020-08-16T12:01:27Z</time>
      </trkpt>
      <trkpt lat="48.62806" lon="6.34586">
        <ele>208</ele>
        <time>2020-08-16T12:01:29Z</time>
      </trkpt>
      <trkpt lat="48.62811" lon="6.34594">
        <ele>208</ele>
        <time>2020-08-16T12:01:31Z</time>
      </trkpt>
      <trkpt lat="48.62814" lon="6.34602">
        <ele>209</ele>
        <time>2020-08-16T12:01:33Z</time>
      </trkpt>
      <trkpt lat="48.6282" lon="6.34611">
        <ele>209</ele>
        <time>2020-08-16T12:01:35Z</time>
      </trkpt>
      <trkpt lat="48.62825" lon="6.3462">
        <ele>208</ele>
        <time>2020-08-16T12:01:37Z</time>
      </trkpt>
      <trkpt lat="48.6283" lon="6.34628">
        <ele>208</ele>
        <time>2020-08-16T12:01:39Z</time>
      </trkpt>
      <trkpt lat="48.62832" lon="6.34637">
        <ele>208</ele>
        <time>2020-08-16T12:01:41Z</time>
      </trkpt>
      <trkpt lat="48.62838" lon="6.34645">
        <ele>208</ele>
        <time>2020-08-16T12:01:43Z</time>
      </trkpt>
      <trkpt lat="48.62843" lon="6.34653">
        <ele>208</ele>
        <time>2020-08-16T12:01:45Z</time>
      </trkpt>
      <trkpt lat="48.62848" lon="6.3466">
        <ele>208</ele>
        <time>2020-08-16T12:01:47Z</time>
      </trkpt>
      <trkpt lat="48.62853" lon="6.34669">
        <ele>208</ele>
        <time>2020-08-16T12:01:49Z</time>
      </trkpt>
      <trkpt lat="48.62858" lon="6.34675">
        <ele>208</ele>
        <time>2020-08-16T12:01:51Z</time>
      </trkpt>
      <trkpt lat="48.62863" lon="6.34683">
        <ele>208</ele>
        <time>2020-08-16T12:01:53Z</time>
      </trkpt>
      <trkpt lat="48.62867" lon="6.3469">
        <ele>208</ele>
        <time>2020-08-16T12:01:55Z</time>
      </trkpt>
      <trkpt lat="48.62871" lon="6.34696">
        <ele>208</ele>
        <time>2020-08-16T12:01:57Z</time>
      </trkpt>
      <trkpt lat="48.62875" lon="6.34703">
        <ele>209</ele>
        <time>2020-08-16T12:01:59Z</time>
      </trkpt>
      <trkpt lat="48.62877" lon="6.34709">
        <ele>209</ele>
        <time>2020-08-16T12:02:01Z</time>
      </trkpt>
      <trkpt lat="48.6288" lon="6.34716">
        <ele>210</ele>
        <time>2020-08-16T12:02:03Z</time>
      </trkpt>
      <trkpt lat="48.62884" lon="6.3472">
        <ele>211</ele>
        <time>2020-08-16T12:02:06Z</time>
      </trkpt>
      <trkpt lat="48.6289" lon="6.34721">
        <ele>211</ele>
        <time>2020-08-16T12:02:09Z</time>
      </trkpt>
      <trkpt lat="48.62895" lon="6.34717">
        <ele>211</ele>
        <time>2020-08-16T12:02:12Z</time>
      </trkpt>
      <trkpt lat="48.629" lon="6.34714">
        <ele>211</ele>
        <time>2020-08-16T12:02:15Z</time>
      </trkpt>
      <trkpt lat="48.62905" lon="6.34716">
        <ele>211</ele>
        <time>2020-08-16T12:02:18Z</time>
      </trkpt>
      <trkpt lat="48.62909" lon="6.34721">
        <ele>211</ele>
        <time>2020-08-16T12:02:21Z</time>
      </trkpt>
      <trkpt lat="48.62914" lon="6.34726">
        <ele>210</ele>
        <time>2020-08-16T12:02:23Z</time>
      </trkpt>
      <trkpt lat="48.6292" lon="6.34735">
        <ele>209</ele>
        <time>2020-08-16T12:02:25Z</time>
      </trkpt>
      <trkpt lat="48.62924" lon="6.34741">
        <ele>208</ele>
        <time>2020-08-16T12:02:26Z</time>
      </trkpt>
      <trkpt lat="48.62928" lon="6.34749">
        <ele>208</ele>
        <time>2020-08-16T12:02:27Z</time>
      </trkpt>
      <trkpt lat="48.6293" lon="6.34758">
        <ele>208</ele>
        <time>2020-08-16T12:02:28Z</time>
      </trkpt>
      <trkpt lat="48.62933" lon="6.34767">
        <ele>208</ele>
        <time>2020-08-16T12:02:29Z</time>
      </trkpt>
      <trkpt lat="48.62936" lon="6.34775">
        <ele>208</ele>
        <time>2020-08-16T12:02:30Z</time>
      </trkpt>
      <trkpt lat="48.62938" lon="6.34783">
        <ele>208</ele>
        <time>2020-08-16T12:02:31Z</time>
      </trkpt>
      <trkpt lat="48.6294" lon="6.34792">
        <ele>208</ele>
        <time>2020-08-16T12:02:32Z</time>
      </trkpt>
      <trkpt lat="48.62943" lon="6.348">
        <ele>208</ele>
        <time>2020-08-16T12:02:33Z</time>
      </trkpt>
      <trkpt lat="48.62945" lon="6.34809">
        <ele>208</ele>
        <time>2020-08-16T12:02:34Z</time>
      </trkpt>
      <trkpt lat="48.62948" lon="6.34818">
        <ele>208</ele>
        <time>2020-08-16T12:02:35Z</time>
      </trkpt>
      <trkpt lat="48.6295" lon="6.34826">
        <ele>207</ele>
        <time>2020-08-16T12:02:36Z</time>
      </trkpt>
      <trkpt lat="48.62952" lon="6.34834">
        <ele>207</ele>
        <time>2020-08-16T12:02:37Z</time>
      </trkpt>
      <trkpt lat="48.62957" lon="6.34844">
        <ele>207</ele>
        <time>2020-08-16T12:02:38Z</time>
      </trkpt>
      <trkpt lat="48.62959" lon="6.34852">
        <ele>207</ele>
        <time>2020-08-16T12:02:39Z</time>
      </trkpt>
      <trkpt lat="48.6296" lon="6.34859">
        <ele>207</ele>
        <time>2020-08-16T12:02:40Z</time>
      </trkpt>
      <trkpt lat="48.62962" lon="6.34867">
        <ele>207</ele>
        <time>2020-08-16T12:02:41Z</time>
      </trkpt>
      <trkpt lat="48.62964" lon="6.34874">
        <ele>207</ele>
        <time>2020-08-16T12:02:42Z</time>
      </trkpt>
      <trkpt lat="48.62967" lon="6.34881">
        <ele>207</ele>
        <time>2020-08-16T12:02:43Z</time>
      </trkpt>
      <trkpt lat="48.62971" lon="6.34894">
        <ele>208</ele>
        <time>2020-08-16T12:02:45Z</time>
      </trkpt>
      <trkpt lat="48.62972" lon="6.349">
        <ele>208</ele>
        <time>2020-08-16T12:02:46Z</time>
      </trkpt>
      <trkpt lat="48.62975" lon="6.34906">
        <ele>208</ele>
        <time>2020-08-16T12:02:47Z</time>
      </trkpt>
      <trkpt lat="48.62978" lon="6.34917">
        <ele>208</ele>
        <time>2020-08-16T12:02:49Z</time>
      </trkpt>
      <trkpt lat="48.62979" lon="6.34929">
        <ele>208</ele>
        <time>2020-08-16T12:02:51Z</time>
      </trkpt>
      <trkpt lat="48.62981" lon="6.3494">
        <ele>208</ele>
        <time>2020-08-16T12:02:53Z</time>
      </trkpt>
      <trkpt lat="48.62983" lon="6.34951">
        <ele>208</ele>
        <time>2020-08-16T12:02:55Z</time>
      </trkpt>
      <trkpt lat="48.62983" lon="6.34962">
        <ele>207</ele>
        <time>2020-08-16T12:02:57Z</time>
      </trkpt>
      <trkpt lat="48.62985" lon="6.34973">
        <ele>207</ele>
        <time>2020-08-16T12:02:59Z</time>
      </trkpt>
      <trkpt lat="48.62986" lon="6.34984">
        <ele>207</ele>
        <time>2020-08-16T12:03:01Z</time>
      </trkpt>
      <trkpt lat="48.62989" lon="6.34995">
        <ele>207</ele>
        <time>2020-08-16T12:03:03Z</time>
      </trkpt>
      <trkpt lat="48.62991" lon="6.35001">
        <ele>207</ele>
        <time>2020-08-16T12:03:04Z</time>
      </trkpt>
      <trkpt lat="48.62991" lon="6.35015">
        <ele>207</ele>
        <time>2020-08-16T12:03:06Z</time>
      </trkpt>
      <trkpt lat="48.62993" lon="6.35028">
        <ele>207</ele>
        <time>2020-08-16T12:03:08Z</time>
      </trkpt>
      <trkpt lat="48.62993" lon="6.3504">
        <ele>207</ele>
        <time>2020-08-16T12:03:10Z</time>
      </trkpt>
      <trkpt lat="48.62992" lon="6.35053">
        <ele>207</ele>
        <time>2020-08-16T12:03:12Z</time>
      </trkpt>
      <trkpt lat="48.62992" lon="6.35065">
        <ele>207</ele>
        <time>2020-08-16T12:03:14Z</time>
      </trkpt>
      <trkpt lat="48.62994" lon="6.35077">
        <ele>207</ele>
        <time>2020-08-16T12:03:16Z</time>
      </trkpt>
      <trkpt lat="48.62994" lon="6.35088">
        <ele>207</ele>
        <time>2020-08-16T12:03:18Z</time>
      </trkpt>
      <trkpt lat="48.62995" lon="6.351">
        <ele>207</ele>
        <time>2020-08-16T12:03:20Z</time>
      </trkpt>
      <trkpt lat="48.62996" lon="6.35113">
        <ele>207</ele>
        <time>2020-08-16T12:03:22Z</time>
      </trkpt>
      <trkpt lat="48.62997" lon="6.35124">
        <ele>207</ele>
        <time>2020-08-16T12:03:24Z</time>
      </trkpt>
      <trkpt lat="48.62996" lon="6.35136">
        <ele>207</ele>
        <time>2020-08-16T12:03:26Z</time>
      </trkpt>
      <trkpt lat="48.62997" lon="6.35149">
        <ele>207</ele>
        <time>2020-08-16T12:03:28Z</time>
      </trkpt>
      <trkpt lat="48.62996" lon="6.35162">
        <ele>207</ele>
        <time>2020-08-16T12:03:30Z</time>
      </trkpt>
      <trkpt lat="48.62997" lon="6.35175">
        <ele>208</ele>
        <time>2020-08-16T12:03:32Z</time>
      </trkpt>
      <trkpt lat="48.62997" lon="6.35187">
        <ele>208</ele>
        <time>2020-08-16T12:03:34Z</time>
      </trkpt>
      <trkpt lat="48.62997" lon="6.35197">
        <ele>208</ele>
        <time>2020-08-16T12:03:36Z</time>
      </trkpt>
      <trkpt lat="48.62997" lon="6.3521">
        <ele>208</ele>
        <time>2020-08-16T12:03:38Z</time>
      </trkpt>
      <trkpt lat="48.62998" lon="6.35221">
        <ele>208</ele>
        <time>2020-08-16T12:03:40Z</time>
      </trkpt>
      <trkpt lat="48.63" lon="6.35234">
        <ele>208</ele>
        <time>2020-08-16T12:03:42Z</time>
      </trkpt>
      <trkpt lat="48.63001" lon="6.35245">
        <ele>208</ele>
        <time>2020-08-16T12:03:44Z</time>
      </trkpt>
      <trkpt lat="48.63002" lon="6.35257">
        <ele>208</ele>
        <time>2020-08-16T12:03:46Z</time>
      </trkpt>
      <trkpt lat="48.63" lon="6.35269">
        <ele>208</ele>
        <time>2020-08-16T12:03:48Z</time>
      </trkpt>
      <trkpt lat="48.62998" lon="6.35278">
        <ele>208</ele>
        <time>2020-08-16T12:03:50Z</time>
      </trkpt>
      <trkpt lat="48.63" lon="6.3529">
        <ele>208</ele>
        <time>2020-08-16T12:03:52Z</time>
      </trkpt>
      <trkpt lat="48.63" lon="6.353">
        <ele>208</ele>
        <time>2020-08-16T12:03:54Z</time>
      </trkpt>
      <trkpt lat="48.63001" lon="6.3531">
        <ele>208</ele>
        <time>2020-08-16T12:03:56Z</time>
      </trkpt>
      <trkpt lat="48.63003" lon="6.35319">
        <ele>208</ele>
        <time>2020-08-16T12:03:58Z</time>
      </trkpt>
      <trkpt lat="48.63003" lon="6.35328">
        <ele>208</ele>
        <time>2020-08-16T12:04:00Z</time>
      </trkpt>
      <trkpt lat="48.63004" lon="6.35338">
        <ele>208</ele>
        <time>2020-08-16T12:04:02Z</time>
      </trkpt>
      <trkpt lat="48.63005" lon="6.35348">
        <ele>209</ele>
        <time>2020-08-16T12:04:04Z</time>
      </trkpt>
      <trkpt lat="48.63009" lon="6.35359">
        <ele>209</ele>
        <time>2020-08-16T12:04:06Z</time>
      </trkpt>
      <trkpt lat="48.6301" lon="6.35367">
        <ele>209</ele>
        <time>2020-08-16T12:04:08Z</time>
      </trkpt>
      <trkpt lat="48.63009" lon="6.35374">
        <ele>209</ele>
        <time>2020-08-16T12:04:10Z</time>
      </trkpt>
      <trkpt lat="48.63012" lon="6.35383">
        <ele>210</ele>
        <time>2020-08-16T12:04:13Z</time>
      </trkpt>
      <trkpt lat="48.63015" lon="6.3539">
        <ele>211</ele>
        <time>2020-08-16T12:04:16Z</time>
      </trkpt>
      <trkpt lat="48.63018" lon="6.35396">
        <ele>211</ele>
        <time>2020-08-16T12:04:19Z</time>
      </trkpt>
      <trkpt lat="48.63022" lon="6.35404">
        <ele>211</ele>
        <time>2020-08-16T12:04:22Z</time>
      </trkpt>
      <trkpt lat="48.63023" lon="6.35412">
        <ele>211</ele>
        <time>2020-08-16T12:04:25Z</time>
      </trkpt>
      <trkpt lat="48.63024" lon="6.3542">
        <ele>211</ele>
        <time>2020-08-16T12:04:27Z</time>
      </trkpt>
      <trkpt lat="48.63025" lon="6.35427">
        <ele>211</ele>
        <time>2020-08-16T12:04:29Z</time>
      </trkpt>
      <trkpt lat="48.63025" lon="6.35433">
        <ele>211</ele>
        <time>2020-08-16T12:04:31Z</time>
      </trkpt>
      <trkpt lat="48.63023" lon="6.35442">
        <ele>211</ele>
        <time>2020-08-16T12:04:33Z</time>
      </trkpt>
      <trkpt lat="48.63022" lon="6.3545">
        <ele>211</ele>
        <time>2020-08-16T12:04:35Z</time>
      </trkpt>
      <trkpt lat="48.63021" lon="6.35459">
        <ele>211</ele>
        <time>2020-08-16T12:04:38Z</time>
      </trkpt>
      <trkpt lat="48.63021" lon="6.35466">
        <ele>211</ele>
        <time>2020-08-16T12:04:40Z</time>
      </trkpt>
      <trkpt lat="48.6302" lon="6.35475">
        <ele>211</ele>
        <time>2020-08-16T12:04:42Z</time>
      </trkpt>
      <trkpt lat="48.6302" lon="6.35482">
        <ele>211</ele>
        <time>2020-08-16T12:04:44Z</time>
      </trkpt>
      <trkpt lat="48.6302" lon="6.3549">
        <ele>210</ele>
        <time>2020-08-16T12:04:46Z</time>
      </trkpt>
      <trkpt lat="48.6302" lon="6.35497">
        <ele>210</ele>
        <time>2020-08-16T12:04:48Z</time>
      </trkpt>
      <trkpt lat="48.6302" lon="6.35506">
        <ele>210</ele>
        <time>2020-08-16T12:04:50Z</time>
      </trkpt>
      <trkpt lat="48.63021" lon="6.35515">
        <ele>210</ele>
        <time>2020-08-16T12:04:52Z</time>
      </trkpt>
      <trkpt lat="48.63023" lon="6.35524">
        <ele>210</ele>
        <time>2020-08-16T12:04:54Z</time>
      </trkpt>
      <trkpt lat="48.63023" lon="6.35533">
        <ele>210</ele>
        <time>2020-08-16T12:04:56Z</time>
      </trkpt>
      <trkpt lat="48.63022" lon="6.35541">
        <ele>210</ele>
        <time>2020-08-16T12:04:58Z</time>
      </trkpt>
      <trkpt lat="48.63022" lon="6.3555">
        <ele>210</ele>
        <time>2020-08-16T12:05:00Z</time>
      </trkpt>
      <trkpt lat="48.63023" lon="6.3556">
        <ele>210</ele>
        <time>2020-08-16T12:05:02Z</time>
      </trkpt>
      <trkpt lat="48.63023" lon="6.3557">
        <ele>210</ele>
        <time>2020-08-16T12:05:04Z</time>
      </trkpt>
      <trkpt lat="48.63023" lon="6.35579">
        <ele>210</ele>
        <time>2020-08-16T12:05:06Z</time>
      </trkpt>
      <trkpt lat="48.63023" lon="6.35589">
        <ele>210</ele>
        <time>2020-08-16T12:05:08Z</time>
      </trkpt>
      <trkpt lat="48.63022" lon="6.35598">
        <ele>210</ele>
        <time>2020-08-16T12:05:10Z</time>
      </trkpt>
      <trkpt lat="48.63021" lon="6.35608">
        <ele>210</ele>
        <time>2020-08-16T12:05:12Z</time>
      </trkpt>
      <trkpt lat="48.63021" lon="6.35617">
        <ele>210</ele>
        <time>2020-08-16T12:05:14Z</time>
      </trkpt>
      <trkpt lat="48.63021" lon="6.35626">
        <ele>210</ele>
        <time>2020-08-16T12:05:16Z</time>
      </trkpt>
      <trkpt lat="48.63021" lon="6.35636">
        <ele>210</ele>
        <time>2020-08-16T12:05:18Z</time>
      </trkpt>
      <trkpt lat="48.63023" lon="6.35647">
        <ele>210</ele>
        <time>2020-08-16T12:05:20Z</time>
      </trkpt>
      <trkpt lat="48.63024" lon="6.35655">
        <ele>210</ele>
        <time>2020-08-16T12:05:22Z</time>
      </trkpt>
      <trkpt lat="48.63023" lon="6.35666">
        <ele>210</ele>
        <time>2020-08-16T12:05:24Z</time>
      </trkpt>
      <trkpt lat="48.63024" lon="6.35676">
        <ele>210</ele>
        <time>2020-08-16T12:05:26Z</time>
      </trkpt>
      <trkpt lat="48.63023" lon="6.35685">
        <ele>210</ele>
        <time>2020-08-16T12:05:28Z</time>
      </trkpt>
      <trkpt lat="48.63023" lon="6.35695">
        <ele>210</ele>
        <time>2020-08-16T12:05:30Z</time>
      </trkpt>
      <trkpt lat="48.63025" lon="6.35703">
        <ele>210</ele>
        <time>2020-08-16T12:05:32Z</time>
      </trkpt>
      <trkpt lat="48.63025" lon="6.35713">
        <ele>211</ele>
        <time>2020-08-16T12:05:34Z</time>
      </trkpt>
      <trkpt lat="48.63024" lon="6.35723">
        <ele>211</ele>
        <time>2020-08-16T12:05:36Z</time>
      </trkpt>
      <trkpt lat="48.63024" lon="6.35731">
        <ele>211</ele>
        <time>2020-08-16T12:05:38Z</time>
      </trkpt>
      <trkpt lat="48.63025" lon="6.3574">
        <ele>211</ele>
        <time>2020-08-16T12:05:40Z</time>
      </trkpt>
      <trkpt lat="48.63025" lon="6.35749">
        <ele>211</ele>
        <time>2020-08-16T12:05:42Z</time>
      </trkpt>
      <trkpt lat="48.63025" lon="6.35758">
        <ele>212</ele>
        <time>2020-08-16T12:05:44Z</time>
      </trkpt>
      <trkpt lat="48.63024" lon="6.35767">
        <ele>212</ele>
        <time>2020-08-16T12:05:46Z</time>
      </trkpt>
      <trkpt lat="48.63026" lon="6.35778">
        <ele>212</ele>
        <time>2020-08-16T12:05:48Z</time>
      </trkpt>
      <trkpt lat="48.63027" lon="6.35786">
        <ele>212</ele>
        <time>2020-08-16T12:05:50Z</time>
      </trkpt>
      <trkpt lat="48.63028" lon="6.35794">
        <ele>212</ele>
        <time>2020-08-16T12:05:52Z</time>
      </trkpt>
      <trkpt lat="48.63027" lon="6.35804">
        <ele>212</ele>
        <time>2020-08-16T12:05:54Z</time>
      </trkpt>
      <trkpt lat="48.63029" lon="6.35815">
        <ele>212</ele>
        <time>2020-08-16T12:05:56Z</time>
      </trkpt>
      <trkpt lat="48.63029" lon="6.35826">
        <ele>212</ele>
        <time>2020-08-16T12:05:58Z</time>
      </trkpt>
      <trkpt lat="48.6303" lon="6.35835">
        <ele>212</ele>
        <time>2020-08-16T12:06:00Z</time>
      </trkpt>
      <trkpt lat="48.63031" lon="6.35844">
        <ele>212</ele>
        <time>2020-08-16T12:06:02Z</time>
      </trkpt>
      <trkpt lat="48.63033" lon="6.35854">
        <ele>212</ele>
        <time>2020-08-16T12:06:04Z</time>
      </trkpt>
      <trkpt lat="48.63034" lon="6.35862">
        <ele>211</ele>
        <time>2020-08-16T12:06:06Z</time>
      </trkpt>
      <trkpt lat="48.63035" lon="6.35873">
        <ele>211</ele>
        <time>2020-08-16T12:06:08Z</time>
      </trkpt>
      <trkpt lat="48.63036" lon="6.35882">
        <ele>211</ele>
        <time>2020-08-16T12:06:10Z</time>
      </trkpt>
      <trkpt lat="48.63038" lon="6.3589">
        <ele>211</ele>
        <time>2020-08-16T12:06:12Z</time>
      </trkpt>
      <trkpt lat="48.63039" lon="6.359">
        <ele>211</ele>
        <time>2020-08-16T12:06:14Z</time>
      </trkpt>
      <trkpt lat="48.6304" lon="6.35909">
        <ele>211</ele>
        <time>2020-08-16T12:06:16Z</time>
      </trkpt>
      <trkpt lat="48.63041" lon="6.35917">
        <ele>211</ele>
        <time>2020-08-16T12:06:18Z</time>
      </trkpt>
      <trkpt lat="48.63042" lon="6.35926">
        <ele>211</ele>
        <time>2020-08-16T12:06:20Z</time>
      </trkpt>
      <trkpt lat="48.63043" lon="6.35933">
        <ele>211</ele>
        <time>2020-08-16T12:06:22Z</time>
      </trkpt>
      <trkpt lat="48.63045" lon="6.35941">
        <ele>211</ele>
        <time>2020-08-16T12:06:24Z</time>
      </trkpt>
      <trkpt lat="48.63047" lon="6.35949">
        <ele>211</ele>
        <time>2020-08-16T12:06:26Z</time>
      </trkpt>
      <trkpt lat="48.63049" lon="6.35958">
        <ele>211</ele>
        <time>2020-08-16T12:06:28Z</time>
      </trkpt>
      <trkpt lat="48.63053" lon="6.35967">
        <ele>211</ele>
        <time>2020-08-16T12:06:30Z</time>
      </trkpt>
      <trkpt lat="48.63057" lon="6.35977">
        <ele>211</ele>
        <time>2020-08-16T12:06:32Z</time>
      </trkpt>
      <trkpt lat="48.63058" lon="6.35986">
        <ele>211</ele>
        <time>2020-08-16T12:06:35Z</time>
      </trkpt>
      <trkpt lat="48.6306" lon="6.35994">
        <ele>211</ele>
        <time>2020-08-16T12:06:37Z</time>
      </trkpt>
      <trkpt lat="48.63063" lon="6.36001">
        <ele>211</ele>
        <time>2020-08-16T12:06:39Z</time>
      </trkpt>
      <trkpt lat="48.63065" lon="6.36008">
        <ele>211</ele>
        <time>2020-08-16T12:06:41Z</time>
      </trkpt>
      <trkpt lat="48.63067" lon="6.36016">
        <ele>211</ele>
        <time>2020-08-16T12:06:43Z</time>
      </trkpt>
      <trkpt lat="48.63069" lon="6.36024">
        <ele>212</ele>
        <time>2020-08-16T12:06:45Z</time>
      </trkpt>
      <trkpt lat="48.63072" lon="6.36032">
        <ele>212</ele>
        <time>2020-08-16T12:06:47Z</time>
      </trkpt>
      <trkpt lat="48.63074" lon="6.36039">
        <ele>212</ele>
        <time>2020-08-16T12:06:49Z</time>
      </trkpt>
      <trkpt lat="48.63076" lon="6.36046">
        <ele>212</ele>
        <time>2020-08-16T12:07:06Z</time>
      </trkpt>
      <trkpt lat="48.63078" lon="6.36053">
        <ele>212</ele>
        <time>2020-08-16T12:07:08Z</time>
      </trkpt>
      <trkpt lat="48.6308" lon="6.36061">
        <ele>211</ele>
        <time>2020-08-16T12:07:10Z</time>
      </trkpt>
      <trkpt lat="48.63083" lon="6.36069">
        <ele>211</ele>
        <time>2020-08-16T12:07:12Z</time>
      </trkpt>
      <trkpt lat="48.63086" lon="6.36077">
        <ele>211</ele>
        <time>2020-08-16T12:07:14Z</time>
      </trkpt>
      <trkpt lat="48.63089" lon="6.36087">
        <ele>212</ele>
        <time>2020-08-16T12:07:16Z</time>
      </trkpt>
      <trkpt lat="48.63091" lon="6.36096">
        <ele>212</ele>
        <time>2020-08-16T12:07:18Z</time>
      </trkpt>
      <trkpt lat="48.63092" lon="6.36103">
        <ele>212</ele>
        <time>2020-08-16T12:07:20Z</time>
      </trkpt>
      <trkpt lat="48.63094" lon="6.36112">
        <ele>211</ele>
        <time>2020-08-16T12:07:22Z</time>
      </trkpt>
      <trkpt lat="48.63098" lon="6.36123">
        <ele>211</ele>
        <time>2020-08-16T12:07:24Z</time>
      </trkpt>
      <trkpt lat="48.631" lon="6.36132">
        <ele>212</ele>
        <time>2020-08-16T12:07:26Z</time>
      </trkpt>
      <trkpt lat="48.63103" lon="6.36141">
        <ele>212</ele>
        <time>2020-08-16T12:07:28Z</time>
      </trkpt>
      <trkpt lat="48.63105" lon="6.36151">
        <ele>213</ele>
        <time>2020-08-16T12:07:30Z</time>
      </trkpt>
      <trkpt lat="48.63107" lon="6.36161">
        <ele>213</ele>
        <time>2020-08-16T12:07:32Z</time>
      </trkpt>
      <trkpt lat="48.6311" lon="6.36171">
        <ele>213</ele>
        <time>2020-08-16T12:07:34Z</time>
      </trkpt>
      <trkpt lat="48.63113" lon="6.36179">
        <ele>213</ele>
        <time>2020-08-16T12:07:36Z</time>
      </trkpt>
      <trkpt lat="48.63114" lon="6.36189">
        <ele>212</ele>
        <time>2020-08-16T12:07:38Z</time>
      </trkpt>
      <trkpt lat="48.63118" lon="6.36198">
        <ele>212</ele>
        <time>2020-08-16T12:07:40Z</time>
      </trkpt>
      <trkpt lat="48.63121" lon="6.36208">
        <ele>212</ele>
        <time>2020-08-16T12:07:42Z</time>
      </trkpt>
      <trkpt lat="48.63124" lon="6.36214">
        <ele>212</ele>
        <time>2020-08-16T12:07:43Z</time>
      </trkpt>
      <trkpt lat="48.63126" lon="6.36224">
        <ele>212</ele>
        <time>2020-08-16T12:07:45Z</time>
      </trkpt>
      <trkpt lat="48.63126" lon="6.36232">
        <ele>212</ele>
        <time>2020-08-16T12:07:47Z</time>
      </trkpt>
      <trkpt lat="48.6313" lon="6.36242">
        <ele>212</ele>
        <time>2020-08-16T12:07:49Z</time>
      </trkpt>
      <trkpt lat="48.63133" lon="6.3625">
        <ele>212</ele>
        <time>2020-08-16T12:07:51Z</time>
      </trkpt>
      <trkpt lat="48.63136" lon="6.36259">
        <ele>212</ele>
        <time>2020-08-16T12:07:53Z</time>
      </trkpt>
      <trkpt lat="48.6314" lon="6.36269">
        <ele>211</ele>
        <time>2020-08-16T12:07:55Z</time>
      </trkpt>
      <trkpt lat="48.63143" lon="6.36278">
        <ele>211</ele>
        <time>2020-08-16T12:07:57Z</time>
      </trkpt>
      <trkpt lat="48.63145" lon="6.36288">
        <ele>211</ele>
        <time>2020-08-16T12:07:59Z</time>
      </trkpt>
      <trkpt lat="48.63153" lon="6.36299">
        <ele>212</ele>
        <time>2020-08-16T12:08:01Z</time>
      </trkpt>
      <trkpt lat="48.63154" lon="6.36308">
        <ele>212</ele>
        <time>2020-08-16T12:08:03Z</time>
      </trkpt>
      <trkpt lat="48.63155" lon="6.36317">
        <ele>212</ele>
        <time>2020-08-16T12:08:05Z</time>
      </trkpt>
      <trkpt lat="48.6316" lon="6.36327">
        <ele>212</ele>
        <time>2020-08-16T12:08:07Z</time>
      </trkpt>
      <trkpt lat="48.63163" lon="6.36336">
        <ele>212</ele>
        <time>2020-08-16T12:08:09Z</time>
      </trkpt>
      <trkpt lat="48.63165" lon="6.36345">
        <ele>212</ele>
        <time>2020-08-16T12:08:11Z</time>
      </trkpt>
      <trkpt lat="48.63168" lon="6.36355">
        <ele>212</ele>
        <time>2020-08-16T12:08:13Z</time>
      </trkpt>
      <trkpt lat="48.63169" lon="6.36363">
        <ele>212</ele>
        <time>2020-08-16T12:08:15Z</time>
      </trkpt>
      <trkpt lat="48.63171" lon="6.36372">
        <ele>213</ele>
        <time>2020-08-16T12:08:17Z</time>
      </trkpt>
      <trkpt lat="48.63173" lon="6.36382">
        <ele>213</ele>
        <time>2020-08-16T12:08:19Z</time>
      </trkpt>
      <trkpt lat="48.63176" lon="6.36392">
        <ele>213</ele>
        <time>2020-08-16T12:08:21Z</time>
      </trkpt>
      <trkpt lat="48.63179" lon="6.36398">
        <ele>213</ele>
        <time>2020-08-16T12:08:22Z</time>
      </trkpt>
      <trkpt lat="48.63181" lon="6.36408">
        <ele>213</ele>
        <time>2020-08-16T12:08:24Z</time>
      </trkpt>
      <trkpt lat="48.63183" lon="6.36417">
        <ele>213</ele>
        <time>2020-08-16T12:08:26Z</time>
      </trkpt>
      <trkpt lat="48.63186" lon="6.36426">
        <ele>213</ele>
        <time>2020-08-16T12:08:28Z</time>
      </trkpt>
      <trkpt lat="48.63189" lon="6.36435">
        <ele>213</ele>
        <time>2020-08-16T12:08:30Z</time>
      </trkpt>
      <trkpt lat="48.63192" lon="6.36443">
        <ele>214</ele>
        <time>2020-08-16T12:08:32Z</time>
      </trkpt>
      <trkpt lat="48.63195" lon="6.3645">
        <ele>214</ele>
        <time>2020-08-16T12:08:34Z</time>
      </trkpt>
      <trkpt lat="48.63197" lon="6.36459">
        <ele>214</ele>
        <time>2020-08-16T12:08:36Z</time>
      </trkpt>
      <trkpt lat="48.632" lon="6.36469">
        <ele>213</ele>
        <time>2020-08-16T12:08:38Z</time>
      </trkpt>
      <trkpt lat="48.63202" lon="6.36478">
        <ele>213</ele>
        <time>2020-08-16T12:08:40Z</time>
      </trkpt>
      <trkpt lat="48.63205" lon="6.36482">
        <ele>213</ele>
        <time>2020-08-16T12:08:41Z</time>
      </trkpt>
      <trkpt lat="48.63206" lon="6.36492">
        <ele>213</ele>
        <time>2020-08-16T12:08:43Z</time>
      </trkpt>
      <trkpt lat="48.6321" lon="6.36503">
        <ele>213</ele>
        <time>2020-08-16T12:08:45Z</time>
      </trkpt>
      <trkpt lat="48.63212" lon="6.36512">
        <ele>213</ele>
        <time>2020-08-16T12:08:47Z</time>
      </trkpt>
      <trkpt lat="48.63212" lon="6.3652">
        <ele>212</ele>
        <time>2020-08-16T12:08:49Z</time>
      </trkpt>
      <trkpt lat="48.63218" lon="6.36534">
        <ele>213</ele>
        <time>2020-08-16T12:08:52Z</time>
      </trkpt>
      <trkpt lat="48.63221" lon="6.36544">
        <ele>213</ele>
        <time>2020-08-16T12:08:54Z</time>
      </trkpt>
      <trkpt lat="48.63225" lon="6.36555">
        <ele>213</ele>
        <time>2020-08-16T12:08:56Z</time>
      </trkpt>
      <trkpt lat="48.63228" lon="6.36564">
        <ele>214</ele>
        <time>2020-08-16T12:08:58Z</time>
      </trkpt>
      <trkpt lat="48.63231" lon="6.36574">
        <ele>213</ele>
        <time>2020-08-16T12:09:00Z</time>
      </trkpt>
      <trkpt lat="48.63232" lon="6.36581">
        <ele>213</ele>
        <time>2020-08-16T12:09:01Z</time>
      </trkpt>
      <trkpt lat="48.63235" lon="6.3659">
        <ele>213</ele>
        <time>2020-08-16T12:09:03Z</time>
      </trkpt>
      <trkpt lat="48.63237" lon="6.36597">
        <ele>213</ele>
        <time>2020-08-16T12:09:05Z</time>
      </trkpt>
      <trkpt lat="48.6324" lon="6.36605">
        <ele>213</ele>
        <time>2020-08-16T12:09:07Z</time>
      </trkpt>
      <trkpt lat="48.63244" lon="6.36615">
        <ele>213</ele>
        <time>2020-08-16T12:09:09Z</time>
      </trkpt>
      <trkpt lat="48.63245" lon="6.36625">
        <ele>213</ele>
        <time>2020-08-16T12:09:11Z</time>
      </trkpt>
      <trkpt lat="48.63247" lon="6.36633">
        <ele>213</ele>
        <time>2020-08-16T12:09:13Z</time>
      </trkpt>
      <trkpt lat="48.6325" lon="6.36641">
        <ele>214</ele>
        <time>2020-08-16T12:09:15Z</time>
      </trkpt>
      <trkpt lat="48.63252" lon="6.36648">
        <ele>214</ele>
        <time>2020-08-16T12:09:17Z</time>
      </trkpt>
      <trkpt lat="48.63256" lon="6.36657">
        <ele>214</ele>
        <time>2020-08-16T12:09:19Z</time>
      </trkpt>
      <trkpt lat="48.63259" lon="6.36665">
        <ele>214</ele>
        <time>2020-08-16T12:09:21Z</time>
      </trkpt>
      <trkpt lat="48.63261" lon="6.36674">
        <ele>214</ele>
        <time>2020-08-16T12:09:23Z</time>
      </trkpt>
      <trkpt lat="48.63265" lon="6.36684">
        <ele>213</ele>
        <time>2020-08-16T12:09:25Z</time>
      </trkpt>
      <trkpt lat="48.63267" lon="6.36691">
        <ele>214</ele>
        <time>2020-08-16T12:09:27Z</time>
      </trkpt>
      <trkpt lat="48.63271" lon="6.367">
        <ele>214</ele>
        <time>2020-08-16T12:09:29Z</time>
      </trkpt>
      <trkpt lat="48.63274" lon="6.36708">
        <ele>214</ele>
        <time>2020-08-16T12:09:31Z</time>
      </trkpt>
      <trkpt lat="48.63277" lon="6.36719">
        <ele>214</ele>
        <time>2020-08-16T12:09:33Z</time>
      </trkpt>
      <trkpt lat="48.63281" lon="6.36729">
        <ele>214</ele>
        <time>2020-08-16T12:09:35Z</time>
      </trkpt>
      <trkpt lat="48.63285" lon="6.36738">
        <ele>214</ele>
        <time>2020-08-16T12:09:37Z</time>
      </trkpt>
      <trkpt lat="48.63288" lon="6.36747">
        <ele>214</ele>
        <time>2020-08-16T12:09:39Z</time>
      </trkpt>
      <trkpt lat="48.63291" lon="6.36756">
        <ele>214</ele>
        <time>2020-08-16T12:09:41Z</time>
      </trkpt>
      <trkpt lat="48.63295" lon="6.36765">
        <ele>214</ele>
        <time>2020-08-16T12:09:43Z</time>
      </trkpt>
      <trkpt lat="48.63297" lon="6.36775">
        <ele>213</ele>
        <time>2020-08-16T12:09:46Z</time>
      </trkpt>
      <trkpt lat="48.633" lon="6.36784">
        <ele>213</ele>
        <time>2020-08-16T12:09:48Z</time>
      </trkpt>
      <trkpt lat="48.63304" lon="6.36792">
        <ele>213</ele>
        <time>2020-08-16T12:09:50Z</time>
      </trkpt>
      <trkpt lat="48.63308" lon="6.36802">
        <ele>213</ele>
        <time>2020-08-16T12:09:52Z</time>
      </trkpt>
      <trkpt lat="48.63308" lon="6.36809">
        <ele>212</ele>
        <time>2020-08-16T12:09:53Z</time>
      </trkpt>
      <trkpt lat="48.63311" lon="6.36816">
        <ele>212</ele>
        <time>2020-08-16T12:09:55Z</time>
      </trkpt>
      <trkpt lat="48.63314" lon="6.36824">
        <ele>212</ele>
        <time>2020-08-16T12:09:57Z</time>
      </trkpt>
      <trkpt lat="48.6332" lon="6.36833">
        <ele>212</ele>
        <time>2020-08-16T12:09:59Z</time>
      </trkpt>
      <trkpt lat="48.63324" lon="6.36842">
        <ele>213</ele>
        <time>2020-08-16T12:10:01Z</time>
      </trkpt>
      <trkpt lat="48.63327" lon="6.36849">
        <ele>214</ele>
        <time>2020-08-16T12:10:03Z</time>
      </trkpt>
      <trkpt lat="48.63331" lon="6.36856">
        <ele>215</ele>
        <time>2020-08-16T12:10:05Z</time>
      </trkpt>
      <trkpt lat="48.63334" lon="6.36865">
        <ele>214</ele>
        <time>2020-08-16T12:10:07Z</time>
      </trkpt>
      <trkpt lat="48.63338" lon="6.36873">
        <ele>215</ele>
        <time>2020-08-16T12:10:09Z</time>
      </trkpt>
      <trkpt lat="48.63341" lon="6.36879">
        <ele>215</ele>
        <time>2020-08-16T12:10:11Z</time>
      </trkpt>
      <trkpt lat="48.63346" lon="6.36885">
        <ele>215</ele>
        <time>2020-08-16T12:10:14Z</time>
      </trkpt>
      <trkpt lat="48.6335" lon="6.36894">
        <ele>215</ele>
        <time>2020-08-16T12:10:16Z</time>
      </trkpt>
      <trkpt lat="48.63355" lon="6.36902">
        <ele>215</ele>
        <time>2020-08-16T12:10:18Z</time>
      </trkpt>
      <trkpt lat="48.63359" lon="6.36912">
        <ele>214</ele>
        <time>2020-08-16T12:10:20Z</time>
      </trkpt>
      <trkpt lat="48.6336" lon="6.36924">
        <ele>214</ele>
        <time>2020-08-16T12:10:23Z</time>
      </trkpt>
      <trkpt lat="48.63363" lon="6.36933">
        <ele>214</ele>
        <time>2020-08-16T12:10:25Z</time>
      </trkpt>
      <trkpt lat="48.63363" lon="6.36944">
        <ele>213</ele>
        <time>2020-08-16T12:10:27Z</time>
      </trkpt>
      <trkpt lat="48.63366" lon="6.36953">
        <ele>213</ele>
        <time>2020-08-16T12:10:29Z</time>
      </trkpt>
      <trkpt lat="48.63368" lon="6.36961">
        <ele>213</ele>
        <time>2020-08-16T12:10:31Z</time>
      </trkpt>
      <trkpt lat="48.63369" lon="6.36968">
        <ele>213</ele>
        <time>2020-08-16T12:10:33Z</time>
      </trkpt>
      <trkpt lat="48.63372" lon="6.36975">
        <ele>213</ele>
        <time>2020-08-16T12:10:35Z</time>
      </trkpt>
      <trkpt lat="48.63375" lon="6.36982">
        <ele>213</ele>
        <time>2020-08-16T12:10:37Z</time>
      </trkpt>
      <trkpt lat="48.63378" lon="6.36989">
        <ele>213</ele>
        <time>2020-08-16T12:10:39Z</time>
      </trkpt>
      <trkpt lat="48.63381" lon="6.36996">
        <ele>213</ele>
        <time>2020-08-16T12:10:41Z</time>
      </trkpt>
      <trkpt lat="48.63385" lon="6.37002">
        <ele>213</ele>
        <time>2020-08-16T12:10:43Z</time>
      </trkpt>
      <trkpt lat="48.63389" lon="6.3701">
        <ele>213</ele>
        <time>2020-08-16T12:10:46Z</time>
      </trkpt>
      <trkpt lat="48.63388" lon="6.37017">
        <ele>212</ele>
        <time>2020-08-16T12:11:03Z</time>
      </trkpt>
      <trkpt lat="48.63387" lon="6.37025">
        <ele>212</ele>
        <time>2020-08-16T12:11:05Z</time>
      </trkpt>
      <trkpt lat="48.63389" lon="6.37035">
        <ele>212</ele>
        <time>2020-08-16T12:11:07Z</time>
      </trkpt>
      <trkpt lat="48.63394" lon="6.37044">
        <ele>212</ele>
        <time>2020-08-16T12:11:09Z</time>
      </trkpt>
      <trkpt lat="48.63399" lon="6.37053">
        <ele>212</ele>
        <time>2020-08-16T12:11:11Z</time>
      </trkpt>
      <trkpt lat="48.63406" lon="6.37059">
        <ele>212</ele>
        <time>2020-08-16T12:11:13Z</time>
      </trkpt>
      <trkpt lat="48.63412" lon="6.37064">
        <ele>213</ele>
        <time>2020-08-16T12:11:15Z</time>
      </trkpt>
      <trkpt lat="48.63419" lon="6.37069">
        <ele>213</ele>
        <time>2020-08-16T12:11:17Z</time>
      </trkpt>
      <trkpt lat="48.63425" lon="6.37075">
        <ele>213</ele>
        <time>2020-08-16T12:11:19Z</time>
      </trkpt>
      <trkpt lat="48.6343" lon="6.37081">
        <ele>213</ele>
        <time>2020-08-16T12:11:21Z</time>
      </trkpt>
      <trkpt lat="48.63435" lon="6.37089">
        <ele>212</ele>
        <time>2020-08-16T12:11:23Z</time>
      </trkpt>
      <trkpt lat="48.6344" lon="6.37098">
        <ele>212</ele>
        <time>2020-08-16T12:11:25Z</time>
      </trkpt>
      <trkpt lat="48.63444" lon="6.37107">
        <ele>212</ele>
        <time>2020-08-16T12:11:27Z</time>
      </trkpt>
      <trkpt lat="48.63448" lon="6.37117">
        <ele>212</ele>
        <time>2020-08-16T12:11:29Z</time>
      </trkpt>
      <trkpt lat="48.63451" lon="6.37123">
        <ele>212</ele>
        <time>2020-08-16T12:11:30Z</time>
      </trkpt>
      <trkpt lat="48.63455" lon="6.37135">
        <ele>211</ele>
        <time>2020-08-16T12:11:32Z</time>
      </trkpt>
      <trkpt lat="48.63459" lon="6.37146">
        <ele>211</ele>
        <time>2020-08-16T12:11:34Z</time>
      </trkpt>
      <trkpt lat="48.63464" lon="6.37156">
        <ele>211</ele>
        <time>2020-08-16T12:11:36Z</time>
      </trkpt>
      <trkpt lat="48.63468" lon="6.37166">
        <ele>211</ele>
        <time>2020-08-16T12:11:38Z</time>
      </trkpt>
      <trkpt lat="48.63472" lon="6.37178">
        <ele>211</ele>
        <time>2020-08-16T12:11:40Z</time>
      </trkpt>
      <trkpt lat="48.63476" lon="6.37189">
        <ele>211</ele>
        <time>2020-08-16T12:11:42Z</time>
      </trkpt>
      <trkpt lat="48.6348" lon="6.37195">
        <ele>211</ele>
        <time>2020-08-16T12:11:43Z</time>
      </trkpt>
      <trkpt lat="48.63483" lon="6.37206">
        <ele>211</ele>
        <time>2020-08-16T12:11:45Z</time>
      </trkpt>
      <trkpt lat="48.63486" lon="6.37212">
        <ele>211</ele>
        <time>2020-08-16T12:11:46Z</time>
      </trkpt>
      <trkpt lat="48.6349" lon="6.37217">
        <ele>211</ele>
        <time>2020-08-16T12:11:47Z</time>
      </trkpt>
      <trkpt lat="48.63494" lon="6.37226">
        <ele>211</ele>
        <time>2020-08-16T12:11:49Z</time>
      </trkpt>
      <trkpt lat="48.63497" lon="6.37232">
        <ele>211</ele>
        <time>2020-08-16T12:11:50Z</time>
      </trkpt>
      <trkpt lat="48.635" lon="6.37243">
        <ele>211</ele>
        <time>2020-08-16T12:11:52Z</time>
      </trkpt>
      <trkpt lat="48.63505" lon="6.37253">
        <ele>211</ele>
        <time>2020-08-16T12:11:54Z</time>
      </trkpt>
      <trkpt lat="48.63509" lon="6.37263">
        <ele>211</ele>
        <time>2020-08-16T12:11:56Z</time>
      </trkpt>
      <trkpt lat="48.63512" lon="6.3727">
        <ele>211</ele>
        <time>2020-08-16T12:11:57Z</time>
      </trkpt>
      <trkpt lat="48.63515" lon="6.37276">
        <ele>212</ele>
        <time>2020-08-16T12:11:58Z</time>
      </trkpt>
      <trkpt lat="48.63519" lon="6.37288">
        <ele>212</ele>
        <time>2020-08-16T12:12:00Z</time>
      </trkpt>
      <trkpt lat="48.63522" lon="6.37293">
        <ele>212</ele>
        <time>2020-08-16T12:12:01Z</time>
      </trkpt>
      <trkpt lat="48.63525" lon="6.37299">
        <ele>211</ele>
        <time>2020-08-16T12:12:02Z</time>
      </trkpt>
      <trkpt lat="48.63528" lon="6.37305">
        <ele>211</ele>
        <time>2020-08-16T12:12:03Z</time>
      </trkpt>
      <trkpt lat="48.6353" lon="6.37315">
        <ele>211</ele>
        <time>2020-08-16T12:12:05Z</time>
      </trkpt>
      <trkpt lat="48.63532" lon="6.37322">
        <ele>211</ele>
        <time>2020-08-16T12:12:06Z</time>
      </trkpt>
      <trkpt lat="48.63535" lon="6.37327">
        <ele>211</ele>
        <time>2020-08-16T12:12:07Z</time>
      </trkpt>
      <trkpt lat="48.63538" lon="6.37339">
        <ele>211</ele>
        <time>2020-08-16T12:12:09Z</time>
      </trkpt>
      <trkpt lat="48.63542" lon="6.3735">
        <ele>211</ele>
        <time>2020-08-16T12:12:11Z</time>
      </trkpt>
      <trkpt lat="48.63546" lon="6.3736">
        <ele>212</ele>
        <time>2020-08-16T12:12:13Z</time>
      </trkpt>
      <trkpt lat="48.6355" lon="6.37369">
        <ele>212</ele>
        <time>2020-08-16T12:12:15Z</time>
      </trkpt>
      <trkpt lat="48.63553" lon="6.37381">
        <ele>211</ele>
        <time>2020-08-16T12:12:17Z</time>
      </trkpt>
      <trkpt lat="48.63556" lon="6.37387">
        <ele>211</ele>
        <time>2020-08-16T12:12:18Z</time>
      </trkpt>
      <trkpt lat="48.63559" lon="6.37398">
        <ele>211</ele>
        <time>2020-08-16T12:12:20Z</time>
      </trkpt>
      <trkpt lat="48.63562" lon="6.3741">
        <ele>211</ele>
        <time>2020-08-16T12:12:22Z</time>
      </trkpt>
      <trkpt lat="48.63564" lon="6.37416">
        <ele>211</ele>
        <time>2020-08-16T12:12:23Z</time>
      </trkpt>
      <trkpt lat="48.63566" lon="6.37429">
        <ele>211</ele>
        <time>2020-08-16T12:12:25Z</time>
      </trkpt>
      <trkpt lat="48.6357" lon="6.3744">
        <ele>211</ele>
        <time>2020-08-16T12:12:27Z</time>
      </trkpt>
      <trkpt lat="48.63575" lon="6.37452">
        <ele>212</ele>
        <time>2020-08-16T12:12:29Z</time>
      </trkpt>
      <trkpt lat="48.63578" lon="6.37459">
        <ele>212</ele>
        <time>2020-08-16T12:12:30Z</time>
      </trkpt>
      <trkpt lat="48.63581" lon="6.3747">
        <ele>212</ele>
        <time>2020-08-16T12:12:32Z</time>
      </trkpt>
      <trkpt lat="48.63586" lon="6.37481">
        <ele>212</ele>
        <time>2020-08-16T12:12:34Z</time>
      </trkpt>
      <trkpt lat="48.6359" lon="6.3749">
        <ele>212</ele>
        <time>2020-08-16T12:12:36Z</time>
      </trkpt>
      <trkpt lat="48.63594" lon="6.37498">
        <ele>213</ele>
        <time>2020-08-16T12:12:38Z</time>
      </trkpt>
      <trkpt lat="48.63596" lon="6.3751">
        <ele>213</ele>
        <time>2020-08-16T12:12:40Z</time>
      </trkpt>
      <trkpt lat="48.63598" lon="6.37519">
        <ele>213</ele>
        <time>2020-08-16T12:12:42Z</time>
      </trkpt>
      <trkpt lat="48.636" lon="6.37529">
        <ele>213</ele>
        <time>2020-08-16T12:12:44Z</time>
      </trkpt>
      <trkpt lat="48.63603" lon="6.37535">
        <ele>213</ele>
        <time>2020-08-16T12:12:46Z</time>
      </trkpt>
      <trkpt lat="48.63606" lon="6.37543">
        <ele>213</ele>
        <time>2020-08-16T12:12:48Z</time>
      </trkpt>
      <trkpt lat="48.63609" lon="6.37551">
        <ele>213</ele>
        <time>2020-08-16T12:12:50Z</time>
      </trkpt>
      <trkpt lat="48.6361" lon="6.37561">
        <ele>213</ele>
        <time>2020-08-16T12:12:53Z</time>
      </trkpt>
      <trkpt lat="48.63612" lon="6.37571">
        <ele>213</ele>
        <time>2020-08-16T12:12:56Z</time>
      </trkpt>
      <trkpt lat="48.63614" lon="6.37579">
        <ele>213</ele>
        <time>2020-08-16T12:12:58Z</time>
      </trkpt>
      <trkpt lat="48.63617" lon="6.37588">
        <ele>213</ele>
        <time>2020-08-16T12:13:00Z</time>
      </trkpt>
      <trkpt lat="48.63618" lon="6.37596">
        <ele>213</ele>
        <time>2020-08-16T12:13:02Z</time>
      </trkpt>
      <trkpt lat="48.6362" lon="6.37603">
        <ele>213</ele>
        <time>2020-08-16T12:13:05Z</time>
      </trkpt>
      <trkpt lat="48.6362" lon="6.37613">
        <ele>213</ele>
        <time>2020-08-16T12:13:08Z</time>
      </trkpt>
      <trkpt lat="48.63621" lon="6.3762">
        <ele>213</ele>
        <time>2020-08-16T12:13:10Z</time>
      </trkpt>
      <trkpt lat="48.63622" lon="6.37628">
        <ele>214</ele>
        <time>2020-08-16T12:13:12Z</time>
      </trkpt>
      <trkpt lat="48.63624" lon="6.37634">
        <ele>214</ele>
        <time>2020-08-16T12:13:13Z</time>
      </trkpt>
      <trkpt lat="48.63625" lon="6.37645">
        <ele>214</ele>
        <time>2020-08-16T12:13:15Z</time>
      </trkpt>
      <trkpt lat="48.63627" lon="6.37656">
        <ele>214</ele>
        <time>2020-08-16T12:13:17Z</time>
      </trkpt>
      <trkpt lat="48.63628" lon="6.37666">
        <ele>214</ele>
        <time>2020-08-16T12:13:19Z</time>
      </trkpt>
      <trkpt lat="48.63631" lon="6.37676">
        <ele>214</ele>
        <time>2020-08-16T12:13:21Z</time>
      </trkpt>
      <trkpt lat="48.63633" lon="6.37684">
        <ele>214</ele>
        <time>2020-08-16T12:13:23Z</time>
      </trkpt>
      <trkpt lat="48.63635" lon="6.37696">
        <ele>213</ele>
        <time>2020-08-16T12:13:25Z</time>
      </trkpt>
      <trkpt lat="48.63638" lon="6.37706">
        <ele>213</ele>
        <time>2020-08-16T12:13:27Z</time>
      </trkpt>
      <trkpt lat="48.63642" lon="6.37716">
        <ele>213</ele>
        <time>2020-08-16T12:13:29Z</time>
      </trkpt>
      <trkpt lat="48.63646" lon="6.37725">
        <ele>213</ele>
        <time>2020-08-16T12:13:31Z</time>
      </trkpt>
      <trkpt lat="48.63651" lon="6.37736">
        <ele>213</ele>
        <time>2020-08-16T12:13:33Z</time>
      </trkpt>
      <trkpt lat="48.63652" lon="6.37744">
        <ele>213</ele>
        <time>2020-08-16T12:13:35Z</time>
      </trkpt>
      <trkpt lat="48.63655" lon="6.37754">
        <ele>214</ele>
        <time>2020-08-16T12:13:37Z</time>
      </trkpt>
      <trkpt lat="48.63658" lon="6.37764">
        <ele>214</ele>
        <time>2020-08-16T12:13:39Z</time>
      </trkpt>
      <trkpt lat="48.63662" lon="6.37773">
        <ele>214</ele>
        <time>2020-08-16T12:13:41Z</time>
      </trkpt>
      <trkpt lat="48.63665" lon="6.37781">
        <ele>214</ele>
        <time>2020-08-16T12:13:43Z</time>
      </trkpt>
      <trkpt lat="48.63669" lon="6.37791">
        <ele>214</ele>
        <time>2020-08-16T12:13:45Z</time>
      </trkpt>
      <trkpt lat="48.63672" lon="6.37799">
        <ele>215</ele>
        <time>2020-08-16T12:13:47Z</time>
      </trkpt>
      <trkpt lat="48.63675" lon="6.37807">
        <ele>215</ele>
        <time>2020-08-16T12:13:49Z</time>
      </trkpt>
      <trkpt lat="48.63677" lon="6.37817">
        <ele>215</ele>
        <time>2020-08-16T12:13:51Z</time>
      </trkpt>
      <trkpt lat="48.63681" lon="6.37829">
        <ele>215</ele>
        <time>2020-08-16T12:13:53Z</time>
      </trkpt>
      <trkpt lat="48.63685" lon="6.3784">
        <ele>215</ele>
        <time>2020-08-16T12:13:55Z</time>
      </trkpt>
      <trkpt lat="48.63688" lon="6.3785">
        <ele>215</ele>
        <time>2020-08-16T12:13:57Z</time>
      </trkpt>
      <trkpt lat="48.63691" lon="6.37859">
        <ele>215</ele>
        <time>2020-08-16T12:13:59Z</time>
      </trkpt>
      <trkpt lat="48.63694" lon="6.37869">
        <ele>214</ele>
        <time>2020-08-16T12:14:01Z</time>
      </trkpt>
      <trkpt lat="48.63697" lon="6.37879">
        <ele>214</ele>
        <time>2020-08-16T12:14:03Z</time>
      </trkpt>
      <trkpt lat="48.63699" lon="6.37889">
        <ele>214</ele>
        <time>2020-08-16T12:14:05Z</time>
      </trkpt>
      <trkpt lat="48.63702" lon="6.379">
        <ele>214</ele>
        <time>2020-08-16T12:14:07Z</time>
      </trkpt>
      <trkpt lat="48.63705" lon="6.37909">
        <ele>214</ele>
        <time>2020-08-16T12:14:09Z</time>
      </trkpt>
      <trkpt lat="48.63704" lon="6.37919">
        <ele>215</ele>
        <time>2020-08-16T12:14:11Z</time>
      </trkpt>
      <trkpt lat="48.63707" lon="6.37929">
        <ele>215</ele>
        <time>2020-08-16T12:14:13Z</time>
      </trkpt>
      <trkpt lat="48.6371" lon="6.37937">
        <ele>214</ele>
        <time>2020-08-16T12:14:15Z</time>
      </trkpt>
      <trkpt lat="48.63713" lon="6.37948">
        <ele>214</ele>
        <time>2020-08-16T12:14:17Z</time>
      </trkpt>
      <trkpt lat="48.63716" lon="6.37958">
        <ele>214</ele>
        <time>2020-08-16T12:14:19Z</time>
      </trkpt>
      <trkpt lat="48.63719" lon="6.37968">
        <ele>214</ele>
        <time>2020-08-16T12:14:21Z</time>
      </trkpt>
      <trkpt lat="48.63723" lon="6.37977">
        <ele>214</ele>
        <time>2020-08-16T12:14:23Z</time>
      </trkpt>
      <trkpt lat="48.63725" lon="6.37988">
        <ele>214</ele>
        <time>2020-08-16T12:14:25Z</time>
      </trkpt>
      <trkpt lat="48.63727" lon="6.37997">
        <ele>214</ele>
        <time>2020-08-16T12:14:27Z</time>
      </trkpt>
      <trkpt lat="48.6373" lon="6.38009">
        <ele>214</ele>
        <time>2020-08-16T12:14:29Z</time>
      </trkpt>
      <trkpt lat="48.63731" lon="6.38016">
        <ele>214</ele>
        <time>2020-08-16T12:14:30Z</time>
      </trkpt>
      <trkpt lat="48.63734" lon="6.38026">
        <ele>214</ele>
        <time>2020-08-16T12:14:32Z</time>
      </trkpt>
      <trkpt lat="48.63736" lon="6.38036">
        <ele>214</ele>
        <time>2020-08-16T12:14:34Z</time>
      </trkpt>
      <trkpt lat="48.63739" lon="6.38048">
        <ele>215</ele>
        <time>2020-08-16T12:14:36Z</time>
      </trkpt>
      <trkpt lat="48.63741" lon="6.38059">
        <ele>214</ele>
        <time>2020-08-16T12:14:38Z</time>
      </trkpt>
      <trkpt lat="48.63744" lon="6.38072">
        <ele>214</ele>
        <time>2020-08-16T12:14:40Z</time>
      </trkpt>
      <trkpt lat="48.63747" lon="6.38084">
        <ele>214</ele>
        <time>2020-08-16T12:14:42Z</time>
      </trkpt>
      <trkpt lat="48.63751" lon="6.38097">
        <ele>214</ele>
        <time>2020-08-16T12:14:44Z</time>
      </trkpt>
      <trkpt lat="48.63753" lon="6.38107">
        <ele>214</ele>
        <time>2020-08-16T12:14:46Z</time>
      </trkpt>
      <trkpt lat="48.63753" lon="6.38118">
        <ele>214</ele>
        <time>2020-08-16T12:14:48Z</time>
      </trkpt>
      <trkpt lat="48.63756" lon="6.38132">
        <ele>214</ele>
        <time>2020-08-16T12:14:50Z</time>
      </trkpt>
      <trkpt lat="48.63757" lon="6.38139">
        <ele>214</ele>
        <time>2020-08-16T12:14:51Z</time>
      </trkpt>
      <trkpt lat="48.63759" lon="6.38151">
        <ele>214</ele>
        <time>2020-08-16T12:14:53Z</time>
      </trkpt>
      <trkpt lat="48.6376" lon="6.38161">
        <ele>214</ele>
        <time>2020-08-16T12:14:55Z</time>
      </trkpt>
      <trkpt lat="48.63761" lon="6.38173">
        <ele>214</ele>
        <time>2020-08-16T12:14:57Z</time>
      </trkpt>
      <trkpt lat="48.63762" lon="6.38184">
        <ele>214</ele>
        <time>2020-08-16T12:14:59Z</time>
      </trkpt>
      <trkpt lat="48.63765" lon="6.38191">
        <ele>214</ele>
        <time>2020-08-16T12:15:00Z</time>
      </trkpt>
      <trkpt lat="48.63765" lon="6.38201">
        <ele>214</ele>
        <time>2020-08-16T12:15:02Z</time>
      </trkpt>
      <trkpt lat="48.63769" lon="6.38214">
        <ele>214</ele>
        <time>2020-08-16T12:15:04Z</time>
      </trkpt>
      <trkpt lat="48.63771" lon="6.38227">
        <ele>214</ele>
        <time>2020-08-16T12:15:06Z</time>
      </trkpt>
      <trkpt lat="48.63773" lon="6.38239">
        <ele>214</ele>
        <time>2020-08-16T12:15:08Z</time>
      </trkpt>
      <trkpt lat="48.63774" lon="6.3825">
        <ele>214</ele>
        <time>2020-08-16T12:15:10Z</time>
      </trkpt>
      <trkpt lat="48.63776" lon="6.38261">
        <ele>214</ele>
        <time>2020-08-16T12:15:12Z</time>
      </trkpt>
      <trkpt lat="48.63778" lon="6.38273">
        <ele>214</ele>
        <time>2020-08-16T12:15:14Z</time>
      </trkpt>
      <trkpt lat="48.63779" lon="6.3828">
        <ele>214</ele>
        <time>2020-08-16T12:15:15Z</time>
      </trkpt>
      <trkpt lat="48.63782" lon="6.38293">
        <ele>214</ele>
        <time>2020-08-16T12:15:17Z</time>
      </trkpt>
      <trkpt lat="48.63784" lon="6.383">
        <ele>214</ele>
        <time>2020-08-16T12:15:18Z</time>
      </trkpt>
      <trkpt lat="48.63786" lon="6.3831">
        <ele>214</ele>
        <time>2020-08-16T12:15:20Z</time>
      </trkpt>
      <trkpt lat="48.63787" lon="6.38321">
        <ele>214</ele>
        <time>2020-08-16T12:15:22Z</time>
      </trkpt>
      <trkpt lat="48.63789" lon="6.38331">
        <ele>214</ele>
        <time>2020-08-16T12:15:24Z</time>
      </trkpt>
      <trkpt lat="48.6379" lon="6.3834">
        <ele>215</ele>
        <time>2020-08-16T12:15:26Z</time>
      </trkpt>
      <trkpt lat="48.63795" lon="6.38347">
        <ele>214</ele>
        <time>2020-08-16T12:15:28Z</time>
      </trkpt>
      <trkpt lat="48.63796" lon="6.38354">
        <ele>214</ele>
        <time>2020-08-16T12:15:31Z</time>
      </trkpt>
      <trkpt lat="48.63797" lon="6.38363">
        <ele>215</ele>
        <time>2020-08-16T12:15:33Z</time>
      </trkpt>
      <trkpt lat="48.638" lon="6.38371">
        <ele>214</ele>
        <time>2020-08-16T12:15:35Z</time>
      </trkpt>
      <trkpt lat="48.63801" lon="6.3838">
        <ele>215</ele>
        <time>2020-08-16T12:15:37Z</time>
      </trkpt>
      <trkpt lat="48.63803" lon="6.38389">
        <ele>215</ele>
        <time>2020-08-16T12:15:39Z</time>
      </trkpt>
      <trkpt lat="48.63803" lon="6.38397">
        <ele>215</ele>
        <time>2020-08-16T12:15:41Z</time>
      </trkpt>
      <trkpt lat="48.63804" lon="6.38407">
        <ele>215</ele>
        <time>2020-08-16T12:15:43Z</time>
      </trkpt>
      <trkpt lat="48.63806" lon="6.38418">
        <ele>215</ele>
        <time>2020-08-16T12:15:45Z</time>
      </trkpt>
      <trkpt lat="48.63808" lon="6.38428">
        <ele>214</ele>
        <time>2020-08-16T12:15:47Z</time>
      </trkpt>
      <trkpt lat="48.6381" lon="6.38439">
        <ele>214</ele>
        <time>2020-08-16T12:15:49Z</time>
      </trkpt>
      <trkpt lat="48.63813" lon="6.38449">
        <ele>214</ele>
        <time>2020-08-16T12:15:51Z</time>
      </trkpt>
      <trkpt lat="48.63813" lon="6.38458">
        <ele>214</ele>
        <time>2020-08-16T12:15:53Z</time>
      </trkpt>
      <trkpt lat="48.63815" lon="6.3847">
        <ele>214</ele>
        <time>2020-08-16T12:15:55Z</time>
      </trkpt>
      <trkpt lat="48.63816" lon="6.38481">
        <ele>214</ele>
        <time>2020-08-16T12:15:57Z</time>
      </trkpt>
      <trkpt lat="48.63818" lon="6.38491">
        <ele>214</ele>
        <time>2020-08-16T12:15:59Z</time>
      </trkpt>
      <trkpt lat="48.63819" lon="6.385">
        <ele>214</ele>
        <time>2020-08-16T12:16:01Z</time>
      </trkpt>
      <trkpt lat="48.63821" lon="6.3851">
        <ele>214</ele>
        <time>2020-08-16T12:16:03Z</time>
      </trkpt>
      <trkpt lat="48.63823" lon="6.3852">
        <ele>214</ele>
        <time>2020-08-16T12:16:05Z</time>
      </trkpt>
      <trkpt lat="48.63825" lon="6.3853">
        <ele>214</ele>
        <time>2020-08-16T12:16:07Z</time>
      </trkpt>
      <trkpt lat="48.63825" lon="6.3854">
        <ele>214</ele>
        <time>2020-08-16T12:16:09Z</time>
      </trkpt>
      <trkpt lat="48.63826" lon="6.38551">
        <ele>214</ele>
        <time>2020-08-16T12:16:11Z</time>
      </trkpt>
      <trkpt lat="48.63828" lon="6.38562">
        <ele>214</ele>
        <time>2020-08-16T12:16:13Z</time>
      </trkpt>
      <trkpt lat="48.63827" lon="6.38573">
        <ele>214</ele>
        <time>2020-08-16T12:16:15Z</time>
      </trkpt>
      <trkpt lat="48.63828" lon="6.38584">
        <ele>215</ele>
        <time>2020-08-16T12:16:17Z</time>
      </trkpt>
      <trkpt lat="48.63828" lon="6.38595">
        <ele>215</ele>
        <time>2020-08-16T12:16:19Z</time>
      </trkpt>
      <trkpt lat="48.63828" lon="6.38606">
        <ele>215</ele>
        <time>2020-08-16T12:16:21Z</time>
      </trkpt>
      <trkpt lat="48.63828" lon="6.38615">
        <ele>215</ele>
        <time>2020-08-16T12:16:23Z</time>
      </trkpt>
      <trkpt lat="48.63829" lon="6.38624">
        <ele>215</ele>
        <time>2020-08-16T12:16:25Z</time>
      </trkpt>
      <trkpt lat="48.63828" lon="6.38635">
        <ele>215</ele>
        <time>2020-08-16T12:16:27Z</time>
      </trkpt>
      <trkpt lat="48.63828" lon="6.38647">
        <ele>215</ele>
        <time>2020-08-16T12:16:29Z</time>
      </trkpt>
      <trkpt lat="48.6383" lon="6.38657">
        <ele>214</ele>
        <time>2020-08-16T12:16:31Z</time>
      </trkpt>
      <trkpt lat="48.63829" lon="6.38666">
        <ele>214</ele>
        <time>2020-08-16T12:16:33Z</time>
      </trkpt>
      <trkpt lat="48.63828" lon="6.38675">
        <ele>215</ele>
        <time>2020-08-16T12:16:35Z</time>
      </trkpt>
      <trkpt lat="48.63826" lon="6.38687">
        <ele>215</ele>
        <time>2020-08-16T12:16:37Z</time>
      </trkpt>
      <trkpt lat="48.63826" lon="6.38699">
        <ele>214</ele>
        <time>2020-08-16T12:16:39Z</time>
      </trkpt>
      <trkpt lat="48.63826" lon="6.38709">
        <ele>214</ele>
        <time>2020-08-16T12:16:41Z</time>
      </trkpt>
      <trkpt lat="48.63826" lon="6.38721">
        <ele>214</ele>
        <time>2020-08-16T12:16:43Z</time>
      </trkpt>
      <trkpt lat="48.63824" lon="6.38733">
        <ele>214</ele>
        <time>2020-08-16T12:16:45Z</time>
      </trkpt>
      <trkpt lat="48.63824" lon="6.38744">
        <ele>214</ele>
        <time>2020-08-16T12:16:47Z</time>
      </trkpt>
      <trkpt lat="48.63823" lon="6.38755">
        <ele>214</ele>
        <time>2020-08-16T12:16:49Z</time>
      </trkpt>
      <trkpt lat="48.63823" lon="6.38766">
        <ele>214</ele>
        <time>2020-08-16T12:16:51Z</time>
      </trkpt>
      <trkpt lat="48.63822" lon="6.38777">
        <ele>214</ele>
        <time>2020-08-16T12:16:53Z</time>
      </trkpt>
      <trkpt lat="48.63821" lon="6.38788">
        <ele>214</ele>
        <time>2020-08-16T12:16:55Z</time>
      </trkpt>
      <trkpt lat="48.6382" lon="6.38799">
        <ele>215</ele>
        <time>2020-08-16T12:16:57Z</time>
      </trkpt>
      <trkpt lat="48.6382" lon="6.3881">
        <ele>214</ele>
        <time>2020-08-16T12:16:59Z</time>
      </trkpt>
      <trkpt lat="48.6382" lon="6.38821">
        <ele>214</ele>
        <time>2020-08-16T12:17:01Z</time>
      </trkpt>
      <trkpt lat="48.6382" lon="6.38832">
        <ele>214</ele>
        <time>2020-08-16T12:17:03Z</time>
      </trkpt>
      <trkpt lat="48.6382" lon="6.38843">
        <ele>214</ele>
        <time>2020-08-16T12:17:05Z</time>
      </trkpt>
      <trkpt lat="48.6382" lon="6.38855">
        <ele>214</ele>
        <time>2020-08-16T12:17:07Z</time>
      </trkpt>
      <trkpt lat="48.6382" lon="6.38866">
        <ele>214</ele>
        <time>2020-08-16T12:17:09Z</time>
      </trkpt>
      <trkpt lat="48.6382" lon="6.38877">
        <ele>214</ele>
        <time>2020-08-16T12:17:11Z</time>
      </trkpt>
      <trkpt lat="48.6382" lon="6.38888">
        <ele>214</ele>
        <time>2020-08-16T12:17:13Z</time>
      </trkpt>
      <trkpt lat="48.63821" lon="6.38899">
        <ele>214</ele>
        <time>2020-08-16T12:17:15Z</time>
      </trkpt>
      <trkpt lat="48.63821" lon="6.3891">
        <ele>214</ele>
        <time>2020-08-16T12:17:17Z</time>
      </trkpt>
      <trkpt lat="48.63821" lon="6.38921">
        <ele>214</ele>
        <time>2020-08-16T12:17:19Z</time>
      </trkpt>
      <trkpt lat="48.63821" lon="6.38932">
        <ele>214</ele>
        <time>2020-08-16T12:17:21Z</time>
      </trkpt>
      <trkpt lat="48.63822" lon="6.38943">
        <ele>214</ele>
        <time>2020-08-16T12:17:23Z</time>
      </trkpt>
      <trkpt lat="48.63822" lon="6.38954">
        <ele>214</ele>
        <time>2020-08-16T12:17:25Z</time>
      </trkpt>
      <trkpt lat="48.63823" lon="6.38964">
        <ele>214</ele>
        <time>2020-08-16T12:17:27Z</time>
      </trkpt>
      <trkpt lat="48.63825" lon="6.38975">
        <ele>214</ele>
        <time>2020-08-16T12:17:29Z</time>
      </trkpt>
      <trkpt lat="48.63825" lon="6.38985">
        <ele>214</ele>
        <time>2020-08-16T12:17:31Z</time>
      </trkpt>
      <trkpt lat="48.63825" lon="6.38996">
        <ele>214</ele>
        <time>2020-08-16T12:17:33Z</time>
      </trkpt>
      <trkpt lat="48.63826" lon="6.39005">
        <ele>214</ele>
        <time>2020-08-16T12:17:35Z</time>
      </trkpt>
      <trkpt lat="48.63826" lon="6.39015">
        <ele>214</ele>
        <time>2020-08-16T12:17:37Z</time>
      </trkpt>
      <trkpt lat="48.63828" lon="6.39026">
        <ele>214</ele>
        <time>2020-08-16T12:17:39Z</time>
      </trkpt>
      <trkpt lat="48.63828" lon="6.39037">
        <ele>214</ele>
        <time>2020-08-16T12:17:41Z</time>
      </trkpt>
      <trkpt lat="48.63828" lon="6.39048">
        <ele>214</ele>
        <time>2020-08-16T12:17:43Z</time>
      </trkpt>
      <trkpt lat="48.63829" lon="6.39058">
        <ele>214</ele>
        <time>2020-08-16T12:17:45Z</time>
      </trkpt>
      <trkpt lat="48.63831" lon="6.39069">
        <ele>214</ele>
        <time>2020-08-16T12:17:47Z</time>
      </trkpt>
      <trkpt lat="48.63833" lon="6.39079">
        <ele>214</ele>
        <time>2020-08-16T12:17:49Z</time>
      </trkpt>
      <trkpt lat="48.63835" lon="6.39092">
        <ele>214</ele>
        <time>2020-08-16T12:17:51Z</time>
      </trkpt>
      <trkpt lat="48.63837" lon="6.39098">
        <ele>214</ele>
        <time>2020-08-16T12:17:52Z</time>
      </trkpt>
      <trkpt lat="48.63839" lon="6.39109">
        <ele>214</ele>
        <time>2020-08-16T12:17:54Z</time>
      </trkpt>
      <trkpt lat="48.63841" lon="6.39119">
        <ele>214</ele>
        <time>2020-08-16T12:17:56Z</time>
      </trkpt>
      <trkpt lat="48.63841" lon="6.39131">
        <ele>214</ele>
        <time>2020-08-16T12:17:58Z</time>
      </trkpt>
      <trkpt lat="48.63844" lon="6.39141">
        <ele>214</ele>
        <time>2020-08-16T12:18:00Z</time>
      </trkpt>
      <trkpt lat="48.63846" lon="6.3915">
        <ele>214</ele>
        <time>2020-08-16T12:18:02Z</time>
      </trkpt>
      <trkpt lat="48.63849" lon="6.39161">
        <ele>214</ele>
        <time>2020-08-16T12:18:04Z</time>
      </trkpt>
      <trkpt lat="48.63852" lon="6.39171">
        <ele>214</ele>
        <time>2020-08-16T12:18:06Z</time>
      </trkpt>
      <trkpt lat="48.63856" lon="6.39181">
        <ele>214</ele>
        <time>2020-08-16T12:18:08Z</time>
      </trkpt>
      <trkpt lat="48.63859" lon="6.39191">
        <ele>214</ele>
        <time>2020-08-16T12:18:10Z</time>
      </trkpt>
      <trkpt lat="48.6386" lon="6.39201">
        <ele>214</ele>
        <time>2020-08-16T12:18:12Z</time>
      </trkpt>
      <trkpt lat="48.63865" lon="6.39211">
        <ele>214</ele>
        <time>2020-08-16T12:18:14Z</time>
      </trkpt>
      <trkpt lat="48.63869" lon="6.39221">
        <ele>214</ele>
        <time>2020-08-16T12:18:16Z</time>
      </trkpt>
      <trkpt lat="48.63873" lon="6.3923">
        <ele>214</ele>
        <time>2020-08-16T12:18:18Z</time>
      </trkpt>
      <trkpt lat="48.63877" lon="6.3924">
        <ele>214</ele>
        <time>2020-08-16T12:18:20Z</time>
      </trkpt>
      <trkpt lat="48.63881" lon="6.39249">
        <ele>215</ele>
        <time>2020-08-16T12:18:22Z</time>
      </trkpt>
      <trkpt lat="48.63886" lon="6.39258">
        <ele>214</ele>
        <time>2020-08-16T12:18:24Z</time>
      </trkpt>
      <trkpt lat="48.63891" lon="6.39267">
        <ele>215</ele>
        <time>2020-08-16T12:18:26Z</time>
      </trkpt>
      <trkpt lat="48.63896" lon="6.39276">
        <ele>214</ele>
        <time>2020-08-16T12:18:28Z</time>
      </trkpt>
      <trkpt lat="48.639" lon="6.39284">
        <ele>215</ele>
        <time>2020-08-16T12:18:30Z</time>
      </trkpt>
      <trkpt lat="48.63905" lon="6.39293">
        <ele>214</ele>
        <time>2020-08-16T12:18:32Z</time>
      </trkpt>
      <trkpt lat="48.6391" lon="6.39302">
        <ele>214</ele>
        <time>2020-08-16T12:18:34Z</time>
      </trkpt>
      <trkpt lat="48.63915" lon="6.39312">
        <ele>215</ele>
        <time>2020-08-16T12:18:36Z</time>
      </trkpt>
      <trkpt lat="48.63921" lon="6.39321">
        <ele>214</ele>
        <time>2020-08-16T12:18:38Z</time>
      </trkpt>
      <trkpt lat="48.63926" lon="6.39329">
        <ele>214</ele>
        <time>2020-08-16T12:18:40Z</time>
      </trkpt>
      <trkpt lat="48.63931" lon="6.39337">
        <ele>214</ele>
        <time>2020-08-16T12:18:42Z</time>
      </trkpt>
      <trkpt lat="48.63936" lon="6.39344">
        <ele>214</ele>
        <time>2020-08-16T12:18:44Z</time>
      </trkpt>
      <trkpt lat="48.63941" lon="6.39352">
        <ele>214</ele>
        <time>2020-08-16T12:18:46Z</time>
      </trkpt>
      <trkpt lat="48.63946" lon="6.39362">
        <ele>215</ele>
        <time>2020-08-16T12:18:48Z</time>
      </trkpt>
      <trkpt lat="48.63952" lon="6.3937">
        <ele>215</ele>
        <time>2020-08-16T12:18:50Z</time>
      </trkpt>
      <trkpt lat="48.63956" lon="6.39374">
        <ele>215</ele>
        <time>2020-08-16T12:18:51Z</time>
      </trkpt>
      <trkpt lat="48.63963" lon="6.39382">
        <ele>215</ele>
        <time>2020-08-16T12:18:53Z</time>
      </trkpt>
      <trkpt lat="48.63969" lon="6.39389">
        <ele>215</ele>
        <time>2020-08-16T12:18:55Z</time>
      </trkpt>
      <trkpt lat="48.63975" lon="6.39395">
        <ele>215</ele>
        <time>2020-08-16T12:18:57Z</time>
      </trkpt>
      <trkpt lat="48.63982" lon="6.39403">
        <ele>215</ele>
        <time>2020-08-16T12:18:59Z</time>
      </trkpt>
      <trkpt lat="48.63989" lon="6.39409">
        <ele>215</ele>
        <time>2020-08-16T12:19:01Z</time>
      </trkpt>
      <trkpt lat="48.63995" lon="6.39414">
        <ele>214</ele>
        <time>2020-08-16T12:19:03Z</time>
      </trkpt>
      <trkpt lat="48.64001" lon="6.3942">
        <ele>214</ele>
        <time>2020-08-16T12:19:05Z</time>
      </trkpt>
      <trkpt lat="48.64011" lon="6.39431">
        <ele>214</ele>
        <time>2020-08-16T12:19:08Z</time>
      </trkpt>
      <trkpt lat="48.64018" lon="6.39435">
        <ele>214</ele>
        <time>2020-08-16T12:19:10Z</time>
      </trkpt>
      <trkpt lat="48.64023" lon="6.3944">
        <ele>214</ele>
        <time>2020-08-16T12:19:12Z</time>
      </trkpt>
      <trkpt lat="48.64028" lon="6.39444">
        <ele>214</ele>
        <time>2020-08-16T12:19:14Z</time>
      </trkpt>
      <trkpt lat="48.64034" lon="6.39447">
        <ele>214</ele>
        <time>2020-08-16T12:19:16Z</time>
      </trkpt>
      <trkpt lat="48.64039" lon="6.3945">
        <ele>214</ele>
        <time>2020-08-16T12:19:18Z</time>
      </trkpt>
      <trkpt lat="48.64044" lon="6.39456">
        <ele>215</ele>
        <time>2020-08-16T12:19:20Z</time>
      </trkpt>
      <trkpt lat="48.64049" lon="6.3946">
        <ele>215</ele>
        <time>2020-08-16T12:19:22Z</time>
      </trkpt>
      <trkpt lat="48.64055" lon="6.39464">
        <ele>215</ele>
        <time>2020-08-16T12:19:25Z</time>
      </trkpt>
      <trkpt lat="48.6406" lon="6.39466">
        <ele>216</ele>
        <time>2020-08-16T12:19:28Z</time>
      </trkpt>
      <trkpt lat="48.64066" lon="6.39464">
        <ele>216</ele>
        <time>2020-08-16T12:19:32Z</time>
      </trkpt>
      <trkpt lat="48.64071" lon="6.39466">
        <ele>216</ele>
        <time>2020-08-16T12:19:36Z</time>
      </trkpt>
      <trkpt lat="48.64076" lon="6.39467">
        <ele>216</ele>
        <time>2020-08-16T12:19:40Z</time>
      </trkpt>
      <trkpt lat="48.64081" lon="6.39467">
        <ele>215</ele>
        <time>2020-08-16T12:19:43Z</time>
      </trkpt>
      <trkpt lat="48.64086" lon="6.3947">
        <ele>215</ele>
        <time>2020-08-16T12:19:46Z</time>
      </trkpt>
      <trkpt lat="48.64092" lon="6.39474">
        <ele>216</ele>
        <time>2020-08-16T12:19:49Z</time>
      </trkpt>
      <trkpt lat="48.64097" lon="6.39478">
        <ele>215</ele>
        <time>2020-08-16T12:19:51Z</time>
      </trkpt>
      <trkpt lat="48.64101" lon="6.39483">
        <ele>215</ele>
        <time>2020-08-16T12:19:53Z</time>
      </trkpt>
      <trkpt lat="48.64107" lon="6.39486">
        <ele>215</ele>
        <time>2020-08-16T12:19:56Z</time>
      </trkpt>
      <trkpt lat="48.64113" lon="6.3949">
        <ele>215</ele>
        <time>2020-08-16T12:19:59Z</time>
      </trkpt>
      <trkpt lat="48.64119" lon="6.39494">
        <ele>215</ele>
        <time>2020-08-16T12:20:01Z</time>
      </trkpt>
      <trkpt lat="48.64124" lon="6.39498">
        <ele>215</ele>
        <time>2020-08-16T12:20:04Z</time>
      </trkpt>
      <trkpt lat="48.64129" lon="6.39501">
        <ele>215</ele>
        <time>2020-08-16T12:20:06Z</time>
      </trkpt>
      <trkpt lat="48.64134" lon="6.39506">
        <ele>216</ele>
        <time>2020-08-16T12:20:08Z</time>
      </trkpt>
      <trkpt lat="48.64139" lon="6.39509">
        <ele>216</ele>
        <time>2020-08-16T12:20:10Z</time>
      </trkpt>
      <trkpt lat="48.64145" lon="6.39513">
        <ele>217</ele>
        <time>2020-08-16T12:20:12Z</time>
      </trkpt>
      <trkpt lat="48.64152" lon="6.39515">
        <ele>216</ele>
        <time>2020-08-16T12:20:14Z</time>
      </trkpt>
      <trkpt lat="48.64159" lon="6.39518">
        <ele>216</ele>
        <time>2020-08-16T12:20:16Z</time>
      </trkpt>
      <trkpt lat="48.64164" lon="6.3952">
        <ele>215</ele>
        <time>2020-08-16T12:20:18Z</time>
      </trkpt>
      <trkpt lat="48.64171" lon="6.39525">
        <ele>216</ele>
        <time>2020-08-16T12:20:20Z</time>
      </trkpt>
      <trkpt lat="48.64177" lon="6.39528">
        <ele>216</ele>
        <time>2020-08-16T12:20:22Z</time>
      </trkpt>
      <trkpt lat="48.64182" lon="6.39531">
        <ele>216</ele>
        <time>2020-08-16T12:20:24Z</time>
      </trkpt>
      <trkpt lat="48.64188" lon="6.39534">
        <ele>216</ele>
        <time>2020-08-16T12:20:26Z</time>
      </trkpt>
      <trkpt lat="48.64194" lon="6.39536">
        <ele>215</ele>
        <time>2020-08-16T12:20:28Z</time>
      </trkpt>
      <trkpt lat="48.64198" lon="6.3954">
        <ele>215</ele>
        <time>2020-08-16T12:20:29Z</time>
      </trkpt>
      <trkpt lat="48.64202" lon="6.39544">
        <ele>215</ele>
        <time>2020-08-16T12:20:31Z</time>
      </trkpt>
      <trkpt lat="48.64208" lon="6.39548">
        <ele>215</ele>
        <time>2020-08-16T12:20:33Z</time>
      </trkpt>
      <trkpt lat="48.64214" lon="6.39554">
        <ele>215</ele>
        <time>2020-08-16T12:20:35Z</time>
      </trkpt>
      <trkpt lat="48.64219" lon="6.39559">
        <ele>215</ele>
        <time>2020-08-16T12:20:37Z</time>
      </trkpt>
      <trkpt lat="48.64223" lon="6.39564">
        <ele>215</ele>
        <time>2020-08-16T12:20:39Z</time>
      </trkpt>
      <trkpt lat="48.64228" lon="6.39571">
        <ele>215</ele>
        <time>2020-08-16T12:20:41Z</time>
      </trkpt>
      <trkpt lat="48.64232" lon="6.39576">
        <ele>215</ele>
        <time>2020-08-16T12:20:43Z</time>
      </trkpt>
      <trkpt lat="48.64237" lon="6.39583">
        <ele>215</ele>
        <time>2020-08-16T12:20:45Z</time>
      </trkpt>
      <trkpt lat="48.64242" lon="6.39588">
        <ele>215</ele>
        <time>2020-08-16T12:20:47Z</time>
      </trkpt>
      <trkpt lat="48.64246" lon="6.39595">
        <ele>215</ele>
        <time>2020-08-16T12:20:49Z</time>
      </trkpt>
      <trkpt lat="48.64251" lon="6.39604">
        <ele>215</ele>
        <time>2020-08-16T12:20:51Z</time>
      </trkpt>
      <trkpt lat="48.64255" lon="6.39612">
        <ele>214</ele>
        <time>2020-08-16T12:20:53Z</time>
      </trkpt>
      <trkpt lat="48.64259" lon="6.39622">
        <ele>215</ele>
        <time>2020-08-16T12:20:55Z</time>
      </trkpt>
      <trkpt lat="48.64263" lon="6.3963">
        <ele>215</ele>
        <time>2020-08-16T12:20:57Z</time>
      </trkpt>
      <trkpt lat="48.64267" lon="6.3964">
        <ele>215</ele>
        <time>2020-08-16T12:20:59Z</time>
      </trkpt>
      <trkpt lat="48.64271" lon="6.39649">
        <ele>215</ele>
        <time>2020-08-16T12:21:01Z</time>
      </trkpt>
      <trkpt lat="48.64274" lon="6.39657">
        <ele>215</ele>
        <time>2020-08-16T12:21:03Z</time>
      </trkpt>
      <trkpt lat="48.64276" lon="6.39666">
        <ele>215</ele>
        <time>2020-08-16T12:21:05Z</time>
      </trkpt>
      <trkpt lat="48.6428" lon="6.39675">
        <ele>215</ele>
        <time>2020-08-16T12:21:07Z</time>
      </trkpt>
      <trkpt lat="48.64284" lon="6.39684">
        <ele>214</ele>
        <time>2020-08-16T12:21:09Z</time>
      </trkpt>
      <trkpt lat="48.64287" lon="6.39694">
        <ele>214</ele>
        <time>2020-08-16T12:21:11Z</time>
      </trkpt>
      <trkpt lat="48.64289" lon="6.39703">
        <ele>214</ele>
        <time>2020-08-16T12:21:13Z</time>
      </trkpt>
      <trkpt lat="48.64289" lon="6.39713">
        <ele>215</ele>
        <time>2020-08-16T12:21:15Z</time>
      </trkpt>
      <trkpt lat="48.64285" lon="6.39718">
        <ele>216</ele>
        <time>2020-08-16T12:21:16Z</time>
      </trkpt>
      <trkpt lat="48.64286" lon="6.39726">
        <ele>216</ele>
        <time>2020-08-16T12:21:18Z</time>
      </trkpt>
      <trkpt lat="48.64289" lon="6.39732">
        <ele>215</ele>
        <time>2020-08-16T12:21:19Z</time>
      </trkpt>
      <trkpt lat="48.6429" lon="6.3974">
        <ele>215</ele>
        <time>2020-08-16T12:21:21Z</time>
      </trkpt>
      <trkpt lat="48.64291" lon="6.3975">
        <ele>216</ele>
        <time>2020-08-16T12:21:23Z</time>
      </trkpt>
      <trkpt lat="48.64293" lon="6.3976">
        <ele>215</ele>
        <time>2020-08-16T12:21:25Z</time>
      </trkpt>
      <trkpt lat="48.64296" lon="6.3977">
        <ele>215</ele>
        <time>2020-08-16T12:21:27Z</time>
      </trkpt>
      <trkpt lat="48.64298" lon="6.3978">
        <ele>214</ele>
        <time>2020-08-16T12:21:29Z</time>
      </trkpt>
      <trkpt lat="48.64295" lon="6.39789">
        <ele>215</ele>
        <time>2020-08-16T12:21:31Z</time>
      </trkpt>
      <trkpt lat="48.64294" lon="6.39799">
        <ele>215</ele>
        <time>2020-08-16T12:21:33Z</time>
      </trkpt>
      <trkpt lat="48.64293" lon="6.39808">
        <ele>215</ele>
        <time>2020-08-16T12:21:35Z</time>
      </trkpt>
      <trkpt lat="48.64292" lon="6.39818">
        <ele>215</ele>
        <time>2020-08-16T12:21:37Z</time>
      </trkpt>
      <trkpt lat="48.6429" lon="6.39827">
        <ele>215</ele>
        <time>2020-08-16T12:21:39Z</time>
      </trkpt>
      <trkpt lat="48.64288" lon="6.39837">
        <ele>215</ele>
        <time>2020-08-16T12:21:41Z</time>
      </trkpt>
      <trkpt lat="48.64287" lon="6.39847">
        <ele>215</ele>
        <time>2020-08-16T12:21:43Z</time>
      </trkpt>
      <trkpt lat="48.64284" lon="6.39855">
        <ele>215</ele>
        <time>2020-08-16T12:21:45Z</time>
      </trkpt>
      <trkpt lat="48.64283" lon="6.39866">
        <ele>215</ele>
        <time>2020-08-16T12:21:47Z</time>
      </trkpt>
      <trkpt lat="48.64282" lon="6.39877">
        <ele>214</ele>
        <time>2020-08-16T12:21:49Z</time>
      </trkpt>
      <trkpt lat="48.64279" lon="6.39886">
        <ele>215</ele>
        <time>2020-08-16T12:21:51Z</time>
      </trkpt>
      <trkpt lat="48.64277" lon="6.39894">
        <ele>215</ele>
        <time>2020-08-16T12:21:53Z</time>
      </trkpt>
      <trkpt lat="48.64276" lon="6.39903">
        <ele>214</ele>
        <time>2020-08-16T12:21:55Z</time>
      </trkpt>
      <trkpt lat="48.64274" lon="6.39912">
        <ele>214</ele>
        <time>2020-08-16T12:21:57Z</time>
      </trkpt>
      <trkpt lat="48.6427" lon="6.39922">
        <ele>215</ele>
        <time>2020-08-16T12:21:59Z</time>
      </trkpt>
      <trkpt lat="48.64269" lon="6.39932">
        <ele>214</ele>
        <time>2020-08-16T12:22:01Z</time>
      </trkpt>
      <trkpt lat="48.64267" lon="6.3994">
        <ele>214</ele>
        <time>2020-08-16T12:22:03Z</time>
      </trkpt>
      <trkpt lat="48.64263" lon="6.39951">
        <ele>214</ele>
        <time>2020-08-16T12:22:06Z</time>
      </trkpt>
      <trkpt lat="48.6426" lon="6.39959">
        <ele>214</ele>
        <time>2020-08-16T12:22:08Z</time>
      </trkpt>
      <trkpt lat="48.64257" lon="6.39968">
        <ele>214</ele>
        <time>2020-08-16T12:22:10Z</time>
      </trkpt>
      <trkpt lat="48.64256" lon="6.39977">
        <ele>214</ele>
        <time>2020-08-16T12:22:12Z</time>
      </trkpt>
      <trkpt lat="48.64254" lon="6.39985">
        <ele>214</ele>
        <time>2020-08-16T12:22:14Z</time>
      </trkpt>
      <trkpt lat="48.6425" lon="6.39994">
        <ele>214</ele>
        <time>2020-08-16T12:22:16Z</time>
      </trkpt>
      <trkpt lat="48.64245" lon="6.40004">
        <ele>214</ele>
        <time>2020-08-16T12:22:18Z</time>
      </trkpt>
      <trkpt lat="48.64241" lon="6.40012">
        <ele>214</ele>
        <time>2020-08-16T12:22:20Z</time>
      </trkpt>
      <trkpt lat="48.64239" lon="6.40022">
        <ele>214</ele>
        <time>2020-08-16T12:22:22Z</time>
      </trkpt>
      <trkpt lat="48.64235" lon="6.40031">
        <ele>214</ele>
        <time>2020-08-16T12:22:24Z</time>
      </trkpt>
      <trkpt lat="48.64232" lon="6.40039">
        <ele>214</ele>
        <time>2020-08-16T12:22:26Z</time>
      </trkpt>
      <trkpt lat="48.64226" lon="6.40047">
        <ele>214</ele>
        <time>2020-08-16T12:22:28Z</time>
      </trkpt>
      <trkpt lat="48.64221" lon="6.40054">
        <ele>215</ele>
        <time>2020-08-16T12:22:30Z</time>
      </trkpt>
      <trkpt lat="48.64216" lon="6.40062">
        <ele>215</ele>
        <time>2020-08-16T12:22:32Z</time>
      </trkpt>
      <trkpt lat="48.64212" lon="6.4007">
        <ele>215</ele>
        <time>2020-08-16T12:22:34Z</time>
      </trkpt>
      <trkpt lat="48.64209" lon="6.40078">
        <ele>215</ele>
        <time>2020-08-16T12:22:36Z</time>
      </trkpt>
      <trkpt lat="48.64205" lon="6.40086">
        <ele>215</ele>
        <time>2020-08-16T12:22:38Z</time>
      </trkpt>
      <trkpt lat="48.64202" lon="6.40095">
        <ele>215</ele>
        <time>2020-08-16T12:22:40Z</time>
      </trkpt>
      <trkpt lat="48.64199" lon="6.40102">
        <ele>215</ele>
        <time>2020-08-16T12:22:42Z</time>
      </trkpt>
      <trkpt lat="48.64195" lon="6.4011">
        <ele>214</ele>
        <time>2020-08-16T12:22:44Z</time>
      </trkpt>
      <trkpt lat="48.6419" lon="6.40117">
        <ele>215</ele>
        <time>2020-08-16T12:22:46Z</time>
      </trkpt>
      <trkpt lat="48.64186" lon="6.40123">
        <ele>214</ele>
        <time>2020-08-16T12:22:48Z</time>
      </trkpt>
      <trkpt lat="48.6418" lon="6.4013">
        <ele>215</ele>
        <time>2020-08-16T12:22:50Z</time>
      </trkpt>
      <trkpt lat="48.64176" lon="6.40137">
        <ele>215</ele>
        <time>2020-08-16T12:22:52Z</time>
      </trkpt>
      <trkpt lat="48.64171" lon="6.40143">
        <ele>215</ele>
        <time>2020-08-16T12:22:54Z</time>
      </trkpt>
      <trkpt lat="48.64167" lon="6.40152">
        <ele>214</ele>
        <time>2020-08-16T12:22:56Z</time>
      </trkpt>
      <trkpt lat="48.64162" lon="6.40158">
        <ele>214</ele>
        <time>2020-08-16T12:22:59Z</time>
      </trkpt>
      <trkpt lat="48.64157" lon="6.40164">
        <ele>215</ele>
        <time>2020-08-16T12:23:01Z</time>
      </trkpt>
      <trkpt lat="48.64153" lon="6.40172">
        <ele>214</ele>
        <time>2020-08-16T12:23:03Z</time>
      </trkpt>
      <trkpt lat="48.6415" lon="6.40179">
        <ele>214</ele>
        <time>2020-08-16T12:23:05Z</time>
      </trkpt>
      <trkpt lat="48.64146" lon="6.40186">
        <ele>214</ele>
        <time>2020-08-16T12:23:07Z</time>
      </trkpt>
      <trkpt lat="48.64142" lon="6.40194">
        <ele>214</ele>
        <time>2020-08-16T12:23:09Z</time>
      </trkpt>
      <trkpt lat="48.64137" lon="6.402">
        <ele>214</ele>
        <time>2020-08-16T12:23:11Z</time>
      </trkpt>
      <trkpt lat="48.64131" lon="6.40206">
        <ele>215</ele>
        <time>2020-08-16T12:23:13Z</time>
      </trkpt>
      <trkpt lat="48.64125" lon="6.40213">
        <ele>215</ele>
        <time>2020-08-16T12:23:15Z</time>
      </trkpt>
      <trkpt lat="48.64121" lon="6.40221">
        <ele>215</ele>
        <time>2020-08-16T12:23:17Z</time>
      </trkpt>
      <trkpt lat="48.64116" lon="6.40228">
        <ele>215</ele>
        <time>2020-08-16T12:23:19Z</time>
      </trkpt>
      <trkpt lat="48.64112" lon="6.40236">
        <ele>215</ele>
        <time>2020-08-16T12:23:21Z</time>
      </trkpt>
      <trkpt lat="48.64108" lon="6.40244">
        <ele>215</ele>
        <time>2020-08-16T12:23:23Z</time>
      </trkpt>
      <trkpt lat="48.64103" lon="6.40252">
        <ele>215</ele>
        <time>2020-08-16T12:23:25Z</time>
      </trkpt>
      <trkpt lat="48.641" lon="6.40259">
        <ele>215</ele>
        <time>2020-08-16T12:23:27Z</time>
      </trkpt>
      <trkpt lat="48.64098" lon="6.40267">
        <ele>215</ele>
        <time>2020-08-16T12:23:29Z</time>
      </trkpt>
      <trkpt lat="48.64095" lon="6.40276">
        <ele>214</ele>
        <time>2020-08-16T12:23:31Z</time>
      </trkpt>
      <trkpt lat="48.64092" lon="6.40284">
        <ele>214</ele>
        <time>2020-08-16T12:23:33Z</time>
      </trkpt>
      <trkpt lat="48.64088" lon="6.40293">
        <ele>215</ele>
        <time>2020-08-16T12:23:35Z</time>
      </trkpt>
      <trkpt lat="48.64084" lon="6.403">
        <ele>215</ele>
        <time>2020-08-16T12:23:37Z</time>
      </trkpt>
      <trkpt lat="48.64083" lon="6.40311">
        <ele>215</ele>
        <time>2020-08-16T12:23:40Z</time>
      </trkpt>
      <trkpt lat="48.64079" lon="6.40317">
        <ele>216</ele>
        <time>2020-08-16T12:23:42Z</time>
      </trkpt>
      <trkpt lat="48.64075" lon="6.40325">
        <ele>216</ele>
        <time>2020-08-16T12:23:44Z</time>
      </trkpt>
      <trkpt lat="48.64073" lon="6.40334">
        <ele>216</ele>
        <time>2020-08-16T12:23:46Z</time>
      </trkpt>
      <trkpt lat="48.64071" lon="6.40341">
        <ele>216</ele>
        <time>2020-08-16T12:23:48Z</time>
      </trkpt>
      <trkpt lat="48.64071" lon="6.40351">
        <ele>216</ele>
        <time>2020-08-16T12:23:51Z</time>
      </trkpt>
      <trkpt lat="48.6408" lon="6.40351">
        <ele>214</ele>
        <time>2020-08-16T12:28:45Z</time>
      </trkpt>
      <trkpt lat="48.64079" lon="6.40344">
        <ele>214</ele>
        <time>2020-08-16T12:29:26Z</time>
      </trkpt>
      <trkpt lat="48.64074" lon="6.40349">
        <ele>215</ele>
        <time>2020-08-16T12:29:44Z</time>
      </trkpt>
      <trkpt lat="48.64072" lon="6.40357">
        <ele>215</ele>
        <time>2020-08-16T12:29:47Z</time>
      </trkpt>
      <trkpt lat="48.64071" lon="6.40365">
        <ele>215</ele>
        <time>2020-08-16T12:29:49Z</time>
      </trkpt>
      <trkpt lat="48.64069" lon="6.40373">
        <ele>216</ele>
        <time>2020-08-16T12:29:51Z</time>
      </trkpt>
      <trkpt lat="48.64069" lon="6.40381">
        <ele>216</ele>
        <time>2020-08-16T12:29:53Z</time>
      </trkpt>
      <trkpt lat="48.64069" lon="6.40391">
        <ele>215</ele>
        <time>2020-08-16T12:29:55Z</time>
      </trkpt>
      <trkpt lat="48.64069" lon="6.40398">
        <ele>215</ele>
        <time>2020-08-16T12:29:57Z</time>
      </trkpt>
      <trkpt lat="48.64068" lon="6.40408">
        <ele>215</ele>
        <time>2020-08-16T12:29:59Z</time>
      </trkpt>
      <trkpt lat="48.64067" lon="6.40416">
        <ele>215</ele>
        <time>2020-08-16T12:30:01Z</time>
      </trkpt>
      <trkpt lat="48.64068" lon="6.40424">
        <ele>215</ele>
        <time>2020-08-16T12:30:03Z</time>
      </trkpt>
      <trkpt lat="48.64067" lon="6.40433">
        <ele>215</ele>
        <time>2020-08-16T12:30:05Z</time>
      </trkpt>
      <trkpt lat="48.64067" lon="6.40442">
        <ele>215</ele>
        <time>2020-08-16T12:30:07Z</time>
      </trkpt>
      <trkpt lat="48.64066" lon="6.40451">
        <ele>215</ele>
        <time>2020-08-16T12:30:09Z</time>
      </trkpt>
      <trkpt lat="48.64066" lon="6.4046">
        <ele>215</ele>
        <time>2020-08-16T12:30:11Z</time>
      </trkpt>
      <trkpt lat="48.64067" lon="6.40468">
        <ele>215</ele>
        <time>2020-08-16T12:30:13Z</time>
      </trkpt>
      <trkpt lat="48.64068" lon="6.40477">
        <ele>215</ele>
        <time>2020-08-16T12:30:15Z</time>
      </trkpt>
      <trkpt lat="48.64069" lon="6.40485">
        <ele>215</ele>
        <time>2020-08-16T12:30:17Z</time>
      </trkpt>
      <trkpt lat="48.64069" lon="6.40495">
        <ele>215</ele>
        <time>2020-08-16T12:30:19Z</time>
      </trkpt>
      <trkpt lat="48.64071" lon="6.40504">
        <ele>215</ele>
        <time>2020-08-16T12:30:21Z</time>
      </trkpt>
      <trkpt lat="48.64073" lon="6.40513">
        <ele>215</ele>
        <time>2020-08-16T12:30:23Z</time>
      </trkpt>
      <trkpt lat="48.64075" lon="6.40522">
        <ele>214</ele>
        <time>2020-08-16T12:30:25Z</time>
      </trkpt>
      <trkpt lat="48.64078" lon="6.40531">
        <ele>214</ele>
        <time>2020-08-16T12:30:27Z</time>
      </trkpt>
      <trkpt lat="48.6408" lon="6.40539">
        <ele>215</ele>
        <time>2020-08-16T12:30:29Z</time>
      </trkpt>
      <trkpt lat="48.64083" lon="6.40548">
        <ele>214</ele>
        <time>2020-08-16T12:30:31Z</time>
      </trkpt>
      <trkpt lat="48.64085" lon="6.40555">
        <ele>214</ele>
        <time>2020-08-16T12:30:33Z</time>
      </trkpt>
      <trkpt lat="48.64088" lon="6.40564">
        <ele>214</ele>
        <time>2020-08-16T12:30:35Z</time>
      </trkpt>
      <trkpt lat="48.6409" lon="6.40572">
        <ele>215</ele>
        <time>2020-08-16T12:30:37Z</time>
      </trkpt>
      <trkpt lat="48.64093" lon="6.4058">
        <ele>214</ele>
        <time>2020-08-16T12:30:39Z</time>
      </trkpt>
      <trkpt lat="48.64095" lon="6.40589">
        <ele>215</ele>
        <time>2020-08-16T12:30:41Z</time>
      </trkpt>
      <trkpt lat="48.64098" lon="6.40597">
        <ele>215</ele>
        <time>2020-08-16T12:30:43Z</time>
      </trkpt>
      <trkpt lat="48.641" lon="6.40605">
        <ele>215</ele>
        <time>2020-08-16T12:30:45Z</time>
      </trkpt>
      <trkpt lat="48.64101" lon="6.40612">
        <ele>215</ele>
        <time>2020-08-16T12:30:47Z</time>
      </trkpt>
      <trkpt lat="48.64104" lon="6.40619">
        <ele>215</ele>
        <time>2020-08-16T12:30:49Z</time>
      </trkpt>
      <trkpt lat="48.64106" lon="6.40628">
        <ele>215</ele>
        <time>2020-08-16T12:30:51Z</time>
      </trkpt>
      <trkpt lat="48.64108" lon="6.40636">
        <ele>215</ele>
        <time>2020-08-16T12:30:53Z</time>
      </trkpt>
      <trkpt lat="48.6411" lon="6.40644">
        <ele>215</ele>
        <time>2020-08-16T12:30:55Z</time>
      </trkpt>
      <trkpt lat="48.64113" lon="6.40653">
        <ele>215</ele>
        <time>2020-08-16T12:30:57Z</time>
      </trkpt>
      <trkpt lat="48.64114" lon="6.40662">
        <ele>215</ele>
        <time>2020-08-16T12:30:59Z</time>
      </trkpt>
      <trkpt lat="48.64115" lon="6.40671">
        <ele>215</ele>
        <time>2020-08-16T12:31:01Z</time>
      </trkpt>
      <trkpt lat="48.64116" lon="6.4068">
        <ele>215</ele>
        <time>2020-08-16T12:31:03Z</time>
      </trkpt>
      <trkpt lat="48.64114" lon="6.40687">
        <ele>216</ele>
        <time>2020-08-16T12:31:14Z</time>
      </trkpt>
      <trkpt lat="48.64116" lon="6.40696">
        <ele>215</ele>
        <time>2020-08-16T12:31:18Z</time>
      </trkpt>
      <trkpt lat="48.64118" lon="6.40704">
        <ele>215</ele>
        <time>2020-08-16T12:31:21Z</time>
      </trkpt>
      <trkpt lat="48.6412" lon="6.40712">
        <ele>215</ele>
        <time>2020-08-16T12:31:24Z</time>
      </trkpt>
      <trkpt lat="48.64121" lon="6.40721">
        <ele>215</ele>
        <time>2020-08-16T12:31:27Z</time>
      </trkpt>
      <trkpt lat="48.64122" lon="6.4073">
        <ele>215</ele>
        <time>2020-08-16T12:31:30Z</time>
      </trkpt>
      <trkpt lat="48.64123" lon="6.40738">
        <ele>214</ele>
        <time>2020-08-16T12:31:33Z</time>
      </trkpt>
      <trkpt lat="48.64124" lon="6.40746">
        <ele>214</ele>
        <time>2020-08-16T12:31:36Z</time>
      </trkpt>
      <trkpt lat="48.64126" lon="6.40755">
        <ele>214</ele>
        <time>2020-08-16T12:31:40Z</time>
      </trkpt>
      <trkpt lat="48.64126" lon="6.40764">
        <ele>214</ele>
        <time>2020-08-16T12:31:44Z</time>
      </trkpt>
      <trkpt lat="48.64127" lon="6.40772">
        <ele>214</ele>
        <time>2020-08-16T12:31:47Z</time>
      </trkpt>
      <trkpt lat="48.64127" lon="6.4078">
        <ele>214</ele>
        <time>2020-08-16T12:31:50Z</time>
      </trkpt>
      <trkpt lat="48.64129" lon="6.40789">
        <ele>214</ele>
        <time>2020-08-16T12:31:53Z</time>
      </trkpt>
      <trkpt lat="48.6413" lon="6.408">
        <ele>214</ele>
        <time>2020-08-16T12:31:56Z</time>
      </trkpt>
      <trkpt lat="48.6413" lon="6.40808">
        <ele>214</ele>
        <time>2020-08-16T12:31:58Z</time>
      </trkpt>
      <trkpt lat="48.64129" lon="6.40816">
        <ele>214</ele>
        <time>2020-08-16T12:32:00Z</time>
      </trkpt>
      <trkpt lat="48.64129" lon="6.40825">
        <ele>214</ele>
        <time>2020-08-16T12:32:02Z</time>
      </trkpt>
      <trkpt lat="48.6413" lon="6.40833">
        <ele>214</ele>
        <time>2020-08-16T12:32:04Z</time>
      </trkpt>
      <trkpt lat="48.64129" lon="6.40842">
        <ele>214</ele>
        <time>2020-08-16T12:32:06Z</time>
      </trkpt>
      <trkpt lat="48.64129" lon="6.40851">
        <ele>214</ele>
        <time>2020-08-16T12:32:08Z</time>
      </trkpt>
      <trkpt lat="48.64128" lon="6.40859">
        <ele>214</ele>
        <time>2020-08-16T12:32:10Z</time>
      </trkpt>
      <trkpt lat="48.64127" lon="6.40869">
        <ele>214</ele>
        <time>2020-08-16T12:32:12Z</time>
      </trkpt>
      <trkpt lat="48.64125" lon="6.40879">
        <ele>214</ele>
        <time>2020-08-16T12:32:14Z</time>
      </trkpt>
      <trkpt lat="48.64124" lon="6.40887">
        <ele>214</ele>
        <time>2020-08-16T12:32:16Z</time>
      </trkpt>
      <trkpt lat="48.64124" lon="6.40896">
        <ele>214</ele>
        <time>2020-08-16T12:32:18Z</time>
      </trkpt>
      <trkpt lat="48.64122" lon="6.40905">
        <ele>214</ele>
        <time>2020-08-16T12:32:20Z</time>
      </trkpt>
      <trkpt lat="48.64121" lon="6.40913">
        <ele>215</ele>
        <time>2020-08-16T12:32:22Z</time>
      </trkpt>
      <trkpt lat="48.64119" lon="6.40921">
        <ele>215</ele>
        <time>2020-08-16T12:32:24Z</time>
      </trkpt>
      <trkpt lat="48.64117" lon="6.40929">
        <ele>215</ele>
        <time>2020-08-16T12:32:26Z</time>
      </trkpt>
      <trkpt lat="48.64118" lon="6.40939">
        <ele>214</ele>
        <time>2020-08-16T12:32:28Z</time>
      </trkpt>
      <trkpt lat="48.64117" lon="6.40946">
        <ele>214</ele>
        <time>2020-08-16T12:32:30Z</time>
      </trkpt>
      <trkpt lat="48.64114" lon="6.40955">
        <ele>214</ele>
        <time>2020-08-16T12:32:32Z</time>
      </trkpt>
      <trkpt lat="48.64112" lon="6.40964">
        <ele>215</ele>
        <time>2020-08-16T12:32:34Z</time>
      </trkpt>
      <trkpt lat="48.64111" lon="6.40972">
        <ele>215</ele>
        <time>2020-08-16T12:32:36Z</time>
      </trkpt>
      <trkpt lat="48.64109" lon="6.40979">
        <ele>214</ele>
        <time>2020-08-16T12:32:38Z</time>
      </trkpt>
      <trkpt lat="48.64106" lon="6.40986">
        <ele>214</ele>
        <time>2020-08-16T12:32:40Z</time>
      </trkpt>
      <trkpt lat="48.64106" lon="6.40993">
        <ele>214</ele>
        <time>2020-08-16T12:32:42Z</time>
      </trkpt>
      <trkpt lat="48.64107" lon="6.41003">
        <ele>215</ele>
        <time>2020-08-16T12:32:45Z</time>
      </trkpt>
      <trkpt lat="48.64105" lon="6.41013">
        <ele>215</ele>
        <time>2020-08-16T12:32:48Z</time>
      </trkpt>
      <trkpt lat="48.64102" lon="6.41018">
        <ele>215</ele>
        <time>2020-08-16T12:32:50Z</time>
      </trkpt>
      <trkpt lat="48.64098" lon="6.41028">
        <ele>215</ele>
        <time>2020-08-16T12:32:53Z</time>
      </trkpt>
      <trkpt lat="48.64096" lon="6.41036">
        <ele>215</ele>
        <time>2020-08-16T12:32:55Z</time>
      </trkpt>
      <trkpt lat="48.64094" lon="6.41043">
        <ele>215</ele>
        <time>2020-08-16T12:32:57Z</time>
      </trkpt>
      <trkpt lat="48.64092" lon="6.4105">
        <ele>215</ele>
        <time>2020-08-16T12:32:59Z</time>
      </trkpt>
      <trkpt lat="48.6409" lon="6.41058">
        <ele>215</ele>
        <time>2020-08-16T12:33:01Z</time>
      </trkpt>
      <trkpt lat="48.64087" lon="6.41064">
        <ele>215</ele>
        <time>2020-08-16T12:33:03Z</time>
      </trkpt>
      <trkpt lat="48.64084" lon="6.41069">
        <ele>215</ele>
        <time>2020-08-16T12:33:05Z</time>
      </trkpt>
      <trkpt lat="48.64082" lon="6.41076">
        <ele>215</ele>
        <time>2020-08-16T12:33:07Z</time>
      </trkpt>
      <trkpt lat="48.6408" lon="6.41083">
        <ele>215</ele>
        <time>2020-08-16T12:33:27Z</time>
      </trkpt>
      <trkpt lat="48.64077" lon="6.41091">
        <ele>216</ele>
        <time>2020-08-16T12:33:31Z</time>
      </trkpt>
      <trkpt lat="48.64075" lon="6.41098">
        <ele>216</ele>
        <time>2020-08-16T12:33:34Z</time>
      </trkpt>
      <trkpt lat="48.64071" lon="6.41107">
        <ele>216</ele>
        <time>2020-08-16T12:33:36Z</time>
      </trkpt>
      <trkpt lat="48.64068" lon="6.41114">
        <ele>216</ele>
        <time>2020-08-16T12:33:38Z</time>
      </trkpt>
      <trkpt lat="48.64064" lon="6.41123">
        <ele>215</ele>
        <time>2020-08-16T12:33:40Z</time>
      </trkpt>
      <trkpt lat="48.64061" lon="6.41133">
        <ele>215</ele>
        <time>2020-08-16T12:33:44Z</time>
      </trkpt>
      <trkpt lat="48.64057" lon="6.41138">
        <ele>215</ele>
        <time>2020-08-16T12:33:46Z</time>
      </trkpt>
      <trkpt lat="48.64052" lon="6.41144">
        <ele>215</ele>
        <time>2020-08-16T12:33:48Z</time>
      </trkpt>
      <trkpt lat="48.64051" lon="6.4115">
        <ele>215</ele>
        <time>2020-08-16T12:33:50Z</time>
      </trkpt>
      <trkpt lat="48.64046" lon="6.41159">
        <ele>215</ele>
        <time>2020-08-16T12:33:52Z</time>
      </trkpt>
      <trkpt lat="48.64042" lon="6.41167">
        <ele>215</ele>
        <time>2020-08-16T12:33:54Z</time>
      </trkpt>
      <trkpt lat="48.64039" lon="6.41173">
        <ele>215</ele>
        <time>2020-08-16T12:33:56Z</time>
      </trkpt>
      <trkpt lat="48.64035" lon="6.41178">
        <ele>215</ele>
        <time>2020-08-16T12:33:58Z</time>
      </trkpt>
      <trkpt lat="48.64031" lon="6.41184">
        <ele>215</ele>
        <time>2020-08-16T12:34:00Z</time>
      </trkpt>
      <trkpt lat="48.64026" lon="6.41191">
        <ele>215</ele>
        <time>2020-08-16T12:34:02Z</time>
      </trkpt>
      <trkpt lat="48.64022" lon="6.41198">
        <ele>215</ele>
        <time>2020-08-16T12:34:04Z</time>
      </trkpt>
      <trkpt lat="48.64018" lon="6.41204">
        <ele>215</ele>
        <time>2020-08-16T12:34:06Z</time>
      </trkpt>
      <trkpt lat="48.64013" lon="6.41211">
        <ele>215</ele>
        <time>2020-08-16T12:34:08Z</time>
      </trkpt>
      <trkpt lat="48.64008" lon="6.4122">
        <ele>214</ele>
        <time>2020-08-16T12:34:10Z</time>
      </trkpt>
      <trkpt lat="48.64003" lon="6.41226">
        <ele>214</ele>
        <time>2020-08-16T12:34:12Z</time>
      </trkpt>
      <trkpt lat="48.63997" lon="6.41234">
        <ele>214</ele>
        <time>2020-08-16T12:34:15Z</time>
      </trkpt>
      <trkpt lat="48.63993" lon="6.41238">
        <ele>215</ele>
        <time>2020-08-16T12:34:17Z</time>
      </trkpt>
      <trkpt lat="48.63989" lon="6.41244">
        <ele>214</ele>
        <time>2020-08-16T12:34:19Z</time>
      </trkpt>
      <trkpt lat="48.63984" lon="6.41248">
        <ele>215</ele>
        <time>2020-08-16T12:34:21Z</time>
      </trkpt>
      <trkpt lat="48.6398" lon="6.41254">
        <ele>215</ele>
        <time>2020-08-16T12:34:23Z</time>
      </trkpt>
      <trkpt lat="48.63976" lon="6.41258">
        <ele>215</ele>
        <time>2020-08-16T12:34:25Z</time>
      </trkpt>
      <trkpt lat="48.63971" lon="6.41263">
        <ele>215</ele>
        <time>2020-08-16T12:34:27Z</time>
      </trkpt>
      <trkpt lat="48.63967" lon="6.41267">
        <ele>215</ele>
        <time>2020-08-16T12:34:29Z</time>
      </trkpt>
      <trkpt lat="48.63963" lon="6.41271">
        <ele>216</ele>
        <time>2020-08-16T12:34:31Z</time>
      </trkpt>
      <trkpt lat="48.63958" lon="6.41276">
        <ele>216</ele>
        <time>2020-08-16T12:34:34Z</time>
      </trkpt>
      <trkpt lat="48.63954" lon="6.41282">
        <ele>216</ele>
        <time>2020-08-16T12:34:37Z</time>
      </trkpt>
      <trkpt lat="48.6395" lon="6.41286">
        <ele>216</ele>
        <time>2020-08-16T12:34:39Z</time>
      </trkpt>
      <trkpt lat="48.63945" lon="6.41291">
        <ele>216</ele>
        <time>2020-08-16T12:34:41Z</time>
      </trkpt>
      <trkpt lat="48.63941" lon="6.41295">
        <ele>216</ele>
        <time>2020-08-16T12:34:43Z</time>
      </trkpt>
      <trkpt lat="48.63937" lon="6.413">
        <ele>216</ele>
        <time>2020-08-16T12:34:45Z</time>
      </trkpt>
      <trkpt lat="48.63932" lon="6.41304">
        <ele>217</ele>
        <time>2020-08-16T12:34:47Z</time>
      </trkpt>
      <trkpt lat="48.63928" lon="6.41309">
        <ele>217</ele>
        <time>2020-08-16T12:34:49Z</time>
      </trkpt>
      <trkpt lat="48.63924" lon="6.41313">
        <ele>217</ele>
        <time>2020-08-16T12:34:51Z</time>
      </trkpt>
      <trkpt lat="48.63919" lon="6.41317">
        <ele>218</ele>
        <time>2020-08-16T12:34:53Z</time>
      </trkpt>
      <trkpt lat="48.63915" lon="6.41322">
        <ele>218</ele>
        <time>2020-08-16T12:34:55Z</time>
      </trkpt>
      <trkpt lat="48.63909" lon="6.41326">
        <ele>219</ele>
        <time>2020-08-16T12:34:57Z</time>
      </trkpt>
      <trkpt lat="48.63904" lon="6.41331">
        <ele>219</ele>
        <time>2020-08-16T12:34:59Z</time>
      </trkpt>
      <trkpt lat="48.63898" lon="6.41336">
        <ele>220</ele>
        <time>2020-08-16T12:35:01Z</time>
      </trkpt>
      <trkpt lat="48.63891" lon="6.41341">
        <ele>220</ele>
        <time>2020-08-16T12:35:03Z</time>
      </trkpt>
      <trkpt lat="48.63885" lon="6.41345">
        <ele>220</ele>
        <time>2020-08-16T12:35:05Z</time>
      </trkpt>
      <trkpt lat="48.6388" lon="6.41348">
        <ele>220</ele>
        <time>2020-08-16T12:35:07Z</time>
      </trkpt>
      <trkpt lat="48.63876" lon="6.41352">
        <ele>220</ele>
        <time>2020-08-16T12:35:09Z</time>
      </trkpt>
      <trkpt lat="48.63871" lon="6.41355">
        <ele>220</ele>
        <time>2020-08-16T12:35:12Z</time>
      </trkpt>
      <trkpt lat="48.63865" lon="6.41359">
        <ele>220</ele>
        <time>2020-08-16T12:35:16Z</time>
      </trkpt>
      <trkpt lat="48.6386" lon="6.41361">
        <ele>220</ele>
        <time>2020-08-16T12:35:18Z</time>
      </trkpt>
      <trkpt lat="48.63855" lon="6.41366">
        <ele>220</ele>
        <time>2020-08-16T12:35:20Z</time>
      </trkpt>
      <trkpt lat="48.63851" lon="6.4137">
        <ele>220</ele>
        <time>2020-08-16T12:35:22Z</time>
      </trkpt>
      <trkpt lat="48.63846" lon="6.41375">
        <ele>219</ele>
        <time>2020-08-16T12:35:24Z</time>
      </trkpt>
      <trkpt lat="48.63841" lon="6.4138">
        <ele>219</ele>
        <time>2020-08-16T12:35:26Z</time>
      </trkpt>
      <trkpt lat="48.63837" lon="6.41385">
        <ele>219</ele>
        <time>2020-08-16T12:35:28Z</time>
      </trkpt>
      <trkpt lat="48.63832" lon="6.41391">
        <ele>218</ele>
        <time>2020-08-16T12:35:30Z</time>
      </trkpt>
      <trkpt lat="48.63828" lon="6.41396">
        <ele>218</ele>
        <time>2020-08-16T12:35:32Z</time>
      </trkpt>
      <trkpt lat="48.63823" lon="6.41403">
        <ele>218</ele>
        <time>2020-08-16T12:35:34Z</time>
      </trkpt>
      <trkpt lat="48.63819" lon="6.41409">
        <ele>218</ele>
        <time>2020-08-16T12:35:36Z</time>
      </trkpt>
      <trkpt lat="48.63814" lon="6.41417">
        <ele>218</ele>
        <time>2020-08-16T12:35:38Z</time>
      </trkpt>
      <trkpt lat="48.6381" lon="6.41424">
        <ele>219</ele>
        <time>2020-08-16T12:35:40Z</time>
      </trkpt>
      <trkpt lat="48.63806" lon="6.4143">
        <ele>219</ele>
        <time>2020-08-16T12:35:42Z</time>
      </trkpt>
      <trkpt lat="48.63801" lon="6.41436">
        <ele>219</ele>
        <time>2020-08-16T12:35:44Z</time>
      </trkpt>
      <trkpt lat="48.63797" lon="6.41443">
        <ele>219</ele>
        <time>2020-08-16T12:35:46Z</time>
      </trkpt>
      <trkpt lat="48.63793" lon="6.4145">
        <ele>220</ele>
        <time>2020-08-16T12:35:48Z</time>
      </trkpt>
      <trkpt lat="48.63789" lon="6.41458">
        <ele>220</ele>
        <time>2020-08-16T12:35:50Z</time>
      </trkpt>
      <trkpt lat="48.63786" lon="6.41466">
        <ele>220</ele>
        <time>2020-08-16T12:35:52Z</time>
      </trkpt>
      <trkpt lat="48.63783" lon="6.41476">
        <ele>219</ele>
        <time>2020-08-16T12:35:54Z</time>
      </trkpt>
      <trkpt lat="48.63779" lon="6.41484">
        <ele>219</ele>
        <time>2020-08-16T12:35:56Z</time>
      </trkpt>
      <trkpt lat="48.63777" lon="6.41493">
        <ele>220</ele>
        <time>2020-08-16T12:35:58Z</time>
      </trkpt>
      <trkpt lat="48.63774" lon="6.41502">
        <ele>220</ele>
        <time>2020-08-16T12:36:00Z</time>
      </trkpt>
      <trkpt lat="48.63772" lon="6.41511">
        <ele>220</ele>
        <time>2020-08-16T12:36:02Z</time>
      </trkpt>
      <trkpt lat="48.6377" lon="6.41521">
        <ele>220</ele>
        <time>2020-08-16T12:36:04Z</time>
      </trkpt>
      <trkpt lat="48.63768" lon="6.4153">
        <ele>220</ele>
        <time>2020-08-16T12:36:06Z</time>
      </trkpt>
      <trkpt lat="48.63768" lon="6.4154">
        <ele>220</ele>
        <time>2020-08-16T12:36:08Z</time>
      </trkpt>
      <trkpt lat="48.63766" lon="6.4155">
        <ele>219</ele>
        <time>2020-08-16T12:36:10Z</time>
      </trkpt>
      <trkpt lat="48.63765" lon="6.4156">
        <ele>219</ele>
        <time>2020-08-16T12:36:12Z</time>
      </trkpt>
      <trkpt lat="48.63764" lon="6.4157">
        <ele>218</ele>
        <time>2020-08-16T12:36:14Z</time>
      </trkpt>
      <trkpt lat="48.63762" lon="6.4158">
        <ele>218</ele>
        <time>2020-08-16T12:36:16Z</time>
      </trkpt>
      <trkpt lat="48.63762" lon="6.4159">
        <ele>217</ele>
        <time>2020-08-16T12:36:18Z</time>
      </trkpt>
      <trkpt lat="48.6376" lon="6.416">
        <ele>217</ele>
        <time>2020-08-16T12:36:20Z</time>
      </trkpt>
      <trkpt lat="48.6376" lon="6.41609">
        <ele>216</ele>
        <time>2020-08-16T12:36:22Z</time>
      </trkpt>
      <trkpt lat="48.63759" lon="6.4162">
        <ele>216</ele>
        <time>2020-08-16T12:36:24Z</time>
      </trkpt>
      <trkpt lat="48.63758" lon="6.41629">
        <ele>217</ele>
        <time>2020-08-16T12:36:26Z</time>
      </trkpt>
      <trkpt lat="48.63758" lon="6.41638">
        <ele>216</ele>
        <time>2020-08-16T12:36:28Z</time>
      </trkpt>
      <trkpt lat="48.63757" lon="6.41648">
        <ele>217</ele>
        <time>2020-08-16T12:36:30Z</time>
      </trkpt>
      <trkpt lat="48.63757" lon="6.41657">
        <ele>217</ele>
        <time>2020-08-16T12:36:32Z</time>
      </trkpt>
      <trkpt lat="48.63759" lon="6.41667">
        <ele>216</ele>
        <time>2020-08-16T12:36:34Z</time>
      </trkpt>
      <trkpt lat="48.63758" lon="6.41676">
        <ele>216</ele>
        <time>2020-08-16T12:36:36Z</time>
      </trkpt>
      <trkpt lat="48.63757" lon="6.41684">
        <ele>216</ele>
        <time>2020-08-16T12:36:38Z</time>
      </trkpt>
      <trkpt lat="48.63757" lon="6.41691">
        <ele>216</ele>
        <time>2020-08-16T12:36:40Z</time>
      </trkpt>
      <trkpt lat="48.63756" lon="6.417">
        <ele>216</ele>
        <time>2020-08-16T12:36:42Z</time>
      </trkpt>
      <trkpt lat="48.63756" lon="6.41708">
        <ele>216</ele>
        <time>2020-08-16T12:36:44Z</time>
      </trkpt>
      <trkpt lat="48.63759" lon="6.41717">
        <ele>215</ele>
        <time>2020-08-16T12:37:19Z</time>
      </trkpt>
      <trkpt lat="48.63757" lon="6.41727">
        <ele>215</ele>
        <time>2020-08-16T12:37:22Z</time>
      </trkpt>
      <trkpt lat="48.63757" lon="6.41735">
        <ele>215</ele>
        <time>2020-08-16T12:37:24Z</time>
      </trkpt>
      <trkpt lat="48.63757" lon="6.41745">
        <ele>215</ele>
        <time>2020-08-16T12:37:26Z</time>
      </trkpt>
      <trkpt lat="48.63757" lon="6.41753">
        <ele>215</ele>
        <time>2020-08-16T12:37:28Z</time>
      </trkpt>
      <trkpt lat="48.63757" lon="6.41761">
        <ele>215</ele>
        <time>2020-08-16T12:37:30Z</time>
      </trkpt>
      <trkpt lat="48.63755" lon="6.41769">
        <ele>215</ele>
        <time>2020-08-16T12:37:32Z</time>
      </trkpt>
      <trkpt lat="48.63754" lon="6.41776">
        <ele>216</ele>
        <time>2020-08-16T12:37:34Z</time>
      </trkpt>
      <trkpt lat="48.63755" lon="6.41785">
        <ele>215</ele>
        <time>2020-08-16T12:37:37Z</time>
      </trkpt>
      <trkpt lat="48.63754" lon="6.41792">
        <ele>215</ele>
        <time>2020-08-16T12:37:40Z</time>
      </trkpt>
      <trkpt lat="48.63752" lon="6.41799">
        <ele>215</ele>
        <time>2020-08-16T12:37:42Z</time>
      </trkpt>
      <trkpt lat="48.63751" lon="6.41807">
        <ele>215</ele>
        <time>2020-08-16T12:37:44Z</time>
      </trkpt>
      <trkpt lat="48.63751" lon="6.41815">
        <ele>215</ele>
        <time>2020-08-16T12:37:46Z</time>
      </trkpt>
      <trkpt lat="48.63751" lon="6.41824">
        <ele>215</ele>
        <time>2020-08-16T12:37:48Z</time>
      </trkpt>
      <trkpt lat="48.63749" lon="6.41833">
        <ele>216</ele>
        <time>2020-08-16T12:37:50Z</time>
      </trkpt>
      <trkpt lat="48.63749" lon="6.41842">
        <ele>216</ele>
        <time>2020-08-16T12:37:52Z</time>
      </trkpt>
      <trkpt lat="48.63748" lon="6.41851">
        <ele>216</ele>
        <time>2020-08-16T12:37:54Z</time>
      </trkpt>
      <trkpt lat="48.63747" lon="6.4186">
        <ele>216</ele>
        <time>2020-08-16T12:37:56Z</time>
      </trkpt>
      <trkpt lat="48.63748" lon="6.41869">
        <ele>216</ele>
        <time>2020-08-16T12:37:58Z</time>
      </trkpt>
      <trkpt lat="48.63747" lon="6.41879">
        <ele>216</ele>
        <time>2020-08-16T12:38:00Z</time>
      </trkpt>
      <trkpt lat="48.63746" lon="6.41888">
        <ele>216</ele>
        <time>2020-08-16T12:38:02Z</time>
      </trkpt>
      <trkpt lat="48.63744" lon="6.41896">
        <ele>217</ele>
        <time>2020-08-16T12:38:04Z</time>
      </trkpt>
      <trkpt lat="48.63744" lon="6.41906">
        <ele>217</ele>
        <time>2020-08-16T12:38:06Z</time>
      </trkpt>
      <trkpt lat="48.63744" lon="6.41915">
        <ele>217</ele>
        <time>2020-08-16T12:38:08Z</time>
      </trkpt>
      <trkpt lat="48.63743" lon="6.41924">
        <ele>217</ele>
        <time>2020-08-16T12:38:10Z</time>
      </trkpt>
      <trkpt lat="48.63742" lon="6.41934">
        <ele>217</ele>
        <time>2020-08-16T12:38:12Z</time>
      </trkpt>
      <trkpt lat="48.63741" lon="6.41943">
        <ele>217</ele>
        <time>2020-08-16T12:38:14Z</time>
      </trkpt>
      <trkpt lat="48.63742" lon="6.41954">
        <ele>217</ele>
        <time>2020-08-16T12:38:16Z</time>
      </trkpt>
      <trkpt lat="48.63741" lon="6.41964">
        <ele>217</ele>
        <time>2020-08-16T12:38:18Z</time>
      </trkpt>
      <trkpt lat="48.63739" lon="6.41975">
        <ele>217</ele>
        <time>2020-08-16T12:38:20Z</time>
      </trkpt>
      <trkpt lat="48.63738" lon="6.41984">
        <ele>217</ele>
        <time>2020-08-16T12:38:22Z</time>
      </trkpt>
      <trkpt lat="48.63739" lon="6.41991">
        <ele>217</ele>
        <time>2020-08-16T12:38:24Z</time>
      </trkpt>
      <trkpt lat="48.63741" lon="6.42">
        <ele>217</ele>
        <time>2020-08-16T12:38:26Z</time>
      </trkpt>
      <trkpt lat="48.63739" lon="6.4201">
        <ele>217</ele>
        <time>2020-08-16T12:38:28Z</time>
      </trkpt>
      <trkpt lat="48.63738" lon="6.4202">
        <ele>217</ele>
        <time>2020-08-16T12:38:30Z</time>
      </trkpt>
      <trkpt lat="48.63738" lon="6.42031">
        <ele>217</ele>
        <time>2020-08-16T12:38:32Z</time>
      </trkpt>
      <trkpt lat="48.63739" lon="6.42041">
        <ele>217</ele>
        <time>2020-08-16T12:38:34Z</time>
      </trkpt>
      <trkpt lat="48.63739" lon="6.42052">
        <ele>217</ele>
        <time>2020-08-16T12:38:36Z</time>
      </trkpt>
      <trkpt lat="48.63738" lon="6.42063">
        <ele>217</ele>
        <time>2020-08-16T12:38:38Z</time>
      </trkpt>
      <trkpt lat="48.63738" lon="6.42074">
        <ele>217</ele>
        <time>2020-08-16T12:38:40Z</time>
      </trkpt>
      <trkpt lat="48.63735" lon="6.42082">
        <ele>218</ele>
        <time>2020-08-16T12:38:42Z</time>
      </trkpt>
      <trkpt lat="48.63734" lon="6.42092">
        <ele>218</ele>
        <time>2020-08-16T12:38:44Z</time>
      </trkpt>
      <trkpt lat="48.63735" lon="6.42103">
        <ele>218</ele>
        <time>2020-08-16T12:38:46Z</time>
      </trkpt>
      <trkpt lat="48.63735" lon="6.42114">
        <ele>218</ele>
        <time>2020-08-16T12:38:48Z</time>
      </trkpt>
      <trkpt lat="48.63735" lon="6.42126">
        <ele>218</ele>
        <time>2020-08-16T12:38:50Z</time>
      </trkpt>
      <trkpt lat="48.63736" lon="6.42136">
        <ele>218</ele>
        <time>2020-08-16T12:38:52Z</time>
      </trkpt>
      <trkpt lat="48.63737" lon="6.42147">
        <ele>218</ele>
        <time>2020-08-16T12:38:54Z</time>
      </trkpt>
      <trkpt lat="48.63739" lon="6.42157">
        <ele>218</ele>
        <time>2020-08-16T12:38:56Z</time>
      </trkpt>
      <trkpt lat="48.63741" lon="6.42167">
        <ele>218</ele>
        <time>2020-08-16T12:38:58Z</time>
      </trkpt>
      <trkpt lat="48.63742" lon="6.42177">
        <ele>218</ele>
        <time>2020-08-16T12:39:00Z</time>
      </trkpt>
      <trkpt lat="48.63745" lon="6.42187">
        <ele>218</ele>
        <time>2020-08-16T12:39:02Z</time>
      </trkpt>
      <trkpt lat="48.63747" lon="6.42198">
        <ele>218</ele>
        <time>2020-08-16T12:39:04Z</time>
      </trkpt>
      <trkpt lat="48.63749" lon="6.42208">
        <ele>218</ele>
        <time>2020-08-16T12:39:06Z</time>
      </trkpt>
      <trkpt lat="48.6375" lon="6.42217">
        <ele>218</ele>
        <time>2020-08-16T12:39:08Z</time>
      </trkpt>
      <trkpt lat="48.63754" lon="6.42225">
        <ele>218</ele>
        <time>2020-08-16T12:39:10Z</time>
      </trkpt>
      <trkpt lat="48.63757" lon="6.42234">
        <ele>218</ele>
        <time>2020-08-16T12:39:12Z</time>
      </trkpt>
      <trkpt lat="48.63757" lon="6.42244">
        <ele>218</ele>
        <time>2020-08-16T12:39:14Z</time>
      </trkpt>
      <trkpt lat="48.63762" lon="6.42253">
        <ele>218</ele>
        <time>2020-08-16T12:39:16Z</time>
      </trkpt>
      <trkpt lat="48.63766" lon="6.42261">
        <ele>217</ele>
        <time>2020-08-16T12:39:18Z</time>
      </trkpt>
      <trkpt lat="48.6377" lon="6.42267">
        <ele>217</ele>
        <time>2020-08-16T12:39:19Z</time>
      </trkpt>
      <trkpt lat="48.63772" lon="6.42276">
        <ele>217</ele>
        <time>2020-08-16T12:39:21Z</time>
      </trkpt>
      <trkpt lat="48.63777" lon="6.42286">
        <ele>217</ele>
        <time>2020-08-16T12:39:23Z</time>
      </trkpt>
      <trkpt lat="48.63781" lon="6.42294">
        <ele>217</ele>
        <time>2020-08-16T12:39:25Z</time>
      </trkpt>
      <trkpt lat="48.63784" lon="6.42299">
        <ele>217</ele>
        <time>2020-08-16T12:39:26Z</time>
      </trkpt>
      <trkpt lat="48.63789" lon="6.42307">
        <ele>217</ele>
        <time>2020-08-16T12:39:28Z</time>
      </trkpt>
      <trkpt lat="48.63793" lon="6.42314">
        <ele>217</ele>
        <time>2020-08-16T12:39:30Z</time>
      </trkpt>
      <trkpt lat="48.63798" lon="6.42322">
        <ele>217</ele>
        <time>2020-08-16T12:39:32Z</time>
      </trkpt>
      <trkpt lat="48.63802" lon="6.42329">
        <ele>217</ele>
        <time>2020-08-16T12:39:34Z</time>
      </trkpt>
      <trkpt lat="48.63804" lon="6.42336">
        <ele>217</ele>
        <time>2020-08-16T12:39:36Z</time>
      </trkpt>
      <trkpt lat="48.63807" lon="6.42343">
        <ele>217</ele>
        <time>2020-08-16T12:39:38Z</time>
      </trkpt>
      <trkpt lat="48.63812" lon="6.42349">
        <ele>218</ele>
        <time>2020-08-16T12:39:40Z</time>
      </trkpt>
      <trkpt lat="48.6382" lon="6.42354">
        <ele>217</ele>
        <time>2020-08-16T12:39:43Z</time>
      </trkpt>
      <trkpt lat="48.63825" lon="6.42358">
        <ele>217</ele>
        <time>2020-08-16T12:39:45Z</time>
      </trkpt>
      <trkpt lat="48.6383" lon="6.42361">
        <ele>217</ele>
        <time>2020-08-16T12:39:47Z</time>
      </trkpt>
      <trkpt lat="48.63837" lon="6.42367">
        <ele>217</ele>
        <time>2020-08-16T12:39:49Z</time>
      </trkpt>
      <trkpt lat="48.63844" lon="6.42374">
        <ele>217</ele>
        <time>2020-08-16T12:39:51Z</time>
      </trkpt>
      <trkpt lat="48.63849" lon="6.42379">
        <ele>217</ele>
        <time>2020-08-16T12:39:53Z</time>
      </trkpt>
      <trkpt lat="48.63855" lon="6.42386">
        <ele>218</ele>
        <time>2020-08-16T12:39:56Z</time>
      </trkpt>
      <trkpt lat="48.63862" lon="6.42387">
        <ele>218</ele>
        <time>2020-08-16T12:39:58Z</time>
      </trkpt>
      <trkpt lat="48.63868" lon="6.42392">
        <ele>218</ele>
        <time>2020-08-16T12:40:00Z</time>
      </trkpt>
      <trkpt lat="48.63874" lon="6.42397">
        <ele>218</ele>
        <time>2020-08-16T12:40:02Z</time>
      </trkpt>
      <trkpt lat="48.63881" lon="6.42401">
        <ele>218</ele>
        <time>2020-08-16T12:40:04Z</time>
      </trkpt>
      <trkpt lat="48.63887" lon="6.42404">
        <ele>218</ele>
        <time>2020-08-16T12:40:06Z</time>
      </trkpt>
      <trkpt lat="48.63892" lon="6.42409">
        <ele>218</ele>
        <time>2020-08-16T12:40:08Z</time>
      </trkpt>
      <trkpt lat="48.63899" lon="6.42413">
        <ele>217</ele>
        <time>2020-08-16T12:40:10Z</time>
      </trkpt>
      <trkpt lat="48.63903" lon="6.42417">
        <ele>217</ele>
        <time>2020-08-16T12:40:12Z</time>
      </trkpt>
      <trkpt lat="48.6391" lon="6.42422">
        <ele>216</ele>
        <time>2020-08-16T12:40:14Z</time>
      </trkpt>
      <trkpt lat="48.63916" lon="6.42426">
        <ele>215</ele>
        <time>2020-08-16T12:40:16Z</time>
      </trkpt>
      <trkpt lat="48.63924" lon="6.42431">
        <ele>215</ele>
        <time>2020-08-16T12:40:18Z</time>
      </trkpt>
      <trkpt lat="48.63927" lon="6.42436">
        <ele>215</ele>
        <time>2020-08-16T12:40:19Z</time>
      </trkpt>
      <trkpt lat="48.63936" lon="6.42438">
        <ele>215</ele>
        <time>2020-08-16T12:40:21Z</time>
      </trkpt>
      <trkpt lat="48.63941" lon="6.4244">
        <ele>215</ele>
        <time>2020-08-16T12:40:23Z</time>
      </trkpt>
      <trkpt lat="48.63946" lon="6.42445">
        <ele>215</ele>
        <time>2020-08-16T12:40:25Z</time>
      </trkpt>
      <trkpt lat="48.63953" lon="6.42449">
        <ele>215</ele>
        <time>2020-08-16T12:40:27Z</time>
      </trkpt>
      <trkpt lat="48.63961" lon="6.42452">
        <ele>215</ele>
        <time>2020-08-16T12:40:29Z</time>
      </trkpt>
      <trkpt lat="48.63968" lon="6.42452">
        <ele>215</ele>
        <time>2020-08-16T12:40:31Z</time>
      </trkpt>
      <trkpt lat="48.63974" lon="6.42454">
        <ele>215</ele>
        <time>2020-08-16T12:40:33Z</time>
      </trkpt>
      <trkpt lat="48.63981" lon="6.42459">
        <ele>215</ele>
        <time>2020-08-16T12:40:35Z</time>
      </trkpt>
      <trkpt lat="48.63987" lon="6.42462">
        <ele>215</ele>
        <time>2020-08-16T12:40:37Z</time>
      </trkpt>
      <trkpt lat="48.63994" lon="6.42466">
        <ele>215</ele>
        <time>2020-08-16T12:40:39Z</time>
      </trkpt>
      <trkpt lat="48.64" lon="6.4247">
        <ele>215</ele>
        <time>2020-08-16T12:40:41Z</time>
      </trkpt>
      <trkpt lat="48.64006" lon="6.42475">
        <ele>215</ele>
        <time>2020-08-16T12:40:43Z</time>
      </trkpt>
      <trkpt lat="48.64013" lon="6.42481">
        <ele>215</ele>
        <time>2020-08-16T12:40:45Z</time>
      </trkpt>
      <trkpt lat="48.64019" lon="6.42486">
        <ele>215</ele>
        <time>2020-08-16T12:40:47Z</time>
      </trkpt>
      <trkpt lat="48.64026" lon="6.4249">
        <ele>215</ele>
        <time>2020-08-16T12:40:49Z</time>
      </trkpt>
      <trkpt lat="48.6403" lon="6.42495">
        <ele>215</ele>
        <time>2020-08-16T12:40:51Z</time>
      </trkpt>
      <trkpt lat="48.64037" lon="6.42498">
        <ele>215</ele>
        <time>2020-08-16T12:40:53Z</time>
      </trkpt>
      <trkpt lat="48.64043" lon="6.42502">
        <ele>215</ele>
        <time>2020-08-16T12:40:55Z</time>
      </trkpt>
      <trkpt lat="48.64049" lon="6.42508">
        <ele>215</ele>
        <time>2020-08-16T12:40:57Z</time>
      </trkpt>
      <trkpt lat="48.64055" lon="6.42514">
        <ele>215</ele>
        <time>2020-08-16T12:40:59Z</time>
      </trkpt>
      <trkpt lat="48.64061" lon="6.42523">
        <ele>215</ele>
        <time>2020-08-16T12:41:01Z</time>
      </trkpt>
      <trkpt lat="48.64067" lon="6.42529">
        <ele>215</ele>
        <time>2020-08-16T12:41:03Z</time>
      </trkpt>
      <trkpt lat="48.64072" lon="6.42536">
        <ele>215</ele>
        <time>2020-08-16T12:41:05Z</time>
      </trkpt>
      <trkpt lat="48.64079" lon="6.42542">
        <ele>215</ele>
        <time>2020-08-16T12:41:07Z</time>
      </trkpt>
      <trkpt lat="48.64083" lon="6.42548">
        <ele>215</ele>
        <time>2020-08-16T12:41:09Z</time>
      </trkpt>
      <trkpt lat="48.64087" lon="6.42555">
        <ele>215</ele>
        <time>2020-08-16T12:41:11Z</time>
      </trkpt>
      <trkpt lat="48.64091" lon="6.42561">
        <ele>215</ele>
        <time>2020-08-16T12:41:13Z</time>
      </trkpt>
      <trkpt lat="48.64096" lon="6.42568">
        <ele>215</ele>
        <time>2020-08-16T12:41:15Z</time>
      </trkpt>
      <trkpt lat="48.64101" lon="6.42575">
        <ele>215</ele>
        <time>2020-08-16T12:41:17Z</time>
      </trkpt>
      <trkpt lat="48.64106" lon="6.42583">
        <ele>215</ele>
        <time>2020-08-16T12:41:20Z</time>
      </trkpt>
      <trkpt lat="48.6411" lon="6.42589">
        <ele>215</ele>
        <time>2020-08-16T12:41:22Z</time>
      </trkpt>
      <trkpt lat="48.64117" lon="6.42596">
        <ele>215</ele>
        <time>2020-08-16T12:41:24Z</time>
      </trkpt>
      <trkpt lat="48.64122" lon="6.42603">
        <ele>215</ele>
        <time>2020-08-16T12:41:26Z</time>
      </trkpt>
      <trkpt lat="48.64128" lon="6.4261">
        <ele>215</ele>
        <time>2020-08-16T12:41:28Z</time>
      </trkpt>
      <trkpt lat="48.64131" lon="6.42618">
        <ele>215</ele>
        <time>2020-08-16T12:41:30Z</time>
      </trkpt>
      <trkpt lat="48.64136" lon="6.42624">
        <ele>215</ele>
        <time>2020-08-16T12:41:32Z</time>
      </trkpt>
      <trkpt lat="48.6414" lon="6.42628">
        <ele>215</ele>
        <time>2020-08-16T12:41:34Z</time>
      </trkpt>
      <trkpt lat="48.64144" lon="6.42633">
        <ele>215</ele>
        <time>2020-08-16T12:41:36Z</time>
      </trkpt>
      <trkpt lat="48.64149" lon="6.42639">
        <ele>215</ele>
        <time>2020-08-16T12:41:38Z</time>
      </trkpt>
      <trkpt lat="48.64156" lon="6.42645">
        <ele>215</ele>
        <time>2020-08-16T12:41:40Z</time>
      </trkpt>
      <trkpt lat="48.64161" lon="6.42652">
        <ele>215</ele>
        <time>2020-08-16T12:41:42Z</time>
      </trkpt>
      <trkpt lat="48.64167" lon="6.42659">
        <ele>215</ele>
        <time>2020-08-16T12:41:44Z</time>
      </trkpt>
      <trkpt lat="48.64171" lon="6.42665">
        <ele>215</ele>
        <time>2020-08-16T12:41:46Z</time>
      </trkpt>
      <trkpt lat="48.64175" lon="6.42675">
        <ele>215</ele>
        <time>2020-08-16T12:41:48Z</time>
      </trkpt>
      <trkpt lat="48.6418" lon="6.42682">
        <ele>215</ele>
        <time>2020-08-16T12:41:50Z</time>
      </trkpt>
      <trkpt lat="48.64184" lon="6.42687">
        <ele>215</ele>
        <time>2020-08-16T12:41:52Z</time>
      </trkpt>
      <trkpt lat="48.64188" lon="6.42693">
        <ele>215</ele>
        <time>2020-08-16T12:41:54Z</time>
      </trkpt>
      <trkpt lat="48.64193" lon="6.42699">
        <ele>215</ele>
        <time>2020-08-16T12:41:56Z</time>
      </trkpt>
      <trkpt lat="48.64198" lon="6.42706">
        <ele>215</ele>
        <time>2020-08-16T12:41:58Z</time>
      </trkpt>
      <trkpt lat="48.64201" lon="6.42712">
        <ele>215</ele>
        <time>2020-08-16T12:42:00Z</time>
      </trkpt>
      <trkpt lat="48.64205" lon="6.4272">
        <ele>216</ele>
        <time>2020-08-16T12:42:02Z</time>
      </trkpt>
      <trkpt lat="48.64208" lon="6.42728">
        <ele>216</ele>
        <time>2020-08-16T12:42:04Z</time>
      </trkpt>
      <trkpt lat="48.64213" lon="6.42737">
        <ele>216</ele>
        <time>2020-08-16T12:42:06Z</time>
      </trkpt>
      <trkpt lat="48.64214" lon="6.42747">
        <ele>217</ele>
        <time>2020-08-16T12:42:08Z</time>
      </trkpt>
      <trkpt lat="48.64217" lon="6.42755">
        <ele>217</ele>
        <time>2020-08-16T12:42:10Z</time>
      </trkpt>
      <trkpt lat="48.64219" lon="6.42763">
        <ele>217</ele>
        <time>2020-08-16T12:42:12Z</time>
      </trkpt>
      <trkpt lat="48.64222" lon="6.4277">
        <ele>217</ele>
        <time>2020-08-16T12:42:14Z</time>
      </trkpt>
      <trkpt lat="48.64224" lon="6.4278">
        <ele>218</ele>
        <time>2020-08-16T12:42:16Z</time>
      </trkpt>
      <trkpt lat="48.64229" lon="6.4279">
        <ele>217</ele>
        <time>2020-08-16T12:42:18Z</time>
      </trkpt>
      <trkpt lat="48.64231" lon="6.42797">
        <ele>217</ele>
        <time>2020-08-16T12:42:20Z</time>
      </trkpt>
      <trkpt lat="48.64235" lon="6.42805">
        <ele>217</ele>
        <time>2020-08-16T12:42:22Z</time>
      </trkpt>
      <trkpt lat="48.64238" lon="6.42814">
        <ele>217</ele>
        <time>2020-08-16T12:42:24Z</time>
      </trkpt>
      <trkpt lat="48.6424" lon="6.42824">
        <ele>217</ele>
        <time>2020-08-16T12:42:26Z</time>
      </trkpt>
      <trkpt lat="48.64245" lon="6.42833">
        <ele>216</ele>
        <time>2020-08-16T12:42:28Z</time>
      </trkpt>
      <trkpt lat="48.64246" lon="6.4284">
        <ele>216</ele>
        <time>2020-08-16T12:42:30Z</time>
      </trkpt>
      <trkpt lat="48.64247" lon="6.42849">
        <ele>216</ele>
        <time>2020-08-16T12:42:32Z</time>
      </trkpt>
      <trkpt lat="48.64248" lon="6.42858">
        <ele>217</ele>
        <time>2020-08-16T12:42:34Z</time>
      </trkpt>
      <trkpt lat="48.64252" lon="6.42866">
        <ele>217</ele>
        <time>2020-08-16T12:42:36Z</time>
      </trkpt>
      <trkpt lat="48.64254" lon="6.42874">
        <ele>216</ele>
        <time>2020-08-16T12:42:38Z</time>
      </trkpt>
      <trkpt lat="48.64256" lon="6.42885">
        <ele>216</ele>
        <time>2020-08-16T12:42:40Z</time>
      </trkpt>
      <trkpt lat="48.64257" lon="6.42893">
        <ele>217</ele>
        <time>2020-08-16T12:42:42Z</time>
      </trkpt>
      <trkpt lat="48.64259" lon="6.42902">
        <ele>217</ele>
        <time>2020-08-16T12:42:44Z</time>
      </trkpt>
      <trkpt lat="48.64261" lon="6.42911">
        <ele>217</ele>
        <time>2020-08-16T12:42:46Z</time>
      </trkpt>
      <trkpt lat="48.64261" lon="6.42919">
        <ele>217</ele>
        <time>2020-08-16T12:42:48Z</time>
      </trkpt>
      <trkpt lat="48.64263" lon="6.42927">
        <ele>217</ele>
        <time>2020-08-16T12:42:50Z</time>
      </trkpt>
      <trkpt lat="48.64265" lon="6.42935">
        <ele>217</ele>
        <time>2020-08-16T12:42:52Z</time>
      </trkpt>
      <trkpt lat="48.64264" lon="6.42945">
        <ele>218</ele>
        <time>2020-08-16T12:42:54Z</time>
      </trkpt>
      <trkpt lat="48.64266" lon="6.42954">
        <ele>218</ele>
        <time>2020-08-16T12:42:56Z</time>
      </trkpt>
      <trkpt lat="48.64265" lon="6.42963">
        <ele>218</ele>
        <time>2020-08-16T12:42:58Z</time>
      </trkpt>
      <trkpt lat="48.64269" lon="6.42972">
        <ele>217</ele>
        <time>2020-08-16T12:43:00Z</time>
      </trkpt>
      <trkpt lat="48.64272" lon="6.42983">
        <ele>217</ele>
        <time>2020-08-16T12:43:02Z</time>
      </trkpt>
      <trkpt lat="48.64272" lon="6.42993">
        <ele>217</ele>
        <time>2020-08-16T12:43:04Z</time>
      </trkpt>
      <trkpt lat="48.64273" lon="6.43002">
        <ele>218</ele>
        <time>2020-08-16T12:43:06Z</time>
      </trkpt>
      <trkpt lat="48.64274" lon="6.43011">
        <ele>218</ele>
        <time>2020-08-16T12:43:08Z</time>
      </trkpt>
      <trkpt lat="48.64277" lon="6.43022">
        <ele>218</ele>
        <time>2020-08-16T12:43:10Z</time>
      </trkpt>
      <trkpt lat="48.6428" lon="6.43032">
        <ele>216</ele>
        <time>2020-08-16T12:43:12Z</time>
      </trkpt>
      <trkpt lat="48.64281" lon="6.43042">
        <ele>216</ele>
        <time>2020-08-16T12:43:14Z</time>
      </trkpt>
      <trkpt lat="48.6428" lon="6.43052">
        <ele>217</ele>
        <time>2020-08-16T12:43:16Z</time>
      </trkpt>
      <trkpt lat="48.64282" lon="6.43062">
        <ele>216</ele>
        <time>2020-08-16T12:43:18Z</time>
      </trkpt>
      <trkpt lat="48.64283" lon="6.43072">
        <ele>216</ele>
        <time>2020-08-16T12:43:20Z</time>
      </trkpt>
      <trkpt lat="48.64285" lon="6.43084">
        <ele>215</ele>
        <time>2020-08-16T12:43:22Z</time>
      </trkpt>
      <trkpt lat="48.64284" lon="6.43094">
        <ele>215</ele>
        <time>2020-08-16T12:43:24Z</time>
      </trkpt>
      <trkpt lat="48.64283" lon="6.43104">
        <ele>215</ele>
        <time>2020-08-16T12:43:26Z</time>
      </trkpt>
      <trkpt lat="48.64283" lon="6.43115">
        <ele>215</ele>
        <time>2020-08-16T12:43:28Z</time>
      </trkpt>
      <trkpt lat="48.64282" lon="6.43124">
        <ele>215</ele>
        <time>2020-08-16T12:43:30Z</time>
      </trkpt>
      <trkpt lat="48.6428" lon="6.4313">
        <ele>215</ele>
        <time>2020-08-16T12:43:31Z</time>
      </trkpt>
      <trkpt lat="48.64282" lon="6.43138">
        <ele>215</ele>
        <time>2020-08-16T12:43:33Z</time>
      </trkpt>
      <trkpt lat="48.64281" lon="6.43149">
        <ele>215</ele>
        <time>2020-08-16T12:43:35Z</time>
      </trkpt>
      <trkpt lat="48.6428" lon="6.43158">
        <ele>215</ele>
        <time>2020-08-16T12:43:37Z</time>
      </trkpt>
      <trkpt lat="48.64277" lon="6.43166">
        <ele>215</ele>
        <time>2020-08-16T12:43:39Z</time>
      </trkpt>
      <trkpt lat="48.64273" lon="6.43176">
        <ele>215</ele>
        <time>2020-08-16T12:43:41Z</time>
      </trkpt>
      <trkpt lat="48.6427" lon="6.43186">
        <ele>216</ele>
        <time>2020-08-16T12:43:43Z</time>
      </trkpt>
      <trkpt lat="48.6427" lon="6.43196">
        <ele>215</ele>
        <time>2020-08-16T12:43:45Z</time>
      </trkpt>
      <trkpt lat="48.64266" lon="6.432">
        <ele>216</ele>
        <time>2020-08-16T12:43:46Z</time>
      </trkpt>
      <trkpt lat="48.64266" lon="6.43209">
        <ele>216</ele>
        <time>2020-08-16T12:43:48Z</time>
      </trkpt>
      <trkpt lat="48.64263" lon="6.43219">
        <ele>216</ele>
        <time>2020-08-16T12:43:50Z</time>
      </trkpt>
      <trkpt lat="48.64262" lon="6.43228">
        <ele>216</ele>
        <time>2020-08-16T12:43:52Z</time>
      </trkpt>
      <trkpt lat="48.6426" lon="6.43236">
        <ele>216</ele>
        <time>2020-08-16T12:43:54Z</time>
      </trkpt>
      <trkpt lat="48.64257" lon="6.43244">
        <ele>216</ele>
        <time>2020-08-16T12:43:56Z</time>
      </trkpt>
      <trkpt lat="48.64255" lon="6.43251">
        <ele>216</ele>
        <time>2020-08-16T12:43:58Z</time>
      </trkpt>
      <trkpt lat="48.64253" lon="6.43259">
        <ele>216</ele>
        <time>2020-08-16T12:44:00Z</time>
      </trkpt>
      <trkpt lat="48.64251" lon="6.43268">
        <ele>216</ele>
        <time>2020-08-16T12:44:02Z</time>
      </trkpt>
      <trkpt lat="48.64248" lon="6.43276">
        <ele>216</ele>
        <time>2020-08-16T12:44:04Z</time>
      </trkpt>
      <trkpt lat="48.64247" lon="6.43284">
        <ele>215</ele>
        <time>2020-08-16T12:44:06Z</time>
      </trkpt>
      <trkpt lat="48.64244" lon="6.43291">
        <ele>216</ele>
        <time>2020-08-16T12:44:08Z</time>
      </trkpt>
      <trkpt lat="48.64241" lon="6.43298">
        <ele>216</ele>
        <time>2020-08-16T12:44:10Z</time>
      </trkpt>
      <trkpt lat="48.64238" lon="6.43305">
        <ele>215</ele>
        <time>2020-08-16T12:44:12Z</time>
      </trkpt>
      <trkpt lat="48.64234" lon="6.43312">
        <ele>216</ele>
        <time>2020-08-16T12:44:14Z</time>
      </trkpt>
      <trkpt lat="48.64231" lon="6.43321">
        <ele>216</ele>
        <time>2020-08-16T12:44:16Z</time>
      </trkpt>
      <trkpt lat="48.64228" lon="6.43331">
        <ele>215</ele>
        <time>2020-08-16T12:44:18Z</time>
      </trkpt>
      <trkpt lat="48.64226" lon="6.43338">
        <ele>215</ele>
        <time>2020-08-16T12:44:20Z</time>
      </trkpt>
      <trkpt lat="48.64224" lon="6.43345">
        <ele>216</ele>
        <time>2020-08-16T12:44:22Z</time>
      </trkpt>
      <trkpt lat="48.64221" lon="6.43355">
        <ele>216</ele>
        <time>2020-08-16T12:44:24Z</time>
      </trkpt>
      <trkpt lat="48.6422" lon="6.43363">
        <ele>216</ele>
        <time>2020-08-16T12:44:26Z</time>
      </trkpt>
      <trkpt lat="48.64218" lon="6.43373">
        <ele>216</ele>
        <time>2020-08-16T12:44:28Z</time>
      </trkpt>
      <trkpt lat="48.64217" lon="6.43383">
        <ele>216</ele>
        <time>2020-08-16T12:44:30Z</time>
      </trkpt>
      <trkpt lat="48.64215" lon="6.43392">
        <ele>216</ele>
        <time>2020-08-16T12:44:32Z</time>
      </trkpt>
      <trkpt lat="48.64213" lon="6.43401">
        <ele>216</ele>
        <time>2020-08-16T12:44:34Z</time>
      </trkpt>
      <trkpt lat="48.64211" lon="6.4341">
        <ele>215</ele>
        <time>2020-08-16T12:44:36Z</time>
      </trkpt>
      <trkpt lat="48.6421" lon="6.43419">
        <ele>215</ele>
        <time>2020-08-16T12:44:38Z</time>
      </trkpt>
      <trkpt lat="48.64211" lon="6.4343">
        <ele>215</ele>
        <time>2020-08-16T12:44:40Z</time>
      </trkpt>
      <trkpt lat="48.6421" lon="6.43438">
        <ele>215</ele>
        <time>2020-08-16T12:44:42Z</time>
      </trkpt>
      <trkpt lat="48.64208" lon="6.43447">
        <ele>216</ele>
        <time>2020-08-16T12:44:44Z</time>
      </trkpt>
      <trkpt lat="48.64208" lon="6.43455">
        <ele>215</ele>
        <time>2020-08-16T12:44:46Z</time>
      </trkpt>
      <trkpt lat="48.64207" lon="6.43465">
        <ele>216</ele>
        <time>2020-08-16T12:44:48Z</time>
      </trkpt>
      <trkpt lat="48.64206" lon="6.43475">
        <ele>216</ele>
        <time>2020-08-16T12:44:50Z</time>
      </trkpt>
      <trkpt lat="48.64204" lon="6.43483">
        <ele>216</ele>
        <time>2020-08-16T12:44:52Z</time>
      </trkpt>
      <trkpt lat="48.64204" lon="6.43491">
        <ele>216</ele>
        <time>2020-08-16T12:44:54Z</time>
      </trkpt>
      <trkpt lat="48.64204" lon="6.43499">
        <ele>216</ele>
        <time>2020-08-16T12:44:56Z</time>
      </trkpt>
      <trkpt lat="48.64204" lon="6.4351">
        <ele>216</ele>
        <time>2020-08-16T12:44:58Z</time>
      </trkpt>
      <trkpt lat="48.64207" lon="6.4352">
        <ele>215</ele>
        <time>2020-08-16T12:45:00Z</time>
      </trkpt>
      <trkpt lat="48.64207" lon="6.43528">
        <ele>215</ele>
        <time>2020-08-16T12:45:02Z</time>
      </trkpt>
      <trkpt lat="48.64207" lon="6.43535">
        <ele>215</ele>
        <time>2020-08-16T12:45:04Z</time>
      </trkpt>
      <trkpt lat="48.6421" lon="6.43543">
        <ele>215</ele>
        <time>2020-08-16T12:45:06Z</time>
      </trkpt>
      <trkpt lat="48.64212" lon="6.43552">
        <ele>215</ele>
        <time>2020-08-16T12:45:08Z</time>
      </trkpt>
      <trkpt lat="48.64216" lon="6.43557">
        <ele>215</ele>
        <time>2020-08-16T12:45:09Z</time>
      </trkpt>
      <trkpt lat="48.64216" lon="6.43565">
        <ele>215</ele>
        <time>2020-08-16T12:45:11Z</time>
      </trkpt>
      <trkpt lat="48.64217" lon="6.43572">
        <ele>215</ele>
        <time>2020-08-16T12:45:13Z</time>
      </trkpt>
      <trkpt lat="48.6422" lon="6.43579">
        <ele>215</ele>
        <time>2020-08-16T12:45:15Z</time>
      </trkpt>
      <trkpt lat="48.64222" lon="6.43589">
        <ele>215</ele>
        <time>2020-08-16T12:45:18Z</time>
      </trkpt>
      <trkpt lat="48.64224" lon="6.43598">
        <ele>215</ele>
        <time>2020-08-16T12:45:20Z</time>
      </trkpt>
      <trkpt lat="48.64225" lon="6.43606">
        <ele>215</ele>
        <time>2020-08-16T12:45:22Z</time>
      </trkpt>
      <trkpt lat="48.64228" lon="6.43615">
        <ele>215</ele>
        <time>2020-08-16T12:45:24Z</time>
      </trkpt>
      <trkpt lat="48.64229" lon="6.43622">
        <ele>215</ele>
        <time>2020-08-16T12:45:26Z</time>
      </trkpt>
      <trkpt lat="48.6423" lon="6.43632">
        <ele>215</ele>
        <time>2020-08-16T12:45:28Z</time>
      </trkpt>
      <trkpt lat="48.64231" lon="6.4364">
        <ele>215</ele>
        <time>2020-08-16T12:45:30Z</time>
      </trkpt>
      <trkpt lat="48.64231" lon="6.43647">
        <ele>216</ele>
        <time>2020-08-16T12:45:32Z</time>
      </trkpt>
      <trkpt lat="48.64234" lon="6.43656">
        <ele>215</ele>
        <time>2020-08-16T12:45:34Z</time>
      </trkpt>
      <trkpt lat="48.64237" lon="6.43663">
        <ele>215</ele>
        <time>2020-08-16T12:45:36Z</time>
      </trkpt>
      <trkpt lat="48.64237" lon="6.43671">
        <ele>215</ele>
        <time>2020-08-16T12:45:38Z</time>
      </trkpt>
      <trkpt lat="48.64241" lon="6.4368">
        <ele>215</ele>
        <time>2020-08-16T12:45:40Z</time>
      </trkpt>
      <trkpt lat="48.64242" lon="6.43688">
        <ele>215</ele>
        <time>2020-08-16T12:45:42Z</time>
      </trkpt>
      <trkpt lat="48.64245" lon="6.43697">
        <ele>215</ele>
        <time>2020-08-16T12:45:44Z</time>
      </trkpt>
      <trkpt lat="48.64248" lon="6.43706">
        <ele>215</ele>
        <time>2020-08-16T12:45:46Z</time>
      </trkpt>
      <trkpt lat="48.64251" lon="6.43714">
        <ele>215</ele>
        <time>2020-08-16T12:45:48Z</time>
      </trkpt>
      <trkpt lat="48.64252" lon="6.43722">
        <ele>215</ele>
        <time>2020-08-16T12:45:50Z</time>
      </trkpt>
      <trkpt lat="48.64252" lon="6.4373">
        <ele>215</ele>
        <time>2020-08-16T12:45:52Z</time>
      </trkpt>
      <trkpt lat="48.64255" lon="6.4374">
        <ele>215</ele>
        <time>2020-08-16T12:45:54Z</time>
      </trkpt>
      <trkpt lat="48.64258" lon="6.43747">
        <ele>215</ele>
        <time>2020-08-16T12:45:56Z</time>
      </trkpt>
      <trkpt lat="48.64258" lon="6.43756">
        <ele>215</ele>
        <time>2020-08-16T12:45:58Z</time>
      </trkpt>
      <trkpt lat="48.64261" lon="6.43766">
        <ele>215</ele>
        <time>2020-08-16T12:46:00Z</time>
      </trkpt>
      <trkpt lat="48.64261" lon="6.43775">
        <ele>215</ele>
        <time>2020-08-16T12:46:02Z</time>
      </trkpt>
      <trkpt lat="48.64262" lon="6.43781">
        <ele>215</ele>
        <time>2020-08-16T12:46:04Z</time>
      </trkpt>
      <trkpt lat="48.64265" lon="6.4379">
        <ele>215</ele>
        <time>2020-08-16T12:46:06Z</time>
      </trkpt>
      <trkpt lat="48.64265" lon="6.43799">
        <ele>215</ele>
        <time>2020-08-16T12:46:08Z</time>
      </trkpt>
      <trkpt lat="48.64266" lon="6.43809">
        <ele>215</ele>
        <time>2020-08-16T12:46:10Z</time>
      </trkpt>
      <trkpt lat="48.64268" lon="6.43818">
        <ele>215</ele>
        <time>2020-08-16T12:46:12Z</time>
      </trkpt>
      <trkpt lat="48.64266" lon="6.43828">
        <ele>215</ele>
        <time>2020-08-16T12:46:14Z</time>
      </trkpt>
      <trkpt lat="48.64265" lon="6.43837">
        <ele>215</ele>
        <time>2020-08-16T12:46:16Z</time>
      </trkpt>
      <trkpt lat="48.64266" lon="6.43846">
        <ele>216</ele>
        <time>2020-08-16T12:46:18Z</time>
      </trkpt>
      <trkpt lat="48.64268" lon="6.43857">
        <ele>215</ele>
        <time>2020-08-16T12:46:20Z</time>
      </trkpt>
      <trkpt lat="48.6427" lon="6.43866">
        <ele>215</ele>
        <time>2020-08-16T12:46:22Z</time>
      </trkpt>
      <trkpt lat="48.64271" lon="6.43876">
        <ele>215</ele>
        <time>2020-08-16T12:46:24Z</time>
      </trkpt>
      <trkpt lat="48.64272" lon="6.43886">
        <ele>215</ele>
        <time>2020-08-16T12:46:26Z</time>
      </trkpt>
      <trkpt lat="48.64273" lon="6.43894">
        <ele>215</ele>
        <time>2020-08-16T12:46:28Z</time>
      </trkpt>
      <trkpt lat="48.64274" lon="6.43903">
        <ele>216</ele>
        <time>2020-08-16T12:46:30Z</time>
      </trkpt>
      <trkpt lat="48.64275" lon="6.43914">
        <ele>216</ele>
        <time>2020-08-16T12:46:32Z</time>
      </trkpt>
      <trkpt lat="48.64273" lon="6.43923">
        <ele>216</ele>
        <time>2020-08-16T12:46:34Z</time>
      </trkpt>
      <trkpt lat="48.64276" lon="6.43933">
        <ele>216</ele>
        <time>2020-08-16T12:46:36Z</time>
      </trkpt>
      <trkpt lat="48.64277" lon="6.43945">
        <ele>216</ele>
        <time>2020-08-16T12:46:38Z</time>
      </trkpt>
      <trkpt lat="48.64277" lon="6.43956">
        <ele>216</ele>
        <time>2020-08-16T12:46:40Z</time>
      </trkpt>
      <trkpt lat="48.64278" lon="6.43965">
        <ele>216</ele>
        <time>2020-08-16T12:46:42Z</time>
      </trkpt>
      <trkpt lat="48.6428" lon="6.43974">
        <ele>216</ele>
        <time>2020-08-16T12:46:44Z</time>
      </trkpt>
      <trkpt lat="48.64282" lon="6.43983">
        <ele>216</ele>
        <time>2020-08-16T12:46:46Z</time>
      </trkpt>
      <trkpt lat="48.64283" lon="6.43993">
        <ele>216</ele>
        <time>2020-08-16T12:46:48Z</time>
      </trkpt>
      <trkpt lat="48.64284" lon="6.44003">
        <ele>216</ele>
        <time>2020-08-16T12:46:50Z</time>
      </trkpt>
      <trkpt lat="48.64285" lon="6.44011">
        <ele>216</ele>
        <time>2020-08-16T12:46:52Z</time>
      </trkpt>
      <trkpt lat="48.64285" lon="6.44021">
        <ele>216</ele>
        <time>2020-08-16T12:46:54Z</time>
      </trkpt>
      <trkpt lat="48.64285" lon="6.4403">
        <ele>217</ele>
        <time>2020-08-16T12:46:56Z</time>
      </trkpt>
      <trkpt lat="48.64286" lon="6.44039">
        <ele>217</ele>
        <time>2020-08-16T12:46:58Z</time>
      </trkpt>
      <trkpt lat="48.64286" lon="6.44049">
        <ele>217</ele>
        <time>2020-08-16T12:47:00Z</time>
      </trkpt>
      <trkpt lat="48.64286" lon="6.44057">
        <ele>217</ele>
        <time>2020-08-16T12:47:02Z</time>
      </trkpt>
      <trkpt lat="48.64285" lon="6.44065">
        <ele>217</ele>
        <time>2020-08-16T12:47:15Z</time>
      </trkpt>
      <trkpt lat="48.64286" lon="6.44074">
        <ele>216</ele>
        <time>2020-08-16T12:47:18Z</time>
      </trkpt>
      <trkpt lat="48.64286" lon="6.44083">
        <ele>216</ele>
        <time>2020-08-16T12:47:21Z</time>
      </trkpt>
      <trkpt lat="48.64287" lon="6.44091">
        <ele>215</ele>
        <time>2020-08-16T12:47:24Z</time>
      </trkpt>
      <trkpt lat="48.64287" lon="6.44098">
        <ele>215</ele>
        <time>2020-08-16T12:47:27Z</time>
      </trkpt>
      <trkpt lat="48.64288" lon="6.44105">
        <ele>215</ele>
        <time>2020-08-16T12:47:30Z</time>
      </trkpt>
      <trkpt lat="48.6429" lon="6.44115">
        <ele>215</ele>
        <time>2020-08-16T12:48:18Z</time>
      </trkpt>
      <trkpt lat="48.64291" lon="6.44125">
        <ele>215</ele>
        <time>2020-08-16T12:48:20Z</time>
      </trkpt>
      <trkpt lat="48.64293" lon="6.44136">
        <ele>215</ele>
        <time>2020-08-16T12:48:22Z</time>
      </trkpt>
      <trkpt lat="48.64293" lon="6.44149">
        <ele>215</ele>
        <time>2020-08-16T12:48:24Z</time>
      </trkpt>
      <trkpt lat="48.64294" lon="6.44156">
        <ele>214</ele>
        <time>2020-08-16T12:48:25Z</time>
      </trkpt>
      <trkpt lat="48.64294" lon="6.44168">
        <ele>214</ele>
        <time>2020-08-16T12:48:27Z</time>
      </trkpt>
      <trkpt lat="48.64294" lon="6.4418">
        <ele>214</ele>
        <time>2020-08-16T12:48:29Z</time>
      </trkpt>
      <trkpt lat="48.64296" lon="6.44191">
        <ele>214</ele>
        <time>2020-08-16T12:48:31Z</time>
      </trkpt>
      <trkpt lat="48.64298" lon="6.44202">
        <ele>214</ele>
        <time>2020-08-16T12:48:33Z</time>
      </trkpt>
      <trkpt lat="48.643" lon="6.44213">
        <ele>214</ele>
        <time>2020-08-16T12:48:35Z</time>
      </trkpt>
      <trkpt lat="48.64302" lon="6.44224">
        <ele>214</ele>
        <time>2020-08-16T12:48:37Z</time>
      </trkpt>
      <trkpt lat="48.64307" lon="6.44235">
        <ele>214</ele>
        <time>2020-08-16T12:48:39Z</time>
      </trkpt>
      <trkpt lat="48.6431" lon="6.44245">
        <ele>214</ele>
        <time>2020-08-16T12:48:41Z</time>
      </trkpt>
      <trkpt lat="48.64314" lon="6.44255">
        <ele>215</ele>
        <time>2020-08-16T12:48:43Z</time>
      </trkpt>
      <trkpt lat="48.64316" lon="6.44261">
        <ele>215</ele>
        <time>2020-08-16T12:48:44Z</time>
      </trkpt>
      <trkpt lat="48.64319" lon="6.44271">
        <ele>215</ele>
        <time>2020-08-16T12:48:46Z</time>
      </trkpt>
      <trkpt lat="48.64323" lon="6.44279">
        <ele>215</ele>
        <time>2020-08-16T12:48:48Z</time>
      </trkpt>
      <trkpt lat="48.64326" lon="6.44289">
        <ele>215</ele>
        <time>2020-08-16T12:48:50Z</time>
      </trkpt>
      <trkpt lat="48.64328" lon="6.44298">
        <ele>215</ele>
        <time>2020-08-16T12:48:52Z</time>
      </trkpt>
      <trkpt lat="48.64332" lon="6.44304">
        <ele>215</ele>
        <time>2020-08-16T12:48:53Z</time>
      </trkpt>
      <trkpt lat="48.64336" lon="6.44311">
        <ele>215</ele>
        <time>2020-08-16T12:48:55Z</time>
      </trkpt>
      <trkpt lat="48.64342" lon="6.44319">
        <ele>215</ele>
        <time>2020-08-16T12:48:57Z</time>
      </trkpt>
      <trkpt lat="48.64348" lon="6.44327">
        <ele>216</ele>
        <time>2020-08-16T12:48:59Z</time>
      </trkpt>
      <trkpt lat="48.64351" lon="6.44337">
        <ele>215</ele>
        <time>2020-08-16T12:49:01Z</time>
      </trkpt>
      <trkpt lat="48.64356" lon="6.44347">
        <ele>216</ele>
        <time>2020-08-16T12:49:03Z</time>
      </trkpt>
      <trkpt lat="48.64361" lon="6.44355">
        <ele>216</ele>
        <time>2020-08-16T12:49:05Z</time>
      </trkpt>
      <trkpt lat="48.64364" lon="6.4436">
        <ele>216</ele>
        <time>2020-08-16T12:49:06Z</time>
      </trkpt>
      <trkpt lat="48.64368" lon="6.44366">
        <ele>216</ele>
        <time>2020-08-16T12:49:07Z</time>
      </trkpt>
      <trkpt lat="48.64372" lon="6.44375">
        <ele>216</ele>
        <time>2020-08-16T12:49:09Z</time>
      </trkpt>
      <trkpt lat="48.64377" lon="6.44384">
        <ele>216</ele>
        <time>2020-08-16T12:49:11Z</time>
      </trkpt>
      <trkpt lat="48.64382" lon="6.44392">
        <ele>216</ele>
        <time>2020-08-16T12:49:13Z</time>
      </trkpt>
      <trkpt lat="48.64387" lon="6.44402">
        <ele>216</ele>
        <time>2020-08-16T12:49:15Z</time>
      </trkpt>
      <trkpt lat="48.64391" lon="6.44411">
        <ele>216</ele>
        <time>2020-08-16T12:49:17Z</time>
      </trkpt>
      <trkpt lat="48.64396" lon="6.44421">
        <ele>217</ele>
        <time>2020-08-16T12:49:19Z</time>
      </trkpt>
      <trkpt lat="48.64399" lon="6.44427">
        <ele>217</ele>
        <time>2020-08-16T12:49:20Z</time>
      </trkpt>
      <trkpt lat="48.64402" lon="6.44435">
        <ele>217</ele>
        <time>2020-08-16T12:49:22Z</time>
      </trkpt>
      <trkpt lat="48.64408" lon="6.44445">
        <ele>217</ele>
        <time>2020-08-16T12:49:24Z</time>
      </trkpt>
      <trkpt lat="48.64414" lon="6.44455">
        <ele>217</ele>
        <time>2020-08-16T12:49:26Z</time>
      </trkpt>
      <trkpt lat="48.64418" lon="6.44463">
        <ele>218</ele>
        <time>2020-08-16T12:49:28Z</time>
      </trkpt>
      <trkpt lat="48.64421" lon="6.44473">
        <ele>218</ele>
        <time>2020-08-16T12:49:30Z</time>
      </trkpt>
      <trkpt lat="48.64424" lon="6.44483">
        <ele>218</ele>
        <time>2020-08-16T12:49:32Z</time>
      </trkpt>
      <trkpt lat="48.64426" lon="6.44492">
        <ele>218</ele>
        <time>2020-08-16T12:49:34Z</time>
      </trkpt>
      <trkpt lat="48.64429" lon="6.44501">
        <ele>218</ele>
        <time>2020-08-16T12:49:36Z</time>
      </trkpt>
      <trkpt lat="48.64431" lon="6.44511">
        <ele>218</ele>
        <time>2020-08-16T12:49:38Z</time>
      </trkpt>
      <trkpt lat="48.64433" lon="6.44518">
        <ele>218</ele>
        <time>2020-08-16T12:49:40Z</time>
      </trkpt>
      <trkpt lat="48.64436" lon="6.44527">
        <ele>218</ele>
        <time>2020-08-16T12:49:43Z</time>
      </trkpt>
      <trkpt lat="48.64437" lon="6.44535">
        <ele>218</ele>
        <time>2020-08-16T12:49:45Z</time>
      </trkpt>
      <trkpt lat="48.64439" lon="6.44543">
        <ele>218</ele>
        <time>2020-08-16T12:49:48Z</time>
      </trkpt>
      <trkpt lat="48.64443" lon="6.44551">
        <ele>219</ele>
        <time>2020-08-16T12:49:51Z</time>
      </trkpt>
      <trkpt lat="48.64447" lon="6.44557">
        <ele>219</ele>
        <time>2020-08-16T12:49:53Z</time>
      </trkpt>
      <trkpt lat="48.64452" lon="6.44563">
        <ele>219</ele>
        <time>2020-08-16T12:49:56Z</time>
      </trkpt>
      <trkpt lat="48.64457" lon="6.44568">
        <ele>219</ele>
        <time>2020-08-16T12:49:58Z</time>
      </trkpt>
      <trkpt lat="48.64459" lon="6.44575">
        <ele>219</ele>
        <time>2020-08-16T12:50:00Z</time>
      </trkpt>
      <trkpt lat="48.6446" lon="6.44583">
        <ele>219</ele>
        <time>2020-08-16T12:50:02Z</time>
      </trkpt>
      <trkpt lat="48.64463" lon="6.4459">
        <ele>219</ele>
        <time>2020-08-16T12:50:04Z</time>
      </trkpt>
      <trkpt lat="48.64465" lon="6.44599">
        <ele>219</ele>
        <time>2020-08-16T12:50:06Z</time>
      </trkpt>
      <trkpt lat="48.64467" lon="6.44608">
        <ele>219</ele>
        <time>2020-08-16T12:50:08Z</time>
      </trkpt>
      <trkpt lat="48.6447" lon="6.44616">
        <ele>219</ele>
        <time>2020-08-16T12:50:10Z</time>
      </trkpt>
      <trkpt lat="48.64473" lon="6.44625">
        <ele>219</ele>
        <time>2020-08-16T12:50:12Z</time>
      </trkpt>
      <trkpt lat="48.64477" lon="6.44636">
        <ele>219</ele>
        <time>2020-08-16T12:50:14Z</time>
      </trkpt>
      <trkpt lat="48.6448" lon="6.44646">
        <ele>220</ele>
        <time>2020-08-16T12:50:16Z</time>
      </trkpt>
      <trkpt lat="48.64483" lon="6.44658">
        <ele>220</ele>
        <time>2020-08-16T12:50:18Z</time>
      </trkpt>
      <trkpt lat="48.64486" lon="6.44669">
        <ele>220</ele>
        <time>2020-08-16T12:50:20Z</time>
      </trkpt>
      <trkpt lat="48.64489" lon="6.4468">
        <ele>220</ele>
        <time>2020-08-16T12:50:22Z</time>
      </trkpt>
      <trkpt lat="48.64492" lon="6.44692">
        <ele>220</ele>
        <time>2020-08-16T12:50:24Z</time>
      </trkpt>
      <trkpt lat="48.64496" lon="6.44702">
        <ele>220</ele>
        <time>2020-08-16T12:50:26Z</time>
      </trkpt>
      <trkpt lat="48.645" lon="6.44713">
        <ele>220</ele>
        <time>2020-08-16T12:50:28Z</time>
      </trkpt>
      <trkpt lat="48.64504" lon="6.44724">
        <ele>220</ele>
        <time>2020-08-16T12:50:30Z</time>
      </trkpt>
      <trkpt lat="48.64507" lon="6.44736">
        <ele>220</ele>
        <time>2020-08-16T12:50:32Z</time>
      </trkpt>
      <trkpt lat="48.64509" lon="6.44743">
        <ele>220</ele>
        <time>2020-08-16T12:50:33Z</time>
      </trkpt>
      <trkpt lat="48.64513" lon="6.44754">
        <ele>220</ele>
        <time>2020-08-16T12:50:35Z</time>
      </trkpt>
      <trkpt lat="48.64515" lon="6.44765">
        <ele>220</ele>
        <time>2020-08-16T12:50:37Z</time>
      </trkpt>
      <trkpt lat="48.64517" lon="6.44772">
        <ele>220</ele>
        <time>2020-08-16T12:50:38Z</time>
      </trkpt>
      <trkpt lat="48.6452" lon="6.44784">
        <ele>220</ele>
        <time>2020-08-16T12:50:40Z</time>
      </trkpt>
      <trkpt lat="48.64522" lon="6.44791">
        <ele>220</ele>
        <time>2020-08-16T12:50:41Z</time>
      </trkpt>
      <trkpt lat="48.64524" lon="6.44797">
        <ele>220</ele>
        <time>2020-08-16T12:50:42Z</time>
      </trkpt>
      <trkpt lat="48.64526" lon="6.44804">
        <ele>220</ele>
        <time>2020-08-16T12:50:43Z</time>
      </trkpt>
      <trkpt lat="48.64527" lon="6.4481">
        <ele>220</ele>
        <time>2020-08-16T12:50:44Z</time>
      </trkpt>
      <trkpt lat="48.64528" lon="6.44817">
        <ele>220</ele>
        <time>2020-08-16T12:50:45Z</time>
      </trkpt>
      <trkpt lat="48.64531" lon="6.44823">
        <ele>221</ele>
        <time>2020-08-16T12:50:46Z</time>
      </trkpt>
      <trkpt lat="48.64534" lon="6.44836">
        <ele>221</ele>
        <time>2020-08-16T12:50:48Z</time>
      </trkpt>
      <trkpt lat="48.64536" lon="6.44843">
        <ele>221</ele>
        <time>2020-08-16T12:50:49Z</time>
      </trkpt>
      <trkpt lat="48.64539" lon="6.44856">
        <ele>221</ele>
        <time>2020-08-16T12:50:51Z</time>
      </trkpt>
      <trkpt lat="48.64541" lon="6.44868">
        <ele>221</ele>
        <time>2020-08-16T12:50:53Z</time>
      </trkpt>
      <trkpt lat="48.64543" lon="6.44879">
        <ele>221</ele>
        <time>2020-08-16T12:50:55Z</time>
      </trkpt>
      <trkpt lat="48.64545" lon="6.44892">
        <ele>221</ele>
        <time>2020-08-16T12:50:57Z</time>
      </trkpt>
      <trkpt lat="48.64549" lon="6.44903">
        <ele>221</ele>
        <time>2020-08-16T12:50:59Z</time>
      </trkpt>
      <trkpt lat="48.6455" lon="6.4491">
        <ele>221</ele>
        <time>2020-08-16T12:51:00Z</time>
      </trkpt>
      <trkpt lat="48.64553" lon="6.44922">
        <ele>221</ele>
        <time>2020-08-16T12:51:02Z</time>
      </trkpt>
      <trkpt lat="48.64556" lon="6.44928">
        <ele>221</ele>
        <time>2020-08-16T12:51:03Z</time>
      </trkpt>
      <trkpt lat="48.64558" lon="6.4494">
        <ele>221</ele>
        <time>2020-08-16T12:51:05Z</time>
      </trkpt>
      <trkpt lat="48.64561" lon="6.44947">
        <ele>221</ele>
        <time>2020-08-16T12:51:06Z</time>
      </trkpt>
      <trkpt lat="48.64564" lon="6.4496">
        <ele>221</ele>
        <time>2020-08-16T12:51:08Z</time>
      </trkpt>
      <trkpt lat="48.64566" lon="6.44968">
        <ele>221</ele>
        <time>2020-08-16T12:51:09Z</time>
      </trkpt>
      <trkpt lat="48.64568" lon="6.44975">
        <ele>221</ele>
        <time>2020-08-16T12:51:10Z</time>
      </trkpt>
      <trkpt lat="48.6457" lon="6.44982">
        <ele>221</ele>
        <time>2020-08-16T12:51:11Z</time>
      </trkpt>
      <trkpt lat="48.64573" lon="6.44996">
        <ele>221</ele>
        <time>2020-08-16T12:51:13Z</time>
      </trkpt>
      <trkpt lat="48.64574" lon="6.45002">
        <ele>220</ele>
        <time>2020-08-16T12:51:14Z</time>
      </trkpt>
      <trkpt lat="48.64578" lon="6.45009">
        <ele>221</ele>
        <time>2020-08-16T12:51:15Z</time>
      </trkpt>
      <trkpt lat="48.64578" lon="6.4502">
        <ele>221</ele>
        <time>2020-08-16T12:51:17Z</time>
      </trkpt>
      <trkpt lat="48.64582" lon="6.45031">
        <ele>221</ele>
        <time>2020-08-16T12:51:19Z</time>
      </trkpt>
      <trkpt lat="48.64586" lon="6.45041">
        <ele>221</ele>
        <time>2020-08-16T12:51:21Z</time>
      </trkpt>
      <trkpt lat="48.64587" lon="6.45053">
        <ele>221</ele>
        <time>2020-08-16T12:51:23Z</time>
      </trkpt>
      <trkpt lat="48.64592" lon="6.45064">
        <ele>221</ele>
        <time>2020-08-16T12:51:25Z</time>
      </trkpt>
      <trkpt lat="48.64593" lon="6.45071">
        <ele>220</ele>
        <time>2020-08-16T12:51:26Z</time>
      </trkpt>
      <trkpt lat="48.64595" lon="6.45079">
        <ele>220</ele>
        <time>2020-08-16T12:51:27Z</time>
      </trkpt>
      <trkpt lat="48.64597" lon="6.45092">
        <ele>220</ele>
        <time>2020-08-16T12:51:29Z</time>
      </trkpt>
      <trkpt lat="48.646" lon="6.45104">
        <ele>219</ele>
        <time>2020-08-16T12:51:31Z</time>
      </trkpt>
      <trkpt lat="48.64602" lon="6.45117">
        <ele>219</ele>
        <time>2020-08-16T12:51:33Z</time>
      </trkpt>
      <trkpt lat="48.64605" lon="6.45125">
        <ele>219</ele>
        <time>2020-08-16T12:51:34Z</time>
      </trkpt>
      <trkpt lat="48.64607" lon="6.45138">
        <ele>219</ele>
        <time>2020-08-16T12:51:36Z</time>
      </trkpt>
      <trkpt lat="48.64609" lon="6.45145">
        <ele>219</ele>
        <time>2020-08-16T12:51:37Z</time>
      </trkpt>
      <trkpt lat="48.64613" lon="6.45157">
        <ele>219</ele>
        <time>2020-08-16T12:51:39Z</time>
      </trkpt>
      <trkpt lat="48.64615" lon="6.45163">
        <ele>219</ele>
        <time>2020-08-16T12:51:40Z</time>
      </trkpt>
      <trkpt lat="48.64616" lon="6.45175">
        <ele>219</ele>
        <time>2020-08-16T12:51:42Z</time>
      </trkpt>
      <trkpt lat="48.64619" lon="6.45187">
        <ele>219</ele>
        <time>2020-08-16T12:51:44Z</time>
      </trkpt>
      <trkpt lat="48.64621" lon="6.45193">
        <ele>219</ele>
        <time>2020-08-16T12:51:45Z</time>
      </trkpt>
      <trkpt lat="48.64621" lon="6.45201">
        <ele>219</ele>
        <time>2020-08-16T12:51:46Z</time>
      </trkpt>
      <trkpt lat="48.64624" lon="6.45213">
        <ele>219</ele>
        <time>2020-08-16T12:51:48Z</time>
      </trkpt>
      <trkpt lat="48.64627" lon="6.45224">
        <ele>220</ele>
        <time>2020-08-16T12:51:50Z</time>
      </trkpt>
      <trkpt lat="48.64629" lon="6.45235">
        <ele>219</ele>
        <time>2020-08-16T12:51:52Z</time>
      </trkpt>
      <trkpt lat="48.64631" lon="6.45242">
        <ele>220</ele>
        <time>2020-08-16T12:51:53Z</time>
      </trkpt>
      <trkpt lat="48.64634" lon="6.45255">
        <ele>220</ele>
        <time>2020-08-16T12:51:55Z</time>
      </trkpt>
      <trkpt lat="48.64636" lon="6.45262">
        <ele>220</ele>
        <time>2020-08-16T12:51:56Z</time>
      </trkpt>
      <trkpt lat="48.64639" lon="6.45274">
        <ele>220</ele>
        <time>2020-08-16T12:51:58Z</time>
      </trkpt>
      <trkpt lat="48.6464" lon="6.4528">
        <ele>220</ele>
        <time>2020-08-16T12:51:59Z</time>
      </trkpt>
      <trkpt lat="48.64644" lon="6.45293">
        <ele>220</ele>
        <time>2020-08-16T12:52:01Z</time>
      </trkpt>
      <trkpt lat="48.64645" lon="6.45299">
        <ele>220</ele>
        <time>2020-08-16T12:52:02Z</time>
      </trkpt>
      <trkpt lat="48.6465" lon="6.45312">
        <ele>220</ele>
        <time>2020-08-16T12:52:04Z</time>
      </trkpt>
      <trkpt lat="48.64652" lon="6.45324">
        <ele>219</ele>
        <time>2020-08-16T12:52:06Z</time>
      </trkpt>
      <trkpt lat="48.64656" lon="6.45336">
        <ele>219</ele>
        <time>2020-08-16T12:52:08Z</time>
      </trkpt>
      <trkpt lat="48.64656" lon="6.45343">
        <ele>219</ele>
        <time>2020-08-16T12:52:09Z</time>
      </trkpt>
      <trkpt lat="48.6466" lon="6.45356">
        <ele>220</ele>
        <time>2020-08-16T12:52:11Z</time>
      </trkpt>
      <trkpt lat="48.64662" lon="6.45362">
        <ele>220</ele>
        <time>2020-08-16T12:52:12Z</time>
      </trkpt>
      <trkpt lat="48.64667" lon="6.45375">
        <ele>220</ele>
        <time>2020-08-16T12:52:14Z</time>
      </trkpt>
      <trkpt lat="48.64668" lon="6.45381">
        <ele>220</ele>
        <time>2020-08-16T12:52:15Z</time>
      </trkpt>
      <trkpt lat="48.6467" lon="6.45388">
        <ele>220</ele>
        <time>2020-08-16T12:52:16Z</time>
      </trkpt>
      <trkpt lat="48.64674" lon="6.45394">
        <ele>220</ele>
        <time>2020-08-16T12:52:17Z</time>
      </trkpt>
      <trkpt lat="48.64676" lon="6.45406">
        <ele>220</ele>
        <time>2020-08-16T12:52:19Z</time>
      </trkpt>
      <trkpt lat="48.64678" lon="6.45417">
        <ele>220</ele>
        <time>2020-08-16T12:52:21Z</time>
      </trkpt>
      <trkpt lat="48.64681" lon="6.4543">
        <ele>220</ele>
        <time>2020-08-16T12:52:23Z</time>
      </trkpt>
      <trkpt lat="48.64685" lon="6.45442">
        <ele>220</ele>
        <time>2020-08-16T12:52:25Z</time>
      </trkpt>
      <trkpt lat="48.64687" lon="6.45448">
        <ele>220</ele>
        <time>2020-08-16T12:52:26Z</time>
      </trkpt>
      <trkpt lat="48.6469" lon="6.45461">
        <ele>220</ele>
        <time>2020-08-16T12:52:28Z</time>
      </trkpt>
      <trkpt lat="48.64692" lon="6.45468">
        <ele>220</ele>
        <time>2020-08-16T12:52:29Z</time>
      </trkpt>
      <trkpt lat="48.64694" lon="6.45474">
        <ele>220</ele>
        <time>2020-08-16T12:52:30Z</time>
      </trkpt>
      <trkpt lat="48.64697" lon="6.4548">
        <ele>220</ele>
        <time>2020-08-16T12:52:31Z</time>
      </trkpt>
      <trkpt lat="48.64699" lon="6.45486">
        <ele>220</ele>
        <time>2020-08-16T12:52:32Z</time>
      </trkpt>
      <trkpt lat="48.64703" lon="6.45497">
        <ele>221</ele>
        <time>2020-08-16T12:52:34Z</time>
      </trkpt>
      <trkpt lat="48.64706" lon="6.45504">
        <ele>221</ele>
        <time>2020-08-16T12:52:35Z</time>
      </trkpt>
      <trkpt lat="48.64711" lon="6.45515">
        <ele>221</ele>
        <time>2020-08-16T12:52:37Z</time>
      </trkpt>
      <trkpt lat="48.64713" lon="6.45522">
        <ele>221</ele>
        <time>2020-08-16T12:52:38Z</time>
      </trkpt>
      <trkpt lat="48.64718" lon="6.45532">
        <ele>221</ele>
        <time>2020-08-16T12:52:40Z</time>
      </trkpt>
      <trkpt lat="48.64723" lon="6.45543">
        <ele>221</ele>
        <time>2020-08-16T12:52:42Z</time>
      </trkpt>
      <trkpt lat="48.64728" lon="6.45554">
        <ele>221</ele>
        <time>2020-08-16T12:52:44Z</time>
      </trkpt>
      <trkpt lat="48.64731" lon="6.45559">
        <ele>221</ele>
        <time>2020-08-16T12:52:45Z</time>
      </trkpt>
      <trkpt lat="48.64735" lon="6.45565">
        <ele>221</ele>
        <time>2020-08-16T12:52:46Z</time>
      </trkpt>
      <trkpt lat="48.6474" lon="6.45576">
        <ele>221</ele>
        <time>2020-08-16T12:52:48Z</time>
      </trkpt>
      <trkpt lat="48.64747" lon="6.45587">
        <ele>220</ele>
        <time>2020-08-16T12:52:50Z</time>
      </trkpt>
      <trkpt lat="48.6475" lon="6.45593">
        <ele>220</ele>
        <time>2020-08-16T12:52:51Z</time>
      </trkpt>
      <trkpt lat="48.64753" lon="6.45599">
        <ele>220</ele>
        <time>2020-08-16T12:52:52Z</time>
      </trkpt>
      <trkpt lat="48.64755" lon="6.45606">
        <ele>220</ele>
        <time>2020-08-16T12:52:53Z</time>
      </trkpt>
      <trkpt lat="48.64757" lon="6.45612">
        <ele>220</ele>
        <time>2020-08-16T12:52:54Z</time>
      </trkpt>
      <trkpt lat="48.64762" lon="6.45623">
        <ele>220</ele>
        <time>2020-08-16T12:52:56Z</time>
      </trkpt>
      <trkpt lat="48.64767" lon="6.45633">
        <ele>220</ele>
        <time>2020-08-16T12:52:58Z</time>
      </trkpt>
      <trkpt lat="48.64772" lon="6.45643">
        <ele>220</ele>
        <time>2020-08-16T12:53:00Z</time>
      </trkpt>
      <trkpt lat="48.64774" lon="6.45653">
        <ele>220</ele>
        <time>2020-08-16T12:53:02Z</time>
      </trkpt>
      <trkpt lat="48.64778" lon="6.45664">
        <ele>221</ele>
        <time>2020-08-16T12:53:04Z</time>
      </trkpt>
      <trkpt lat="48.64783" lon="6.45673">
        <ele>221</ele>
        <time>2020-08-16T12:53:06Z</time>
      </trkpt>
      <trkpt lat="48.64788" lon="6.45684">
        <ele>221</ele>
        <time>2020-08-16T12:53:08Z</time>
      </trkpt>
      <trkpt lat="48.64791" lon="6.45693">
        <ele>221</ele>
        <time>2020-08-16T12:53:10Z</time>
      </trkpt>
      <trkpt lat="48.64795" lon="6.457">
        <ele>221</ele>
        <time>2020-08-16T12:53:11Z</time>
      </trkpt>
      <trkpt lat="48.648" lon="6.4571">
        <ele>221</ele>
        <time>2020-08-16T12:53:13Z</time>
      </trkpt>
      <trkpt lat="48.64804" lon="6.45714">
        <ele>221</ele>
        <time>2020-08-16T12:53:14Z</time>
      </trkpt>
      <trkpt lat="48.6481" lon="6.45724">
        <ele>221</ele>
        <time>2020-08-16T12:53:16Z</time>
      </trkpt>
      <trkpt lat="48.64816" lon="6.45733">
        <ele>221</ele>
        <time>2020-08-16T12:53:18Z</time>
      </trkpt>
      <trkpt lat="48.64822" lon="6.45742">
        <ele>221</ele>
        <time>2020-08-16T12:53:20Z</time>
      </trkpt>
      <trkpt lat="48.64828" lon="6.45751">
        <ele>221</ele>
        <time>2020-08-16T12:53:22Z</time>
      </trkpt>
      <trkpt lat="48.64832" lon="6.45761">
        <ele>221</ele>
        <time>2020-08-16T12:53:24Z</time>
      </trkpt>
      <trkpt lat="48.64836" lon="6.45766">
        <ele>221</ele>
        <time>2020-08-16T12:53:25Z</time>
      </trkpt>
      <trkpt lat="48.64842" lon="6.45775">
        <ele>220</ele>
        <time>2020-08-16T12:53:27Z</time>
      </trkpt>
      <trkpt lat="48.64848" lon="6.45785">
        <ele>221</ele>
        <time>2020-08-16T12:53:29Z</time>
      </trkpt>
      <trkpt lat="48.64853" lon="6.45795">
        <ele>221</ele>
        <time>2020-08-16T12:53:31Z</time>
      </trkpt>
      <trkpt lat="48.64858" lon="6.45805">
        <ele>221</ele>
        <time>2020-08-16T12:53:33Z</time>
      </trkpt>
      <trkpt lat="48.64863" lon="6.45815">
        <ele>221</ele>
        <time>2020-08-16T12:53:35Z</time>
      </trkpt>
      <trkpt lat="48.64869" lon="6.45818">
        <ele>221</ele>
        <time>2020-08-16T12:53:36Z</time>
      </trkpt>
      <trkpt lat="48.64874" lon="6.45827">
        <ele>221</ele>
        <time>2020-08-16T12:53:38Z</time>
      </trkpt>
      <trkpt lat="48.64881" lon="6.45836">
        <ele>221</ele>
        <time>2020-08-16T12:53:40Z</time>
      </trkpt>
      <trkpt lat="48.64887" lon="6.45845">
        <ele>221</ele>
        <time>2020-08-16T12:53:42Z</time>
      </trkpt>
      <trkpt lat="48.64892" lon="6.45856">
        <ele>221</ele>
        <time>2020-08-16T12:53:44Z</time>
      </trkpt>
      <trkpt lat="48.64899" lon="6.45865">
        <ele>221</ele>
        <time>2020-08-16T12:53:46Z</time>
      </trkpt>
      <trkpt lat="48.64905" lon="6.45875">
        <ele>221</ele>
        <time>2020-08-16T12:53:48Z</time>
      </trkpt>
      <trkpt lat="48.64908" lon="6.4588">
        <ele>221</ele>
        <time>2020-08-16T12:53:49Z</time>
      </trkpt>
      <trkpt lat="48.64914" lon="6.45889">
        <ele>221</ele>
        <time>2020-08-16T12:53:51Z</time>
      </trkpt>
      <trkpt lat="48.64918" lon="6.45894">
        <ele>221</ele>
        <time>2020-08-16T12:53:52Z</time>
      </trkpt>
      <trkpt lat="48.64924" lon="6.45903">
        <ele>221</ele>
        <time>2020-08-16T12:53:54Z</time>
      </trkpt>
      <trkpt lat="48.64927" lon="6.45908">
        <ele>221</ele>
        <time>2020-08-16T12:53:55Z</time>
      </trkpt>
      <trkpt lat="48.64932" lon="6.45918">
        <ele>220</ele>
        <time>2020-08-16T12:53:57Z</time>
      </trkpt>
      <trkpt lat="48.64938" lon="6.45929">
        <ele>220</ele>
        <time>2020-08-16T12:53:59Z</time>
      </trkpt>
      <trkpt lat="48.64943" lon="6.4594">
        <ele>220</ele>
        <time>2020-08-16T12:54:01Z</time>
      </trkpt>
      <trkpt lat="48.64946" lon="6.45946">
        <ele>220</ele>
        <time>2020-08-16T12:54:02Z</time>
      </trkpt>
      <trkpt lat="48.6495" lon="6.45958">
        <ele>220</ele>
        <time>2020-08-16T12:54:04Z</time>
      </trkpt>
      <trkpt lat="48.64954" lon="6.45969">
        <ele>220</ele>
        <time>2020-08-16T12:54:06Z</time>
      </trkpt>
      <trkpt lat="48.64959" lon="6.45983">
        <ele>220</ele>
        <time>2020-08-16T12:54:08Z</time>
      </trkpt>
      <trkpt lat="48.64961" lon="6.4599">
        <ele>220</ele>
        <time>2020-08-16T12:54:09Z</time>
      </trkpt>
      <trkpt lat="48.64965" lon="6.46002">
        <ele>220</ele>
        <time>2020-08-16T12:54:11Z</time>
      </trkpt>
      <trkpt lat="48.64968" lon="6.46014">
        <ele>220</ele>
        <time>2020-08-16T12:54:13Z</time>
      </trkpt>
      <trkpt lat="48.64971" lon="6.46026">
        <ele>220</ele>
        <time>2020-08-16T12:54:15Z</time>
      </trkpt>
      <trkpt lat="48.64973" lon="6.46038">
        <ele>220</ele>
        <time>2020-08-16T12:54:17Z</time>
      </trkpt>
      <trkpt lat="48.64976" lon="6.46049">
        <ele>220</ele>
        <time>2020-08-16T12:54:19Z</time>
      </trkpt>
      <trkpt lat="48.64979" lon="6.46062">
        <ele>220</ele>
        <time>2020-08-16T12:54:21Z</time>
      </trkpt>
      <trkpt lat="48.64981" lon="6.46075">
        <ele>220</ele>
        <time>2020-08-16T12:54:23Z</time>
      </trkpt>
      <trkpt lat="48.64982" lon="6.46081">
        <ele>221</ele>
        <time>2020-08-16T12:54:24Z</time>
      </trkpt>
      <trkpt lat="48.64983" lon="6.46094">
        <ele>221</ele>
        <time>2020-08-16T12:54:26Z</time>
      </trkpt>
      <trkpt lat="48.64984" lon="6.46106">
        <ele>221</ele>
        <time>2020-08-16T12:54:28Z</time>
      </trkpt>
      <trkpt lat="48.64985" lon="6.46119">
        <ele>221</ele>
        <time>2020-08-16T12:54:30Z</time>
      </trkpt>
      <trkpt lat="48.64986" lon="6.46131">
        <ele>221</ele>
        <time>2020-08-16T12:54:32Z</time>
      </trkpt>
      <trkpt lat="48.64988" lon="6.46144">
        <ele>221</ele>
        <time>2020-08-16T12:54:34Z</time>
      </trkpt>
      <trkpt lat="48.64989" lon="6.46156">
        <ele>221</ele>
        <time>2020-08-16T12:54:36Z</time>
      </trkpt>
      <trkpt lat="48.6499" lon="6.46169">
        <ele>221</ele>
        <time>2020-08-16T12:54:38Z</time>
      </trkpt>
      <trkpt lat="48.64991" lon="6.46181">
        <ele>220</ele>
        <time>2020-08-16T12:54:40Z</time>
      </trkpt>
      <trkpt lat="48.64993" lon="6.46193">
        <ele>220</ele>
        <time>2020-08-16T12:54:42Z</time>
      </trkpt>
      <trkpt lat="48.64993" lon="6.46206">
        <ele>220</ele>
        <time>2020-08-16T12:54:44Z</time>
      </trkpt>
      <trkpt lat="48.64995" lon="6.46218">
        <ele>220</ele>
        <time>2020-08-16T12:54:46Z</time>
      </trkpt>
      <trkpt lat="48.64998" lon="6.4623">
        <ele>220</ele>
        <time>2020-08-16T12:54:48Z</time>
      </trkpt>
      <trkpt lat="48.65001" lon="6.46241">
        <ele>220</ele>
        <time>2020-08-16T12:54:50Z</time>
      </trkpt>
      <trkpt lat="48.65004" lon="6.46253">
        <ele>220</ele>
        <time>2020-08-16T12:54:52Z</time>
      </trkpt>
      <trkpt lat="48.65007" lon="6.46265">
        <ele>220</ele>
        <time>2020-08-16T12:54:54Z</time>
      </trkpt>
      <trkpt lat="48.65011" lon="6.46276">
        <ele>220</ele>
        <time>2020-08-16T12:54:56Z</time>
      </trkpt>
      <trkpt lat="48.65015" lon="6.46288">
        <ele>220</ele>
        <time>2020-08-16T12:54:58Z</time>
      </trkpt>
      <trkpt lat="48.65017" lon="6.46294">
        <ele>220</ele>
        <time>2020-08-16T12:54:59Z</time>
      </trkpt>
      <trkpt lat="48.6502" lon="6.463">
        <ele>221</ele>
        <time>2020-08-16T12:55:00Z</time>
      </trkpt>
      <trkpt lat="48.65024" lon="6.4631">
        <ele>221</ele>
        <time>2020-08-16T12:55:02Z</time>
      </trkpt>
      <trkpt lat="48.6503" lon="6.46321">
        <ele>221</ele>
        <time>2020-08-16T12:55:04Z</time>
      </trkpt>
      <trkpt lat="48.65035" lon="6.46332">
        <ele>221</ele>
        <time>2020-08-16T12:55:06Z</time>
      </trkpt>
      <trkpt lat="48.65038" lon="6.46337">
        <ele>221</ele>
        <time>2020-08-16T12:55:07Z</time>
      </trkpt>
      <trkpt lat="48.65042" lon="6.46341">
        <ele>221</ele>
        <time>2020-08-16T12:55:08Z</time>
      </trkpt>
      <trkpt lat="48.65045" lon="6.46346">
        <ele>221</ele>
        <time>2020-08-16T12:55:09Z</time>
      </trkpt>
      <trkpt lat="48.6505" lon="6.46357">
        <ele>221</ele>
        <time>2020-08-16T12:55:11Z</time>
      </trkpt>
      <trkpt lat="48.65056" lon="6.46362">
        <ele>221</ele>
        <time>2020-08-16T12:55:12Z</time>
      </trkpt>
      <trkpt lat="48.65059" lon="6.46366">
        <ele>221</ele>
        <time>2020-08-16T12:55:13Z</time>
      </trkpt>
      <trkpt lat="48.65067" lon="6.46373">
        <ele>221</ele>
        <time>2020-08-16T12:55:15Z</time>
      </trkpt>
      <trkpt lat="48.65073" lon="6.46383">
        <ele>221</ele>
        <time>2020-08-16T12:55:17Z</time>
      </trkpt>
      <trkpt lat="48.65078" lon="6.4639">
        <ele>221</ele>
        <time>2020-08-16T12:55:19Z</time>
      </trkpt>
      <trkpt lat="48.65082" lon="6.46393">
        <ele>221</ele>
        <time>2020-08-16T12:55:20Z</time>
      </trkpt>
      <trkpt lat="48.6509" lon="6.46401">
        <ele>221</ele>
        <time>2020-08-16T12:55:22Z</time>
      </trkpt>
      <trkpt lat="48.65097" lon="6.46409">
        <ele>221</ele>
        <time>2020-08-16T12:55:24Z</time>
      </trkpt>
      <trkpt lat="48.65101" lon="6.46412">
        <ele>221</ele>
        <time>2020-08-16T12:55:25Z</time>
      </trkpt>
      <trkpt lat="48.65106" lon="6.46416">
        <ele>221</ele>
        <time>2020-08-16T12:55:26Z</time>
      </trkpt>
      <trkpt lat="48.65113" lon="6.46422">
        <ele>220</ele>
        <time>2020-08-16T12:55:28Z</time>
      </trkpt>
      <trkpt lat="48.65121" lon="6.46429">
        <ele>220</ele>
        <time>2020-08-16T12:55:30Z</time>
      </trkpt>
      <trkpt lat="48.65128" lon="6.46436">
        <ele>220</ele>
        <time>2020-08-16T12:55:32Z</time>
      </trkpt>
      <trkpt lat="48.65133" lon="6.46439">
        <ele>220</ele>
        <time>2020-08-16T12:55:33Z</time>
      </trkpt>
      <trkpt lat="48.6514" lon="6.46444">
        <ele>219</ele>
        <time>2020-08-16T12:55:35Z</time>
      </trkpt>
      <trkpt lat="48.65147" lon="6.46451">
        <ele>219</ele>
        <time>2020-08-16T12:55:37Z</time>
      </trkpt>
      <trkpt lat="48.65153" lon="6.46458">
        <ele>219</ele>
        <time>2020-08-16T12:55:39Z</time>
      </trkpt>
      <trkpt lat="48.65161" lon="6.46463">
        <ele>219</ele>
        <time>2020-08-16T12:55:41Z</time>
      </trkpt>
      <trkpt lat="48.65167" lon="6.46471">
        <ele>220</ele>
        <time>2020-08-16T12:55:43Z</time>
      </trkpt>
      <trkpt lat="48.65171" lon="6.46475">
        <ele>220</ele>
        <time>2020-08-16T12:55:44Z</time>
      </trkpt>
      <trkpt lat="48.65178" lon="6.46482">
        <ele>220</ele>
        <time>2020-08-16T12:55:46Z</time>
      </trkpt>
      <trkpt lat="48.65185" lon="6.46488">
        <ele>220</ele>
        <time>2020-08-16T12:55:48Z</time>
      </trkpt>
      <trkpt lat="48.65192" lon="6.46492">
        <ele>220</ele>
        <time>2020-08-16T12:55:50Z</time>
      </trkpt>
      <trkpt lat="48.652" lon="6.46499">
        <ele>219</ele>
        <time>2020-08-16T12:55:52Z</time>
      </trkpt>
      <trkpt lat="48.65207" lon="6.46504">
        <ele>219</ele>
        <time>2020-08-16T12:55:54Z</time>
      </trkpt>
      <trkpt lat="48.65218" lon="6.46514">
        <ele>220</ele>
        <time>2020-08-16T12:55:57Z</time>
      </trkpt>
      <trkpt lat="48.65222" lon="6.46518">
        <ele>220</ele>
        <time>2020-08-16T12:55:58Z</time>
      </trkpt>
      <trkpt lat="48.65226" lon="6.46522">
        <ele>220</ele>
        <time>2020-08-16T12:55:59Z</time>
      </trkpt>
      <trkpt lat="48.65233" lon="6.46527">
        <ele>220</ele>
        <time>2020-08-16T12:56:01Z</time>
      </trkpt>
      <trkpt lat="48.6524" lon="6.46534">
        <ele>220</ele>
        <time>2020-08-16T12:56:03Z</time>
      </trkpt>
      <trkpt lat="48.65247" lon="6.46541">
        <ele>220</ele>
        <time>2020-08-16T12:56:05Z</time>
      </trkpt>
      <trkpt lat="48.65251" lon="6.46546">
        <ele>220</ele>
        <time>2020-08-16T12:56:06Z</time>
      </trkpt>
      <trkpt lat="48.65257" lon="6.46553">
        <ele>220</ele>
        <time>2020-08-16T12:56:08Z</time>
      </trkpt>
      <trkpt lat="48.65263" lon="6.4656">
        <ele>220</ele>
        <time>2020-08-16T12:56:10Z</time>
      </trkpt>
      <trkpt lat="48.6527" lon="6.46567">
        <ele>220</ele>
        <time>2020-08-16T12:56:12Z</time>
      </trkpt>
      <trkpt lat="48.65274" lon="6.46572">
        <ele>220</ele>
        <time>2020-08-16T12:56:14Z</time>
      </trkpt>
      <trkpt lat="48.65279" lon="6.46579">
        <ele>220</ele>
        <time>2020-08-16T12:56:16Z</time>
      </trkpt>
      <trkpt lat="48.65284" lon="6.46587">
        <ele>220</ele>
        <time>2020-08-16T12:56:18Z</time>
      </trkpt>
      <trkpt lat="48.65291" lon="6.46593">
        <ele>220</ele>
        <time>2020-08-16T12:56:20Z</time>
      </trkpt>
      <trkpt lat="48.65296" lon="6.46601">
        <ele>220</ele>
        <time>2020-08-16T12:56:22Z</time>
      </trkpt>
      <trkpt lat="48.653" lon="6.46611">
        <ele>220</ele>
        <time>2020-08-16T12:56:24Z</time>
      </trkpt>
      <trkpt lat="48.65306" lon="6.46618">
        <ele>220</ele>
        <time>2020-08-16T12:56:26Z</time>
      </trkpt>
      <trkpt lat="48.65312" lon="6.46626">
        <ele>220</ele>
        <time>2020-08-16T12:56:28Z</time>
      </trkpt>
      <trkpt lat="48.65316" lon="6.46631">
        <ele>220</ele>
        <time>2020-08-16T12:56:29Z</time>
      </trkpt>
      <trkpt lat="48.65322" lon="6.46639">
        <ele>220</ele>
        <time>2020-08-16T12:56:31Z</time>
      </trkpt>
      <trkpt lat="48.65326" lon="6.46647">
        <ele>220</ele>
        <time>2020-08-16T12:56:33Z</time>
      </trkpt>
      <trkpt lat="48.65332" lon="6.46656">
        <ele>220</ele>
        <time>2020-08-16T12:56:35Z</time>
      </trkpt>
      <trkpt lat="48.65339" lon="6.46666">
        <ele>220</ele>
        <time>2020-08-16T12:56:37Z</time>
      </trkpt>
      <trkpt lat="48.65343" lon="6.46675">
        <ele>220</ele>
        <time>2020-08-16T12:56:39Z</time>
      </trkpt>
      <trkpt lat="48.65347" lon="6.4668">
        <ele>219</ele>
        <time>2020-08-16T12:56:40Z</time>
      </trkpt>
      <trkpt lat="48.65351" lon="6.46689">
        <ele>219</ele>
        <time>2020-08-16T12:56:42Z</time>
      </trkpt>
      <trkpt lat="48.65355" lon="6.46697">
        <ele>219</ele>
        <time>2020-08-16T12:56:44Z</time>
      </trkpt>
      <trkpt lat="48.65358" lon="6.46706">
        <ele>219</ele>
        <time>2020-08-16T12:56:46Z</time>
      </trkpt>
      <trkpt lat="48.65361" lon="6.46719">
        <ele>220</ele>
        <time>2020-08-16T12:56:48Z</time>
      </trkpt>
      <trkpt lat="48.65362" lon="6.46729">
        <ele>220</ele>
        <time>2020-08-16T12:56:50Z</time>
      </trkpt>
      <trkpt lat="48.65365" lon="6.46738">
        <ele>220</ele>
        <time>2020-08-16T12:56:52Z</time>
      </trkpt>
      <trkpt lat="48.65369" lon="6.46747">
        <ele>221</ele>
        <time>2020-08-16T12:56:54Z</time>
      </trkpt>
      <trkpt lat="48.65373" lon="6.46757">
        <ele>221</ele>
        <time>2020-08-16T12:56:56Z</time>
      </trkpt>
      <trkpt lat="48.65377" lon="6.46764">
        <ele>221</ele>
        <time>2020-08-16T12:56:58Z</time>
      </trkpt>
      <trkpt lat="48.6538" lon="6.46771">
        <ele>221</ele>
        <time>2020-08-16T12:57:00Z</time>
      </trkpt>
      <trkpt lat="48.65384" lon="6.46779">
        <ele>221</ele>
        <time>2020-08-16T12:57:02Z</time>
      </trkpt>
      <trkpt lat="48.65386" lon="6.46789">
        <ele>221</ele>
        <time>2020-08-16T12:57:04Z</time>
      </trkpt>
      <trkpt lat="48.65387" lon="6.46795">
        <ele>221</ele>
        <time>2020-08-16T12:57:06Z</time>
      </trkpt>
      <trkpt lat="48.65388" lon="6.46804">
        <ele>221</ele>
        <time>2020-08-16T12:57:08Z</time>
      </trkpt>
      <trkpt lat="48.65389" lon="6.46812">
        <ele>221</ele>
        <time>2020-08-16T12:57:10Z</time>
      </trkpt>
      <trkpt lat="48.65391" lon="6.46819">
        <ele>221</ele>
        <time>2020-08-16T12:57:12Z</time>
      </trkpt>
      <trkpt lat="48.6539" lon="6.46827">
        <ele>221</ele>
        <time>2020-08-16T12:57:14Z</time>
      </trkpt>
      <trkpt lat="48.65392" lon="6.46837">
        <ele>221</ele>
        <time>2020-08-16T12:57:16Z</time>
      </trkpt>
      <trkpt lat="48.65393" lon="6.46844">
        <ele>221</ele>
        <time>2020-08-16T12:57:18Z</time>
      </trkpt>
      <trkpt lat="48.65394" lon="6.46851">
        <ele>221</ele>
        <time>2020-08-16T12:57:20Z</time>
      </trkpt>
      <trkpt lat="48.65397" lon="6.46861">
        <ele>221</ele>
        <time>2020-08-16T12:57:22Z</time>
      </trkpt>
      <trkpt lat="48.65398" lon="6.46868">
        <ele>221</ele>
        <time>2020-08-16T12:57:24Z</time>
      </trkpt>
      <trkpt lat="48.65398" lon="6.46876">
        <ele>221</ele>
        <time>2020-08-16T12:57:26Z</time>
      </trkpt>
      <trkpt lat="48.65401" lon="6.46887">
        <ele>221</ele>
        <time>2020-08-16T12:57:28Z</time>
      </trkpt>
      <trkpt lat="48.65402" lon="6.46896">
        <ele>221</ele>
        <time>2020-08-16T12:57:30Z</time>
      </trkpt>
      <trkpt lat="48.65402" lon="6.46905">
        <ele>221</ele>
        <time>2020-08-16T12:57:32Z</time>
      </trkpt>
      <trkpt lat="48.65401" lon="6.46915">
        <ele>221</ele>
        <time>2020-08-16T12:57:34Z</time>
      </trkpt>
      <trkpt lat="48.65401" lon="6.46924">
        <ele>221</ele>
        <time>2020-08-16T12:57:36Z</time>
      </trkpt>
      <trkpt lat="48.65403" lon="6.46935">
        <ele>221</ele>
        <time>2020-08-16T12:57:38Z</time>
      </trkpt>
      <trkpt lat="48.65403" lon="6.46943">
        <ele>220</ele>
        <time>2020-08-16T12:57:40Z</time>
      </trkpt>
      <trkpt lat="48.65404" lon="6.46955">
        <ele>221</ele>
        <time>2020-08-16T12:57:42Z</time>
      </trkpt>
      <trkpt lat="48.65404" lon="6.46968">
        <ele>220</ele>
        <time>2020-08-16T12:57:44Z</time>
      </trkpt>
      <trkpt lat="48.65403" lon="6.46979">
        <ele>220</ele>
        <time>2020-08-16T12:57:46Z</time>
      </trkpt>
      <trkpt lat="48.65403" lon="6.46991">
        <ele>221</ele>
        <time>2020-08-16T12:57:48Z</time>
      </trkpt>
      <trkpt lat="48.65402" lon="6.47004">
        <ele>221</ele>
        <time>2020-08-16T12:57:50Z</time>
      </trkpt>
      <trkpt lat="48.65401" lon="6.47016">
        <ele>221</ele>
        <time>2020-08-16T12:57:52Z</time>
      </trkpt>
      <trkpt lat="48.654" lon="6.47029">
        <ele>221</ele>
        <time>2020-08-16T12:57:54Z</time>
      </trkpt>
      <trkpt lat="48.654" lon="6.47041">
        <ele>221</ele>
        <time>2020-08-16T12:57:56Z</time>
      </trkpt>
      <trkpt lat="48.65399" lon="6.47053">
        <ele>222</ele>
        <time>2020-08-16T12:57:58Z</time>
      </trkpt>
      <trkpt lat="48.65398" lon="6.47065">
        <ele>222</ele>
        <time>2020-08-16T12:58:00Z</time>
      </trkpt>
      <trkpt lat="48.65395" lon="6.47077">
        <ele>222</ele>
        <time>2020-08-16T12:58:02Z</time>
      </trkpt>
      <trkpt lat="48.65395" lon="6.47088">
        <ele>222</ele>
        <time>2020-08-16T12:58:04Z</time>
      </trkpt>
      <trkpt lat="48.65393" lon="6.47099">
        <ele>222</ele>
        <time>2020-08-16T12:58:06Z</time>
      </trkpt>
      <trkpt lat="48.6539" lon="6.47109">
        <ele>221</ele>
        <time>2020-08-16T12:58:08Z</time>
      </trkpt>
      <trkpt lat="48.65386" lon="6.47119">
        <ele>221</ele>
        <time>2020-08-16T12:58:10Z</time>
      </trkpt>
      <trkpt lat="48.65383" lon="6.47129">
        <ele>221</ele>
        <time>2020-08-16T12:58:12Z</time>
      </trkpt>
      <trkpt lat="48.65381" lon="6.47138">
        <ele>221</ele>
        <time>2020-08-16T12:58:14Z</time>
      </trkpt>
      <trkpt lat="48.65375" lon="6.47147">
        <ele>221</ele>
        <time>2020-08-16T12:58:16Z</time>
      </trkpt>
      <trkpt lat="48.65374" lon="6.47155">
        <ele>221</ele>
        <time>2020-08-16T12:58:18Z</time>
      </trkpt>
      <trkpt lat="48.65371" lon="6.47162">
        <ele>221</ele>
        <time>2020-08-16T12:58:20Z</time>
      </trkpt>
      <trkpt lat="48.65366" lon="6.47167">
        <ele>221</ele>
        <time>2020-08-16T12:58:22Z</time>
      </trkpt>
      <trkpt lat="48.65361" lon="6.47176">
        <ele>221</ele>
        <time>2020-08-16T12:58:24Z</time>
      </trkpt>
      <trkpt lat="48.65358" lon="6.47181">
        <ele>221</ele>
        <time>2020-08-16T12:58:25Z</time>
      </trkpt>
      <trkpt lat="48.65353" lon="6.47188">
        <ele>222</ele>
        <time>2020-08-16T12:58:27Z</time>
      </trkpt>
      <trkpt lat="48.65347" lon="6.47194">
        <ele>222</ele>
        <time>2020-08-16T12:58:29Z</time>
      </trkpt>
      <trkpt lat="48.6534" lon="6.472">
        <ele>222</ele>
        <time>2020-08-16T12:58:31Z</time>
      </trkpt>
      <trkpt lat="48.65334" lon="6.47206">
        <ele>222</ele>
        <time>2020-08-16T12:58:33Z</time>
      </trkpt>
      <trkpt lat="48.65328" lon="6.4721">
        <ele>222</ele>
        <time>2020-08-16T12:58:35Z</time>
      </trkpt>
      <trkpt lat="48.65324" lon="6.47215">
        <ele>222</ele>
        <time>2020-08-16T12:58:38Z</time>
      </trkpt>
      <trkpt lat="48.65321" lon="6.47224">
        <ele>222</ele>
        <time>2020-08-16T12:58:41Z</time>
      </trkpt>
      <trkpt lat="48.65319" lon="6.47232">
        <ele>222</ele>
        <time>2020-08-16T12:58:43Z</time>
      </trkpt>
      <trkpt lat="48.65315" lon="6.47238">
        <ele>223</ele>
        <time>2020-08-16T12:58:45Z</time>
      </trkpt>
      <trkpt lat="48.6531" lon="6.47244">
        <ele>223</ele>
        <time>2020-08-16T12:58:47Z</time>
      </trkpt>
      <trkpt lat="48.65304" lon="6.4725">
        <ele>223</ele>
        <time>2020-08-16T12:58:49Z</time>
      </trkpt>
      <trkpt lat="48.65299" lon="6.47256">
        <ele>223</ele>
        <time>2020-08-16T12:58:51Z</time>
      </trkpt>
      <trkpt lat="48.65293" lon="6.47262">
        <ele>223</ele>
        <time>2020-08-16T12:58:53Z</time>
      </trkpt>
      <trkpt lat="48.65288" lon="6.47269">
        <ele>223</ele>
        <time>2020-08-16T12:58:55Z</time>
      </trkpt>
      <trkpt lat="48.65283" lon="6.47275">
        <ele>224</ele>
        <time>2020-08-16T12:58:57Z</time>
      </trkpt>
      <trkpt lat="48.65277" lon="6.47284">
        <ele>224</ele>
        <time>2020-08-16T12:58:59Z</time>
      </trkpt>
      <trkpt lat="48.65272" lon="6.4729">
        <ele>224</ele>
        <time>2020-08-16T12:59:01Z</time>
      </trkpt>
      <trkpt lat="48.65266" lon="6.47293">
        <ele>224</ele>
        <time>2020-08-16T12:59:03Z</time>
      </trkpt>
      <trkpt lat="48.6526" lon="6.47301">
        <ele>225</ele>
        <time>2020-08-16T12:59:05Z</time>
      </trkpt>
      <trkpt lat="48.65252" lon="6.47308">
        <ele>225</ele>
        <time>2020-08-16T12:59:07Z</time>
      </trkpt>
      <trkpt lat="48.65247" lon="6.47312">
        <ele>224</ele>
        <time>2020-08-16T12:59:09Z</time>
      </trkpt>
      <trkpt lat="48.65243" lon="6.47318">
        <ele>224</ele>
        <time>2020-08-16T12:59:11Z</time>
      </trkpt>
      <trkpt lat="48.65239" lon="6.47322">
        <ele>224</ele>
        <time>2020-08-16T12:59:13Z</time>
      </trkpt>
      <trkpt lat="48.65234" lon="6.4733">
        <ele>224</ele>
        <time>2020-08-16T12:59:15Z</time>
      </trkpt>
      <trkpt lat="48.65229" lon="6.47337">
        <ele>224</ele>
        <time>2020-08-16T12:59:17Z</time>
      </trkpt>
      <trkpt lat="48.65226" lon="6.47344">
        <ele>224</ele>
        <time>2020-08-16T12:59:18Z</time>
      </trkpt>
      <trkpt lat="48.65222" lon="6.47352">
        <ele>224</ele>
        <time>2020-08-16T12:59:20Z</time>
      </trkpt>
      <trkpt lat="48.65218" lon="6.47357">
        <ele>225</ele>
        <time>2020-08-16T12:59:22Z</time>
      </trkpt>
      <trkpt lat="48.6521" lon="6.47371">
        <ele>225</ele>
        <time>2020-08-16T12:59:25Z</time>
      </trkpt>
      <trkpt lat="48.65207" lon="6.47378">
        <ele>224</ele>
        <time>2020-08-16T12:59:26Z</time>
      </trkpt>
      <trkpt lat="48.65201" lon="6.47388">
        <ele>224</ele>
        <time>2020-08-16T12:59:28Z</time>
      </trkpt>
      <trkpt lat="48.65198" lon="6.47394">
        <ele>224</ele>
        <time>2020-08-16T12:59:29Z</time>
      </trkpt>
      <trkpt lat="48.65195" lon="6.47399">
        <ele>224</ele>
        <time>2020-08-16T12:59:30Z</time>
      </trkpt>
      <trkpt lat="48.65189" lon="6.4741">
        <ele>224</ele>
        <time>2020-08-16T12:59:32Z</time>
      </trkpt>
      <trkpt lat="48.65187" lon="6.47417">
        <ele>224</ele>
        <time>2020-08-16T12:59:33Z</time>
      </trkpt>
      <trkpt lat="48.65184" lon="6.47428">
        <ele>224</ele>
        <time>2020-08-16T12:59:35Z</time>
      </trkpt>
      <trkpt lat="48.6518" lon="6.47438">
        <ele>223</ele>
        <time>2020-08-16T12:59:37Z</time>
      </trkpt>
      <trkpt lat="48.65178" lon="6.4745">
        <ele>223</ele>
        <time>2020-08-16T12:59:39Z</time>
      </trkpt>
      <trkpt lat="48.65176" lon="6.47462">
        <ele>223</ele>
        <time>2020-08-16T12:59:41Z</time>
      </trkpt>
      <trkpt lat="48.65173" lon="6.47475">
        <ele>222</ele>
        <time>2020-08-16T12:59:43Z</time>
      </trkpt>
      <trkpt lat="48.6517" lon="6.47487">
        <ele>222</ele>
        <time>2020-08-16T12:59:45Z</time>
      </trkpt>
      <trkpt lat="48.65168" lon="6.47494">
        <ele>223</ele>
        <time>2020-08-16T12:59:46Z</time>
      </trkpt>
      <trkpt lat="48.65166" lon="6.475">
        <ele>223</ele>
        <time>2020-08-16T12:59:47Z</time>
      </trkpt>
      <trkpt lat="48.65162" lon="6.47512">
        <ele>223</ele>
        <time>2020-08-16T12:59:49Z</time>
      </trkpt>
      <trkpt lat="48.6516" lon="6.4753">
        <ele>223</ele>
        <time>2020-08-16T12:59:52Z</time>
      </trkpt>
      <trkpt lat="48.65159" lon="6.47537">
        <ele>223</ele>
        <time>2020-08-16T12:59:53Z</time>
      </trkpt>
      <trkpt lat="48.65158" lon="6.47545">
        <ele>222</ele>
        <time>2020-08-16T12:59:54Z</time>
      </trkpt>
      <trkpt lat="48.65156" lon="6.47556">
        <ele>222</ele>
        <time>2020-08-16T12:59:56Z</time>
      </trkpt>
      <trkpt lat="48.65155" lon="6.47569">
        <ele>222</ele>
        <time>2020-08-16T12:59:58Z</time>
      </trkpt>
      <trkpt lat="48.65153" lon="6.47581">
        <ele>222</ele>
        <time>2020-08-16T13:00:00Z</time>
      </trkpt>
      <trkpt lat="48.65155" lon="6.47595">
        <ele>222</ele>
        <time>2020-08-16T13:00:02Z</time>
      </trkpt>
      <trkpt lat="48.65155" lon="6.47608">
        <ele>222</ele>
        <time>2020-08-16T13:00:04Z</time>
      </trkpt>
      <trkpt lat="48.65155" lon="6.47615">
        <ele>222</ele>
        <time>2020-08-16T13:00:05Z</time>
      </trkpt>
      <trkpt lat="48.65155" lon="6.47623">
        <ele>222</ele>
        <time>2020-08-16T13:00:06Z</time>
      </trkpt>
      <trkpt lat="48.65157" lon="6.47635">
        <ele>222</ele>
        <time>2020-08-16T13:00:08Z</time>
      </trkpt>
      <trkpt lat="48.65157" lon="6.47648">
        <ele>222</ele>
        <time>2020-08-16T13:00:10Z</time>
      </trkpt>
      <trkpt lat="48.65158" lon="6.4766">
        <ele>223</ele>
        <time>2020-08-16T13:00:12Z</time>
      </trkpt>
      <trkpt lat="48.65158" lon="6.4767">
        <ele>223</ele>
        <time>2020-08-16T13:00:14Z</time>
      </trkpt>
      <trkpt lat="48.65159" lon="6.47682">
        <ele>222</ele>
        <time>2020-08-16T13:00:16Z</time>
      </trkpt>
      <trkpt lat="48.6516" lon="6.47695">
        <ele>222</ele>
        <time>2020-08-16T13:00:18Z</time>
      </trkpt>
      <trkpt lat="48.6516" lon="6.47702">
        <ele>222</ele>
        <time>2020-08-16T13:00:19Z</time>
      </trkpt>
      <trkpt lat="48.65162" lon="6.47708">
        <ele>222</ele>
        <time>2020-08-16T13:00:20Z</time>
      </trkpt>
      <trkpt lat="48.65163" lon="6.47721">
        <ele>222</ele>
        <time>2020-08-16T13:00:22Z</time>
      </trkpt>
      <trkpt lat="48.65165" lon="6.47734">
        <ele>222</ele>
        <time>2020-08-16T13:00:24Z</time>
      </trkpt>
      <trkpt lat="48.65168" lon="6.47747">
        <ele>222</ele>
        <time>2020-08-16T13:00:26Z</time>
      </trkpt>
      <trkpt lat="48.65169" lon="6.47759">
        <ele>222</ele>
        <time>2020-08-16T13:00:28Z</time>
      </trkpt>
      <trkpt lat="48.65171" lon="6.47771">
        <ele>222</ele>
        <time>2020-08-16T13:00:30Z</time>
      </trkpt>
      <trkpt lat="48.65174" lon="6.47777">
        <ele>222</ele>
        <time>2020-08-16T13:00:31Z</time>
      </trkpt>
      <trkpt lat="48.65176" lon="6.47789">
        <ele>223</ele>
        <time>2020-08-16T13:00:33Z</time>
      </trkpt>
      <trkpt lat="48.65179" lon="6.47801">
        <ele>222</ele>
        <time>2020-08-16T13:00:35Z</time>
      </trkpt>
      <trkpt lat="48.65182" lon="6.47812">
        <ele>222</ele>
        <time>2020-08-16T13:00:37Z</time>
      </trkpt>
      <trkpt lat="48.65185" lon="6.47824">
        <ele>222</ele>
        <time>2020-08-16T13:00:39Z</time>
      </trkpt>
      <trkpt lat="48.65189" lon="6.47836">
        <ele>222</ele>
        <time>2020-08-16T13:00:41Z</time>
      </trkpt>
      <trkpt lat="48.65193" lon="6.47847">
        <ele>222</ele>
        <time>2020-08-16T13:00:43Z</time>
      </trkpt>
      <trkpt lat="48.65197" lon="6.47857">
        <ele>222</ele>
        <time>2020-08-16T13:00:45Z</time>
      </trkpt>
      <trkpt lat="48.65202" lon="6.47867">
        <ele>222</ele>
        <time>2020-08-16T13:00:47Z</time>
      </trkpt>
      <trkpt lat="48.65207" lon="6.47878">
        <ele>222</ele>
        <time>2020-08-16T13:00:49Z</time>
      </trkpt>
      <trkpt lat="48.65212" lon="6.47888">
        <ele>222</ele>
        <time>2020-08-16T13:00:51Z</time>
      </trkpt>
      <trkpt lat="48.65216" lon="6.47897">
        <ele>222</ele>
        <time>2020-08-16T13:00:53Z</time>
      </trkpt>
      <trkpt lat="48.65221" lon="6.47906">
        <ele>222</ele>
        <time>2020-08-16T13:00:55Z</time>
      </trkpt>
      <trkpt lat="48.65226" lon="6.47915">
        <ele>222</ele>
        <time>2020-08-16T13:00:57Z</time>
      </trkpt>
      <trkpt lat="48.65232" lon="6.47923">
        <ele>222</ele>
        <time>2020-08-16T13:00:59Z</time>
      </trkpt>
      <trkpt lat="48.65238" lon="6.4793">
        <ele>222</ele>
        <time>2020-08-16T13:01:01Z</time>
      </trkpt>
      <trkpt lat="48.65244" lon="6.47937">
        <ele>223</ele>
        <time>2020-08-16T13:01:03Z</time>
      </trkpt>
      <trkpt lat="48.65249" lon="6.47946">
        <ele>223</ele>
        <time>2020-08-16T13:01:05Z</time>
      </trkpt>
      <trkpt lat="48.65255" lon="6.47953">
        <ele>223</ele>
        <time>2020-08-16T13:01:07Z</time>
      </trkpt>
      <trkpt lat="48.65261" lon="6.4796">
        <ele>223</ele>
        <time>2020-08-16T13:01:09Z</time>
      </trkpt>
      <trkpt lat="48.65267" lon="6.47966">
        <ele>223</ele>
        <time>2020-08-16T13:01:11Z</time>
      </trkpt>
      <trkpt lat="48.65273" lon="6.47973">
        <ele>222</ele>
        <time>2020-08-16T13:01:13Z</time>
      </trkpt>
      <trkpt lat="48.65279" lon="6.47979">
        <ele>222</ele>
        <time>2020-08-16T13:01:15Z</time>
      </trkpt>
      <trkpt lat="48.65286" lon="6.47987">
        <ele>222</ele>
        <time>2020-08-16T13:01:17Z</time>
      </trkpt>
      <trkpt lat="48.65291" lon="6.47994">
        <ele>222</ele>
        <time>2020-08-16T13:01:19Z</time>
      </trkpt>
      <trkpt lat="48.65297" lon="6.48001">
        <ele>222</ele>
        <time>2020-08-16T13:01:21Z</time>
      </trkpt>
      <trkpt lat="48.65304" lon="6.48009">
        <ele>223</ele>
        <time>2020-08-16T13:01:23Z</time>
      </trkpt>
      <trkpt lat="48.65307" lon="6.48013">
        <ele>223</ele>
        <time>2020-08-16T13:01:24Z</time>
      </trkpt>
      <trkpt lat="48.65315" lon="6.48019">
        <ele>223</ele>
        <time>2020-08-16T13:01:26Z</time>
      </trkpt>
      <trkpt lat="48.6532" lon="6.48027">
        <ele>223</ele>
        <time>2020-08-16T13:01:28Z</time>
      </trkpt>
      <trkpt lat="48.65327" lon="6.48034">
        <ele>223</ele>
        <time>2020-08-16T13:01:30Z</time>
      </trkpt>
      <trkpt lat="48.65331" lon="6.48038">
        <ele>223</ele>
        <time>2020-08-16T13:01:31Z</time>
      </trkpt>
      <trkpt lat="48.65339" lon="6.48046">
        <ele>222</ele>
        <time>2020-08-16T13:01:33Z</time>
      </trkpt>
      <trkpt lat="48.65344" lon="6.48055">
        <ele>223</ele>
        <time>2020-08-16T13:01:35Z</time>
      </trkpt>
      <trkpt lat="48.65348" lon="6.48059">
        <ele>223</ele>
        <time>2020-08-16T13:01:36Z</time>
      </trkpt>
      <trkpt lat="48.65352" lon="6.48063">
        <ele>223</ele>
        <time>2020-08-16T13:01:37Z</time>
      </trkpt>
      <trkpt lat="48.65358" lon="6.48071">
        <ele>223</ele>
        <time>2020-08-16T13:01:39Z</time>
      </trkpt>
      <trkpt lat="48.65363" lon="6.4808">
        <ele>223</ele>
        <time>2020-08-16T13:01:41Z</time>
      </trkpt>
      <trkpt lat="48.65366" lon="6.4809">
        <ele>223</ele>
        <time>2020-08-16T13:01:43Z</time>
      </trkpt>
      <trkpt lat="48.65365" lon="6.48101">
        <ele>223</ele>
        <time>2020-08-16T13:01:45Z</time>
      </trkpt>
      <trkpt lat="48.65367" lon="6.48112">
        <ele>223</ele>
        <time>2020-08-16T13:01:47Z</time>
      </trkpt>
      <trkpt lat="48.65369" lon="6.48124">
        <ele>223</ele>
        <time>2020-08-16T13:01:49Z</time>
      </trkpt>
      <trkpt lat="48.65373" lon="6.48135">
        <ele>222</ele>
        <time>2020-08-16T13:01:51Z</time>
      </trkpt>
      <trkpt lat="48.65378" lon="6.48142">
        <ele>222</ele>
        <time>2020-08-16T13:01:53Z</time>
      </trkpt>
      <trkpt lat="48.65383" lon="6.48148">
        <ele>223</ele>
        <time>2020-08-16T13:01:55Z</time>
      </trkpt>
      <trkpt lat="48.65388" lon="6.48151">
        <ele>223</ele>
        <time>2020-08-16T13:01:56Z</time>
      </trkpt>
      <trkpt lat="48.65392" lon="6.48159">
        <ele>223</ele>
        <time>2020-08-16T13:01:58Z</time>
      </trkpt>
      <trkpt lat="48.65397" lon="6.48166">
        <ele>223</ele>
        <time>2020-08-16T13:02:00Z</time>
      </trkpt>
      <trkpt lat="48.65401" lon="6.48169">
        <ele>223</ele>
        <time>2020-08-16T13:02:01Z</time>
      </trkpt>
      <trkpt lat="48.65407" lon="6.48177">
        <ele>223</ele>
        <time>2020-08-16T13:02:03Z</time>
      </trkpt>
      <trkpt lat="48.65413" lon="6.48184">
        <ele>223</ele>
        <time>2020-08-16T13:02:05Z</time>
      </trkpt>
      <trkpt lat="48.65419" lon="6.4819">
        <ele>223</ele>
        <time>2020-08-16T13:02:07Z</time>
      </trkpt>
      <trkpt lat="48.65423" lon="6.482">
        <ele>223</ele>
        <time>2020-08-16T13:02:09Z</time>
      </trkpt>
      <trkpt lat="48.65429" lon="6.48207">
        <ele>223</ele>
        <time>2020-08-16T13:02:11Z</time>
      </trkpt>
      <trkpt lat="48.65434" lon="6.48215">
        <ele>223</ele>
        <time>2020-08-16T13:02:13Z</time>
      </trkpt>
      <trkpt lat="48.6544" lon="6.48223">
        <ele>223</ele>
        <time>2020-08-16T13:02:15Z</time>
      </trkpt>
      <trkpt lat="48.65446" lon="6.48229">
        <ele>222</ele>
        <time>2020-08-16T13:02:17Z</time>
      </trkpt>
      <trkpt lat="48.65453" lon="6.48234">
        <ele>222</ele>
        <time>2020-08-16T13:02:19Z</time>
      </trkpt>
      <trkpt lat="48.6546" lon="6.48236">
        <ele>222</ele>
        <time>2020-08-16T13:02:21Z</time>
      </trkpt>
      <trkpt lat="48.65468" lon="6.48235">
        <ele>222</ele>
        <time>2020-08-16T13:02:23Z</time>
      </trkpt>
      <trkpt lat="48.65474" lon="6.48233">
        <ele>222</ele>
        <time>2020-08-16T13:02:25Z</time>
      </trkpt>
      <trkpt lat="48.65479" lon="6.4823">
        <ele>222</ele>
        <time>2020-08-16T13:02:27Z</time>
      </trkpt>
      <trkpt lat="48.65487" lon="6.48227">
        <ele>222</ele>
        <time>2020-08-16T13:02:29Z</time>
      </trkpt>
      <trkpt lat="48.65494" lon="6.48228">
        <ele>222</ele>
        <time>2020-08-16T13:02:31Z</time>
      </trkpt>
      <trkpt lat="48.65501" lon="6.48234">
        <ele>223</ele>
        <time>2020-08-16T13:02:33Z</time>
      </trkpt>
      <trkpt lat="48.65506" lon="6.48236">
        <ele>223</ele>
        <time>2020-08-16T13:02:34Z</time>
      </trkpt>
      <trkpt lat="48.65511" lon="6.48239">
        <ele>223</ele>
        <time>2020-08-16T13:02:35Z</time>
      </trkpt>
      <trkpt lat="48.65518" lon="6.48246">
        <ele>223</ele>
        <time>2020-08-16T13:02:37Z</time>
      </trkpt>
      <trkpt lat="48.65524" lon="6.48254">
        <ele>223</ele>
        <time>2020-08-16T13:02:39Z</time>
      </trkpt>
      <trkpt lat="48.6553" lon="6.48261">
        <ele>223</ele>
        <time>2020-08-16T13:02:41Z</time>
      </trkpt>
      <trkpt lat="48.65535" lon="6.48268">
        <ele>224</ele>
        <time>2020-08-16T13:02:43Z</time>
      </trkpt>
      <trkpt lat="48.65542" lon="6.48275">
        <ele>224</ele>
        <time>2020-08-16T13:02:45Z</time>
      </trkpt>
      <trkpt lat="48.65548" lon="6.48283">
        <ele>224</ele>
        <time>2020-08-16T13:02:47Z</time>
      </trkpt>
      <trkpt lat="48.65555" lon="6.4829">
        <ele>224</ele>
        <time>2020-08-16T13:02:49Z</time>
      </trkpt>
      <trkpt lat="48.65561" lon="6.48295">
        <ele>224</ele>
        <time>2020-08-16T13:02:51Z</time>
      </trkpt>
      <trkpt lat="48.65568" lon="6.48303">
        <ele>224</ele>
        <time>2020-08-16T13:02:53Z</time>
      </trkpt>
      <trkpt lat="48.65574" lon="6.4831">
        <ele>224</ele>
        <time>2020-08-16T13:02:55Z</time>
      </trkpt>
      <trkpt lat="48.6558" lon="6.48318">
        <ele>224</ele>
        <time>2020-08-16T13:02:57Z</time>
      </trkpt>
      <trkpt lat="48.65587" lon="6.48326">
        <ele>223</ele>
        <time>2020-08-16T13:02:59Z</time>
      </trkpt>
      <trkpt lat="48.65591" lon="6.48328">
        <ele>223</ele>
        <time>2020-08-16T13:03:00Z</time>
      </trkpt>
      <trkpt lat="48.65598" lon="6.48337">
        <ele>222</ele>
        <time>2020-08-16T13:03:02Z</time>
      </trkpt>
      <trkpt lat="48.65604" lon="6.48344">
        <ele>222</ele>
        <time>2020-08-16T13:03:04Z</time>
      </trkpt>
      <trkpt lat="48.65608" lon="6.48349">
        <ele>221</ele>
        <time>2020-08-16T13:03:05Z</time>
      </trkpt>
      <trkpt lat="48.65611" lon="6.48355">
        <ele>221</ele>
        <time>2020-08-16T13:03:06Z</time>
      </trkpt>
      <trkpt lat="48.65616" lon="6.48364">
        <ele>222</ele>
        <time>2020-08-16T13:03:08Z</time>
      </trkpt>
      <trkpt lat="48.65622" lon="6.48373">
        <ele>222</ele>
        <time>2020-08-16T13:03:10Z</time>
      </trkpt>
      <trkpt lat="48.65627" lon="6.48383">
        <ele>222</ele>
        <time>2020-08-16T13:03:12Z</time>
      </trkpt>
      <trkpt lat="48.65631" lon="6.48393">
        <ele>222</ele>
        <time>2020-08-16T13:03:14Z</time>
      </trkpt>
      <trkpt lat="48.65636" lon="6.48401">
        <ele>222</ele>
        <time>2020-08-16T13:03:16Z</time>
      </trkpt>
      <trkpt lat="48.65641" lon="6.4841">
        <ele>222</ele>
        <time>2020-08-16T13:03:18Z</time>
      </trkpt>
      <trkpt lat="48.65645" lon="6.4842">
        <ele>222</ele>
        <time>2020-08-16T13:03:20Z</time>
      </trkpt>
      <trkpt lat="48.65649" lon="6.48431">
        <ele>223</ele>
        <time>2020-08-16T13:03:22Z</time>
      </trkpt>
      <trkpt lat="48.65653" lon="6.48443">
        <ele>223</ele>
        <time>2020-08-16T13:03:24Z</time>
      </trkpt>
      <trkpt lat="48.65657" lon="6.48454">
        <ele>223</ele>
        <time>2020-08-16T13:03:26Z</time>
      </trkpt>
      <trkpt lat="48.65659" lon="6.48464">
        <ele>223</ele>
        <time>2020-08-16T13:03:28Z</time>
      </trkpt>
      <trkpt lat="48.65661" lon="6.48475">
        <ele>223</ele>
        <time>2020-08-16T13:03:30Z</time>
      </trkpt>
      <trkpt lat="48.65662" lon="6.48482">
        <ele>223</ele>
        <time>2020-08-16T13:03:31Z</time>
      </trkpt>
      <trkpt lat="48.65665" lon="6.48493">
        <ele>224</ele>
        <time>2020-08-16T13:03:33Z</time>
      </trkpt>
      <trkpt lat="48.65666" lon="6.48505">
        <ele>224</ele>
        <time>2020-08-16T13:03:35Z</time>
      </trkpt>
      <trkpt lat="48.65668" lon="6.48517">
        <ele>225</ele>
        <time>2020-08-16T13:03:37Z</time>
      </trkpt>
      <trkpt lat="48.65669" lon="6.48528">
        <ele>225</ele>
        <time>2020-08-16T13:03:39Z</time>
      </trkpt>
      <trkpt lat="48.65666" lon="6.48539">
        <ele>225</ele>
        <time>2020-08-16T13:03:41Z</time>
      </trkpt>
      <trkpt lat="48.65665" lon="6.4855">
        <ele>225</ele>
        <time>2020-08-16T13:03:43Z</time>
      </trkpt>
      <trkpt lat="48.65664" lon="6.48562">
        <ele>226</ele>
        <time>2020-08-16T13:03:45Z</time>
      </trkpt>
      <trkpt lat="48.65663" lon="6.48573">
        <ele>226</ele>
        <time>2020-08-16T13:03:47Z</time>
      </trkpt>
      <trkpt lat="48.65663" lon="6.48584">
        <ele>225</ele>
        <time>2020-08-16T13:03:49Z</time>
      </trkpt>
      <trkpt lat="48.65664" lon="6.48596">
        <ele>225</ele>
        <time>2020-08-16T13:03:51Z</time>
      </trkpt>
      <trkpt lat="48.65665" lon="6.48609">
        <ele>224</ele>
        <time>2020-08-16T13:03:53Z</time>
      </trkpt>
      <trkpt lat="48.65665" lon="6.48616">
        <ele>224</ele>
        <time>2020-08-16T13:03:54Z</time>
      </trkpt>
      <trkpt lat="48.65665" lon="6.48629">
        <ele>224</ele>
        <time>2020-08-16T13:03:56Z</time>
      </trkpt>
      <trkpt lat="48.65665" lon="6.48641">
        <ele>224</ele>
        <time>2020-08-16T13:03:58Z</time>
      </trkpt>
      <trkpt lat="48.65665" lon="6.48648">
        <ele>224</ele>
        <time>2020-08-16T13:03:59Z</time>
      </trkpt>
      <trkpt lat="48.65665" lon="6.48661">
        <ele>224</ele>
        <time>2020-08-16T13:04:01Z</time>
      </trkpt>
      <trkpt lat="48.65667" lon="6.48669">
        <ele>224</ele>
        <time>2020-08-16T13:04:02Z</time>
      </trkpt>
      <trkpt lat="48.65669" lon="6.48682">
        <ele>224</ele>
        <time>2020-08-16T13:04:04Z</time>
      </trkpt>
      <trkpt lat="48.6567" lon="6.48689">
        <ele>224</ele>
        <time>2020-08-16T13:04:05Z</time>
      </trkpt>
      <trkpt lat="48.6567" lon="6.48696">
        <ele>224</ele>
        <time>2020-08-16T13:04:06Z</time>
      </trkpt>
      <trkpt lat="48.6567" lon="6.48708">
        <ele>224</ele>
        <time>2020-08-16T13:04:08Z</time>
      </trkpt>
      <trkpt lat="48.65669" lon="6.48716">
        <ele>225</ele>
        <time>2020-08-16T13:04:09Z</time>
      </trkpt>
      <trkpt lat="48.65667" lon="6.48723">
        <ele>225</ele>
        <time>2020-08-16T13:04:10Z</time>
      </trkpt>
      <trkpt lat="48.65667" lon="6.4873">
        <ele>225</ele>
        <time>2020-08-16T13:04:11Z</time>
      </trkpt>
      <trkpt lat="48.65666" lon="6.48737">
        <ele>225</ele>
        <time>2020-08-16T13:04:12Z</time>
      </trkpt>
      <trkpt lat="48.65665" lon="6.48744">
        <ele>225</ele>
        <time>2020-08-16T13:04:13Z</time>
      </trkpt>
      <trkpt lat="48.65665" lon="6.48751">
        <ele>225</ele>
        <time>2020-08-16T13:04:14Z</time>
      </trkpt>
      <trkpt lat="48.65664" lon="6.48764">
        <ele>225</ele>
        <time>2020-08-16T13:04:16Z</time>
      </trkpt>
      <trkpt lat="48.65664" lon="6.48776">
        <ele>225</ele>
        <time>2020-08-16T13:04:18Z</time>
      </trkpt>
      <trkpt lat="48.65664" lon="6.48789">
        <ele>226</ele>
        <time>2020-08-16T13:04:20Z</time>
      </trkpt>
      <trkpt lat="48.65664" lon="6.48801">
        <ele>226</ele>
        <time>2020-08-16T13:04:22Z</time>
      </trkpt>
      <trkpt lat="48.65666" lon="6.48813">
        <ele>227</ele>
        <time>2020-08-16T13:04:24Z</time>
      </trkpt>
      <trkpt lat="48.65667" lon="6.48825">
        <ele>227</ele>
        <time>2020-08-16T13:04:26Z</time>
      </trkpt>
      <trkpt lat="48.65665" lon="6.48837">
        <ele>227</ele>
        <time>2020-08-16T13:04:28Z</time>
      </trkpt>
      <trkpt lat="48.65664" lon="6.48849">
        <ele>226</ele>
        <time>2020-08-16T13:04:30Z</time>
      </trkpt>
      <trkpt lat="48.65666" lon="6.48862">
        <ele>226</ele>
        <time>2020-08-16T13:04:32Z</time>
      </trkpt>
      <trkpt lat="48.65667" lon="6.48875">
        <ele>226</ele>
        <time>2020-08-16T13:04:34Z</time>
      </trkpt>
      <trkpt lat="48.65669" lon="6.48881">
        <ele>226</ele>
        <time>2020-08-16T13:04:35Z</time>
      </trkpt>
      <trkpt lat="48.65669" lon="6.48894">
        <ele>226</ele>
        <time>2020-08-16T13:04:37Z</time>
      </trkpt>
      <trkpt lat="48.65669" lon="6.48907">
        <ele>226</ele>
        <time>2020-08-16T13:04:39Z</time>
      </trkpt>
      <trkpt lat="48.65669" lon="6.48914">
        <ele>226</ele>
        <time>2020-08-16T13:04:40Z</time>
      </trkpt>
      <trkpt lat="48.65669" lon="6.48921">
        <ele>227</ele>
        <time>2020-08-16T13:04:41Z</time>
      </trkpt>
      <trkpt lat="48.65669" lon="6.48933">
        <ele>227</ele>
        <time>2020-08-16T13:04:43Z</time>
      </trkpt>
      <trkpt lat="48.65669" lon="6.4894">
        <ele>227</ele>
        <time>2020-08-16T13:04:44Z</time>
      </trkpt>
      <trkpt lat="48.65669" lon="6.48947">
        <ele>227</ele>
        <time>2020-08-16T13:04:45Z</time>
      </trkpt>
      <trkpt lat="48.65669" lon="6.4896">
        <ele>227</ele>
        <time>2020-08-16T13:04:47Z</time>
      </trkpt>
      <trkpt lat="48.6567" lon="6.48972">
        <ele>227</ele>
        <time>2020-08-16T13:04:49Z</time>
      </trkpt>
      <trkpt lat="48.65669" lon="6.48984">
        <ele>226</ele>
        <time>2020-08-16T13:04:51Z</time>
      </trkpt>
      <trkpt lat="48.65669" lon="6.48992">
        <ele>226</ele>
        <time>2020-08-16T13:04:52Z</time>
      </trkpt>
      <trkpt lat="48.65667" lon="6.49005">
        <ele>225</ele>
        <time>2020-08-16T13:04:54Z</time>
      </trkpt>
      <trkpt lat="48.65668" lon="6.49019">
        <ele>225</ele>
        <time>2020-08-16T13:04:56Z</time>
      </trkpt>
      <trkpt lat="48.6567" lon="6.49032">
        <ele>224</ele>
        <time>2020-08-16T13:04:58Z</time>
      </trkpt>
      <trkpt lat="48.65672" lon="6.49044">
        <ele>223</ele>
        <time>2020-08-16T13:05:00Z</time>
      </trkpt>
      <trkpt lat="48.65673" lon="6.49051">
        <ele>223</ele>
        <time>2020-08-16T13:05:01Z</time>
      </trkpt>
      <trkpt lat="48.65674" lon="6.49058">
        <ele>223</ele>
        <time>2020-08-16T13:05:02Z</time>
      </trkpt>
      <trkpt lat="48.65675" lon="6.49065">
        <ele>223</ele>
        <time>2020-08-16T13:05:03Z</time>
      </trkpt>
      <trkpt lat="48.65678" lon="6.49077">
        <ele>223</ele>
        <time>2020-08-16T13:05:05Z</time>
      </trkpt>
      <trkpt lat="48.65682" lon="6.4909">
        <ele>223</ele>
        <time>2020-08-16T13:05:07Z</time>
      </trkpt>
      <trkpt lat="48.65685" lon="6.49101">
        <ele>223</ele>
        <time>2020-08-16T13:05:09Z</time>
      </trkpt>
      <trkpt lat="48.65687" lon="6.49108">
        <ele>223</ele>
        <time>2020-08-16T13:05:10Z</time>
      </trkpt>
      <trkpt lat="48.65692" lon="6.49119">
        <ele>223</ele>
        <time>2020-08-16T13:05:12Z</time>
      </trkpt>
      <trkpt lat="48.65696" lon="6.4913">
        <ele>223</ele>
        <time>2020-08-16T13:05:14Z</time>
      </trkpt>
      <trkpt lat="48.657" lon="6.49139">
        <ele>222</ele>
        <time>2020-08-16T13:05:16Z</time>
      </trkpt>
      <trkpt lat="48.65706" lon="6.49149">
        <ele>223</ele>
        <time>2020-08-16T13:05:18Z</time>
      </trkpt>
      <trkpt lat="48.6571" lon="6.49159">
        <ele>223</ele>
        <time>2020-08-16T13:05:20Z</time>
      </trkpt>
      <trkpt lat="48.65719" lon="6.49174">
        <ele>223</ele>
        <time>2020-08-16T13:05:23Z</time>
      </trkpt>
      <trkpt lat="48.65722" lon="6.49183">
        <ele>224</ele>
        <time>2020-08-16T13:05:25Z</time>
      </trkpt>
      <trkpt lat="48.65725" lon="6.49192">
        <ele>224</ele>
        <time>2020-08-16T13:05:27Z</time>
      </trkpt>
      <trkpt lat="48.65728" lon="6.49199">
        <ele>224</ele>
        <time>2020-08-16T13:05:30Z</time>
      </trkpt>
      <trkpt lat="48.65732" lon="6.49205">
        <ele>224</ele>
        <time>2020-08-16T13:05:33Z</time>
      </trkpt>
      <trkpt lat="48.65737" lon="6.49212">
        <ele>224</ele>
        <time>2020-08-16T13:05:36Z</time>
      </trkpt>
      <trkpt lat="48.65742" lon="6.49217">
        <ele>224</ele>
        <time>2020-08-16T13:05:38Z</time>
      </trkpt>
      <trkpt lat="48.65746" lon="6.4922">
        <ele>224</ele>
        <time>2020-08-16T13:05:40Z</time>
      </trkpt>
      <trkpt lat="48.65752" lon="6.49224">
        <ele>224</ele>
        <time>2020-08-16T13:05:42Z</time>
      </trkpt>
      <trkpt lat="48.65757" lon="6.49229">
        <ele>224</ele>
        <time>2020-08-16T13:05:44Z</time>
      </trkpt>
      <trkpt lat="48.65765" lon="6.49235">
        <ele>224</ele>
        <time>2020-08-16T13:05:46Z</time>
      </trkpt>
      <trkpt lat="48.65772" lon="6.49238">
        <ele>224</ele>
        <time>2020-08-16T13:05:48Z</time>
      </trkpt>
      <trkpt lat="48.65783" lon="6.49245">
        <ele>223</ele>
        <time>2020-08-16T13:05:51Z</time>
      </trkpt>
      <trkpt lat="48.6579" lon="6.49249">
        <ele>223</ele>
        <time>2020-08-16T13:05:53Z</time>
      </trkpt>
      <trkpt lat="48.65795" lon="6.49255">
        <ele>223</ele>
        <time>2020-08-16T13:05:55Z</time>
      </trkpt>
      <trkpt lat="48.65801" lon="6.49257">
        <ele>223</ele>
        <time>2020-08-16T13:05:57Z</time>
      </trkpt>
      <trkpt lat="48.65807" lon="6.49263">
        <ele>222</ele>
        <time>2020-08-16T13:05:59Z</time>
      </trkpt>
      <trkpt lat="48.65813" lon="6.49267">
        <ele>222</ele>
        <time>2020-08-16T13:06:01Z</time>
      </trkpt>
      <trkpt lat="48.65817" lon="6.49271">
        <ele>222</ele>
        <time>2020-08-16T13:06:02Z</time>
      </trkpt>
      <trkpt lat="48.65821" lon="6.49275">
        <ele>222</ele>
        <time>2020-08-16T13:06:03Z</time>
      </trkpt>
      <trkpt lat="48.65827" lon="6.4928">
        <ele>223</ele>
        <time>2020-08-16T13:06:05Z</time>
      </trkpt>
      <trkpt lat="48.65833" lon="6.49285">
        <ele>223</ele>
        <time>2020-08-16T13:06:07Z</time>
      </trkpt>
      <trkpt lat="48.65839" lon="6.49292">
        <ele>223</ele>
        <time>2020-08-16T13:06:09Z</time>
      </trkpt>
      <trkpt lat="48.65844" lon="6.49301">
        <ele>223</ele>
        <time>2020-08-16T13:06:11Z</time>
      </trkpt>
      <trkpt lat="48.65849" lon="6.4931">
        <ele>223</ele>
        <time>2020-08-16T13:06:13Z</time>
      </trkpt>
      <trkpt lat="48.65852" lon="6.49315">
        <ele>223</ele>
        <time>2020-08-16T13:06:14Z</time>
      </trkpt>
      <trkpt lat="48.65858" lon="6.49321">
        <ele>224</ele>
        <time>2020-08-16T13:06:16Z</time>
      </trkpt>
      <trkpt lat="48.65863" lon="6.4933">
        <ele>223</ele>
        <time>2020-08-16T13:06:18Z</time>
      </trkpt>
      <trkpt lat="48.65867" lon="6.49336">
        <ele>223</ele>
        <time>2020-08-16T13:06:20Z</time>
      </trkpt>
      <trkpt lat="48.65871" lon="6.49345">
        <ele>223</ele>
        <time>2020-08-16T13:06:22Z</time>
      </trkpt>
      <trkpt lat="48.65874" lon="6.49353">
        <ele>223</ele>
        <time>2020-08-16T13:06:24Z</time>
      </trkpt>
      <trkpt lat="48.65879" lon="6.49364">
        <ele>223</ele>
        <time>2020-08-16T13:06:26Z</time>
      </trkpt>
      <trkpt lat="48.65882" lon="6.49373">
        <ele>223</ele>
        <time>2020-08-16T13:06:28Z</time>
      </trkpt>
      <trkpt lat="48.65887" lon="6.49383">
        <ele>222</ele>
        <time>2020-08-16T13:06:30Z</time>
      </trkpt>
      <trkpt lat="48.65894" lon="6.49392">
        <ele>222</ele>
        <time>2020-08-16T13:06:32Z</time>
      </trkpt>
      <trkpt lat="48.65898" lon="6.49402">
        <ele>223</ele>
        <time>2020-08-16T13:06:34Z</time>
      </trkpt>
      <trkpt lat="48.65903" lon="6.4941">
        <ele>223</ele>
        <time>2020-08-16T13:06:36Z</time>
      </trkpt>
      <trkpt lat="48.65907" lon="6.49419">
        <ele>223</ele>
        <time>2020-08-16T13:06:38Z</time>
      </trkpt>
      <trkpt lat="48.65913" lon="6.49427">
        <ele>224</ele>
        <time>2020-08-16T13:06:40Z</time>
      </trkpt>
      <trkpt lat="48.6592" lon="6.49435">
        <ele>224</ele>
        <time>2020-08-16T13:06:42Z</time>
      </trkpt>
      <trkpt lat="48.65926" lon="6.49442">
        <ele>224</ele>
        <time>2020-08-16T13:06:44Z</time>
      </trkpt>
      <trkpt lat="48.65933" lon="6.49448">
        <ele>224</ele>
        <time>2020-08-16T13:06:46Z</time>
      </trkpt>
      <trkpt lat="48.6594" lon="6.49455">
        <ele>224</ele>
        <time>2020-08-16T13:06:48Z</time>
      </trkpt>
      <trkpt lat="48.6595" lon="6.49466">
        <ele>224</ele>
        <time>2020-08-16T13:06:51Z</time>
      </trkpt>
      <trkpt lat="48.65957" lon="6.49472">
        <ele>224</ele>
        <time>2020-08-16T13:06:53Z</time>
      </trkpt>
      <trkpt lat="48.65964" lon="6.49479">
        <ele>224</ele>
        <time>2020-08-16T13:06:55Z</time>
      </trkpt>
      <trkpt lat="48.6597" lon="6.49487">
        <ele>224</ele>
        <time>2020-08-16T13:06:57Z</time>
      </trkpt>
      <trkpt lat="48.65973" lon="6.49493">
        <ele>224</ele>
        <time>2020-08-16T13:06:58Z</time>
      </trkpt>
      <trkpt lat="48.6598" lon="6.49503">
        <ele>224</ele>
        <time>2020-08-16T13:07:00Z</time>
      </trkpt>
      <trkpt lat="48.65983" lon="6.49508">
        <ele>224</ele>
        <time>2020-08-16T13:07:01Z</time>
      </trkpt>
      <trkpt lat="48.65987" lon="6.49513">
        <ele>224</ele>
        <time>2020-08-16T13:07:02Z</time>
      </trkpt>
      <trkpt lat="48.65989" lon="6.49519">
        <ele>224</ele>
        <time>2020-08-16T13:07:03Z</time>
      </trkpt>
      <trkpt lat="48.65993" lon="6.49526">
        <ele>223</ele>
        <time>2020-08-16T13:07:04Z</time>
      </trkpt>
      <trkpt lat="48.65998" lon="6.49533">
        <ele>223</ele>
        <time>2020-08-16T13:07:05Z</time>
      </trkpt>
      <trkpt lat="48.66002" lon="6.4954">
        <ele>223</ele>
        <time>2020-08-16T13:07:06Z</time>
      </trkpt>
      <trkpt lat="48.66007" lon="6.49546">
        <ele>223</ele>
        <time>2020-08-16T13:07:07Z</time>
      </trkpt>
      <trkpt lat="48.6601" lon="6.49553">
        <ele>223</ele>
        <time>2020-08-16T13:07:08Z</time>
      </trkpt>
      <trkpt lat="48.66013" lon="6.49558">
        <ele>223</ele>
        <time>2020-08-16T13:07:09Z</time>
      </trkpt>
      <trkpt lat="48.66017" lon="6.49564">
        <ele>223</ele>
        <time>2020-08-16T13:07:10Z</time>
      </trkpt>
      <trkpt lat="48.66023" lon="6.49573">
        <ele>222</ele>
        <time>2020-08-16T13:07:12Z</time>
      </trkpt>
      <trkpt lat="48.66026" lon="6.49582">
        <ele>222</ele>
        <time>2020-08-16T13:07:14Z</time>
      </trkpt>
      <trkpt lat="48.6603" lon="6.49591">
        <ele>222</ele>
        <time>2020-08-16T13:07:16Z</time>
      </trkpt>
      <trkpt lat="48.66034" lon="6.496">
        <ele>222</ele>
        <time>2020-08-16T13:07:18Z</time>
      </trkpt>
      <trkpt lat="48.66039" lon="6.49608">
        <ele>221</ele>
        <time>2020-08-16T13:07:20Z</time>
      </trkpt>
      <trkpt lat="48.66044" lon="6.49616">
        <ele>221</ele>
        <time>2020-08-16T13:07:22Z</time>
      </trkpt>
      <trkpt lat="48.66048" lon="6.49624">
        <ele>221</ele>
        <time>2020-08-16T13:07:24Z</time>
      </trkpt>
      <trkpt lat="48.66054" lon="6.49631">
        <ele>222</ele>
        <time>2020-08-16T13:07:26Z</time>
      </trkpt>
      <trkpt lat="48.66059" lon="6.49639">
        <ele>222</ele>
        <time>2020-08-16T13:07:28Z</time>
      </trkpt>
      <trkpt lat="48.66066" lon="6.49646">
        <ele>222</ele>
        <time>2020-08-16T13:07:30Z</time>
      </trkpt>
      <trkpt lat="48.66069" lon="6.49656">
        <ele>221</ele>
        <time>2020-08-16T13:07:32Z</time>
      </trkpt>
      <trkpt lat="48.66073" lon="6.49663">
        <ele>220</ele>
        <time>2020-08-16T13:07:34Z</time>
      </trkpt>
      <trkpt lat="48.66077" lon="6.49673">
        <ele>220</ele>
        <time>2020-08-16T13:07:36Z</time>
      </trkpt>
      <trkpt lat="48.66083" lon="6.49681">
        <ele>220</ele>
        <time>2020-08-16T13:07:38Z</time>
      </trkpt>
      <trkpt lat="48.66089" lon="6.49687">
        <ele>219</ele>
        <time>2020-08-16T13:07:40Z</time>
      </trkpt>
      <trkpt lat="48.66096" lon="6.49696">
        <ele>219</ele>
        <time>2020-08-16T13:07:42Z</time>
      </trkpt>
      <trkpt lat="48.661" lon="6.49705">
        <ele>219</ele>
        <time>2020-08-16T13:07:44Z</time>
      </trkpt>
      <trkpt lat="48.66105" lon="6.49713">
        <ele>218</ele>
        <time>2020-08-16T13:07:46Z</time>
      </trkpt>
      <trkpt lat="48.66109" lon="6.49719">
        <ele>218</ele>
        <time>2020-08-16T13:07:47Z</time>
      </trkpt>
      <trkpt lat="48.66114" lon="6.49727">
        <ele>219</ele>
        <time>2020-08-16T13:07:49Z</time>
      </trkpt>
      <trkpt lat="48.66119" lon="6.49733">
        <ele>219</ele>
        <time>2020-08-16T13:07:51Z</time>
      </trkpt>
      <trkpt lat="48.66123" lon="6.4974">
        <ele>219</ele>
        <time>2020-08-16T13:07:53Z</time>
      </trkpt>
      <trkpt lat="48.66127" lon="6.49749">
        <ele>219</ele>
        <time>2020-08-16T13:07:55Z</time>
      </trkpt>
      <trkpt lat="48.66131" lon="6.49755">
        <ele>220</ele>
        <time>2020-08-16T13:07:57Z</time>
      </trkpt>
      <trkpt lat="48.66136" lon="6.49764">
        <ele>220</ele>
        <time>2020-08-16T13:07:59Z</time>
      </trkpt>
      <trkpt lat="48.66141" lon="6.49774">
        <ele>220</ele>
        <time>2020-08-16T13:08:01Z</time>
      </trkpt>
      <trkpt lat="48.66147" lon="6.49781">
        <ele>220</ele>
        <time>2020-08-16T13:08:03Z</time>
      </trkpt>
      <trkpt lat="48.66152" lon="6.49787">
        <ele>220</ele>
        <time>2020-08-16T13:08:05Z</time>
      </trkpt>
      <trkpt lat="48.66157" lon="6.49796">
        <ele>219</ele>
        <time>2020-08-16T13:08:07Z</time>
      </trkpt>
      <trkpt lat="48.66164" lon="6.49805">
        <ele>219</ele>
        <time>2020-08-16T13:08:09Z</time>
      </trkpt>
      <trkpt lat="48.66167" lon="6.49814">
        <ele>219</ele>
        <time>2020-08-16T13:08:11Z</time>
      </trkpt>
      <trkpt lat="48.66172" lon="6.49822">
        <ele>219</ele>
        <time>2020-08-16T13:08:13Z</time>
      </trkpt>
      <trkpt lat="48.66178" lon="6.4983">
        <ele>220</ele>
        <time>2020-08-16T13:08:15Z</time>
      </trkpt>
      <trkpt lat="48.66182" lon="6.4984">
        <ele>219</ele>
        <time>2020-08-16T13:08:17Z</time>
      </trkpt>
      <trkpt lat="48.66188" lon="6.49849">
        <ele>220</ele>
        <time>2020-08-16T13:08:19Z</time>
      </trkpt>
      <trkpt lat="48.66194" lon="6.49856">
        <ele>220</ele>
        <time>2020-08-16T13:08:21Z</time>
      </trkpt>
      <trkpt lat="48.662" lon="6.49863">
        <ele>221</ele>
        <time>2020-08-16T13:08:23Z</time>
      </trkpt>
      <trkpt lat="48.66205" lon="6.49872">
        <ele>221</ele>
        <time>2020-08-16T13:08:25Z</time>
      </trkpt>
      <trkpt lat="48.6621" lon="6.4988">
        <ele>220</ele>
        <time>2020-08-16T13:08:27Z</time>
      </trkpt>
      <trkpt lat="48.66215" lon="6.49889">
        <ele>220</ele>
        <time>2020-08-16T13:08:29Z</time>
      </trkpt>
      <trkpt lat="48.66217" lon="6.49895">
        <ele>219</ele>
        <time>2020-08-16T13:08:30Z</time>
      </trkpt>
      <trkpt lat="48.66222" lon="6.49903">
        <ele>219</ele>
        <time>2020-08-16T13:08:32Z</time>
      </trkpt>
      <trkpt lat="48.66225" lon="6.49912">
        <ele>219</ele>
        <time>2020-08-16T13:08:34Z</time>
      </trkpt>
      <trkpt lat="48.66228" lon="6.49918">
        <ele>219</ele>
        <time>2020-08-16T13:08:35Z</time>
      </trkpt>
      <trkpt lat="48.66232" lon="6.49928">
        <ele>219</ele>
        <time>2020-08-16T13:08:37Z</time>
      </trkpt>
      <trkpt lat="48.66234" lon="6.4994">
        <ele>219</ele>
        <time>2020-08-16T13:08:39Z</time>
      </trkpt>
      <trkpt lat="48.66237" lon="6.49949">
        <ele>218</ele>
        <time>2020-08-16T13:08:41Z</time>
      </trkpt>
      <trkpt lat="48.66239" lon="6.4996">
        <ele>218</ele>
        <time>2020-08-16T13:08:43Z</time>
      </trkpt>
      <trkpt lat="48.6624" lon="6.49971">
        <ele>218</ele>
        <time>2020-08-16T13:08:45Z</time>
      </trkpt>
      <trkpt lat="48.66242" lon="6.49977">
        <ele>219</ele>
        <time>2020-08-16T13:08:46Z</time>
      </trkpt>
      <trkpt lat="48.66242" lon="6.49986">
        <ele>219</ele>
        <time>2020-08-16T13:08:48Z</time>
      </trkpt>
      <trkpt lat="48.66245" lon="6.49993">
        <ele>219</ele>
        <time>2020-08-16T13:08:50Z</time>
      </trkpt>
      <trkpt lat="48.66248" lon="6.50005">
        <ele>219</ele>
        <time>2020-08-16T13:08:52Z</time>
      </trkpt>
      <trkpt lat="48.66249" lon="6.50017">
        <ele>219</ele>
        <time>2020-08-16T13:08:54Z</time>
      </trkpt>
      <trkpt lat="48.66252" lon="6.50029">
        <ele>219</ele>
        <time>2020-08-16T13:08:56Z</time>
      </trkpt>
      <trkpt lat="48.66253" lon="6.50038">
        <ele>218</ele>
        <time>2020-08-16T13:08:58Z</time>
      </trkpt>
      <trkpt lat="48.66254" lon="6.50048">
        <ele>218</ele>
        <time>2020-08-16T13:09:00Z</time>
      </trkpt>
      <trkpt lat="48.66258" lon="6.5006">
        <ele>218</ele>
        <time>2020-08-16T13:09:02Z</time>
      </trkpt>
      <trkpt lat="48.66262" lon="6.50068">
        <ele>218</ele>
        <time>2020-08-16T13:09:04Z</time>
      </trkpt>
      <trkpt lat="48.66267" lon="6.50079">
        <ele>218</ele>
        <time>2020-08-16T13:09:06Z</time>
      </trkpt>
      <trkpt lat="48.66271" lon="6.50088">
        <ele>218</ele>
        <time>2020-08-16T13:09:08Z</time>
      </trkpt>
      <trkpt lat="48.66276" lon="6.50093">
        <ele>218</ele>
        <time>2020-08-16T13:09:10Z</time>
      </trkpt>
      <trkpt lat="48.66282" lon="6.501">
        <ele>219</ele>
        <time>2020-08-16T13:09:12Z</time>
      </trkpt>
      <trkpt lat="48.66289" lon="6.50105">
        <ele>219</ele>
        <time>2020-08-16T13:09:14Z</time>
      </trkpt>
      <trkpt lat="48.66294" lon="6.50109">
        <ele>220</ele>
        <time>2020-08-16T13:09:16Z</time>
      </trkpt>
      <trkpt lat="48.66299" lon="6.50112">
        <ele>220</ele>
        <time>2020-08-16T13:09:18Z</time>
      </trkpt>
      <trkpt lat="48.66306" lon="6.50115">
        <ele>221</ele>
        <time>2020-08-16T13:09:20Z</time>
      </trkpt>
      <trkpt lat="48.66312" lon="6.50119">
        <ele>221</ele>
        <time>2020-08-16T13:09:22Z</time>
      </trkpt>
      <trkpt lat="48.66317" lon="6.50124">
        <ele>221</ele>
        <time>2020-08-16T13:09:24Z</time>
      </trkpt>
      <trkpt lat="48.66324" lon="6.50129">
        <ele>222</ele>
        <time>2020-08-16T13:09:26Z</time>
      </trkpt>
      <trkpt lat="48.66328" lon="6.50136">
        <ele>222</ele>
        <time>2020-08-16T13:09:28Z</time>
      </trkpt>
      <trkpt lat="48.66332" lon="6.50141">
        <ele>222</ele>
        <time>2020-08-16T13:09:30Z</time>
      </trkpt>
      <trkpt lat="48.66339" lon="6.5015">
        <ele>222</ele>
        <time>2020-08-16T13:09:32Z</time>
      </trkpt>
      <trkpt lat="48.66342" lon="6.50158">
        <ele>222</ele>
        <time>2020-08-16T13:09:35Z</time>
      </trkpt>
      <trkpt lat="48.66345" lon="6.50165">
        <ele>222</ele>
        <time>2020-08-16T13:09:37Z</time>
      </trkpt>
      <trkpt lat="48.6635" lon="6.50171">
        <ele>222</ele>
        <time>2020-08-16T13:09:39Z</time>
      </trkpt>
      <trkpt lat="48.66355" lon="6.50177">
        <ele>222</ele>
        <time>2020-08-16T13:09:41Z</time>
      </trkpt>
      <trkpt lat="48.6636" lon="6.50184">
        <ele>223</ele>
        <time>2020-08-16T13:09:43Z</time>
      </trkpt>
      <trkpt lat="48.66365" lon="6.50189">
        <ele>223</ele>
        <time>2020-08-16T13:09:45Z</time>
      </trkpt>
      <trkpt lat="48.6637" lon="6.50194">
        <ele>223</ele>
        <time>2020-08-16T13:09:47Z</time>
      </trkpt>
      <trkpt lat="48.66374" lon="6.50198">
        <ele>223</ele>
        <time>2020-08-16T13:09:49Z</time>
      </trkpt>
      <trkpt lat="48.66378" lon="6.50203">
        <ele>223</ele>
        <time>2020-08-16T13:09:51Z</time>
      </trkpt>
      <trkpt lat="48.66382" lon="6.50208">
        <ele>223</ele>
        <time>2020-08-16T13:09:53Z</time>
      </trkpt>
      <trkpt lat="48.66388" lon="6.50211">
        <ele>223</ele>
        <time>2020-08-16T13:09:55Z</time>
      </trkpt>
      <trkpt lat="48.66392" lon="6.50216">
        <ele>223</ele>
        <time>2020-08-16T13:09:57Z</time>
      </trkpt>
      <trkpt lat="48.66397" lon="6.50221">
        <ele>224</ele>
        <time>2020-08-16T13:09:59Z</time>
      </trkpt>
      <trkpt lat="48.66402" lon="6.50224">
        <ele>225</ele>
        <time>2020-08-16T13:10:01Z</time>
      </trkpt>
      <trkpt lat="48.66406" lon="6.50229">
        <ele>225</ele>
        <time>2020-08-16T13:10:03Z</time>
      </trkpt>
      <trkpt lat="48.6641" lon="6.50233">
        <ele>226</ele>
        <time>2020-08-16T13:10:05Z</time>
      </trkpt>
      <trkpt lat="48.66415" lon="6.50238">
        <ele>226</ele>
        <time>2020-08-16T13:10:07Z</time>
      </trkpt>
      <trkpt lat="48.6642" lon="6.50243">
        <ele>225</ele>
        <time>2020-08-16T13:10:09Z</time>
      </trkpt>
      <trkpt lat="48.66425" lon="6.50247">
        <ele>225</ele>
        <time>2020-08-16T13:10:11Z</time>
      </trkpt>
      <trkpt lat="48.66429" lon="6.50251">
        <ele>224</ele>
        <time>2020-08-16T13:10:13Z</time>
      </trkpt>
      <trkpt lat="48.66433" lon="6.50255">
        <ele>224</ele>
        <time>2020-08-16T13:10:15Z</time>
      </trkpt>
      <trkpt lat="48.66438" lon="6.50261">
        <ele>223</ele>
        <time>2020-08-16T13:10:17Z</time>
      </trkpt>
      <trkpt lat="48.66443" lon="6.50267">
        <ele>223</ele>
        <time>2020-08-16T13:10:19Z</time>
      </trkpt>
      <trkpt lat="48.66446" lon="6.50273">
        <ele>223</ele>
        <time>2020-08-16T13:10:21Z</time>
      </trkpt>
      <trkpt lat="48.66449" lon="6.50279">
        <ele>223</ele>
        <time>2020-08-16T13:10:23Z</time>
      </trkpt>
      <trkpt lat="48.66453" lon="6.50286">
        <ele>223</ele>
        <time>2020-08-16T13:10:25Z</time>
      </trkpt>
      <trkpt lat="48.66456" lon="6.50292">
        <ele>222</ele>
        <time>2020-08-16T13:10:27Z</time>
      </trkpt>
      <trkpt lat="48.66461" lon="6.50299">
        <ele>222</ele>
        <time>2020-08-16T13:10:29Z</time>
      </trkpt>
      <trkpt lat="48.66462" lon="6.50307">
        <ele>222</ele>
        <time>2020-08-16T13:10:31Z</time>
      </trkpt>
      <trkpt lat="48.66466" lon="6.50314">
        <ele>222</ele>
        <time>2020-08-16T13:10:33Z</time>
      </trkpt>
      <trkpt lat="48.66467" lon="6.50322">
        <ele>222</ele>
        <time>2020-08-16T13:10:35Z</time>
      </trkpt>
      <trkpt lat="48.66471" lon="6.50328">
        <ele>222</ele>
        <time>2020-08-16T13:10:37Z</time>
      </trkpt>
      <trkpt lat="48.66472" lon="6.50335">
        <ele>222</ele>
        <time>2020-08-16T13:10:40Z</time>
      </trkpt>
      <trkpt lat="48.66474" lon="6.50344">
        <ele>222</ele>
        <time>2020-08-16T13:10:44Z</time>
      </trkpt>
      <trkpt lat="48.66476" lon="6.50354">
        <ele>221</ele>
        <time>2020-08-16T13:10:47Z</time>
      </trkpt>
      <trkpt lat="48.66477" lon="6.50361">
        <ele>221</ele>
        <time>2020-08-16T13:10:49Z</time>
      </trkpt>
      <trkpt lat="48.66479" lon="6.50371">
        <ele>221</ele>
        <time>2020-08-16T13:10:52Z</time>
      </trkpt>
      <trkpt lat="48.66481" lon="6.5038">
        <ele>221</ele>
        <time>2020-08-16T13:10:54Z</time>
      </trkpt>
      <trkpt lat="48.66483" lon="6.5039">
        <ele>222</ele>
        <time>2020-08-16T13:10:56Z</time>
      </trkpt>
      <trkpt lat="48.66485" lon="6.504">
        <ele>222</ele>
        <time>2020-08-16T13:10:58Z</time>
      </trkpt>
      <trkpt lat="48.66488" lon="6.50412">
        <ele>223</ele>
        <time>2020-08-16T13:11:00Z</time>
      </trkpt>
      <trkpt lat="48.66489" lon="6.50423">
        <ele>224</ele>
        <time>2020-08-16T13:11:02Z</time>
      </trkpt>
      <trkpt lat="48.66491" lon="6.50434">
        <ele>224</ele>
        <time>2020-08-16T13:11:04Z</time>
      </trkpt>
      <trkpt lat="48.66494" lon="6.50445">
        <ele>225</ele>
        <time>2020-08-16T13:11:06Z</time>
      </trkpt>
      <trkpt lat="48.66496" lon="6.50456">
        <ele>224</ele>
        <time>2020-08-16T13:11:08Z</time>
      </trkpt>
      <trkpt lat="48.66499" lon="6.50466">
        <ele>224</ele>
        <time>2020-08-16T13:11:10Z</time>
      </trkpt>
      <trkpt lat="48.66504" lon="6.50475">
        <ele>223</ele>
        <time>2020-08-16T13:11:12Z</time>
      </trkpt>
      <trkpt lat="48.66505" lon="6.50485">
        <ele>222</ele>
        <time>2020-08-16T13:11:14Z</time>
      </trkpt>
      <trkpt lat="48.66509" lon="6.50495">
        <ele>222</ele>
        <time>2020-08-16T13:11:16Z</time>
      </trkpt>
      <trkpt lat="48.66513" lon="6.50504">
        <ele>221</ele>
        <time>2020-08-16T13:11:18Z</time>
      </trkpt>
      <trkpt lat="48.66518" lon="6.50513">
        <ele>221</ele>
        <time>2020-08-16T13:11:20Z</time>
      </trkpt>
      <trkpt lat="48.66523" lon="6.50523">
        <ele>221</ele>
        <time>2020-08-16T13:11:22Z</time>
      </trkpt>
      <trkpt lat="48.66526" lon="6.50534">
        <ele>221</ele>
        <time>2020-08-16T13:11:24Z</time>
      </trkpt>
      <trkpt lat="48.6653" lon="6.50542">
        <ele>221</ele>
        <time>2020-08-16T13:11:26Z</time>
      </trkpt>
      <trkpt lat="48.66536" lon="6.50554">
        <ele>221</ele>
        <time>2020-08-16T13:11:28Z</time>
      </trkpt>
      <trkpt lat="48.66541" lon="6.50564">
        <ele>221</ele>
        <time>2020-08-16T13:11:30Z</time>
      </trkpt>
      <trkpt lat="48.66546" lon="6.50573">
        <ele>221</ele>
        <time>2020-08-16T13:11:32Z</time>
      </trkpt>
      <trkpt lat="48.66549" lon="6.50581">
        <ele>221</ele>
        <time>2020-08-16T13:11:33Z</time>
      </trkpt>
      <trkpt lat="48.66552" lon="6.50591">
        <ele>221</ele>
        <time>2020-08-16T13:11:35Z</time>
      </trkpt>
      <trkpt lat="48.66556" lon="6.506">
        <ele>221</ele>
        <time>2020-08-16T13:11:37Z</time>
      </trkpt>
      <trkpt lat="48.6656" lon="6.50611">
        <ele>222</ele>
        <time>2020-08-16T13:11:39Z</time>
      </trkpt>
      <trkpt lat="48.66563" lon="6.5062">
        <ele>222</ele>
        <time>2020-08-16T13:11:41Z</time>
      </trkpt>
      <trkpt lat="48.66567" lon="6.50629">
        <ele>221</ele>
        <time>2020-08-16T13:11:43Z</time>
      </trkpt>
      <trkpt lat="48.66572" lon="6.50633">
        <ele>222</ele>
        <time>2020-08-16T13:11:44Z</time>
      </trkpt>
      <trkpt lat="48.66576" lon="6.50641">
        <ele>222</ele>
        <time>2020-08-16T13:11:46Z</time>
      </trkpt>
      <trkpt lat="48.66578" lon="6.50651">
        <ele>222</ele>
        <time>2020-08-16T13:11:48Z</time>
      </trkpt>
      <trkpt lat="48.66581" lon="6.5066">
        <ele>222</ele>
        <time>2020-08-16T13:11:50Z</time>
      </trkpt>
      <trkpt lat="48.66585" lon="6.50668">
        <ele>222</ele>
        <time>2020-08-16T13:11:52Z</time>
      </trkpt>
      <trkpt lat="48.66589" lon="6.50675">
        <ele>222</ele>
        <time>2020-08-16T13:11:55Z</time>
      </trkpt>
      <trkpt lat="48.66595" lon="6.50684">
        <ele>222</ele>
        <time>2020-08-16T13:11:57Z</time>
      </trkpt>
      <trkpt lat="48.66597" lon="6.50691">
        <ele>222</ele>
        <time>2020-08-16T13:11:59Z</time>
      </trkpt>
      <trkpt lat="48.66598" lon="6.50702">
        <ele>222</ele>
        <time>2020-08-16T13:12:02Z</time>
      </trkpt>
      <trkpt lat="48.66601" lon="6.50713">
        <ele>221</ele>
        <time>2020-08-16T13:12:04Z</time>
      </trkpt>
      <trkpt lat="48.66602" lon="6.50721">
        <ele>221</ele>
        <time>2020-08-16T13:12:06Z</time>
      </trkpt>
      <trkpt lat="48.66603" lon="6.50728">
        <ele>221</ele>
        <time>2020-08-16T13:12:07Z</time>
      </trkpt>
      <trkpt lat="48.66604" lon="6.50739">
        <ele>221</ele>
        <time>2020-08-16T13:12:10Z</time>
      </trkpt>
      <trkpt lat="48.66602" lon="6.50746">
        <ele>221</ele>
        <time>2020-08-16T13:12:12Z</time>
      </trkpt>
      <trkpt lat="48.66605" lon="6.50755">
        <ele>222</ele>
        <time>2020-08-16T13:12:14Z</time>
      </trkpt>
      <trkpt lat="48.66608" lon="6.50765">
        <ele>222</ele>
        <time>2020-08-16T13:12:16Z</time>
      </trkpt>
      <trkpt lat="48.6661" lon="6.50774">
        <ele>222</ele>
        <time>2020-08-16T13:12:18Z</time>
      </trkpt>
      <trkpt lat="48.66613" lon="6.5078">
        <ele>223</ele>
        <time>2020-08-16T13:12:19Z</time>
      </trkpt>
      <trkpt lat="48.66616" lon="6.50792">
        <ele>223</ele>
        <time>2020-08-16T13:12:21Z</time>
      </trkpt>
      <trkpt lat="48.66616" lon="6.50801">
        <ele>223</ele>
        <time>2020-08-16T13:12:23Z</time>
      </trkpt>
      <trkpt lat="48.66618" lon="6.50811">
        <ele>223</ele>
        <time>2020-08-16T13:12:25Z</time>
      </trkpt>
      <trkpt lat="48.66617" lon="6.5082">
        <ele>223</ele>
        <time>2020-08-16T13:12:27Z</time>
      </trkpt>
      <trkpt lat="48.66618" lon="6.50829">
        <ele>223</ele>
        <time>2020-08-16T13:12:29Z</time>
      </trkpt>
      <trkpt lat="48.66618" lon="6.50837">
        <ele>223</ele>
        <time>2020-08-16T13:12:31Z</time>
      </trkpt>
      <trkpt lat="48.66621" lon="6.50851">
        <ele>223</ele>
        <time>2020-08-16T13:12:33Z</time>
      </trkpt>
      <trkpt lat="48.66621" lon="6.50858">
        <ele>223</ele>
        <time>2020-08-16T13:12:35Z</time>
      </trkpt>
      <trkpt lat="48.66623" lon="6.50864">
        <ele>223</ele>
        <time>2020-08-16T13:12:36Z</time>
      </trkpt>
      <trkpt lat="48.66625" lon="6.50875">
        <ele>223</ele>
        <time>2020-08-16T13:12:38Z</time>
      </trkpt>
      <trkpt lat="48.66626" lon="6.50886">
        <ele>223</ele>
        <time>2020-08-16T13:12:40Z</time>
      </trkpt>
      <trkpt lat="48.66625" lon="6.50897">
        <ele>223</ele>
        <time>2020-08-16T13:12:42Z</time>
      </trkpt>
      <trkpt lat="48.66624" lon="6.50907">
        <ele>224</ele>
        <time>2020-08-16T13:12:44Z</time>
      </trkpt>
      <trkpt lat="48.66623" lon="6.50915">
        <ele>224</ele>
        <time>2020-08-16T13:12:46Z</time>
      </trkpt>
      <trkpt lat="48.66623" lon="6.50923">
        <ele>224</ele>
        <time>2020-08-16T13:12:48Z</time>
      </trkpt>
      <trkpt lat="48.66619" lon="6.5093">
        <ele>224</ele>
        <time>2020-08-16T13:12:50Z</time>
      </trkpt>
      <trkpt lat="48.66612" lon="6.50945">
        <ele>224</ele>
        <time>2020-08-16T13:12:55Z</time>
      </trkpt>
      <trkpt lat="48.66609" lon="6.50959">
        <ele>224</ele>
        <time>2020-08-16T13:12:59Z</time>
      </trkpt>
      <trkpt lat="48.66608" lon="6.50966">
        <ele>224</ele>
        <time>2020-08-16T13:13:01Z</time>
      </trkpt>
      <trkpt lat="48.66607" lon="6.50974">
        <ele>224</ele>
        <time>2020-08-16T13:13:03Z</time>
      </trkpt>
      <trkpt lat="48.66611" lon="6.50983">
        <ele>223</ele>
        <time>2020-08-16T13:13:05Z</time>
      </trkpt>
      <trkpt lat="48.66614" lon="6.50989">
        <ele>223</ele>
        <time>2020-08-16T13:13:07Z</time>
      </trkpt>
      <trkpt lat="48.66619" lon="6.50993">
        <ele>223</ele>
        <time>2020-08-16T13:13:09Z</time>
      </trkpt>
      <trkpt lat="48.66622" lon="6.50999">
        <ele>224</ele>
        <time>2020-08-16T13:13:12Z</time>
      </trkpt>
      <trkpt lat="48.66625" lon="6.51006">
        <ele>224</ele>
        <time>2020-08-16T13:13:14Z</time>
      </trkpt>
      <trkpt lat="48.66628" lon="6.51017">
        <ele>223</ele>
        <time>2020-08-16T13:13:16Z</time>
      </trkpt>
      <trkpt lat="48.6663" lon="6.51026">
        <ele>223</ele>
        <time>2020-08-16T13:13:17Z</time>
      </trkpt>
      <trkpt lat="48.66633" lon="6.51036">
        <ele>223</ele>
        <time>2020-08-16T13:13:18Z</time>
      </trkpt>
      <trkpt lat="48.66634" lon="6.51047">
        <ele>223</ele>
        <time>2020-08-16T13:13:19Z</time>
      </trkpt>
      <trkpt lat="48.66635" lon="6.51059">
        <ele>222</ele>
        <time>2020-08-16T13:13:20Z</time>
      </trkpt>
      <trkpt lat="48.66636" lon="6.5107">
        <ele>222</ele>
        <time>2020-08-16T13:13:21Z</time>
      </trkpt>
      <trkpt lat="48.66637" lon="6.51082">
        <ele>222</ele>
        <time>2020-08-16T13:13:22Z</time>
      </trkpt>
      <trkpt lat="48.66637" lon="6.51094">
        <ele>222</ele>
        <time>2020-08-16T13:13:23Z</time>
      </trkpt>
      <trkpt lat="48.6664" lon="6.51106">
        <ele>222</ele>
        <time>2020-08-16T13:13:24Z</time>
      </trkpt>
      <trkpt lat="48.66641" lon="6.51115">
        <ele>222</ele>
        <time>2020-08-16T13:13:25Z</time>
      </trkpt>
      <trkpt lat="48.66641" lon="6.51126">
        <ele>222</ele>
        <time>2020-08-16T13:13:26Z</time>
      </trkpt>
      <trkpt lat="48.66643" lon="6.51136">
        <ele>222</ele>
        <time>2020-08-16T13:13:27Z</time>
      </trkpt>
      <trkpt lat="48.66645" lon="6.51146">
        <ele>223</ele>
        <time>2020-08-16T13:13:28Z</time>
      </trkpt>
      <trkpt lat="48.66646" lon="6.51155">
        <ele>223</ele>
        <time>2020-08-16T13:13:29Z</time>
      </trkpt>
      <trkpt lat="48.66647" lon="6.51163">
        <ele>223</ele>
        <time>2020-08-16T13:13:30Z</time>
      </trkpt>
      <trkpt lat="48.66649" lon="6.51177">
        <ele>223</ele>
        <time>2020-08-16T13:13:32Z</time>
      </trkpt>
      <trkpt lat="48.66652" lon="6.51185">
        <ele>223</ele>
        <time>2020-08-16T13:13:33Z</time>
      </trkpt>
      <trkpt lat="48.66654" lon="6.51193">
        <ele>223</ele>
        <time>2020-08-16T13:13:34Z</time>
      </trkpt>
      <trkpt lat="48.66657" lon="6.512">
        <ele>223</ele>
        <time>2020-08-16T13:13:35Z</time>
      </trkpt>
      <trkpt lat="48.66659" lon="6.51207">
        <ele>223</ele>
        <time>2020-08-16T13:13:36Z</time>
      </trkpt>
      <trkpt lat="48.66661" lon="6.51214">
        <ele>223</ele>
        <time>2020-08-16T13:13:37Z</time>
      </trkpt>
      <trkpt lat="48.66663" lon="6.5122">
        <ele>223</ele>
        <time>2020-08-16T13:13:38Z</time>
      </trkpt>
      <trkpt lat="48.66665" lon="6.51228">
        <ele>223</ele>
        <time>2020-08-16T13:13:39Z</time>
      </trkpt>
      <trkpt lat="48.6667" lon="6.51238">
        <ele>223</ele>
        <time>2020-08-16T13:13:41Z</time>
      </trkpt>
      <trkpt lat="48.66672" lon="6.51248">
        <ele>222</ele>
        <time>2020-08-16T13:13:43Z</time>
      </trkpt>
      <trkpt lat="48.66676" lon="6.51259">
        <ele>222</ele>
        <time>2020-08-16T13:13:45Z</time>
      </trkpt>
      <trkpt lat="48.6668" lon="6.51267">
        <ele>223</ele>
        <time>2020-08-16T13:13:47Z</time>
      </trkpt>
      <trkpt lat="48.66684" lon="6.51273">
        <ele>223</ele>
        <time>2020-08-16T13:13:49Z</time>
      </trkpt>
      <trkpt lat="48.66688" lon="6.51279">
        <ele>224</ele>
        <time>2020-08-16T13:14:04Z</time>
      </trkpt>
      <trkpt lat="48.66693" lon="6.51288">
        <ele>224</ele>
        <time>2020-08-16T13:14:07Z</time>
      </trkpt>
      <trkpt lat="48.66696" lon="6.51297">
        <ele>223</ele>
        <time>2020-08-16T13:14:09Z</time>
      </trkpt>
      <trkpt lat="48.66702" lon="6.51302">
        <ele>223</ele>
        <time>2020-08-16T13:14:11Z</time>
      </trkpt>
      <trkpt lat="48.66706" lon="6.5131">
        <ele>222</ele>
        <time>2020-08-16T13:14:13Z</time>
      </trkpt>
      <trkpt lat="48.6671" lon="6.5132">
        <ele>222</ele>
        <time>2020-08-16T13:14:15Z</time>
      </trkpt>
      <trkpt lat="48.66715" lon="6.51329">
        <ele>222</ele>
        <time>2020-08-16T13:14:17Z</time>
      </trkpt>
      <trkpt lat="48.66721" lon="6.51338">
        <ele>222</ele>
        <time>2020-08-16T13:14:19Z</time>
      </trkpt>
      <trkpt lat="48.66726" lon="6.51347">
        <ele>222</ele>
        <time>2020-08-16T13:14:21Z</time>
      </trkpt>
      <trkpt lat="48.66731" lon="6.51358">
        <ele>222</ele>
        <time>2020-08-16T13:14:23Z</time>
      </trkpt>
      <trkpt lat="48.66735" lon="6.5137">
        <ele>222</ele>
        <time>2020-08-16T13:14:25Z</time>
      </trkpt>
      <trkpt lat="48.6674" lon="6.5138">
        <ele>222</ele>
        <time>2020-08-16T13:14:27Z</time>
      </trkpt>
      <trkpt lat="48.66742" lon="6.51386">
        <ele>222</ele>
        <time>2020-08-16T13:14:28Z</time>
      </trkpt>
      <trkpt lat="48.66748" lon="6.51395">
        <ele>222</ele>
        <time>2020-08-16T13:14:30Z</time>
      </trkpt>
      <trkpt lat="48.66751" lon="6.51405">
        <ele>222</ele>
        <time>2020-08-16T13:14:32Z</time>
      </trkpt>
      <trkpt lat="48.66753" lon="6.51416">
        <ele>222</ele>
        <time>2020-08-16T13:14:34Z</time>
      </trkpt>
      <trkpt lat="48.66755" lon="6.51425">
        <ele>222</ele>
        <time>2020-08-16T13:14:36Z</time>
      </trkpt>
      <trkpt lat="48.66757" lon="6.51437">
        <ele>222</ele>
        <time>2020-08-16T13:14:38Z</time>
      </trkpt>
      <trkpt lat="48.66757" lon="6.51446">
        <ele>222</ele>
        <time>2020-08-16T13:14:40Z</time>
      </trkpt>
      <trkpt lat="48.66759" lon="6.51455">
        <ele>222</ele>
        <time>2020-08-16T13:14:42Z</time>
      </trkpt>
      <trkpt lat="48.66761" lon="6.51466">
        <ele>222</ele>
        <time>2020-08-16T13:14:44Z</time>
      </trkpt>
      <trkpt lat="48.66764" lon="6.51474">
        <ele>222</ele>
        <time>2020-08-16T13:14:46Z</time>
      </trkpt>
      <trkpt lat="48.66764" lon="6.51484">
        <ele>222</ele>
        <time>2020-08-16T13:14:48Z</time>
      </trkpt>
      <trkpt lat="48.66766" lon="6.51496">
        <ele>222</ele>
        <time>2020-08-16T13:14:50Z</time>
      </trkpt>
      <trkpt lat="48.66767" lon="6.51508">
        <ele>222</ele>
        <time>2020-08-16T13:14:52Z</time>
      </trkpt>
      <trkpt lat="48.66767" lon="6.51516">
        <ele>222</ele>
        <time>2020-08-16T13:14:54Z</time>
      </trkpt>
      <trkpt lat="48.66766" lon="6.51529">
        <ele>222</ele>
        <time>2020-08-16T13:14:56Z</time>
      </trkpt>
      <trkpt lat="48.66766" lon="6.5154">
        <ele>222</ele>
        <time>2020-08-16T13:14:58Z</time>
      </trkpt>
      <trkpt lat="48.66765" lon="6.51547">
        <ele>222</ele>
        <time>2020-08-16T13:14:59Z</time>
      </trkpt>
      <trkpt lat="48.66764" lon="6.51558">
        <ele>222</ele>
        <time>2020-08-16T13:15:01Z</time>
      </trkpt>
      <trkpt lat="48.66763" lon="6.51568">
        <ele>222</ele>
        <time>2020-08-16T13:15:03Z</time>
      </trkpt>
      <trkpt lat="48.66762" lon="6.51579">
        <ele>222</ele>
        <time>2020-08-16T13:15:05Z</time>
      </trkpt>
      <trkpt lat="48.66763" lon="6.51593">
        <ele>222</ele>
        <time>2020-08-16T13:15:07Z</time>
      </trkpt>
      <trkpt lat="48.66765" lon="6.51605">
        <ele>222</ele>
        <time>2020-08-16T13:15:09Z</time>
      </trkpt>
      <trkpt lat="48.66767" lon="6.51618">
        <ele>222</ele>
        <time>2020-08-16T13:15:11Z</time>
      </trkpt>
      <trkpt lat="48.66769" lon="6.51629">
        <ele>222</ele>
        <time>2020-08-16T13:15:13Z</time>
      </trkpt>
      <trkpt lat="48.66771" lon="6.51641">
        <ele>222</ele>
        <time>2020-08-16T13:15:15Z</time>
      </trkpt>
      <trkpt lat="48.66774" lon="6.51647">
        <ele>222</ele>
        <time>2020-08-16T13:15:16Z</time>
      </trkpt>
      <trkpt lat="48.66777" lon="6.51654">
        <ele>222</ele>
        <time>2020-08-16T13:15:17Z</time>
      </trkpt>
      <trkpt lat="48.66779" lon="6.51666">
        <ele>222</ele>
        <time>2020-08-16T13:15:19Z</time>
      </trkpt>
      <trkpt lat="48.6678" lon="6.51678">
        <ele>222</ele>
        <time>2020-08-16T13:15:21Z</time>
      </trkpt>
      <trkpt lat="48.66784" lon="6.51691">
        <ele>222</ele>
        <time>2020-08-16T13:15:23Z</time>
      </trkpt>
      <trkpt lat="48.66787" lon="6.51697">
        <ele>222</ele>
        <time>2020-08-16T13:15:24Z</time>
      </trkpt>
      <trkpt lat="48.66789" lon="6.51709">
        <ele>222</ele>
        <time>2020-08-16T13:15:26Z</time>
      </trkpt>
      <trkpt lat="48.66792" lon="6.51715">
        <ele>222</ele>
        <time>2020-08-16T13:15:27Z</time>
      </trkpt>
      <trkpt lat="48.66797" lon="6.51727">
        <ele>222</ele>
        <time>2020-08-16T13:15:29Z</time>
      </trkpt>
      <trkpt lat="48.66801" lon="6.51731">
        <ele>222</ele>
        <time>2020-08-16T13:15:30Z</time>
      </trkpt>
      <trkpt lat="48.66804" lon="6.51737">
        <ele>222</ele>
        <time>2020-08-16T13:15:31Z</time>
      </trkpt>
      <trkpt lat="48.6681" lon="6.51747">
        <ele>222</ele>
        <time>2020-08-16T13:15:33Z</time>
      </trkpt>
      <trkpt lat="48.66814" lon="6.51752">
        <ele>222</ele>
        <time>2020-08-16T13:15:34Z</time>
      </trkpt>
      <trkpt lat="48.66817" lon="6.51757">
        <ele>222</ele>
        <time>2020-08-16T13:15:35Z</time>
      </trkpt>
      <trkpt lat="48.66822" lon="6.51767">
        <ele>222</ele>
        <time>2020-08-16T13:15:37Z</time>
      </trkpt>
      <trkpt lat="48.66829" lon="6.51776">
        <ele>222</ele>
        <time>2020-08-16T13:15:39Z</time>
      </trkpt>
      <trkpt lat="48.66835" lon="6.51783">
        <ele>222</ele>
        <time>2020-08-16T13:15:41Z</time>
      </trkpt>
      <trkpt lat="48.66841" lon="6.5179">
        <ele>222</ele>
        <time>2020-08-16T13:15:43Z</time>
      </trkpt>
      <trkpt lat="48.66848" lon="6.51796">
        <ele>222</ele>
        <time>2020-08-16T13:15:44Z</time>
      </trkpt>
      <trkpt lat="48.66856" lon="6.51804">
        <ele>222</ele>
        <time>2020-08-16T13:15:46Z</time>
      </trkpt>
      <trkpt lat="48.66863" lon="6.5181">
        <ele>222</ele>
        <time>2020-08-16T13:15:48Z</time>
      </trkpt>
      <trkpt lat="48.66868" lon="6.51811">
        <ele>222</ele>
        <time>2020-08-16T13:15:49Z</time>
      </trkpt>
      <trkpt lat="48.66872" lon="6.51815">
        <ele>222</ele>
        <time>2020-08-16T13:15:50Z</time>
      </trkpt>
      <trkpt lat="48.66877" lon="6.51818">
        <ele>222</ele>
        <time>2020-08-16T13:15:51Z</time>
      </trkpt>
      <trkpt lat="48.66882" lon="6.51822">
        <ele>222</ele>
        <time>2020-08-16T13:15:52Z</time>
      </trkpt>
      <trkpt lat="48.66887" lon="6.51825">
        <ele>222</ele>
        <time>2020-08-16T13:15:53Z</time>
      </trkpt>
      <trkpt lat="48.66895" lon="6.5183">
        <ele>222</ele>
        <time>2020-08-16T13:15:55Z</time>
      </trkpt>
      <trkpt lat="48.66904" lon="6.51834">
        <ele>222</ele>
        <time>2020-08-16T13:15:57Z</time>
      </trkpt>
      <trkpt lat="48.66909" lon="6.51836">
        <ele>222</ele>
        <time>2020-08-16T13:15:58Z</time>
      </trkpt>
      <trkpt lat="48.66913" lon="6.51837">
        <ele>223</ele>
        <time>2020-08-16T13:15:59Z</time>
      </trkpt>
      <trkpt lat="48.66921" lon="6.51837">
        <ele>223</ele>
        <time>2020-08-16T13:16:01Z</time>
      </trkpt>
      <trkpt lat="48.66927" lon="6.51838">
        <ele>223</ele>
        <time>2020-08-16T13:16:02Z</time>
      </trkpt>
      <trkpt lat="48.66931" lon="6.51839">
        <ele>223</ele>
        <time>2020-08-16T13:16:03Z</time>
      </trkpt>
      <trkpt lat="48.66936" lon="6.51842">
        <ele>223</ele>
        <time>2020-08-16T13:16:04Z</time>
      </trkpt>
      <trkpt lat="48.66941" lon="6.51843">
        <ele>223</ele>
        <time>2020-08-16T13:16:05Z</time>
      </trkpt>
      <trkpt lat="48.66946" lon="6.51844">
        <ele>224</ele>
        <time>2020-08-16T13:16:06Z</time>
      </trkpt>
      <trkpt lat="48.6695" lon="6.51846">
        <ele>224</ele>
        <time>2020-08-16T13:16:07Z</time>
      </trkpt>
      <trkpt lat="48.66955" lon="6.51847">
        <ele>224</ele>
        <time>2020-08-16T13:16:08Z</time>
      </trkpt>
      <trkpt lat="48.66959" lon="6.51849">
        <ele>224</ele>
        <time>2020-08-16T13:16:09Z</time>
      </trkpt>
      <trkpt lat="48.66964" lon="6.51849">
        <ele>224</ele>
        <time>2020-08-16T13:16:10Z</time>
      </trkpt>
      <trkpt lat="48.66974" lon="6.51853">
        <ele>224</ele>
        <time>2020-08-16T13:16:12Z</time>
      </trkpt>
      <trkpt lat="48.66982" lon="6.51856">
        <ele>223</ele>
        <time>2020-08-16T13:16:14Z</time>
      </trkpt>
      <trkpt lat="48.66991" lon="6.51861">
        <ele>223</ele>
        <time>2020-08-16T13:16:16Z</time>
      </trkpt>
      <trkpt lat="48.66996" lon="6.51862">
        <ele>223</ele>
        <time>2020-08-16T13:16:17Z</time>
      </trkpt>
      <trkpt lat="48.67" lon="6.51867">
        <ele>223</ele>
        <time>2020-08-16T13:16:18Z</time>
      </trkpt>
      <trkpt lat="48.67009" lon="6.5187">
        <ele>223</ele>
        <time>2020-08-16T13:16:20Z</time>
      </trkpt>
      <trkpt lat="48.67021" lon="6.51877">
        <ele>223</ele>
        <time>2020-08-16T13:16:23Z</time>
      </trkpt>
      <trkpt lat="48.67025" lon="6.5188">
        <ele>223</ele>
        <time>2020-08-16T13:16:24Z</time>
      </trkpt>
      <trkpt lat="48.67033" lon="6.51886">
        <ele>223</ele>
        <time>2020-08-16T13:16:26Z</time>
      </trkpt>
      <trkpt lat="48.67037" lon="6.5189">
        <ele>223</ele>
        <time>2020-08-16T13:16:27Z</time>
      </trkpt>
      <trkpt lat="48.67045" lon="6.51896">
        <ele>223</ele>
        <time>2020-08-16T13:16:29Z</time>
      </trkpt>
      <trkpt lat="48.67052" lon="6.51904">
        <ele>223</ele>
        <time>2020-08-16T13:16:31Z</time>
      </trkpt>
      <trkpt lat="48.67056" lon="6.51908">
        <ele>223</ele>
        <time>2020-08-16T13:16:32Z</time>
      </trkpt>
      <trkpt lat="48.67063" lon="6.51915">
        <ele>223</ele>
        <time>2020-08-16T13:16:34Z</time>
      </trkpt>
      <trkpt lat="48.67067" lon="6.51919">
        <ele>223</ele>
        <time>2020-08-16T13:16:35Z</time>
      </trkpt>
      <trkpt lat="48.67073" lon="6.51929">
        <ele>223</ele>
        <time>2020-08-16T13:16:37Z</time>
      </trkpt>
      <trkpt lat="48.6708" lon="6.51938">
        <ele>223</ele>
        <time>2020-08-16T13:16:39Z</time>
      </trkpt>
      <trkpt lat="48.67083" lon="6.51943">
        <ele>223</ele>
        <time>2020-08-16T13:16:40Z</time>
      </trkpt>
      <trkpt lat="48.67085" lon="6.5195">
        <ele>223</ele>
        <time>2020-08-16T13:16:41Z</time>
      </trkpt>
      <trkpt lat="48.67092" lon="6.5196">
        <ele>223</ele>
        <time>2020-08-16T13:16:43Z</time>
      </trkpt>
      <trkpt lat="48.67094" lon="6.51965">
        <ele>222</ele>
        <time>2020-08-16T13:16:44Z</time>
      </trkpt>
      <trkpt lat="48.67098" lon="6.5197">
        <ele>222</ele>
        <time>2020-08-16T13:16:45Z</time>
      </trkpt>
      <trkpt lat="48.67103" lon="6.51982">
        <ele>222</ele>
        <time>2020-08-16T13:16:47Z</time>
      </trkpt>
      <trkpt lat="48.67106" lon="6.51987">
        <ele>222</ele>
        <time>2020-08-16T13:16:48Z</time>
      </trkpt>
      <trkpt lat="48.6711" lon="6.51998">
        <ele>222</ele>
        <time>2020-08-16T13:16:50Z</time>
      </trkpt>
      <trkpt lat="48.67114" lon="6.52009">
        <ele>222</ele>
        <time>2020-08-16T13:16:52Z</time>
      </trkpt>
      <trkpt lat="48.67118" lon="6.52021">
        <ele>222</ele>
        <time>2020-08-16T13:16:54Z</time>
      </trkpt>
      <trkpt lat="48.6712" lon="6.52027">
        <ele>222</ele>
        <time>2020-08-16T13:16:55Z</time>
      </trkpt>
      <trkpt lat="48.67122" lon="6.52034">
        <ele>222</ele>
        <time>2020-08-16T13:16:56Z</time>
      </trkpt>
      <trkpt lat="48.67124" lon="6.5204">
        <ele>222</ele>
        <time>2020-08-16T13:16:57Z</time>
      </trkpt>
      <trkpt lat="48.67126" lon="6.52047">
        <ele>223</ele>
        <time>2020-08-16T13:16:58Z</time>
      </trkpt>
      <trkpt lat="48.67129" lon="6.52059">
        <ele>223</ele>
        <time>2020-08-16T13:17:00Z</time>
      </trkpt>
      <trkpt lat="48.67131" lon="6.52071">
        <ele>223</ele>
        <time>2020-08-16T13:17:02Z</time>
      </trkpt>
      <trkpt lat="48.67133" lon="6.52078">
        <ele>223</ele>
        <time>2020-08-16T13:17:03Z</time>
      </trkpt>
      <trkpt lat="48.67136" lon="6.5209">
        <ele>223</ele>
        <time>2020-08-16T13:17:05Z</time>
      </trkpt>
      <trkpt lat="48.67137" lon="6.52102">
        <ele>223</ele>
        <time>2020-08-16T13:17:07Z</time>
      </trkpt>
      <trkpt lat="48.67138" lon="6.52109">
        <ele>223</ele>
        <time>2020-08-16T13:17:08Z</time>
      </trkpt>
      <trkpt lat="48.6714" lon="6.52116">
        <ele>223</ele>
        <time>2020-08-16T13:17:09Z</time>
      </trkpt>
      <trkpt lat="48.67142" lon="6.52127">
        <ele>224</ele>
        <time>2020-08-16T13:17:11Z</time>
      </trkpt>
      <trkpt lat="48.67143" lon="6.52134">
        <ele>224</ele>
        <time>2020-08-16T13:17:12Z</time>
      </trkpt>
      <trkpt lat="48.67144" lon="6.52144">
        <ele>224</ele>
        <time>2020-08-16T13:17:14Z</time>
      </trkpt>
      <trkpt lat="48.67144" lon="6.52153">
        <ele>224</ele>
        <time>2020-08-16T13:17:16Z</time>
      </trkpt>
      <trkpt lat="48.67145" lon="6.52165">
        <ele>224</ele>
        <time>2020-08-16T13:17:18Z</time>
      </trkpt>
      <trkpt lat="48.67144" lon="6.52177">
        <ele>224</ele>
        <time>2020-08-16T13:17:20Z</time>
      </trkpt>
      <trkpt lat="48.67144" lon="6.5219">
        <ele>223</ele>
        <time>2020-08-16T13:17:22Z</time>
      </trkpt>
      <trkpt lat="48.67143" lon="6.52203">
        <ele>223</ele>
        <time>2020-08-16T13:17:24Z</time>
      </trkpt>
      <trkpt lat="48.67142" lon="6.52216">
        <ele>223</ele>
        <time>2020-08-16T13:17:26Z</time>
      </trkpt>
      <trkpt lat="48.67139" lon="6.52229">
        <ele>223</ele>
        <time>2020-08-16T13:17:28Z</time>
      </trkpt>
      <trkpt lat="48.67138" lon="6.52241">
        <ele>223</ele>
        <time>2020-08-16T13:17:30Z</time>
      </trkpt>
      <trkpt lat="48.67135" lon="6.52254">
        <ele>223</ele>
        <time>2020-08-16T13:17:32Z</time>
      </trkpt>
      <trkpt lat="48.67134" lon="6.52261">
        <ele>223</ele>
        <time>2020-08-16T13:17:33Z</time>
      </trkpt>
      <trkpt lat="48.67131" lon="6.52272">
        <ele>223</ele>
        <time>2020-08-16T13:17:35Z</time>
      </trkpt>
      <trkpt lat="48.67128" lon="6.52284">
        <ele>222</ele>
        <time>2020-08-16T13:17:37Z</time>
      </trkpt>
      <trkpt lat="48.67125" lon="6.52295">
        <ele>222</ele>
        <time>2020-08-16T13:17:39Z</time>
      </trkpt>
      <trkpt lat="48.6712" lon="6.52307">
        <ele>222</ele>
        <time>2020-08-16T13:17:41Z</time>
      </trkpt>
      <trkpt lat="48.67119" lon="6.52317">
        <ele>222</ele>
        <time>2020-08-16T13:17:43Z</time>
      </trkpt>
      <trkpt lat="48.67116" lon="6.52329">
        <ele>222</ele>
        <time>2020-08-16T13:17:45Z</time>
      </trkpt>
      <trkpt lat="48.67112" lon="6.52342">
        <ele>222</ele>
        <time>2020-08-16T13:17:47Z</time>
      </trkpt>
      <trkpt lat="48.6711" lon="6.52349">
        <ele>222</ele>
        <time>2020-08-16T13:17:48Z</time>
      </trkpt>
      <trkpt lat="48.67107" lon="6.52361">
        <ele>222</ele>
        <time>2020-08-16T13:17:50Z</time>
      </trkpt>
      <trkpt lat="48.67106" lon="6.52375">
        <ele>222</ele>
        <time>2020-08-16T13:17:52Z</time>
      </trkpt>
      <trkpt lat="48.67105" lon="6.52382">
        <ele>222</ele>
        <time>2020-08-16T13:17:53Z</time>
      </trkpt>
      <trkpt lat="48.67104" lon="6.52393">
        <ele>222</ele>
        <time>2020-08-16T13:17:55Z</time>
      </trkpt>
      <trkpt lat="48.67103" lon="6.52405">
        <ele>222</ele>
        <time>2020-08-16T13:17:57Z</time>
      </trkpt>
      <trkpt lat="48.67102" lon="6.52417">
        <ele>222</ele>
        <time>2020-08-16T13:17:59Z</time>
      </trkpt>
      <trkpt lat="48.67101" lon="6.52428">
        <ele>222</ele>
        <time>2020-08-16T13:18:01Z</time>
      </trkpt>
      <trkpt lat="48.67101" lon="6.52441">
        <ele>221</ele>
        <time>2020-08-16T13:18:03Z</time>
      </trkpt>
      <trkpt lat="48.67101" lon="6.52452">
        <ele>221</ele>
        <time>2020-08-16T13:18:05Z</time>
      </trkpt>
      <trkpt lat="48.67101" lon="6.52463">
        <ele>221</ele>
        <time>2020-08-16T13:18:07Z</time>
      </trkpt>
      <trkpt lat="48.67102" lon="6.52473">
        <ele>221</ele>
        <time>2020-08-16T13:18:09Z</time>
      </trkpt>
      <trkpt lat="48.67101" lon="6.52484">
        <ele>221</ele>
        <time>2020-08-16T13:18:11Z</time>
      </trkpt>
      <trkpt lat="48.67101" lon="6.52497">
        <ele>222</ele>
        <time>2020-08-16T13:18:13Z</time>
      </trkpt>
      <trkpt lat="48.67099" lon="6.52503">
        <ele>222</ele>
        <time>2020-08-16T13:18:14Z</time>
      </trkpt>
      <trkpt lat="48.67098" lon="6.5251">
        <ele>222</ele>
        <time>2020-08-16T13:18:15Z</time>
      </trkpt>
      <trkpt lat="48.67096" lon="6.52521">
        <ele>222</ele>
        <time>2020-08-16T13:18:17Z</time>
      </trkpt>
      <trkpt lat="48.67096" lon="6.52531">
        <ele>222</ele>
        <time>2020-08-16T13:18:19Z</time>
      </trkpt>
      <trkpt lat="48.67096" lon="6.52542">
        <ele>223</ele>
        <time>2020-08-16T13:18:21Z</time>
      </trkpt>
      <trkpt lat="48.67096" lon="6.52551">
        <ele>224</ele>
        <time>2020-08-16T13:18:23Z</time>
      </trkpt>
      <trkpt lat="48.67097" lon="6.52558">
        <ele>224</ele>
        <time>2020-08-16T13:18:25Z</time>
      </trkpt>
      <trkpt lat="48.67099" lon="6.52567">
        <ele>224</ele>
        <time>2020-08-16T13:18:29Z</time>
      </trkpt>
      <trkpt lat="48.67101" lon="6.52573">
        <ele>224</ele>
        <time>2020-08-16T13:18:33Z</time>
      </trkpt>
      <trkpt lat="48.67104" lon="6.52582">
        <ele>224</ele>
        <time>2020-08-16T13:18:36Z</time>
      </trkpt>
      <trkpt lat="48.67106" lon="6.52589">
        <ele>224</ele>
        <time>2020-08-16T13:18:38Z</time>
      </trkpt>
      <trkpt lat="48.67107" lon="6.52599">
        <ele>224</ele>
        <time>2020-08-16T13:18:40Z</time>
      </trkpt>
      <trkpt lat="48.67109" lon="6.52606">
        <ele>224</ele>
        <time>2020-08-16T13:18:42Z</time>
      </trkpt>
      <trkpt lat="48.67109" lon="6.52613">
        <ele>224</ele>
        <time>2020-08-16T13:18:44Z</time>
      </trkpt>
      <trkpt lat="48.67109" lon="6.52621">
        <ele>224</ele>
        <time>2020-08-16T13:18:46Z</time>
      </trkpt>
      <trkpt lat="48.67107" lon="6.5263">
        <ele>224</ele>
        <time>2020-08-16T13:18:48Z</time>
      </trkpt>
      <trkpt lat="48.67107" lon="6.52641">
        <ele>224</ele>
        <time>2020-08-16T13:18:50Z</time>
      </trkpt>
      <trkpt lat="48.67107" lon="6.5265">
        <ele>225</ele>
        <time>2020-08-16T13:18:52Z</time>
      </trkpt>
      <trkpt lat="48.67108" lon="6.52659">
        <ele>225</ele>
        <time>2020-08-16T13:18:54Z</time>
      </trkpt>
      <trkpt lat="48.67109" lon="6.52669">
        <ele>225</ele>
        <time>2020-08-16T13:18:56Z</time>
      </trkpt>
      <trkpt lat="48.6711" lon="6.52678">
        <ele>225</ele>
        <time>2020-08-16T13:18:58Z</time>
      </trkpt>
      <trkpt lat="48.67112" lon="6.52689">
        <ele>225</ele>
        <time>2020-08-16T13:19:00Z</time>
      </trkpt>
      <trkpt lat="48.67113" lon="6.52698">
        <ele>225</ele>
        <time>2020-08-16T13:19:02Z</time>
      </trkpt>
      <trkpt lat="48.67113" lon="6.52707">
        <ele>225</ele>
        <time>2020-08-16T13:19:04Z</time>
      </trkpt>
      <trkpt lat="48.67112" lon="6.52714">
        <ele>225</ele>
        <time>2020-08-16T13:19:06Z</time>
      </trkpt>
      <trkpt lat="48.67112" lon="6.52722">
        <ele>225</ele>
        <time>2020-08-16T13:19:08Z</time>
      </trkpt>
      <trkpt lat="48.67112" lon="6.5273">
        <ele>225</ele>
        <time>2020-08-16T13:19:10Z</time>
      </trkpt>
      <trkpt lat="48.67112" lon="6.5274">
        <ele>225</ele>
        <time>2020-08-16T13:19:12Z</time>
      </trkpt>
      <trkpt lat="48.67113" lon="6.5275">
        <ele>225</ele>
        <time>2020-08-16T13:19:14Z</time>
      </trkpt>
      <trkpt lat="48.67114" lon="6.52761">
        <ele>225</ele>
        <time>2020-08-16T13:19:16Z</time>
      </trkpt>
      <trkpt lat="48.67114" lon="6.52772">
        <ele>224</ele>
        <time>2020-08-16T13:19:18Z</time>
      </trkpt>
      <trkpt lat="48.67116" lon="6.52782">
        <ele>225</ele>
        <time>2020-08-16T13:19:20Z</time>
      </trkpt>
      <trkpt lat="48.67118" lon="6.52793">
        <ele>225</ele>
        <time>2020-08-16T13:19:22Z</time>
      </trkpt>
      <trkpt lat="48.6712" lon="6.52802">
        <ele>225</ele>
        <time>2020-08-16T13:19:24Z</time>
      </trkpt>
      <trkpt lat="48.67121" lon="6.52811">
        <ele>225</ele>
        <time>2020-08-16T13:19:26Z</time>
      </trkpt>
      <trkpt lat="48.67122" lon="6.52819">
        <ele>225</ele>
        <time>2020-08-16T13:19:28Z</time>
      </trkpt>
      <trkpt lat="48.67124" lon="6.5283">
        <ele>225</ele>
        <time>2020-08-16T13:19:30Z</time>
      </trkpt>
      <trkpt lat="48.67127" lon="6.52841">
        <ele>225</ele>
        <time>2020-08-16T13:19:32Z</time>
      </trkpt>
      <trkpt lat="48.67128" lon="6.52851">
        <ele>225</ele>
        <time>2020-08-16T13:19:34Z</time>
      </trkpt>
      <trkpt lat="48.67131" lon="6.52861">
        <ele>225</ele>
        <time>2020-08-16T13:19:36Z</time>
      </trkpt>
      <trkpt lat="48.67133" lon="6.5287">
        <ele>225</ele>
        <time>2020-08-16T13:19:38Z</time>
      </trkpt>
      <trkpt lat="48.67136" lon="6.52879">
        <ele>225</ele>
        <time>2020-08-16T13:19:40Z</time>
      </trkpt>
      <trkpt lat="48.67139" lon="6.52888">
        <ele>225</ele>
        <time>2020-08-16T13:19:42Z</time>
      </trkpt>
      <trkpt lat="48.67142" lon="6.52899">
        <ele>225</ele>
        <time>2020-08-16T13:19:44Z</time>
      </trkpt>
      <trkpt lat="48.67144" lon="6.52905">
        <ele>225</ele>
        <time>2020-08-16T13:19:45Z</time>
      </trkpt>
      <trkpt lat="48.67149" lon="6.52916">
        <ele>225</ele>
        <time>2020-08-16T13:19:47Z</time>
      </trkpt>
      <trkpt lat="48.67152" lon="6.52928">
        <ele>225</ele>
        <time>2020-08-16T13:19:49Z</time>
      </trkpt>
      <trkpt lat="48.67157" lon="6.52938">
        <ele>226</ele>
        <time>2020-08-16T13:19:51Z</time>
      </trkpt>
      <trkpt lat="48.67162" lon="6.52947">
        <ele>226</ele>
        <time>2020-08-16T13:19:53Z</time>
      </trkpt>
      <trkpt lat="48.67167" lon="6.52956">
        <ele>227</ele>
        <time>2020-08-16T13:19:55Z</time>
      </trkpt>
      <trkpt lat="48.67172" lon="6.52964">
        <ele>227</ele>
        <time>2020-08-16T13:19:57Z</time>
      </trkpt>
      <trkpt lat="48.67175" lon="6.52975">
        <ele>227</ele>
        <time>2020-08-16T13:19:59Z</time>
      </trkpt>
      <trkpt lat="48.67179" lon="6.52981">
        <ele>227</ele>
        <time>2020-08-16T13:20:00Z</time>
      </trkpt>
      <trkpt lat="48.67184" lon="6.52992">
        <ele>227</ele>
        <time>2020-08-16T13:20:02Z</time>
      </trkpt>
      <trkpt lat="48.6719" lon="6.53">
        <ele>226</ele>
        <time>2020-08-16T13:20:04Z</time>
      </trkpt>
      <trkpt lat="48.67195" lon="6.53008">
        <ele>226</ele>
        <time>2020-08-16T13:20:06Z</time>
      </trkpt>
      <trkpt lat="48.67202" lon="6.53015">
        <ele>226</ele>
        <time>2020-08-16T13:20:08Z</time>
      </trkpt>
      <trkpt lat="48.67209" lon="6.53023">
        <ele>226</ele>
        <time>2020-08-16T13:20:10Z</time>
      </trkpt>
      <trkpt lat="48.67215" lon="6.53031">
        <ele>226</ele>
        <time>2020-08-16T13:20:12Z</time>
      </trkpt>
      <trkpt lat="48.67221" lon="6.5304">
        <ele>226</ele>
        <time>2020-08-16T13:20:14Z</time>
      </trkpt>
      <trkpt lat="48.67226" lon="6.53044">
        <ele>226</ele>
        <time>2020-08-16T13:20:16Z</time>
      </trkpt>
      <trkpt lat="48.67232" lon="6.53051">
        <ele>226</ele>
        <time>2020-08-16T13:20:18Z</time>
      </trkpt>
      <trkpt lat="48.67238" lon="6.53057">
        <ele>226</ele>
        <time>2020-08-16T13:20:20Z</time>
      </trkpt>
      <trkpt lat="48.67242" lon="6.53062">
        <ele>226</ele>
        <time>2020-08-16T13:20:21Z</time>
      </trkpt>
      <trkpt lat="48.67247" lon="6.53068">
        <ele>226</ele>
        <time>2020-08-16T13:20:23Z</time>
      </trkpt>
      <trkpt lat="48.67255" lon="6.53075">
        <ele>226</ele>
        <time>2020-08-16T13:20:25Z</time>
      </trkpt>
      <trkpt lat="48.67263" lon="6.53081">
        <ele>226</ele>
        <time>2020-08-16T13:20:27Z</time>
      </trkpt>
      <trkpt lat="48.67271" lon="6.53087">
        <ele>226</ele>
        <time>2020-08-16T13:20:29Z</time>
      </trkpt>
      <trkpt lat="48.67278" lon="6.53095">
        <ele>225</ele>
        <time>2020-08-16T13:20:31Z</time>
      </trkpt>
      <trkpt lat="48.67283" lon="6.53098">
        <ele>224</ele>
        <time>2020-08-16T13:20:32Z</time>
      </trkpt>
      <trkpt lat="48.67291" lon="6.53104">
        <ele>223</ele>
        <time>2020-08-16T13:20:34Z</time>
      </trkpt>
      <trkpt lat="48.67298" lon="6.53109">
        <ele>223</ele>
        <time>2020-08-16T13:20:36Z</time>
      </trkpt>
      <trkpt lat="48.67305" lon="6.53116">
        <ele>223</ele>
        <time>2020-08-16T13:20:38Z</time>
      </trkpt>
      <trkpt lat="48.67311" lon="6.53121">
        <ele>223</ele>
        <time>2020-08-16T13:20:40Z</time>
      </trkpt>
      <trkpt lat="48.67319" lon="6.53126">
        <ele>223</ele>
        <time>2020-08-16T13:20:42Z</time>
      </trkpt>
      <trkpt lat="48.67326" lon="6.53134">
        <ele>223</ele>
        <time>2020-08-16T13:20:44Z</time>
      </trkpt>
      <trkpt lat="48.67333" lon="6.5314">
        <ele>224</ele>
        <time>2020-08-16T13:20:46Z</time>
      </trkpt>
      <trkpt lat="48.67339" lon="6.53148">
        <ele>224</ele>
        <time>2020-08-16T13:20:48Z</time>
      </trkpt>
      <trkpt lat="48.67343" lon="6.53152">
        <ele>224</ele>
        <time>2020-08-16T13:20:49Z</time>
      </trkpt>
      <trkpt lat="48.67349" lon="6.5316">
        <ele>224</ele>
        <time>2020-08-16T13:20:51Z</time>
      </trkpt>
      <trkpt lat="48.67353" lon="6.5317">
        <ele>224</ele>
        <time>2020-08-16T13:20:53Z</time>
      </trkpt>
      <trkpt lat="48.67358" lon="6.53178">
        <ele>224</ele>
        <time>2020-08-16T13:20:55Z</time>
      </trkpt>
      <trkpt lat="48.67363" lon="6.53186">
        <ele>224</ele>
        <time>2020-08-16T13:20:57Z</time>
      </trkpt>
      <trkpt lat="48.67365" lon="6.53193">
        <ele>224</ele>
        <time>2020-08-16T13:20:58Z</time>
      </trkpt>
      <trkpt lat="48.67369" lon="6.53204">
        <ele>224</ele>
        <time>2020-08-16T13:21:00Z</time>
      </trkpt>
      <trkpt lat="48.67374" lon="6.53215">
        <ele>224</ele>
        <time>2020-08-16T13:21:02Z</time>
      </trkpt>
      <trkpt lat="48.67378" lon="6.53225">
        <ele>224</ele>
        <time>2020-08-16T13:21:04Z</time>
      </trkpt>
      <trkpt lat="48.67382" lon="6.53237">
        <ele>224</ele>
        <time>2020-08-16T13:21:06Z</time>
      </trkpt>
      <trkpt lat="48.67386" lon="6.53249">
        <ele>224</ele>
        <time>2020-08-16T13:21:08Z</time>
      </trkpt>
      <trkpt lat="48.67389" lon="6.53259">
        <ele>224</ele>
        <time>2020-08-16T13:21:10Z</time>
      </trkpt>
      <trkpt lat="48.67389" lon="6.53273">
        <ele>224</ele>
        <time>2020-08-16T13:21:12Z</time>
      </trkpt>
      <trkpt lat="48.67391" lon="6.53286">
        <ele>224</ele>
        <time>2020-08-16T13:21:14Z</time>
      </trkpt>
      <trkpt lat="48.67394" lon="6.53298">
        <ele>224</ele>
        <time>2020-08-16T13:21:16Z</time>
      </trkpt>
      <trkpt lat="48.67395" lon="6.5331">
        <ele>224</ele>
        <time>2020-08-16T13:21:18Z</time>
      </trkpt>
      <trkpt lat="48.67397" lon="6.53323">
        <ele>224</ele>
        <time>2020-08-16T13:21:20Z</time>
      </trkpt>
      <trkpt lat="48.67398" lon="6.53336">
        <ele>224</ele>
        <time>2020-08-16T13:21:22Z</time>
      </trkpt>
      <trkpt lat="48.67399" lon="6.53349">
        <ele>224</ele>
        <time>2020-08-16T13:21:24Z</time>
      </trkpt>
      <trkpt lat="48.67398" lon="6.53356">
        <ele>224</ele>
        <time>2020-08-16T13:21:25Z</time>
      </trkpt>
      <trkpt lat="48.67398" lon="6.53368">
        <ele>224</ele>
        <time>2020-08-16T13:21:27Z</time>
      </trkpt>
      <trkpt lat="48.67397" lon="6.53382">
        <ele>224</ele>
        <time>2020-08-16T13:21:29Z</time>
      </trkpt>
      <trkpt lat="48.67395" lon="6.53394">
        <ele>224</ele>
        <time>2020-08-16T13:21:31Z</time>
      </trkpt>
      <trkpt lat="48.67395" lon="6.53402">
        <ele>224</ele>
        <time>2020-08-16T13:21:32Z</time>
      </trkpt>
      <trkpt lat="48.67391" lon="6.53412">
        <ele>224</ele>
        <time>2020-08-16T13:21:34Z</time>
      </trkpt>
      <trkpt lat="48.67389" lon="6.53425">
        <ele>224</ele>
        <time>2020-08-16T13:21:36Z</time>
      </trkpt>
      <trkpt lat="48.67387" lon="6.53437">
        <ele>224</ele>
        <time>2020-08-16T13:21:38Z</time>
      </trkpt>
      <trkpt lat="48.67384" lon="6.53449">
        <ele>224</ele>
        <time>2020-08-16T13:21:40Z</time>
      </trkpt>
      <trkpt lat="48.67382" lon="6.5346">
        <ele>224</ele>
        <time>2020-08-16T13:21:42Z</time>
      </trkpt>
      <trkpt lat="48.67379" lon="6.53473">
        <ele>224</ele>
        <time>2020-08-16T13:21:44Z</time>
      </trkpt>
      <trkpt lat="48.67378" lon="6.53484">
        <ele>224</ele>
        <time>2020-08-16T13:21:46Z</time>
      </trkpt>
      <trkpt lat="48.67376" lon="6.53496">
        <ele>224</ele>
        <time>2020-08-16T13:21:48Z</time>
      </trkpt>
      <trkpt lat="48.67374" lon="6.53509">
        <ele>224</ele>
        <time>2020-08-16T13:21:50Z</time>
      </trkpt>
      <trkpt lat="48.67373" lon="6.53517">
        <ele>224</ele>
        <time>2020-08-16T13:21:51Z</time>
      </trkpt>
      <trkpt lat="48.67373" lon="6.53524">
        <ele>224</ele>
        <time>2020-08-16T13:21:52Z</time>
      </trkpt>
      <trkpt lat="48.67372" lon="6.53531">
        <ele>224</ele>
        <time>2020-08-16T13:21:53Z</time>
      </trkpt>
      <trkpt lat="48.67372" lon="6.53538">
        <ele>224</ele>
        <time>2020-08-16T13:21:54Z</time>
      </trkpt>
      <trkpt lat="48.67371" lon="6.5355">
        <ele>224</ele>
        <time>2020-08-16T13:21:56Z</time>
      </trkpt>
      <trkpt lat="48.67371" lon="6.53558">
        <ele>224</ele>
        <time>2020-08-16T13:21:57Z</time>
      </trkpt>
      <trkpt lat="48.67371" lon="6.53571">
        <ele>224</ele>
        <time>2020-08-16T13:21:59Z</time>
      </trkpt>
      <trkpt lat="48.67371" lon="6.53578">
        <ele>224</ele>
        <time>2020-08-16T13:22:00Z</time>
      </trkpt>
      <trkpt lat="48.67371" lon="6.53585">
        <ele>224</ele>
        <time>2020-08-16T13:22:01Z</time>
      </trkpt>
      <trkpt lat="48.67373" lon="6.53598">
        <ele>224</ele>
        <time>2020-08-16T13:22:03Z</time>
      </trkpt>
      <trkpt lat="48.67373" lon="6.5361">
        <ele>224</ele>
        <time>2020-08-16T13:22:05Z</time>
      </trkpt>
      <trkpt lat="48.67373" lon="6.53623">
        <ele>224</ele>
        <time>2020-08-16T13:22:07Z</time>
      </trkpt>
      <trkpt lat="48.67373" lon="6.53636">
        <ele>224</ele>
        <time>2020-08-16T13:22:09Z</time>
      </trkpt>
      <trkpt lat="48.67372" lon="6.53643">
        <ele>224</ele>
        <time>2020-08-16T13:22:10Z</time>
      </trkpt>
      <trkpt lat="48.67372" lon="6.53649">
        <ele>224</ele>
        <time>2020-08-16T13:22:11Z</time>
      </trkpt>
      <trkpt lat="48.6737" lon="6.53662">
        <ele>224</ele>
        <time>2020-08-16T13:22:13Z</time>
      </trkpt>
      <trkpt lat="48.67371" lon="6.53669">
        <ele>224</ele>
        <time>2020-08-16T13:22:14Z</time>
      </trkpt>
      <trkpt lat="48.67372" lon="6.5368">
        <ele>224</ele>
        <time>2020-08-16T13:22:16Z</time>
      </trkpt>
      <trkpt lat="48.67371" lon="6.53693">
        <ele>224</ele>
        <time>2020-08-16T13:22:18Z</time>
      </trkpt>
      <trkpt lat="48.67371" lon="6.53706">
        <ele>224</ele>
        <time>2020-08-16T13:22:20Z</time>
      </trkpt>
      <trkpt lat="48.67369" lon="6.5372">
        <ele>224</ele>
        <time>2020-08-16T13:22:22Z</time>
      </trkpt>
      <trkpt lat="48.67367" lon="6.53727">
        <ele>224</ele>
        <time>2020-08-16T13:22:23Z</time>
      </trkpt>
      <trkpt lat="48.67365" lon="6.5374">
        <ele>224</ele>
        <time>2020-08-16T13:22:25Z</time>
      </trkpt>
      <trkpt lat="48.67364" lon="6.53746">
        <ele>224</ele>
        <time>2020-08-16T13:22:26Z</time>
      </trkpt>
      <trkpt lat="48.67361" lon="6.53758">
        <ele>224</ele>
        <time>2020-08-16T13:22:28Z</time>
      </trkpt>
      <trkpt lat="48.67358" lon="6.53769">
        <ele>224</ele>
        <time>2020-08-16T13:22:30Z</time>
      </trkpt>
      <trkpt lat="48.67355" lon="6.53781">
        <ele>224</ele>
        <time>2020-08-16T13:22:32Z</time>
      </trkpt>
      <trkpt lat="48.67353" lon="6.53792">
        <ele>224</ele>
        <time>2020-08-16T13:22:34Z</time>
      </trkpt>
      <trkpt lat="48.6735" lon="6.53804">
        <ele>224</ele>
        <time>2020-08-16T13:22:36Z</time>
      </trkpt>
      <trkpt lat="48.67346" lon="6.53814">
        <ele>224</ele>
        <time>2020-08-16T13:22:38Z</time>
      </trkpt>
      <trkpt lat="48.67343" lon="6.53825">
        <ele>224</ele>
        <time>2020-08-16T13:22:40Z</time>
      </trkpt>
      <trkpt lat="48.67342" lon="6.53836">
        <ele>224</ele>
        <time>2020-08-16T13:22:42Z</time>
      </trkpt>
      <trkpt lat="48.67339" lon="6.53846">
        <ele>224</ele>
        <time>2020-08-16T13:22:44Z</time>
      </trkpt>
      <trkpt lat="48.67336" lon="6.53857">
        <ele>224</ele>
        <time>2020-08-16T13:22:46Z</time>
      </trkpt>
      <trkpt lat="48.67333" lon="6.53869">
        <ele>224</ele>
        <time>2020-08-16T13:22:48Z</time>
      </trkpt>
      <trkpt lat="48.67329" lon="6.53879">
        <ele>224</ele>
        <time>2020-08-16T13:22:50Z</time>
      </trkpt>
      <trkpt lat="48.67327" lon="6.53886">
        <ele>224</ele>
        <time>2020-08-16T13:22:51Z</time>
      </trkpt>
      <trkpt lat="48.67325" lon="6.53893">
        <ele>224</ele>
        <time>2020-08-16T13:22:52Z</time>
      </trkpt>
      <trkpt lat="48.6732" lon="6.53904">
        <ele>224</ele>
        <time>2020-08-16T13:22:54Z</time>
      </trkpt>
      <trkpt lat="48.67318" lon="6.53911">
        <ele>224</ele>
        <time>2020-08-16T13:22:55Z</time>
      </trkpt>
      <trkpt lat="48.67315" lon="6.53923">
        <ele>224</ele>
        <time>2020-08-16T13:22:57Z</time>
      </trkpt>
      <trkpt lat="48.67311" lon="6.53934">
        <ele>224</ele>
        <time>2020-08-16T13:22:59Z</time>
      </trkpt>
      <trkpt lat="48.67307" lon="6.53945">
        <ele>224</ele>
        <time>2020-08-16T13:23:01Z</time>
      </trkpt>
      <trkpt lat="48.67304" lon="6.53956">
        <ele>224</ele>
        <time>2020-08-16T13:23:03Z</time>
      </trkpt>
      <trkpt lat="48.67302" lon="6.53962">
        <ele>224</ele>
        <time>2020-08-16T13:23:04Z</time>
      </trkpt>
      <trkpt lat="48.67299" lon="6.53973">
        <ele>224</ele>
        <time>2020-08-16T13:23:06Z</time>
      </trkpt>
      <trkpt lat="48.67296" lon="6.53979">
        <ele>224</ele>
        <time>2020-08-16T13:23:07Z</time>
      </trkpt>
      <trkpt lat="48.67293" lon="6.53986">
        <ele>224</ele>
        <time>2020-08-16T13:23:08Z</time>
      </trkpt>
      <trkpt lat="48.67292" lon="6.53992">
        <ele>224</ele>
        <time>2020-08-16T13:23:09Z</time>
      </trkpt>
      <trkpt lat="48.67289" lon="6.53999">
        <ele>224</ele>
        <time>2020-08-16T13:23:10Z</time>
      </trkpt>
      <trkpt lat="48.67284" lon="6.54011">
        <ele>225</ele>
        <time>2020-08-16T13:23:12Z</time>
      </trkpt>
      <trkpt lat="48.67281" lon="6.54018">
        <ele>225</ele>
        <time>2020-08-16T13:23:13Z</time>
      </trkpt>
      <trkpt lat="48.67276" lon="6.54028">
        <ele>225</ele>
        <time>2020-08-16T13:23:15Z</time>
      </trkpt>
      <trkpt lat="48.67273" lon="6.54034">
        <ele>225</ele>
        <time>2020-08-16T13:23:16Z</time>
      </trkpt>
      <trkpt lat="48.6727" lon="6.54045">
        <ele>225</ele>
        <time>2020-08-16T13:23:18Z</time>
      </trkpt>
      <trkpt lat="48.67267" lon="6.54052">
        <ele>225</ele>
        <time>2020-08-16T13:23:19Z</time>
      </trkpt>
      <trkpt lat="48.67263" lon="6.5406">
        <ele>225</ele>
        <time>2020-08-16T13:23:21Z</time>
      </trkpt>
      <trkpt lat="48.67261" lon="6.54067">
        <ele>225</ele>
        <time>2020-08-16T13:23:22Z</time>
      </trkpt>
      <trkpt lat="48.67258" lon="6.54078">
        <ele>225</ele>
        <time>2020-08-16T13:23:24Z</time>
      </trkpt>
      <trkpt lat="48.67255" lon="6.54088">
        <ele>225</ele>
        <time>2020-08-16T13:23:26Z</time>
      </trkpt>
      <trkpt lat="48.67253" lon="6.54095">
        <ele>225</ele>
        <time>2020-08-16T13:23:27Z</time>
      </trkpt>
      <trkpt lat="48.67252" lon="6.54101">
        <ele>225</ele>
        <time>2020-08-16T13:23:28Z</time>
      </trkpt>
      <trkpt lat="48.67249" lon="6.54114">
        <ele>225</ele>
        <time>2020-08-16T13:23:30Z</time>
      </trkpt>
      <trkpt lat="48.67248" lon="6.54127">
        <ele>225</ele>
        <time>2020-08-16T13:23:32Z</time>
      </trkpt>
      <trkpt lat="48.67245" lon="6.5414">
        <ele>225</ele>
        <time>2020-08-16T13:23:34Z</time>
      </trkpt>
      <trkpt lat="48.67243" lon="6.54153">
        <ele>225</ele>
        <time>2020-08-16T13:23:36Z</time>
      </trkpt>
      <trkpt lat="48.67243" lon="6.5416">
        <ele>225</ele>
        <time>2020-08-16T13:23:37Z</time>
      </trkpt>
      <trkpt lat="48.67241" lon="6.54166">
        <ele>225</ele>
        <time>2020-08-16T13:23:38Z</time>
      </trkpt>
      <trkpt lat="48.67241" lon="6.54174">
        <ele>225</ele>
        <time>2020-08-16T13:23:39Z</time>
      </trkpt>
      <trkpt lat="48.67241" lon="6.54187">
        <ele>225</ele>
        <time>2020-08-16T13:23:41Z</time>
      </trkpt>
      <trkpt lat="48.67241" lon="6.54195">
        <ele>225</ele>
        <time>2020-08-16T13:23:42Z</time>
      </trkpt>
      <trkpt lat="48.67242" lon="6.54203">
        <ele>225</ele>
        <time>2020-08-16T13:23:43Z</time>
      </trkpt>
      <trkpt lat="48.67242" lon="6.5421">
        <ele>225</ele>
        <time>2020-08-16T13:23:44Z</time>
      </trkpt>
      <trkpt lat="48.67242" lon="6.54218">
        <ele>225</ele>
        <time>2020-08-16T13:23:45Z</time>
      </trkpt>
      <trkpt lat="48.67242" lon="6.54231">
        <ele>225</ele>
        <time>2020-08-16T13:23:47Z</time>
      </trkpt>
      <trkpt lat="48.67243" lon="6.54238">
        <ele>225</ele>
        <time>2020-08-16T13:23:48Z</time>
      </trkpt>
      <trkpt lat="48.67244" lon="6.5425">
        <ele>226</ele>
        <time>2020-08-16T13:23:50Z</time>
      </trkpt>
      <trkpt lat="48.67247" lon="6.54259">
        <ele>226</ele>
        <time>2020-08-16T13:23:51Z</time>
      </trkpt>
      <trkpt lat="48.67248" lon="6.54266">
        <ele>226</ele>
        <time>2020-08-16T13:23:52Z</time>
      </trkpt>
      <trkpt lat="48.67249" lon="6.54273">
        <ele>226</ele>
        <time>2020-08-16T13:23:53Z</time>
      </trkpt>
      <trkpt lat="48.67249" lon="6.54286">
        <ele>225</ele>
        <time>2020-08-16T13:23:55Z</time>
      </trkpt>
      <trkpt lat="48.6725" lon="6.54293">
        <ele>225</ele>
        <time>2020-08-16T13:23:56Z</time>
      </trkpt>
      <trkpt lat="48.67249" lon="6.543">
        <ele>225</ele>
        <time>2020-08-16T13:23:57Z</time>
      </trkpt>
      <trkpt lat="48.67251" lon="6.54313">
        <ele>225</ele>
        <time>2020-08-16T13:23:59Z</time>
      </trkpt>
      <trkpt lat="48.67252" lon="6.54326">
        <ele>225</ele>
        <time>2020-08-16T13:24:01Z</time>
      </trkpt>
      <trkpt lat="48.67252" lon="6.54333">
        <ele>225</ele>
        <time>2020-08-16T13:24:02Z</time>
      </trkpt>
      <trkpt lat="48.67252" lon="6.5434">
        <ele>225</ele>
        <time>2020-08-16T13:24:03Z</time>
      </trkpt>
      <trkpt lat="48.67254" lon="6.54353">
        <ele>225</ele>
        <time>2020-08-16T13:24:05Z</time>
      </trkpt>
      <trkpt lat="48.67254" lon="6.5436">
        <ele>225</ele>
        <time>2020-08-16T13:24:06Z</time>
      </trkpt>
      <trkpt lat="48.67254" lon="6.54374">
        <ele>225</ele>
        <time>2020-08-16T13:24:08Z</time>
      </trkpt>
      <trkpt lat="48.67255" lon="6.54381">
        <ele>225</ele>
        <time>2020-08-16T13:24:09Z</time>
      </trkpt>
      <trkpt lat="48.67256" lon="6.54388">
        <ele>225</ele>
        <time>2020-08-16T13:24:10Z</time>
      </trkpt>
      <trkpt lat="48.67258" lon="6.54395">
        <ele>225</ele>
        <time>2020-08-16T13:24:11Z</time>
      </trkpt>
      <trkpt lat="48.67258" lon="6.54409">
        <ele>225</ele>
        <time>2020-08-16T13:24:13Z</time>
      </trkpt>
      <trkpt lat="48.67261" lon="6.54416">
        <ele>225</ele>
        <time>2020-08-16T13:24:14Z</time>
      </trkpt>
      <trkpt lat="48.67262" lon="6.54422">
        <ele>225</ele>
        <time>2020-08-16T13:24:15Z</time>
      </trkpt>
      <trkpt lat="48.67263" lon="6.5443">
        <ele>225</ele>
        <time>2020-08-16T13:24:16Z</time>
      </trkpt>
      <trkpt lat="48.67264" lon="6.54436">
        <ele>226</ele>
        <time>2020-08-16T13:24:17Z</time>
      </trkpt>
      <trkpt lat="48.67266" lon="6.54443">
        <ele>226</ele>
        <time>2020-08-16T13:24:18Z</time>
      </trkpt>
      <trkpt lat="48.67267" lon="6.5445">
        <ele>226</ele>
        <time>2020-08-16T13:24:19Z</time>
      </trkpt>
      <trkpt lat="48.67269" lon="6.54456">
        <ele>226</ele>
        <time>2020-08-16T13:24:20Z</time>
      </trkpt>
      <trkpt lat="48.67271" lon="6.54468">
        <ele>226</ele>
        <time>2020-08-16T13:24:22Z</time>
      </trkpt>
      <trkpt lat="48.67271" lon="6.54481">
        <ele>226</ele>
        <time>2020-08-16T13:24:24Z</time>
      </trkpt>
      <trkpt lat="48.67273" lon="6.54488">
        <ele>227</ele>
        <time>2020-08-16T13:24:25Z</time>
      </trkpt>
      <trkpt lat="48.6727" lon="6.54495">
        <ele>226</ele>
        <time>2020-08-16T13:24:26Z</time>
      </trkpt>
      <trkpt lat="48.6727" lon="6.54507">
        <ele>226</ele>
        <time>2020-08-16T13:24:28Z</time>
      </trkpt>
      <trkpt lat="48.6727" lon="6.5452">
        <ele>226</ele>
        <time>2020-08-16T13:24:30Z</time>
      </trkpt>
      <trkpt lat="48.67271" lon="6.54527">
        <ele>227</ele>
        <time>2020-08-16T13:24:31Z</time>
      </trkpt>
      <trkpt lat="48.67274" lon="6.54539">
        <ele>227</ele>
        <time>2020-08-16T13:24:33Z</time>
      </trkpt>
      <trkpt lat="48.67276" lon="6.54551">
        <ele>226</ele>
        <time>2020-08-16T13:24:35Z</time>
      </trkpt>
      <trkpt lat="48.67277" lon="6.54558">
        <ele>226</ele>
        <time>2020-08-16T13:24:36Z</time>
      </trkpt>
      <trkpt lat="48.67279" lon="6.54565">
        <ele>226</ele>
        <time>2020-08-16T13:24:37Z</time>
      </trkpt>
      <trkpt lat="48.67281" lon="6.54572">
        <ele>226</ele>
        <time>2020-08-16T13:24:38Z</time>
      </trkpt>
      <trkpt lat="48.67282" lon="6.54579">
        <ele>226</ele>
        <time>2020-08-16T13:24:39Z</time>
      </trkpt>
      <trkpt lat="48.67283" lon="6.54586">
        <ele>226</ele>
        <time>2020-08-16T13:24:40Z</time>
      </trkpt>
      <trkpt lat="48.67283" lon="6.54593">
        <ele>225</ele>
        <time>2020-08-16T13:24:41Z</time>
      </trkpt>
      <trkpt lat="48.67285" lon="6.54599">
        <ele>225</ele>
        <time>2020-08-16T13:24:42Z</time>
      </trkpt>
      <trkpt lat="48.67286" lon="6.54607">
        <ele>225</ele>
        <time>2020-08-16T13:24:43Z</time>
      </trkpt>
      <trkpt lat="48.67287" lon="6.54615">
        <ele>225</ele>
        <time>2020-08-16T13:24:44Z</time>
      </trkpt>
      <trkpt lat="48.67289" lon="6.54621">
        <ele>225</ele>
        <time>2020-08-16T13:24:45Z</time>
      </trkpt>
      <trkpt lat="48.6729" lon="6.54634">
        <ele>225</ele>
        <time>2020-08-16T13:24:47Z</time>
      </trkpt>
      <trkpt lat="48.67291" lon="6.54645">
        <ele>225</ele>
        <time>2020-08-16T13:24:49Z</time>
      </trkpt>
      <trkpt lat="48.67296" lon="6.54658">
        <ele>225</ele>
        <time>2020-08-16T13:24:51Z</time>
      </trkpt>
      <trkpt lat="48.67296" lon="6.54666">
        <ele>225</ele>
        <time>2020-08-16T13:24:52Z</time>
      </trkpt>
      <trkpt lat="48.67297" lon="6.54672">
        <ele>225</ele>
        <time>2020-08-16T13:24:53Z</time>
      </trkpt>
      <trkpt lat="48.67298" lon="6.54683">
        <ele>224</ele>
        <time>2020-08-16T13:24:55Z</time>
      </trkpt>
      <trkpt lat="48.67299" lon="6.54694">
        <ele>224</ele>
        <time>2020-08-16T13:24:57Z</time>
      </trkpt>
      <trkpt lat="48.67302" lon="6.54704">
        <ele>224</ele>
        <time>2020-08-16T13:24:59Z</time>
      </trkpt>
      <trkpt lat="48.67306" lon="6.54716">
        <ele>224</ele>
        <time>2020-08-16T13:25:01Z</time>
      </trkpt>
      <trkpt lat="48.67308" lon="6.54728">
        <ele>224</ele>
        <time>2020-08-16T13:25:03Z</time>
      </trkpt>
      <trkpt lat="48.6731" lon="6.54734">
        <ele>224</ele>
        <time>2020-08-16T13:25:04Z</time>
      </trkpt>
      <trkpt lat="48.67314" lon="6.5474">
        <ele>225</ele>
        <time>2020-08-16T13:25:05Z</time>
      </trkpt>
      <trkpt lat="48.67316" lon="6.54746">
        <ele>225</ele>
        <time>2020-08-16T13:25:06Z</time>
      </trkpt>
      <trkpt lat="48.67318" lon="6.54753">
        <ele>225</ele>
        <time>2020-08-16T13:25:07Z</time>
      </trkpt>
      <trkpt lat="48.6732" lon="6.54759">
        <ele>225</ele>
        <time>2020-08-16T13:25:08Z</time>
      </trkpt>
      <trkpt lat="48.67323" lon="6.54771">
        <ele>225</ele>
        <time>2020-08-16T13:25:10Z</time>
      </trkpt>
      <trkpt lat="48.67325" lon="6.54777">
        <ele>225</ele>
        <time>2020-08-16T13:25:11Z</time>
      </trkpt>
      <trkpt lat="48.67327" lon="6.5479">
        <ele>225</ele>
        <time>2020-08-16T13:25:13Z</time>
      </trkpt>
      <trkpt lat="48.67329" lon="6.54796">
        <ele>225</ele>
        <time>2020-08-16T13:25:14Z</time>
      </trkpt>
      <trkpt lat="48.67332" lon="6.54809">
        <ele>225</ele>
        <time>2020-08-16T13:25:16Z</time>
      </trkpt>
      <trkpt lat="48.67334" lon="6.54821">
        <ele>224</ele>
        <time>2020-08-16T13:25:18Z</time>
      </trkpt>
      <trkpt lat="48.67336" lon="6.54833">
        <ele>224</ele>
        <time>2020-08-16T13:25:20Z</time>
      </trkpt>
      <trkpt lat="48.67339" lon="6.54845">
        <ele>224</ele>
        <time>2020-08-16T13:25:22Z</time>
      </trkpt>
      <trkpt lat="48.67341" lon="6.54851">
        <ele>224</ele>
        <time>2020-08-16T13:25:23Z</time>
      </trkpt>
      <trkpt lat="48.67346" lon="6.54864">
        <ele>224</ele>
        <time>2020-08-16T13:25:25Z</time>
      </trkpt>
      <trkpt lat="48.67348" lon="6.5487">
        <ele>225</ele>
        <time>2020-08-16T13:25:26Z</time>
      </trkpt>
      <trkpt lat="48.67351" lon="6.54882">
        <ele>225</ele>
        <time>2020-08-16T13:25:28Z</time>
      </trkpt>
      <trkpt lat="48.67353" lon="6.54893">
        <ele>224</ele>
        <time>2020-08-16T13:25:30Z</time>
      </trkpt>
      <trkpt lat="48.67355" lon="6.54903">
        <ele>225</ele>
        <time>2020-08-16T13:25:32Z</time>
      </trkpt>
      <trkpt lat="48.67358" lon="6.54917">
        <ele>225</ele>
        <time>2020-08-16T13:25:34Z</time>
      </trkpt>
      <trkpt lat="48.6736" lon="6.54929">
        <ele>225</ele>
        <time>2020-08-16T13:25:36Z</time>
      </trkpt>
      <trkpt lat="48.67361" lon="6.54936">
        <ele>225</ele>
        <time>2020-08-16T13:25:37Z</time>
      </trkpt>
      <trkpt lat="48.67362" lon="6.54947">
        <ele>224</ele>
        <time>2020-08-16T13:25:39Z</time>
      </trkpt>
      <trkpt lat="48.67363" lon="6.5496">
        <ele>224</ele>
        <time>2020-08-16T13:25:41Z</time>
      </trkpt>
      <trkpt lat="48.67365" lon="6.54972">
        <ele>224</ele>
        <time>2020-08-16T13:25:43Z</time>
      </trkpt>
      <trkpt lat="48.67363" lon="6.54979">
        <ele>224</ele>
        <time>2020-08-16T13:25:44Z</time>
      </trkpt>
      <trkpt lat="48.67364" lon="6.54987">
        <ele>224</ele>
        <time>2020-08-16T13:25:45Z</time>
      </trkpt>
      <trkpt lat="48.67365" lon="6.54999">
        <ele>225</ele>
        <time>2020-08-16T13:25:47Z</time>
      </trkpt>
      <trkpt lat="48.67366" lon="6.55005">
        <ele>225</ele>
        <time>2020-08-16T13:25:48Z</time>
      </trkpt>
      <trkpt lat="48.67369" lon="6.55018">
        <ele>225</ele>
        <time>2020-08-16T13:25:50Z</time>
      </trkpt>
      <trkpt lat="48.6737" lon="6.55031">
        <ele>224</ele>
        <time>2020-08-16T13:25:52Z</time>
      </trkpt>
      <trkpt lat="48.67372" lon="6.55043">
        <ele>225</ele>
        <time>2020-08-16T13:25:54Z</time>
      </trkpt>
      <trkpt lat="48.67373" lon="6.55057">
        <ele>225</ele>
        <time>2020-08-16T13:25:56Z</time>
      </trkpt>
      <trkpt lat="48.67373" lon="6.55063">
        <ele>225</ele>
        <time>2020-08-16T13:25:57Z</time>
      </trkpt>
      <trkpt lat="48.67373" lon="6.55075">
        <ele>224</ele>
        <time>2020-08-16T13:25:59Z</time>
      </trkpt>
      <trkpt lat="48.67374" lon="6.55087">
        <ele>224</ele>
        <time>2020-08-16T13:26:01Z</time>
      </trkpt>
      <trkpt lat="48.67375" lon="6.55094">
        <ele>224</ele>
        <time>2020-08-16T13:26:02Z</time>
      </trkpt>
      <trkpt lat="48.67374" lon="6.55114">
        <ele>224</ele>
        <time>2020-08-16T13:26:05Z</time>
      </trkpt>
      <trkpt lat="48.67375" lon="6.55127">
        <ele>225</ele>
        <time>2020-08-16T13:26:07Z</time>
      </trkpt>
      <trkpt lat="48.67374" lon="6.55139">
        <ele>225</ele>
        <time>2020-08-16T13:26:09Z</time>
      </trkpt>
      <trkpt lat="48.67374" lon="6.55146">
        <ele>225</ele>
        <time>2020-08-16T13:26:10Z</time>
      </trkpt>
      <trkpt lat="48.67374" lon="6.55154">
        <ele>225</ele>
        <time>2020-08-16T13:26:11Z</time>
      </trkpt>
      <trkpt lat="48.67374" lon="6.55165">
        <ele>225</ele>
        <time>2020-08-16T13:26:13Z</time>
      </trkpt>
      <trkpt lat="48.67373" lon="6.55178">
        <ele>225</ele>
        <time>2020-08-16T13:26:15Z</time>
      </trkpt>
      <trkpt lat="48.67371" lon="6.5519">
        <ele>224</ele>
        <time>2020-08-16T13:26:17Z</time>
      </trkpt>
      <trkpt lat="48.6737" lon="6.55202">
        <ele>224</ele>
        <time>2020-08-16T13:26:19Z</time>
      </trkpt>
      <trkpt lat="48.67368" lon="6.55215">
        <ele>224</ele>
        <time>2020-08-16T13:26:21Z</time>
      </trkpt>
      <trkpt lat="48.67369" lon="6.55227">
        <ele>224</ele>
        <time>2020-08-16T13:26:23Z</time>
      </trkpt>
      <trkpt lat="48.6737" lon="6.55239">
        <ele>224</ele>
        <time>2020-08-16T13:26:25Z</time>
      </trkpt>
      <trkpt lat="48.6737" lon="6.55247">
        <ele>224</ele>
        <time>2020-08-16T13:26:26Z</time>
      </trkpt>
      <trkpt lat="48.67371" lon="6.55254">
        <ele>225</ele>
        <time>2020-08-16T13:26:27Z</time>
      </trkpt>
      <trkpt lat="48.67373" lon="6.55273">
        <ele>226</ele>
        <time>2020-08-16T13:26:30Z</time>
      </trkpt>
      <trkpt lat="48.67374" lon="6.5528">
        <ele>226</ele>
        <time>2020-08-16T13:26:31Z</time>
      </trkpt>
      <trkpt lat="48.67377" lon="6.55293">
        <ele>226</ele>
        <time>2020-08-16T13:26:33Z</time>
      </trkpt>
      <trkpt lat="48.67379" lon="6.553">
        <ele>226</ele>
        <time>2020-08-16T13:26:34Z</time>
      </trkpt>
      <trkpt lat="48.67379" lon="6.5531">
        <ele>225</ele>
        <time>2020-08-16T13:26:36Z</time>
      </trkpt>
      <trkpt lat="48.67381" lon="6.55322">
        <ele>225</ele>
        <time>2020-08-16T13:26:38Z</time>
      </trkpt>
      <trkpt lat="48.67384" lon="6.55333">
        <ele>225</ele>
        <time>2020-08-16T13:26:40Z</time>
      </trkpt>
      <trkpt lat="48.67388" lon="6.55345">
        <ele>226</ele>
        <time>2020-08-16T13:26:42Z</time>
      </trkpt>
      <trkpt lat="48.67391" lon="6.55351">
        <ele>226</ele>
        <time>2020-08-16T13:26:43Z</time>
      </trkpt>
      <trkpt lat="48.67396" lon="6.55363">
        <ele>226</ele>
        <time>2020-08-16T13:26:45Z</time>
      </trkpt>
      <trkpt lat="48.674" lon="6.55375">
        <ele>226</ele>
        <time>2020-08-16T13:26:47Z</time>
      </trkpt>
      <trkpt lat="48.67402" lon="6.55383">
        <ele>226</ele>
        <time>2020-08-16T13:26:48Z</time>
      </trkpt>
      <trkpt lat="48.67407" lon="6.55392">
        <ele>225</ele>
        <time>2020-08-16T13:26:50Z</time>
      </trkpt>
      <trkpt lat="48.67412" lon="6.55402">
        <ele>225</ele>
        <time>2020-08-16T13:26:52Z</time>
      </trkpt>
      <trkpt lat="48.67415" lon="6.55407">
        <ele>225</ele>
        <time>2020-08-16T13:26:53Z</time>
      </trkpt>
      <trkpt lat="48.67419" lon="6.55416">
        <ele>225</ele>
        <time>2020-08-16T13:26:55Z</time>
      </trkpt>
      <trkpt lat="48.67424" lon="6.55425">
        <ele>225</ele>
        <time>2020-08-16T13:26:57Z</time>
      </trkpt>
      <trkpt lat="48.6743" lon="6.55432">
        <ele>225</ele>
        <time>2020-08-16T13:26:59Z</time>
      </trkpt>
      <trkpt lat="48.67434" lon="6.55437">
        <ele>225</ele>
        <time>2020-08-16T13:27:00Z</time>
      </trkpt>
      <trkpt lat="48.67436" lon="6.5545">
        <ele>225</ele>
        <time>2020-08-16T13:27:02Z</time>
      </trkpt>
      <trkpt lat="48.67438" lon="6.55456">
        <ele>225</ele>
        <time>2020-08-16T13:27:03Z</time>
      </trkpt>
      <trkpt lat="48.67444" lon="6.55467">
        <ele>225</ele>
        <time>2020-08-16T13:27:05Z</time>
      </trkpt>
      <trkpt lat="48.67446" lon="6.55473">
        <ele>225</ele>
        <time>2020-08-16T13:27:06Z</time>
      </trkpt>
      <trkpt lat="48.67453" lon="6.55481">
        <ele>225</ele>
        <time>2020-08-16T13:27:08Z</time>
      </trkpt>
      <trkpt lat="48.67457" lon="6.55485">
        <ele>225</ele>
        <time>2020-08-16T13:27:09Z</time>
      </trkpt>
      <trkpt lat="48.67464" lon="6.55492">
        <ele>225</ele>
        <time>2020-08-16T13:27:11Z</time>
      </trkpt>
      <trkpt lat="48.67469" lon="6.55496">
        <ele>225</ele>
        <time>2020-08-16T13:27:12Z</time>
      </trkpt>
      <trkpt lat="48.67473" lon="6.555">
        <ele>225</ele>
        <time>2020-08-16T13:27:13Z</time>
      </trkpt>
      <trkpt lat="48.67477" lon="6.55505">
        <ele>225</ele>
        <time>2020-08-16T13:27:14Z</time>
      </trkpt>
      <trkpt lat="48.67481" lon="6.55508">
        <ele>225</ele>
        <time>2020-08-16T13:27:15Z</time>
      </trkpt>
      <trkpt lat="48.67485" lon="6.55513">
        <ele>225</ele>
        <time>2020-08-16T13:27:16Z</time>
      </trkpt>
      <trkpt lat="48.67492" lon="6.55522">
        <ele>225</ele>
        <time>2020-08-16T13:27:18Z</time>
      </trkpt>
      <trkpt lat="48.67499" lon="6.55529">
        <ele>225</ele>
        <time>2020-08-16T13:27:20Z</time>
      </trkpt>
      <trkpt lat="48.67504" lon="6.55538">
        <ele>225</ele>
        <time>2020-08-16T13:27:22Z</time>
      </trkpt>
      <trkpt lat="48.6751" lon="6.55546">
        <ele>225</ele>
        <time>2020-08-16T13:27:24Z</time>
      </trkpt>
      <trkpt lat="48.67517" lon="6.55551">
        <ele>225</ele>
        <time>2020-08-16T13:27:26Z</time>
      </trkpt>
      <trkpt lat="48.67521" lon="6.55554">
        <ele>226</ele>
        <time>2020-08-16T13:27:27Z</time>
      </trkpt>
      <trkpt lat="48.67529" lon="6.55557">
        <ele>226</ele>
        <time>2020-08-16T13:27:29Z</time>
      </trkpt>
      <trkpt lat="48.67541" lon="6.55557">
        <ele>226</ele>
        <time>2020-08-16T13:27:32Z</time>
      </trkpt>
      <trkpt lat="48.67548" lon="6.55561">
        <ele>227</ele>
        <time>2020-08-16T13:27:34Z</time>
      </trkpt>
      <trkpt lat="48.67555" lon="6.55563">
        <ele>227</ele>
        <time>2020-08-16T13:27:36Z</time>
      </trkpt>
      <trkpt lat="48.67559" lon="6.55572">
        <ele>227</ele>
        <time>2020-08-16T13:27:38Z</time>
      </trkpt>
      <trkpt lat="48.67563" lon="6.55581">
        <ele>227</ele>
        <time>2020-08-16T13:27:40Z</time>
      </trkpt>
      <trkpt lat="48.67569" lon="6.5559">
        <ele>227</ele>
        <time>2020-08-16T13:27:42Z</time>
      </trkpt>
      <trkpt lat="48.67574" lon="6.556">
        <ele>226</ele>
        <time>2020-08-16T13:27:44Z</time>
      </trkpt>
      <trkpt lat="48.67579" lon="6.5561">
        <ele>226</ele>
        <time>2020-08-16T13:27:46Z</time>
      </trkpt>
      <trkpt lat="48.67585" lon="6.5562">
        <ele>226</ele>
        <time>2020-08-16T13:27:48Z</time>
      </trkpt>
      <trkpt lat="48.6759" lon="6.55629">
        <ele>225</ele>
        <time>2020-08-16T13:27:50Z</time>
      </trkpt>
      <trkpt lat="48.67593" lon="6.55635">
        <ele>225</ele>
        <time>2020-08-16T13:27:51Z</time>
      </trkpt>
      <trkpt lat="48.67597" lon="6.55646">
        <ele>224</ele>
        <time>2020-08-16T13:27:53Z</time>
      </trkpt>
      <trkpt lat="48.67601" lon="6.55658">
        <ele>224</ele>
        <time>2020-08-16T13:27:55Z</time>
      </trkpt>
      <trkpt lat="48.67604" lon="6.55663">
        <ele>224</ele>
        <time>2020-08-16T13:27:56Z</time>
      </trkpt>
      <trkpt lat="48.67607" lon="6.55669">
        <ele>225</ele>
        <time>2020-08-16T13:27:57Z</time>
      </trkpt>
      <trkpt lat="48.67611" lon="6.5568">
        <ele>225</ele>
        <time>2020-08-16T13:27:59Z</time>
      </trkpt>
      <trkpt lat="48.67614" lon="6.55686">
        <ele>225</ele>
        <time>2020-08-16T13:28:00Z</time>
      </trkpt>
      <trkpt lat="48.67617" lon="6.55692">
        <ele>225</ele>
        <time>2020-08-16T13:28:01Z</time>
      </trkpt>
      <trkpt lat="48.6762" lon="6.55699">
        <ele>225</ele>
        <time>2020-08-16T13:28:02Z</time>
      </trkpt>
      <trkpt lat="48.67623" lon="6.55705">
        <ele>225</ele>
        <time>2020-08-16T13:28:03Z</time>
      </trkpt>
      <trkpt lat="48.67625" lon="6.55711">
        <ele>225</ele>
        <time>2020-08-16T13:28:04Z</time>
      </trkpt>
      <trkpt lat="48.67629" lon="6.55723">
        <ele>225</ele>
        <time>2020-08-16T13:28:06Z</time>
      </trkpt>
      <trkpt lat="48.6763" lon="6.55736">
        <ele>224</ele>
        <time>2020-08-16T13:28:08Z</time>
      </trkpt>
      <trkpt lat="48.67632" lon="6.55749">
        <ele>224</ele>
        <time>2020-08-16T13:28:10Z</time>
      </trkpt>
      <trkpt lat="48.67632" lon="6.55762">
        <ele>224</ele>
        <time>2020-08-16T13:28:12Z</time>
      </trkpt>
      <trkpt lat="48.67635" lon="6.55774">
        <ele>224</ele>
        <time>2020-08-16T13:28:14Z</time>
      </trkpt>
      <trkpt lat="48.67636" lon="6.55786">
        <ele>224</ele>
        <time>2020-08-16T13:28:16Z</time>
      </trkpt>
      <trkpt lat="48.67637" lon="6.55793">
        <ele>224</ele>
        <time>2020-08-16T13:28:17Z</time>
      </trkpt>
      <trkpt lat="48.67638" lon="6.558">
        <ele>224</ele>
        <time>2020-08-16T13:28:18Z</time>
      </trkpt>
      <trkpt lat="48.67639" lon="6.55812">
        <ele>224</ele>
        <time>2020-08-16T13:28:20Z</time>
      </trkpt>
      <trkpt lat="48.6764" lon="6.55825">
        <ele>225</ele>
        <time>2020-08-16T13:28:22Z</time>
      </trkpt>
      <trkpt lat="48.6764" lon="6.55839">
        <ele>225</ele>
        <time>2020-08-16T13:28:24Z</time>
      </trkpt>
      <trkpt lat="48.6764" lon="6.55852">
        <ele>225</ele>
        <time>2020-08-16T13:28:26Z</time>
      </trkpt>
      <trkpt lat="48.6764" lon="6.55859">
        <ele>225</ele>
        <time>2020-08-16T13:28:27Z</time>
      </trkpt>
      <trkpt lat="48.67641" lon="6.55867">
        <ele>225</ele>
        <time>2020-08-16T13:28:28Z</time>
      </trkpt>
      <trkpt lat="48.67641" lon="6.55875">
        <ele>225</ele>
        <time>2020-08-16T13:28:29Z</time>
      </trkpt>
      <trkpt lat="48.67642" lon="6.55882">
        <ele>224</ele>
        <time>2020-08-16T13:28:30Z</time>
      </trkpt>
      <trkpt lat="48.67644" lon="6.55895">
        <ele>224</ele>
        <time>2020-08-16T13:28:32Z</time>
      </trkpt>
      <trkpt lat="48.67644" lon="6.55907">
        <ele>224</ele>
        <time>2020-08-16T13:28:34Z</time>
      </trkpt>
      <trkpt lat="48.67642" lon="6.55913">
        <ele>224</ele>
        <time>2020-08-16T13:28:35Z</time>
      </trkpt>
      <trkpt lat="48.67643" lon="6.5592">
        <ele>224</ele>
        <time>2020-08-16T13:28:36Z</time>
      </trkpt>
      <trkpt lat="48.67643" lon="6.55928">
        <ele>224</ele>
        <time>2020-08-16T13:28:37Z</time>
      </trkpt>
      <trkpt lat="48.67644" lon="6.55941">
        <ele>224</ele>
        <time>2020-08-16T13:28:39Z</time>
      </trkpt>
      <trkpt lat="48.67646" lon="6.55948">
        <ele>224</ele>
        <time>2020-08-16T13:28:40Z</time>
      </trkpt>
      <trkpt lat="48.67648" lon="6.55961">
        <ele>224</ele>
        <time>2020-08-16T13:28:42Z</time>
      </trkpt>
      <trkpt lat="48.67648" lon="6.55968">
        <ele>224</ele>
        <time>2020-08-16T13:28:43Z</time>
      </trkpt>
      <trkpt lat="48.6765" lon="6.5598">
        <ele>224</ele>
        <time>2020-08-16T13:28:45Z</time>
      </trkpt>
      <trkpt lat="48.67651" lon="6.55987">
        <ele>224</ele>
        <time>2020-08-16T13:28:46Z</time>
      </trkpt>
      <trkpt lat="48.67651" lon="6.56001">
        <ele>224</ele>
        <time>2020-08-16T13:28:48Z</time>
      </trkpt>
      <trkpt lat="48.67654" lon="6.56014">
        <ele>224</ele>
        <time>2020-08-16T13:28:50Z</time>
      </trkpt>
      <trkpt lat="48.67655" lon="6.56025">
        <ele>224</ele>
        <time>2020-08-16T13:28:52Z</time>
      </trkpt>
      <trkpt lat="48.67654" lon="6.56033">
        <ele>224</ele>
        <time>2020-08-16T13:28:53Z</time>
      </trkpt>
      <trkpt lat="48.67655" lon="6.56046">
        <ele>224</ele>
        <time>2020-08-16T13:28:55Z</time>
      </trkpt>
      <trkpt lat="48.67655" lon="6.56059">
        <ele>224</ele>
        <time>2020-08-16T13:28:57Z</time>
      </trkpt>
      <trkpt lat="48.67656" lon="6.56072">
        <ele>224</ele>
        <time>2020-08-16T13:28:59Z</time>
      </trkpt>
      <trkpt lat="48.67655" lon="6.56085">
        <ele>224</ele>
        <time>2020-08-16T13:29:01Z</time>
      </trkpt>
      <trkpt lat="48.67656" lon="6.56092">
        <ele>224</ele>
        <time>2020-08-16T13:29:02Z</time>
      </trkpt>
      <trkpt lat="48.67656" lon="6.56106">
        <ele>224</ele>
        <time>2020-08-16T13:29:04Z</time>
      </trkpt>
      <trkpt lat="48.67654" lon="6.5612">
        <ele>224</ele>
        <time>2020-08-16T13:29:06Z</time>
      </trkpt>
      <trkpt lat="48.67655" lon="6.56127">
        <ele>224</ele>
        <time>2020-08-16T13:29:07Z</time>
      </trkpt>
      <trkpt lat="48.67656" lon="6.56141">
        <ele>224</ele>
        <time>2020-08-16T13:29:09Z</time>
      </trkpt>
      <trkpt lat="48.67657" lon="6.56147">
        <ele>224</ele>
        <time>2020-08-16T13:29:10Z</time>
      </trkpt>
      <trkpt lat="48.67659" lon="6.56161">
        <ele>224</ele>
        <time>2020-08-16T13:29:12Z</time>
      </trkpt>
      <trkpt lat="48.67659" lon="6.56168">
        <ele>224</ele>
        <time>2020-08-16T13:29:13Z</time>
      </trkpt>
      <trkpt lat="48.67661" lon="6.56174">
        <ele>225</ele>
        <time>2020-08-16T13:29:14Z</time>
      </trkpt>
      <trkpt lat="48.67662" lon="6.56188">
        <ele>225</ele>
        <time>2020-08-16T13:29:16Z</time>
      </trkpt>
      <trkpt lat="48.67663" lon="6.56195">
        <ele>225</ele>
        <time>2020-08-16T13:29:17Z</time>
      </trkpt>
      <trkpt lat="48.67664" lon="6.56209">
        <ele>225</ele>
        <time>2020-08-16T13:29:19Z</time>
      </trkpt>
      <trkpt lat="48.67666" lon="6.56216">
        <ele>225</ele>
        <time>2020-08-16T13:29:20Z</time>
      </trkpt>
      <trkpt lat="48.67667" lon="6.56229">
        <ele>225</ele>
        <time>2020-08-16T13:29:22Z</time>
      </trkpt>
      <trkpt lat="48.6767" lon="6.56241">
        <ele>225</ele>
        <time>2020-08-16T13:29:24Z</time>
      </trkpt>
      <trkpt lat="48.67672" lon="6.56248">
        <ele>225</ele>
        <time>2020-08-16T13:29:25Z</time>
      </trkpt>
      <trkpt lat="48.67671" lon="6.56255">
        <ele>225</ele>
        <time>2020-08-16T13:29:26Z</time>
      </trkpt>
      <trkpt lat="48.67673" lon="6.56262">
        <ele>225</ele>
        <time>2020-08-16T13:29:27Z</time>
      </trkpt>
      <trkpt lat="48.67675" lon="6.56274">
        <ele>224</ele>
        <time>2020-08-16T13:29:29Z</time>
      </trkpt>
      <trkpt lat="48.67677" lon="6.56285">
        <ele>224</ele>
        <time>2020-08-16T13:29:31Z</time>
      </trkpt>
      <trkpt lat="48.67681" lon="6.56297">
        <ele>224</ele>
        <time>2020-08-16T13:29:33Z</time>
      </trkpt>
      <trkpt lat="48.67683" lon="6.56309">
        <ele>224</ele>
        <time>2020-08-16T13:29:35Z</time>
      </trkpt>
      <trkpt lat="48.67686" lon="6.56315">
        <ele>225</ele>
        <time>2020-08-16T13:29:36Z</time>
      </trkpt>
      <trkpt lat="48.67689" lon="6.56328">
        <ele>225</ele>
        <time>2020-08-16T13:29:38Z</time>
      </trkpt>
      <trkpt lat="48.67692" lon="6.56339">
        <ele>225</ele>
        <time>2020-08-16T13:29:40Z</time>
      </trkpt>
      <trkpt lat="48.67694" lon="6.56347">
        <ele>225</ele>
        <time>2020-08-16T13:29:41Z</time>
      </trkpt>
      <trkpt lat="48.67698" lon="6.56359">
        <ele>226</ele>
        <time>2020-08-16T13:29:43Z</time>
      </trkpt>
      <trkpt lat="48.67703" lon="6.56371">
        <ele>226</ele>
        <time>2020-08-16T13:29:45Z</time>
      </trkpt>
      <trkpt lat="48.67706" lon="6.56377">
        <ele>226</ele>
        <time>2020-08-16T13:29:46Z</time>
      </trkpt>
      <trkpt lat="48.67711" lon="6.56388">
        <ele>226</ele>
        <time>2020-08-16T13:29:48Z</time>
      </trkpt>
      <trkpt lat="48.67713" lon="6.56394">
        <ele>226</ele>
        <time>2020-08-16T13:29:49Z</time>
      </trkpt>
      <trkpt lat="48.67717" lon="6.56406">
        <ele>226</ele>
        <time>2020-08-16T13:29:51Z</time>
      </trkpt>
      <trkpt lat="48.6772" lon="6.56412">
        <ele>226</ele>
        <time>2020-08-16T13:29:52Z</time>
      </trkpt>
      <trkpt lat="48.67724" lon="6.56424">
        <ele>226</ele>
        <time>2020-08-16T13:29:54Z</time>
      </trkpt>
      <trkpt lat="48.67725" lon="6.56431">
        <ele>226</ele>
        <time>2020-08-16T13:29:55Z</time>
      </trkpt>
      <trkpt lat="48.67728" lon="6.56445">
        <ele>225</ele>
        <time>2020-08-16T13:29:57Z</time>
      </trkpt>
      <trkpt lat="48.6773" lon="6.56451">
        <ele>225</ele>
        <time>2020-08-16T13:29:58Z</time>
      </trkpt>
      <trkpt lat="48.67733" lon="6.56459">
        <ele>225</ele>
        <time>2020-08-16T13:29:59Z</time>
      </trkpt>
      <trkpt lat="48.67735" lon="6.5647">
        <ele>225</ele>
        <time>2020-08-16T13:30:01Z</time>
      </trkpt>
      <trkpt lat="48.67737" lon="6.56477">
        <ele>225</ele>
        <time>2020-08-16T13:30:02Z</time>
      </trkpt>
      <trkpt lat="48.6774" lon="6.56484">
        <ele>225</ele>
        <time>2020-08-16T13:30:03Z</time>
      </trkpt>
      <trkpt lat="48.67742" lon="6.5649">
        <ele>225</ele>
        <time>2020-08-16T13:30:04Z</time>
      </trkpt>
      <trkpt lat="48.67744" lon="6.56496">
        <ele>225</ele>
        <time>2020-08-16T13:30:05Z</time>
      </trkpt>
      <trkpt lat="48.67748" lon="6.56508">
        <ele>225</ele>
        <time>2020-08-16T13:30:07Z</time>
      </trkpt>
      <trkpt lat="48.67753" lon="6.56518">
        <ele>225</ele>
        <time>2020-08-16T13:30:09Z</time>
      </trkpt>
      <trkpt lat="48.67756" lon="6.56525">
        <ele>225</ele>
        <time>2020-08-16T13:30:10Z</time>
      </trkpt>
      <trkpt lat="48.6776" lon="6.56537">
        <ele>225</ele>
        <time>2020-08-16T13:30:12Z</time>
      </trkpt>
      <trkpt lat="48.67762" lon="6.56543">
        <ele>225</ele>
        <time>2020-08-16T13:30:13Z</time>
      </trkpt>
      <trkpt lat="48.67764" lon="6.5655">
        <ele>225</ele>
        <time>2020-08-16T13:30:14Z</time>
      </trkpt>
      <trkpt lat="48.67767" lon="6.56556">
        <ele>225</ele>
        <time>2020-08-16T13:30:15Z</time>
      </trkpt>
      <trkpt lat="48.67769" lon="6.56562">
        <ele>225</ele>
        <time>2020-08-16T13:30:16Z</time>
      </trkpt>
      <trkpt lat="48.67771" lon="6.56568">
        <ele>225</ele>
        <time>2020-08-16T13:30:17Z</time>
      </trkpt>
      <trkpt lat="48.67773" lon="6.56574">
        <ele>225</ele>
        <time>2020-08-16T13:30:18Z</time>
      </trkpt>
      <trkpt lat="48.67776" lon="6.56581">
        <ele>225</ele>
        <time>2020-08-16T13:30:19Z</time>
      </trkpt>
      <trkpt lat="48.67779" lon="6.56594">
        <ele>225</ele>
        <time>2020-08-16T13:30:21Z</time>
      </trkpt>
      <trkpt lat="48.67781" lon="6.56601">
        <ele>225</ele>
        <time>2020-08-16T13:30:22Z</time>
      </trkpt>
      <trkpt lat="48.67783" lon="6.56607">
        <ele>225</ele>
        <time>2020-08-16T13:30:23Z</time>
      </trkpt>
      <trkpt lat="48.67785" lon="6.56614">
        <ele>225</ele>
        <time>2020-08-16T13:30:24Z</time>
      </trkpt>
      <trkpt lat="48.67786" lon="6.56621">
        <ele>226</ele>
        <time>2020-08-16T13:30:25Z</time>
      </trkpt>
      <trkpt lat="48.67788" lon="6.56628">
        <ele>225</ele>
        <time>2020-08-16T13:30:26Z</time>
      </trkpt>
      <trkpt lat="48.6779" lon="6.56634">
        <ele>225</ele>
        <time>2020-08-16T13:30:27Z</time>
      </trkpt>
      <trkpt lat="48.67791" lon="6.56641">
        <ele>225</ele>
        <time>2020-08-16T13:30:28Z</time>
      </trkpt>
      <trkpt lat="48.67793" lon="6.56648">
        <ele>225</ele>
        <time>2020-08-16T13:30:29Z</time>
      </trkpt>
      <trkpt lat="48.67794" lon="6.56655">
        <ele>225</ele>
        <time>2020-08-16T13:30:30Z</time>
      </trkpt>
      <trkpt lat="48.67796" lon="6.56662">
        <ele>225</ele>
        <time>2020-08-16T13:30:31Z</time>
      </trkpt>
      <trkpt lat="48.67798" lon="6.56669">
        <ele>225</ele>
        <time>2020-08-16T13:30:32Z</time>
      </trkpt>
      <trkpt lat="48.67799" lon="6.56676">
        <ele>225</ele>
        <time>2020-08-16T13:30:33Z</time>
      </trkpt>
      <trkpt lat="48.67801" lon="6.56683">
        <ele>225</ele>
        <time>2020-08-16T13:30:34Z</time>
      </trkpt>
      <trkpt lat="48.67802" lon="6.5669">
        <ele>225</ele>
        <time>2020-08-16T13:30:35Z</time>
      </trkpt>
      <trkpt lat="48.67804" lon="6.56697">
        <ele>225</ele>
        <time>2020-08-16T13:30:36Z</time>
      </trkpt>
      <trkpt lat="48.67805" lon="6.56704">
        <ele>225</ele>
        <time>2020-08-16T13:30:37Z</time>
      </trkpt>
      <trkpt lat="48.67806" lon="6.56711">
        <ele>225</ele>
        <time>2020-08-16T13:30:38Z</time>
      </trkpt>
      <trkpt lat="48.67806" lon="6.56719">
        <ele>225</ele>
        <time>2020-08-16T13:30:39Z</time>
      </trkpt>
      <trkpt lat="48.67807" lon="6.56726">
        <ele>225</ele>
        <time>2020-08-16T13:30:40Z</time>
      </trkpt>
      <trkpt lat="48.67809" lon="6.56733">
        <ele>225</ele>
        <time>2020-08-16T13:30:41Z</time>
      </trkpt>
      <trkpt lat="48.67809" lon="6.5674">
        <ele>225</ele>
        <time>2020-08-16T13:30:42Z</time>
      </trkpt>
      <trkpt lat="48.6781" lon="6.56747">
        <ele>225</ele>
        <time>2020-08-16T13:30:43Z</time>
      </trkpt>
      <trkpt lat="48.67811" lon="6.56755">
        <ele>225</ele>
        <time>2020-08-16T13:30:44Z</time>
      </trkpt>
      <trkpt lat="48.67813" lon="6.56762">
        <ele>225</ele>
        <time>2020-08-16T13:30:45Z</time>
      </trkpt>
      <trkpt lat="48.67814" lon="6.56768">
        <ele>225</ele>
        <time>2020-08-16T13:30:46Z</time>
      </trkpt>
      <trkpt lat="48.67815" lon="6.56775">
        <ele>225</ele>
        <time>2020-08-16T13:30:47Z</time>
      </trkpt>
      <trkpt lat="48.67816" lon="6.56782">
        <ele>225</ele>
        <time>2020-08-16T13:30:48Z</time>
      </trkpt>
      <trkpt lat="48.67817" lon="6.56789">
        <ele>225</ele>
        <time>2020-08-16T13:30:49Z</time>
      </trkpt>
      <trkpt lat="48.67818" lon="6.56796">
        <ele>225</ele>
        <time>2020-08-16T13:30:50Z</time>
      </trkpt>
      <trkpt lat="48.67819" lon="6.56803">
        <ele>225</ele>
        <time>2020-08-16T13:30:51Z</time>
      </trkpt>
      <trkpt lat="48.6782" lon="6.5681">
        <ele>225</ele>
        <time>2020-08-16T13:30:52Z</time>
      </trkpt>
      <trkpt lat="48.67821" lon="6.56824">
        <ele>225</ele>
        <time>2020-08-16T13:30:54Z</time>
      </trkpt>
      <trkpt lat="48.67821" lon="6.56831">
        <ele>225</ele>
        <time>2020-08-16T13:30:55Z</time>
      </trkpt>
      <trkpt lat="48.67821" lon="6.56838">
        <ele>224</ele>
        <time>2020-08-16T13:30:56Z</time>
      </trkpt>
      <trkpt lat="48.67822" lon="6.56845">
        <ele>224</ele>
        <time>2020-08-16T13:30:57Z</time>
      </trkpt>
      <trkpt lat="48.67822" lon="6.56852">
        <ele>224</ele>
        <time>2020-08-16T13:30:58Z</time>
      </trkpt>
      <trkpt lat="48.67822" lon="6.5686">
        <ele>224</ele>
        <time>2020-08-16T13:30:59Z</time>
      </trkpt>
      <trkpt lat="48.67822" lon="6.56867">
        <ele>224</ele>
        <time>2020-08-16T13:31:00Z</time>
      </trkpt>
      <trkpt lat="48.67822" lon="6.56874">
        <ele>225</ele>
        <time>2020-08-16T13:31:01Z</time>
      </trkpt>
      <trkpt lat="48.67823" lon="6.56887">
        <ele>225</ele>
        <time>2020-08-16T13:31:03Z</time>
      </trkpt>
      <trkpt lat="48.67823" lon="6.56901">
        <ele>225</ele>
        <time>2020-08-16T13:31:05Z</time>
      </trkpt>
      <trkpt lat="48.67823" lon="6.56914">
        <ele>225</ele>
        <time>2020-08-16T13:31:07Z</time>
      </trkpt>
      <trkpt lat="48.67823" lon="6.56927">
        <ele>226</ele>
        <time>2020-08-16T13:31:09Z</time>
      </trkpt>
      <trkpt lat="48.67823" lon="6.56934">
        <ele>226</ele>
        <time>2020-08-16T13:31:10Z</time>
      </trkpt>
      <trkpt lat="48.67824" lon="6.56941">
        <ele>226</ele>
        <time>2020-08-16T13:31:11Z</time>
      </trkpt>
      <trkpt lat="48.67826" lon="6.56948">
        <ele>226</ele>
        <time>2020-08-16T13:31:12Z</time>
      </trkpt>
      <trkpt lat="48.67827" lon="6.56956">
        <ele>226</ele>
        <time>2020-08-16T13:31:13Z</time>
      </trkpt>
      <trkpt lat="48.67826" lon="6.5697">
        <ele>226</ele>
        <time>2020-08-16T13:31:15Z</time>
      </trkpt>
      <trkpt lat="48.67826" lon="6.56977">
        <ele>226</ele>
        <time>2020-08-16T13:31:16Z</time>
      </trkpt>
      <trkpt lat="48.67826" lon="6.56984">
        <ele>226</ele>
        <time>2020-08-16T13:31:17Z</time>
      </trkpt>
      <trkpt lat="48.67825" lon="6.56998">
        <ele>227</ele>
        <time>2020-08-16T13:31:19Z</time>
      </trkpt>
      <trkpt lat="48.67825" lon="6.57005">
        <ele>227</ele>
        <time>2020-08-16T13:31:20Z</time>
      </trkpt>
      <trkpt lat="48.67825" lon="6.57012">
        <ele>227</ele>
        <time>2020-08-16T13:31:21Z</time>
      </trkpt>
      <trkpt lat="48.67825" lon="6.57019">
        <ele>228</ele>
        <time>2020-08-16T13:31:22Z</time>
      </trkpt>
      <trkpt lat="48.67826" lon="6.57026">
        <ele>228</ele>
        <time>2020-08-16T13:31:23Z</time>
      </trkpt>
      <trkpt lat="48.67825" lon="6.57033">
        <ele>228</ele>
        <time>2020-08-16T13:31:24Z</time>
      </trkpt>
      <trkpt lat="48.67825" lon="6.57041">
        <ele>228</ele>
        <time>2020-08-16T13:31:25Z</time>
      </trkpt>
      <trkpt lat="48.67825" lon="6.57048">
        <ele>228</ele>
        <time>2020-08-16T13:31:26Z</time>
      </trkpt>
      <trkpt lat="48.67823" lon="6.57054">
        <ele>228</ele>
        <time>2020-08-16T13:31:27Z</time>
      </trkpt>
      <trkpt lat="48.67825" lon="6.57068">
        <ele>226</ele>
        <time>2020-08-16T13:31:29Z</time>
      </trkpt>
      <trkpt lat="48.67825" lon="6.57075">
        <ele>226</ele>
        <time>2020-08-16T13:31:30Z</time>
      </trkpt>
      <trkpt lat="48.67825" lon="6.57083">
        <ele>226</ele>
        <time>2020-08-16T13:31:31Z</time>
      </trkpt>
      <trkpt lat="48.67824" lon="6.57091">
        <ele>226</ele>
        <time>2020-08-16T13:31:32Z</time>
      </trkpt>
      <trkpt lat="48.67825" lon="6.57098">
        <ele>226</ele>
        <time>2020-08-16T13:31:33Z</time>
      </trkpt>
      <trkpt lat="48.67824" lon="6.57106">
        <ele>226</ele>
        <time>2020-08-16T13:31:34Z</time>
      </trkpt>
      <trkpt lat="48.67824" lon="6.57113">
        <ele>226</ele>
        <time>2020-08-16T13:31:35Z</time>
      </trkpt>
      <trkpt lat="48.67825" lon="6.57121">
        <ele>226</ele>
        <time>2020-08-16T13:31:36Z</time>
      </trkpt>
      <trkpt lat="48.67824" lon="6.57128">
        <ele>226</ele>
        <time>2020-08-16T13:31:37Z</time>
      </trkpt>
      <trkpt lat="48.67823" lon="6.57135">
        <ele>226</ele>
        <time>2020-08-16T13:31:38Z</time>
      </trkpt>
      <trkpt lat="48.67822" lon="6.57143">
        <ele>226</ele>
        <time>2020-08-16T13:31:39Z</time>
      </trkpt>
      <trkpt lat="48.67822" lon="6.5715">
        <ele>226</ele>
        <time>2020-08-16T13:31:40Z</time>
      </trkpt>
      <trkpt lat="48.67819" lon="6.57162">
        <ele>226</ele>
        <time>2020-08-16T13:31:42Z</time>
      </trkpt>
      <trkpt lat="48.67817" lon="6.57175">
        <ele>226</ele>
        <time>2020-08-16T13:31:44Z</time>
      </trkpt>
      <trkpt lat="48.67815" lon="6.57187">
        <ele>226</ele>
        <time>2020-08-16T13:31:46Z</time>
      </trkpt>
      <trkpt lat="48.67814" lon="6.57197">
        <ele>226</ele>
        <time>2020-08-16T13:31:48Z</time>
      </trkpt>
      <trkpt lat="48.67812" lon="6.57205">
        <ele>226</ele>
        <time>2020-08-16T13:31:50Z</time>
      </trkpt>
      <trkpt lat="48.67812" lon="6.57213">
        <ele>227</ele>
        <time>2020-08-16T13:31:52Z</time>
      </trkpt>
      <trkpt lat="48.67812" lon="6.57222">
        <ele>227</ele>
        <time>2020-08-16T13:31:55Z</time>
      </trkpt>
      <trkpt lat="48.67812" lon="6.57231">
        <ele>227</ele>
        <time>2020-08-16T13:31:59Z</time>
      </trkpt>
      <trkpt lat="48.67813" lon="6.5724">
        <ele>227</ele>
        <time>2020-08-16T13:32:03Z</time>
      </trkpt>
      <trkpt lat="48.67814" lon="6.57247">
        <ele>227</ele>
        <time>2020-08-16T13:32:06Z</time>
      </trkpt>
      <trkpt lat="48.67814" lon="6.57254">
        <ele>227</ele>
        <time>2020-08-16T13:32:09Z</time>
      </trkpt>
      <trkpt lat="48.67812" lon="6.57262">
        <ele>227</ele>
        <time>2020-08-16T13:32:12Z</time>
      </trkpt>
      <trkpt lat="48.67811" lon="6.57271">
        <ele>227</ele>
        <time>2020-08-16T13:32:15Z</time>
      </trkpt>
      <trkpt lat="48.6781" lon="6.57278">
        <ele>228</ele>
        <time>2020-08-16T13:32:17Z</time>
      </trkpt>
      <trkpt lat="48.67808" lon="6.57287">
        <ele>228</ele>
        <time>2020-08-16T13:32:19Z</time>
      </trkpt>
      <trkpt lat="48.67806" lon="6.57295">
        <ele>228</ele>
        <time>2020-08-16T13:32:21Z</time>
      </trkpt>
      <trkpt lat="48.67804" lon="6.57304">
        <ele>228</ele>
        <time>2020-08-16T13:32:23Z</time>
      </trkpt>
      <trkpt lat="48.67802" lon="6.57313">
        <ele>228</ele>
        <time>2020-08-16T13:32:25Z</time>
      </trkpt>
      <trkpt lat="48.67801" lon="6.57322">
        <ele>228</ele>
        <time>2020-08-16T13:32:27Z</time>
      </trkpt>
      <trkpt lat="48.67801" lon="6.5733">
        <ele>228</ele>
        <time>2020-08-16T13:32:29Z</time>
      </trkpt>
      <trkpt lat="48.67799" lon="6.5734">
        <ele>228</ele>
        <time>2020-08-16T13:32:31Z</time>
      </trkpt>
      <trkpt lat="48.67798" lon="6.5735">
        <ele>228</ele>
        <time>2020-08-16T13:32:33Z</time>
      </trkpt>
      <trkpt lat="48.67798" lon="6.57362">
        <ele>228</ele>
        <time>2020-08-16T13:32:35Z</time>
      </trkpt>
      <trkpt lat="48.67796" lon="6.57372">
        <ele>228</ele>
        <time>2020-08-16T13:32:37Z</time>
      </trkpt>
      <trkpt lat="48.67795" lon="6.57383">
        <ele>228</ele>
        <time>2020-08-16T13:32:39Z</time>
      </trkpt>
      <trkpt lat="48.67795" lon="6.57394">
        <ele>228</ele>
        <time>2020-08-16T13:32:41Z</time>
      </trkpt>
      <trkpt lat="48.67794" lon="6.57407">
        <ele>228</ele>
        <time>2020-08-16T13:32:43Z</time>
      </trkpt>
      <trkpt lat="48.67794" lon="6.57413">
        <ele>228</ele>
        <time>2020-08-16T13:32:44Z</time>
      </trkpt>
      <trkpt lat="48.67792" lon="6.57425">
        <ele>228</ele>
        <time>2020-08-16T13:32:46Z</time>
      </trkpt>
      <trkpt lat="48.67791" lon="6.57438">
        <ele>228</ele>
        <time>2020-08-16T13:32:48Z</time>
      </trkpt>
      <trkpt lat="48.67789" lon="6.57448">
        <ele>228</ele>
        <time>2020-08-16T13:32:50Z</time>
      </trkpt>
      <trkpt lat="48.6779" lon="6.57456">
        <ele>228</ele>
        <time>2020-08-16T13:32:52Z</time>
      </trkpt>
      <trkpt lat="48.6779" lon="6.57466">
        <ele>228</ele>
        <time>2020-08-16T13:32:54Z</time>
      </trkpt>
      <trkpt lat="48.67789" lon="6.57474">
        <ele>228</ele>
        <time>2020-08-16T13:32:56Z</time>
      </trkpt>
      <trkpt lat="48.67788" lon="6.57483">
        <ele>228</ele>
        <time>2020-08-16T13:32:58Z</time>
      </trkpt>
      <trkpt lat="48.67787" lon="6.57491">
        <ele>228</ele>
        <time>2020-08-16T13:33:00Z</time>
      </trkpt>
      <trkpt lat="48.67786" lon="6.57499">
        <ele>228</ele>
        <time>2020-08-16T13:33:02Z</time>
      </trkpt>
      <trkpt lat="48.67785" lon="6.57507">
        <ele>228</ele>
        <time>2020-08-16T13:33:04Z</time>
      </trkpt>
      <trkpt lat="48.67785" lon="6.57516">
        <ele>228</ele>
        <time>2020-08-16T13:33:07Z</time>
      </trkpt>
      <trkpt lat="48.67784" lon="6.57526">
        <ele>229</ele>
        <time>2020-08-16T13:33:10Z</time>
      </trkpt>
      <trkpt lat="48.6778" lon="6.57531">
        <ele>229</ele>
        <time>2020-08-16T13:33:12Z</time>
      </trkpt>
      <trkpt lat="48.67781" lon="6.57539">
        <ele>229</ele>
        <time>2020-08-16T13:33:14Z</time>
      </trkpt>
      <trkpt lat="48.67782" lon="6.57546">
        <ele>229</ele>
        <time>2020-08-16T13:33:16Z</time>
      </trkpt>
      <trkpt lat="48.67783" lon="6.57556">
        <ele>229</ele>
        <time>2020-08-16T13:33:18Z</time>
      </trkpt>
      <trkpt lat="48.67783" lon="6.57567">
        <ele>229</ele>
        <time>2020-08-16T13:33:20Z</time>
      </trkpt>
      <trkpt lat="48.67781" lon="6.57577">
        <ele>229</ele>
        <time>2020-08-16T13:33:22Z</time>
      </trkpt>
      <trkpt lat="48.6778" lon="6.57584">
        <ele>229</ele>
        <time>2020-08-16T13:33:23Z</time>
      </trkpt>
      <trkpt lat="48.67777" lon="6.57596">
        <ele>229</ele>
        <time>2020-08-16T13:33:25Z</time>
      </trkpt>
      <trkpt lat="48.67777" lon="6.57603">
        <ele>229</ele>
        <time>2020-08-16T13:33:26Z</time>
      </trkpt>
      <trkpt lat="48.67776" lon="6.5761">
        <ele>229</ele>
        <time>2020-08-16T13:33:27Z</time>
      </trkpt>
      <trkpt lat="48.67773" lon="6.5762">
        <ele>229</ele>
        <time>2020-08-16T13:33:29Z</time>
      </trkpt>
      <trkpt lat="48.6777" lon="6.5763">
        <ele>229</ele>
        <time>2020-08-16T13:33:31Z</time>
      </trkpt>
      <trkpt lat="48.6777" lon="6.57641">
        <ele>229</ele>
        <time>2020-08-16T13:33:33Z</time>
      </trkpt>
      <trkpt lat="48.6777" lon="6.57654">
        <ele>229</ele>
        <time>2020-08-16T13:33:35Z</time>
      </trkpt>
      <trkpt lat="48.6777" lon="6.57664">
        <ele>229</ele>
        <time>2020-08-16T13:33:37Z</time>
      </trkpt>
      <trkpt lat="48.67768" lon="6.57682">
        <ele>229</ele>
        <time>2020-08-16T13:33:40Z</time>
      </trkpt>
      <trkpt lat="48.67769" lon="6.57689">
        <ele>229</ele>
        <time>2020-08-16T13:33:41Z</time>
      </trkpt>
      <trkpt lat="48.67768" lon="6.57702">
        <ele>229</ele>
        <time>2020-08-16T13:33:43Z</time>
      </trkpt>
      <trkpt lat="48.67766" lon="6.57715">
        <ele>229</ele>
        <time>2020-08-16T13:33:45Z</time>
      </trkpt>
      <trkpt lat="48.67765" lon="6.57727">
        <ele>230</ele>
        <time>2020-08-16T13:33:47Z</time>
      </trkpt>
      <trkpt lat="48.67764" lon="6.57741">
        <ele>230</ele>
        <time>2020-08-16T13:33:49Z</time>
      </trkpt>
      <trkpt lat="48.67763" lon="6.57753">
        <ele>229</ele>
        <time>2020-08-16T13:33:51Z</time>
      </trkpt>
      <trkpt lat="48.67762" lon="6.57765">
        <ele>229</ele>
        <time>2020-08-16T13:33:53Z</time>
      </trkpt>
      <trkpt lat="48.67758" lon="6.57777">
        <ele>229</ele>
        <time>2020-08-16T13:33:55Z</time>
      </trkpt>
      <trkpt lat="48.67755" lon="6.57789">
        <ele>229</ele>
        <time>2020-08-16T13:33:57Z</time>
      </trkpt>
      <trkpt lat="48.67748" lon="6.57802">
        <ele>229</ele>
        <time>2020-08-16T13:34:00Z</time>
      </trkpt>
      <trkpt lat="48.67744" lon="6.5781">
        <ele>229</ele>
        <time>2020-08-16T13:34:01Z</time>
      </trkpt>
      <trkpt lat="48.6774" lon="6.57815">
        <ele>228</ele>
        <time>2020-08-16T13:34:02Z</time>
      </trkpt>
      <trkpt lat="48.67738" lon="6.57822">
        <ele>228</ele>
        <time>2020-08-16T13:34:03Z</time>
      </trkpt>
      <trkpt lat="48.67736" lon="6.57829">
        <ele>228</ele>
        <time>2020-08-16T13:34:04Z</time>
      </trkpt>
      <trkpt lat="48.67733" lon="6.57835">
        <ele>228</ele>
        <time>2020-08-16T13:34:05Z</time>
      </trkpt>
      <trkpt lat="48.67727" lon="6.57845">
        <ele>227</ele>
        <time>2020-08-16T13:34:07Z</time>
      </trkpt>
      <trkpt lat="48.67724" lon="6.57856">
        <ele>227</ele>
        <time>2020-08-16T13:34:09Z</time>
      </trkpt>
      <trkpt lat="48.67721" lon="6.57866">
        <ele>228</ele>
        <time>2020-08-16T13:34:10Z</time>
      </trkpt>
      <trkpt lat="48.67719" lon="6.57877">
        <ele>228</ele>
        <time>2020-08-16T13:34:12Z</time>
      </trkpt>
      <trkpt lat="48.67717" lon="6.57884">
        <ele>228</ele>
        <time>2020-08-16T13:34:13Z</time>
      </trkpt>
      <trkpt lat="48.67715" lon="6.57891">
        <ele>228</ele>
        <time>2020-08-16T13:34:14Z</time>
      </trkpt>
      <trkpt lat="48.67714" lon="6.57899">
        <ele>229</ele>
        <time>2020-08-16T13:34:15Z</time>
      </trkpt>
      <trkpt lat="48.67711" lon="6.5791">
        <ele>229</ele>
        <time>2020-08-16T13:34:17Z</time>
      </trkpt>
      <trkpt lat="48.67709" lon="6.57924">
        <ele>228</ele>
        <time>2020-08-16T13:34:19Z</time>
      </trkpt>
      <trkpt lat="48.67707" lon="6.57935">
        <ele>227</ele>
        <time>2020-08-16T13:34:21Z</time>
      </trkpt>
      <trkpt lat="48.67704" lon="6.57948">
        <ele>226</ele>
        <time>2020-08-16T13:34:23Z</time>
      </trkpt>
      <trkpt lat="48.67704" lon="6.5796">
        <ele>226</ele>
        <time>2020-08-16T13:34:25Z</time>
      </trkpt>
      <trkpt lat="48.67702" lon="6.57971">
        <ele>226</ele>
        <time>2020-08-16T13:34:27Z</time>
      </trkpt>
      <trkpt lat="48.67701" lon="6.57982">
        <ele>226</ele>
        <time>2020-08-16T13:34:29Z</time>
      </trkpt>
      <trkpt lat="48.67701" lon="6.57989">
        <ele>226</ele>
        <time>2020-08-16T13:34:30Z</time>
      </trkpt>
      <trkpt lat="48.677" lon="6.58002">
        <ele>226</ele>
        <time>2020-08-16T13:34:32Z</time>
      </trkpt>
      <trkpt lat="48.677" lon="6.58009">
        <ele>226</ele>
        <time>2020-08-16T13:34:33Z</time>
      </trkpt>
      <trkpt lat="48.67701" lon="6.58022">
        <ele>226</ele>
        <time>2020-08-16T13:34:35Z</time>
      </trkpt>
      <trkpt lat="48.67701" lon="6.58029">
        <ele>226</ele>
        <time>2020-08-16T13:34:36Z</time>
      </trkpt>
      <trkpt lat="48.67702" lon="6.58036">
        <ele>226</ele>
        <time>2020-08-16T13:34:37Z</time>
      </trkpt>
      <trkpt lat="48.67702" lon="6.58049">
        <ele>226</ele>
        <time>2020-08-16T13:34:39Z</time>
      </trkpt>
      <trkpt lat="48.67703" lon="6.58057">
        <ele>226</ele>
        <time>2020-08-16T13:34:40Z</time>
      </trkpt>
      <trkpt lat="48.67703" lon="6.5807">
        <ele>226</ele>
        <time>2020-08-16T13:34:42Z</time>
      </trkpt>
      <trkpt lat="48.67704" lon="6.58077">
        <ele>226</ele>
        <time>2020-08-16T13:34:43Z</time>
      </trkpt>
      <trkpt lat="48.67705" lon="6.58084">
        <ele>227</ele>
        <time>2020-08-16T13:34:44Z</time>
      </trkpt>
      <trkpt lat="48.67704" lon="6.58096">
        <ele>227</ele>
        <time>2020-08-16T13:34:46Z</time>
      </trkpt>
      <trkpt lat="48.67705" lon="6.58103">
        <ele>227</ele>
        <time>2020-08-16T13:34:47Z</time>
      </trkpt>
      <trkpt lat="48.67706" lon="6.5811">
        <ele>227</ele>
        <time>2020-08-16T13:34:48Z</time>
      </trkpt>
      <trkpt lat="48.67707" lon="6.58124">
        <ele>227</ele>
        <time>2020-08-16T13:34:50Z</time>
      </trkpt>
      <trkpt lat="48.67707" lon="6.58137">
        <ele>227</ele>
        <time>2020-08-16T13:34:52Z</time>
      </trkpt>
      <trkpt lat="48.67707" lon="6.58152">
        <ele>227</ele>
        <time>2020-08-16T13:34:54Z</time>
      </trkpt>
      <trkpt lat="48.67709" lon="6.58165">
        <ele>227</ele>
        <time>2020-08-16T13:34:56Z</time>
      </trkpt>
      <trkpt lat="48.67709" lon="6.58172">
        <ele>227</ele>
        <time>2020-08-16T13:34:57Z</time>
      </trkpt>
      <trkpt lat="48.67708" lon="6.58179">
        <ele>227</ele>
        <time>2020-08-16T13:34:58Z</time>
      </trkpt>
      <trkpt lat="48.67708" lon="6.58186">
        <ele>227</ele>
        <time>2020-08-16T13:34:59Z</time>
      </trkpt>
      <trkpt lat="48.67709" lon="6.58194">
        <ele>227</ele>
        <time>2020-08-16T13:35:00Z</time>
      </trkpt>
      <trkpt lat="48.67709" lon="6.58202">
        <ele>227</ele>
        <time>2020-08-16T13:35:01Z</time>
      </trkpt>
      <trkpt lat="48.6771" lon="6.58214">
        <ele>227</ele>
        <time>2020-08-16T13:35:03Z</time>
      </trkpt>
      <trkpt lat="48.67711" lon="6.58221">
        <ele>227</ele>
        <time>2020-08-16T13:35:04Z</time>
      </trkpt>
      <trkpt lat="48.67712" lon="6.58236">
        <ele>227</ele>
        <time>2020-08-16T13:35:06Z</time>
      </trkpt>
      <trkpt lat="48.67714" lon="6.58251">
        <ele>226</ele>
        <time>2020-08-16T13:35:08Z</time>
      </trkpt>
      <trkpt lat="48.67715" lon="6.58259">
        <ele>227</ele>
        <time>2020-08-16T13:35:09Z</time>
      </trkpt>
      <trkpt lat="48.67715" lon="6.58266">
        <ele>227</ele>
        <time>2020-08-16T13:35:10Z</time>
      </trkpt>
      <trkpt lat="48.67716" lon="6.58273">
        <ele>227</ele>
        <time>2020-08-16T13:35:11Z</time>
      </trkpt>
      <trkpt lat="48.67717" lon="6.58287">
        <ele>227</ele>
        <time>2020-08-16T13:35:13Z</time>
      </trkpt>
      <trkpt lat="48.67718" lon="6.58301">
        <ele>226</ele>
        <time>2020-08-16T13:35:15Z</time>
      </trkpt>
      <trkpt lat="48.67719" lon="6.58308">
        <ele>226</ele>
        <time>2020-08-16T13:35:16Z</time>
      </trkpt>
      <trkpt lat="48.67719" lon="6.58322">
        <ele>226</ele>
        <time>2020-08-16T13:35:18Z</time>
      </trkpt>
      <trkpt lat="48.6772" lon="6.58329">
        <ele>226</ele>
        <time>2020-08-16T13:35:19Z</time>
      </trkpt>
      <trkpt lat="48.6772" lon="6.58336">
        <ele>226</ele>
        <time>2020-08-16T13:35:20Z</time>
      </trkpt>
      <trkpt lat="48.6772" lon="6.58348">
        <ele>226</ele>
        <time>2020-08-16T13:35:22Z</time>
      </trkpt>
      <trkpt lat="48.6772" lon="6.58362">
        <ele>226</ele>
        <time>2020-08-16T13:35:24Z</time>
      </trkpt>
      <trkpt lat="48.67721" lon="6.58376">
        <ele>226</ele>
        <time>2020-08-16T13:35:26Z</time>
      </trkpt>
      <trkpt lat="48.67722" lon="6.58388">
        <ele>226</ele>
        <time>2020-08-16T13:35:28Z</time>
      </trkpt>
      <trkpt lat="48.67724" lon="6.58395">
        <ele>226</ele>
        <time>2020-08-16T13:35:29Z</time>
      </trkpt>
      <trkpt lat="48.67725" lon="6.58402">
        <ele>227</ele>
        <time>2020-08-16T13:35:30Z</time>
      </trkpt>
      <trkpt lat="48.67726" lon="6.58417">
        <ele>226</ele>
        <time>2020-08-16T13:35:32Z</time>
      </trkpt>
      <trkpt lat="48.67727" lon="6.58429">
        <ele>226</ele>
        <time>2020-08-16T13:35:34Z</time>
      </trkpt>
      <trkpt lat="48.67727" lon="6.58441">
        <ele>227</ele>
        <time>2020-08-16T13:35:36Z</time>
      </trkpt>
      <trkpt lat="48.67727" lon="6.58453">
        <ele>227</ele>
        <time>2020-08-16T13:35:38Z</time>
      </trkpt>
      <trkpt lat="48.67727" lon="6.58459">
        <ele>227</ele>
        <time>2020-08-16T13:35:39Z</time>
      </trkpt>
      <trkpt lat="48.67728" lon="6.58466">
        <ele>227</ele>
        <time>2020-08-16T13:35:40Z</time>
      </trkpt>
      <trkpt lat="48.67729" lon="6.58473">
        <ele>227</ele>
        <time>2020-08-16T13:35:41Z</time>
      </trkpt>
      <trkpt lat="48.6773" lon="6.5848">
        <ele>227</ele>
        <time>2020-08-16T13:35:42Z</time>
      </trkpt>
      <trkpt lat="48.67732" lon="6.58487">
        <ele>227</ele>
        <time>2020-08-16T13:35:43Z</time>
      </trkpt>
      <trkpt lat="48.67732" lon="6.585">
        <ele>227</ele>
        <time>2020-08-16T13:35:45Z</time>
      </trkpt>
      <trkpt lat="48.67732" lon="6.58507">
        <ele>228</ele>
        <time>2020-08-16T13:35:46Z</time>
      </trkpt>
      <trkpt lat="48.67735" lon="6.58521">
        <ele>228</ele>
        <time>2020-08-16T13:35:48Z</time>
      </trkpt>
      <trkpt lat="48.67737" lon="6.58528">
        <ele>227</ele>
        <time>2020-08-16T13:35:49Z</time>
      </trkpt>
      <trkpt lat="48.67738" lon="6.58535">
        <ele>227</ele>
        <time>2020-08-16T13:35:50Z</time>
      </trkpt>
      <trkpt lat="48.6774" lon="6.58542">
        <ele>227</ele>
        <time>2020-08-16T13:35:51Z</time>
      </trkpt>
      <trkpt lat="48.6774" lon="6.58549">
        <ele>228</ele>
        <time>2020-08-16T13:35:52Z</time>
      </trkpt>
      <trkpt lat="48.67742" lon="6.58562">
        <ele>228</ele>
        <time>2020-08-16T13:35:54Z</time>
      </trkpt>
      <trkpt lat="48.67743" lon="6.58569">
        <ele>228</ele>
        <time>2020-08-16T13:35:55Z</time>
      </trkpt>
      <trkpt lat="48.67745" lon="6.58583">
        <ele>227</ele>
        <time>2020-08-16T13:35:57Z</time>
      </trkpt>
      <trkpt lat="48.67746" lon="6.58597">
        <ele>226</ele>
        <time>2020-08-16T13:35:59Z</time>
      </trkpt>
      <trkpt lat="48.67748" lon="6.58604">
        <ele>226</ele>
        <time>2020-08-16T13:36:00Z</time>
      </trkpt>
      <trkpt lat="48.67749" lon="6.58611">
        <ele>226</ele>
        <time>2020-08-16T13:36:01Z</time>
      </trkpt>
      <trkpt lat="48.6775" lon="6.58624">
        <ele>227</ele>
        <time>2020-08-16T13:36:03Z</time>
      </trkpt>
      <trkpt lat="48.67752" lon="6.58636">
        <ele>227</ele>
        <time>2020-08-16T13:36:05Z</time>
      </trkpt>
      <trkpt lat="48.67753" lon="6.58644">
        <ele>227</ele>
        <time>2020-08-16T13:36:06Z</time>
      </trkpt>
      <trkpt lat="48.67754" lon="6.58651">
        <ele>227</ele>
        <time>2020-08-16T13:36:07Z</time>
      </trkpt>
      <trkpt lat="48.67756" lon="6.58658">
        <ele>227</ele>
        <time>2020-08-16T13:36:08Z</time>
      </trkpt>
      <trkpt lat="48.67757" lon="6.58665">
        <ele>227</ele>
        <time>2020-08-16T13:36:09Z</time>
      </trkpt>
      <trkpt lat="48.67758" lon="6.58673">
        <ele>227</ele>
        <time>2020-08-16T13:36:10Z</time>
      </trkpt>
      <trkpt lat="48.67759" lon="6.58681">
        <ele>227</ele>
        <time>2020-08-16T13:36:11Z</time>
      </trkpt>
      <trkpt lat="48.67759" lon="6.58694">
        <ele>228</ele>
        <time>2020-08-16T13:36:13Z</time>
      </trkpt>
      <trkpt lat="48.67762" lon="6.58701">
        <ele>227</ele>
        <time>2020-08-16T13:36:14Z</time>
      </trkpt>
      <trkpt lat="48.67763" lon="6.58713">
        <ele>227</ele>
        <time>2020-08-16T13:36:16Z</time>
      </trkpt>
      <trkpt lat="48.67764" lon="6.58725">
        <ele>227</ele>
        <time>2020-08-16T13:36:18Z</time>
      </trkpt>
      <trkpt lat="48.67765" lon="6.58737">
        <ele>227</ele>
        <time>2020-08-16T13:36:20Z</time>
      </trkpt>
      <trkpt lat="48.67767" lon="6.58749">
        <ele>228</ele>
        <time>2020-08-16T13:36:22Z</time>
      </trkpt>
      <trkpt lat="48.67768" lon="6.58762">
        <ele>227</ele>
        <time>2020-08-16T13:36:24Z</time>
      </trkpt>
      <trkpt lat="48.6777" lon="6.58774">
        <ele>227</ele>
        <time>2020-08-16T13:36:26Z</time>
      </trkpt>
      <trkpt lat="48.67772" lon="6.58787">
        <ele>227</ele>
        <time>2020-08-16T13:36:28Z</time>
      </trkpt>
      <trkpt lat="48.67773" lon="6.588">
        <ele>227</ele>
        <time>2020-08-16T13:36:30Z</time>
      </trkpt>
      <trkpt lat="48.67774" lon="6.58813">
        <ele>227</ele>
        <time>2020-08-16T13:36:32Z</time>
      </trkpt>
      <trkpt lat="48.67775" lon="6.5882">
        <ele>227</ele>
        <time>2020-08-16T13:36:33Z</time>
      </trkpt>
      <trkpt lat="48.67777" lon="6.58833">
        <ele>227</ele>
        <time>2020-08-16T13:36:35Z</time>
      </trkpt>
      <trkpt lat="48.67778" lon="6.5884">
        <ele>227</ele>
        <time>2020-08-16T13:36:36Z</time>
      </trkpt>
      <trkpt lat="48.67778" lon="6.58852">
        <ele>227</ele>
        <time>2020-08-16T13:36:38Z</time>
      </trkpt>
      <trkpt lat="48.67779" lon="6.58865">
        <ele>227</ele>
        <time>2020-08-16T13:36:40Z</time>
      </trkpt>
      <trkpt lat="48.67781" lon="6.58878">
        <ele>227</ele>
        <time>2020-08-16T13:36:42Z</time>
      </trkpt>
      <trkpt lat="48.67781" lon="6.58885">
        <ele>227</ele>
        <time>2020-08-16T13:36:43Z</time>
      </trkpt>
      <trkpt lat="48.67782" lon="6.58899">
        <ele>227</ele>
        <time>2020-08-16T13:36:45Z</time>
      </trkpt>
      <trkpt lat="48.67783" lon="6.58906">
        <ele>227</ele>
        <time>2020-08-16T13:36:46Z</time>
      </trkpt>
      <trkpt lat="48.67785" lon="6.58919">
        <ele>226</ele>
        <time>2020-08-16T13:36:48Z</time>
      </trkpt>
      <trkpt lat="48.67786" lon="6.58932">
        <ele>226</ele>
        <time>2020-08-16T13:36:50Z</time>
      </trkpt>
      <trkpt lat="48.67788" lon="6.58939">
        <ele>226</ele>
        <time>2020-08-16T13:36:51Z</time>
      </trkpt>
      <trkpt lat="48.67789" lon="6.58946">
        <ele>226</ele>
        <time>2020-08-16T13:36:52Z</time>
      </trkpt>
      <trkpt lat="48.67791" lon="6.58953">
        <ele>226</ele>
        <time>2020-08-16T13:36:53Z</time>
      </trkpt>
      <trkpt lat="48.67793" lon="6.58965">
        <ele>226</ele>
        <time>2020-08-16T13:36:55Z</time>
      </trkpt>
      <trkpt lat="48.67794" lon="6.58971">
        <ele>226</ele>
        <time>2020-08-16T13:36:56Z</time>
      </trkpt>
      <trkpt lat="48.67796" lon="6.58984">
        <ele>226</ele>
        <time>2020-08-16T13:36:58Z</time>
      </trkpt>
      <trkpt lat="48.67797" lon="6.58991">
        <ele>226</ele>
        <time>2020-08-16T13:36:59Z</time>
      </trkpt>
      <trkpt lat="48.67797" lon="6.59002">
        <ele>226</ele>
        <time>2020-08-16T13:37:01Z</time>
      </trkpt>
      <trkpt lat="48.67798" lon="6.59013">
        <ele>226</ele>
        <time>2020-08-16T13:37:03Z</time>
      </trkpt>
      <trkpt lat="48.67798" lon="6.59025">
        <ele>227</ele>
        <time>2020-08-16T13:37:05Z</time>
      </trkpt>
      <trkpt lat="48.67798" lon="6.59036">
        <ele>227</ele>
        <time>2020-08-16T13:37:07Z</time>
      </trkpt>
      <trkpt lat="48.67798" lon="6.59048">
        <ele>228</ele>
        <time>2020-08-16T13:37:09Z</time>
      </trkpt>
      <trkpt lat="48.67801" lon="6.59059">
        <ele>229</ele>
        <time>2020-08-16T13:37:11Z</time>
      </trkpt>
      <trkpt lat="48.67803" lon="6.59067">
        <ele>229</ele>
        <time>2020-08-16T13:37:13Z</time>
      </trkpt>
      <trkpt lat="48.67805" lon="6.59076">
        <ele>229</ele>
        <time>2020-08-16T13:37:15Z</time>
      </trkpt>
      <trkpt lat="48.67807" lon="6.59087">
        <ele>228</ele>
        <time>2020-08-16T13:37:18Z</time>
      </trkpt>
      <trkpt lat="48.6781" lon="6.59094">
        <ele>228</ele>
        <time>2020-08-16T13:37:20Z</time>
      </trkpt>
      <trkpt lat="48.67812" lon="6.591">
        <ele>228</ele>
        <time>2020-08-16T13:37:22Z</time>
      </trkpt>
      <trkpt lat="48.67817" lon="6.59105">
        <ele>229</ele>
        <time>2020-08-16T13:37:24Z</time>
      </trkpt>
      <trkpt lat="48.67822" lon="6.59107">
        <ele>229</ele>
        <time>2020-08-16T13:37:35Z</time>
      </trkpt>
      <trkpt lat="48.67828" lon="6.591">
        <ele>229</ele>
        <time>2020-08-16T13:37:39Z</time>
      </trkpt>
      <trkpt lat="48.67833" lon="6.59096">
        <ele>228</ele>
        <time>2020-08-16T13:37:41Z</time>
      </trkpt>
      <trkpt lat="48.67838" lon="6.59094">
        <ele>229</ele>
        <time>2020-08-16T13:37:43Z</time>
      </trkpt>
      <trkpt lat="48.67844" lon="6.5909">
        <ele>231</ele>
        <time>2020-08-16T13:37:45Z</time>
      </trkpt>
      <trkpt lat="48.67851" lon="6.59085">
        <ele>233</ele>
        <time>2020-08-16T13:37:47Z</time>
      </trkpt>
      <trkpt lat="48.67856" lon="6.5908">
        <ele>233</ele>
        <time>2020-08-16T13:37:49Z</time>
      </trkpt>
      <trkpt lat="48.67862" lon="6.59076">
        <ele>233</ele>
        <time>2020-08-16T13:37:51Z</time>
      </trkpt>
      <trkpt lat="48.67867" lon="6.59069">
        <ele>233</ele>
        <time>2020-08-16T13:37:53Z</time>
      </trkpt>
      <trkpt lat="48.67872" lon="6.59066">
        <ele>232</ele>
        <time>2020-08-16T13:37:55Z</time>
      </trkpt>
      <trkpt lat="48.67877" lon="6.59063">
        <ele>232</ele>
        <time>2020-08-16T13:37:57Z</time>
      </trkpt>
      <trkpt lat="48.67884" lon="6.5906">
        <ele>232</ele>
        <time>2020-08-16T13:37:59Z</time>
      </trkpt>
      <trkpt lat="48.6789" lon="6.59056">
        <ele>232</ele>
        <time>2020-08-16T13:38:01Z</time>
      </trkpt>
      <trkpt lat="48.67894" lon="6.59048">
        <ele>231</ele>
        <time>2020-08-16T13:38:03Z</time>
      </trkpt>
      <trkpt lat="48.67895" lon="6.5904">
        <ele>231</ele>
        <time>2020-08-16T13:38:05Z</time>
      </trkpt>
      <trkpt lat="48.67892" lon="6.59029">
        <ele>231</ele>
        <time>2020-08-16T13:38:07Z</time>
      </trkpt>
      <trkpt lat="48.6789" lon="6.59022">
        <ele>231</ele>
        <time>2020-08-16T13:38:08Z</time>
      </trkpt>
      <trkpt lat="48.67888" lon="6.59015">
        <ele>230</ele>
        <time>2020-08-16T13:38:09Z</time>
      </trkpt>
      <trkpt lat="48.67886" lon="6.59007">
        <ele>230</ele>
        <time>2020-08-16T13:38:10Z</time>
      </trkpt>
      <trkpt lat="48.67884" lon="6.58999">
        <ele>229</ele>
        <time>2020-08-16T13:38:11Z</time>
      </trkpt>
      <trkpt lat="48.67881" lon="6.58991">
        <ele>228</ele>
        <time>2020-08-16T13:38:12Z</time>
      </trkpt>
      <trkpt lat="48.67877" lon="6.58981">
        <ele>228</ele>
        <time>2020-08-16T13:38:13Z</time>
      </trkpt>
      <trkpt lat="48.67876" lon="6.58971">
        <ele>228</ele>
        <time>2020-08-16T13:38:14Z</time>
      </trkpt>
      <trkpt lat="48.67875" lon="6.58962">
        <ele>227</ele>
        <time>2020-08-16T13:38:15Z</time>
      </trkpt>
      <trkpt lat="48.67872" lon="6.58953">
        <ele>227</ele>
        <time>2020-08-16T13:38:16Z</time>
      </trkpt>
      <trkpt lat="48.67869" lon="6.58947">
        <ele>227</ele>
        <time>2020-08-16T13:38:17Z</time>
      </trkpt>
      <trkpt lat="48.6786" lon="6.58945">
        <ele>227</ele>
        <time>2020-08-16T13:38:19Z</time>
      </trkpt>
      <trkpt lat="48.67853" lon="6.58949">
        <ele>227</ele>
        <time>2020-08-16T13:38:21Z</time>
      </trkpt>
      <trkpt lat="48.67848" lon="6.58952">
        <ele>227</ele>
        <time>2020-08-16T13:38:23Z</time>
      </trkpt>
      <trkpt lat="48.67851" lon="6.58958">
        <ele>227</ele>
        <time>2020-08-16T13:38:40Z</time>
      </trkpt>
      <trkpt lat="48.67851" lon="6.58966">
        <ele>227</ele>
        <time>2020-08-16T13:39:32Z</time>
      </trkpt>
      <trkpt lat="48.67844" lon="6.58963">
        <ele>228</ele>
        <time>2020-08-16T13:40:56Z</time>
      </trkpt>
    </trkseg>
  </trk>
</gpx>